<?xml version="1.0" encoding="UTF-8" standalone="no" ?>
<gpx xmlns="http://www.topografix.com/GPX/1/1" xmlns:xsi="http://www.w3.org/2001/XMLSchema-instance" xsi:schemaLocation="http://www.topografix.com/GPX/1/1 http://www.topografix.com/GPX/1/1/gpx.xsd" version="1.1" creator="VisuGPX - https://www.visugpx.com">
  <metadata>
    <name>Ruoms</name>
    <desc><![CDATA[Belle journée avec encore pas trop de chaleur. Ca se gâte sur la fin !]]></desc>
  </metadata>
  <trk>
    <name><![CDATA[Ruoms]]></name>
    <trkseg>
      <trkpt lat="44.82377" lon="4.0706">
        <ele>1014.4</ele>
        <time>2022-06-10T07:46:50Z</time>
      </trkpt>
      <trkpt lat="44.82376" lon="4.07054">
        <ele>1014.4</ele>
        <time>2022-06-10T07:46:51Z</time>
      </trkpt>
      <trkpt lat="44.82377" lon="4.0705">
        <ele>1014.4</ele>
        <time>2022-06-10T07:46:52Z</time>
      </trkpt>
      <trkpt lat="44.82378" lon="4.0705">
        <ele>1014.4</ele>
        <time>2022-06-10T07:46:53Z</time>
      </trkpt>
      <trkpt lat="44.8238" lon="4.0705">
        <ele>1014.4</ele>
        <time>2022-06-10T07:46:54Z</time>
      </trkpt>
      <trkpt lat="44.82381" lon="4.0705">
        <ele>1014.5</ele>
        <time>2022-06-10T07:46:55Z</time>
      </trkpt>
      <trkpt lat="44.82381" lon="4.0705">
        <ele>1014.5</ele>
        <time>2022-06-10T07:46:56Z</time>
      </trkpt>
      <trkpt lat="44.82381" lon="4.0705">
        <ele>1014.5</ele>
        <time>2022-06-10T07:46:57Z</time>
      </trkpt>
      <trkpt lat="44.82381" lon="4.07051">
        <ele>1014.5</ele>
        <time>2022-06-10T07:46:58Z</time>
      </trkpt>
      <trkpt lat="44.82381" lon="4.07051">
        <ele>1014.5</ele>
        <time>2022-06-10T07:46:59Z</time>
      </trkpt>
      <trkpt lat="44.82381" lon="4.07052">
        <ele>1014.5</ele>
        <time>2022-06-10T07:47:00Z</time>
      </trkpt>
      <trkpt lat="44.82381" lon="4.07052">
        <ele>1014.5</ele>
        <time>2022-06-10T07:47:01Z</time>
      </trkpt>
      <trkpt lat="44.82381" lon="4.07052">
        <ele>1014.5</ele>
        <time>2022-06-10T07:47:02Z</time>
      </trkpt>
      <trkpt lat="44.82381" lon="4.07053">
        <ele>1014.5</ele>
        <time>2022-06-10T07:47:03Z</time>
      </trkpt>
      <trkpt lat="44.82381" lon="4.07053">
        <ele>1014.5</ele>
        <time>2022-06-10T07:47:04Z</time>
      </trkpt>
      <trkpt lat="44.82381" lon="4.07054">
        <ele>1014.5</ele>
        <time>2022-06-10T07:47:05Z</time>
      </trkpt>
      <trkpt lat="44.82381" lon="4.07054">
        <ele>1014.5</ele>
        <time>2022-06-10T07:47:06Z</time>
      </trkpt>
      <trkpt lat="44.82381" lon="4.07055">
        <ele>1014.5</ele>
        <time>2022-06-10T07:47:07Z</time>
      </trkpt>
      <trkpt lat="44.8238" lon="4.07056">
        <ele>1014.5</ele>
        <time>2022-06-10T07:47:08Z</time>
      </trkpt>
      <trkpt lat="44.8238" lon="4.07057">
        <ele>1014.5</ele>
        <time>2022-06-10T07:47:09Z</time>
      </trkpt>
      <trkpt lat="44.82379" lon="4.07058">
        <ele>1014.5</ele>
        <time>2022-06-10T07:47:10Z</time>
      </trkpt>
      <trkpt lat="44.82379" lon="4.07059">
        <ele>1014.5</ele>
        <time>2022-06-10T07:47:11Z</time>
      </trkpt>
      <trkpt lat="44.82378" lon="4.0706">
        <ele>1014.5</ele>
        <time>2022-06-10T07:47:13Z</time>
      </trkpt>
      <trkpt lat="44.82377" lon="4.0706">
        <ele>1014.5</ele>
        <time>2022-06-10T07:47:14Z</time>
      </trkpt>
      <trkpt lat="44.82377" lon="4.0706">
        <ele>1014.5</ele>
        <time>2022-06-10T07:47:15Z</time>
      </trkpt>
      <trkpt lat="44.82377" lon="4.0706">
        <ele>1014.5</ele>
        <time>2022-06-10T07:47:16Z</time>
      </trkpt>
      <trkpt lat="44.82377" lon="4.0706">
        <ele>1014.5</ele>
        <time>2022-06-10T07:47:17Z</time>
      </trkpt>
      <trkpt lat="44.82376" lon="4.0706">
        <ele>1014.5</ele>
        <time>2022-06-10T07:47:18Z</time>
      </trkpt>
      <trkpt lat="44.82375" lon="4.07059">
        <ele>1014.5</ele>
        <time>2022-06-10T07:47:19Z</time>
      </trkpt>
      <trkpt lat="44.82375" lon="4.07059">
        <ele>1014.5</ele>
        <time>2022-06-10T07:47:20Z</time>
      </trkpt>
      <trkpt lat="44.82375" lon="4.07059">
        <ele>1014.5</ele>
        <time>2022-06-10T07:47:21Z</time>
      </trkpt>
      <trkpt lat="44.82374" lon="4.07059">
        <ele>1014.5</ele>
        <time>2022-06-10T07:47:22Z</time>
      </trkpt>
      <trkpt lat="44.82374" lon="4.07059">
        <ele>1014.5</ele>
        <time>2022-06-10T07:47:23Z</time>
      </trkpt>
      <trkpt lat="44.82373" lon="4.07063">
        <ele>1014.5</ele>
        <time>2022-06-10T07:47:24Z</time>
      </trkpt>
      <trkpt lat="44.82373" lon="4.07067">
        <ele>1014.5</ele>
        <time>2022-06-10T07:47:39Z</time>
      </trkpt>
      <trkpt lat="44.82373" lon="4.0707">
        <ele>1014.5</ele>
        <time>2022-06-10T07:47:40Z</time>
      </trkpt>
      <trkpt lat="44.82374" lon="4.07072">
        <ele>1014.5</ele>
        <time>2022-06-10T07:47:41Z</time>
      </trkpt>
      <trkpt lat="44.82376" lon="4.07074">
        <ele>1014.5</ele>
        <time>2022-06-10T07:47:42Z</time>
      </trkpt>
      <trkpt lat="44.82377" lon="4.07076">
        <ele>1014.6</ele>
        <time>2022-06-10T07:47:43Z</time>
      </trkpt>
      <trkpt lat="44.82379" lon="4.07076">
        <ele>1014.6</ele>
        <time>2022-06-10T07:47:45Z</time>
      </trkpt>
      <trkpt lat="44.82381" lon="4.07074">
        <ele>1014.6</ele>
        <time>2022-06-10T07:47:46Z</time>
      </trkpt>
      <trkpt lat="44.82382" lon="4.07073">
        <ele>1014.6</ele>
        <time>2022-06-10T07:47:48Z</time>
      </trkpt>
      <trkpt lat="44.82383" lon="4.07073">
        <ele>1014.6</ele>
        <time>2022-06-10T07:47:49Z</time>
      </trkpt>
      <trkpt lat="44.82383" lon="4.07075">
        <ele>1014.6</ele>
        <time>2022-06-10T07:47:50Z</time>
      </trkpt>
      <trkpt lat="44.82383" lon="4.07075">
        <ele>1014.6</ele>
        <time>2022-06-10T07:47:51Z</time>
      </trkpt>
      <trkpt lat="44.82382" lon="4.07076">
        <ele>1014.6</ele>
        <time>2022-06-10T07:47:52Z</time>
      </trkpt>
      <trkpt lat="44.82382" lon="4.07076">
        <ele>1014.6</ele>
        <time>2022-06-10T07:47:54Z</time>
      </trkpt>
      <trkpt lat="44.82382" lon="4.07076">
        <ele>1014.6</ele>
        <time>2022-06-10T07:47:55Z</time>
      </trkpt>
      <trkpt lat="44.82382" lon="4.07075">
        <ele>1014.6</ele>
        <time>2022-06-10T07:47:56Z</time>
      </trkpt>
      <trkpt lat="44.82382" lon="4.07075">
        <ele>1014.6</ele>
        <time>2022-06-10T07:47:57Z</time>
      </trkpt>
      <trkpt lat="44.82382" lon="4.07075">
        <ele>1014.6</ele>
        <time>2022-06-10T07:47:58Z</time>
      </trkpt>
      <trkpt lat="44.82381" lon="4.07075">
        <ele>1014.6</ele>
        <time>2022-06-10T07:47:59Z</time>
      </trkpt>
      <trkpt lat="44.82381" lon="4.07075">
        <ele>1014.6</ele>
        <time>2022-06-10T07:48:00Z</time>
      </trkpt>
      <trkpt lat="44.8238" lon="4.07074">
        <ele>1014.6</ele>
        <time>2022-06-10T07:48:02Z</time>
      </trkpt>
      <trkpt lat="44.8238" lon="4.07074">
        <ele>1014.6</ele>
        <time>2022-06-10T07:48:03Z</time>
      </trkpt>
      <trkpt lat="44.8238" lon="4.07074">
        <ele>1014.6</ele>
        <time>2022-06-10T07:48:04Z</time>
      </trkpt>
      <trkpt lat="44.82381" lon="4.07074">
        <ele>1014.6</ele>
        <time>2022-06-10T07:48:05Z</time>
      </trkpt>
      <trkpt lat="44.82381" lon="4.07073">
        <ele>1014.6</ele>
        <time>2022-06-10T07:48:06Z</time>
      </trkpt>
      <trkpt lat="44.82381" lon="4.07073">
        <ele>1014.6</ele>
        <time>2022-06-10T07:48:07Z</time>
      </trkpt>
      <trkpt lat="44.82381" lon="4.07073">
        <ele>1014.6</ele>
        <time>2022-06-10T07:48:08Z</time>
      </trkpt>
      <trkpt lat="44.82381" lon="4.07073">
        <ele>1014.6</ele>
        <time>2022-06-10T07:48:09Z</time>
      </trkpt>
      <trkpt lat="44.82381" lon="4.07074">
        <ele>1014.6</ele>
        <time>2022-06-10T07:48:10Z</time>
      </trkpt>
      <trkpt lat="44.82382" lon="4.07074">
        <ele>1014.6</ele>
        <time>2022-06-10T07:48:11Z</time>
      </trkpt>
      <trkpt lat="44.82382" lon="4.07074">
        <ele>1014.6</ele>
        <time>2022-06-10T07:48:12Z</time>
      </trkpt>
      <trkpt lat="44.82382" lon="4.07073">
        <ele>1014.6</ele>
        <time>2022-06-10T07:48:13Z</time>
      </trkpt>
      <trkpt lat="44.82382" lon="4.07073">
        <ele>1014.6</ele>
        <time>2022-06-10T07:48:14Z</time>
      </trkpt>
      <trkpt lat="44.82382" lon="4.07073">
        <ele>1014.6</ele>
        <time>2022-06-10T07:48:15Z</time>
      </trkpt>
      <trkpt lat="44.82382" lon="4.07073">
        <ele>1014.6</ele>
        <time>2022-06-10T07:48:16Z</time>
      </trkpt>
      <trkpt lat="44.82382" lon="4.07073">
        <ele>1014.6</ele>
        <time>2022-06-10T07:48:17Z</time>
      </trkpt>
      <trkpt lat="44.82382" lon="4.07073">
        <ele>1014.6</ele>
        <time>2022-06-10T07:48:18Z</time>
      </trkpt>
      <trkpt lat="44.82382" lon="4.07074">
        <ele>1014.6</ele>
        <time>2022-06-10T07:48:19Z</time>
      </trkpt>
      <trkpt lat="44.82382" lon="4.07073">
        <ele>1014.6</ele>
        <time>2022-06-10T07:48:20Z</time>
      </trkpt>
      <trkpt lat="44.82382" lon="4.07073">
        <ele>1014.6</ele>
        <time>2022-06-10T07:48:21Z</time>
      </trkpt>
      <trkpt lat="44.82382" lon="4.07073">
        <ele>1014.6</ele>
        <time>2022-06-10T07:48:22Z</time>
      </trkpt>
      <trkpt lat="44.82382" lon="4.07074">
        <ele>1014.6</ele>
        <time>2022-06-10T07:48:23Z</time>
      </trkpt>
      <trkpt lat="44.82382" lon="4.07076">
        <ele>1014.6</ele>
        <time>2022-06-10T07:48:24Z</time>
      </trkpt>
      <trkpt lat="44.82382" lon="4.07078">
        <ele>1014.6</ele>
        <time>2022-06-10T07:48:25Z</time>
      </trkpt>
      <trkpt lat="44.82382" lon="4.07079">
        <ele>1014.6</ele>
        <time>2022-06-10T07:48:26Z</time>
      </trkpt>
      <trkpt lat="44.82382" lon="4.07079">
        <ele>1014.6</ele>
        <time>2022-06-10T07:48:27Z</time>
      </trkpt>
      <trkpt lat="44.82382" lon="4.07079">
        <ele>1014.6</ele>
        <time>2022-06-10T07:48:28Z</time>
      </trkpt>
      <trkpt lat="44.82382" lon="4.07079">
        <ele>1014.6</ele>
        <time>2022-06-10T07:48:29Z</time>
      </trkpt>
      <trkpt lat="44.82382" lon="4.07078">
        <ele>1014.6</ele>
        <time>2022-06-10T07:48:30Z</time>
      </trkpt>
      <trkpt lat="44.82382" lon="4.07078">
        <ele>1014.6</ele>
        <time>2022-06-10T07:48:31Z</time>
      </trkpt>
      <trkpt lat="44.82382" lon="4.07078">
        <ele>1014.6</ele>
        <time>2022-06-10T07:48:32Z</time>
      </trkpt>
      <trkpt lat="44.82382" lon="4.07078">
        <ele>1014.6</ele>
        <time>2022-06-10T07:48:33Z</time>
      </trkpt>
      <trkpt lat="44.82382" lon="4.07078">
        <ele>1014.6</ele>
        <time>2022-06-10T07:48:34Z</time>
      </trkpt>
      <trkpt lat="44.82382" lon="4.07078">
        <ele>1014.6</ele>
        <time>2022-06-10T07:48:35Z</time>
      </trkpt>
      <trkpt lat="44.82382" lon="4.07078">
        <ele>1014.6</ele>
        <time>2022-06-10T07:48:36Z</time>
      </trkpt>
      <trkpt lat="44.82382" lon="4.07078">
        <ele>1014.6</ele>
        <time>2022-06-10T07:48:37Z</time>
      </trkpt>
      <trkpt lat="44.82383" lon="4.07074">
        <ele>1014.6</ele>
        <time>2022-06-10T07:55:49Z</time>
      </trkpt>
      <trkpt lat="44.82383" lon="4.07074">
        <ele>1014.6</ele>
        <time>2022-06-10T07:55:50Z</time>
      </trkpt>
      <trkpt lat="44.82383" lon="4.07074">
        <ele>1014.6</ele>
        <time>2022-06-10T07:55:51Z</time>
      </trkpt>
      <trkpt lat="44.82383" lon="4.07074">
        <ele>1014.6</ele>
        <time>2022-06-10T07:55:52Z</time>
      </trkpt>
      <trkpt lat="44.82383" lon="4.07074">
        <ele>1014.6</ele>
        <time>2022-06-10T07:55:53Z</time>
      </trkpt>
      <trkpt lat="44.82383" lon="4.07074">
        <ele>1014.6</ele>
        <time>2022-06-10T07:55:54Z</time>
      </trkpt>
      <trkpt lat="44.82383" lon="4.07074">
        <ele>1014.6</ele>
        <time>2022-06-10T07:55:55Z</time>
      </trkpt>
      <trkpt lat="44.82383" lon="4.07074">
        <ele>1014.6</ele>
        <time>2022-06-10T07:55:56Z</time>
      </trkpt>
      <trkpt lat="44.82383" lon="4.07074">
        <ele>1014.6</ele>
        <time>2022-06-10T07:55:57Z</time>
      </trkpt>
      <trkpt lat="44.82383" lon="4.07074">
        <ele>1014.6</ele>
        <time>2022-06-10T07:55:58Z</time>
      </trkpt>
      <trkpt lat="44.82383" lon="4.07074">
        <ele>1014.6</ele>
        <time>2022-06-10T07:55:59Z</time>
      </trkpt>
      <trkpt lat="44.82383" lon="4.07074">
        <ele>1014.6</ele>
        <time>2022-06-10T07:56:00Z</time>
      </trkpt>
      <trkpt lat="44.8238" lon="4.0707">
        <ele>1014.6</ele>
        <time>2022-06-10T07:56:06Z</time>
      </trkpt>
      <trkpt lat="44.82377" lon="4.07068">
        <ele>1014.6</ele>
        <time>2022-06-10T07:56:07Z</time>
      </trkpt>
      <trkpt lat="44.82373" lon="4.07065">
        <ele>1014.6</ele>
        <time>2022-06-10T07:56:09Z</time>
      </trkpt>
      <trkpt lat="44.82373" lon="4.07063">
        <ele>1014.6</ele>
        <time>2022-06-10T07:56:10Z</time>
      </trkpt>
      <trkpt lat="44.82372" lon="4.07061">
        <ele>1014.6</ele>
        <time>2022-06-10T07:56:11Z</time>
      </trkpt>
      <trkpt lat="44.82372" lon="4.07061">
        <ele>1014.6</ele>
        <time>2022-06-10T07:56:12Z</time>
      </trkpt>
      <trkpt lat="44.82372" lon="4.07062">
        <ele>1014.6</ele>
        <time>2022-06-10T07:56:13Z</time>
      </trkpt>
      <trkpt lat="44.82372" lon="4.07063">
        <ele>1014.6</ele>
        <time>2022-06-10T07:56:15Z</time>
      </trkpt>
      <trkpt lat="44.82372" lon="4.07064">
        <ele>1014.6</ele>
        <time>2022-06-10T07:56:16Z</time>
      </trkpt>
      <trkpt lat="44.82372" lon="4.07065">
        <ele>1014.5</ele>
        <time>2022-06-10T07:56:17Z</time>
      </trkpt>
      <trkpt lat="44.82372" lon="4.07066">
        <ele>1014.5</ele>
        <time>2022-06-10T07:56:18Z</time>
      </trkpt>
      <trkpt lat="44.82372" lon="4.07067">
        <ele>1014.5</ele>
        <time>2022-06-10T07:56:20Z</time>
      </trkpt>
      <trkpt lat="44.82372" lon="4.07068">
        <ele>1014.5</ele>
        <time>2022-06-10T07:56:21Z</time>
      </trkpt>
      <trkpt lat="44.82372" lon="4.07069">
        <ele>1014.5</ele>
        <time>2022-06-10T07:56:22Z</time>
      </trkpt>
      <trkpt lat="44.82371" lon="4.0707">
        <ele>1014.5</ele>
        <time>2022-06-10T08:00:15Z</time>
      </trkpt>
      <trkpt lat="44.82371" lon="4.07071">
        <ele>1014.5</ele>
        <time>2022-06-10T08:00:16Z</time>
      </trkpt>
      <trkpt lat="44.82371" lon="4.07072">
        <ele>1014.5</ele>
        <time>2022-06-10T08:00:17Z</time>
      </trkpt>
      <trkpt lat="44.82372" lon="4.07076">
        <ele>1014.5</ele>
        <time>2022-06-10T08:00:18Z</time>
      </trkpt>
      <trkpt lat="44.82374" lon="4.07081">
        <ele>1014.5</ele>
        <time>2022-06-10T08:00:20Z</time>
      </trkpt>
      <trkpt lat="44.82376" lon="4.07084">
        <ele>1014.5</ele>
        <time>2022-06-10T08:00:21Z</time>
      </trkpt>
      <trkpt lat="44.8238" lon="4.07086">
        <ele>1014.4</ele>
        <time>2022-06-10T08:00:22Z</time>
      </trkpt>
      <trkpt lat="44.82382" lon="4.07086">
        <ele>1014.4</ele>
        <time>2022-06-10T08:00:23Z</time>
      </trkpt>
      <trkpt lat="44.82384" lon="4.07084">
        <ele>1014.4</ele>
        <time>2022-06-10T08:00:25Z</time>
      </trkpt>
      <trkpt lat="44.82387" lon="4.0708">
        <ele>1014.4</ele>
        <time>2022-06-10T08:00:26Z</time>
      </trkpt>
      <trkpt lat="44.82388" lon="4.07079">
        <ele>1014.4</ele>
        <time>2022-06-10T08:00:27Z</time>
      </trkpt>
      <trkpt lat="44.8239" lon="4.07074">
        <ele>1014.3</ele>
        <time>2022-06-10T08:00:28Z</time>
      </trkpt>
      <trkpt lat="44.82392" lon="4.07067">
        <ele>1014.3</ele>
        <time>2022-06-10T08:00:30Z</time>
      </trkpt>
      <trkpt lat="44.82392" lon="4.07062">
        <ele>1014.3</ele>
        <time>2022-06-10T08:00:31Z</time>
      </trkpt>
      <trkpt lat="44.82392" lon="4.07056">
        <ele>1014.2</ele>
        <time>2022-06-10T08:00:32Z</time>
      </trkpt>
      <trkpt lat="44.82392" lon="4.07049">
        <ele>1014.2</ele>
        <time>2022-06-10T08:00:33Z</time>
      </trkpt>
      <trkpt lat="44.82391" lon="4.07045">
        <ele>1014.1</ele>
        <time>2022-06-10T08:00:35Z</time>
      </trkpt>
      <trkpt lat="44.82389" lon="4.07041">
        <ele>1014.1</ele>
        <time>2022-06-10T08:00:36Z</time>
      </trkpt>
      <trkpt lat="44.8239" lon="4.07036">
        <ele>1014</ele>
        <time>2022-06-10T08:00:37Z</time>
      </trkpt>
      <trkpt lat="44.82391" lon="4.07033">
        <ele>1014</ele>
        <time>2022-06-10T08:00:38Z</time>
      </trkpt>
      <trkpt lat="44.8239" lon="4.07029">
        <ele>1013.9</ele>
        <time>2022-06-10T08:00:39Z</time>
      </trkpt>
      <trkpt lat="44.8239" lon="4.07024">
        <ele>1013.9</ele>
        <time>2022-06-10T08:00:40Z</time>
      </trkpt>
      <trkpt lat="44.8239" lon="4.0702">
        <ele>1013.8</ele>
        <time>2022-06-10T08:00:41Z</time>
      </trkpt>
      <trkpt lat="44.8239" lon="4.07015">
        <ele>1013.8</ele>
        <time>2022-06-10T08:00:43Z</time>
      </trkpt>
      <trkpt lat="44.8239" lon="4.07011">
        <ele>1013.7</ele>
        <time>2022-06-10T08:00:44Z</time>
      </trkpt>
      <trkpt lat="44.8239" lon="4.07003">
        <ele>1013.6</ele>
        <time>2022-06-10T08:00:45Z</time>
      </trkpt>
      <trkpt lat="44.82389" lon="4.06997">
        <ele>1013.5</ele>
        <time>2022-06-10T08:00:47Z</time>
      </trkpt>
      <trkpt lat="44.82389" lon="4.06992">
        <ele>1013.5</ele>
        <time>2022-06-10T08:00:48Z</time>
      </trkpt>
      <trkpt lat="44.82389" lon="4.06988">
        <ele>1013.4</ele>
        <time>2022-06-10T08:00:49Z</time>
      </trkpt>
      <trkpt lat="44.82389" lon="4.06979">
        <ele>1013.2</ele>
        <time>2022-06-10T08:00:50Z</time>
      </trkpt>
      <trkpt lat="44.82389" lon="4.06974">
        <ele>1013.1</ele>
        <time>2022-06-10T08:00:52Z</time>
      </trkpt>
      <trkpt lat="44.82388" lon="4.0697">
        <ele>1013</ele>
        <time>2022-06-10T08:00:53Z</time>
      </trkpt>
      <trkpt lat="44.82387" lon="4.06966">
        <ele>1012.9</ele>
        <time>2022-06-10T08:00:54Z</time>
      </trkpt>
      <trkpt lat="44.82387" lon="4.06962">
        <ele>1012.8</ele>
        <time>2022-06-10T08:00:55Z</time>
      </trkpt>
      <trkpt lat="44.82386" lon="4.06955">
        <ele>1012.7</ele>
        <time>2022-06-10T08:00:56Z</time>
      </trkpt>
      <trkpt lat="44.82385" lon="4.0695">
        <ele>1012.5</ele>
        <time>2022-06-10T08:00:57Z</time>
      </trkpt>
      <trkpt lat="44.82384" lon="4.06946">
        <ele>1012.4</ele>
        <time>2022-06-10T08:00:58Z</time>
      </trkpt>
      <trkpt lat="44.82382" lon="4.06941">
        <ele>1012.3</ele>
        <time>2022-06-10T08:01:00Z</time>
      </trkpt>
      <trkpt lat="44.82381" lon="4.06936">
        <ele>1012.2</ele>
        <time>2022-06-10T08:01:01Z</time>
      </trkpt>
      <trkpt lat="44.82381" lon="4.06931">
        <ele>1012.1</ele>
        <time>2022-06-10T08:01:02Z</time>
      </trkpt>
      <trkpt lat="44.8238" lon="4.06924">
        <ele>1011.9</ele>
        <time>2022-06-10T08:01:03Z</time>
      </trkpt>
      <trkpt lat="44.82379" lon="4.06917">
        <ele>1011.7</ele>
        <time>2022-06-10T08:01:04Z</time>
      </trkpt>
      <trkpt lat="44.82378" lon="4.06912">
        <ele>1011.5</ele>
        <time>2022-06-10T08:01:06Z</time>
      </trkpt>
      <trkpt lat="44.82376" lon="4.06905">
        <ele>1011.3</ele>
        <time>2022-06-10T08:01:07Z</time>
      </trkpt>
      <trkpt lat="44.82375" lon="4.06899">
        <ele>1011.1</ele>
        <time>2022-06-10T08:01:08Z</time>
      </trkpt>
      <trkpt lat="44.82373" lon="4.06892">
        <ele>1010.8</ele>
        <time>2022-06-10T08:01:10Z</time>
      </trkpt>
      <trkpt lat="44.82373" lon="4.06886">
        <ele>1010.6</ele>
        <time>2022-06-10T08:01:11Z</time>
      </trkpt>
      <trkpt lat="44.82373" lon="4.0688">
        <ele>1010.3</ele>
        <time>2022-06-10T08:01:12Z</time>
      </trkpt>
      <trkpt lat="44.82372" lon="4.06873">
        <ele>1010</ele>
        <time>2022-06-10T08:01:13Z</time>
      </trkpt>
      <trkpt lat="44.82371" lon="4.06868">
        <ele>1009.8</ele>
        <time>2022-06-10T08:01:14Z</time>
      </trkpt>
      <trkpt lat="44.8237" lon="4.0686">
        <ele>1009.4</ele>
        <time>2022-06-10T08:01:15Z</time>
      </trkpt>
      <trkpt lat="44.8237" lon="4.06852">
        <ele>1009.1</ele>
        <time>2022-06-10T08:01:17Z</time>
      </trkpt>
      <trkpt lat="44.82368" lon="4.06844">
        <ele>1008.7</ele>
        <time>2022-06-10T08:01:18Z</time>
      </trkpt>
      <trkpt lat="44.82367" lon="4.06838">
        <ele>1008.5</ele>
        <time>2022-06-10T08:01:19Z</time>
      </trkpt>
      <trkpt lat="44.82366" lon="4.0683">
        <ele>1008.1</ele>
        <time>2022-06-10T08:01:20Z</time>
      </trkpt>
      <trkpt lat="44.82365" lon="4.06822">
        <ele>1007.7</ele>
        <time>2022-06-10T08:01:22Z</time>
      </trkpt>
      <trkpt lat="44.8236" lon="4.06808">
        <ele>1006.9</ele>
        <time>2022-06-10T08:01:24Z</time>
      </trkpt>
      <trkpt lat="44.82359" lon="4.06801">
        <ele>1006.6</ele>
        <time>2022-06-10T08:01:25Z</time>
      </trkpt>
      <trkpt lat="44.82357" lon="4.06793">
        <ele>1006.2</ele>
        <time>2022-06-10T08:01:26Z</time>
      </trkpt>
      <trkpt lat="44.82355" lon="4.06786">
        <ele>1005.8</ele>
        <time>2022-06-10T08:01:27Z</time>
      </trkpt>
      <trkpt lat="44.82353" lon="4.06778">
        <ele>1005.4</ele>
        <time>2022-06-10T08:01:28Z</time>
      </trkpt>
      <trkpt lat="44.82351" lon="4.06771">
        <ele>1005.1</ele>
        <time>2022-06-10T08:01:29Z</time>
      </trkpt>
      <trkpt lat="44.82348" lon="4.06763">
        <ele>1004.7</ele>
        <time>2022-06-10T08:01:30Z</time>
      </trkpt>
      <trkpt lat="44.82345" lon="4.06754">
        <ele>1004.4</ele>
        <time>2022-06-10T08:01:31Z</time>
      </trkpt>
      <trkpt lat="44.82342" lon="4.06745">
        <ele>1004</ele>
        <time>2022-06-10T08:01:32Z</time>
      </trkpt>
      <trkpt lat="44.82338" lon="4.06737">
        <ele>1003.6</ele>
        <time>2022-06-10T08:01:33Z</time>
      </trkpt>
      <trkpt lat="44.82333" lon="4.06728">
        <ele>1003.2</ele>
        <time>2022-06-10T08:01:34Z</time>
      </trkpt>
      <trkpt lat="44.82328" lon="4.06719">
        <ele>1002.8</ele>
        <time>2022-06-10T08:01:35Z</time>
      </trkpt>
      <trkpt lat="44.82323" lon="4.0671">
        <ele>1002.4</ele>
        <time>2022-06-10T08:01:36Z</time>
      </trkpt>
      <trkpt lat="44.82317" lon="4.06701">
        <ele>1002</ele>
        <time>2022-06-10T08:01:37Z</time>
      </trkpt>
      <trkpt lat="44.82311" lon="4.06692">
        <ele>1001.6</ele>
        <time>2022-06-10T08:01:38Z</time>
      </trkpt>
      <trkpt lat="44.82305" lon="4.06683">
        <ele>1001.2</ele>
        <time>2022-06-10T08:01:39Z</time>
      </trkpt>
      <trkpt lat="44.82299" lon="4.06675">
        <ele>1000.8</ele>
        <time>2022-06-10T08:01:40Z</time>
      </trkpt>
      <trkpt lat="44.82293" lon="4.06666">
        <ele>1000.5</ele>
        <time>2022-06-10T08:01:41Z</time>
      </trkpt>
      <trkpt lat="44.82286" lon="4.06656">
        <ele>1000.2</ele>
        <time>2022-06-10T08:01:42Z</time>
      </trkpt>
      <trkpt lat="44.82281" lon="4.06647">
        <ele>999.9</ele>
        <time>2022-06-10T08:01:43Z</time>
      </trkpt>
      <trkpt lat="44.82276" lon="4.06638">
        <ele>999.6</ele>
        <time>2022-06-10T08:01:44Z</time>
      </trkpt>
      <trkpt lat="44.8227" lon="4.0663">
        <ele>999.3</ele>
        <time>2022-06-10T08:01:45Z</time>
      </trkpt>
      <trkpt lat="44.82265" lon="4.06621">
        <ele>999</ele>
        <time>2022-06-10T08:01:46Z</time>
      </trkpt>
      <trkpt lat="44.82261" lon="4.0661">
        <ele>998.7</ele>
        <time>2022-06-10T08:01:47Z</time>
      </trkpt>
      <trkpt lat="44.82258" lon="4.066">
        <ele>998.4</ele>
        <time>2022-06-10T08:01:48Z</time>
      </trkpt>
      <trkpt lat="44.82255" lon="4.0659">
        <ele>998.1</ele>
        <time>2022-06-10T08:01:49Z</time>
      </trkpt>
      <trkpt lat="44.82252" lon="4.0658">
        <ele>997.9</ele>
        <time>2022-06-10T08:01:50Z</time>
      </trkpt>
      <trkpt lat="44.82248" lon="4.06569">
        <ele>997.6</ele>
        <time>2022-06-10T08:01:51Z</time>
      </trkpt>
      <trkpt lat="44.82245" lon="4.0656">
        <ele>997.4</ele>
        <time>2022-06-10T08:01:52Z</time>
      </trkpt>
      <trkpt lat="44.82242" lon="4.0655">
        <ele>997.2</ele>
        <time>2022-06-10T08:01:53Z</time>
      </trkpt>
      <trkpt lat="44.82238" lon="4.06541">
        <ele>997</ele>
        <time>2022-06-10T08:01:54Z</time>
      </trkpt>
      <trkpt lat="44.82235" lon="4.06531">
        <ele>996.8</ele>
        <time>2022-06-10T08:01:55Z</time>
      </trkpt>
      <trkpt lat="44.82232" lon="4.06522">
        <ele>996.7</ele>
        <time>2022-06-10T08:01:56Z</time>
      </trkpt>
      <trkpt lat="44.82228" lon="4.06513">
        <ele>996.6</ele>
        <time>2022-06-10T08:01:57Z</time>
      </trkpt>
      <trkpt lat="44.82225" lon="4.06504">
        <ele>996.5</ele>
        <time>2022-06-10T08:01:58Z</time>
      </trkpt>
      <trkpt lat="44.82222" lon="4.06495">
        <ele>996.4</ele>
        <time>2022-06-10T08:01:59Z</time>
      </trkpt>
      <trkpt lat="44.82219" lon="4.06486">
        <ele>996.3</ele>
        <time>2022-06-10T08:02:00Z</time>
      </trkpt>
      <trkpt lat="44.82216" lon="4.06478">
        <ele>996.2</ele>
        <time>2022-06-10T08:02:01Z</time>
      </trkpt>
      <trkpt lat="44.82212" lon="4.06469">
        <ele>996</ele>
        <time>2022-06-10T08:02:02Z</time>
      </trkpt>
      <trkpt lat="44.8221" lon="4.0646">
        <ele>995.8</ele>
        <time>2022-06-10T08:02:03Z</time>
      </trkpt>
      <trkpt lat="44.82207" lon="4.06452">
        <ele>995.7</ele>
        <time>2022-06-10T08:02:04Z</time>
      </trkpt>
      <trkpt lat="44.82204" lon="4.06444">
        <ele>995.7</ele>
        <time>2022-06-10T08:02:05Z</time>
      </trkpt>
      <trkpt lat="44.82202" lon="4.06436">
        <ele>995.7</ele>
        <time>2022-06-10T08:02:06Z</time>
      </trkpt>
      <trkpt lat="44.82199" lon="4.06429">
        <ele>995.8</ele>
        <time>2022-06-10T08:02:07Z</time>
      </trkpt>
      <trkpt lat="44.82197" lon="4.06422">
        <ele>995.8</ele>
        <time>2022-06-10T08:02:08Z</time>
      </trkpt>
      <trkpt lat="44.82195" lon="4.06415">
        <ele>995.8</ele>
        <time>2022-06-10T08:02:09Z</time>
      </trkpt>
      <trkpt lat="44.82193" lon="4.06407">
        <ele>995.8</ele>
        <time>2022-06-10T08:02:10Z</time>
      </trkpt>
      <trkpt lat="44.8219" lon="4.064">
        <ele>995.9</ele>
        <time>2022-06-10T08:02:11Z</time>
      </trkpt>
      <trkpt lat="44.82189" lon="4.06394">
        <ele>995.9</ele>
        <time>2022-06-10T08:02:12Z</time>
      </trkpt>
      <trkpt lat="44.82187" lon="4.06387">
        <ele>996</ele>
        <time>2022-06-10T08:02:13Z</time>
      </trkpt>
      <trkpt lat="44.82185" lon="4.0638">
        <ele>996</ele>
        <time>2022-06-10T08:02:14Z</time>
      </trkpt>
      <trkpt lat="44.82184" lon="4.06373">
        <ele>996.1</ele>
        <time>2022-06-10T08:02:15Z</time>
      </trkpt>
      <trkpt lat="44.82183" lon="4.06366">
        <ele>996.1</ele>
        <time>2022-06-10T08:02:16Z</time>
      </trkpt>
      <trkpt lat="44.82181" lon="4.0636">
        <ele>996.1</ele>
        <time>2022-06-10T08:02:17Z</time>
      </trkpt>
      <trkpt lat="44.8218" lon="4.06353">
        <ele>996.1</ele>
        <time>2022-06-10T08:02:18Z</time>
      </trkpt>
      <trkpt lat="44.82178" lon="4.06346">
        <ele>996.1</ele>
        <time>2022-06-10T08:02:19Z</time>
      </trkpt>
      <trkpt lat="44.82176" lon="4.0634">
        <ele>996.1</ele>
        <time>2022-06-10T08:02:20Z</time>
      </trkpt>
      <trkpt lat="44.82174" lon="4.06334">
        <ele>996.2</ele>
        <time>2022-06-10T08:02:21Z</time>
      </trkpt>
      <trkpt lat="44.82172" lon="4.06328">
        <ele>996.2</ele>
        <time>2022-06-10T08:02:22Z</time>
      </trkpt>
      <trkpt lat="44.8217" lon="4.06322">
        <ele>996.2</ele>
        <time>2022-06-10T08:02:23Z</time>
      </trkpt>
      <trkpt lat="44.82169" lon="4.06316">
        <ele>996.2</ele>
        <time>2022-06-10T08:02:24Z</time>
      </trkpt>
      <trkpt lat="44.82167" lon="4.0631">
        <ele>996.3</ele>
        <time>2022-06-10T08:02:25Z</time>
      </trkpt>
      <trkpt lat="44.82165" lon="4.06303">
        <ele>996.4</ele>
        <time>2022-06-10T08:02:26Z</time>
      </trkpt>
      <trkpt lat="44.82163" lon="4.06297">
        <ele>996.5</ele>
        <time>2022-06-10T08:02:27Z</time>
      </trkpt>
      <trkpt lat="44.82161" lon="4.06291">
        <ele>996.5</ele>
        <time>2022-06-10T08:02:28Z</time>
      </trkpt>
      <trkpt lat="44.82159" lon="4.06285">
        <ele>996.6</ele>
        <time>2022-06-10T08:02:29Z</time>
      </trkpt>
      <trkpt lat="44.82158" lon="4.06282">
        <ele>996.7</ele>
        <time>2022-06-10T08:02:30Z</time>
      </trkpt>
      <trkpt lat="44.82156" lon="4.06277">
        <ele>996.7</ele>
        <time>2022-06-10T08:02:31Z</time>
      </trkpt>
      <trkpt lat="44.82153" lon="4.06272">
        <ele>996.8</ele>
        <time>2022-06-10T08:02:32Z</time>
      </trkpt>
      <trkpt lat="44.82151" lon="4.06267">
        <ele>996.8</ele>
        <time>2022-06-10T08:02:33Z</time>
      </trkpt>
      <trkpt lat="44.82148" lon="4.06263">
        <ele>996.8</ele>
        <time>2022-06-10T08:02:34Z</time>
      </trkpt>
      <trkpt lat="44.82146" lon="4.06258">
        <ele>996.8</ele>
        <time>2022-06-10T08:02:35Z</time>
      </trkpt>
      <trkpt lat="44.82142" lon="4.06251">
        <ele>996.7</ele>
        <time>2022-06-10T08:02:36Z</time>
      </trkpt>
      <trkpt lat="44.82139" lon="4.06244">
        <ele>996.7</ele>
        <time>2022-06-10T08:02:37Z</time>
      </trkpt>
      <trkpt lat="44.82137" lon="4.06239">
        <ele>996.6</ele>
        <time>2022-06-10T08:02:38Z</time>
      </trkpt>
      <trkpt lat="44.82135" lon="4.06233">
        <ele>996.6</ele>
        <time>2022-06-10T08:02:39Z</time>
      </trkpt>
      <trkpt lat="44.82133" lon="4.06227">
        <ele>996.5</ele>
        <time>2022-06-10T08:02:40Z</time>
      </trkpt>
      <trkpt lat="44.8213" lon="4.06222">
        <ele>996.4</ele>
        <time>2022-06-10T08:02:41Z</time>
      </trkpt>
      <trkpt lat="44.82127" lon="4.06216">
        <ele>996.3</ele>
        <time>2022-06-10T08:02:42Z</time>
      </trkpt>
      <trkpt lat="44.82124" lon="4.06212">
        <ele>996.2</ele>
        <time>2022-06-10T08:02:43Z</time>
      </trkpt>
      <trkpt lat="44.82121" lon="4.06207">
        <ele>996.1</ele>
        <time>2022-06-10T08:02:44Z</time>
      </trkpt>
      <trkpt lat="44.82119" lon="4.06205">
        <ele>996.1</ele>
        <time>2022-06-10T08:02:45Z</time>
      </trkpt>
      <trkpt lat="44.82115" lon="4.06203">
        <ele>996.3</ele>
        <time>2022-06-10T08:02:46Z</time>
      </trkpt>
      <trkpt lat="44.82111" lon="4.06205">
        <ele>996.6</ele>
        <time>2022-06-10T08:02:47Z</time>
      </trkpt>
      <trkpt lat="44.82109" lon="4.06205">
        <ele>996.8</ele>
        <time>2022-06-10T08:02:48Z</time>
      </trkpt>
      <trkpt lat="44.82105" lon="4.06206">
        <ele>997</ele>
        <time>2022-06-10T08:02:49Z</time>
      </trkpt>
      <trkpt lat="44.82102" lon="4.06209">
        <ele>997.2</ele>
        <time>2022-06-10T08:02:50Z</time>
      </trkpt>
      <trkpt lat="44.82099" lon="4.06209">
        <ele>997.4</ele>
        <time>2022-06-10T08:02:51Z</time>
      </trkpt>
      <trkpt lat="44.82096" lon="4.06211">
        <ele>997.7</ele>
        <time>2022-06-10T08:02:52Z</time>
      </trkpt>
      <trkpt lat="44.82094" lon="4.06212">
        <ele>997.8</ele>
        <time>2022-06-10T08:02:53Z</time>
      </trkpt>
      <trkpt lat="44.82092" lon="4.06213">
        <ele>998</ele>
        <time>2022-06-10T08:02:55Z</time>
      </trkpt>
      <trkpt lat="44.82091" lon="4.06214">
        <ele>998.2</ele>
        <time>2022-06-10T08:02:56Z</time>
      </trkpt>
      <trkpt lat="44.82091" lon="4.06215">
        <ele>998.2</ele>
        <time>2022-06-10T08:02:57Z</time>
      </trkpt>
      <trkpt lat="44.8209" lon="4.06215">
        <ele>998.3</ele>
        <time>2022-06-10T08:02:58Z</time>
      </trkpt>
      <trkpt lat="44.82088" lon="4.06217">
        <ele>998.5</ele>
        <time>2022-06-10T08:02:59Z</time>
      </trkpt>
      <trkpt lat="44.82086" lon="4.0622">
        <ele>998.8</ele>
        <time>2022-06-10T08:03:00Z</time>
      </trkpt>
      <trkpt lat="44.82085" lon="4.06221">
        <ele>998.9</ele>
        <time>2022-06-10T08:03:01Z</time>
      </trkpt>
      <trkpt lat="44.82083" lon="4.06223">
        <ele>999.1</ele>
        <time>2022-06-10T08:03:02Z</time>
      </trkpt>
      <trkpt lat="44.82082" lon="4.06224">
        <ele>999.2</ele>
        <time>2022-06-10T08:03:03Z</time>
      </trkpt>
      <trkpt lat="44.82077" lon="4.06226">
        <ele>999.5</ele>
        <time>2022-06-10T08:03:05Z</time>
      </trkpt>
      <trkpt lat="44.82075" lon="4.06226">
        <ele>999.6</ele>
        <time>2022-06-10T08:03:06Z</time>
      </trkpt>
      <trkpt lat="44.82074" lon="4.06226">
        <ele>999.7</ele>
        <time>2022-06-10T08:03:07Z</time>
      </trkpt>
      <trkpt lat="44.82071" lon="4.06227">
        <ele>999.9</ele>
        <time>2022-06-10T08:03:08Z</time>
      </trkpt>
      <trkpt lat="44.82069" lon="4.06227">
        <ele>1000</ele>
        <time>2022-06-10T08:03:09Z</time>
      </trkpt>
      <trkpt lat="44.82065" lon="4.06228">
        <ele>1000.2</ele>
        <time>2022-06-10T08:03:10Z</time>
      </trkpt>
      <trkpt lat="44.82064" lon="4.06228">
        <ele>1000.3</ele>
        <time>2022-06-10T08:03:11Z</time>
      </trkpt>
      <trkpt lat="44.8206" lon="4.0623">
        <ele>1000.4</ele>
        <time>2022-06-10T08:03:12Z</time>
      </trkpt>
      <trkpt lat="44.82056" lon="4.06232">
        <ele>1000.6</ele>
        <time>2022-06-10T08:03:14Z</time>
      </trkpt>
      <trkpt lat="44.82053" lon="4.06233">
        <ele>1000.7</ele>
        <time>2022-06-10T08:03:15Z</time>
      </trkpt>
      <trkpt lat="44.82051" lon="4.06235">
        <ele>1000.8</ele>
        <time>2022-06-10T08:03:16Z</time>
      </trkpt>
      <trkpt lat="44.82048" lon="4.06236">
        <ele>1000.9</ele>
        <time>2022-06-10T08:03:17Z</time>
      </trkpt>
      <trkpt lat="44.82045" lon="4.06237">
        <ele>1000.9</ele>
        <time>2022-06-10T08:03:18Z</time>
      </trkpt>
      <trkpt lat="44.82043" lon="4.06238">
        <ele>1001</ele>
        <time>2022-06-10T08:03:19Z</time>
      </trkpt>
      <trkpt lat="44.82039" lon="4.06239">
        <ele>1001.1</ele>
        <time>2022-06-10T08:03:20Z</time>
      </trkpt>
      <trkpt lat="44.82034" lon="4.06241">
        <ele>1001.2</ele>
        <time>2022-06-10T08:03:21Z</time>
      </trkpt>
      <trkpt lat="44.8203" lon="4.06243">
        <ele>1001.3</ele>
        <time>2022-06-10T08:03:22Z</time>
      </trkpt>
      <trkpt lat="44.82026" lon="4.06243">
        <ele>1001.3</ele>
        <time>2022-06-10T08:03:24Z</time>
      </trkpt>
      <trkpt lat="44.82023" lon="4.06245">
        <ele>1001.4</ele>
        <time>2022-06-10T08:03:25Z</time>
      </trkpt>
      <trkpt lat="44.8202" lon="4.06246">
        <ele>1001.4</ele>
        <time>2022-06-10T08:03:26Z</time>
      </trkpt>
      <trkpt lat="44.82016" lon="4.06247">
        <ele>1001.5</ele>
        <time>2022-06-10T08:03:27Z</time>
      </trkpt>
      <trkpt lat="44.82015" lon="4.06247">
        <ele>1001.5</ele>
        <time>2022-06-10T08:03:28Z</time>
      </trkpt>
      <trkpt lat="44.82011" lon="4.06248">
        <ele>1001.5</ele>
        <time>2022-06-10T08:03:29Z</time>
      </trkpt>
      <trkpt lat="44.82007" lon="4.06249">
        <ele>1001.6</ele>
        <time>2022-06-10T08:03:30Z</time>
      </trkpt>
      <trkpt lat="44.82004" lon="4.06251">
        <ele>1001.6</ele>
        <time>2022-06-10T08:03:31Z</time>
      </trkpt>
      <trkpt lat="44.82" lon="4.06252">
        <ele>1001.6</ele>
        <time>2022-06-10T08:03:32Z</time>
      </trkpt>
      <trkpt lat="44.81997" lon="4.06253">
        <ele>1001.7</ele>
        <time>2022-06-10T08:03:33Z</time>
      </trkpt>
      <trkpt lat="44.81993" lon="4.06255">
        <ele>1001.7</ele>
        <time>2022-06-10T08:03:34Z</time>
      </trkpt>
      <trkpt lat="44.8199" lon="4.06256">
        <ele>1001.7</ele>
        <time>2022-06-10T08:03:35Z</time>
      </trkpt>
      <trkpt lat="44.81986" lon="4.06258">
        <ele>1001.7</ele>
        <time>2022-06-10T08:03:36Z</time>
      </trkpt>
      <trkpt lat="44.81983" lon="4.06259">
        <ele>1001.8</ele>
        <time>2022-06-10T08:03:37Z</time>
      </trkpt>
      <trkpt lat="44.81979" lon="4.06259">
        <ele>1001.8</ele>
        <time>2022-06-10T08:03:38Z</time>
      </trkpt>
      <trkpt lat="44.81976" lon="4.0626">
        <ele>1001.8</ele>
        <time>2022-06-10T08:03:39Z</time>
      </trkpt>
      <trkpt lat="44.8197" lon="4.06262">
        <ele>1001.8</ele>
        <time>2022-06-10T08:03:40Z</time>
      </trkpt>
      <trkpt lat="44.81965" lon="4.06263">
        <ele>1001.9</ele>
        <time>2022-06-10T08:03:42Z</time>
      </trkpt>
      <trkpt lat="44.81962" lon="4.06265">
        <ele>1002</ele>
        <time>2022-06-10T08:03:43Z</time>
      </trkpt>
      <trkpt lat="44.81958" lon="4.06266">
        <ele>1002</ele>
        <time>2022-06-10T08:03:44Z</time>
      </trkpt>
      <trkpt lat="44.81954" lon="4.06267">
        <ele>1002.1</ele>
        <time>2022-06-10T08:03:45Z</time>
      </trkpt>
      <trkpt lat="44.81948" lon="4.06269">
        <ele>1002.2</ele>
        <time>2022-06-10T08:03:46Z</time>
      </trkpt>
      <trkpt lat="44.81943" lon="4.0627">
        <ele>1002.3</ele>
        <time>2022-06-10T08:03:48Z</time>
      </trkpt>
      <trkpt lat="44.8194" lon="4.06271">
        <ele>1002.3</ele>
        <time>2022-06-10T08:03:49Z</time>
      </trkpt>
      <trkpt lat="44.81937" lon="4.06272">
        <ele>1002.4</ele>
        <time>2022-06-10T08:03:50Z</time>
      </trkpt>
      <trkpt lat="44.81933" lon="4.06273">
        <ele>1002.5</ele>
        <time>2022-06-10T08:03:51Z</time>
      </trkpt>
      <trkpt lat="44.81929" lon="4.06274">
        <ele>1002.5</ele>
        <time>2022-06-10T08:03:52Z</time>
      </trkpt>
      <trkpt lat="44.81926" lon="4.06275">
        <ele>1002.6</ele>
        <time>2022-06-10T08:03:53Z</time>
      </trkpt>
      <trkpt lat="44.81922" lon="4.06276">
        <ele>1002.7</ele>
        <time>2022-06-10T08:03:54Z</time>
      </trkpt>
      <trkpt lat="44.81919" lon="4.06278">
        <ele>1002.8</ele>
        <time>2022-06-10T08:03:55Z</time>
      </trkpt>
      <trkpt lat="44.81916" lon="4.06279">
        <ele>1002.8</ele>
        <time>2022-06-10T08:03:56Z</time>
      </trkpt>
      <trkpt lat="44.81913" lon="4.0628">
        <ele>1002.9</ele>
        <time>2022-06-10T08:03:57Z</time>
      </trkpt>
      <trkpt lat="44.8191" lon="4.06282">
        <ele>1002.9</ele>
        <time>2022-06-10T08:03:58Z</time>
      </trkpt>
      <trkpt lat="44.81907" lon="4.06283">
        <ele>1003</ele>
        <time>2022-06-10T08:03:59Z</time>
      </trkpt>
      <trkpt lat="44.81901" lon="4.06285">
        <ele>1003.1</ele>
        <time>2022-06-10T08:04:01Z</time>
      </trkpt>
      <trkpt lat="44.81898" lon="4.06286">
        <ele>1003.2</ele>
        <time>2022-06-10T08:04:02Z</time>
      </trkpt>
      <trkpt lat="44.81894" lon="4.06288">
        <ele>1003.3</ele>
        <time>2022-06-10T08:04:03Z</time>
      </trkpt>
      <trkpt lat="44.81891" lon="4.0629">
        <ele>1003.3</ele>
        <time>2022-06-10T08:04:04Z</time>
      </trkpt>
      <trkpt lat="44.81886" lon="4.06292">
        <ele>1003.5</ele>
        <time>2022-06-10T08:04:06Z</time>
      </trkpt>
      <trkpt lat="44.81883" lon="4.06294">
        <ele>1003.5</ele>
        <time>2022-06-10T08:04:07Z</time>
      </trkpt>
      <trkpt lat="44.8188" lon="4.06296">
        <ele>1003.6</ele>
        <time>2022-06-10T08:04:08Z</time>
      </trkpt>
      <trkpt lat="44.81877" lon="4.06297">
        <ele>1003.7</ele>
        <time>2022-06-10T08:04:09Z</time>
      </trkpt>
      <trkpt lat="44.81873" lon="4.06298">
        <ele>1003.7</ele>
        <time>2022-06-10T08:04:10Z</time>
      </trkpt>
      <trkpt lat="44.8187" lon="4.063">
        <ele>1003.8</ele>
        <time>2022-06-10T08:04:11Z</time>
      </trkpt>
      <trkpt lat="44.81866" lon="4.06301">
        <ele>1003.9</ele>
        <time>2022-06-10T08:04:12Z</time>
      </trkpt>
      <trkpt lat="44.81862" lon="4.06302">
        <ele>1003.9</ele>
        <time>2022-06-10T08:04:13Z</time>
      </trkpt>
      <trkpt lat="44.81859" lon="4.06304">
        <ele>1004</ele>
        <time>2022-06-10T08:04:14Z</time>
      </trkpt>
      <trkpt lat="44.81856" lon="4.06305">
        <ele>1004</ele>
        <time>2022-06-10T08:04:15Z</time>
      </trkpt>
      <trkpt lat="44.81852" lon="4.06306">
        <ele>1004.1</ele>
        <time>2022-06-10T08:04:16Z</time>
      </trkpt>
      <trkpt lat="44.81848" lon="4.06307">
        <ele>1004.1</ele>
        <time>2022-06-10T08:04:17Z</time>
      </trkpt>
      <trkpt lat="44.81844" lon="4.06308">
        <ele>1004.2</ele>
        <time>2022-06-10T08:04:18Z</time>
      </trkpt>
      <trkpt lat="44.81841" lon="4.0631">
        <ele>1004.2</ele>
        <time>2022-06-10T08:04:19Z</time>
      </trkpt>
      <trkpt lat="44.81837" lon="4.06311">
        <ele>1004.3</ele>
        <time>2022-06-10T08:04:20Z</time>
      </trkpt>
      <trkpt lat="44.81834" lon="4.06312">
        <ele>1004.3</ele>
        <time>2022-06-10T08:04:21Z</time>
      </trkpt>
      <trkpt lat="44.81831" lon="4.06314">
        <ele>1004.3</ele>
        <time>2022-06-10T08:04:22Z</time>
      </trkpt>
      <trkpt lat="44.81828" lon="4.06315">
        <ele>1004.3</ele>
        <time>2022-06-10T08:04:23Z</time>
      </trkpt>
      <trkpt lat="44.81824" lon="4.06316">
        <ele>1004.4</ele>
        <time>2022-06-10T08:04:24Z</time>
      </trkpt>
      <trkpt lat="44.8182" lon="4.06316">
        <ele>1004.4</ele>
        <time>2022-06-10T08:04:25Z</time>
      </trkpt>
      <trkpt lat="44.81816" lon="4.06317">
        <ele>1004.5</ele>
        <time>2022-06-10T08:04:26Z</time>
      </trkpt>
      <trkpt lat="44.81812" lon="4.06317">
        <ele>1004.5</ele>
        <time>2022-06-10T08:04:27Z</time>
      </trkpt>
      <trkpt lat="44.81808" lon="4.06317">
        <ele>1004.5</ele>
        <time>2022-06-10T08:04:28Z</time>
      </trkpt>
      <trkpt lat="44.81804" lon="4.06318">
        <ele>1004.6</ele>
        <time>2022-06-10T08:04:29Z</time>
      </trkpt>
      <trkpt lat="44.818" lon="4.06319">
        <ele>1004.6</ele>
        <time>2022-06-10T08:04:30Z</time>
      </trkpt>
      <trkpt lat="44.81797" lon="4.06319">
        <ele>1004.7</ele>
        <time>2022-06-10T08:04:31Z</time>
      </trkpt>
      <trkpt lat="44.81793" lon="4.0632">
        <ele>1004.7</ele>
        <time>2022-06-10T08:04:32Z</time>
      </trkpt>
      <trkpt lat="44.81788" lon="4.06321">
        <ele>1004.7</ele>
        <time>2022-06-10T08:04:33Z</time>
      </trkpt>
      <trkpt lat="44.81785" lon="4.06321">
        <ele>1004.8</ele>
        <time>2022-06-10T08:04:34Z</time>
      </trkpt>
      <trkpt lat="44.81781" lon="4.06322">
        <ele>1004.8</ele>
        <time>2022-06-10T08:04:35Z</time>
      </trkpt>
      <trkpt lat="44.81777" lon="4.06323">
        <ele>1004.8</ele>
        <time>2022-06-10T08:04:36Z</time>
      </trkpt>
      <trkpt lat="44.81773" lon="4.06323">
        <ele>1004.9</ele>
        <time>2022-06-10T08:04:37Z</time>
      </trkpt>
      <trkpt lat="44.81769" lon="4.06325">
        <ele>1004.9</ele>
        <time>2022-06-10T08:04:38Z</time>
      </trkpt>
      <trkpt lat="44.81765" lon="4.06326">
        <ele>1004.9</ele>
        <time>2022-06-10T08:04:39Z</time>
      </trkpt>
      <trkpt lat="44.81761" lon="4.06327">
        <ele>1005</ele>
        <time>2022-06-10T08:04:40Z</time>
      </trkpt>
      <trkpt lat="44.81757" lon="4.06329">
        <ele>1005</ele>
        <time>2022-06-10T08:04:41Z</time>
      </trkpt>
      <trkpt lat="44.81749" lon="4.06331">
        <ele>1005</ele>
        <time>2022-06-10T08:04:42Z</time>
      </trkpt>
      <trkpt lat="44.81744" lon="4.06332">
        <ele>1005.1</ele>
        <time>2022-06-10T08:04:44Z</time>
      </trkpt>
      <trkpt lat="44.81735" lon="4.06333">
        <ele>1005</ele>
        <time>2022-06-10T08:04:46Z</time>
      </trkpt>
      <trkpt lat="44.81727" lon="4.06335">
        <ele>1005.1</ele>
        <time>2022-06-10T08:04:48Z</time>
      </trkpt>
      <trkpt lat="44.8172" lon="4.06335">
        <ele>1005.1</ele>
        <time>2022-06-10T08:04:49Z</time>
      </trkpt>
      <trkpt lat="44.81715" lon="4.06336">
        <ele>1005.2</ele>
        <time>2022-06-10T08:04:51Z</time>
      </trkpt>
      <trkpt lat="44.81709" lon="4.06335">
        <ele>1005.3</ele>
        <time>2022-06-10T08:04:52Z</time>
      </trkpt>
      <trkpt lat="44.81706" lon="4.06336">
        <ele>1005.3</ele>
        <time>2022-06-10T08:04:53Z</time>
      </trkpt>
      <trkpt lat="44.81702" lon="4.06337">
        <ele>1005.3</ele>
        <time>2022-06-10T08:04:55Z</time>
      </trkpt>
      <trkpt lat="44.81699" lon="4.06336">
        <ele>1005.3</ele>
        <time>2022-06-10T08:04:56Z</time>
      </trkpt>
      <trkpt lat="44.81696" lon="4.06335">
        <ele>1005.4</ele>
        <time>2022-06-10T08:04:57Z</time>
      </trkpt>
      <trkpt lat="44.81692" lon="4.06333">
        <ele>1005.4</ele>
        <time>2022-06-10T08:04:58Z</time>
      </trkpt>
      <trkpt lat="44.81691" lon="4.06333">
        <ele>1005.4</ele>
        <time>2022-06-10T08:04:59Z</time>
      </trkpt>
      <trkpt lat="44.81688" lon="4.06332">
        <ele>1005.4</ele>
        <time>2022-06-10T08:05:00Z</time>
      </trkpt>
      <trkpt lat="44.81687" lon="4.06332">
        <ele>1005.4</ele>
        <time>2022-06-10T08:05:01Z</time>
      </trkpt>
      <trkpt lat="44.81684" lon="4.06331">
        <ele>1005.4</ele>
        <time>2022-06-10T08:05:02Z</time>
      </trkpt>
      <trkpt lat="44.81683" lon="4.06332">
        <ele>1005.4</ele>
        <time>2022-06-10T08:05:03Z</time>
      </trkpt>
      <trkpt lat="44.81682" lon="4.06334">
        <ele>1005.4</ele>
        <time>2022-06-10T08:05:04Z</time>
      </trkpt>
      <trkpt lat="44.81682" lon="4.06336">
        <ele>1005.4</ele>
        <time>2022-06-10T08:05:05Z</time>
      </trkpt>
      <trkpt lat="44.81682" lon="4.06338">
        <ele>1005.4</ele>
        <time>2022-06-10T08:05:06Z</time>
      </trkpt>
      <trkpt lat="44.81684" lon="4.0634">
        <ele>1005.4</ele>
        <time>2022-06-10T08:05:07Z</time>
      </trkpt>
      <trkpt lat="44.81685" lon="4.06342">
        <ele>1005.4</ele>
        <time>2022-06-10T08:05:08Z</time>
      </trkpt>
      <trkpt lat="44.81686" lon="4.06343">
        <ele>1005.4</ele>
        <time>2022-06-10T08:05:09Z</time>
      </trkpt>
      <trkpt lat="44.81686" lon="4.06342">
        <ele>1005.4</ele>
        <time>2022-06-10T08:05:10Z</time>
      </trkpt>
      <trkpt lat="44.81686" lon="4.06343">
        <ele>1005.4</ele>
        <time>2022-06-10T08:05:11Z</time>
      </trkpt>
      <trkpt lat="44.81685" lon="4.06343">
        <ele>1005.4</ele>
        <time>2022-06-10T08:05:12Z</time>
      </trkpt>
      <trkpt lat="44.81686" lon="4.06341">
        <ele>1005.4</ele>
        <time>2022-06-10T08:05:13Z</time>
      </trkpt>
      <trkpt lat="44.81686" lon="4.06341">
        <ele>1005.4</ele>
        <time>2022-06-10T08:05:14Z</time>
      </trkpt>
      <trkpt lat="44.81686" lon="4.06341">
        <ele>1005.4</ele>
        <time>2022-06-10T08:05:15Z</time>
      </trkpt>
      <trkpt lat="44.81686" lon="4.06341">
        <ele>1005.4</ele>
        <time>2022-06-10T08:05:16Z</time>
      </trkpt>
      <trkpt lat="44.81686" lon="4.06341">
        <ele>1005.4</ele>
        <time>2022-06-10T08:05:17Z</time>
      </trkpt>
      <trkpt lat="44.81686" lon="4.06341">
        <ele>1005.4</ele>
        <time>2022-06-10T08:05:18Z</time>
      </trkpt>
      <trkpt lat="44.81686" lon="4.06341">
        <ele>1005.4</ele>
        <time>2022-06-10T08:05:19Z</time>
      </trkpt>
      <trkpt lat="44.81683" lon="4.06342">
        <ele>1005.4</ele>
        <time>2022-06-10T08:07:13Z</time>
      </trkpt>
      <trkpt lat="44.81681" lon="4.06343">
        <ele>1005.5</ele>
        <time>2022-06-10T08:07:14Z</time>
      </trkpt>
      <trkpt lat="44.81679" lon="4.06343">
        <ele>1005.5</ele>
        <time>2022-06-10T08:07:16Z</time>
      </trkpt>
      <trkpt lat="44.81678" lon="4.06344">
        <ele>1005.5</ele>
        <time>2022-06-10T08:07:17Z</time>
      </trkpt>
      <trkpt lat="44.81676" lon="4.06346">
        <ele>1005.5</ele>
        <time>2022-06-10T08:07:18Z</time>
      </trkpt>
      <trkpt lat="44.81675" lon="4.06346">
        <ele>1005.5</ele>
        <time>2022-06-10T08:07:19Z</time>
      </trkpt>
      <trkpt lat="44.81676" lon="4.06346">
        <ele>1005.5</ele>
        <time>2022-06-10T08:07:20Z</time>
      </trkpt>
      <trkpt lat="44.81676" lon="4.06346">
        <ele>1005.5</ele>
        <time>2022-06-10T08:07:22Z</time>
      </trkpt>
      <trkpt lat="44.81676" lon="4.06346">
        <ele>1005.5</ele>
        <time>2022-06-10T08:07:23Z</time>
      </trkpt>
      <trkpt lat="44.81676" lon="4.06346">
        <ele>1005.5</ele>
        <time>2022-06-10T08:07:24Z</time>
      </trkpt>
      <trkpt lat="44.81676" lon="4.06346">
        <ele>1005.5</ele>
        <time>2022-06-10T08:07:25Z</time>
      </trkpt>
      <trkpt lat="44.81677" lon="4.06346">
        <ele>1005.5</ele>
        <time>2022-06-10T08:07:26Z</time>
      </trkpt>
      <trkpt lat="44.81677" lon="4.06345">
        <ele>1005.5</ele>
        <time>2022-06-10T08:07:27Z</time>
      </trkpt>
      <trkpt lat="44.81677" lon="4.06345">
        <ele>1005.5</ele>
        <time>2022-06-10T08:07:28Z</time>
      </trkpt>
      <trkpt lat="44.81677" lon="4.06345">
        <ele>1005.5</ele>
        <time>2022-06-10T08:07:29Z</time>
      </trkpt>
      <trkpt lat="44.81677" lon="4.06345">
        <ele>1005.5</ele>
        <time>2022-06-10T08:07:30Z</time>
      </trkpt>
      <trkpt lat="44.81678" lon="4.06345">
        <ele>1005.5</ele>
        <time>2022-06-10T08:07:31Z</time>
      </trkpt>
      <trkpt lat="44.81678" lon="4.06345">
        <ele>1005.5</ele>
        <time>2022-06-10T08:07:32Z</time>
      </trkpt>
      <trkpt lat="44.81678" lon="4.06345">
        <ele>1005.5</ele>
        <time>2022-06-10T08:07:33Z</time>
      </trkpt>
      <trkpt lat="44.81678" lon="4.06345">
        <ele>1005.5</ele>
        <time>2022-06-10T08:07:34Z</time>
      </trkpt>
      <trkpt lat="44.81678" lon="4.06345">
        <ele>1005.5</ele>
        <time>2022-06-10T08:07:35Z</time>
      </trkpt>
      <trkpt lat="44.81679" lon="4.06345">
        <ele>1005.5</ele>
        <time>2022-06-10T08:07:36Z</time>
      </trkpt>
      <trkpt lat="44.81679" lon="4.06345">
        <ele>1005.5</ele>
        <time>2022-06-10T08:08:01Z</time>
      </trkpt>
      <trkpt lat="44.81679" lon="4.06345">
        <ele>1005.5</ele>
        <time>2022-06-10T08:08:02Z</time>
      </trkpt>
      <trkpt lat="44.81679" lon="4.06345">
        <ele>1005.5</ele>
        <time>2022-06-10T08:08:03Z</time>
      </trkpt>
      <trkpt lat="44.8168" lon="4.06344">
        <ele>1005.5</ele>
        <time>2022-06-10T08:08:04Z</time>
      </trkpt>
      <trkpt lat="44.8168" lon="4.06344">
        <ele>1005.5</ele>
        <time>2022-06-10T08:08:05Z</time>
      </trkpt>
      <trkpt lat="44.8168" lon="4.06344">
        <ele>1005.5</ele>
        <time>2022-06-10T08:08:06Z</time>
      </trkpt>
      <trkpt lat="44.81682" lon="4.06343">
        <ele>1005.5</ele>
        <time>2022-06-10T08:08:07Z</time>
      </trkpt>
      <trkpt lat="44.81683" lon="4.06343">
        <ele>1005.5</ele>
        <time>2022-06-10T08:08:08Z</time>
      </trkpt>
      <trkpt lat="44.81684" lon="4.06342">
        <ele>1005.5</ele>
        <time>2022-06-10T08:08:09Z</time>
      </trkpt>
      <trkpt lat="44.81685" lon="4.06342">
        <ele>1005.5</ele>
        <time>2022-06-10T08:08:10Z</time>
      </trkpt>
      <trkpt lat="44.81686" lon="4.06341">
        <ele>1005.5</ele>
        <time>2022-06-10T08:08:11Z</time>
      </trkpt>
      <trkpt lat="44.81687" lon="4.0634">
        <ele>1005.5</ele>
        <time>2022-06-10T08:08:12Z</time>
      </trkpt>
      <trkpt lat="44.81688" lon="4.0634">
        <ele>1005.5</ele>
        <time>2022-06-10T08:08:13Z</time>
      </trkpt>
      <trkpt lat="44.81689" lon="4.0634">
        <ele>1005.5</ele>
        <time>2022-06-10T08:08:14Z</time>
      </trkpt>
      <trkpt lat="44.81689" lon="4.0634">
        <ele>1005.5</ele>
        <time>2022-06-10T08:08:15Z</time>
      </trkpt>
      <trkpt lat="44.81689" lon="4.0634">
        <ele>1005.5</ele>
        <time>2022-06-10T08:08:16Z</time>
      </trkpt>
      <trkpt lat="44.8169" lon="4.0634">
        <ele>1005.5</ele>
        <time>2022-06-10T08:08:17Z</time>
      </trkpt>
      <trkpt lat="44.8169" lon="4.0634">
        <ele>1005.5</ele>
        <time>2022-06-10T08:08:18Z</time>
      </trkpt>
      <trkpt lat="44.8169" lon="4.0634">
        <ele>1005.5</ele>
        <time>2022-06-10T08:08:19Z</time>
      </trkpt>
      <trkpt lat="44.8169" lon="4.0634">
        <ele>1005.5</ele>
        <time>2022-06-10T08:08:20Z</time>
      </trkpt>
      <trkpt lat="44.8169" lon="4.0634">
        <ele>1005.5</ele>
        <time>2022-06-10T08:08:21Z</time>
      </trkpt>
      <trkpt lat="44.8169" lon="4.06341">
        <ele>1005.5</ele>
        <time>2022-06-10T08:08:22Z</time>
      </trkpt>
      <trkpt lat="44.8169" lon="4.06341">
        <ele>1005.5</ele>
        <time>2022-06-10T08:08:23Z</time>
      </trkpt>
      <trkpt lat="44.8169" lon="4.06341">
        <ele>1005.5</ele>
        <time>2022-06-10T08:08:24Z</time>
      </trkpt>
      <trkpt lat="44.8169" lon="4.06341">
        <ele>1005.5</ele>
        <time>2022-06-10T08:08:25Z</time>
      </trkpt>
      <trkpt lat="44.8169" lon="4.06341">
        <ele>1005.5</ele>
        <time>2022-06-10T08:08:26Z</time>
      </trkpt>
      <trkpt lat="44.8169" lon="4.06341">
        <ele>1005.5</ele>
        <time>2022-06-10T08:08:27Z</time>
      </trkpt>
      <trkpt lat="44.8169" lon="4.06341">
        <ele>1005.5</ele>
        <time>2022-06-10T08:08:28Z</time>
      </trkpt>
      <trkpt lat="44.8169" lon="4.06341">
        <ele>1005.5</ele>
        <time>2022-06-10T08:08:29Z</time>
      </trkpt>
      <trkpt lat="44.81691" lon="4.06338">
        <ele>1005.5</ele>
        <time>2022-06-10T08:09:10Z</time>
      </trkpt>
      <trkpt lat="44.81691" lon="4.06335">
        <ele>1005.5</ele>
        <time>2022-06-10T08:09:11Z</time>
      </trkpt>
      <trkpt lat="44.8169" lon="4.06334">
        <ele>1005.5</ele>
        <time>2022-06-10T08:09:12Z</time>
      </trkpt>
      <trkpt lat="44.81686" lon="4.06331">
        <ele>1005.5</ele>
        <time>2022-06-10T08:09:13Z</time>
      </trkpt>
      <trkpt lat="44.81684" lon="4.06331">
        <ele>1005.5</ele>
        <time>2022-06-10T08:09:14Z</time>
      </trkpt>
      <trkpt lat="44.81683" lon="4.0633">
        <ele>1005.5</ele>
        <time>2022-06-10T08:09:15Z</time>
      </trkpt>
      <trkpt lat="44.81682" lon="4.0633">
        <ele>1005.5</ele>
        <time>2022-06-10T08:09:16Z</time>
      </trkpt>
      <trkpt lat="44.81679" lon="4.0633">
        <ele>1005.5</ele>
        <time>2022-06-10T08:09:17Z</time>
      </trkpt>
      <trkpt lat="44.81676" lon="4.06329">
        <ele>1005.5</ele>
        <time>2022-06-10T08:09:18Z</time>
      </trkpt>
      <trkpt lat="44.81668" lon="4.06326">
        <ele>1005.5</ele>
        <time>2022-06-10T08:09:19Z</time>
      </trkpt>
      <trkpt lat="44.81664" lon="4.06324">
        <ele>1005.6</ele>
        <time>2022-06-10T08:09:21Z</time>
      </trkpt>
      <trkpt lat="44.8166" lon="4.06324">
        <ele>1005.6</ele>
        <time>2022-06-10T08:09:22Z</time>
      </trkpt>
      <trkpt lat="44.81656" lon="4.06323">
        <ele>1005.6</ele>
        <time>2022-06-10T08:09:23Z</time>
      </trkpt>
      <trkpt lat="44.81652" lon="4.06322">
        <ele>1005.6</ele>
        <time>2022-06-10T08:09:24Z</time>
      </trkpt>
      <trkpt lat="44.81647" lon="4.0632">
        <ele>1005.7</ele>
        <time>2022-06-10T08:09:25Z</time>
      </trkpt>
      <trkpt lat="44.81644" lon="4.06318">
        <ele>1005.8</ele>
        <time>2022-06-10T08:09:26Z</time>
      </trkpt>
      <trkpt lat="44.81643" lon="4.06318">
        <ele>1005.8</ele>
        <time>2022-06-10T08:09:27Z</time>
      </trkpt>
      <trkpt lat="44.8164" lon="4.06317">
        <ele>1005.9</ele>
        <time>2022-06-10T08:09:28Z</time>
      </trkpt>
      <trkpt lat="44.81638" lon="4.06317">
        <ele>1005.9</ele>
        <time>2022-06-10T08:09:30Z</time>
      </trkpt>
      <trkpt lat="44.81636" lon="4.06316">
        <ele>1006</ele>
        <time>2022-06-10T08:09:31Z</time>
      </trkpt>
      <trkpt lat="44.81635" lon="4.06316">
        <ele>1006</ele>
        <time>2022-06-10T08:09:32Z</time>
      </trkpt>
      <trkpt lat="44.81632" lon="4.06316">
        <ele>1006.2</ele>
        <time>2022-06-10T08:09:33Z</time>
      </trkpt>
      <trkpt lat="44.81631" lon="4.06316">
        <ele>1006.2</ele>
        <time>2022-06-10T08:09:34Z</time>
      </trkpt>
      <trkpt lat="44.81629" lon="4.06315">
        <ele>1006.3</ele>
        <time>2022-06-10T08:09:35Z</time>
      </trkpt>
      <trkpt lat="44.81627" lon="4.06314">
        <ele>1006.4</ele>
        <time>2022-06-10T08:09:36Z</time>
      </trkpt>
      <trkpt lat="44.81624" lon="4.06312">
        <ele>1006.5</ele>
        <time>2022-06-10T08:09:37Z</time>
      </trkpt>
      <trkpt lat="44.81623" lon="4.06311">
        <ele>1006.6</ele>
        <time>2022-06-10T08:09:38Z</time>
      </trkpt>
      <trkpt lat="44.81621" lon="4.0631">
        <ele>1006.7</ele>
        <time>2022-06-10T08:09:39Z</time>
      </trkpt>
      <trkpt lat="44.8162" lon="4.06309">
        <ele>1006.8</ele>
        <time>2022-06-10T08:09:40Z</time>
      </trkpt>
      <trkpt lat="44.81617" lon="4.06308">
        <ele>1006.9</ele>
        <time>2022-06-10T08:09:41Z</time>
      </trkpt>
      <trkpt lat="44.81616" lon="4.06308">
        <ele>1007</ele>
        <time>2022-06-10T08:09:42Z</time>
      </trkpt>
      <trkpt lat="44.81613" lon="4.06307">
        <ele>1007.1</ele>
        <time>2022-06-10T08:09:43Z</time>
      </trkpt>
      <trkpt lat="44.81612" lon="4.06307">
        <ele>1007.2</ele>
        <time>2022-06-10T08:09:44Z</time>
      </trkpt>
      <trkpt lat="44.81609" lon="4.06307">
        <ele>1007.4</ele>
        <time>2022-06-10T08:09:45Z</time>
      </trkpt>
      <trkpt lat="44.81608" lon="4.06307">
        <ele>1007.4</ele>
        <time>2022-06-10T08:09:46Z</time>
      </trkpt>
      <trkpt lat="44.81605" lon="4.06306">
        <ele>1007.6</ele>
        <time>2022-06-10T08:09:47Z</time>
      </trkpt>
      <trkpt lat="44.81604" lon="4.06306">
        <ele>1007.7</ele>
        <time>2022-06-10T08:09:48Z</time>
      </trkpt>
      <trkpt lat="44.81601" lon="4.06305">
        <ele>1007.9</ele>
        <time>2022-06-10T08:09:49Z</time>
      </trkpt>
      <trkpt lat="44.81599" lon="4.06305">
        <ele>1007.9</ele>
        <time>2022-06-10T08:09:50Z</time>
      </trkpt>
      <trkpt lat="44.81597" lon="4.06304">
        <ele>1008.1</ele>
        <time>2022-06-10T08:09:51Z</time>
      </trkpt>
      <trkpt lat="44.81596" lon="4.06304">
        <ele>1008.2</ele>
        <time>2022-06-10T08:09:52Z</time>
      </trkpt>
      <trkpt lat="44.81593" lon="4.06302">
        <ele>1008.5</ele>
        <time>2022-06-10T08:09:53Z</time>
      </trkpt>
      <trkpt lat="44.81592" lon="4.06302">
        <ele>1008.6</ele>
        <time>2022-06-10T08:09:54Z</time>
      </trkpt>
      <trkpt lat="44.8159" lon="4.06301">
        <ele>1008.8</ele>
        <time>2022-06-10T08:09:55Z</time>
      </trkpt>
      <trkpt lat="44.81588" lon="4.063">
        <ele>1009</ele>
        <time>2022-06-10T08:09:56Z</time>
      </trkpt>
      <trkpt lat="44.81586" lon="4.063">
        <ele>1009.2</ele>
        <time>2022-06-10T08:09:57Z</time>
      </trkpt>
      <trkpt lat="44.81585" lon="4.06299">
        <ele>1009.3</ele>
        <time>2022-06-10T08:09:58Z</time>
      </trkpt>
      <trkpt lat="44.81583" lon="4.06299">
        <ele>1009.5</ele>
        <time>2022-06-10T08:09:59Z</time>
      </trkpt>
      <trkpt lat="44.81581" lon="4.06299">
        <ele>1009.7</ele>
        <time>2022-06-10T08:10:00Z</time>
      </trkpt>
      <trkpt lat="44.8158" lon="4.06299">
        <ele>1009.8</ele>
        <time>2022-06-10T08:10:01Z</time>
      </trkpt>
      <trkpt lat="44.81578" lon="4.06298">
        <ele>1010.1</ele>
        <time>2022-06-10T08:10:02Z</time>
      </trkpt>
      <trkpt lat="44.81575" lon="4.06298">
        <ele>1010.4</ele>
        <time>2022-06-10T08:10:03Z</time>
      </trkpt>
      <trkpt lat="44.81574" lon="4.06298">
        <ele>1010.5</ele>
        <time>2022-06-10T08:10:04Z</time>
      </trkpt>
      <trkpt lat="44.81572" lon="4.06298">
        <ele>1010.7</ele>
        <time>2022-06-10T08:10:05Z</time>
      </trkpt>
      <trkpt lat="44.81571" lon="4.06298">
        <ele>1010.8</ele>
        <time>2022-06-10T08:10:06Z</time>
      </trkpt>
      <trkpt lat="44.81569" lon="4.06299">
        <ele>1011</ele>
        <time>2022-06-10T08:10:07Z</time>
      </trkpt>
      <trkpt lat="44.81567" lon="4.06299">
        <ele>1011.2</ele>
        <time>2022-06-10T08:10:08Z</time>
      </trkpt>
      <trkpt lat="44.81566" lon="4.06299">
        <ele>1011.4</ele>
        <time>2022-06-10T08:10:09Z</time>
      </trkpt>
      <trkpt lat="44.81565" lon="4.06299">
        <ele>1011.5</ele>
        <time>2022-06-10T08:10:10Z</time>
      </trkpt>
      <trkpt lat="44.81563" lon="4.06299">
        <ele>1011.7</ele>
        <time>2022-06-10T08:10:11Z</time>
      </trkpt>
      <trkpt lat="44.81562" lon="4.06299">
        <ele>1011.8</ele>
        <time>2022-06-10T08:10:12Z</time>
      </trkpt>
      <trkpt lat="44.81561" lon="4.06299">
        <ele>1011.9</ele>
        <time>2022-06-10T08:10:13Z</time>
      </trkpt>
      <trkpt lat="44.8156" lon="4.06298">
        <ele>1012.1</ele>
        <time>2022-06-10T08:10:14Z</time>
      </trkpt>
      <trkpt lat="44.81558" lon="4.06298">
        <ele>1012.3</ele>
        <time>2022-06-10T08:10:15Z</time>
      </trkpt>
      <trkpt lat="44.81557" lon="4.06299">
        <ele>1012.4</ele>
        <time>2022-06-10T08:10:16Z</time>
      </trkpt>
      <trkpt lat="44.81555" lon="4.06299">
        <ele>1012.6</ele>
        <time>2022-06-10T08:10:17Z</time>
      </trkpt>
      <trkpt lat="44.81554" lon="4.06299">
        <ele>1012.8</ele>
        <time>2022-06-10T08:10:18Z</time>
      </trkpt>
      <trkpt lat="44.81552" lon="4.06299">
        <ele>1013</ele>
        <time>2022-06-10T08:10:19Z</time>
      </trkpt>
      <trkpt lat="44.81551" lon="4.06299">
        <ele>1013.1</ele>
        <time>2022-06-10T08:10:20Z</time>
      </trkpt>
      <trkpt lat="44.81549" lon="4.06299">
        <ele>1013.3</ele>
        <time>2022-06-10T08:10:21Z</time>
      </trkpt>
      <trkpt lat="44.81548" lon="4.06299">
        <ele>1013.5</ele>
        <time>2022-06-10T08:10:22Z</time>
      </trkpt>
      <trkpt lat="44.81546" lon="4.06299">
        <ele>1013.6</ele>
        <time>2022-06-10T08:10:23Z</time>
      </trkpt>
      <trkpt lat="44.81545" lon="4.063">
        <ele>1013.8</ele>
        <time>2022-06-10T08:10:24Z</time>
      </trkpt>
      <trkpt lat="44.81544" lon="4.063">
        <ele>1013.9</ele>
        <time>2022-06-10T08:10:25Z</time>
      </trkpt>
      <trkpt lat="44.81542" lon="4.06301">
        <ele>1014.1</ele>
        <time>2022-06-10T08:10:26Z</time>
      </trkpt>
      <trkpt lat="44.81541" lon="4.06301">
        <ele>1014.3</ele>
        <time>2022-06-10T08:10:27Z</time>
      </trkpt>
      <trkpt lat="44.81539" lon="4.06302">
        <ele>1014.5</ele>
        <time>2022-06-10T08:10:28Z</time>
      </trkpt>
      <trkpt lat="44.81538" lon="4.06303">
        <ele>1014.6</ele>
        <time>2022-06-10T08:10:29Z</time>
      </trkpt>
      <trkpt lat="44.81536" lon="4.06303">
        <ele>1014.8</ele>
        <time>2022-06-10T08:10:30Z</time>
      </trkpt>
      <trkpt lat="44.81534" lon="4.06304">
        <ele>1015</ele>
        <time>2022-06-10T08:10:31Z</time>
      </trkpt>
      <trkpt lat="44.81533" lon="4.06304">
        <ele>1015.1</ele>
        <time>2022-06-10T08:10:32Z</time>
      </trkpt>
      <trkpt lat="44.81531" lon="4.06305">
        <ele>1015.3</ele>
        <time>2022-06-10T08:10:33Z</time>
      </trkpt>
      <trkpt lat="44.8153" lon="4.06305">
        <ele>1015.4</ele>
        <time>2022-06-10T08:10:34Z</time>
      </trkpt>
      <trkpt lat="44.81528" lon="4.06305">
        <ele>1015.6</ele>
        <time>2022-06-10T08:10:35Z</time>
      </trkpt>
      <trkpt lat="44.81526" lon="4.06306">
        <ele>1015.7</ele>
        <time>2022-06-10T08:10:36Z</time>
      </trkpt>
      <trkpt lat="44.81525" lon="4.06307">
        <ele>1015.9</ele>
        <time>2022-06-10T08:10:37Z</time>
      </trkpt>
      <trkpt lat="44.81523" lon="4.06307">
        <ele>1016</ele>
        <time>2022-06-10T08:10:38Z</time>
      </trkpt>
      <trkpt lat="44.81522" lon="4.06308">
        <ele>1016.2</ele>
        <time>2022-06-10T08:10:39Z</time>
      </trkpt>
      <trkpt lat="44.8152" lon="4.06309">
        <ele>1016.3</ele>
        <time>2022-06-10T08:10:40Z</time>
      </trkpt>
      <trkpt lat="44.81518" lon="4.0631">
        <ele>1016.5</ele>
        <time>2022-06-10T08:10:41Z</time>
      </trkpt>
      <trkpt lat="44.81517" lon="4.0631">
        <ele>1016.6</ele>
        <time>2022-06-10T08:10:42Z</time>
      </trkpt>
      <trkpt lat="44.81515" lon="4.06311">
        <ele>1016.8</ele>
        <time>2022-06-10T08:10:43Z</time>
      </trkpt>
      <trkpt lat="44.81514" lon="4.06312">
        <ele>1016.9</ele>
        <time>2022-06-10T08:10:44Z</time>
      </trkpt>
      <trkpt lat="44.81512" lon="4.06313">
        <ele>1017.1</ele>
        <time>2022-06-10T08:10:45Z</time>
      </trkpt>
      <trkpt lat="44.8151" lon="4.06314">
        <ele>1017.2</ele>
        <time>2022-06-10T08:10:46Z</time>
      </trkpt>
      <trkpt lat="44.81509" lon="4.06315">
        <ele>1017.3</ele>
        <time>2022-06-10T08:10:47Z</time>
      </trkpt>
      <trkpt lat="44.81508" lon="4.06316">
        <ele>1017.4</ele>
        <time>2022-06-10T08:10:48Z</time>
      </trkpt>
      <trkpt lat="44.81506" lon="4.06317">
        <ele>1017.6</ele>
        <time>2022-06-10T08:10:49Z</time>
      </trkpt>
      <trkpt lat="44.81505" lon="4.06318">
        <ele>1017.7</ele>
        <time>2022-06-10T08:10:50Z</time>
      </trkpt>
      <trkpt lat="44.81503" lon="4.06319">
        <ele>1017.8</ele>
        <time>2022-06-10T08:10:51Z</time>
      </trkpt>
      <trkpt lat="44.81502" lon="4.06319">
        <ele>1017.9</ele>
        <time>2022-06-10T08:10:52Z</time>
      </trkpt>
      <trkpt lat="44.815" lon="4.0632">
        <ele>1018</ele>
        <time>2022-06-10T08:10:53Z</time>
      </trkpt>
      <trkpt lat="44.81499" lon="4.06321">
        <ele>1018.2</ele>
        <time>2022-06-10T08:10:54Z</time>
      </trkpt>
      <trkpt lat="44.81498" lon="4.06322">
        <ele>1018.3</ele>
        <time>2022-06-10T08:10:55Z</time>
      </trkpt>
      <trkpt lat="44.81496" lon="4.06323">
        <ele>1018.4</ele>
        <time>2022-06-10T08:10:56Z</time>
      </trkpt>
      <trkpt lat="44.81494" lon="4.06324">
        <ele>1018.5</ele>
        <time>2022-06-10T08:10:57Z</time>
      </trkpt>
      <trkpt lat="44.81492" lon="4.06326">
        <ele>1018.7</ele>
        <time>2022-06-10T08:10:58Z</time>
      </trkpt>
      <trkpt lat="44.81491" lon="4.06326">
        <ele>1018.7</ele>
        <time>2022-06-10T08:10:59Z</time>
      </trkpt>
      <trkpt lat="44.8149" lon="4.06327">
        <ele>1018.8</ele>
        <time>2022-06-10T08:11:00Z</time>
      </trkpt>
      <trkpt lat="44.81488" lon="4.06329">
        <ele>1018.9</ele>
        <time>2022-06-10T08:11:01Z</time>
      </trkpt>
      <trkpt lat="44.81486" lon="4.06331">
        <ele>1019.1</ele>
        <time>2022-06-10T08:11:02Z</time>
      </trkpt>
      <trkpt lat="44.81485" lon="4.06332">
        <ele>1019.1</ele>
        <time>2022-06-10T08:11:03Z</time>
      </trkpt>
      <trkpt lat="44.81482" lon="4.06335">
        <ele>1019.3</ele>
        <time>2022-06-10T08:11:04Z</time>
      </trkpt>
      <trkpt lat="44.81481" lon="4.06336">
        <ele>1019.4</ele>
        <time>2022-06-10T08:11:05Z</time>
      </trkpt>
      <trkpt lat="44.81479" lon="4.06339">
        <ele>1019.5</ele>
        <time>2022-06-10T08:11:06Z</time>
      </trkpt>
      <trkpt lat="44.81478" lon="4.0634">
        <ele>1019.6</ele>
        <time>2022-06-10T08:11:07Z</time>
      </trkpt>
      <trkpt lat="44.81475" lon="4.06343">
        <ele>1019.7</ele>
        <time>2022-06-10T08:11:08Z</time>
      </trkpt>
      <trkpt lat="44.81474" lon="4.06344">
        <ele>1019.8</ele>
        <time>2022-06-10T08:11:09Z</time>
      </trkpt>
      <trkpt lat="44.81472" lon="4.06347">
        <ele>1020</ele>
        <time>2022-06-10T08:11:10Z</time>
      </trkpt>
      <trkpt lat="44.81471" lon="4.06348">
        <ele>1020</ele>
        <time>2022-06-10T08:11:11Z</time>
      </trkpt>
      <trkpt lat="44.81468" lon="4.06352">
        <ele>1020.2</ele>
        <time>2022-06-10T08:11:12Z</time>
      </trkpt>
      <trkpt lat="44.81467" lon="4.06353">
        <ele>1020.2</ele>
        <time>2022-06-10T08:11:13Z</time>
      </trkpt>
      <trkpt lat="44.81464" lon="4.06357">
        <ele>1020.4</ele>
        <time>2022-06-10T08:11:14Z</time>
      </trkpt>
      <trkpt lat="44.81463" lon="4.06358">
        <ele>1020.4</ele>
        <time>2022-06-10T08:11:15Z</time>
      </trkpt>
      <trkpt lat="44.8146" lon="4.06361">
        <ele>1020.6</ele>
        <time>2022-06-10T08:11:16Z</time>
      </trkpt>
      <trkpt lat="44.81459" lon="4.06363">
        <ele>1020.6</ele>
        <time>2022-06-10T08:11:17Z</time>
      </trkpt>
      <trkpt lat="44.81456" lon="4.06366">
        <ele>1020.8</ele>
        <time>2022-06-10T08:11:18Z</time>
      </trkpt>
      <trkpt lat="44.81455" lon="4.06367">
        <ele>1020.8</ele>
        <time>2022-06-10T08:11:19Z</time>
      </trkpt>
      <trkpt lat="44.81453" lon="4.0637">
        <ele>1020.8</ele>
        <time>2022-06-10T08:11:20Z</time>
      </trkpt>
      <trkpt lat="44.81451" lon="4.06372">
        <ele>1020.8</ele>
        <time>2022-06-10T08:11:21Z</time>
      </trkpt>
      <trkpt lat="44.81448" lon="4.06375">
        <ele>1020.8</ele>
        <time>2022-06-10T08:11:22Z</time>
      </trkpt>
      <trkpt lat="44.81446" lon="4.06378">
        <ele>1020.9</ele>
        <time>2022-06-10T08:11:23Z</time>
      </trkpt>
      <trkpt lat="44.81444" lon="4.06381">
        <ele>1020.9</ele>
        <time>2022-06-10T08:11:24Z</time>
      </trkpt>
      <trkpt lat="44.81441" lon="4.06383">
        <ele>1020.9</ele>
        <time>2022-06-10T08:11:25Z</time>
      </trkpt>
      <trkpt lat="44.81439" lon="4.06386">
        <ele>1020.8</ele>
        <time>2022-06-10T08:11:26Z</time>
      </trkpt>
      <trkpt lat="44.81436" lon="4.06389">
        <ele>1020.8</ele>
        <time>2022-06-10T08:11:27Z</time>
      </trkpt>
      <trkpt lat="44.81432" lon="4.06393">
        <ele>1020.8</ele>
        <time>2022-06-10T08:11:28Z</time>
      </trkpt>
      <trkpt lat="44.8143" lon="4.06394">
        <ele>1020.7</ele>
        <time>2022-06-10T08:11:29Z</time>
      </trkpt>
      <trkpt lat="44.81427" lon="4.06398">
        <ele>1020.7</ele>
        <time>2022-06-10T08:11:30Z</time>
      </trkpt>
      <trkpt lat="44.81424" lon="4.06401">
        <ele>1020.7</ele>
        <time>2022-06-10T08:11:31Z</time>
      </trkpt>
      <trkpt lat="44.81422" lon="4.06404">
        <ele>1020.7</ele>
        <time>2022-06-10T08:11:32Z</time>
      </trkpt>
      <trkpt lat="44.81418" lon="4.06408">
        <ele>1020.7</ele>
        <time>2022-06-10T08:11:33Z</time>
      </trkpt>
      <trkpt lat="44.81412" lon="4.06414">
        <ele>1020.7</ele>
        <time>2022-06-10T08:11:34Z</time>
      </trkpt>
      <trkpt lat="44.81409" lon="4.06417">
        <ele>1020.7</ele>
        <time>2022-06-10T08:11:35Z</time>
      </trkpt>
      <trkpt lat="44.81406" lon="4.0642">
        <ele>1020.7</ele>
        <time>2022-06-10T08:11:36Z</time>
      </trkpt>
      <trkpt lat="44.81402" lon="4.06424">
        <ele>1020.8</ele>
        <time>2022-06-10T08:11:38Z</time>
      </trkpt>
      <trkpt lat="44.81398" lon="4.06427">
        <ele>1020.8</ele>
        <time>2022-06-10T08:11:39Z</time>
      </trkpt>
      <trkpt lat="44.81396" lon="4.06431">
        <ele>1020.9</ele>
        <time>2022-06-10T08:11:40Z</time>
      </trkpt>
      <trkpt lat="44.81393" lon="4.06434">
        <ele>1020.9</ele>
        <time>2022-06-10T08:11:41Z</time>
      </trkpt>
      <trkpt lat="44.8139" lon="4.06436">
        <ele>1020.9</ele>
        <time>2022-06-10T08:11:42Z</time>
      </trkpt>
      <trkpt lat="44.81388" lon="4.0644">
        <ele>1021</ele>
        <time>2022-06-10T08:11:43Z</time>
      </trkpt>
      <trkpt lat="44.81383" lon="4.06445">
        <ele>1021.1</ele>
        <time>2022-06-10T08:11:44Z</time>
      </trkpt>
      <trkpt lat="44.81379" lon="4.0645">
        <ele>1021.1</ele>
        <time>2022-06-10T08:11:46Z</time>
      </trkpt>
      <trkpt lat="44.81377" lon="4.06453">
        <ele>1021.2</ele>
        <time>2022-06-10T08:11:47Z</time>
      </trkpt>
      <trkpt lat="44.81374" lon="4.06456">
        <ele>1021.3</ele>
        <time>2022-06-10T08:11:48Z</time>
      </trkpt>
      <trkpt lat="44.81371" lon="4.06459">
        <ele>1021.4</ele>
        <time>2022-06-10T08:11:49Z</time>
      </trkpt>
      <trkpt lat="44.81369" lon="4.06462">
        <ele>1021.4</ele>
        <time>2022-06-10T08:11:50Z</time>
      </trkpt>
      <trkpt lat="44.81366" lon="4.06465">
        <ele>1021.5</ele>
        <time>2022-06-10T08:11:51Z</time>
      </trkpt>
      <trkpt lat="44.81363" lon="4.06469">
        <ele>1021.6</ele>
        <time>2022-06-10T08:11:52Z</time>
      </trkpt>
      <trkpt lat="44.81358" lon="4.06474">
        <ele>1021.7</ele>
        <time>2022-06-10T08:11:54Z</time>
      </trkpt>
      <trkpt lat="44.81356" lon="4.06477">
        <ele>1021.8</ele>
        <time>2022-06-10T08:11:55Z</time>
      </trkpt>
      <trkpt lat="44.81351" lon="4.06483">
        <ele>1021.9</ele>
        <time>2022-06-10T08:11:56Z</time>
      </trkpt>
      <trkpt lat="44.81348" lon="4.06486">
        <ele>1022</ele>
        <time>2022-06-10T08:11:58Z</time>
      </trkpt>
      <trkpt lat="44.81346" lon="4.06489">
        <ele>1022.1</ele>
        <time>2022-06-10T08:11:59Z</time>
      </trkpt>
      <trkpt lat="44.81343" lon="4.06492">
        <ele>1022.2</ele>
        <time>2022-06-10T08:12:00Z</time>
      </trkpt>
      <trkpt lat="44.81341" lon="4.06496">
        <ele>1022.2</ele>
        <time>2022-06-10T08:12:01Z</time>
      </trkpt>
      <trkpt lat="44.81338" lon="4.06499">
        <ele>1022.3</ele>
        <time>2022-06-10T08:12:02Z</time>
      </trkpt>
      <trkpt lat="44.81336" lon="4.06503">
        <ele>1022.4</ele>
        <time>2022-06-10T08:12:03Z</time>
      </trkpt>
      <trkpt lat="44.81333" lon="4.06507">
        <ele>1022.5</ele>
        <time>2022-06-10T08:12:04Z</time>
      </trkpt>
      <trkpt lat="44.81331" lon="4.06511">
        <ele>1022.6</ele>
        <time>2022-06-10T08:12:05Z</time>
      </trkpt>
      <trkpt lat="44.81328" lon="4.06514">
        <ele>1022.7</ele>
        <time>2022-06-10T08:12:06Z</time>
      </trkpt>
      <trkpt lat="44.81327" lon="4.06518">
        <ele>1022.7</ele>
        <time>2022-06-10T08:12:07Z</time>
      </trkpt>
      <trkpt lat="44.81324" lon="4.06522">
        <ele>1022.8</ele>
        <time>2022-06-10T08:12:08Z</time>
      </trkpt>
      <trkpt lat="44.81322" lon="4.06526">
        <ele>1022.9</ele>
        <time>2022-06-10T08:12:09Z</time>
      </trkpt>
      <trkpt lat="44.81319" lon="4.06529">
        <ele>1023</ele>
        <time>2022-06-10T08:12:10Z</time>
      </trkpt>
      <trkpt lat="44.81317" lon="4.06532">
        <ele>1023.1</ele>
        <time>2022-06-10T08:12:11Z</time>
      </trkpt>
      <trkpt lat="44.81314" lon="4.06536">
        <ele>1023.2</ele>
        <time>2022-06-10T08:12:12Z</time>
      </trkpt>
      <trkpt lat="44.81311" lon="4.06539">
        <ele>1023.3</ele>
        <time>2022-06-10T08:12:13Z</time>
      </trkpt>
      <trkpt lat="44.81309" lon="4.06542">
        <ele>1023.4</ele>
        <time>2022-06-10T08:12:14Z</time>
      </trkpt>
      <trkpt lat="44.81306" lon="4.06544">
        <ele>1023.5</ele>
        <time>2022-06-10T08:12:15Z</time>
      </trkpt>
      <trkpt lat="44.81303" lon="4.06547">
        <ele>1023.6</ele>
        <time>2022-06-10T08:12:16Z</time>
      </trkpt>
      <trkpt lat="44.81301" lon="4.06551">
        <ele>1023.7</ele>
        <time>2022-06-10T08:12:17Z</time>
      </trkpt>
      <trkpt lat="44.81298" lon="4.06554">
        <ele>1023.7</ele>
        <time>2022-06-10T08:12:18Z</time>
      </trkpt>
      <trkpt lat="44.81296" lon="4.06556">
        <ele>1023.8</ele>
        <time>2022-06-10T08:12:19Z</time>
      </trkpt>
      <trkpt lat="44.81293" lon="4.06559">
        <ele>1023.9</ele>
        <time>2022-06-10T08:12:20Z</time>
      </trkpt>
      <trkpt lat="44.81291" lon="4.06562">
        <ele>1023.9</ele>
        <time>2022-06-10T08:12:21Z</time>
      </trkpt>
      <trkpt lat="44.81289" lon="4.06565">
        <ele>1024</ele>
        <time>2022-06-10T08:12:22Z</time>
      </trkpt>
      <trkpt lat="44.81285" lon="4.06567">
        <ele>1024.1</ele>
        <time>2022-06-10T08:12:23Z</time>
      </trkpt>
      <trkpt lat="44.81284" lon="4.06568">
        <ele>1024.2</ele>
        <time>2022-06-10T08:12:24Z</time>
      </trkpt>
      <trkpt lat="44.81281" lon="4.06571">
        <ele>1024.3</ele>
        <time>2022-06-10T08:12:25Z</time>
      </trkpt>
      <trkpt lat="44.8128" lon="4.06572">
        <ele>1024.3</ele>
        <time>2022-06-10T08:12:26Z</time>
      </trkpt>
      <trkpt lat="44.81277" lon="4.06576">
        <ele>1024.5</ele>
        <time>2022-06-10T08:12:27Z</time>
      </trkpt>
      <trkpt lat="44.81276" lon="4.06577">
        <ele>1024.6</ele>
        <time>2022-06-10T08:12:28Z</time>
      </trkpt>
      <trkpt lat="44.81273" lon="4.06579">
        <ele>1024.8</ele>
        <time>2022-06-10T08:12:29Z</time>
      </trkpt>
      <trkpt lat="44.8127" lon="4.0658">
        <ele>1025.1</ele>
        <time>2022-06-10T08:12:30Z</time>
      </trkpt>
      <trkpt lat="44.81269" lon="4.06581">
        <ele>1025.2</ele>
        <time>2022-06-10T08:12:31Z</time>
      </trkpt>
      <trkpt lat="44.81266" lon="4.06583">
        <ele>1025.5</ele>
        <time>2022-06-10T08:12:32Z</time>
      </trkpt>
      <trkpt lat="44.81262" lon="4.06585">
        <ele>1025.8</ele>
        <time>2022-06-10T08:12:34Z</time>
      </trkpt>
      <trkpt lat="44.8126" lon="4.06586">
        <ele>1026</ele>
        <time>2022-06-10T08:12:35Z</time>
      </trkpt>
      <trkpt lat="44.81259" lon="4.06586">
        <ele>1026.1</ele>
        <time>2022-06-10T08:12:36Z</time>
      </trkpt>
      <trkpt lat="44.81258" lon="4.06586">
        <ele>1026.3</ele>
        <time>2022-06-10T08:12:37Z</time>
      </trkpt>
      <trkpt lat="44.81256" lon="4.06587">
        <ele>1026.5</ele>
        <time>2022-06-10T08:12:38Z</time>
      </trkpt>
      <trkpt lat="44.81252" lon="4.0659">
        <ele>1026.9</ele>
        <time>2022-06-10T08:12:40Z</time>
      </trkpt>
      <trkpt lat="44.8125" lon="4.06593">
        <ele>1027.2</ele>
        <time>2022-06-10T08:12:41Z</time>
      </trkpt>
      <trkpt lat="44.81248" lon="4.06594">
        <ele>1027.5</ele>
        <time>2022-06-10T08:12:43Z</time>
      </trkpt>
      <trkpt lat="44.81247" lon="4.06596">
        <ele>1027.6</ele>
        <time>2022-06-10T08:12:44Z</time>
      </trkpt>
      <trkpt lat="44.81244" lon="4.06598">
        <ele>1028</ele>
        <time>2022-06-10T08:12:45Z</time>
      </trkpt>
      <trkpt lat="44.81243" lon="4.066">
        <ele>1028.2</ele>
        <time>2022-06-10T08:12:46Z</time>
      </trkpt>
      <trkpt lat="44.81241" lon="4.06602">
        <ele>1028.4</ele>
        <time>2022-06-10T08:12:47Z</time>
      </trkpt>
      <trkpt lat="44.8124" lon="4.06603">
        <ele>1028.6</ele>
        <time>2022-06-10T08:12:48Z</time>
      </trkpt>
      <trkpt lat="44.81238" lon="4.06606">
        <ele>1028.9</ele>
        <time>2022-06-10T08:12:49Z</time>
      </trkpt>
      <trkpt lat="44.81238" lon="4.06607">
        <ele>1028.9</ele>
        <time>2022-06-10T08:12:50Z</time>
      </trkpt>
      <trkpt lat="44.81237" lon="4.06608">
        <ele>1029.1</ele>
        <time>2022-06-10T08:12:52Z</time>
      </trkpt>
      <trkpt lat="44.81237" lon="4.0661">
        <ele>1029.2</ele>
        <time>2022-06-10T08:12:53Z</time>
      </trkpt>
      <trkpt lat="44.81236" lon="4.06611">
        <ele>1029.3</ele>
        <time>2022-06-10T08:12:55Z</time>
      </trkpt>
      <trkpt lat="44.81236" lon="4.06613">
        <ele>1029.5</ele>
        <time>2022-06-10T08:12:56Z</time>
      </trkpt>
      <trkpt lat="44.81235" lon="4.06615">
        <ele>1029.6</ele>
        <time>2022-06-10T08:12:57Z</time>
      </trkpt>
      <trkpt lat="44.81235" lon="4.06616">
        <ele>1029.6</ele>
        <time>2022-06-10T08:12:58Z</time>
      </trkpt>
      <trkpt lat="44.81235" lon="4.06618">
        <ele>1029.8</ele>
        <time>2022-06-10T08:12:59Z</time>
      </trkpt>
      <trkpt lat="44.81234" lon="4.06619">
        <ele>1029.9</ele>
        <time>2022-06-10T08:13:00Z</time>
      </trkpt>
      <trkpt lat="44.81234" lon="4.06621">
        <ele>1030</ele>
        <time>2022-06-10T08:13:01Z</time>
      </trkpt>
      <trkpt lat="44.81233" lon="4.06624">
        <ele>1030.3</ele>
        <time>2022-06-10T08:13:03Z</time>
      </trkpt>
      <trkpt lat="44.81231" lon="4.06629">
        <ele>1030.6</ele>
        <time>2022-06-10T08:13:04Z</time>
      </trkpt>
      <trkpt lat="44.81229" lon="4.06632">
        <ele>1030.8</ele>
        <time>2022-06-10T08:13:05Z</time>
      </trkpt>
      <trkpt lat="44.81229" lon="4.06635">
        <ele>1031</ele>
        <time>2022-06-10T08:13:07Z</time>
      </trkpt>
      <trkpt lat="44.81228" lon="4.06638">
        <ele>1031.1</ele>
        <time>2022-06-10T08:13:08Z</time>
      </trkpt>
      <trkpt lat="44.81227" lon="4.0664">
        <ele>1031.2</ele>
        <time>2022-06-10T08:13:09Z</time>
      </trkpt>
      <trkpt lat="44.81226" lon="4.06643">
        <ele>1031.4</ele>
        <time>2022-06-10T08:13:10Z</time>
      </trkpt>
      <trkpt lat="44.81225" lon="4.06646">
        <ele>1031.5</ele>
        <time>2022-06-10T08:13:12Z</time>
      </trkpt>
      <trkpt lat="44.81223" lon="4.0665">
        <ele>1031.7</ele>
        <time>2022-06-10T08:13:13Z</time>
      </trkpt>
      <trkpt lat="44.81223" lon="4.06651">
        <ele>1031.8</ele>
        <time>2022-06-10T08:13:14Z</time>
      </trkpt>
      <trkpt lat="44.81221" lon="4.06655">
        <ele>1032</ele>
        <time>2022-06-10T08:13:16Z</time>
      </trkpt>
      <trkpt lat="44.81221" lon="4.06656">
        <ele>1032</ele>
        <time>2022-06-10T08:13:17Z</time>
      </trkpt>
      <trkpt lat="44.81219" lon="4.06659">
        <ele>1032.2</ele>
        <time>2022-06-10T08:13:18Z</time>
      </trkpt>
      <trkpt lat="44.81219" lon="4.06661">
        <ele>1032.3</ele>
        <time>2022-06-10T08:13:19Z</time>
      </trkpt>
      <trkpt lat="44.81217" lon="4.06665">
        <ele>1032.5</ele>
        <time>2022-06-10T08:13:21Z</time>
      </trkpt>
      <trkpt lat="44.81216" lon="4.06666">
        <ele>1032.5</ele>
        <time>2022-06-10T08:13:22Z</time>
      </trkpt>
      <trkpt lat="44.81214" lon="4.06669">
        <ele>1032.7</ele>
        <time>2022-06-10T08:13:23Z</time>
      </trkpt>
      <trkpt lat="44.81213" lon="4.06671">
        <ele>1032.8</ele>
        <time>2022-06-10T08:13:24Z</time>
      </trkpt>
      <trkpt lat="44.8121" lon="4.06677">
        <ele>1033.1</ele>
        <time>2022-06-10T08:13:25Z</time>
      </trkpt>
      <trkpt lat="44.81207" lon="4.06682">
        <ele>1033.4</ele>
        <time>2022-06-10T08:13:27Z</time>
      </trkpt>
      <trkpt lat="44.81206" lon="4.06684">
        <ele>1033.5</ele>
        <time>2022-06-10T08:13:28Z</time>
      </trkpt>
      <trkpt lat="44.81204" lon="4.06687">
        <ele>1033.7</ele>
        <time>2022-06-10T08:13:30Z</time>
      </trkpt>
      <trkpt lat="44.81203" lon="4.0669">
        <ele>1033.8</ele>
        <time>2022-06-10T08:13:31Z</time>
      </trkpt>
      <trkpt lat="44.81203" lon="4.06691">
        <ele>1033.9</ele>
        <time>2022-06-10T08:13:32Z</time>
      </trkpt>
      <trkpt lat="44.81202" lon="4.06692">
        <ele>1033.9</ele>
        <time>2022-06-10T08:13:33Z</time>
      </trkpt>
      <trkpt lat="44.812" lon="4.06697">
        <ele>1034.1</ele>
        <time>2022-06-10T08:13:34Z</time>
      </trkpt>
      <trkpt lat="44.81198" lon="4.067">
        <ele>1034.3</ele>
        <time>2022-06-10T08:13:36Z</time>
      </trkpt>
      <trkpt lat="44.81195" lon="4.06705">
        <ele>1034.6</ele>
        <time>2022-06-10T08:13:37Z</time>
      </trkpt>
      <trkpt lat="44.81192" lon="4.06711">
        <ele>1034.9</ele>
        <time>2022-06-10T08:13:39Z</time>
      </trkpt>
      <trkpt lat="44.81191" lon="4.06713">
        <ele>1035</ele>
        <time>2022-06-10T08:13:40Z</time>
      </trkpt>
      <trkpt lat="44.8119" lon="4.06714">
        <ele>1035.1</ele>
        <time>2022-06-10T08:13:41Z</time>
      </trkpt>
      <trkpt lat="44.81189" lon="4.06717">
        <ele>1035.3</ele>
        <time>2022-06-10T08:13:42Z</time>
      </trkpt>
      <trkpt lat="44.81187" lon="4.06723">
        <ele>1035.6</ele>
        <time>2022-06-10T08:13:44Z</time>
      </trkpt>
      <trkpt lat="44.81186" lon="4.06727">
        <ele>1035.8</ele>
        <time>2022-06-10T08:13:45Z</time>
      </trkpt>
      <trkpt lat="44.81185" lon="4.06728">
        <ele>1035.8</ele>
        <time>2022-06-10T08:13:46Z</time>
      </trkpt>
      <trkpt lat="44.81184" lon="4.06733">
        <ele>1036.1</ele>
        <time>2022-06-10T08:13:47Z</time>
      </trkpt>
      <trkpt lat="44.81182" lon="4.06737">
        <ele>1036.3</ele>
        <time>2022-06-10T08:13:49Z</time>
      </trkpt>
      <trkpt lat="44.81181" lon="4.06742">
        <ele>1036.5</ele>
        <time>2022-06-10T08:13:50Z</time>
      </trkpt>
      <trkpt lat="44.81181" lon="4.06746">
        <ele>1036.7</ele>
        <time>2022-06-10T08:13:51Z</time>
      </trkpt>
      <trkpt lat="44.81179" lon="4.06754">
        <ele>1037.1</ele>
        <time>2022-06-10T08:13:54Z</time>
      </trkpt>
      <trkpt lat="44.81179" lon="4.06755">
        <ele>1037.2</ele>
        <time>2022-06-10T08:13:55Z</time>
      </trkpt>
      <trkpt lat="44.81178" lon="4.06757">
        <ele>1037.3</ele>
        <time>2022-06-10T08:13:56Z</time>
      </trkpt>
      <trkpt lat="44.81177" lon="4.06761">
        <ele>1037.5</ele>
        <time>2022-06-10T08:13:57Z</time>
      </trkpt>
      <trkpt lat="44.81176" lon="4.06762">
        <ele>1037.6</ele>
        <time>2022-06-10T08:13:58Z</time>
      </trkpt>
      <trkpt lat="44.81174" lon="4.06766">
        <ele>1037.8</ele>
        <time>2022-06-10T08:13:59Z</time>
      </trkpt>
      <trkpt lat="44.81174" lon="4.06767">
        <ele>1037.9</ele>
        <time>2022-06-10T08:14:00Z</time>
      </trkpt>
      <trkpt lat="44.81173" lon="4.06769">
        <ele>1038</ele>
        <time>2022-06-10T08:14:01Z</time>
      </trkpt>
      <trkpt lat="44.81173" lon="4.06771">
        <ele>1038.1</ele>
        <time>2022-06-10T08:14:02Z</time>
      </trkpt>
      <trkpt lat="44.81172" lon="4.06775">
        <ele>1038.3</ele>
        <time>2022-06-10T08:14:03Z</time>
      </trkpt>
      <trkpt lat="44.81172" lon="4.06778">
        <ele>1038.5</ele>
        <time>2022-06-10T08:14:05Z</time>
      </trkpt>
      <trkpt lat="44.81171" lon="4.06781">
        <ele>1038.7</ele>
        <time>2022-06-10T08:14:06Z</time>
      </trkpt>
      <trkpt lat="44.8117" lon="4.06783">
        <ele>1038.8</ele>
        <time>2022-06-10T08:14:07Z</time>
      </trkpt>
      <trkpt lat="44.81169" lon="4.06785">
        <ele>1038.9</ele>
        <time>2022-06-10T08:14:08Z</time>
      </trkpt>
      <trkpt lat="44.81167" lon="4.06789">
        <ele>1039.2</ele>
        <time>2022-06-10T08:14:10Z</time>
      </trkpt>
      <trkpt lat="44.81166" lon="4.06792">
        <ele>1039.4</ele>
        <time>2022-06-10T08:14:11Z</time>
      </trkpt>
      <trkpt lat="44.81165" lon="4.06794">
        <ele>1039.5</ele>
        <time>2022-06-10T08:14:12Z</time>
      </trkpt>
      <trkpt lat="44.81164" lon="4.06797">
        <ele>1039.8</ele>
        <time>2022-06-10T08:14:13Z</time>
      </trkpt>
      <trkpt lat="44.81163" lon="4.068">
        <ele>1040</ele>
        <time>2022-06-10T08:14:14Z</time>
      </trkpt>
      <trkpt lat="44.81162" lon="4.06802">
        <ele>1040.1</ele>
        <time>2022-06-10T08:14:16Z</time>
      </trkpt>
      <trkpt lat="44.81162" lon="4.06804">
        <ele>1040.2</ele>
        <time>2022-06-10T08:14:17Z</time>
      </trkpt>
      <trkpt lat="44.81161" lon="4.06806">
        <ele>1040.3</ele>
        <time>2022-06-10T08:14:18Z</time>
      </trkpt>
      <trkpt lat="44.81161" lon="4.06808">
        <ele>1040.5</ele>
        <time>2022-06-10T08:14:19Z</time>
      </trkpt>
      <trkpt lat="44.8116" lon="4.0681">
        <ele>1040.6</ele>
        <time>2022-06-10T08:14:20Z</time>
      </trkpt>
      <trkpt lat="44.8116" lon="4.06812">
        <ele>1040.7</ele>
        <time>2022-06-10T08:14:21Z</time>
      </trkpt>
      <trkpt lat="44.81159" lon="4.06814">
        <ele>1040.8</ele>
        <time>2022-06-10T08:14:22Z</time>
      </trkpt>
      <trkpt lat="44.81159" lon="4.06816">
        <ele>1041</ele>
        <time>2022-06-10T08:14:23Z</time>
      </trkpt>
      <trkpt lat="44.81157" lon="4.06819">
        <ele>1041.2</ele>
        <time>2022-06-10T08:14:24Z</time>
      </trkpt>
      <trkpt lat="44.81156" lon="4.06821">
        <ele>1041.4</ele>
        <time>2022-06-10T08:14:26Z</time>
      </trkpt>
      <trkpt lat="44.81155" lon="4.06823">
        <ele>1041.5</ele>
        <time>2022-06-10T08:14:27Z</time>
      </trkpt>
      <trkpt lat="44.81154" lon="4.06824">
        <ele>1041.7</ele>
        <time>2022-06-10T08:14:28Z</time>
      </trkpt>
      <trkpt lat="44.81152" lon="4.06826">
        <ele>1041.9</ele>
        <time>2022-06-10T08:14:29Z</time>
      </trkpt>
      <trkpt lat="44.81152" lon="4.06828">
        <ele>1042</ele>
        <time>2022-06-10T08:14:30Z</time>
      </trkpt>
      <trkpt lat="44.81152" lon="4.06829">
        <ele>1042.1</ele>
        <time>2022-06-10T08:14:31Z</time>
      </trkpt>
      <trkpt lat="44.81151" lon="4.06832">
        <ele>1042.3</ele>
        <time>2022-06-10T08:14:32Z</time>
      </trkpt>
      <trkpt lat="44.81151" lon="4.06834">
        <ele>1042.4</ele>
        <time>2022-06-10T08:14:33Z</time>
      </trkpt>
      <trkpt lat="44.8115" lon="4.06836">
        <ele>1042.6</ele>
        <time>2022-06-10T08:14:34Z</time>
      </trkpt>
      <trkpt lat="44.8115" lon="4.06838">
        <ele>1042.7</ele>
        <time>2022-06-10T08:14:35Z</time>
      </trkpt>
      <trkpt lat="44.8115" lon="4.06839">
        <ele>1042.8</ele>
        <time>2022-06-10T08:14:36Z</time>
      </trkpt>
      <trkpt lat="44.81149" lon="4.06844">
        <ele>1043.2</ele>
        <time>2022-06-10T08:14:38Z</time>
      </trkpt>
      <trkpt lat="44.81149" lon="4.06846">
        <ele>1043.3</ele>
        <time>2022-06-10T08:14:39Z</time>
      </trkpt>
      <trkpt lat="44.81149" lon="4.06848">
        <ele>1043.5</ele>
        <time>2022-06-10T08:14:40Z</time>
      </trkpt>
      <trkpt lat="44.81148" lon="4.0685">
        <ele>1043.6</ele>
        <time>2022-06-10T08:14:41Z</time>
      </trkpt>
      <trkpt lat="44.81148" lon="4.06851">
        <ele>1043.7</ele>
        <time>2022-06-10T08:14:42Z</time>
      </trkpt>
      <trkpt lat="44.81149" lon="4.06853">
        <ele>1043.8</ele>
        <time>2022-06-10T08:14:43Z</time>
      </trkpt>
      <trkpt lat="44.81148" lon="4.06855">
        <ele>1044</ele>
        <time>2022-06-10T08:14:44Z</time>
      </trkpt>
      <trkpt lat="44.81148" lon="4.06859">
        <ele>1044.3</ele>
        <time>2022-06-10T08:14:46Z</time>
      </trkpt>
      <trkpt lat="44.81147" lon="4.0686">
        <ele>1044.4</ele>
        <time>2022-06-10T08:14:47Z</time>
      </trkpt>
      <trkpt lat="44.81148" lon="4.06863">
        <ele>1044.6</ele>
        <time>2022-06-10T08:14:48Z</time>
      </trkpt>
      <trkpt lat="44.81148" lon="4.06865">
        <ele>1044.8</ele>
        <time>2022-06-10T08:14:50Z</time>
      </trkpt>
      <trkpt lat="44.81148" lon="4.06868">
        <ele>1045</ele>
        <time>2022-06-10T08:14:51Z</time>
      </trkpt>
      <trkpt lat="44.81147" lon="4.0687">
        <ele>1045.2</ele>
        <time>2022-06-10T08:14:53Z</time>
      </trkpt>
      <trkpt lat="44.81146" lon="4.0687">
        <ele>1045.3</ele>
        <time>2022-06-10T08:14:54Z</time>
      </trkpt>
      <trkpt lat="44.81146" lon="4.0687">
        <ele>1045.3</ele>
        <time>2022-06-10T08:14:55Z</time>
      </trkpt>
      <trkpt lat="44.81146" lon="4.06871">
        <ele>1045.5</ele>
        <time>2022-06-10T08:14:56Z</time>
      </trkpt>
      <trkpt lat="44.81145" lon="4.06873">
        <ele>1045.7</ele>
        <time>2022-06-10T08:14:57Z</time>
      </trkpt>
      <trkpt lat="44.81145" lon="4.06876">
        <ele>1045.9</ele>
        <time>2022-06-10T08:14:59Z</time>
      </trkpt>
      <trkpt lat="44.81146" lon="4.06878">
        <ele>1046</ele>
        <time>2022-06-10T08:15:00Z</time>
      </trkpt>
      <trkpt lat="44.81146" lon="4.0688">
        <ele>1046.2</ele>
        <time>2022-06-10T08:15:01Z</time>
      </trkpt>
      <trkpt lat="44.81147" lon="4.06882">
        <ele>1046.4</ele>
        <time>2022-06-10T08:15:02Z</time>
      </trkpt>
      <trkpt lat="44.81148" lon="4.06884">
        <ele>1046.6</ele>
        <time>2022-06-10T08:15:03Z</time>
      </trkpt>
      <trkpt lat="44.81148" lon="4.06886">
        <ele>1046.7</ele>
        <time>2022-06-10T08:15:04Z</time>
      </trkpt>
      <trkpt lat="44.81149" lon="4.06888">
        <ele>1046.9</ele>
        <time>2022-06-10T08:15:05Z</time>
      </trkpt>
      <trkpt lat="44.8115" lon="4.0689">
        <ele>1047.1</ele>
        <time>2022-06-10T08:15:06Z</time>
      </trkpt>
      <trkpt lat="44.81151" lon="4.06892">
        <ele>1047.3</ele>
        <time>2022-06-10T08:15:07Z</time>
      </trkpt>
      <trkpt lat="44.81151" lon="4.06894">
        <ele>1047.5</ele>
        <time>2022-06-10T08:15:08Z</time>
      </trkpt>
      <trkpt lat="44.81152" lon="4.06896">
        <ele>1047.7</ele>
        <time>2022-06-10T08:15:09Z</time>
      </trkpt>
      <trkpt lat="44.81154" lon="4.06897">
        <ele>1047.9</ele>
        <time>2022-06-10T08:15:10Z</time>
      </trkpt>
      <trkpt lat="44.81155" lon="4.06899">
        <ele>1048</ele>
        <time>2022-06-10T08:15:11Z</time>
      </trkpt>
      <trkpt lat="44.81156" lon="4.06901">
        <ele>1048.2</ele>
        <time>2022-06-10T08:15:12Z</time>
      </trkpt>
      <trkpt lat="44.81156" lon="4.06905">
        <ele>1048.5</ele>
        <time>2022-06-10T08:15:14Z</time>
      </trkpt>
      <trkpt lat="44.81157" lon="4.06907">
        <ele>1048.7</ele>
        <time>2022-06-10T08:15:15Z</time>
      </trkpt>
      <trkpt lat="44.81158" lon="4.06909">
        <ele>1048.8</ele>
        <time>2022-06-10T08:15:16Z</time>
      </trkpt>
      <trkpt lat="44.81159" lon="4.06913">
        <ele>1049.2</ele>
        <time>2022-06-10T08:15:17Z</time>
      </trkpt>
      <trkpt lat="44.81159" lon="4.06917">
        <ele>1049.4</ele>
        <time>2022-06-10T08:15:19Z</time>
      </trkpt>
      <trkpt lat="44.81159" lon="4.06919">
        <ele>1049.6</ele>
        <time>2022-06-10T08:15:21Z</time>
      </trkpt>
      <trkpt lat="44.81159" lon="4.06921">
        <ele>1049.7</ele>
        <time>2022-06-10T08:15:22Z</time>
      </trkpt>
      <trkpt lat="44.81159" lon="4.06923">
        <ele>1049.9</ele>
        <time>2022-06-10T08:15:23Z</time>
      </trkpt>
      <trkpt lat="44.81159" lon="4.06926">
        <ele>1050</ele>
        <time>2022-06-10T08:15:24Z</time>
      </trkpt>
      <trkpt lat="44.81159" lon="4.06928">
        <ele>1050.2</ele>
        <time>2022-06-10T08:15:25Z</time>
      </trkpt>
      <trkpt lat="44.8116" lon="4.0693">
        <ele>1050.3</ele>
        <time>2022-06-10T08:15:26Z</time>
      </trkpt>
      <trkpt lat="44.81159" lon="4.06932">
        <ele>1050.5</ele>
        <time>2022-06-10T08:15:27Z</time>
      </trkpt>
      <trkpt lat="44.81159" lon="4.06934">
        <ele>1050.6</ele>
        <time>2022-06-10T08:15:28Z</time>
      </trkpt>
      <trkpt lat="44.81159" lon="4.06936">
        <ele>1050.7</ele>
        <time>2022-06-10T08:15:29Z</time>
      </trkpt>
      <trkpt lat="44.81159" lon="4.06938">
        <ele>1050.9</ele>
        <time>2022-06-10T08:15:30Z</time>
      </trkpt>
      <trkpt lat="44.81159" lon="4.06942">
        <ele>1051.1</ele>
        <time>2022-06-10T08:15:31Z</time>
      </trkpt>
      <trkpt lat="44.81158" lon="4.06944">
        <ele>1051.2</ele>
        <time>2022-06-10T08:15:32Z</time>
      </trkpt>
      <trkpt lat="44.81158" lon="4.06947">
        <ele>1051.4</ele>
        <time>2022-06-10T08:15:33Z</time>
      </trkpt>
      <trkpt lat="44.81158" lon="4.06951">
        <ele>1051.6</ele>
        <time>2022-06-10T08:15:35Z</time>
      </trkpt>
      <trkpt lat="44.81157" lon="4.06955">
        <ele>1051.8</ele>
        <time>2022-06-10T08:15:36Z</time>
      </trkpt>
      <trkpt lat="44.81157" lon="4.06956">
        <ele>1051.9</ele>
        <time>2022-06-10T08:15:37Z</time>
      </trkpt>
      <trkpt lat="44.81156" lon="4.06959">
        <ele>1052.1</ele>
        <time>2022-06-10T08:15:38Z</time>
      </trkpt>
      <trkpt lat="44.81155" lon="4.06962">
        <ele>1052.2</ele>
        <time>2022-06-10T08:15:39Z</time>
      </trkpt>
      <trkpt lat="44.81154" lon="4.06968">
        <ele>1052.5</ele>
        <time>2022-06-10T08:15:41Z</time>
      </trkpt>
      <trkpt lat="44.81154" lon="4.06974">
        <ele>1052.8</ele>
        <time>2022-06-10T08:15:44Z</time>
      </trkpt>
      <trkpt lat="44.81152" lon="4.0698">
        <ele>1053</ele>
        <time>2022-06-10T08:15:45Z</time>
      </trkpt>
      <trkpt lat="44.81151" lon="4.06984">
        <ele>1053.2</ele>
        <time>2022-06-10T08:15:46Z</time>
      </trkpt>
      <trkpt lat="44.81147" lon="4.06989">
        <ele>1053.4</ele>
        <time>2022-06-10T08:15:48Z</time>
      </trkpt>
      <trkpt lat="44.81145" lon="4.06994">
        <ele>1053.6</ele>
        <time>2022-06-10T08:15:50Z</time>
      </trkpt>
      <trkpt lat="44.81144" lon="4.06996">
        <ele>1053.6</ele>
        <time>2022-06-10T08:15:51Z</time>
      </trkpt>
      <trkpt lat="44.81144" lon="4.06998">
        <ele>1053.7</ele>
        <time>2022-06-10T08:15:52Z</time>
      </trkpt>
      <trkpt lat="44.81143" lon="4.07003">
        <ele>1053.8</ele>
        <time>2022-06-10T08:15:53Z</time>
      </trkpt>
      <trkpt lat="44.81142" lon="4.07005">
        <ele>1053.9</ele>
        <time>2022-06-10T08:15:54Z</time>
      </trkpt>
      <trkpt lat="44.81142" lon="4.0701">
        <ele>1054</ele>
        <time>2022-06-10T08:15:55Z</time>
      </trkpt>
      <trkpt lat="44.81142" lon="4.07011">
        <ele>1054</ele>
        <time>2022-06-10T08:15:56Z</time>
      </trkpt>
      <trkpt lat="44.8114" lon="4.07015">
        <ele>1054.2</ele>
        <time>2022-06-10T08:15:57Z</time>
      </trkpt>
      <trkpt lat="44.8114" lon="4.07016">
        <ele>1054.2</ele>
        <time>2022-06-10T08:15:58Z</time>
      </trkpt>
      <trkpt lat="44.81138" lon="4.0702">
        <ele>1054.3</ele>
        <time>2022-06-10T08:15:59Z</time>
      </trkpt>
      <trkpt lat="44.81136" lon="4.07023">
        <ele>1054.4</ele>
        <time>2022-06-10T08:16:00Z</time>
      </trkpt>
      <trkpt lat="44.81134" lon="4.07025">
        <ele>1054.5</ele>
        <time>2022-06-10T08:16:01Z</time>
      </trkpt>
      <trkpt lat="44.81132" lon="4.07029">
        <ele>1054.6</ele>
        <time>2022-06-10T08:16:03Z</time>
      </trkpt>
      <trkpt lat="44.81131" lon="4.07031">
        <ele>1054.7</ele>
        <time>2022-06-10T08:16:04Z</time>
      </trkpt>
      <trkpt lat="44.81129" lon="4.07036">
        <ele>1054.9</ele>
        <time>2022-06-10T08:16:05Z</time>
      </trkpt>
      <trkpt lat="44.81128" lon="4.07041">
        <ele>1055</ele>
        <time>2022-06-10T08:16:07Z</time>
      </trkpt>
      <trkpt lat="44.81128" lon="4.07042">
        <ele>1055</ele>
        <time>2022-06-10T08:16:08Z</time>
      </trkpt>
      <trkpt lat="44.81127" lon="4.07043">
        <ele>1055.1</ele>
        <time>2022-06-10T08:16:09Z</time>
      </trkpt>
      <trkpt lat="44.81125" lon="4.07045">
        <ele>1055.2</ele>
        <time>2022-06-10T08:16:10Z</time>
      </trkpt>
      <trkpt lat="44.81125" lon="4.07046">
        <ele>1055.2</ele>
        <time>2022-06-10T08:16:11Z</time>
      </trkpt>
      <trkpt lat="44.81124" lon="4.07049">
        <ele>1055.3</ele>
        <time>2022-06-10T08:16:12Z</time>
      </trkpt>
      <trkpt lat="44.81122" lon="4.07053">
        <ele>1055.5</ele>
        <time>2022-06-10T08:16:13Z</time>
      </trkpt>
      <trkpt lat="44.81121" lon="4.07057">
        <ele>1055.6</ele>
        <time>2022-06-10T08:16:15Z</time>
      </trkpt>
      <trkpt lat="44.8112" lon="4.07059">
        <ele>1055.7</ele>
        <time>2022-06-10T08:16:16Z</time>
      </trkpt>
      <trkpt lat="44.81118" lon="4.07063">
        <ele>1055.9</ele>
        <time>2022-06-10T08:16:18Z</time>
      </trkpt>
      <trkpt lat="44.81118" lon="4.07064">
        <ele>1055.9</ele>
        <time>2022-06-10T08:16:19Z</time>
      </trkpt>
      <trkpt lat="44.81116" lon="4.07067">
        <ele>1056.1</ele>
        <time>2022-06-10T08:16:20Z</time>
      </trkpt>
      <trkpt lat="44.81115" lon="4.07068">
        <ele>1056.1</ele>
        <time>2022-06-10T08:16:21Z</time>
      </trkpt>
      <trkpt lat="44.81112" lon="4.07072">
        <ele>1056.3</ele>
        <time>2022-06-10T08:16:22Z</time>
      </trkpt>
      <trkpt lat="44.81111" lon="4.07074">
        <ele>1056.4</ele>
        <time>2022-06-10T08:16:23Z</time>
      </trkpt>
      <trkpt lat="44.81108" lon="4.07078">
        <ele>1056.7</ele>
        <time>2022-06-10T08:16:24Z</time>
      </trkpt>
      <trkpt lat="44.81107" lon="4.07081">
        <ele>1056.8</ele>
        <time>2022-06-10T08:16:25Z</time>
      </trkpt>
      <trkpt lat="44.81106" lon="4.07085">
        <ele>1056.9</ele>
        <time>2022-06-10T08:16:27Z</time>
      </trkpt>
      <trkpt lat="44.81106" lon="4.07088">
        <ele>1057.1</ele>
        <time>2022-06-10T08:16:28Z</time>
      </trkpt>
      <trkpt lat="44.81105" lon="4.07095">
        <ele>1057.3</ele>
        <time>2022-06-10T08:16:30Z</time>
      </trkpt>
      <trkpt lat="44.81104" lon="4.071">
        <ele>1057.6</ele>
        <time>2022-06-10T08:16:31Z</time>
      </trkpt>
      <trkpt lat="44.81104" lon="4.07102">
        <ele>1057.6</ele>
        <time>2022-06-10T08:16:32Z</time>
      </trkpt>
      <trkpt lat="44.81103" lon="4.07106">
        <ele>1057.8</ele>
        <time>2022-06-10T08:16:33Z</time>
      </trkpt>
      <trkpt lat="44.81103" lon="4.0711">
        <ele>1058</ele>
        <time>2022-06-10T08:16:34Z</time>
      </trkpt>
      <trkpt lat="44.81103" lon="4.07115">
        <ele>1058.2</ele>
        <time>2022-06-10T08:16:35Z</time>
      </trkpt>
      <trkpt lat="44.81103" lon="4.07117">
        <ele>1058.2</ele>
        <time>2022-06-10T08:16:36Z</time>
      </trkpt>
      <trkpt lat="44.81104" lon="4.07123">
        <ele>1058.4</ele>
        <time>2022-06-10T08:16:38Z</time>
      </trkpt>
      <trkpt lat="44.81107" lon="4.07126">
        <ele>1058.6</ele>
        <time>2022-06-10T08:16:39Z</time>
      </trkpt>
      <trkpt lat="44.81108" lon="4.07127">
        <ele>1058.7</ele>
        <time>2022-06-10T08:16:40Z</time>
      </trkpt>
      <trkpt lat="44.8111" lon="4.07131">
        <ele>1058.8</ele>
        <time>2022-06-10T08:16:41Z</time>
      </trkpt>
      <trkpt lat="44.81111" lon="4.07132">
        <ele>1058.9</ele>
        <time>2022-06-10T08:16:42Z</time>
      </trkpt>
      <trkpt lat="44.81112" lon="4.07139">
        <ele>1059.1</ele>
        <time>2022-06-10T08:16:43Z</time>
      </trkpt>
      <trkpt lat="44.81113" lon="4.07144">
        <ele>1059.3</ele>
        <time>2022-06-10T08:16:45Z</time>
      </trkpt>
      <trkpt lat="44.81114" lon="4.07145">
        <ele>1059.4</ele>
        <time>2022-06-10T08:16:46Z</time>
      </trkpt>
      <trkpt lat="44.81117" lon="4.07148">
        <ele>1059.5</ele>
        <time>2022-06-10T08:16:47Z</time>
      </trkpt>
      <trkpt lat="44.81118" lon="4.07149">
        <ele>1059.6</ele>
        <time>2022-06-10T08:16:48Z</time>
      </trkpt>
      <trkpt lat="44.81119" lon="4.07153">
        <ele>1059.8</ele>
        <time>2022-06-10T08:16:49Z</time>
      </trkpt>
      <trkpt lat="44.81119" lon="4.07155">
        <ele>1059.8</ele>
        <time>2022-06-10T08:16:50Z</time>
      </trkpt>
      <trkpt lat="44.8112" lon="4.07159">
        <ele>1060</ele>
        <time>2022-06-10T08:16:51Z</time>
      </trkpt>
      <trkpt lat="44.8112" lon="4.07161">
        <ele>1060.1</ele>
        <time>2022-06-10T08:16:52Z</time>
      </trkpt>
      <trkpt lat="44.8112" lon="4.07169">
        <ele>1060.4</ele>
        <time>2022-06-10T08:16:54Z</time>
      </trkpt>
      <trkpt lat="44.8112" lon="4.07174">
        <ele>1060.6</ele>
        <time>2022-06-10T08:16:55Z</time>
      </trkpt>
      <trkpt lat="44.81121" lon="4.07176">
        <ele>1060.7</ele>
        <time>2022-06-10T08:16:56Z</time>
      </trkpt>
      <trkpt lat="44.8112" lon="4.07181">
        <ele>1060.8</ele>
        <time>2022-06-10T08:16:57Z</time>
      </trkpt>
      <trkpt lat="44.8112" lon="4.07182">
        <ele>1060.9</ele>
        <time>2022-06-10T08:16:58Z</time>
      </trkpt>
      <trkpt lat="44.8112" lon="4.07187">
        <ele>1061.1</ele>
        <time>2022-06-10T08:16:59Z</time>
      </trkpt>
      <trkpt lat="44.8112" lon="4.07189">
        <ele>1061.2</ele>
        <time>2022-06-10T08:17:00Z</time>
      </trkpt>
      <trkpt lat="44.81119" lon="4.07195">
        <ele>1061.4</ele>
        <time>2022-06-10T08:17:01Z</time>
      </trkpt>
      <trkpt lat="44.81118" lon="4.072">
        <ele>1061.6</ele>
        <time>2022-06-10T08:17:03Z</time>
      </trkpt>
      <trkpt lat="44.81117" lon="4.07201">
        <ele>1061.7</ele>
        <time>2022-06-10T08:17:04Z</time>
      </trkpt>
      <trkpt lat="44.81116" lon="4.07205">
        <ele>1061.9</ele>
        <time>2022-06-10T08:17:05Z</time>
      </trkpt>
      <trkpt lat="44.81116" lon="4.07207">
        <ele>1061.9</ele>
        <time>2022-06-10T08:17:06Z</time>
      </trkpt>
      <trkpt lat="44.81115" lon="4.07212">
        <ele>1062.1</ele>
        <time>2022-06-10T08:17:07Z</time>
      </trkpt>
      <trkpt lat="44.81115" lon="4.07214">
        <ele>1062.2</ele>
        <time>2022-06-10T08:17:08Z</time>
      </trkpt>
      <trkpt lat="44.81114" lon="4.07218">
        <ele>1062.4</ele>
        <time>2022-06-10T08:17:09Z</time>
      </trkpt>
      <trkpt lat="44.81114" lon="4.07219">
        <ele>1062.4</ele>
        <time>2022-06-10T08:17:10Z</time>
      </trkpt>
      <trkpt lat="44.81113" lon="4.07221">
        <ele>1062.5</ele>
        <time>2022-06-10T08:17:11Z</time>
      </trkpt>
      <trkpt lat="44.81113" lon="4.07224">
        <ele>1062.7</ele>
        <time>2022-06-10T08:17:12Z</time>
      </trkpt>
      <trkpt lat="44.81113" lon="4.07228">
        <ele>1062.8</ele>
        <time>2022-06-10T08:17:13Z</time>
      </trkpt>
      <trkpt lat="44.81113" lon="4.07229">
        <ele>1062.9</ele>
        <time>2022-06-10T08:17:14Z</time>
      </trkpt>
      <trkpt lat="44.81112" lon="4.07233">
        <ele>1063.1</ele>
        <time>2022-06-10T08:17:15Z</time>
      </trkpt>
      <trkpt lat="44.81112" lon="4.07234">
        <ele>1063.1</ele>
        <time>2022-06-10T08:17:16Z</time>
      </trkpt>
      <trkpt lat="44.8111" lon="4.07239">
        <ele>1063.4</ele>
        <time>2022-06-10T08:17:18Z</time>
      </trkpt>
      <trkpt lat="44.81109" lon="4.07242">
        <ele>1063.5</ele>
        <time>2022-06-10T08:17:19Z</time>
      </trkpt>
      <trkpt lat="44.81107" lon="4.07249">
        <ele>1063.9</ele>
        <time>2022-06-10T08:17:21Z</time>
      </trkpt>
      <trkpt lat="44.81107" lon="4.07252">
        <ele>1064.1</ele>
        <time>2022-06-10T08:17:23Z</time>
      </trkpt>
      <trkpt lat="44.81107" lon="4.07254">
        <ele>1064.2</ele>
        <time>2022-06-10T08:17:24Z</time>
      </trkpt>
      <trkpt lat="44.81106" lon="4.07257">
        <ele>1064.3</ele>
        <time>2022-06-10T08:17:25Z</time>
      </trkpt>
      <trkpt lat="44.81106" lon="4.07261">
        <ele>1064.5</ele>
        <time>2022-06-10T08:17:26Z</time>
      </trkpt>
      <trkpt lat="44.81106" lon="4.07262">
        <ele>1064.6</ele>
        <time>2022-06-10T08:17:27Z</time>
      </trkpt>
      <trkpt lat="44.81105" lon="4.07264">
        <ele>1064.7</ele>
        <time>2022-06-10T08:17:28Z</time>
      </trkpt>
      <trkpt lat="44.81104" lon="4.07266">
        <ele>1064.8</ele>
        <time>2022-06-10T08:17:29Z</time>
      </trkpt>
      <trkpt lat="44.81103" lon="4.07269">
        <ele>1065.1</ele>
        <time>2022-06-10T08:17:30Z</time>
      </trkpt>
      <trkpt lat="44.81101" lon="4.07274">
        <ele>1065.3</ele>
        <time>2022-06-10T08:17:32Z</time>
      </trkpt>
      <trkpt lat="44.811" lon="4.07275">
        <ele>1065.4</ele>
        <time>2022-06-10T08:17:33Z</time>
      </trkpt>
      <trkpt lat="44.81099" lon="4.07279">
        <ele>1065.6</ele>
        <time>2022-06-10T08:17:34Z</time>
      </trkpt>
      <trkpt lat="44.81099" lon="4.07281">
        <ele>1065.7</ele>
        <time>2022-06-10T08:17:35Z</time>
      </trkpt>
      <trkpt lat="44.81098" lon="4.07284">
        <ele>1065.8</ele>
        <time>2022-06-10T08:17:36Z</time>
      </trkpt>
      <trkpt lat="44.81098" lon="4.07286">
        <ele>1065.9</ele>
        <time>2022-06-10T08:17:37Z</time>
      </trkpt>
      <trkpt lat="44.81097" lon="4.0729">
        <ele>1066.1</ele>
        <time>2022-06-10T08:17:39Z</time>
      </trkpt>
      <trkpt lat="44.81097" lon="4.07291">
        <ele>1066.2</ele>
        <time>2022-06-10T08:17:40Z</time>
      </trkpt>
      <trkpt lat="44.81096" lon="4.07296">
        <ele>1066.4</ele>
        <time>2022-06-10T08:17:41Z</time>
      </trkpt>
      <trkpt lat="44.81095" lon="4.07298">
        <ele>1066.5</ele>
        <time>2022-06-10T08:17:42Z</time>
      </trkpt>
      <trkpt lat="44.81095" lon="4.073">
        <ele>1066.6</ele>
        <time>2022-06-10T08:17:43Z</time>
      </trkpt>
      <trkpt lat="44.81094" lon="4.07303">
        <ele>1066.8</ele>
        <time>2022-06-10T08:17:45Z</time>
      </trkpt>
      <trkpt lat="44.81094" lon="4.07305">
        <ele>1066.9</ele>
        <time>2022-06-10T08:17:47Z</time>
      </trkpt>
      <trkpt lat="44.81094" lon="4.07308">
        <ele>1067.1</ele>
        <time>2022-06-10T08:17:48Z</time>
      </trkpt>
      <trkpt lat="44.81092" lon="4.07311">
        <ele>1067.3</ele>
        <time>2022-06-10T08:17:50Z</time>
      </trkpt>
      <trkpt lat="44.81091" lon="4.07314">
        <ele>1067.4</ele>
        <time>2022-06-10T08:17:51Z</time>
      </trkpt>
      <trkpt lat="44.81089" lon="4.07317">
        <ele>1067.7</ele>
        <time>2022-06-10T08:17:53Z</time>
      </trkpt>
      <trkpt lat="44.81087" lon="4.07319">
        <ele>1067.8</ele>
        <time>2022-06-10T08:17:54Z</time>
      </trkpt>
      <trkpt lat="44.81087" lon="4.0732">
        <ele>1067.9</ele>
        <time>2022-06-10T08:17:55Z</time>
      </trkpt>
      <trkpt lat="44.81086" lon="4.07322">
        <ele>1068</ele>
        <time>2022-06-10T08:17:56Z</time>
      </trkpt>
      <trkpt lat="44.81085" lon="4.07323">
        <ele>1068.1</ele>
        <time>2022-06-10T08:17:57Z</time>
      </trkpt>
      <trkpt lat="44.81082" lon="4.07326">
        <ele>1068.4</ele>
        <time>2022-06-10T08:17:59Z</time>
      </trkpt>
      <trkpt lat="44.81081" lon="4.07327">
        <ele>1068.5</ele>
        <time>2022-06-10T08:18:00Z</time>
      </trkpt>
      <trkpt lat="44.8108" lon="4.07329">
        <ele>1068.7</ele>
        <time>2022-06-10T08:18:01Z</time>
      </trkpt>
      <trkpt lat="44.81079" lon="4.0733">
        <ele>1068.8</ele>
        <time>2022-06-10T08:18:02Z</time>
      </trkpt>
      <trkpt lat="44.81078" lon="4.07332">
        <ele>1068.9</ele>
        <time>2022-06-10T08:18:03Z</time>
      </trkpt>
      <trkpt lat="44.81076" lon="4.07335">
        <ele>1069.1</ele>
        <time>2022-06-10T08:18:04Z</time>
      </trkpt>
      <trkpt lat="44.81076" lon="4.07335">
        <ele>1069.2</ele>
        <time>2022-06-10T08:18:05Z</time>
      </trkpt>
      <trkpt lat="44.81075" lon="4.07336">
        <ele>1069.2</ele>
        <time>2022-06-10T08:18:06Z</time>
      </trkpt>
      <trkpt lat="44.81074" lon="4.07337">
        <ele>1069.3</ele>
        <time>2022-06-10T08:18:07Z</time>
      </trkpt>
      <trkpt lat="44.81073" lon="4.07339">
        <ele>1069.5</ele>
        <time>2022-06-10T08:18:08Z</time>
      </trkpt>
      <trkpt lat="44.81071" lon="4.07343">
        <ele>1069.7</ele>
        <time>2022-06-10T08:18:10Z</time>
      </trkpt>
      <trkpt lat="44.8107" lon="4.07345">
        <ele>1069.9</ele>
        <time>2022-06-10T08:18:11Z</time>
      </trkpt>
      <trkpt lat="44.81069" lon="4.07347">
        <ele>1070</ele>
        <time>2022-06-10T08:18:13Z</time>
      </trkpt>
      <trkpt lat="44.81067" lon="4.0735">
        <ele>1070.3</ele>
        <time>2022-06-10T08:18:14Z</time>
      </trkpt>
      <trkpt lat="44.81065" lon="4.07353">
        <ele>1070.5</ele>
        <time>2022-06-10T08:18:16Z</time>
      </trkpt>
      <trkpt lat="44.81065" lon="4.07355">
        <ele>1070.6</ele>
        <time>2022-06-10T08:18:17Z</time>
      </trkpt>
      <trkpt lat="44.81063" lon="4.07358">
        <ele>1070.8</ele>
        <time>2022-06-10T08:18:19Z</time>
      </trkpt>
      <trkpt lat="44.81061" lon="4.07361">
        <ele>1071.1</ele>
        <time>2022-06-10T08:18:20Z</time>
      </trkpt>
      <trkpt lat="44.8106" lon="4.07364">
        <ele>1071.3</ele>
        <time>2022-06-10T08:18:22Z</time>
      </trkpt>
      <trkpt lat="44.81059" lon="4.07366">
        <ele>1071.4</ele>
        <time>2022-06-10T08:18:23Z</time>
      </trkpt>
      <trkpt lat="44.81058" lon="4.07369">
        <ele>1071.7</ele>
        <time>2022-06-10T08:18:25Z</time>
      </trkpt>
      <trkpt lat="44.81057" lon="4.0737">
        <ele>1071.7</ele>
        <time>2022-06-10T08:18:26Z</time>
      </trkpt>
      <trkpt lat="44.81057" lon="4.07372">
        <ele>1071.9</ele>
        <time>2022-06-10T08:18:27Z</time>
      </trkpt>
      <trkpt lat="44.81057" lon="4.07375">
        <ele>1072</ele>
        <time>2022-06-10T08:18:28Z</time>
      </trkpt>
      <trkpt lat="44.81055" lon="4.07379">
        <ele>1072.3</ele>
        <time>2022-06-10T08:18:29Z</time>
      </trkpt>
      <trkpt lat="44.81055" lon="4.0738">
        <ele>1072.3</ele>
        <time>2022-06-10T08:18:30Z</time>
      </trkpt>
      <trkpt lat="44.81054" lon="4.07384">
        <ele>1072.6</ele>
        <time>2022-06-10T08:18:32Z</time>
      </trkpt>
      <trkpt lat="44.81054" lon="4.07385">
        <ele>1072.6</ele>
        <time>2022-06-10T08:18:33Z</time>
      </trkpt>
      <trkpt lat="44.81052" lon="4.07389">
        <ele>1072.9</ele>
        <time>2022-06-10T08:18:35Z</time>
      </trkpt>
      <trkpt lat="44.81051" lon="4.07391">
        <ele>1073</ele>
        <time>2022-06-10T08:18:36Z</time>
      </trkpt>
      <trkpt lat="44.8105" lon="4.07393">
        <ele>1073.2</ele>
        <time>2022-06-10T08:18:37Z</time>
      </trkpt>
      <trkpt lat="44.8105" lon="4.07394">
        <ele>1073.3</ele>
        <time>2022-06-10T08:18:38Z</time>
      </trkpt>
      <trkpt lat="44.81049" lon="4.07396">
        <ele>1073.4</ele>
        <time>2022-06-10T08:18:39Z</time>
      </trkpt>
      <trkpt lat="44.81048" lon="4.07398">
        <ele>1073.6</ele>
        <time>2022-06-10T08:18:40Z</time>
      </trkpt>
      <trkpt lat="44.81047" lon="4.07402">
        <ele>1073.8</ele>
        <time>2022-06-10T08:18:41Z</time>
      </trkpt>
      <trkpt lat="44.81046" lon="4.07404">
        <ele>1073.9</ele>
        <time>2022-06-10T08:18:43Z</time>
      </trkpt>
      <trkpt lat="44.81046" lon="4.07406">
        <ele>1074.1</ele>
        <time>2022-06-10T08:18:44Z</time>
      </trkpt>
      <trkpt lat="44.81045" lon="4.07409">
        <ele>1074.2</ele>
        <time>2022-06-10T08:18:45Z</time>
      </trkpt>
      <trkpt lat="44.81044" lon="4.07413">
        <ele>1074.5</ele>
        <time>2022-06-10T08:18:47Z</time>
      </trkpt>
      <trkpt lat="44.81043" lon="4.07415">
        <ele>1074.6</ele>
        <time>2022-06-10T08:18:48Z</time>
      </trkpt>
      <trkpt lat="44.81043" lon="4.07417">
        <ele>1074.7</ele>
        <time>2022-06-10T08:18:49Z</time>
      </trkpt>
      <trkpt lat="44.81042" lon="4.07419">
        <ele>1074.8</ele>
        <time>2022-06-10T08:18:50Z</time>
      </trkpt>
      <trkpt lat="44.81042" lon="4.07421">
        <ele>1075</ele>
        <time>2022-06-10T08:18:51Z</time>
      </trkpt>
      <trkpt lat="44.81041" lon="4.07424">
        <ele>1075.1</ele>
        <time>2022-06-10T08:18:52Z</time>
      </trkpt>
      <trkpt lat="44.81041" lon="4.07426">
        <ele>1075.3</ele>
        <time>2022-06-10T08:18:53Z</time>
      </trkpt>
      <trkpt lat="44.81041" lon="4.07428">
        <ele>1075.4</ele>
        <time>2022-06-10T08:18:54Z</time>
      </trkpt>
      <trkpt lat="44.81041" lon="4.07431">
        <ele>1075.5</ele>
        <time>2022-06-10T08:18:55Z</time>
      </trkpt>
      <trkpt lat="44.8104" lon="4.07433">
        <ele>1075.6</ele>
        <time>2022-06-10T08:18:56Z</time>
      </trkpt>
      <trkpt lat="44.8104" lon="4.07435">
        <ele>1075.8</ele>
        <time>2022-06-10T08:18:57Z</time>
      </trkpt>
      <trkpt lat="44.8104" lon="4.07437">
        <ele>1075.9</ele>
        <time>2022-06-10T08:18:58Z</time>
      </trkpt>
      <trkpt lat="44.81039" lon="4.0744">
        <ele>1076</ele>
        <time>2022-06-10T08:18:59Z</time>
      </trkpt>
      <trkpt lat="44.81039" lon="4.07442">
        <ele>1076.2</ele>
        <time>2022-06-10T08:19:00Z</time>
      </trkpt>
      <trkpt lat="44.81039" lon="4.07444">
        <ele>1076.3</ele>
        <time>2022-06-10T08:19:01Z</time>
      </trkpt>
      <trkpt lat="44.81039" lon="4.07446">
        <ele>1076.4</ele>
        <time>2022-06-10T08:19:02Z</time>
      </trkpt>
      <trkpt lat="44.81039" lon="4.07448">
        <ele>1076.5</ele>
        <time>2022-06-10T08:19:03Z</time>
      </trkpt>
      <trkpt lat="44.81039" lon="4.07452">
        <ele>1076.8</ele>
        <time>2022-06-10T08:19:05Z</time>
      </trkpt>
      <trkpt lat="44.81038" lon="4.07455">
        <ele>1076.9</ele>
        <time>2022-06-10T08:19:06Z</time>
      </trkpt>
      <trkpt lat="44.81038" lon="4.07457">
        <ele>1077</ele>
        <time>2022-06-10T08:19:07Z</time>
      </trkpt>
      <trkpt lat="44.81038" lon="4.0746">
        <ele>1077.2</ele>
        <time>2022-06-10T08:19:08Z</time>
      </trkpt>
      <trkpt lat="44.81038" lon="4.07461">
        <ele>1077.3</ele>
        <time>2022-06-10T08:19:09Z</time>
      </trkpt>
      <trkpt lat="44.81037" lon="4.07462">
        <ele>1077.4</ele>
        <time>2022-06-10T08:19:10Z</time>
      </trkpt>
      <trkpt lat="44.81037" lon="4.07464">
        <ele>1077.5</ele>
        <time>2022-06-10T08:19:11Z</time>
      </trkpt>
      <trkpt lat="44.81037" lon="4.07467">
        <ele>1077.7</ele>
        <time>2022-06-10T08:19:12Z</time>
      </trkpt>
      <trkpt lat="44.81037" lon="4.07469">
        <ele>1077.8</ele>
        <time>2022-06-10T08:19:13Z</time>
      </trkpt>
      <trkpt lat="44.81037" lon="4.07471">
        <ele>1077.9</ele>
        <time>2022-06-10T08:19:14Z</time>
      </trkpt>
      <trkpt lat="44.81037" lon="4.07473">
        <ele>1078.1</ele>
        <time>2022-06-10T08:19:15Z</time>
      </trkpt>
      <trkpt lat="44.81037" lon="4.07476">
        <ele>1078.2</ele>
        <time>2022-06-10T08:19:16Z</time>
      </trkpt>
      <trkpt lat="44.81038" lon="4.0748">
        <ele>1078.5</ele>
        <time>2022-06-10T08:19:18Z</time>
      </trkpt>
      <trkpt lat="44.81038" lon="4.07481">
        <ele>1078.6</ele>
        <time>2022-06-10T08:19:19Z</time>
      </trkpt>
      <trkpt lat="44.81038" lon="4.07484">
        <ele>1078.8</ele>
        <time>2022-06-10T08:19:20Z</time>
      </trkpt>
      <trkpt lat="44.81038" lon="4.07486">
        <ele>1078.9</ele>
        <time>2022-06-10T08:19:21Z</time>
      </trkpt>
      <trkpt lat="44.81038" lon="4.07487">
        <ele>1079</ele>
        <time>2022-06-10T08:19:22Z</time>
      </trkpt>
      <trkpt lat="44.81038" lon="4.07489">
        <ele>1079.1</ele>
        <time>2022-06-10T08:19:23Z</time>
      </trkpt>
      <trkpt lat="44.81037" lon="4.07491">
        <ele>1079.2</ele>
        <time>2022-06-10T08:19:24Z</time>
      </trkpt>
      <trkpt lat="44.81038" lon="4.07493">
        <ele>1079.3</ele>
        <time>2022-06-10T08:19:25Z</time>
      </trkpt>
      <trkpt lat="44.81037" lon="4.07495">
        <ele>1079.5</ele>
        <time>2022-06-10T08:19:26Z</time>
      </trkpt>
      <trkpt lat="44.81037" lon="4.07497">
        <ele>1079.6</ele>
        <time>2022-06-10T08:19:27Z</time>
      </trkpt>
      <trkpt lat="44.81037" lon="4.07499">
        <ele>1079.7</ele>
        <time>2022-06-10T08:19:28Z</time>
      </trkpt>
      <trkpt lat="44.81037" lon="4.07506">
        <ele>1080.1</ele>
        <time>2022-06-10T08:19:30Z</time>
      </trkpt>
      <trkpt lat="44.81038" lon="4.07507">
        <ele>1080.2</ele>
        <time>2022-06-10T08:19:31Z</time>
      </trkpt>
      <trkpt lat="44.81038" lon="4.07509">
        <ele>1080.3</ele>
        <time>2022-06-10T08:19:32Z</time>
      </trkpt>
      <trkpt lat="44.81039" lon="4.07511">
        <ele>1080.4</ele>
        <time>2022-06-10T08:19:33Z</time>
      </trkpt>
      <trkpt lat="44.8104" lon="4.07512">
        <ele>1080.6</ele>
        <time>2022-06-10T08:19:35Z</time>
      </trkpt>
      <trkpt lat="44.81041" lon="4.07513">
        <ele>1080.7</ele>
        <time>2022-06-10T08:19:36Z</time>
      </trkpt>
      <trkpt lat="44.81041" lon="4.07512">
        <ele>1080.7</ele>
        <time>2022-06-10T08:19:37Z</time>
      </trkpt>
      <trkpt lat="44.81042" lon="4.07512">
        <ele>1080.8</ele>
        <time>2022-06-10T08:19:38Z</time>
      </trkpt>
      <trkpt lat="44.81041" lon="4.07511">
        <ele>1080.8</ele>
        <time>2022-06-10T08:19:39Z</time>
      </trkpt>
      <trkpt lat="44.81041" lon="4.07511">
        <ele>1080.9</ele>
        <time>2022-06-10T08:19:40Z</time>
      </trkpt>
      <trkpt lat="44.81041" lon="4.0751">
        <ele>1080.9</ele>
        <time>2022-06-10T08:19:41Z</time>
      </trkpt>
      <trkpt lat="44.81041" lon="4.0751">
        <ele>1080.9</ele>
        <time>2022-06-10T08:19:42Z</time>
      </trkpt>
      <trkpt lat="44.81041" lon="4.07509">
        <ele>1081</ele>
        <time>2022-06-10T08:19:44Z</time>
      </trkpt>
      <trkpt lat="44.81041" lon="4.07508">
        <ele>1081</ele>
        <time>2022-06-10T08:19:45Z</time>
      </trkpt>
      <trkpt lat="44.81041" lon="4.07507">
        <ele>1081.1</ele>
        <time>2022-06-10T08:19:46Z</time>
      </trkpt>
      <trkpt lat="44.81041" lon="4.07507">
        <ele>1081.1</ele>
        <time>2022-06-10T08:19:47Z</time>
      </trkpt>
      <trkpt lat="44.81041" lon="4.07507">
        <ele>1081.1</ele>
        <time>2022-06-10T08:19:48Z</time>
      </trkpt>
      <trkpt lat="44.81041" lon="4.07507">
        <ele>1081.1</ele>
        <time>2022-06-10T08:19:49Z</time>
      </trkpt>
      <trkpt lat="44.81041" lon="4.07506">
        <ele>1081.2</ele>
        <time>2022-06-10T08:19:50Z</time>
      </trkpt>
      <trkpt lat="44.81041" lon="4.07506">
        <ele>1081.2</ele>
        <time>2022-06-10T08:19:51Z</time>
      </trkpt>
      <trkpt lat="44.81041" lon="4.07505">
        <ele>1081.2</ele>
        <time>2022-06-10T08:19:52Z</time>
      </trkpt>
      <trkpt lat="44.81041" lon="4.07505">
        <ele>1081.2</ele>
        <time>2022-06-10T08:19:53Z</time>
      </trkpt>
      <trkpt lat="44.81041" lon="4.07505">
        <ele>1081.2</ele>
        <time>2022-06-10T08:19:54Z</time>
      </trkpt>
      <trkpt lat="44.81041" lon="4.07505">
        <ele>1081.2</ele>
        <time>2022-06-10T08:19:55Z</time>
      </trkpt>
      <trkpt lat="44.81042" lon="4.07505">
        <ele>1081.3</ele>
        <time>2022-06-10T08:19:56Z</time>
      </trkpt>
      <trkpt lat="44.81042" lon="4.07505">
        <ele>1081.3</ele>
        <time>2022-06-10T08:19:57Z</time>
      </trkpt>
      <trkpt lat="44.81042" lon="4.07505">
        <ele>1081.3</ele>
        <time>2022-06-10T08:19:58Z</time>
      </trkpt>
      <trkpt lat="44.81042" lon="4.07505">
        <ele>1081.3</ele>
        <time>2022-06-10T08:19:59Z</time>
      </trkpt>
      <trkpt lat="44.81042" lon="4.07505">
        <ele>1081.3</ele>
        <time>2022-06-10T08:20:00Z</time>
      </trkpt>
      <trkpt lat="44.8104" lon="4.07504">
        <ele>1081.4</ele>
        <time>2022-06-10T08:21:21Z</time>
      </trkpt>
      <trkpt lat="44.81039" lon="4.07502">
        <ele>1081.6</ele>
        <time>2022-06-10T08:21:22Z</time>
      </trkpt>
      <trkpt lat="44.81038" lon="4.07502">
        <ele>1081.7</ele>
        <time>2022-06-10T08:21:23Z</time>
      </trkpt>
      <trkpt lat="44.81037" lon="4.07502">
        <ele>1081.8</ele>
        <time>2022-06-10T08:21:24Z</time>
      </trkpt>
      <trkpt lat="44.81036" lon="4.07504">
        <ele>1082</ele>
        <time>2022-06-10T08:21:25Z</time>
      </trkpt>
      <trkpt lat="44.81036" lon="4.07507">
        <ele>1082.1</ele>
        <time>2022-06-10T08:21:26Z</time>
      </trkpt>
      <trkpt lat="44.81036" lon="4.0751">
        <ele>1082.3</ele>
        <time>2022-06-10T08:21:27Z</time>
      </trkpt>
      <trkpt lat="44.81036" lon="4.07511">
        <ele>1082.4</ele>
        <time>2022-06-10T08:21:28Z</time>
      </trkpt>
      <trkpt lat="44.81037" lon="4.07514">
        <ele>1082.6</ele>
        <time>2022-06-10T08:21:29Z</time>
      </trkpt>
      <trkpt lat="44.81037" lon="4.07516">
        <ele>1082.7</ele>
        <time>2022-06-10T08:21:30Z</time>
      </trkpt>
      <trkpt lat="44.81037" lon="4.07517">
        <ele>1082.8</ele>
        <time>2022-06-10T08:21:31Z</time>
      </trkpt>
      <trkpt lat="44.81037" lon="4.07524">
        <ele>1083.3</ele>
        <time>2022-06-10T08:21:33Z</time>
      </trkpt>
      <trkpt lat="44.81037" lon="4.07526">
        <ele>1083.4</ele>
        <time>2022-06-10T08:21:34Z</time>
      </trkpt>
      <trkpt lat="44.81036" lon="4.07529">
        <ele>1083.6</ele>
        <time>2022-06-10T08:21:35Z</time>
      </trkpt>
      <trkpt lat="44.81036" lon="4.07531">
        <ele>1083.8</ele>
        <time>2022-06-10T08:21:36Z</time>
      </trkpt>
      <trkpt lat="44.81035" lon="4.07536">
        <ele>1084.1</ele>
        <time>2022-06-10T08:21:38Z</time>
      </trkpt>
      <trkpt lat="44.81035" lon="4.07538">
        <ele>1084.3</ele>
        <time>2022-06-10T08:21:39Z</time>
      </trkpt>
      <trkpt lat="44.81035" lon="4.0754">
        <ele>1084.4</ele>
        <time>2022-06-10T08:21:40Z</time>
      </trkpt>
      <trkpt lat="44.81035" lon="4.07542">
        <ele>1084.6</ele>
        <time>2022-06-10T08:21:41Z</time>
      </trkpt>
      <trkpt lat="44.81034" lon="4.07547">
        <ele>1084.9</ele>
        <time>2022-06-10T08:21:42Z</time>
      </trkpt>
      <trkpt lat="44.81034" lon="4.07549">
        <ele>1085</ele>
        <time>2022-06-10T08:21:44Z</time>
      </trkpt>
      <trkpt lat="44.81033" lon="4.07551">
        <ele>1085.2</ele>
        <time>2022-06-10T08:21:45Z</time>
      </trkpt>
      <trkpt lat="44.81033" lon="4.07553">
        <ele>1085.3</ele>
        <time>2022-06-10T08:21:46Z</time>
      </trkpt>
      <trkpt lat="44.81033" lon="4.07555">
        <ele>1085.5</ele>
        <time>2022-06-10T08:21:47Z</time>
      </trkpt>
      <trkpt lat="44.81032" lon="4.07558">
        <ele>1085.7</ele>
        <time>2022-06-10T08:21:48Z</time>
      </trkpt>
      <trkpt lat="44.81032" lon="4.0756">
        <ele>1085.8</ele>
        <time>2022-06-10T08:21:49Z</time>
      </trkpt>
      <trkpt lat="44.81032" lon="4.07562">
        <ele>1085.9</ele>
        <time>2022-06-10T08:21:50Z</time>
      </trkpt>
      <trkpt lat="44.8103" lon="4.07565">
        <ele>1086.2</ele>
        <time>2022-06-10T08:21:51Z</time>
      </trkpt>
      <trkpt lat="44.8103" lon="4.07566">
        <ele>1086.3</ele>
        <time>2022-06-10T08:21:52Z</time>
      </trkpt>
      <trkpt lat="44.81029" lon="4.07568">
        <ele>1086.4</ele>
        <time>2022-06-10T08:21:53Z</time>
      </trkpt>
      <trkpt lat="44.81029" lon="4.0757">
        <ele>1086.5</ele>
        <time>2022-06-10T08:21:54Z</time>
      </trkpt>
      <trkpt lat="44.81029" lon="4.07572">
        <ele>1086.7</ele>
        <time>2022-06-10T08:21:55Z</time>
      </trkpt>
      <trkpt lat="44.81028" lon="4.07574">
        <ele>1086.8</ele>
        <time>2022-06-10T08:21:56Z</time>
      </trkpt>
      <trkpt lat="44.81028" lon="4.07576">
        <ele>1086.9</ele>
        <time>2022-06-10T08:21:57Z</time>
      </trkpt>
      <trkpt lat="44.81028" lon="4.07581">
        <ele>1087.2</ele>
        <time>2022-06-10T08:21:59Z</time>
      </trkpt>
      <trkpt lat="44.81027" lon="4.07583">
        <ele>1087.3</ele>
        <time>2022-06-10T08:22:00Z</time>
      </trkpt>
      <trkpt lat="44.81027" lon="4.07585">
        <ele>1087.5</ele>
        <time>2022-06-10T08:22:01Z</time>
      </trkpt>
      <trkpt lat="44.81027" lon="4.07587">
        <ele>1087.6</ele>
        <time>2022-06-10T08:22:02Z</time>
      </trkpt>
      <trkpt lat="44.81026" lon="4.0759">
        <ele>1087.7</ele>
        <time>2022-06-10T08:22:03Z</time>
      </trkpt>
      <trkpt lat="44.81026" lon="4.07592">
        <ele>1087.8</ele>
        <time>2022-06-10T08:22:04Z</time>
      </trkpt>
      <trkpt lat="44.81026" lon="4.07594">
        <ele>1088</ele>
        <time>2022-06-10T08:22:05Z</time>
      </trkpt>
      <trkpt lat="44.81025" lon="4.07595">
        <ele>1088</ele>
        <time>2022-06-10T08:22:06Z</time>
      </trkpt>
      <trkpt lat="44.81025" lon="4.07594">
        <ele>1088.1</ele>
        <time>2022-06-10T08:22:07Z</time>
      </trkpt>
      <trkpt lat="44.81025" lon="4.07594">
        <ele>1088.1</ele>
        <time>2022-06-10T08:22:08Z</time>
      </trkpt>
      <trkpt lat="44.81025" lon="4.07594">
        <ele>1088.1</ele>
        <time>2022-06-10T08:22:09Z</time>
      </trkpt>
      <trkpt lat="44.81025" lon="4.07594">
        <ele>1088.1</ele>
        <time>2022-06-10T08:22:10Z</time>
      </trkpt>
      <trkpt lat="44.81025" lon="4.07594">
        <ele>1088.1</ele>
        <time>2022-06-10T08:22:11Z</time>
      </trkpt>
      <trkpt lat="44.81025" lon="4.07594">
        <ele>1088.1</ele>
        <time>2022-06-10T08:22:12Z</time>
      </trkpt>
      <trkpt lat="44.81025" lon="4.07594">
        <ele>1088.1</ele>
        <time>2022-06-10T08:22:13Z</time>
      </trkpt>
      <trkpt lat="44.81025" lon="4.07595">
        <ele>1088.2</ele>
        <time>2022-06-10T08:22:14Z</time>
      </trkpt>
      <trkpt lat="44.81025" lon="4.07594">
        <ele>1088.2</ele>
        <time>2022-06-10T08:22:15Z</time>
      </trkpt>
      <trkpt lat="44.81025" lon="4.07594">
        <ele>1088.2</ele>
        <time>2022-06-10T08:22:16Z</time>
      </trkpt>
      <trkpt lat="44.81025" lon="4.07594">
        <ele>1088.2</ele>
        <time>2022-06-10T08:22:17Z</time>
      </trkpt>
      <trkpt lat="44.81025" lon="4.07594">
        <ele>1088.2</ele>
        <time>2022-06-10T08:22:18Z</time>
      </trkpt>
      <trkpt lat="44.81025" lon="4.07594">
        <ele>1088.2</ele>
        <time>2022-06-10T08:22:19Z</time>
      </trkpt>
      <trkpt lat="44.81025" lon="4.07594">
        <ele>1088.2</ele>
        <time>2022-06-10T08:22:20Z</time>
      </trkpt>
      <trkpt lat="44.81025" lon="4.07594">
        <ele>1088.2</ele>
        <time>2022-06-10T08:22:21Z</time>
      </trkpt>
      <trkpt lat="44.81025" lon="4.07594">
        <ele>1088.2</ele>
        <time>2022-06-10T08:22:22Z</time>
      </trkpt>
      <trkpt lat="44.81025" lon="4.07594">
        <ele>1088.2</ele>
        <time>2022-06-10T08:22:23Z</time>
      </trkpt>
      <trkpt lat="44.81025" lon="4.07594">
        <ele>1088.2</ele>
        <time>2022-06-10T08:22:24Z</time>
      </trkpt>
      <trkpt lat="44.81025" lon="4.07598">
        <ele>1088.4</ele>
        <time>2022-06-10T08:23:10Z</time>
      </trkpt>
      <trkpt lat="44.81025" lon="4.076">
        <ele>1088.5</ele>
        <time>2022-06-10T08:23:11Z</time>
      </trkpt>
      <trkpt lat="44.81025" lon="4.07602">
        <ele>1088.6</ele>
        <time>2022-06-10T08:23:12Z</time>
      </trkpt>
      <trkpt lat="44.81025" lon="4.07603">
        <ele>1088.7</ele>
        <time>2022-06-10T08:23:13Z</time>
      </trkpt>
      <trkpt lat="44.81024" lon="4.07606">
        <ele>1088.8</ele>
        <time>2022-06-10T08:23:14Z</time>
      </trkpt>
      <trkpt lat="44.81023" lon="4.07611">
        <ele>1089.1</ele>
        <time>2022-06-10T08:23:15Z</time>
      </trkpt>
      <trkpt lat="44.81022" lon="4.07613">
        <ele>1089.2</ele>
        <time>2022-06-10T08:23:16Z</time>
      </trkpt>
      <trkpt lat="44.81021" lon="4.07616">
        <ele>1089.4</ele>
        <time>2022-06-10T08:23:18Z</time>
      </trkpt>
      <trkpt lat="44.8102" lon="4.07619">
        <ele>1089.5</ele>
        <time>2022-06-10T08:23:19Z</time>
      </trkpt>
      <trkpt lat="44.8102" lon="4.0762">
        <ele>1089.6</ele>
        <time>2022-06-10T08:23:20Z</time>
      </trkpt>
      <trkpt lat="44.81019" lon="4.07626">
        <ele>1089.8</ele>
        <time>2022-06-10T08:23:22Z</time>
      </trkpt>
      <trkpt lat="44.81018" lon="4.0763">
        <ele>1090</ele>
        <time>2022-06-10T08:23:23Z</time>
      </trkpt>
      <trkpt lat="44.81018" lon="4.07632">
        <ele>1090</ele>
        <time>2022-06-10T08:23:24Z</time>
      </trkpt>
      <trkpt lat="44.81018" lon="4.07635">
        <ele>1090.1</ele>
        <time>2022-06-10T08:23:25Z</time>
      </trkpt>
      <trkpt lat="44.81018" lon="4.07642">
        <ele>1090.4</ele>
        <time>2022-06-10T08:23:27Z</time>
      </trkpt>
      <trkpt lat="44.81018" lon="4.07644">
        <ele>1090.5</ele>
        <time>2022-06-10T08:23:28Z</time>
      </trkpt>
      <trkpt lat="44.81016" lon="4.07649">
        <ele>1090.5</ele>
        <time>2022-06-10T08:23:30Z</time>
      </trkpt>
      <trkpt lat="44.81014" lon="4.07654">
        <ele>1090.3</ele>
        <time>2022-06-10T08:23:32Z</time>
      </trkpt>
      <trkpt lat="44.81013" lon="4.07655">
        <ele>1090.3</ele>
        <time>2022-06-10T08:23:33Z</time>
      </trkpt>
      <trkpt lat="44.81011" lon="4.0766">
        <ele>1090.1</ele>
        <time>2022-06-10T08:23:34Z</time>
      </trkpt>
      <trkpt lat="44.8101" lon="4.07665">
        <ele>1089.9</ele>
        <time>2022-06-10T08:23:35Z</time>
      </trkpt>
      <trkpt lat="44.81008" lon="4.07669">
        <ele>1089.7</ele>
        <time>2022-06-10T08:23:37Z</time>
      </trkpt>
      <trkpt lat="44.81007" lon="4.07673">
        <ele>1089.5</ele>
        <time>2022-06-10T08:23:38Z</time>
      </trkpt>
      <trkpt lat="44.81005" lon="4.07679">
        <ele>1089.1</ele>
        <time>2022-06-10T08:23:39Z</time>
      </trkpt>
      <trkpt lat="44.81003" lon="4.07687">
        <ele>1088.6</ele>
        <time>2022-06-10T08:23:40Z</time>
      </trkpt>
      <trkpt lat="44.80999" lon="4.07694">
        <ele>1087.9</ele>
        <time>2022-06-10T08:23:42Z</time>
      </trkpt>
      <trkpt lat="44.80996" lon="4.07702">
        <ele>1087.3</ele>
        <time>2022-06-10T08:23:43Z</time>
      </trkpt>
      <trkpt lat="44.80992" lon="4.07709">
        <ele>1086.6</ele>
        <time>2022-06-10T08:23:44Z</time>
      </trkpt>
      <trkpt lat="44.80989" lon="4.07719">
        <ele>1085.7</ele>
        <time>2022-06-10T08:23:45Z</time>
      </trkpt>
      <trkpt lat="44.80987" lon="4.07729">
        <ele>1084.8</ele>
        <time>2022-06-10T08:23:46Z</time>
      </trkpt>
      <trkpt lat="44.80986" lon="4.07742">
        <ele>1083.8</ele>
        <time>2022-06-10T08:23:47Z</time>
      </trkpt>
      <trkpt lat="44.80986" lon="4.07755">
        <ele>1082.7</ele>
        <time>2022-06-10T08:23:48Z</time>
      </trkpt>
      <trkpt lat="44.80986" lon="4.07768">
        <ele>1081.6</ele>
        <time>2022-06-10T08:23:49Z</time>
      </trkpt>
      <trkpt lat="44.80985" lon="4.07782">
        <ele>1080.4</ele>
        <time>2022-06-10T08:23:50Z</time>
      </trkpt>
      <trkpt lat="44.80985" lon="4.07797">
        <ele>1079.2</ele>
        <time>2022-06-10T08:23:51Z</time>
      </trkpt>
      <trkpt lat="44.80985" lon="4.07813">
        <ele>1078</ele>
        <time>2022-06-10T08:23:52Z</time>
      </trkpt>
      <trkpt lat="44.80985" lon="4.07829">
        <ele>1076.7</ele>
        <time>2022-06-10T08:23:53Z</time>
      </trkpt>
      <trkpt lat="44.80987" lon="4.07844">
        <ele>1075.4</ele>
        <time>2022-06-10T08:23:54Z</time>
      </trkpt>
      <trkpt lat="44.80989" lon="4.07859">
        <ele>1074.2</ele>
        <time>2022-06-10T08:23:55Z</time>
      </trkpt>
      <trkpt lat="44.80991" lon="4.07872">
        <ele>1073</ele>
        <time>2022-06-10T08:23:56Z</time>
      </trkpt>
      <trkpt lat="44.80995" lon="4.07884">
        <ele>1072</ele>
        <time>2022-06-10T08:23:57Z</time>
      </trkpt>
      <trkpt lat="44.81001" lon="4.07895">
        <ele>1070.8</ele>
        <time>2022-06-10T08:23:58Z</time>
      </trkpt>
      <trkpt lat="44.8101" lon="4.07903">
        <ele>1069.6</ele>
        <time>2022-06-10T08:23:59Z</time>
      </trkpt>
      <trkpt lat="44.8102" lon="4.07908">
        <ele>1068.2</ele>
        <time>2022-06-10T08:24:00Z</time>
      </trkpt>
      <trkpt lat="44.8103" lon="4.07914">
        <ele>1066.9</ele>
        <time>2022-06-10T08:24:01Z</time>
      </trkpt>
      <trkpt lat="44.81039" lon="4.07922">
        <ele>1065.7</ele>
        <time>2022-06-10T08:24:02Z</time>
      </trkpt>
      <trkpt lat="44.81049" lon="4.07932">
        <ele>1064.5</ele>
        <time>2022-06-10T08:24:03Z</time>
      </trkpt>
      <trkpt lat="44.81058" lon="4.07942">
        <ele>1063.5</ele>
        <time>2022-06-10T08:24:04Z</time>
      </trkpt>
      <trkpt lat="44.81066" lon="4.07953">
        <ele>1062.7</ele>
        <time>2022-06-10T08:24:05Z</time>
      </trkpt>
      <trkpt lat="44.81073" lon="4.07964">
        <ele>1062.1</ele>
        <time>2022-06-10T08:24:06Z</time>
      </trkpt>
      <trkpt lat="44.81077" lon="4.07978">
        <ele>1061.7</ele>
        <time>2022-06-10T08:24:07Z</time>
      </trkpt>
      <trkpt lat="44.81079" lon="4.07993">
        <ele>1061.3</ele>
        <time>2022-06-10T08:24:08Z</time>
      </trkpt>
      <trkpt lat="44.81077" lon="4.08006">
        <ele>1061</ele>
        <time>2022-06-10T08:24:09Z</time>
      </trkpt>
      <trkpt lat="44.81074" lon="4.0802">
        <ele>1060.7</ele>
        <time>2022-06-10T08:24:10Z</time>
      </trkpt>
      <trkpt lat="44.81072" lon="4.08034">
        <ele>1060.3</ele>
        <time>2022-06-10T08:24:11Z</time>
      </trkpt>
      <trkpt lat="44.81069" lon="4.08047">
        <ele>1060</ele>
        <time>2022-06-10T08:24:12Z</time>
      </trkpt>
      <trkpt lat="44.81066" lon="4.0806">
        <ele>1059.7</ele>
        <time>2022-06-10T08:24:13Z</time>
      </trkpt>
      <trkpt lat="44.81063" lon="4.08073">
        <ele>1059.4</ele>
        <time>2022-06-10T08:24:14Z</time>
      </trkpt>
      <trkpt lat="44.8106" lon="4.08086">
        <ele>1059.1</ele>
        <time>2022-06-10T08:24:15Z</time>
      </trkpt>
      <trkpt lat="44.81057" lon="4.08099">
        <ele>1058.8</ele>
        <time>2022-06-10T08:24:16Z</time>
      </trkpt>
      <trkpt lat="44.81054" lon="4.08111">
        <ele>1058.6</ele>
        <time>2022-06-10T08:24:17Z</time>
      </trkpt>
      <trkpt lat="44.81051" lon="4.08124">
        <ele>1058.5</ele>
        <time>2022-06-10T08:24:18Z</time>
      </trkpt>
      <trkpt lat="44.81051" lon="4.08137">
        <ele>1058.3</ele>
        <time>2022-06-10T08:24:19Z</time>
      </trkpt>
      <trkpt lat="44.81052" lon="4.08151">
        <ele>1058.2</ele>
        <time>2022-06-10T08:24:20Z</time>
      </trkpt>
      <trkpt lat="44.81055" lon="4.08164">
        <ele>1058.1</ele>
        <time>2022-06-10T08:24:21Z</time>
      </trkpt>
      <trkpt lat="44.8106" lon="4.08176">
        <ele>1058</ele>
        <time>2022-06-10T08:24:22Z</time>
      </trkpt>
      <trkpt lat="44.81065" lon="4.08187">
        <ele>1058</ele>
        <time>2022-06-10T08:24:23Z</time>
      </trkpt>
      <trkpt lat="44.8107" lon="4.08197">
        <ele>1058</ele>
        <time>2022-06-10T08:24:24Z</time>
      </trkpt>
      <trkpt lat="44.81074" lon="4.08208">
        <ele>1058</ele>
        <time>2022-06-10T08:24:25Z</time>
      </trkpt>
      <trkpt lat="44.81079" lon="4.08217">
        <ele>1058</ele>
        <time>2022-06-10T08:24:26Z</time>
      </trkpt>
      <trkpt lat="44.81084" lon="4.08227">
        <ele>1058.1</ele>
        <time>2022-06-10T08:24:27Z</time>
      </trkpt>
      <trkpt lat="44.81089" lon="4.08235">
        <ele>1058.1</ele>
        <time>2022-06-10T08:24:28Z</time>
      </trkpt>
      <trkpt lat="44.81094" lon="4.08244">
        <ele>1058.2</ele>
        <time>2022-06-10T08:24:29Z</time>
      </trkpt>
      <trkpt lat="44.81097" lon="4.08253">
        <ele>1058.3</ele>
        <time>2022-06-10T08:24:30Z</time>
      </trkpt>
      <trkpt lat="44.811" lon="4.08262">
        <ele>1058.3</ele>
        <time>2022-06-10T08:24:31Z</time>
      </trkpt>
      <trkpt lat="44.81102" lon="4.08272">
        <ele>1058.4</ele>
        <time>2022-06-10T08:24:32Z</time>
      </trkpt>
      <trkpt lat="44.81104" lon="4.08281">
        <ele>1058.4</ele>
        <time>2022-06-10T08:24:33Z</time>
      </trkpt>
      <trkpt lat="44.81105" lon="4.08291">
        <ele>1058.5</ele>
        <time>2022-06-10T08:24:34Z</time>
      </trkpt>
      <trkpt lat="44.81107" lon="4.083">
        <ele>1058.6</ele>
        <time>2022-06-10T08:24:35Z</time>
      </trkpt>
      <trkpt lat="44.81108" lon="4.08309">
        <ele>1058.7</ele>
        <time>2022-06-10T08:24:36Z</time>
      </trkpt>
      <trkpt lat="44.81109" lon="4.08318">
        <ele>1058.8</ele>
        <time>2022-06-10T08:24:37Z</time>
      </trkpt>
      <trkpt lat="44.81109" lon="4.08327">
        <ele>1059</ele>
        <time>2022-06-10T08:24:38Z</time>
      </trkpt>
      <trkpt lat="44.81108" lon="4.08336">
        <ele>1059.1</ele>
        <time>2022-06-10T08:24:39Z</time>
      </trkpt>
      <trkpt lat="44.81105" lon="4.08344">
        <ele>1059.3</ele>
        <time>2022-06-10T08:24:40Z</time>
      </trkpt>
      <trkpt lat="44.81101" lon="4.0835">
        <ele>1059.5</ele>
        <time>2022-06-10T08:24:41Z</time>
      </trkpt>
      <trkpt lat="44.81095" lon="4.08354">
        <ele>1059.7</ele>
        <time>2022-06-10T08:24:42Z</time>
      </trkpt>
      <trkpt lat="44.8109" lon="4.08355">
        <ele>1059.9</ele>
        <time>2022-06-10T08:24:43Z</time>
      </trkpt>
      <trkpt lat="44.81084" lon="4.08355">
        <ele>1060.1</ele>
        <time>2022-06-10T08:24:44Z</time>
      </trkpt>
      <trkpt lat="44.81079" lon="4.08354">
        <ele>1060.2</ele>
        <time>2022-06-10T08:24:45Z</time>
      </trkpt>
      <trkpt lat="44.81074" lon="4.08355">
        <ele>1060.4</ele>
        <time>2022-06-10T08:24:46Z</time>
      </trkpt>
      <trkpt lat="44.81069" lon="4.08357">
        <ele>1060.6</ele>
        <time>2022-06-10T08:24:47Z</time>
      </trkpt>
      <trkpt lat="44.81064" lon="4.08358">
        <ele>1060.7</ele>
        <time>2022-06-10T08:24:48Z</time>
      </trkpt>
      <trkpt lat="44.8106" lon="4.08361">
        <ele>1060.8</ele>
        <time>2022-06-10T08:24:49Z</time>
      </trkpt>
      <trkpt lat="44.81056" lon="4.08364">
        <ele>1060.9</ele>
        <time>2022-06-10T08:24:50Z</time>
      </trkpt>
      <trkpt lat="44.81051" lon="4.08367">
        <ele>1060.9</ele>
        <time>2022-06-10T08:24:51Z</time>
      </trkpt>
      <trkpt lat="44.81047" lon="4.08371">
        <ele>1061</ele>
        <time>2022-06-10T08:24:52Z</time>
      </trkpt>
      <trkpt lat="44.81042" lon="4.08375">
        <ele>1061</ele>
        <time>2022-06-10T08:24:53Z</time>
      </trkpt>
      <trkpt lat="44.81038" lon="4.08379">
        <ele>1061</ele>
        <time>2022-06-10T08:24:54Z</time>
      </trkpt>
      <trkpt lat="44.81034" lon="4.08385">
        <ele>1060.9</ele>
        <time>2022-06-10T08:24:55Z</time>
      </trkpt>
      <trkpt lat="44.81031" lon="4.0839">
        <ele>1060.9</ele>
        <time>2022-06-10T08:24:56Z</time>
      </trkpt>
      <trkpt lat="44.81027" lon="4.08396">
        <ele>1060.9</ele>
        <time>2022-06-10T08:24:57Z</time>
      </trkpt>
      <trkpt lat="44.81024" lon="4.08403">
        <ele>1060.8</ele>
        <time>2022-06-10T08:24:58Z</time>
      </trkpt>
      <trkpt lat="44.81022" lon="4.08411">
        <ele>1060.7</ele>
        <time>2022-06-10T08:24:59Z</time>
      </trkpt>
      <trkpt lat="44.81019" lon="4.08418">
        <ele>1060.7</ele>
        <time>2022-06-10T08:25:00Z</time>
      </trkpt>
      <trkpt lat="44.81016" lon="4.08425">
        <ele>1060.6</ele>
        <time>2022-06-10T08:25:01Z</time>
      </trkpt>
      <trkpt lat="44.81012" lon="4.08433">
        <ele>1060.6</ele>
        <time>2022-06-10T08:25:02Z</time>
      </trkpt>
      <trkpt lat="44.81008" lon="4.08439">
        <ele>1060.5</ele>
        <time>2022-06-10T08:25:03Z</time>
      </trkpt>
      <trkpt lat="44.81004" lon="4.08446">
        <ele>1060.5</ele>
        <time>2022-06-10T08:25:04Z</time>
      </trkpt>
      <trkpt lat="44.80998" lon="4.08451">
        <ele>1060.4</ele>
        <time>2022-06-10T08:25:05Z</time>
      </trkpt>
      <trkpt lat="44.80993" lon="4.08455">
        <ele>1060.3</ele>
        <time>2022-06-10T08:25:06Z</time>
      </trkpt>
      <trkpt lat="44.80987" lon="4.08457">
        <ele>1060.2</ele>
        <time>2022-06-10T08:25:07Z</time>
      </trkpt>
      <trkpt lat="44.80981" lon="4.08459">
        <ele>1060.1</ele>
        <time>2022-06-10T08:25:08Z</time>
      </trkpt>
      <trkpt lat="44.80975" lon="4.08461">
        <ele>1059.9</ele>
        <time>2022-06-10T08:25:09Z</time>
      </trkpt>
      <trkpt lat="44.80968" lon="4.08463">
        <ele>1059.8</ele>
        <time>2022-06-10T08:25:10Z</time>
      </trkpt>
      <trkpt lat="44.80962" lon="4.08465">
        <ele>1059.6</ele>
        <time>2022-06-10T08:25:11Z</time>
      </trkpt>
      <trkpt lat="44.80956" lon="4.08469">
        <ele>1059.5</ele>
        <time>2022-06-10T08:25:12Z</time>
      </trkpt>
      <trkpt lat="44.8095" lon="4.08474">
        <ele>1059.3</ele>
        <time>2022-06-10T08:25:13Z</time>
      </trkpt>
      <trkpt lat="44.80945" lon="4.0848">
        <ele>1059.1</ele>
        <time>2022-06-10T08:25:14Z</time>
      </trkpt>
      <trkpt lat="44.8094" lon="4.08487">
        <ele>1059</ele>
        <time>2022-06-10T08:25:15Z</time>
      </trkpt>
      <trkpt lat="44.80935" lon="4.08494">
        <ele>1058.8</ele>
        <time>2022-06-10T08:25:16Z</time>
      </trkpt>
      <trkpt lat="44.80931" lon="4.08502">
        <ele>1058.6</ele>
        <time>2022-06-10T08:25:17Z</time>
      </trkpt>
      <trkpt lat="44.80927" lon="4.08511">
        <ele>1058.3</ele>
        <time>2022-06-10T08:25:18Z</time>
      </trkpt>
      <trkpt lat="44.80923" lon="4.0852">
        <ele>1058.1</ele>
        <time>2022-06-10T08:25:19Z</time>
      </trkpt>
      <trkpt lat="44.80919" lon="4.08529">
        <ele>1057.8</ele>
        <time>2022-06-10T08:25:20Z</time>
      </trkpt>
      <trkpt lat="44.80914" lon="4.08538">
        <ele>1057.6</ele>
        <time>2022-06-10T08:25:21Z</time>
      </trkpt>
      <trkpt lat="44.8091" lon="4.08548">
        <ele>1057.3</ele>
        <time>2022-06-10T08:25:22Z</time>
      </trkpt>
      <trkpt lat="44.80906" lon="4.08557">
        <ele>1057</ele>
        <time>2022-06-10T08:25:23Z</time>
      </trkpt>
      <trkpt lat="44.809" lon="4.08565">
        <ele>1056.8</ele>
        <time>2022-06-10T08:25:24Z</time>
      </trkpt>
      <trkpt lat="44.80894" lon="4.08573">
        <ele>1056.6</ele>
        <time>2022-06-10T08:25:25Z</time>
      </trkpt>
      <trkpt lat="44.80887" lon="4.0858">
        <ele>1056.4</ele>
        <time>2022-06-10T08:25:26Z</time>
      </trkpt>
      <trkpt lat="44.80879" lon="4.08585">
        <ele>1056.3</ele>
        <time>2022-06-10T08:25:27Z</time>
      </trkpt>
      <trkpt lat="44.80871" lon="4.08589">
        <ele>1056.3</ele>
        <time>2022-06-10T08:25:28Z</time>
      </trkpt>
      <trkpt lat="44.80864" lon="4.0859">
        <ele>1056.3</ele>
        <time>2022-06-10T08:25:29Z</time>
      </trkpt>
      <trkpt lat="44.80856" lon="4.0859">
        <ele>1056.2</ele>
        <time>2022-06-10T08:25:30Z</time>
      </trkpt>
      <trkpt lat="44.80848" lon="4.08589">
        <ele>1056.2</ele>
        <time>2022-06-10T08:25:31Z</time>
      </trkpt>
      <trkpt lat="44.80841" lon="4.08588">
        <ele>1056.2</ele>
        <time>2022-06-10T08:25:32Z</time>
      </trkpt>
      <trkpt lat="44.80834" lon="4.08585">
        <ele>1056.1</ele>
        <time>2022-06-10T08:25:33Z</time>
      </trkpt>
      <trkpt lat="44.80827" lon="4.08582">
        <ele>1056</ele>
        <time>2022-06-10T08:25:34Z</time>
      </trkpt>
      <trkpt lat="44.8082" lon="4.08578">
        <ele>1055.9</ele>
        <time>2022-06-10T08:25:35Z</time>
      </trkpt>
      <trkpt lat="44.80813" lon="4.08574">
        <ele>1055.8</ele>
        <time>2022-06-10T08:25:36Z</time>
      </trkpt>
      <trkpt lat="44.80807" lon="4.08569">
        <ele>1055.8</ele>
        <time>2022-06-10T08:25:37Z</time>
      </trkpt>
      <trkpt lat="44.808" lon="4.08565">
        <ele>1055.7</ele>
        <time>2022-06-10T08:25:38Z</time>
      </trkpt>
      <trkpt lat="44.80794" lon="4.08561">
        <ele>1055.5</ele>
        <time>2022-06-10T08:25:39Z</time>
      </trkpt>
      <trkpt lat="44.80787" lon="4.08557">
        <ele>1055.4</ele>
        <time>2022-06-10T08:25:40Z</time>
      </trkpt>
      <trkpt lat="44.8078" lon="4.08555">
        <ele>1055.2</ele>
        <time>2022-06-10T08:25:41Z</time>
      </trkpt>
      <trkpt lat="44.80772" lon="4.08553">
        <ele>1054.9</ele>
        <time>2022-06-10T08:25:42Z</time>
      </trkpt>
      <trkpt lat="44.80765" lon="4.08552">
        <ele>1054.5</ele>
        <time>2022-06-10T08:25:43Z</time>
      </trkpt>
      <trkpt lat="44.80757" lon="4.08551">
        <ele>1054</ele>
        <time>2022-06-10T08:25:44Z</time>
      </trkpt>
      <trkpt lat="44.80749" lon="4.08549">
        <ele>1053.6</ele>
        <time>2022-06-10T08:25:45Z</time>
      </trkpt>
      <trkpt lat="44.8074" lon="4.08548">
        <ele>1053</ele>
        <time>2022-06-10T08:25:46Z</time>
      </trkpt>
      <trkpt lat="44.80732" lon="4.08548">
        <ele>1052.5</ele>
        <time>2022-06-10T08:25:47Z</time>
      </trkpt>
      <trkpt lat="44.80722" lon="4.08548">
        <ele>1052.1</ele>
        <time>2022-06-10T08:25:48Z</time>
      </trkpt>
      <trkpt lat="44.80713" lon="4.08548">
        <ele>1051.6</ele>
        <time>2022-06-10T08:25:49Z</time>
      </trkpt>
      <trkpt lat="44.80704" lon="4.08549">
        <ele>1051.2</ele>
        <time>2022-06-10T08:25:50Z</time>
      </trkpt>
      <trkpt lat="44.80695" lon="4.0855">
        <ele>1050.8</ele>
        <time>2022-06-10T08:25:51Z</time>
      </trkpt>
      <trkpt lat="44.80686" lon="4.08554">
        <ele>1050.3</ele>
        <time>2022-06-10T08:25:52Z</time>
      </trkpt>
      <trkpt lat="44.80678" lon="4.0856">
        <ele>1049.6</ele>
        <time>2022-06-10T08:25:53Z</time>
      </trkpt>
      <trkpt lat="44.80671" lon="4.08568">
        <ele>1048.8</ele>
        <time>2022-06-10T08:25:54Z</time>
      </trkpt>
      <trkpt lat="44.80665" lon="4.08578">
        <ele>1047.8</ele>
        <time>2022-06-10T08:25:55Z</time>
      </trkpt>
      <trkpt lat="44.8066" lon="4.08591">
        <ele>1046.6</ele>
        <time>2022-06-10T08:25:56Z</time>
      </trkpt>
      <trkpt lat="44.80656" lon="4.08604">
        <ele>1045.4</ele>
        <time>2022-06-10T08:25:57Z</time>
      </trkpt>
      <trkpt lat="44.80652" lon="4.08619">
        <ele>1043.9</ele>
        <time>2022-06-10T08:25:58Z</time>
      </trkpt>
      <trkpt lat="44.80648" lon="4.08635">
        <ele>1042.5</ele>
        <time>2022-06-10T08:25:59Z</time>
      </trkpt>
      <trkpt lat="44.80644" lon="4.08652">
        <ele>1041.1</ele>
        <time>2022-06-10T08:26:00Z</time>
      </trkpt>
      <trkpt lat="44.8064" lon="4.08668">
        <ele>1039.7</ele>
        <time>2022-06-10T08:26:01Z</time>
      </trkpt>
      <trkpt lat="44.80636" lon="4.08686">
        <ele>1038.3</ele>
        <time>2022-06-10T08:26:02Z</time>
      </trkpt>
      <trkpt lat="44.80631" lon="4.08703">
        <ele>1037.1</ele>
        <time>2022-06-10T08:26:03Z</time>
      </trkpt>
      <trkpt lat="44.80627" lon="4.08721">
        <ele>1035.9</ele>
        <time>2022-06-10T08:26:04Z</time>
      </trkpt>
      <trkpt lat="44.80624" lon="4.08739">
        <ele>1034.8</ele>
        <time>2022-06-10T08:26:05Z</time>
      </trkpt>
      <trkpt lat="44.80622" lon="4.08756">
        <ele>1033.8</ele>
        <time>2022-06-10T08:26:06Z</time>
      </trkpt>
      <trkpt lat="44.80623" lon="4.08772">
        <ele>1032.9</ele>
        <time>2022-06-10T08:26:07Z</time>
      </trkpt>
      <trkpt lat="44.80625" lon="4.08787">
        <ele>1032.1</ele>
        <time>2022-06-10T08:26:08Z</time>
      </trkpt>
      <trkpt lat="44.80627" lon="4.08799">
        <ele>1031.4</ele>
        <time>2022-06-10T08:26:09Z</time>
      </trkpt>
      <trkpt lat="44.80629" lon="4.08808">
        <ele>1030.8</ele>
        <time>2022-06-10T08:26:10Z</time>
      </trkpt>
      <trkpt lat="44.80626" lon="4.08816">
        <ele>1030.3</ele>
        <time>2022-06-10T08:26:11Z</time>
      </trkpt>
      <trkpt lat="44.80622" lon="4.0882">
        <ele>1029.9</ele>
        <time>2022-06-10T08:26:12Z</time>
      </trkpt>
      <trkpt lat="44.80615" lon="4.08822">
        <ele>1029.1</ele>
        <time>2022-06-10T08:26:13Z</time>
      </trkpt>
      <trkpt lat="44.80608" lon="4.08819">
        <ele>1028.5</ele>
        <time>2022-06-10T08:26:14Z</time>
      </trkpt>
      <trkpt lat="44.80604" lon="4.08811">
        <ele>1027.8</ele>
        <time>2022-06-10T08:26:15Z</time>
      </trkpt>
      <trkpt lat="44.806" lon="4.08798">
        <ele>1027</ele>
        <time>2022-06-10T08:26:16Z</time>
      </trkpt>
      <trkpt lat="44.80596" lon="4.08785">
        <ele>1026.1</ele>
        <time>2022-06-10T08:26:17Z</time>
      </trkpt>
      <trkpt lat="44.80593" lon="4.08773">
        <ele>1025.3</ele>
        <time>2022-06-10T08:26:18Z</time>
      </trkpt>
      <trkpt lat="44.8059" lon="4.08761">
        <ele>1024.5</ele>
        <time>2022-06-10T08:26:19Z</time>
      </trkpt>
      <trkpt lat="44.80589" lon="4.08749">
        <ele>1023.7</ele>
        <time>2022-06-10T08:26:20Z</time>
      </trkpt>
      <trkpt lat="44.8059" lon="4.08735">
        <ele>1022.9</ele>
        <time>2022-06-10T08:26:21Z</time>
      </trkpt>
      <trkpt lat="44.80593" lon="4.08721">
        <ele>1022</ele>
        <time>2022-06-10T08:26:22Z</time>
      </trkpt>
      <trkpt lat="44.80596" lon="4.08707">
        <ele>1021</ele>
        <time>2022-06-10T08:26:23Z</time>
      </trkpt>
      <trkpt lat="44.80598" lon="4.08692">
        <ele>1020.1</ele>
        <time>2022-06-10T08:26:24Z</time>
      </trkpt>
      <trkpt lat="44.806" lon="4.08677">
        <ele>1019.1</ele>
        <time>2022-06-10T08:26:25Z</time>
      </trkpt>
      <trkpt lat="44.80601" lon="4.08661">
        <ele>1018.1</ele>
        <time>2022-06-10T08:26:26Z</time>
      </trkpt>
      <trkpt lat="44.80602" lon="4.08645">
        <ele>1017.1</ele>
        <time>2022-06-10T08:26:27Z</time>
      </trkpt>
      <trkpt lat="44.80602" lon="4.08629">
        <ele>1016.1</ele>
        <time>2022-06-10T08:26:28Z</time>
      </trkpt>
      <trkpt lat="44.80603" lon="4.08612">
        <ele>1015.1</ele>
        <time>2022-06-10T08:26:29Z</time>
      </trkpt>
      <trkpt lat="44.80604" lon="4.08596">
        <ele>1014</ele>
        <time>2022-06-10T08:26:30Z</time>
      </trkpt>
      <trkpt lat="44.80605" lon="4.08579">
        <ele>1013</ele>
        <time>2022-06-10T08:26:31Z</time>
      </trkpt>
      <trkpt lat="44.80605" lon="4.08561">
        <ele>1011.9</ele>
        <time>2022-06-10T08:26:32Z</time>
      </trkpt>
      <trkpt lat="44.80606" lon="4.08544">
        <ele>1010.8</ele>
        <time>2022-06-10T08:26:33Z</time>
      </trkpt>
      <trkpt lat="44.80607" lon="4.08526">
        <ele>1009.7</ele>
        <time>2022-06-10T08:26:34Z</time>
      </trkpt>
      <trkpt lat="44.80608" lon="4.08509">
        <ele>1008.6</ele>
        <time>2022-06-10T08:26:35Z</time>
      </trkpt>
      <trkpt lat="44.80609" lon="4.08491">
        <ele>1007.5</ele>
        <time>2022-06-10T08:26:36Z</time>
      </trkpt>
      <trkpt lat="44.8061" lon="4.08473">
        <ele>1006.4</ele>
        <time>2022-06-10T08:26:37Z</time>
      </trkpt>
      <trkpt lat="44.80611" lon="4.08455">
        <ele>1005.3</ele>
        <time>2022-06-10T08:26:38Z</time>
      </trkpt>
      <trkpt lat="44.8061" lon="4.08437">
        <ele>1004.1</ele>
        <time>2022-06-10T08:26:39Z</time>
      </trkpt>
      <trkpt lat="44.80608" lon="4.0842">
        <ele>1003</ele>
        <time>2022-06-10T08:26:40Z</time>
      </trkpt>
      <trkpt lat="44.80604" lon="4.08403">
        <ele>1001.9</ele>
        <time>2022-06-10T08:26:41Z</time>
      </trkpt>
      <trkpt lat="44.80601" lon="4.08386">
        <ele>1000.9</ele>
        <time>2022-06-10T08:26:42Z</time>
      </trkpt>
      <trkpt lat="44.80598" lon="4.0837">
        <ele>999.8</ele>
        <time>2022-06-10T08:26:43Z</time>
      </trkpt>
      <trkpt lat="44.80595" lon="4.08354">
        <ele>998.8</ele>
        <time>2022-06-10T08:26:44Z</time>
      </trkpt>
      <trkpt lat="44.80593" lon="4.0834">
        <ele>997.9</ele>
        <time>2022-06-10T08:26:45Z</time>
      </trkpt>
      <trkpt lat="44.80592" lon="4.08327">
        <ele>997.1</ele>
        <time>2022-06-10T08:26:46Z</time>
      </trkpt>
      <trkpt lat="44.80592" lon="4.08314">
        <ele>996.3</ele>
        <time>2022-06-10T08:26:47Z</time>
      </trkpt>
      <trkpt lat="44.80592" lon="4.08301">
        <ele>995.4</ele>
        <time>2022-06-10T08:26:48Z</time>
      </trkpt>
      <trkpt lat="44.80591" lon="4.08287">
        <ele>994.6</ele>
        <time>2022-06-10T08:26:49Z</time>
      </trkpt>
      <trkpt lat="44.80591" lon="4.08274">
        <ele>993.7</ele>
        <time>2022-06-10T08:26:50Z</time>
      </trkpt>
      <trkpt lat="44.8059" lon="4.0826">
        <ele>992.9</ele>
        <time>2022-06-10T08:26:51Z</time>
      </trkpt>
      <trkpt lat="44.80589" lon="4.08246">
        <ele>992</ele>
        <time>2022-06-10T08:26:52Z</time>
      </trkpt>
      <trkpt lat="44.8059" lon="4.08232">
        <ele>991.1</ele>
        <time>2022-06-10T08:26:53Z</time>
      </trkpt>
      <trkpt lat="44.80594" lon="4.0822">
        <ele>990.3</ele>
        <time>2022-06-10T08:26:54Z</time>
      </trkpt>
      <trkpt lat="44.80602" lon="4.0821">
        <ele>989.4</ele>
        <time>2022-06-10T08:26:55Z</time>
      </trkpt>
      <trkpt lat="44.80611" lon="4.08204">
        <ele>988.5</ele>
        <time>2022-06-10T08:26:56Z</time>
      </trkpt>
      <trkpt lat="44.80622" lon="4.08202">
        <ele>987.5</ele>
        <time>2022-06-10T08:26:57Z</time>
      </trkpt>
      <trkpt lat="44.80632" lon="4.08202">
        <ele>986.6</ele>
        <time>2022-06-10T08:26:58Z</time>
      </trkpt>
      <trkpt lat="44.80643" lon="4.08201">
        <ele>985.7</ele>
        <time>2022-06-10T08:26:59Z</time>
      </trkpt>
      <trkpt lat="44.80653" lon="4.082">
        <ele>984.8</ele>
        <time>2022-06-10T08:27:00Z</time>
      </trkpt>
      <trkpt lat="44.80663" lon="4.082">
        <ele>984</ele>
        <time>2022-06-10T08:27:01Z</time>
      </trkpt>
      <trkpt lat="44.80673" lon="4.08199">
        <ele>983.1</ele>
        <time>2022-06-10T08:27:02Z</time>
      </trkpt>
      <trkpt lat="44.80683" lon="4.08199">
        <ele>982.2</ele>
        <time>2022-06-10T08:27:03Z</time>
      </trkpt>
      <trkpt lat="44.80694" lon="4.08198">
        <ele>981.2</ele>
        <time>2022-06-10T08:27:04Z</time>
      </trkpt>
      <trkpt lat="44.80704" lon="4.08197">
        <ele>980.3</ele>
        <time>2022-06-10T08:27:05Z</time>
      </trkpt>
      <trkpt lat="44.80714" lon="4.08196">
        <ele>979.4</ele>
        <time>2022-06-10T08:27:06Z</time>
      </trkpt>
      <trkpt lat="44.80725" lon="4.08195">
        <ele>978.4</ele>
        <time>2022-06-10T08:27:07Z</time>
      </trkpt>
      <trkpt lat="44.80736" lon="4.08194">
        <ele>977.5</ele>
        <time>2022-06-10T08:27:08Z</time>
      </trkpt>
      <trkpt lat="44.80747" lon="4.08193">
        <ele>976.6</ele>
        <time>2022-06-10T08:27:09Z</time>
      </trkpt>
      <trkpt lat="44.80757" lon="4.08192">
        <ele>975.7</ele>
        <time>2022-06-10T08:27:10Z</time>
      </trkpt>
      <trkpt lat="44.80767" lon="4.08191">
        <ele>974.8</ele>
        <time>2022-06-10T08:27:11Z</time>
      </trkpt>
      <trkpt lat="44.80777" lon="4.0819">
        <ele>973.9</ele>
        <time>2022-06-10T08:27:12Z</time>
      </trkpt>
      <trkpt lat="44.80786" lon="4.08188">
        <ele>973.1</ele>
        <time>2022-06-10T08:27:13Z</time>
      </trkpt>
      <trkpt lat="44.80794" lon="4.08187">
        <ele>972.4</ele>
        <time>2022-06-10T08:27:14Z</time>
      </trkpt>
      <trkpt lat="44.808" lon="4.08185">
        <ele>971.8</ele>
        <time>2022-06-10T08:27:15Z</time>
      </trkpt>
      <trkpt lat="44.80805" lon="4.0818">
        <ele>971.3</ele>
        <time>2022-06-10T08:27:16Z</time>
      </trkpt>
      <trkpt lat="44.80807" lon="4.08175">
        <ele>970.9</ele>
        <time>2022-06-10T08:27:17Z</time>
      </trkpt>
      <trkpt lat="44.80806" lon="4.08167">
        <ele>970.4</ele>
        <time>2022-06-10T08:27:18Z</time>
      </trkpt>
      <trkpt lat="44.80802" lon="4.08161">
        <ele>969.9</ele>
        <time>2022-06-10T08:27:19Z</time>
      </trkpt>
      <trkpt lat="44.80795" lon="4.08161">
        <ele>969.3</ele>
        <time>2022-06-10T08:27:20Z</time>
      </trkpt>
      <trkpt lat="44.80782" lon="4.08163">
        <ele>968.1</ele>
        <time>2022-06-10T08:27:21Z</time>
      </trkpt>
      <trkpt lat="44.80771" lon="4.08166">
        <ele>967.1</ele>
        <time>2022-06-10T08:27:22Z</time>
      </trkpt>
      <trkpt lat="44.80761" lon="4.08167">
        <ele>966.2</ele>
        <time>2022-06-10T08:27:23Z</time>
      </trkpt>
      <trkpt lat="44.80751" lon="4.08166">
        <ele>965.3</ele>
        <time>2022-06-10T08:27:24Z</time>
      </trkpt>
      <trkpt lat="44.80741" lon="4.08163">
        <ele>964.4</ele>
        <time>2022-06-10T08:27:25Z</time>
      </trkpt>
      <trkpt lat="44.80731" lon="4.08159">
        <ele>963.6</ele>
        <time>2022-06-10T08:27:26Z</time>
      </trkpt>
      <trkpt lat="44.80722" lon="4.08155">
        <ele>962.7</ele>
        <time>2022-06-10T08:27:27Z</time>
      </trkpt>
      <trkpt lat="44.80711" lon="4.0815">
        <ele>961.7</ele>
        <time>2022-06-10T08:27:28Z</time>
      </trkpt>
      <trkpt lat="44.80699" lon="4.08144">
        <ele>960.6</ele>
        <time>2022-06-10T08:27:29Z</time>
      </trkpt>
      <trkpt lat="44.80688" lon="4.08139">
        <ele>959.6</ele>
        <time>2022-06-10T08:27:30Z</time>
      </trkpt>
      <trkpt lat="44.80676" lon="4.08136">
        <ele>958.5</ele>
        <time>2022-06-10T08:27:31Z</time>
      </trkpt>
      <trkpt lat="44.80664" lon="4.08132">
        <ele>957.4</ele>
        <time>2022-06-10T08:27:32Z</time>
      </trkpt>
      <trkpt lat="44.80652" lon="4.08129">
        <ele>956.3</ele>
        <time>2022-06-10T08:27:33Z</time>
      </trkpt>
      <trkpt lat="44.8064" lon="4.08125">
        <ele>955.3</ele>
        <time>2022-06-10T08:27:34Z</time>
      </trkpt>
      <trkpt lat="44.80628" lon="4.08121">
        <ele>954.2</ele>
        <time>2022-06-10T08:27:35Z</time>
      </trkpt>
      <trkpt lat="44.80615" lon="4.08118">
        <ele>953</ele>
        <time>2022-06-10T08:27:36Z</time>
      </trkpt>
      <trkpt lat="44.80603" lon="4.08115">
        <ele>951.9</ele>
        <time>2022-06-10T08:27:37Z</time>
      </trkpt>
      <trkpt lat="44.80591" lon="4.08112">
        <ele>950.9</ele>
        <time>2022-06-10T08:27:38Z</time>
      </trkpt>
      <trkpt lat="44.80579" lon="4.08112">
        <ele>949.9</ele>
        <time>2022-06-10T08:27:39Z</time>
      </trkpt>
      <trkpt lat="44.80568" lon="4.08114">
        <ele>949.8</ele>
        <time>2022-06-10T08:27:40Z</time>
      </trkpt>
      <trkpt lat="44.80558" lon="4.08119">
        <ele>949.8</ele>
        <time>2022-06-10T08:27:41Z</time>
      </trkpt>
      <trkpt lat="44.80549" lon="4.08127">
        <ele>949.8</ele>
        <time>2022-06-10T08:27:42Z</time>
      </trkpt>
      <trkpt lat="44.80542" lon="4.08137">
        <ele>949.8</ele>
        <time>2022-06-10T08:27:43Z</time>
      </trkpt>
      <trkpt lat="44.80536" lon="4.08147">
        <ele>949.8</ele>
        <time>2022-06-10T08:27:44Z</time>
      </trkpt>
      <trkpt lat="44.80531" lon="4.08158">
        <ele>949.8</ele>
        <time>2022-06-10T08:27:45Z</time>
      </trkpt>
      <trkpt lat="44.80527" lon="4.08168">
        <ele>950</ele>
        <time>2022-06-10T08:27:46Z</time>
      </trkpt>
      <trkpt lat="44.80521" lon="4.08177">
        <ele>950.2</ele>
        <time>2022-06-10T08:27:47Z</time>
      </trkpt>
      <trkpt lat="44.80515" lon="4.08185">
        <ele>950.5</ele>
        <time>2022-06-10T08:27:48Z</time>
      </trkpt>
      <trkpt lat="44.80509" lon="4.08191">
        <ele>950.8</ele>
        <time>2022-06-10T08:27:49Z</time>
      </trkpt>
      <trkpt lat="44.80502" lon="4.08194">
        <ele>951.1</ele>
        <time>2022-06-10T08:27:50Z</time>
      </trkpt>
      <trkpt lat="44.80496" lon="4.08196">
        <ele>951.2</ele>
        <time>2022-06-10T08:27:51Z</time>
      </trkpt>
      <trkpt lat="44.8049" lon="4.08198">
        <ele>951.2</ele>
        <time>2022-06-10T08:27:52Z</time>
      </trkpt>
      <trkpt lat="44.80485" lon="4.082">
        <ele>951.2</ele>
        <time>2022-06-10T08:27:53Z</time>
      </trkpt>
      <trkpt lat="44.8048" lon="4.08202">
        <ele>951.2</ele>
        <time>2022-06-10T08:27:54Z</time>
      </trkpt>
      <trkpt lat="44.80475" lon="4.08206">
        <ele>951.4</ele>
        <time>2022-06-10T08:27:55Z</time>
      </trkpt>
      <trkpt lat="44.80472" lon="4.08209">
        <ele>951.5</ele>
        <time>2022-06-10T08:27:56Z</time>
      </trkpt>
      <trkpt lat="44.80469" lon="4.08213">
        <ele>951.7</ele>
        <time>2022-06-10T08:27:57Z</time>
      </trkpt>
      <trkpt lat="44.80466" lon="4.08218">
        <ele>951.9</ele>
        <time>2022-06-10T08:27:58Z</time>
      </trkpt>
      <trkpt lat="44.80465" lon="4.08222">
        <ele>952.1</ele>
        <time>2022-06-10T08:27:59Z</time>
      </trkpt>
      <trkpt lat="44.80464" lon="4.08226">
        <ele>952.3</ele>
        <time>2022-06-10T08:28:00Z</time>
      </trkpt>
      <trkpt lat="44.80464" lon="4.08231">
        <ele>952.6</ele>
        <time>2022-06-10T08:28:01Z</time>
      </trkpt>
      <trkpt lat="44.80463" lon="4.08236">
        <ele>952.8</ele>
        <time>2022-06-10T08:28:02Z</time>
      </trkpt>
      <trkpt lat="44.80462" lon="4.08241">
        <ele>953.1</ele>
        <time>2022-06-10T08:28:03Z</time>
      </trkpt>
      <trkpt lat="44.80461" lon="4.08245">
        <ele>953.3</ele>
        <time>2022-06-10T08:28:04Z</time>
      </trkpt>
      <trkpt lat="44.80461" lon="4.08247">
        <ele>953.4</ele>
        <time>2022-06-10T08:28:05Z</time>
      </trkpt>
      <trkpt lat="44.80461" lon="4.08251">
        <ele>953.7</ele>
        <time>2022-06-10T08:28:06Z</time>
      </trkpt>
      <trkpt lat="44.80461" lon="4.08253">
        <ele>953.8</ele>
        <time>2022-06-10T08:28:07Z</time>
      </trkpt>
      <trkpt lat="44.8046" lon="4.08257">
        <ele>954</ele>
        <time>2022-06-10T08:28:08Z</time>
      </trkpt>
      <trkpt lat="44.8046" lon="4.08258">
        <ele>954.1</ele>
        <time>2022-06-10T08:28:09Z</time>
      </trkpt>
      <trkpt lat="44.80459" lon="4.0826">
        <ele>954.2</ele>
        <time>2022-06-10T08:28:10Z</time>
      </trkpt>
      <trkpt lat="44.80459" lon="4.08263">
        <ele>954.4</ele>
        <time>2022-06-10T08:28:11Z</time>
      </trkpt>
      <trkpt lat="44.80458" lon="4.08267">
        <ele>954.6</ele>
        <time>2022-06-10T08:28:12Z</time>
      </trkpt>
      <trkpt lat="44.80458" lon="4.08268">
        <ele>954.7</ele>
        <time>2022-06-10T08:28:13Z</time>
      </trkpt>
      <trkpt lat="44.80457" lon="4.08272">
        <ele>955</ele>
        <time>2022-06-10T08:28:14Z</time>
      </trkpt>
      <trkpt lat="44.80457" lon="4.08273">
        <ele>955</ele>
        <time>2022-06-10T08:28:15Z</time>
      </trkpt>
      <trkpt lat="44.80456" lon="4.08278">
        <ele>955.3</ele>
        <time>2022-06-10T08:28:16Z</time>
      </trkpt>
      <trkpt lat="44.80456" lon="4.0828">
        <ele>955.4</ele>
        <time>2022-06-10T08:28:17Z</time>
      </trkpt>
      <trkpt lat="44.80456" lon="4.08283">
        <ele>955.7</ele>
        <time>2022-06-10T08:28:18Z</time>
      </trkpt>
      <trkpt lat="44.80456" lon="4.08285">
        <ele>955.8</ele>
        <time>2022-06-10T08:28:19Z</time>
      </trkpt>
      <trkpt lat="44.80456" lon="4.08287">
        <ele>955.9</ele>
        <time>2022-06-10T08:28:20Z</time>
      </trkpt>
      <trkpt lat="44.80456" lon="4.0829">
        <ele>956.1</ele>
        <time>2022-06-10T08:28:21Z</time>
      </trkpt>
      <trkpt lat="44.80456" lon="4.08294">
        <ele>956.4</ele>
        <time>2022-06-10T08:28:22Z</time>
      </trkpt>
      <trkpt lat="44.80456" lon="4.08296">
        <ele>956.5</ele>
        <time>2022-06-10T08:28:23Z</time>
      </trkpt>
      <trkpt lat="44.80456" lon="4.083">
        <ele>956.7</ele>
        <time>2022-06-10T08:28:24Z</time>
      </trkpt>
      <trkpt lat="44.80456" lon="4.08301">
        <ele>956.8</ele>
        <time>2022-06-10T08:28:25Z</time>
      </trkpt>
      <trkpt lat="44.80457" lon="4.08306">
        <ele>957.1</ele>
        <time>2022-06-10T08:28:26Z</time>
      </trkpt>
      <trkpt lat="44.80457" lon="4.08307">
        <ele>957.2</ele>
        <time>2022-06-10T08:28:27Z</time>
      </trkpt>
      <trkpt lat="44.80457" lon="4.08311">
        <ele>957.5</ele>
        <time>2022-06-10T08:28:28Z</time>
      </trkpt>
      <trkpt lat="44.80457" lon="4.08312">
        <ele>957.6</ele>
        <time>2022-06-10T08:28:29Z</time>
      </trkpt>
      <trkpt lat="44.80456" lon="4.08317">
        <ele>957.9</ele>
        <time>2022-06-10T08:28:30Z</time>
      </trkpt>
      <trkpt lat="44.80456" lon="4.08318">
        <ele>958</ele>
        <time>2022-06-10T08:28:31Z</time>
      </trkpt>
      <trkpt lat="44.80456" lon="4.0832">
        <ele>958.2</ele>
        <time>2022-06-10T08:28:32Z</time>
      </trkpt>
      <trkpt lat="44.80456" lon="4.08323">
        <ele>958.4</ele>
        <time>2022-06-10T08:28:33Z</time>
      </trkpt>
      <trkpt lat="44.80455" lon="4.08325">
        <ele>958.5</ele>
        <time>2022-06-10T08:28:34Z</time>
      </trkpt>
      <trkpt lat="44.80455" lon="4.08327">
        <ele>958.7</ele>
        <time>2022-06-10T08:28:35Z</time>
      </trkpt>
      <trkpt lat="44.80455" lon="4.08329">
        <ele>958.8</ele>
        <time>2022-06-10T08:28:36Z</time>
      </trkpt>
      <trkpt lat="44.80454" lon="4.08332">
        <ele>959</ele>
        <time>2022-06-10T08:28:37Z</time>
      </trkpt>
      <trkpt lat="44.80454" lon="4.08333">
        <ele>959.2</ele>
        <time>2022-06-10T08:28:38Z</time>
      </trkpt>
      <trkpt lat="44.80453" lon="4.08336">
        <ele>959.4</ele>
        <time>2022-06-10T08:28:39Z</time>
      </trkpt>
      <trkpt lat="44.80452" lon="4.08338">
        <ele>959.5</ele>
        <time>2022-06-10T08:28:40Z</time>
      </trkpt>
      <trkpt lat="44.80451" lon="4.08339">
        <ele>959.6</ele>
        <time>2022-06-10T08:28:41Z</time>
      </trkpt>
      <trkpt lat="44.80449" lon="4.08339">
        <ele>959.8</ele>
        <time>2022-06-10T08:28:42Z</time>
      </trkpt>
      <trkpt lat="44.80448" lon="4.0834">
        <ele>960</ele>
        <time>2022-06-10T08:28:43Z</time>
      </trkpt>
      <trkpt lat="44.80445" lon="4.08339">
        <ele>960.2</ele>
        <time>2022-06-10T08:28:44Z</time>
      </trkpt>
      <trkpt lat="44.80444" lon="4.08339">
        <ele>960.3</ele>
        <time>2022-06-10T08:28:45Z</time>
      </trkpt>
      <trkpt lat="44.80442" lon="4.08337">
        <ele>960.6</ele>
        <time>2022-06-10T08:28:46Z</time>
      </trkpt>
      <trkpt lat="44.80441" lon="4.08336">
        <ele>960.6</ele>
        <time>2022-06-10T08:28:47Z</time>
      </trkpt>
      <trkpt lat="44.80438" lon="4.08333">
        <ele>960.9</ele>
        <time>2022-06-10T08:28:48Z</time>
      </trkpt>
      <trkpt lat="44.80438" lon="4.08333">
        <ele>960.9</ele>
        <time>2022-06-10T08:28:49Z</time>
      </trkpt>
      <trkpt lat="44.80437" lon="4.0833">
        <ele>961.1</ele>
        <time>2022-06-10T08:28:50Z</time>
      </trkpt>
      <trkpt lat="44.80437" lon="4.08328">
        <ele>961.2</ele>
        <time>2022-06-10T08:28:51Z</time>
      </trkpt>
      <trkpt lat="44.80436" lon="4.08327">
        <ele>961.3</ele>
        <time>2022-06-10T08:28:52Z</time>
      </trkpt>
      <trkpt lat="44.80436" lon="4.08324">
        <ele>961.4</ele>
        <time>2022-06-10T08:28:53Z</time>
      </trkpt>
      <trkpt lat="44.80436" lon="4.08322">
        <ele>961.6</ele>
        <time>2022-06-10T08:28:54Z</time>
      </trkpt>
      <trkpt lat="44.80436" lon="4.08319">
        <ele>961.7</ele>
        <time>2022-06-10T08:28:55Z</time>
      </trkpt>
      <trkpt lat="44.80437" lon="4.08317">
        <ele>961.8</ele>
        <time>2022-06-10T08:28:56Z</time>
      </trkpt>
      <trkpt lat="44.80437" lon="4.08315">
        <ele>961.9</ele>
        <time>2022-06-10T08:28:57Z</time>
      </trkpt>
      <trkpt lat="44.80438" lon="4.0831">
        <ele>962.2</ele>
        <time>2022-06-10T08:28:58Z</time>
      </trkpt>
      <trkpt lat="44.80438" lon="4.08309">
        <ele>962.2</ele>
        <time>2022-06-10T08:28:59Z</time>
      </trkpt>
      <trkpt lat="44.80438" lon="4.08306">
        <ele>962.4</ele>
        <time>2022-06-10T08:29:00Z</time>
      </trkpt>
      <trkpt lat="44.80438" lon="4.08301">
        <ele>962.6</ele>
        <time>2022-06-10T08:29:02Z</time>
      </trkpt>
      <trkpt lat="44.80439" lon="4.08297">
        <ele>962.9</ele>
        <time>2022-06-10T08:29:04Z</time>
      </trkpt>
      <trkpt lat="44.80439" lon="4.08295">
        <ele>963</ele>
        <time>2022-06-10T08:29:06Z</time>
      </trkpt>
      <trkpt lat="44.8044" lon="4.08292">
        <ele>963.2</ele>
        <time>2022-06-10T08:29:07Z</time>
      </trkpt>
      <trkpt lat="44.8044" lon="4.08289">
        <ele>963.3</ele>
        <time>2022-06-10T08:29:09Z</time>
      </trkpt>
      <trkpt lat="44.8044" lon="4.08285">
        <ele>963.5</ele>
        <time>2022-06-10T08:29:10Z</time>
      </trkpt>
      <trkpt lat="44.8044" lon="4.08284">
        <ele>963.6</ele>
        <time>2022-06-10T08:29:11Z</time>
      </trkpt>
      <trkpt lat="44.8044" lon="4.08281">
        <ele>963.8</ele>
        <time>2022-06-10T08:29:13Z</time>
      </trkpt>
      <trkpt lat="44.8044" lon="4.08279">
        <ele>963.9</ele>
        <time>2022-06-10T08:29:14Z</time>
      </trkpt>
      <trkpt lat="44.8044" lon="4.08276">
        <ele>964.1</ele>
        <time>2022-06-10T08:29:15Z</time>
      </trkpt>
      <trkpt lat="44.80439" lon="4.08275">
        <ele>964.2</ele>
        <time>2022-06-10T08:29:16Z</time>
      </trkpt>
      <trkpt lat="44.80439" lon="4.08274">
        <ele>964.2</ele>
        <time>2022-06-10T08:29:17Z</time>
      </trkpt>
      <trkpt lat="44.80439" lon="4.08271">
        <ele>964.4</ele>
        <time>2022-06-10T08:29:18Z</time>
      </trkpt>
      <trkpt lat="44.80439" lon="4.0827">
        <ele>964.5</ele>
        <time>2022-06-10T08:29:19Z</time>
      </trkpt>
      <trkpt lat="44.80439" lon="4.08266">
        <ele>964.7</ele>
        <time>2022-06-10T08:29:20Z</time>
      </trkpt>
      <trkpt lat="44.80439" lon="4.08264">
        <ele>964.8</ele>
        <time>2022-06-10T08:29:22Z</time>
      </trkpt>
      <trkpt lat="44.80439" lon="4.08262">
        <ele>965</ele>
        <time>2022-06-10T08:29:23Z</time>
      </trkpt>
      <trkpt lat="44.8044" lon="4.0826">
        <ele>965.1</ele>
        <time>2022-06-10T08:29:24Z</time>
      </trkpt>
      <trkpt lat="44.8044" lon="4.08259">
        <ele>965.2</ele>
        <time>2022-06-10T08:29:25Z</time>
      </trkpt>
      <trkpt lat="44.8044" lon="4.08255">
        <ele>965.4</ele>
        <time>2022-06-10T08:29:27Z</time>
      </trkpt>
      <trkpt lat="44.8044" lon="4.08254">
        <ele>965.4</ele>
        <time>2022-06-10T08:29:28Z</time>
      </trkpt>
      <trkpt lat="44.8044" lon="4.08253">
        <ele>965.5</ele>
        <time>2022-06-10T08:29:29Z</time>
      </trkpt>
      <trkpt lat="44.8044" lon="4.08251">
        <ele>965.6</ele>
        <time>2022-06-10T08:29:30Z</time>
      </trkpt>
      <trkpt lat="44.8044" lon="4.0825">
        <ele>965.8</ele>
        <time>2022-06-10T08:29:31Z</time>
      </trkpt>
      <trkpt lat="44.8044" lon="4.08248">
        <ele>965.9</ele>
        <time>2022-06-10T08:29:32Z</time>
      </trkpt>
      <trkpt lat="44.8044" lon="4.08246">
        <ele>966</ele>
        <time>2022-06-10T08:29:33Z</time>
      </trkpt>
      <trkpt lat="44.8044" lon="4.08244">
        <ele>966.2</ele>
        <time>2022-06-10T08:29:34Z</time>
      </trkpt>
      <trkpt lat="44.80441" lon="4.0824">
        <ele>966.4</ele>
        <time>2022-06-10T08:29:36Z</time>
      </trkpt>
      <trkpt lat="44.8044" lon="4.08237">
        <ele>966.6</ele>
        <time>2022-06-10T08:29:37Z</time>
      </trkpt>
      <trkpt lat="44.8044" lon="4.08235">
        <ele>966.7</ele>
        <time>2022-06-10T08:29:38Z</time>
      </trkpt>
      <trkpt lat="44.8044" lon="4.08234">
        <ele>966.8</ele>
        <time>2022-06-10T08:29:39Z</time>
      </trkpt>
      <trkpt lat="44.8044" lon="4.08231">
        <ele>967</ele>
        <time>2022-06-10T08:29:41Z</time>
      </trkpt>
      <trkpt lat="44.8044" lon="4.08229">
        <ele>967.1</ele>
        <time>2022-06-10T08:29:42Z</time>
      </trkpt>
      <trkpt lat="44.8044" lon="4.08227">
        <ele>967.3</ele>
        <time>2022-06-10T08:29:43Z</time>
      </trkpt>
      <trkpt lat="44.8044" lon="4.08225">
        <ele>967.4</ele>
        <time>2022-06-10T08:29:44Z</time>
      </trkpt>
      <trkpt lat="44.80439" lon="4.08222">
        <ele>967.6</ele>
        <time>2022-06-10T08:29:45Z</time>
      </trkpt>
      <trkpt lat="44.80439" lon="4.08221">
        <ele>967.7</ele>
        <time>2022-06-10T08:29:46Z</time>
      </trkpt>
      <trkpt lat="44.80439" lon="4.0822">
        <ele>967.8</ele>
        <time>2022-06-10T08:29:47Z</time>
      </trkpt>
      <trkpt lat="44.80439" lon="4.08217">
        <ele>968</ele>
        <time>2022-06-10T08:29:48Z</time>
      </trkpt>
      <trkpt lat="44.80439" lon="4.08215">
        <ele>968.1</ele>
        <time>2022-06-10T08:29:50Z</time>
      </trkpt>
      <trkpt lat="44.80439" lon="4.08212">
        <ele>968.3</ele>
        <time>2022-06-10T08:29:51Z</time>
      </trkpt>
      <trkpt lat="44.80439" lon="4.0821">
        <ele>968.4</ele>
        <time>2022-06-10T08:29:52Z</time>
      </trkpt>
      <trkpt lat="44.8044" lon="4.08209">
        <ele>968.5</ele>
        <time>2022-06-10T08:29:53Z</time>
      </trkpt>
      <trkpt lat="44.8044" lon="4.08208">
        <ele>968.6</ele>
        <time>2022-06-10T08:29:54Z</time>
      </trkpt>
      <trkpt lat="44.8044" lon="4.08206">
        <ele>968.8</ele>
        <time>2022-06-10T08:29:55Z</time>
      </trkpt>
      <trkpt lat="44.8044" lon="4.08204">
        <ele>968.9</ele>
        <time>2022-06-10T08:29:56Z</time>
      </trkpt>
      <trkpt lat="44.8044" lon="4.08203">
        <ele>969</ele>
        <time>2022-06-10T08:29:57Z</time>
      </trkpt>
      <trkpt lat="44.8044" lon="4.08199">
        <ele>969.3</ele>
        <time>2022-06-10T08:29:59Z</time>
      </trkpt>
      <trkpt lat="44.80439" lon="4.08196">
        <ele>969.5</ele>
        <time>2022-06-10T08:30:00Z</time>
      </trkpt>
      <trkpt lat="44.80439" lon="4.08195">
        <ele>969.6</ele>
        <time>2022-06-10T08:30:01Z</time>
      </trkpt>
      <trkpt lat="44.80439" lon="4.08194">
        <ele>969.7</ele>
        <time>2022-06-10T08:30:02Z</time>
      </trkpt>
      <trkpt lat="44.80439" lon="4.08191">
        <ele>969.9</ele>
        <time>2022-06-10T08:30:03Z</time>
      </trkpt>
      <trkpt lat="44.80439" lon="4.08189">
        <ele>970</ele>
        <time>2022-06-10T08:30:05Z</time>
      </trkpt>
      <trkpt lat="44.80439" lon="4.08187">
        <ele>970.2</ele>
        <time>2022-06-10T08:30:06Z</time>
      </trkpt>
      <trkpt lat="44.80439" lon="4.08185">
        <ele>970.3</ele>
        <time>2022-06-10T08:30:07Z</time>
      </trkpt>
      <trkpt lat="44.8044" lon="4.08183">
        <ele>970.5</ele>
        <time>2022-06-10T08:30:08Z</time>
      </trkpt>
      <trkpt lat="44.8044" lon="4.08182">
        <ele>970.6</ele>
        <time>2022-06-10T08:30:09Z</time>
      </trkpt>
      <trkpt lat="44.8044" lon="4.0818">
        <ele>970.7</ele>
        <time>2022-06-10T08:30:10Z</time>
      </trkpt>
      <trkpt lat="44.8044" lon="4.08179">
        <ele>970.8</ele>
        <time>2022-06-10T08:30:11Z</time>
      </trkpt>
      <trkpt lat="44.80441" lon="4.08176">
        <ele>971</ele>
        <time>2022-06-10T08:30:12Z</time>
      </trkpt>
      <trkpt lat="44.80441" lon="4.08174">
        <ele>971.2</ele>
        <time>2022-06-10T08:30:13Z</time>
      </trkpt>
      <trkpt lat="44.80441" lon="4.08172">
        <ele>971.4</ele>
        <time>2022-06-10T08:30:14Z</time>
      </trkpt>
      <trkpt lat="44.80441" lon="4.08169">
        <ele>971.5</ele>
        <time>2022-06-10T08:30:16Z</time>
      </trkpt>
      <trkpt lat="44.80442" lon="4.08167">
        <ele>971.7</ele>
        <time>2022-06-10T08:30:17Z</time>
      </trkpt>
      <trkpt lat="44.80442" lon="4.08165">
        <ele>971.9</ele>
        <time>2022-06-10T08:30:18Z</time>
      </trkpt>
      <trkpt lat="44.80443" lon="4.08163">
        <ele>972</ele>
        <time>2022-06-10T08:30:20Z</time>
      </trkpt>
      <trkpt lat="44.80444" lon="4.0816">
        <ele>972.3</ele>
        <time>2022-06-10T08:30:21Z</time>
      </trkpt>
      <trkpt lat="44.80444" lon="4.08157">
        <ele>972.4</ele>
        <time>2022-06-10T08:30:23Z</time>
      </trkpt>
      <trkpt lat="44.80444" lon="4.08155">
        <ele>972.6</ele>
        <time>2022-06-10T08:30:24Z</time>
      </trkpt>
      <trkpt lat="44.80444" lon="4.08152">
        <ele>972.8</ele>
        <time>2022-06-10T08:30:25Z</time>
      </trkpt>
      <trkpt lat="44.80444" lon="4.08149">
        <ele>973</ele>
        <time>2022-06-10T08:30:26Z</time>
      </trkpt>
      <trkpt lat="44.80444" lon="4.08147">
        <ele>973.2</ele>
        <time>2022-06-10T08:30:28Z</time>
      </trkpt>
      <trkpt lat="44.80444" lon="4.08145">
        <ele>973.3</ele>
        <time>2022-06-10T08:30:29Z</time>
      </trkpt>
      <trkpt lat="44.80445" lon="4.08144">
        <ele>973.4</ele>
        <time>2022-06-10T08:30:30Z</time>
      </trkpt>
      <trkpt lat="44.80445" lon="4.0814">
        <ele>973.7</ele>
        <time>2022-06-10T08:30:32Z</time>
      </trkpt>
      <trkpt lat="44.80445" lon="4.08138">
        <ele>973.8</ele>
        <time>2022-06-10T08:30:33Z</time>
      </trkpt>
      <trkpt lat="44.80445" lon="4.08137">
        <ele>973.9</ele>
        <time>2022-06-10T08:30:34Z</time>
      </trkpt>
      <trkpt lat="44.80445" lon="4.08135">
        <ele>974</ele>
        <time>2022-06-10T08:30:35Z</time>
      </trkpt>
      <trkpt lat="44.80446" lon="4.08132">
        <ele>974.2</ele>
        <time>2022-06-10T08:30:36Z</time>
      </trkpt>
      <trkpt lat="44.80445" lon="4.08131">
        <ele>974.3</ele>
        <time>2022-06-10T08:30:37Z</time>
      </trkpt>
      <trkpt lat="44.80445" lon="4.08129">
        <ele>974.4</ele>
        <time>2022-06-10T08:30:38Z</time>
      </trkpt>
      <trkpt lat="44.80445" lon="4.08126">
        <ele>974.6</ele>
        <time>2022-06-10T08:30:39Z</time>
      </trkpt>
      <trkpt lat="44.80445" lon="4.08125">
        <ele>974.7</ele>
        <time>2022-06-10T08:30:40Z</time>
      </trkpt>
      <trkpt lat="44.80445" lon="4.08124">
        <ele>974.8</ele>
        <time>2022-06-10T08:30:41Z</time>
      </trkpt>
      <trkpt lat="44.80445" lon="4.08122">
        <ele>974.9</ele>
        <time>2022-06-10T08:30:42Z</time>
      </trkpt>
      <trkpt lat="44.80444" lon="4.0812">
        <ele>975.1</ele>
        <time>2022-06-10T08:30:43Z</time>
      </trkpt>
      <trkpt lat="44.80445" lon="4.08117">
        <ele>975.3</ele>
        <time>2022-06-10T08:30:44Z</time>
      </trkpt>
      <trkpt lat="44.80445" lon="4.08116">
        <ele>975.4</ele>
        <time>2022-06-10T08:30:45Z</time>
      </trkpt>
      <trkpt lat="44.80445" lon="4.08115">
        <ele>975.5</ele>
        <time>2022-06-10T08:30:46Z</time>
      </trkpt>
      <trkpt lat="44.80446" lon="4.08113">
        <ele>975.6</ele>
        <time>2022-06-10T08:30:47Z</time>
      </trkpt>
      <trkpt lat="44.80446" lon="4.08111">
        <ele>975.7</ele>
        <time>2022-06-10T08:30:48Z</time>
      </trkpt>
      <trkpt lat="44.80446" lon="4.0811">
        <ele>975.8</ele>
        <time>2022-06-10T08:30:49Z</time>
      </trkpt>
      <trkpt lat="44.80446" lon="4.08108">
        <ele>975.9</ele>
        <time>2022-06-10T08:30:50Z</time>
      </trkpt>
      <trkpt lat="44.80447" lon="4.08107">
        <ele>976</ele>
        <time>2022-06-10T08:30:51Z</time>
      </trkpt>
      <trkpt lat="44.80447" lon="4.08104">
        <ele>976.2</ele>
        <time>2022-06-10T08:30:52Z</time>
      </trkpt>
      <trkpt lat="44.80448" lon="4.08103">
        <ele>976.3</ele>
        <time>2022-06-10T08:30:53Z</time>
      </trkpt>
      <trkpt lat="44.80448" lon="4.08102">
        <ele>976.4</ele>
        <time>2022-06-10T08:30:54Z</time>
      </trkpt>
      <trkpt lat="44.80448" lon="4.08099">
        <ele>976.6</ele>
        <time>2022-06-10T08:30:55Z</time>
      </trkpt>
      <trkpt lat="44.80448" lon="4.08098">
        <ele>976.7</ele>
        <time>2022-06-10T08:30:56Z</time>
      </trkpt>
      <trkpt lat="44.80448" lon="4.08097">
        <ele>976.8</ele>
        <time>2022-06-10T08:30:57Z</time>
      </trkpt>
      <trkpt lat="44.80448" lon="4.08095">
        <ele>976.9</ele>
        <time>2022-06-10T08:30:58Z</time>
      </trkpt>
      <trkpt lat="44.80447" lon="4.08093">
        <ele>977.1</ele>
        <time>2022-06-10T08:30:59Z</time>
      </trkpt>
      <trkpt lat="44.80448" lon="4.0809">
        <ele>977.3</ele>
        <time>2022-06-10T08:31:01Z</time>
      </trkpt>
      <trkpt lat="44.80448" lon="4.08088">
        <ele>977.4</ele>
        <time>2022-06-10T08:31:02Z</time>
      </trkpt>
      <trkpt lat="44.80448" lon="4.08087">
        <ele>977.6</ele>
        <time>2022-06-10T08:31:03Z</time>
      </trkpt>
      <trkpt lat="44.80448" lon="4.08085">
        <ele>977.7</ele>
        <time>2022-06-10T08:31:04Z</time>
      </trkpt>
      <trkpt lat="44.80448" lon="4.08083">
        <ele>977.8</ele>
        <time>2022-06-10T08:31:05Z</time>
      </trkpt>
      <trkpt lat="44.80449" lon="4.08081">
        <ele>978</ele>
        <time>2022-06-10T08:31:06Z</time>
      </trkpt>
      <trkpt lat="44.80449" lon="4.0808">
        <ele>978.1</ele>
        <time>2022-06-10T08:31:07Z</time>
      </trkpt>
      <trkpt lat="44.80449" lon="4.08078">
        <ele>978.2</ele>
        <time>2022-06-10T08:31:08Z</time>
      </trkpt>
      <trkpt lat="44.80449" lon="4.08076">
        <ele>978.4</ele>
        <time>2022-06-10T08:31:09Z</time>
      </trkpt>
      <trkpt lat="44.8045" lon="4.08073">
        <ele>978.6</ele>
        <time>2022-06-10T08:31:10Z</time>
      </trkpt>
      <trkpt lat="44.80451" lon="4.08072">
        <ele>978.7</ele>
        <time>2022-06-10T08:31:11Z</time>
      </trkpt>
      <trkpt lat="44.80451" lon="4.08071">
        <ele>978.7</ele>
        <time>2022-06-10T08:31:12Z</time>
      </trkpt>
      <trkpt lat="44.80451" lon="4.08069">
        <ele>978.9</ele>
        <time>2022-06-10T08:31:13Z</time>
      </trkpt>
      <trkpt lat="44.80452" lon="4.08065">
        <ele>979.2</ele>
        <time>2022-06-10T08:31:15Z</time>
      </trkpt>
      <trkpt lat="44.80453" lon="4.08061">
        <ele>979.5</ele>
        <time>2022-06-10T08:31:16Z</time>
      </trkpt>
      <trkpt lat="44.80454" lon="4.0806">
        <ele>979.6</ele>
        <time>2022-06-10T08:31:17Z</time>
      </trkpt>
      <trkpt lat="44.80455" lon="4.08058">
        <ele>979.8</ele>
        <time>2022-06-10T08:31:19Z</time>
      </trkpt>
      <trkpt lat="44.80455" lon="4.08056">
        <ele>979.9</ele>
        <time>2022-06-10T08:31:20Z</time>
      </trkpt>
      <trkpt lat="44.80456" lon="4.08054">
        <ele>980.1</ele>
        <time>2022-06-10T08:31:21Z</time>
      </trkpt>
      <trkpt lat="44.80457" lon="4.08053">
        <ele>980.2</ele>
        <time>2022-06-10T08:31:23Z</time>
      </trkpt>
      <trkpt lat="44.80458" lon="4.0805">
        <ele>980.4</ele>
        <time>2022-06-10T08:31:24Z</time>
      </trkpt>
      <trkpt lat="44.80459" lon="4.08048">
        <ele>980.6</ele>
        <time>2022-06-10T08:31:26Z</time>
      </trkpt>
      <trkpt lat="44.8046" lon="4.08047">
        <ele>980.7</ele>
        <time>2022-06-10T08:31:27Z</time>
      </trkpt>
      <trkpt lat="44.8046" lon="4.08046">
        <ele>980.8</ele>
        <time>2022-06-10T08:31:28Z</time>
      </trkpt>
      <trkpt lat="44.80461" lon="4.08044">
        <ele>980.9</ele>
        <time>2022-06-10T08:31:29Z</time>
      </trkpt>
      <trkpt lat="44.80461" lon="4.08043">
        <ele>981</ele>
        <time>2022-06-10T08:31:30Z</time>
      </trkpt>
      <trkpt lat="44.80462" lon="4.0804">
        <ele>981.2</ele>
        <time>2022-06-10T08:31:32Z</time>
      </trkpt>
      <trkpt lat="44.80463" lon="4.08038">
        <ele>981.3</ele>
        <time>2022-06-10T08:31:33Z</time>
      </trkpt>
      <trkpt lat="44.80463" lon="4.08037">
        <ele>981.4</ele>
        <time>2022-06-10T08:31:34Z</time>
      </trkpt>
      <trkpt lat="44.80464" lon="4.08036">
        <ele>981.5</ele>
        <time>2022-06-10T08:31:35Z</time>
      </trkpt>
      <trkpt lat="44.80464" lon="4.08035">
        <ele>981.6</ele>
        <time>2022-06-10T08:31:36Z</time>
      </trkpt>
      <trkpt lat="44.80465" lon="4.08033">
        <ele>981.8</ele>
        <time>2022-06-10T08:31:37Z</time>
      </trkpt>
      <trkpt lat="44.80466" lon="4.08032">
        <ele>981.9</ele>
        <time>2022-06-10T08:31:38Z</time>
      </trkpt>
      <trkpt lat="44.80467" lon="4.0803">
        <ele>982</ele>
        <time>2022-06-10T08:31:39Z</time>
      </trkpt>
      <trkpt lat="44.80468" lon="4.08029">
        <ele>982.2</ele>
        <time>2022-06-10T08:31:40Z</time>
      </trkpt>
      <trkpt lat="44.8047" lon="4.08027">
        <ele>982.4</ele>
        <time>2022-06-10T08:31:41Z</time>
      </trkpt>
      <trkpt lat="44.80471" lon="4.08026">
        <ele>982.5</ele>
        <time>2022-06-10T08:31:43Z</time>
      </trkpt>
      <trkpt lat="44.80472" lon="4.08025">
        <ele>982.6</ele>
        <time>2022-06-10T08:31:44Z</time>
      </trkpt>
      <trkpt lat="44.80473" lon="4.08024">
        <ele>982.8</ele>
        <time>2022-06-10T08:31:45Z</time>
      </trkpt>
      <trkpt lat="44.80475" lon="4.08023">
        <ele>982.9</ele>
        <time>2022-06-10T08:31:46Z</time>
      </trkpt>
      <trkpt lat="44.80476" lon="4.08022">
        <ele>983</ele>
        <time>2022-06-10T08:31:47Z</time>
      </trkpt>
      <trkpt lat="44.80478" lon="4.0802">
        <ele>983.2</ele>
        <time>2022-06-10T08:31:48Z</time>
      </trkpt>
      <trkpt lat="44.80478" lon="4.08019">
        <ele>983.3</ele>
        <time>2022-06-10T08:31:49Z</time>
      </trkpt>
      <trkpt lat="44.80479" lon="4.08019">
        <ele>983.4</ele>
        <time>2022-06-10T08:31:50Z</time>
      </trkpt>
      <trkpt lat="44.80481" lon="4.08018">
        <ele>983.6</ele>
        <time>2022-06-10T08:31:51Z</time>
      </trkpt>
      <trkpt lat="44.80482" lon="4.08017">
        <ele>983.7</ele>
        <time>2022-06-10T08:31:52Z</time>
      </trkpt>
      <trkpt lat="44.80484" lon="4.08016">
        <ele>983.8</ele>
        <time>2022-06-10T08:31:53Z</time>
      </trkpt>
      <trkpt lat="44.80485" lon="4.08014">
        <ele>984</ele>
        <time>2022-06-10T08:31:54Z</time>
      </trkpt>
      <trkpt lat="44.80486" lon="4.08013">
        <ele>984.1</ele>
        <time>2022-06-10T08:31:55Z</time>
      </trkpt>
      <trkpt lat="44.80488" lon="4.08012">
        <ele>984.2</ele>
        <time>2022-06-10T08:31:56Z</time>
      </trkpt>
      <trkpt lat="44.80489" lon="4.08011">
        <ele>984.3</ele>
        <time>2022-06-10T08:31:57Z</time>
      </trkpt>
      <trkpt lat="44.80491" lon="4.0801">
        <ele>984.4</ele>
        <time>2022-06-10T08:31:58Z</time>
      </trkpt>
      <trkpt lat="44.80492" lon="4.08008">
        <ele>984.6</ele>
        <time>2022-06-10T08:31:59Z</time>
      </trkpt>
      <trkpt lat="44.80493" lon="4.08007">
        <ele>984.7</ele>
        <time>2022-06-10T08:32:00Z</time>
      </trkpt>
      <trkpt lat="44.80495" lon="4.08006">
        <ele>984.8</ele>
        <time>2022-06-10T08:32:01Z</time>
      </trkpt>
      <trkpt lat="44.80496" lon="4.08005">
        <ele>984.9</ele>
        <time>2022-06-10T08:32:02Z</time>
      </trkpt>
      <trkpt lat="44.80497" lon="4.08004">
        <ele>985</ele>
        <time>2022-06-10T08:32:03Z</time>
      </trkpt>
      <trkpt lat="44.805" lon="4.08001">
        <ele>985.2</ele>
        <time>2022-06-10T08:32:05Z</time>
      </trkpt>
      <trkpt lat="44.80502" lon="4.07999">
        <ele>985.4</ele>
        <time>2022-06-10T08:32:06Z</time>
      </trkpt>
      <trkpt lat="44.80503" lon="4.07999">
        <ele>985.5</ele>
        <time>2022-06-10T08:32:07Z</time>
      </trkpt>
      <trkpt lat="44.80506" lon="4.07997">
        <ele>985.6</ele>
        <time>2022-06-10T08:32:08Z</time>
      </trkpt>
      <trkpt lat="44.80507" lon="4.07995">
        <ele>985.7</ele>
        <time>2022-06-10T08:32:10Z</time>
      </trkpt>
      <trkpt lat="44.8051" lon="4.07993">
        <ele>985.9</ele>
        <time>2022-06-10T08:32:11Z</time>
      </trkpt>
      <trkpt lat="44.80511" lon="4.07993">
        <ele>986</ele>
        <time>2022-06-10T08:32:12Z</time>
      </trkpt>
      <trkpt lat="44.80513" lon="4.0799">
        <ele>986.2</ele>
        <time>2022-06-10T08:32:13Z</time>
      </trkpt>
      <trkpt lat="44.80515" lon="4.07987">
        <ele>986.4</ele>
        <time>2022-06-10T08:32:15Z</time>
      </trkpt>
      <trkpt lat="44.80516" lon="4.07986">
        <ele>986.4</ele>
        <time>2022-06-10T08:32:16Z</time>
      </trkpt>
      <trkpt lat="44.80518" lon="4.07983">
        <ele>986.6</ele>
        <time>2022-06-10T08:32:17Z</time>
      </trkpt>
      <trkpt lat="44.80519" lon="4.07983">
        <ele>986.7</ele>
        <time>2022-06-10T08:32:18Z</time>
      </trkpt>
      <trkpt lat="44.80522" lon="4.07981">
        <ele>986.8</ele>
        <time>2022-06-10T08:32:19Z</time>
      </trkpt>
      <trkpt lat="44.80526" lon="4.07979">
        <ele>987.1</ele>
        <time>2022-06-10T08:32:21Z</time>
      </trkpt>
      <trkpt lat="44.80527" lon="4.07978">
        <ele>987.1</ele>
        <time>2022-06-10T08:32:22Z</time>
      </trkpt>
      <trkpt lat="44.80531" lon="4.07976">
        <ele>987.4</ele>
        <time>2022-06-10T08:32:24Z</time>
      </trkpt>
      <trkpt lat="44.80533" lon="4.07975">
        <ele>987.5</ele>
        <time>2022-06-10T08:32:25Z</time>
      </trkpt>
      <trkpt lat="44.80535" lon="4.07974">
        <ele>987.6</ele>
        <time>2022-06-10T08:32:26Z</time>
      </trkpt>
      <trkpt lat="44.80537" lon="4.07974">
        <ele>987.7</ele>
        <time>2022-06-10T08:32:27Z</time>
      </trkpt>
      <trkpt lat="44.80539" lon="4.07972">
        <ele>987.9</ele>
        <time>2022-06-10T08:32:29Z</time>
      </trkpt>
      <trkpt lat="44.8054" lon="4.07971">
        <ele>987.9</ele>
        <time>2022-06-10T08:32:30Z</time>
      </trkpt>
      <trkpt lat="44.80542" lon="4.0797">
        <ele>988</ele>
        <time>2022-06-10T08:32:31Z</time>
      </trkpt>
      <trkpt lat="44.80545" lon="4.07969">
        <ele>988.2</ele>
        <time>2022-06-10T08:32:32Z</time>
      </trkpt>
      <trkpt lat="44.80547" lon="4.07968">
        <ele>988.3</ele>
        <time>2022-06-10T08:32:33Z</time>
      </trkpt>
      <trkpt lat="44.80551" lon="4.07967">
        <ele>988.6</ele>
        <time>2022-06-10T08:32:35Z</time>
      </trkpt>
      <trkpt lat="44.80554" lon="4.07964">
        <ele>988.8</ele>
        <time>2022-06-10T08:32:37Z</time>
      </trkpt>
      <trkpt lat="44.80556" lon="4.07963">
        <ele>988.9</ele>
        <time>2022-06-10T08:32:39Z</time>
      </trkpt>
      <trkpt lat="44.8056" lon="4.07961">
        <ele>989.1</ele>
        <time>2022-06-10T08:32:40Z</time>
      </trkpt>
      <trkpt lat="44.80561" lon="4.0796">
        <ele>989.3</ele>
        <time>2022-06-10T08:32:41Z</time>
      </trkpt>
      <trkpt lat="44.80563" lon="4.07959">
        <ele>989.4</ele>
        <time>2022-06-10T08:32:43Z</time>
      </trkpt>
      <trkpt lat="44.80566" lon="4.07957">
        <ele>989.6</ele>
        <time>2022-06-10T08:32:44Z</time>
      </trkpt>
      <trkpt lat="44.80567" lon="4.07956">
        <ele>989.7</ele>
        <time>2022-06-10T08:32:45Z</time>
      </trkpt>
      <trkpt lat="44.80569" lon="4.07953">
        <ele>989.9</ele>
        <time>2022-06-10T08:32:46Z</time>
      </trkpt>
      <trkpt lat="44.8057" lon="4.07952">
        <ele>990</ele>
        <time>2022-06-10T08:32:47Z</time>
      </trkpt>
      <trkpt lat="44.80571" lon="4.07949">
        <ele>990.2</ele>
        <time>2022-06-10T08:32:48Z</time>
      </trkpt>
      <trkpt lat="44.80572" lon="4.07947">
        <ele>990.2</ele>
        <time>2022-06-10T08:32:49Z</time>
      </trkpt>
      <trkpt lat="44.80573" lon="4.07943">
        <ele>990.5</ele>
        <time>2022-06-10T08:32:50Z</time>
      </trkpt>
      <trkpt lat="44.80572" lon="4.07935">
        <ele>990.8</ele>
        <time>2022-06-10T08:32:52Z</time>
      </trkpt>
      <trkpt lat="44.8057" lon="4.07931">
        <ele>991.1</ele>
        <time>2022-06-10T08:32:53Z</time>
      </trkpt>
      <trkpt lat="44.80567" lon="4.07928">
        <ele>991.3</ele>
        <time>2022-06-10T08:32:54Z</time>
      </trkpt>
      <trkpt lat="44.80564" lon="4.07925">
        <ele>991.5</ele>
        <time>2022-06-10T08:32:56Z</time>
      </trkpt>
      <trkpt lat="44.8056" lon="4.07922">
        <ele>991.7</ele>
        <time>2022-06-10T08:32:57Z</time>
      </trkpt>
      <trkpt lat="44.80556" lon="4.07921">
        <ele>991.9</ele>
        <time>2022-06-10T08:32:59Z</time>
      </trkpt>
      <trkpt lat="44.80553" lon="4.07922">
        <ele>992</ele>
        <time>2022-06-10T08:33:00Z</time>
      </trkpt>
      <trkpt lat="44.8055" lon="4.07926">
        <ele>992.2</ele>
        <time>2022-06-10T08:33:01Z</time>
      </trkpt>
      <trkpt lat="44.80547" lon="4.07931">
        <ele>992.3</ele>
        <time>2022-06-10T08:33:03Z</time>
      </trkpt>
      <trkpt lat="44.80546" lon="4.07935">
        <ele>992.4</ele>
        <time>2022-06-10T08:33:04Z</time>
      </trkpt>
      <trkpt lat="44.80545" lon="4.07938">
        <ele>992.5</ele>
        <time>2022-06-10T08:33:05Z</time>
      </trkpt>
      <trkpt lat="44.80544" lon="4.0794">
        <ele>992.5</ele>
        <time>2022-06-10T08:33:07Z</time>
      </trkpt>
      <trkpt lat="44.80545" lon="4.0794">
        <ele>992.5</ele>
        <time>2022-06-10T08:33:08Z</time>
      </trkpt>
      <trkpt lat="44.80545" lon="4.07939">
        <ele>992.5</ele>
        <time>2022-06-10T08:33:09Z</time>
      </trkpt>
      <trkpt lat="44.80545" lon="4.07939">
        <ele>992.5</ele>
        <time>2022-06-10T08:33:10Z</time>
      </trkpt>
      <trkpt lat="44.80545" lon="4.07939">
        <ele>992.5</ele>
        <time>2022-06-10T08:33:11Z</time>
      </trkpt>
      <trkpt lat="44.80545" lon="4.07939">
        <ele>992.5</ele>
        <time>2022-06-10T08:33:12Z</time>
      </trkpt>
      <trkpt lat="44.80545" lon="4.0794">
        <ele>992.5</ele>
        <time>2022-06-10T08:33:14Z</time>
      </trkpt>
      <trkpt lat="44.80546" lon="4.0794">
        <ele>992.5</ele>
        <time>2022-06-10T08:33:15Z</time>
      </trkpt>
      <trkpt lat="44.80546" lon="4.0794">
        <ele>992.6</ele>
        <time>2022-06-10T08:33:16Z</time>
      </trkpt>
      <trkpt lat="44.80546" lon="4.0794">
        <ele>992.6</ele>
        <time>2022-06-10T08:33:17Z</time>
      </trkpt>
      <trkpt lat="44.80541" lon="4.07938">
        <ele>992.7</ele>
        <time>2022-06-10T08:39:19Z</time>
      </trkpt>
      <trkpt lat="44.80539" lon="4.07939">
        <ele>992.8</ele>
        <time>2022-06-10T08:39:20Z</time>
      </trkpt>
      <trkpt lat="44.80537" lon="4.0794">
        <ele>992.8</ele>
        <time>2022-06-10T08:39:22Z</time>
      </trkpt>
      <trkpt lat="44.80534" lon="4.07942">
        <ele>993</ele>
        <time>2022-06-10T08:39:23Z</time>
      </trkpt>
      <trkpt lat="44.80532" lon="4.07942">
        <ele>993</ele>
        <time>2022-06-10T08:39:24Z</time>
      </trkpt>
      <trkpt lat="44.8053" lon="4.07945">
        <ele>993.1</ele>
        <time>2022-06-10T08:39:25Z</time>
      </trkpt>
      <trkpt lat="44.80526" lon="4.07947">
        <ele>993.3</ele>
        <time>2022-06-10T08:39:27Z</time>
      </trkpt>
      <trkpt lat="44.80524" lon="4.07948">
        <ele>993.4</ele>
        <time>2022-06-10T08:39:28Z</time>
      </trkpt>
      <trkpt lat="44.80521" lon="4.07949">
        <ele>993.5</ele>
        <time>2022-06-10T08:39:30Z</time>
      </trkpt>
      <trkpt lat="44.8052" lon="4.0795">
        <ele>993.5</ele>
        <time>2022-06-10T08:39:31Z</time>
      </trkpt>
      <trkpt lat="44.80518" lon="4.07952">
        <ele>993.6</ele>
        <time>2022-06-10T08:39:32Z</time>
      </trkpt>
      <trkpt lat="44.80517" lon="4.07953">
        <ele>993.7</ele>
        <time>2022-06-10T08:39:33Z</time>
      </trkpt>
      <trkpt lat="44.80515" lon="4.07955">
        <ele>993.8</ele>
        <time>2022-06-10T08:39:34Z</time>
      </trkpt>
      <trkpt lat="44.80514" lon="4.07956">
        <ele>993.9</ele>
        <time>2022-06-10T08:39:35Z</time>
      </trkpt>
      <trkpt lat="44.8051" lon="4.07958">
        <ele>994.1</ele>
        <time>2022-06-10T08:39:36Z</time>
      </trkpt>
      <trkpt lat="44.80507" lon="4.0796">
        <ele>994.3</ele>
        <time>2022-06-10T08:39:38Z</time>
      </trkpt>
      <trkpt lat="44.80505" lon="4.07961">
        <ele>994.4</ele>
        <time>2022-06-10T08:39:39Z</time>
      </trkpt>
      <trkpt lat="44.80504" lon="4.07962">
        <ele>994.5</ele>
        <time>2022-06-10T08:39:41Z</time>
      </trkpt>
      <trkpt lat="44.80503" lon="4.07963">
        <ele>994.5</ele>
        <time>2022-06-10T08:39:42Z</time>
      </trkpt>
      <trkpt lat="44.805" lon="4.07965">
        <ele>994.7</ele>
        <time>2022-06-10T08:39:43Z</time>
      </trkpt>
      <trkpt lat="44.80499" lon="4.07965">
        <ele>994.8</ele>
        <time>2022-06-10T08:39:44Z</time>
      </trkpt>
      <trkpt lat="44.80496" lon="4.07968">
        <ele>995</ele>
        <time>2022-06-10T08:39:46Z</time>
      </trkpt>
      <trkpt lat="44.80494" lon="4.07969">
        <ele>995.1</ele>
        <time>2022-06-10T08:39:47Z</time>
      </trkpt>
      <trkpt lat="44.80493" lon="4.0797">
        <ele>995.3</ele>
        <time>2022-06-10T08:39:48Z</time>
      </trkpt>
      <trkpt lat="44.8049" lon="4.07971">
        <ele>995.5</ele>
        <time>2022-06-10T08:39:49Z</time>
      </trkpt>
      <trkpt lat="44.80487" lon="4.07972">
        <ele>995.7</ele>
        <time>2022-06-10T08:39:50Z</time>
      </trkpt>
      <trkpt lat="44.80486" lon="4.07973">
        <ele>995.8</ele>
        <time>2022-06-10T08:39:51Z</time>
      </trkpt>
      <trkpt lat="44.80483" lon="4.07975">
        <ele>996</ele>
        <time>2022-06-10T08:39:53Z</time>
      </trkpt>
      <trkpt lat="44.80482" lon="4.07975">
        <ele>996.1</ele>
        <time>2022-06-10T08:39:54Z</time>
      </trkpt>
      <trkpt lat="44.8048" lon="4.07976">
        <ele>996.3</ele>
        <time>2022-06-10T08:39:55Z</time>
      </trkpt>
      <trkpt lat="44.80479" lon="4.07977">
        <ele>996.4</ele>
        <time>2022-06-10T08:39:56Z</time>
      </trkpt>
      <trkpt lat="44.80476" lon="4.07978">
        <ele>996.6</ele>
        <time>2022-06-10T08:39:57Z</time>
      </trkpt>
      <trkpt lat="44.80475" lon="4.07979">
        <ele>996.7</ele>
        <time>2022-06-10T08:39:58Z</time>
      </trkpt>
      <trkpt lat="44.80473" lon="4.07979">
        <ele>996.9</ele>
        <time>2022-06-10T08:40:00Z</time>
      </trkpt>
      <trkpt lat="44.80471" lon="4.0798">
        <ele>997</ele>
        <time>2022-06-10T08:40:01Z</time>
      </trkpt>
      <trkpt lat="44.8047" lon="4.07981">
        <ele>997.1</ele>
        <time>2022-06-10T08:40:02Z</time>
      </trkpt>
      <trkpt lat="44.80468" lon="4.07982">
        <ele>997.3</ele>
        <time>2022-06-10T08:40:03Z</time>
      </trkpt>
      <trkpt lat="44.80466" lon="4.07983">
        <ele>997.5</ele>
        <time>2022-06-10T08:40:05Z</time>
      </trkpt>
      <trkpt lat="44.80465" lon="4.07984">
        <ele>997.6</ele>
        <time>2022-06-10T08:40:06Z</time>
      </trkpt>
      <trkpt lat="44.80464" lon="4.07985">
        <ele>997.7</ele>
        <time>2022-06-10T08:40:07Z</time>
      </trkpt>
      <trkpt lat="44.80461" lon="4.07986">
        <ele>998</ele>
        <time>2022-06-10T08:40:08Z</time>
      </trkpt>
      <trkpt lat="44.8046" lon="4.07986">
        <ele>998.1</ele>
        <time>2022-06-10T08:40:09Z</time>
      </trkpt>
      <trkpt lat="44.80458" lon="4.07987">
        <ele>998.2</ele>
        <time>2022-06-10T08:40:11Z</time>
      </trkpt>
      <trkpt lat="44.80456" lon="4.07987">
        <ele>998.4</ele>
        <time>2022-06-10T08:40:12Z</time>
      </trkpt>
      <trkpt lat="44.80454" lon="4.07988">
        <ele>998.5</ele>
        <time>2022-06-10T08:40:13Z</time>
      </trkpt>
      <trkpt lat="44.80453" lon="4.07988">
        <ele>998.6</ele>
        <time>2022-06-10T08:40:14Z</time>
      </trkpt>
      <trkpt lat="44.8045" lon="4.0799">
        <ele>998.9</ele>
        <time>2022-06-10T08:40:15Z</time>
      </trkpt>
      <trkpt lat="44.80449" lon="4.07991">
        <ele>999</ele>
        <time>2022-06-10T08:40:16Z</time>
      </trkpt>
      <trkpt lat="44.80448" lon="4.07991">
        <ele>999.1</ele>
        <time>2022-06-10T08:40:17Z</time>
      </trkpt>
      <trkpt lat="44.80446" lon="4.07993">
        <ele>999.3</ele>
        <time>2022-06-10T08:40:19Z</time>
      </trkpt>
      <trkpt lat="44.80445" lon="4.07994">
        <ele>999.4</ele>
        <time>2022-06-10T08:40:20Z</time>
      </trkpt>
      <trkpt lat="44.80443" lon="4.07995">
        <ele>999.6</ele>
        <time>2022-06-10T08:40:21Z</time>
      </trkpt>
      <trkpt lat="44.80442" lon="4.07996">
        <ele>999.7</ele>
        <time>2022-06-10T08:40:22Z</time>
      </trkpt>
      <trkpt lat="44.80439" lon="4.07997">
        <ele>1000</ele>
        <time>2022-06-10T08:40:23Z</time>
      </trkpt>
      <trkpt lat="44.80437" lon="4.07998">
        <ele>1000.1</ele>
        <time>2022-06-10T08:40:25Z</time>
      </trkpt>
      <trkpt lat="44.80436" lon="4.07999">
        <ele>1000.3</ele>
        <time>2022-06-10T08:40:26Z</time>
      </trkpt>
      <trkpt lat="44.80434" lon="4.07999">
        <ele>1000.4</ele>
        <time>2022-06-10T08:40:27Z</time>
      </trkpt>
      <trkpt lat="44.80432" lon="4.08001">
        <ele>1000.6</ele>
        <time>2022-06-10T08:40:28Z</time>
      </trkpt>
      <trkpt lat="44.80431" lon="4.08001">
        <ele>1000.7</ele>
        <time>2022-06-10T08:40:29Z</time>
      </trkpt>
      <trkpt lat="44.80428" lon="4.08003">
        <ele>1001</ele>
        <time>2022-06-10T08:40:31Z</time>
      </trkpt>
      <trkpt lat="44.80426" lon="4.08004">
        <ele>1001.2</ele>
        <time>2022-06-10T08:40:32Z</time>
      </trkpt>
      <trkpt lat="44.80425" lon="4.08005">
        <ele>1001.3</ele>
        <time>2022-06-10T08:40:33Z</time>
      </trkpt>
      <trkpt lat="44.80423" lon="4.08006">
        <ele>1001.5</ele>
        <time>2022-06-10T08:40:34Z</time>
      </trkpt>
      <trkpt lat="44.80422" lon="4.08008">
        <ele>1001.6</ele>
        <time>2022-06-10T08:40:35Z</time>
      </trkpt>
      <trkpt lat="44.80419" lon="4.0801">
        <ele>1001.9</ele>
        <time>2022-06-10T08:40:37Z</time>
      </trkpt>
      <trkpt lat="44.80418" lon="4.08011">
        <ele>1002</ele>
        <time>2022-06-10T08:40:38Z</time>
      </trkpt>
      <trkpt lat="44.80416" lon="4.08012">
        <ele>1002.2</ele>
        <time>2022-06-10T08:40:39Z</time>
      </trkpt>
      <trkpt lat="44.80415" lon="4.08012">
        <ele>1002.3</ele>
        <time>2022-06-10T08:40:40Z</time>
      </trkpt>
      <trkpt lat="44.80413" lon="4.08013">
        <ele>1002.5</ele>
        <time>2022-06-10T08:40:41Z</time>
      </trkpt>
      <trkpt lat="44.80412" lon="4.08014">
        <ele>1002.7</ele>
        <time>2022-06-10T08:40:42Z</time>
      </trkpt>
      <trkpt lat="44.80411" lon="4.08015">
        <ele>1002.8</ele>
        <time>2022-06-10T08:40:43Z</time>
      </trkpt>
      <trkpt lat="44.80409" lon="4.08017">
        <ele>1003</ele>
        <time>2022-06-10T08:40:44Z</time>
      </trkpt>
      <trkpt lat="44.80408" lon="4.08018">
        <ele>1003.1</ele>
        <time>2022-06-10T08:40:45Z</time>
      </trkpt>
      <trkpt lat="44.80407" lon="4.08018">
        <ele>1003.2</ele>
        <time>2022-06-10T08:40:46Z</time>
      </trkpt>
      <trkpt lat="44.80406" lon="4.0802">
        <ele>1003.4</ele>
        <time>2022-06-10T08:40:47Z</time>
      </trkpt>
      <trkpt lat="44.80405" lon="4.08021">
        <ele>1003.5</ele>
        <time>2022-06-10T08:40:48Z</time>
      </trkpt>
      <trkpt lat="44.80404" lon="4.08021">
        <ele>1003.6</ele>
        <time>2022-06-10T08:40:49Z</time>
      </trkpt>
      <trkpt lat="44.80403" lon="4.08022">
        <ele>1003.7</ele>
        <time>2022-06-10T08:40:50Z</time>
      </trkpt>
      <trkpt lat="44.80402" lon="4.08024">
        <ele>1003.8</ele>
        <time>2022-06-10T08:40:51Z</time>
      </trkpt>
      <trkpt lat="44.804" lon="4.08025">
        <ele>1004.1</ele>
        <time>2022-06-10T08:40:52Z</time>
      </trkpt>
      <trkpt lat="44.80399" lon="4.08026">
        <ele>1004.2</ele>
        <time>2022-06-10T08:40:53Z</time>
      </trkpt>
      <trkpt lat="44.80398" lon="4.08026">
        <ele>1004.3</ele>
        <time>2022-06-10T08:40:54Z</time>
      </trkpt>
      <trkpt lat="44.80397" lon="4.08027">
        <ele>1004.4</ele>
        <time>2022-06-10T08:40:55Z</time>
      </trkpt>
      <trkpt lat="44.80396" lon="4.08028">
        <ele>1004.6</ele>
        <time>2022-06-10T08:40:56Z</time>
      </trkpt>
      <trkpt lat="44.80395" lon="4.08029">
        <ele>1004.7</ele>
        <time>2022-06-10T08:40:57Z</time>
      </trkpt>
      <trkpt lat="44.80394" lon="4.08032">
        <ele>1004.9</ele>
        <time>2022-06-10T08:40:58Z</time>
      </trkpt>
      <trkpt lat="44.80393" lon="4.08034">
        <ele>1005.1</ele>
        <time>2022-06-10T08:40:59Z</time>
      </trkpt>
      <trkpt lat="44.80392" lon="4.08035">
        <ele>1005.2</ele>
        <time>2022-06-10T08:41:01Z</time>
      </trkpt>
      <trkpt lat="44.80392" lon="4.08036">
        <ele>1005.3</ele>
        <time>2022-06-10T08:41:02Z</time>
      </trkpt>
      <trkpt lat="44.8039" lon="4.0804">
        <ele>1005.6</ele>
        <time>2022-06-10T08:41:04Z</time>
      </trkpt>
      <trkpt lat="44.80389" lon="4.08041">
        <ele>1005.7</ele>
        <time>2022-06-10T08:41:05Z</time>
      </trkpt>
      <trkpt lat="44.80388" lon="4.08043">
        <ele>1005.9</ele>
        <time>2022-06-10T08:41:06Z</time>
      </trkpt>
      <trkpt lat="44.80387" lon="4.08045">
        <ele>1006.2</ele>
        <time>2022-06-10T08:41:08Z</time>
      </trkpt>
      <trkpt lat="44.80384" lon="4.08048">
        <ele>1006.5</ele>
        <time>2022-06-10T08:41:09Z</time>
      </trkpt>
      <trkpt lat="44.80384" lon="4.08049">
        <ele>1006.6</ele>
        <time>2022-06-10T08:41:10Z</time>
      </trkpt>
      <trkpt lat="44.80383" lon="4.08052">
        <ele>1006.9</ele>
        <time>2022-06-10T08:41:12Z</time>
      </trkpt>
      <trkpt lat="44.80382" lon="4.08053">
        <ele>1007</ele>
        <time>2022-06-10T08:41:13Z</time>
      </trkpt>
      <trkpt lat="44.80381" lon="4.08054">
        <ele>1007.1</ele>
        <time>2022-06-10T08:41:14Z</time>
      </trkpt>
      <trkpt lat="44.8038" lon="4.08056">
        <ele>1007.3</ele>
        <time>2022-06-10T08:41:15Z</time>
      </trkpt>
      <trkpt lat="44.80379" lon="4.08057">
        <ele>1007.4</ele>
        <time>2022-06-10T08:41:17Z</time>
      </trkpt>
      <trkpt lat="44.80379" lon="4.08058">
        <ele>1007.5</ele>
        <time>2022-06-10T08:41:18Z</time>
      </trkpt>
      <trkpt lat="44.80378" lon="4.08059">
        <ele>1007.7</ele>
        <time>2022-06-10T08:41:19Z</time>
      </trkpt>
      <trkpt lat="44.80377" lon="4.0806">
        <ele>1007.8</ele>
        <time>2022-06-10T08:41:20Z</time>
      </trkpt>
      <trkpt lat="44.80376" lon="4.08061">
        <ele>1007.9</ele>
        <time>2022-06-10T08:41:21Z</time>
      </trkpt>
      <trkpt lat="44.80375" lon="4.08062">
        <ele>1008</ele>
        <time>2022-06-10T08:41:22Z</time>
      </trkpt>
      <trkpt lat="44.80375" lon="4.08063">
        <ele>1008.1</ele>
        <time>2022-06-10T08:41:23Z</time>
      </trkpt>
      <trkpt lat="44.80374" lon="4.08064">
        <ele>1008.3</ele>
        <time>2022-06-10T08:41:24Z</time>
      </trkpt>
      <trkpt lat="44.80373" lon="4.08066">
        <ele>1008.5</ele>
        <time>2022-06-10T08:41:25Z</time>
      </trkpt>
      <trkpt lat="44.80371" lon="4.08068">
        <ele>1008.7</ele>
        <time>2022-06-10T08:41:26Z</time>
      </trkpt>
      <trkpt lat="44.8037" lon="4.08068">
        <ele>1008.8</ele>
        <time>2022-06-10T08:41:27Z</time>
      </trkpt>
      <trkpt lat="44.8037" lon="4.08069">
        <ele>1008.9</ele>
        <time>2022-06-10T08:41:28Z</time>
      </trkpt>
      <trkpt lat="44.80369" lon="4.08071">
        <ele>1009</ele>
        <time>2022-06-10T08:41:29Z</time>
      </trkpt>
      <trkpt lat="44.80368" lon="4.08072">
        <ele>1009.2</ele>
        <time>2022-06-10T08:41:30Z</time>
      </trkpt>
      <trkpt lat="44.80367" lon="4.08074">
        <ele>1009.4</ele>
        <time>2022-06-10T08:41:31Z</time>
      </trkpt>
      <trkpt lat="44.80366" lon="4.08076">
        <ele>1009.5</ele>
        <time>2022-06-10T08:41:32Z</time>
      </trkpt>
      <trkpt lat="44.80364" lon="4.08078">
        <ele>1009.8</ele>
        <time>2022-06-10T08:41:33Z</time>
      </trkpt>
      <trkpt lat="44.80364" lon="4.08079">
        <ele>1009.9</ele>
        <time>2022-06-10T08:41:34Z</time>
      </trkpt>
      <trkpt lat="44.80363" lon="4.0808">
        <ele>1010</ele>
        <time>2022-06-10T08:41:35Z</time>
      </trkpt>
      <trkpt lat="44.80362" lon="4.08082">
        <ele>1010.3</ele>
        <time>2022-06-10T08:41:36Z</time>
      </trkpt>
      <trkpt lat="44.80361" lon="4.08083">
        <ele>1010.3</ele>
        <time>2022-06-10T08:41:37Z</time>
      </trkpt>
      <trkpt lat="44.8036" lon="4.08084">
        <ele>1010.4</ele>
        <time>2022-06-10T08:41:38Z</time>
      </trkpt>
      <trkpt lat="44.80359" lon="4.08085">
        <ele>1010.6</ele>
        <time>2022-06-10T08:41:39Z</time>
      </trkpt>
      <trkpt lat="44.80358" lon="4.08087">
        <ele>1010.8</ele>
        <time>2022-06-10T08:41:40Z</time>
      </trkpt>
      <trkpt lat="44.80357" lon="4.08089">
        <ele>1011</ele>
        <time>2022-06-10T08:41:41Z</time>
      </trkpt>
      <trkpt lat="44.80356" lon="4.08091">
        <ele>1011.1</ele>
        <time>2022-06-10T08:41:42Z</time>
      </trkpt>
      <trkpt lat="44.80355" lon="4.08094">
        <ele>1011.4</ele>
        <time>2022-06-10T08:41:43Z</time>
      </trkpt>
      <trkpt lat="44.80354" lon="4.08095">
        <ele>1011.5</ele>
        <time>2022-06-10T08:41:44Z</time>
      </trkpt>
      <trkpt lat="44.80353" lon="4.08097">
        <ele>1011.6</ele>
        <time>2022-06-10T08:41:45Z</time>
      </trkpt>
      <trkpt lat="44.80352" lon="4.08099">
        <ele>1011.8</ele>
        <time>2022-06-10T08:41:46Z</time>
      </trkpt>
      <trkpt lat="44.80351" lon="4.081">
        <ele>1011.9</ele>
        <time>2022-06-10T08:41:47Z</time>
      </trkpt>
      <trkpt lat="44.80349" lon="4.08101">
        <ele>1012.1</ele>
        <time>2022-06-10T08:41:48Z</time>
      </trkpt>
      <trkpt lat="44.80348" lon="4.08103">
        <ele>1012.3</ele>
        <time>2022-06-10T08:41:49Z</time>
      </trkpt>
      <trkpt lat="44.80347" lon="4.08104">
        <ele>1012.4</ele>
        <time>2022-06-10T08:41:50Z</time>
      </trkpt>
      <trkpt lat="44.80346" lon="4.08105">
        <ele>1012.6</ele>
        <time>2022-06-10T08:41:51Z</time>
      </trkpt>
      <trkpt lat="44.80344" lon="4.08107">
        <ele>1012.7</ele>
        <time>2022-06-10T08:41:52Z</time>
      </trkpt>
      <trkpt lat="44.80343" lon="4.08108">
        <ele>1012.9</ele>
        <time>2022-06-10T08:41:53Z</time>
      </trkpt>
      <trkpt lat="44.80342" lon="4.08109">
        <ele>1013</ele>
        <time>2022-06-10T08:41:54Z</time>
      </trkpt>
      <trkpt lat="44.80341" lon="4.0811">
        <ele>1013.1</ele>
        <time>2022-06-10T08:41:55Z</time>
      </trkpt>
      <trkpt lat="44.80339" lon="4.08113">
        <ele>1013.3</ele>
        <time>2022-06-10T08:41:56Z</time>
      </trkpt>
      <trkpt lat="44.80337" lon="4.08115">
        <ele>1013.6</ele>
        <time>2022-06-10T08:41:58Z</time>
      </trkpt>
      <trkpt lat="44.80337" lon="4.08116">
        <ele>1013.6</ele>
        <time>2022-06-10T08:41:59Z</time>
      </trkpt>
      <trkpt lat="44.80336" lon="4.08117">
        <ele>1013.8</ele>
        <time>2022-06-10T08:42:00Z</time>
      </trkpt>
      <trkpt lat="44.80334" lon="4.08118">
        <ele>1013.9</ele>
        <time>2022-06-10T08:42:01Z</time>
      </trkpt>
      <trkpt lat="44.80333" lon="4.0812">
        <ele>1014</ele>
        <time>2022-06-10T08:42:02Z</time>
      </trkpt>
      <trkpt lat="44.80332" lon="4.08121">
        <ele>1014.1</ele>
        <time>2022-06-10T08:42:03Z</time>
      </trkpt>
      <trkpt lat="44.80331" lon="4.08123">
        <ele>1014.3</ele>
        <time>2022-06-10T08:42:04Z</time>
      </trkpt>
      <trkpt lat="44.8033" lon="4.08125">
        <ele>1014.4</ele>
        <time>2022-06-10T08:42:05Z</time>
      </trkpt>
      <trkpt lat="44.80329" lon="4.08126">
        <ele>1014.5</ele>
        <time>2022-06-10T08:42:06Z</time>
      </trkpt>
      <trkpt lat="44.80328" lon="4.08127">
        <ele>1014.6</ele>
        <time>2022-06-10T08:42:07Z</time>
      </trkpt>
      <trkpt lat="44.80327" lon="4.08129">
        <ele>1014.8</ele>
        <time>2022-06-10T08:42:08Z</time>
      </trkpt>
      <trkpt lat="44.80326" lon="4.0813">
        <ele>1014.9</ele>
        <time>2022-06-10T08:42:09Z</time>
      </trkpt>
      <trkpt lat="44.80325" lon="4.08131">
        <ele>1015</ele>
        <time>2022-06-10T08:42:10Z</time>
      </trkpt>
      <trkpt lat="44.80323" lon="4.08132">
        <ele>1015.1</ele>
        <time>2022-06-10T08:42:11Z</time>
      </trkpt>
      <trkpt lat="44.80322" lon="4.08133">
        <ele>1015.2</ele>
        <time>2022-06-10T08:42:12Z</time>
      </trkpt>
      <trkpt lat="44.80322" lon="4.08134">
        <ele>1015.3</ele>
        <time>2022-06-10T08:42:13Z</time>
      </trkpt>
      <trkpt lat="44.8032" lon="4.08135">
        <ele>1015.4</ele>
        <time>2022-06-10T08:42:14Z</time>
      </trkpt>
      <trkpt lat="44.80319" lon="4.08136">
        <ele>1015.5</ele>
        <time>2022-06-10T08:42:15Z</time>
      </trkpt>
      <trkpt lat="44.80318" lon="4.08138">
        <ele>1015.7</ele>
        <time>2022-06-10T08:42:16Z</time>
      </trkpt>
      <trkpt lat="44.80317" lon="4.08139">
        <ele>1015.8</ele>
        <time>2022-06-10T08:42:17Z</time>
      </trkpt>
      <trkpt lat="44.80315" lon="4.0814">
        <ele>1015.9</ele>
        <time>2022-06-10T08:42:18Z</time>
      </trkpt>
      <trkpt lat="44.80314" lon="4.08142">
        <ele>1016</ele>
        <time>2022-06-10T08:42:19Z</time>
      </trkpt>
      <trkpt lat="44.80313" lon="4.08143">
        <ele>1016.1</ele>
        <time>2022-06-10T08:42:20Z</time>
      </trkpt>
      <trkpt lat="44.80312" lon="4.08144">
        <ele>1016.3</ele>
        <time>2022-06-10T08:42:21Z</time>
      </trkpt>
      <trkpt lat="44.80309" lon="4.08147">
        <ele>1016.2</ele>
        <time>2022-06-10T08:42:23Z</time>
      </trkpt>
      <trkpt lat="44.80306" lon="4.08149">
        <ele>1016.2</ele>
        <time>2022-06-10T08:42:24Z</time>
      </trkpt>
      <trkpt lat="44.80305" lon="4.0815">
        <ele>1016.1</ele>
        <time>2022-06-10T08:42:25Z</time>
      </trkpt>
      <trkpt lat="44.80303" lon="4.08152">
        <ele>1016.1</ele>
        <time>2022-06-10T08:42:26Z</time>
      </trkpt>
      <trkpt lat="44.80302" lon="4.08153">
        <ele>1016</ele>
        <time>2022-06-10T08:42:27Z</time>
      </trkpt>
      <trkpt lat="44.80299" lon="4.08156">
        <ele>1015.9</ele>
        <time>2022-06-10T08:42:28Z</time>
      </trkpt>
      <trkpt lat="44.80295" lon="4.08158">
        <ele>1015.8</ele>
        <time>2022-06-10T08:42:29Z</time>
      </trkpt>
      <trkpt lat="44.80293" lon="4.08161">
        <ele>1015.7</ele>
        <time>2022-06-10T08:42:30Z</time>
      </trkpt>
      <trkpt lat="44.8029" lon="4.08164">
        <ele>1015.6</ele>
        <time>2022-06-10T08:42:31Z</time>
      </trkpt>
      <trkpt lat="44.80286" lon="4.08168">
        <ele>1015.4</ele>
        <time>2022-06-10T08:42:32Z</time>
      </trkpt>
      <trkpt lat="44.80283" lon="4.08172">
        <ele>1015.2</ele>
        <time>2022-06-10T08:42:34Z</time>
      </trkpt>
      <trkpt lat="44.80277" lon="4.08178">
        <ele>1014.9</ele>
        <time>2022-06-10T08:42:35Z</time>
      </trkpt>
      <trkpt lat="44.80273" lon="4.08182">
        <ele>1014.7</ele>
        <time>2022-06-10T08:42:36Z</time>
      </trkpt>
      <trkpt lat="44.80269" lon="4.08186">
        <ele>1014.4</ele>
        <time>2022-06-10T08:42:37Z</time>
      </trkpt>
      <trkpt lat="44.80265" lon="4.08191">
        <ele>1014.2</ele>
        <time>2022-06-10T08:42:38Z</time>
      </trkpt>
      <trkpt lat="44.80261" lon="4.08197">
        <ele>1013.9</ele>
        <time>2022-06-10T08:42:39Z</time>
      </trkpt>
      <trkpt lat="44.80256" lon="4.08202">
        <ele>1013.7</ele>
        <time>2022-06-10T08:42:40Z</time>
      </trkpt>
      <trkpt lat="44.80252" lon="4.08208">
        <ele>1013.5</ele>
        <time>2022-06-10T08:42:41Z</time>
      </trkpt>
      <trkpt lat="44.80248" lon="4.08214">
        <ele>1013.2</ele>
        <time>2022-06-10T08:42:42Z</time>
      </trkpt>
      <trkpt lat="44.80243" lon="4.0822">
        <ele>1013</ele>
        <time>2022-06-10T08:42:43Z</time>
      </trkpt>
      <trkpt lat="44.80238" lon="4.08226">
        <ele>1012.7</ele>
        <time>2022-06-10T08:42:44Z</time>
      </trkpt>
      <trkpt lat="44.80234" lon="4.08233">
        <ele>1012.5</ele>
        <time>2022-06-10T08:42:45Z</time>
      </trkpt>
      <trkpt lat="44.80229" lon="4.08239">
        <ele>1012.2</ele>
        <time>2022-06-10T08:42:46Z</time>
      </trkpt>
      <trkpt lat="44.80224" lon="4.08245">
        <ele>1012</ele>
        <time>2022-06-10T08:42:47Z</time>
      </trkpt>
      <trkpt lat="44.80219" lon="4.08251">
        <ele>1011.7</ele>
        <time>2022-06-10T08:42:48Z</time>
      </trkpt>
      <trkpt lat="44.80213" lon="4.08257">
        <ele>1011.3</ele>
        <time>2022-06-10T08:42:49Z</time>
      </trkpt>
      <trkpt lat="44.80207" lon="4.08263">
        <ele>1011</ele>
        <time>2022-06-10T08:42:50Z</time>
      </trkpt>
      <trkpt lat="44.80201" lon="4.08269">
        <ele>1010.6</ele>
        <time>2022-06-10T08:42:51Z</time>
      </trkpt>
      <trkpt lat="44.80194" lon="4.08273">
        <ele>1010.2</ele>
        <time>2022-06-10T08:42:52Z</time>
      </trkpt>
      <trkpt lat="44.80187" lon="4.08278">
        <ele>1009.7</ele>
        <time>2022-06-10T08:42:53Z</time>
      </trkpt>
      <trkpt lat="44.8018" lon="4.08284">
        <ele>1009.3</ele>
        <time>2022-06-10T08:42:54Z</time>
      </trkpt>
      <trkpt lat="44.80173" lon="4.0829">
        <ele>1008.9</ele>
        <time>2022-06-10T08:42:55Z</time>
      </trkpt>
      <trkpt lat="44.80166" lon="4.08296">
        <ele>1008.5</ele>
        <time>2022-06-10T08:42:56Z</time>
      </trkpt>
      <trkpt lat="44.8016" lon="4.08303">
        <ele>1008.2</ele>
        <time>2022-06-10T08:42:57Z</time>
      </trkpt>
      <trkpt lat="44.80153" lon="4.08311">
        <ele>1007.8</ele>
        <time>2022-06-10T08:42:58Z</time>
      </trkpt>
      <trkpt lat="44.80147" lon="4.0832">
        <ele>1007.5</ele>
        <time>2022-06-10T08:42:59Z</time>
      </trkpt>
      <trkpt lat="44.80142" lon="4.0833">
        <ele>1007.2</ele>
        <time>2022-06-10T08:43:00Z</time>
      </trkpt>
      <trkpt lat="44.80136" lon="4.08339">
        <ele>1006.9</ele>
        <time>2022-06-10T08:43:01Z</time>
      </trkpt>
      <trkpt lat="44.80131" lon="4.08349">
        <ele>1006.5</ele>
        <time>2022-06-10T08:43:02Z</time>
      </trkpt>
      <trkpt lat="44.80125" lon="4.08359">
        <ele>1006.1</ele>
        <time>2022-06-10T08:43:03Z</time>
      </trkpt>
      <trkpt lat="44.8012" lon="4.08369">
        <ele>1005.8</ele>
        <time>2022-06-10T08:43:04Z</time>
      </trkpt>
      <trkpt lat="44.80115" lon="4.08379">
        <ele>1005.4</ele>
        <time>2022-06-10T08:43:05Z</time>
      </trkpt>
      <trkpt lat="44.80109" lon="4.08388">
        <ele>1005</ele>
        <time>2022-06-10T08:43:06Z</time>
      </trkpt>
      <trkpt lat="44.80103" lon="4.08397">
        <ele>1004.6</ele>
        <time>2022-06-10T08:43:07Z</time>
      </trkpt>
      <trkpt lat="44.80096" lon="4.08407">
        <ele>1004.2</ele>
        <time>2022-06-10T08:43:08Z</time>
      </trkpt>
      <trkpt lat="44.8009" lon="4.08416">
        <ele>1003.7</ele>
        <time>2022-06-10T08:43:09Z</time>
      </trkpt>
      <trkpt lat="44.80084" lon="4.08426">
        <ele>1003.2</ele>
        <time>2022-06-10T08:43:10Z</time>
      </trkpt>
      <trkpt lat="44.80078" lon="4.08435">
        <ele>1002.7</ele>
        <time>2022-06-10T08:43:11Z</time>
      </trkpt>
      <trkpt lat="44.80071" lon="4.08445">
        <ele>1002.2</ele>
        <time>2022-06-10T08:43:12Z</time>
      </trkpt>
      <trkpt lat="44.80065" lon="4.08455">
        <ele>1001.8</ele>
        <time>2022-06-10T08:43:13Z</time>
      </trkpt>
      <trkpt lat="44.80059" lon="4.08466">
        <ele>1001.3</ele>
        <time>2022-06-10T08:43:14Z</time>
      </trkpt>
      <trkpt lat="44.80053" lon="4.08476">
        <ele>1000.9</ele>
        <time>2022-06-10T08:43:15Z</time>
      </trkpt>
      <trkpt lat="44.80046" lon="4.08486">
        <ele>1000.5</ele>
        <time>2022-06-10T08:43:16Z</time>
      </trkpt>
      <trkpt lat="44.80039" lon="4.08495">
        <ele>1000.1</ele>
        <time>2022-06-10T08:43:17Z</time>
      </trkpt>
      <trkpt lat="44.80032" lon="4.08504">
        <ele>999.8</ele>
        <time>2022-06-10T08:43:18Z</time>
      </trkpt>
      <trkpt lat="44.80024" lon="4.08512">
        <ele>999.6</ele>
        <time>2022-06-10T08:43:19Z</time>
      </trkpt>
      <trkpt lat="44.80015" lon="4.08518">
        <ele>999.5</ele>
        <time>2022-06-10T08:43:20Z</time>
      </trkpt>
      <trkpt lat="44.80007" lon="4.08523">
        <ele>999.3</ele>
        <time>2022-06-10T08:43:21Z</time>
      </trkpt>
      <trkpt lat="44.79998" lon="4.08527">
        <ele>999.2</ele>
        <time>2022-06-10T08:43:22Z</time>
      </trkpt>
      <trkpt lat="44.7999" lon="4.0853">
        <ele>999.1</ele>
        <time>2022-06-10T08:43:23Z</time>
      </trkpt>
      <trkpt lat="44.79981" lon="4.08532">
        <ele>998.9</ele>
        <time>2022-06-10T08:43:24Z</time>
      </trkpt>
      <trkpt lat="44.79973" lon="4.08535">
        <ele>998.7</ele>
        <time>2022-06-10T08:43:25Z</time>
      </trkpt>
      <trkpt lat="44.79965" lon="4.08537">
        <ele>998.6</ele>
        <time>2022-06-10T08:43:26Z</time>
      </trkpt>
      <trkpt lat="44.79956" lon="4.08541">
        <ele>998.4</ele>
        <time>2022-06-10T08:43:27Z</time>
      </trkpt>
      <trkpt lat="44.79948" lon="4.08545">
        <ele>998.2</ele>
        <time>2022-06-10T08:43:28Z</time>
      </trkpt>
      <trkpt lat="44.79939" lon="4.0855">
        <ele>998.1</ele>
        <time>2022-06-10T08:43:29Z</time>
      </trkpt>
      <trkpt lat="44.79931" lon="4.08555">
        <ele>997.9</ele>
        <time>2022-06-10T08:43:30Z</time>
      </trkpt>
      <trkpt lat="44.79924" lon="4.08561">
        <ele>997.8</ele>
        <time>2022-06-10T08:43:31Z</time>
      </trkpt>
      <trkpt lat="44.79916" lon="4.08566">
        <ele>997.7</ele>
        <time>2022-06-10T08:43:32Z</time>
      </trkpt>
      <trkpt lat="44.79908" lon="4.08572">
        <ele>997.6</ele>
        <time>2022-06-10T08:43:33Z</time>
      </trkpt>
      <trkpt lat="44.79901" lon="4.08578">
        <ele>997.6</ele>
        <time>2022-06-10T08:43:34Z</time>
      </trkpt>
      <trkpt lat="44.79893" lon="4.08583">
        <ele>997.6</ele>
        <time>2022-06-10T08:43:35Z</time>
      </trkpt>
      <trkpt lat="44.79885" lon="4.08589">
        <ele>997.7</ele>
        <time>2022-06-10T08:43:36Z</time>
      </trkpt>
      <trkpt lat="44.79878" lon="4.08595">
        <ele>997.8</ele>
        <time>2022-06-10T08:43:37Z</time>
      </trkpt>
      <trkpt lat="44.79871" lon="4.08601">
        <ele>998.1</ele>
        <time>2022-06-10T08:43:38Z</time>
      </trkpt>
      <trkpt lat="44.79864" lon="4.08607">
        <ele>998.3</ele>
        <time>2022-06-10T08:43:39Z</time>
      </trkpt>
      <trkpt lat="44.79858" lon="4.08613">
        <ele>998.7</ele>
        <time>2022-06-10T08:43:40Z</time>
      </trkpt>
      <trkpt lat="44.79851" lon="4.08619">
        <ele>999</ele>
        <time>2022-06-10T08:43:41Z</time>
      </trkpt>
      <trkpt lat="44.79845" lon="4.08624">
        <ele>999.3</ele>
        <time>2022-06-10T08:43:42Z</time>
      </trkpt>
      <trkpt lat="44.79839" lon="4.08629">
        <ele>999.5</ele>
        <time>2022-06-10T08:43:43Z</time>
      </trkpt>
      <trkpt lat="44.79834" lon="4.08634">
        <ele>999.8</ele>
        <time>2022-06-10T08:43:44Z</time>
      </trkpt>
      <trkpt lat="44.7983" lon="4.0864">
        <ele>1000</ele>
        <time>2022-06-10T08:43:45Z</time>
      </trkpt>
      <trkpt lat="44.79827" lon="4.08647">
        <ele>1000.2</ele>
        <time>2022-06-10T08:43:46Z</time>
      </trkpt>
      <trkpt lat="44.79824" lon="4.08654">
        <ele>1000.3</ele>
        <time>2022-06-10T08:43:47Z</time>
      </trkpt>
      <trkpt lat="44.79821" lon="4.08661">
        <ele>1000.5</ele>
        <time>2022-06-10T08:43:48Z</time>
      </trkpt>
      <trkpt lat="44.79818" lon="4.08668">
        <ele>1000.7</ele>
        <time>2022-06-10T08:43:49Z</time>
      </trkpt>
      <trkpt lat="44.79815" lon="4.08675">
        <ele>1000.8</ele>
        <time>2022-06-10T08:43:50Z</time>
      </trkpt>
      <trkpt lat="44.79812" lon="4.08681">
        <ele>1001</ele>
        <time>2022-06-10T08:43:51Z</time>
      </trkpt>
      <trkpt lat="44.79809" lon="4.08687">
        <ele>1001.1</ele>
        <time>2022-06-10T08:43:52Z</time>
      </trkpt>
      <trkpt lat="44.79806" lon="4.08694">
        <ele>1001.2</ele>
        <time>2022-06-10T08:43:53Z</time>
      </trkpt>
      <trkpt lat="44.79804" lon="4.08699">
        <ele>1001.3</ele>
        <time>2022-06-10T08:43:54Z</time>
      </trkpt>
      <trkpt lat="44.79801" lon="4.08705">
        <ele>1001.3</ele>
        <time>2022-06-10T08:43:55Z</time>
      </trkpt>
      <trkpt lat="44.79799" lon="4.08711">
        <ele>1001.3</ele>
        <time>2022-06-10T08:43:56Z</time>
      </trkpt>
      <trkpt lat="44.79797" lon="4.08717">
        <ele>1001.2</ele>
        <time>2022-06-10T08:43:57Z</time>
      </trkpt>
      <trkpt lat="44.79796" lon="4.08721">
        <ele>1001.1</ele>
        <time>2022-06-10T08:43:58Z</time>
      </trkpt>
      <trkpt lat="44.79794" lon="4.08727">
        <ele>1001</ele>
        <time>2022-06-10T08:43:59Z</time>
      </trkpt>
      <trkpt lat="44.7979" lon="4.08734">
        <ele>1000.8</ele>
        <time>2022-06-10T08:44:00Z</time>
      </trkpt>
      <trkpt lat="44.79786" lon="4.0874">
        <ele>1000.6</ele>
        <time>2022-06-10T08:44:01Z</time>
      </trkpt>
      <trkpt lat="44.79782" lon="4.08746">
        <ele>1000.3</ele>
        <time>2022-06-10T08:44:02Z</time>
      </trkpt>
      <trkpt lat="44.79778" lon="4.08753">
        <ele>1000</ele>
        <time>2022-06-10T08:44:03Z</time>
      </trkpt>
      <trkpt lat="44.79773" lon="4.08759">
        <ele>999.7</ele>
        <time>2022-06-10T08:44:04Z</time>
      </trkpt>
      <trkpt lat="44.79769" lon="4.08766">
        <ele>999.3</ele>
        <time>2022-06-10T08:44:05Z</time>
      </trkpt>
      <trkpt lat="44.79764" lon="4.08772">
        <ele>998.9</ele>
        <time>2022-06-10T08:44:06Z</time>
      </trkpt>
      <trkpt lat="44.79759" lon="4.08779">
        <ele>998.4</ele>
        <time>2022-06-10T08:44:07Z</time>
      </trkpt>
      <trkpt lat="44.79754" lon="4.08786">
        <ele>997.9</ele>
        <time>2022-06-10T08:44:08Z</time>
      </trkpt>
      <trkpt lat="44.79748" lon="4.08793">
        <ele>997.3</ele>
        <time>2022-06-10T08:44:09Z</time>
      </trkpt>
      <trkpt lat="44.79741" lon="4.088">
        <ele>996.8</ele>
        <time>2022-06-10T08:44:10Z</time>
      </trkpt>
      <trkpt lat="44.79735" lon="4.08807">
        <ele>996.1</ele>
        <time>2022-06-10T08:44:11Z</time>
      </trkpt>
      <trkpt lat="44.79728" lon="4.08815">
        <ele>995.5</ele>
        <time>2022-06-10T08:44:12Z</time>
      </trkpt>
      <trkpt lat="44.79721" lon="4.08822">
        <ele>994.8</ele>
        <time>2022-06-10T08:44:13Z</time>
      </trkpt>
      <trkpt lat="44.79714" lon="4.0883">
        <ele>994.2</ele>
        <time>2022-06-10T08:44:14Z</time>
      </trkpt>
      <trkpt lat="44.79707" lon="4.08839">
        <ele>993.5</ele>
        <time>2022-06-10T08:44:15Z</time>
      </trkpt>
      <trkpt lat="44.797" lon="4.08848">
        <ele>992.7</ele>
        <time>2022-06-10T08:44:16Z</time>
      </trkpt>
      <trkpt lat="44.79692" lon="4.08857">
        <ele>991.9</ele>
        <time>2022-06-10T08:44:17Z</time>
      </trkpt>
      <trkpt lat="44.79684" lon="4.08866">
        <ele>991</ele>
        <time>2022-06-10T08:44:18Z</time>
      </trkpt>
      <trkpt lat="44.79676" lon="4.08875">
        <ele>990.2</ele>
        <time>2022-06-10T08:44:19Z</time>
      </trkpt>
      <trkpt lat="44.79667" lon="4.08884">
        <ele>989.3</ele>
        <time>2022-06-10T08:44:20Z</time>
      </trkpt>
      <trkpt lat="44.79658" lon="4.08892">
        <ele>988.4</ele>
        <time>2022-06-10T08:44:21Z</time>
      </trkpt>
      <trkpt lat="44.79648" lon="4.08899">
        <ele>987.6</ele>
        <time>2022-06-10T08:44:22Z</time>
      </trkpt>
      <trkpt lat="44.79638" lon="4.08907">
        <ele>986.6</ele>
        <time>2022-06-10T08:44:23Z</time>
      </trkpt>
      <trkpt lat="44.79628" lon="4.08914">
        <ele>985.6</ele>
        <time>2022-06-10T08:44:24Z</time>
      </trkpt>
      <trkpt lat="44.79618" lon="4.08923">
        <ele>984.5</ele>
        <time>2022-06-10T08:44:25Z</time>
      </trkpt>
      <trkpt lat="44.79608" lon="4.08931">
        <ele>983.5</ele>
        <time>2022-06-10T08:44:26Z</time>
      </trkpt>
      <trkpt lat="44.79599" lon="4.08941">
        <ele>982.4</ele>
        <time>2022-06-10T08:44:27Z</time>
      </trkpt>
      <trkpt lat="44.7959" lon="4.08953">
        <ele>981.4</ele>
        <time>2022-06-10T08:44:28Z</time>
      </trkpt>
      <trkpt lat="44.79583" lon="4.08966">
        <ele>980.4</ele>
        <time>2022-06-10T08:44:29Z</time>
      </trkpt>
      <trkpt lat="44.79576" lon="4.08982">
        <ele>979.6</ele>
        <time>2022-06-10T08:44:30Z</time>
      </trkpt>
      <trkpt lat="44.7957" lon="4.08997">
        <ele>979</ele>
        <time>2022-06-10T08:44:31Z</time>
      </trkpt>
      <trkpt lat="44.79564" lon="4.09013">
        <ele>978.6</ele>
        <time>2022-06-10T08:44:32Z</time>
      </trkpt>
      <trkpt lat="44.79558" lon="4.09028">
        <ele>978.4</ele>
        <time>2022-06-10T08:44:33Z</time>
      </trkpt>
      <trkpt lat="44.79553" lon="4.09042">
        <ele>978.3</ele>
        <time>2022-06-10T08:44:34Z</time>
      </trkpt>
      <trkpt lat="44.79549" lon="4.09056">
        <ele>978.2</ele>
        <time>2022-06-10T08:44:35Z</time>
      </trkpt>
      <trkpt lat="44.79545" lon="4.09071">
        <ele>978.1</ele>
        <time>2022-06-10T08:44:36Z</time>
      </trkpt>
      <trkpt lat="44.79542" lon="4.09085">
        <ele>978</ele>
        <time>2022-06-10T08:44:37Z</time>
      </trkpt>
      <trkpt lat="44.7954" lon="4.09099">
        <ele>978</ele>
        <time>2022-06-10T08:44:38Z</time>
      </trkpt>
      <trkpt lat="44.79538" lon="4.09112">
        <ele>978</ele>
        <time>2022-06-10T08:44:39Z</time>
      </trkpt>
      <trkpt lat="44.79536" lon="4.09125">
        <ele>978</ele>
        <time>2022-06-10T08:44:40Z</time>
      </trkpt>
      <trkpt lat="44.79533" lon="4.09137">
        <ele>978</ele>
        <time>2022-06-10T08:44:41Z</time>
      </trkpt>
      <trkpt lat="44.79529" lon="4.09148">
        <ele>977.9</ele>
        <time>2022-06-10T08:44:42Z</time>
      </trkpt>
      <trkpt lat="44.79524" lon="4.09158">
        <ele>978</ele>
        <time>2022-06-10T08:44:43Z</time>
      </trkpt>
      <trkpt lat="44.79518" lon="4.09167">
        <ele>978</ele>
        <time>2022-06-10T08:44:44Z</time>
      </trkpt>
      <trkpt lat="44.7951" lon="4.0917">
        <ele>978.1</ele>
        <time>2022-06-10T08:44:45Z</time>
      </trkpt>
      <trkpt lat="44.79502" lon="4.09172">
        <ele>978.2</ele>
        <time>2022-06-10T08:44:46Z</time>
      </trkpt>
      <trkpt lat="44.79494" lon="4.09174">
        <ele>978.4</ele>
        <time>2022-06-10T08:44:47Z</time>
      </trkpt>
      <trkpt lat="44.79487" lon="4.09178">
        <ele>978.5</ele>
        <time>2022-06-10T08:44:48Z</time>
      </trkpt>
      <trkpt lat="44.7948" lon="4.09182">
        <ele>978.7</ele>
        <time>2022-06-10T08:44:49Z</time>
      </trkpt>
      <trkpt lat="44.79475" lon="4.09188">
        <ele>978.9</ele>
        <time>2022-06-10T08:44:50Z</time>
      </trkpt>
      <trkpt lat="44.79469" lon="4.09193">
        <ele>979.1</ele>
        <time>2022-06-10T08:44:51Z</time>
      </trkpt>
      <trkpt lat="44.79463" lon="4.09199">
        <ele>979.3</ele>
        <time>2022-06-10T08:44:52Z</time>
      </trkpt>
      <trkpt lat="44.79458" lon="4.09205">
        <ele>979.6</ele>
        <time>2022-06-10T08:44:53Z</time>
      </trkpt>
      <trkpt lat="44.79453" lon="4.0921">
        <ele>979.9</ele>
        <time>2022-06-10T08:44:54Z</time>
      </trkpt>
      <trkpt lat="44.79448" lon="4.09215">
        <ele>980.2</ele>
        <time>2022-06-10T08:44:55Z</time>
      </trkpt>
      <trkpt lat="44.79444" lon="4.09221">
        <ele>980.6</ele>
        <time>2022-06-10T08:44:56Z</time>
      </trkpt>
      <trkpt lat="44.7944" lon="4.09226">
        <ele>980.9</ele>
        <time>2022-06-10T08:44:57Z</time>
      </trkpt>
      <trkpt lat="44.79436" lon="4.09231">
        <ele>981.2</ele>
        <time>2022-06-10T08:44:58Z</time>
      </trkpt>
      <trkpt lat="44.79433" lon="4.09236">
        <ele>981.5</ele>
        <time>2022-06-10T08:44:59Z</time>
      </trkpt>
      <trkpt lat="44.79429" lon="4.0924">
        <ele>981.8</ele>
        <time>2022-06-10T08:45:00Z</time>
      </trkpt>
      <trkpt lat="44.79426" lon="4.09244">
        <ele>982.1</ele>
        <time>2022-06-10T08:45:01Z</time>
      </trkpt>
      <trkpt lat="44.79423" lon="4.09249">
        <ele>982.3</ele>
        <time>2022-06-10T08:45:02Z</time>
      </trkpt>
      <trkpt lat="44.79419" lon="4.09252">
        <ele>982.6</ele>
        <time>2022-06-10T08:45:03Z</time>
      </trkpt>
      <trkpt lat="44.79417" lon="4.09255">
        <ele>982.8</ele>
        <time>2022-06-10T08:45:04Z</time>
      </trkpt>
      <trkpt lat="44.79414" lon="4.09258">
        <ele>983</ele>
        <time>2022-06-10T08:45:05Z</time>
      </trkpt>
      <trkpt lat="44.7941" lon="4.0926">
        <ele>983.2</ele>
        <time>2022-06-10T08:45:06Z</time>
      </trkpt>
      <trkpt lat="44.79406" lon="4.09263">
        <ele>983.4</ele>
        <time>2022-06-10T08:45:07Z</time>
      </trkpt>
      <trkpt lat="44.79402" lon="4.09265">
        <ele>983.6</ele>
        <time>2022-06-10T08:45:08Z</time>
      </trkpt>
      <trkpt lat="44.79398" lon="4.09266">
        <ele>983.8</ele>
        <time>2022-06-10T08:45:09Z</time>
      </trkpt>
      <trkpt lat="44.79394" lon="4.09268">
        <ele>983.9</ele>
        <time>2022-06-10T08:45:10Z</time>
      </trkpt>
      <trkpt lat="44.79388" lon="4.09269">
        <ele>984.1</ele>
        <time>2022-06-10T08:45:11Z</time>
      </trkpt>
      <trkpt lat="44.79383" lon="4.0927">
        <ele>984.3</ele>
        <time>2022-06-10T08:45:12Z</time>
      </trkpt>
      <trkpt lat="44.79378" lon="4.0927">
        <ele>984.4</ele>
        <time>2022-06-10T08:45:13Z</time>
      </trkpt>
      <trkpt lat="44.79373" lon="4.09269">
        <ele>984.5</ele>
        <time>2022-06-10T08:45:14Z</time>
      </trkpt>
      <trkpt lat="44.79368" lon="4.09269">
        <ele>984.6</ele>
        <time>2022-06-10T08:45:15Z</time>
      </trkpt>
      <trkpt lat="44.79363" lon="4.09268">
        <ele>984.7</ele>
        <time>2022-06-10T08:45:16Z</time>
      </trkpt>
      <trkpt lat="44.79358" lon="4.09268">
        <ele>984.7</ele>
        <time>2022-06-10T08:45:17Z</time>
      </trkpt>
      <trkpt lat="44.79353" lon="4.09267">
        <ele>984.8</ele>
        <time>2022-06-10T08:45:18Z</time>
      </trkpt>
      <trkpt lat="44.79348" lon="4.09267">
        <ele>984.9</ele>
        <time>2022-06-10T08:45:19Z</time>
      </trkpt>
      <trkpt lat="44.79343" lon="4.09267">
        <ele>984.9</ele>
        <time>2022-06-10T08:45:20Z</time>
      </trkpt>
      <trkpt lat="44.79339" lon="4.09267">
        <ele>985</ele>
        <time>2022-06-10T08:45:21Z</time>
      </trkpt>
      <trkpt lat="44.79334" lon="4.09268">
        <ele>985.1</ele>
        <time>2022-06-10T08:45:22Z</time>
      </trkpt>
      <trkpt lat="44.7933" lon="4.09269">
        <ele>985.2</ele>
        <time>2022-06-10T08:45:23Z</time>
      </trkpt>
      <trkpt lat="44.79327" lon="4.09271">
        <ele>985.3</ele>
        <time>2022-06-10T08:45:24Z</time>
      </trkpt>
      <trkpt lat="44.79322" lon="4.09272">
        <ele>985.3</ele>
        <time>2022-06-10T08:45:25Z</time>
      </trkpt>
      <trkpt lat="44.79318" lon="4.09274">
        <ele>985.4</ele>
        <time>2022-06-10T08:45:26Z</time>
      </trkpt>
      <trkpt lat="44.79314" lon="4.09277">
        <ele>985.5</ele>
        <time>2022-06-10T08:45:27Z</time>
      </trkpt>
      <trkpt lat="44.7931" lon="4.0928">
        <ele>985.6</ele>
        <time>2022-06-10T08:45:28Z</time>
      </trkpt>
      <trkpt lat="44.79305" lon="4.09285">
        <ele>985.8</ele>
        <time>2022-06-10T08:45:29Z</time>
      </trkpt>
      <trkpt lat="44.79302" lon="4.09288">
        <ele>985.9</ele>
        <time>2022-06-10T08:45:30Z</time>
      </trkpt>
      <trkpt lat="44.79294" lon="4.09297">
        <ele>986.1</ele>
        <time>2022-06-10T08:45:32Z</time>
      </trkpt>
      <trkpt lat="44.7929" lon="4.09302">
        <ele>986.1</ele>
        <time>2022-06-10T08:45:34Z</time>
      </trkpt>
      <trkpt lat="44.79286" lon="4.09309">
        <ele>986.3</ele>
        <time>2022-06-10T08:45:35Z</time>
      </trkpt>
      <trkpt lat="44.79283" lon="4.09314">
        <ele>986.3</ele>
        <time>2022-06-10T08:45:36Z</time>
      </trkpt>
      <trkpt lat="44.7928" lon="4.09319">
        <ele>986.4</ele>
        <time>2022-06-10T08:45:37Z</time>
      </trkpt>
      <trkpt lat="44.79276" lon="4.09324">
        <ele>986.5</ele>
        <time>2022-06-10T08:45:38Z</time>
      </trkpt>
      <trkpt lat="44.79272" lon="4.09328">
        <ele>986.7</ele>
        <time>2022-06-10T08:45:39Z</time>
      </trkpt>
      <trkpt lat="44.79266" lon="4.0933">
        <ele>986.8</ele>
        <time>2022-06-10T08:45:40Z</time>
      </trkpt>
      <trkpt lat="44.79261" lon="4.0933">
        <ele>986.9</ele>
        <time>2022-06-10T08:45:41Z</time>
      </trkpt>
      <trkpt lat="44.79257" lon="4.09328">
        <ele>987.1</ele>
        <time>2022-06-10T08:45:42Z</time>
      </trkpt>
      <trkpt lat="44.79252" lon="4.09325">
        <ele>987.3</ele>
        <time>2022-06-10T08:45:43Z</time>
      </trkpt>
      <trkpt lat="44.79248" lon="4.09322">
        <ele>987.5</ele>
        <time>2022-06-10T08:45:44Z</time>
      </trkpt>
      <trkpt lat="44.79246" lon="4.09316">
        <ele>987.8</ele>
        <time>2022-06-10T08:45:45Z</time>
      </trkpt>
      <trkpt lat="44.79245" lon="4.09314">
        <ele>987.9</ele>
        <time>2022-06-10T08:45:46Z</time>
      </trkpt>
      <trkpt lat="44.79243" lon="4.09308">
        <ele>988.1</ele>
        <time>2022-06-10T08:45:47Z</time>
      </trkpt>
      <trkpt lat="44.79241" lon="4.093">
        <ele>988.4</ele>
        <time>2022-06-10T08:45:48Z</time>
      </trkpt>
      <trkpt lat="44.79241" lon="4.09294">
        <ele>988.7</ele>
        <time>2022-06-10T08:45:50Z</time>
      </trkpt>
      <trkpt lat="44.7924" lon="4.09289">
        <ele>988.9</ele>
        <time>2022-06-10T08:45:51Z</time>
      </trkpt>
      <trkpt lat="44.79239" lon="4.09284">
        <ele>989.1</ele>
        <time>2022-06-10T08:45:52Z</time>
      </trkpt>
      <trkpt lat="44.79238" lon="4.0928">
        <ele>989.3</ele>
        <time>2022-06-10T08:45:53Z</time>
      </trkpt>
      <trkpt lat="44.79239" lon="4.09276">
        <ele>989.5</ele>
        <time>2022-06-10T08:45:55Z</time>
      </trkpt>
      <trkpt lat="44.79238" lon="4.09271">
        <ele>989.6</ele>
        <time>2022-06-10T08:45:56Z</time>
      </trkpt>
      <trkpt lat="44.79238" lon="4.09268">
        <ele>989.8</ele>
        <time>2022-06-10T08:45:57Z</time>
      </trkpt>
      <trkpt lat="44.79237" lon="4.09262">
        <ele>990</ele>
        <time>2022-06-10T08:45:59Z</time>
      </trkpt>
      <trkpt lat="44.79236" lon="4.09259">
        <ele>990.1</ele>
        <time>2022-06-10T08:46:01Z</time>
      </trkpt>
      <trkpt lat="44.79236" lon="4.09254">
        <ele>990.3</ele>
        <time>2022-06-10T08:46:02Z</time>
      </trkpt>
      <trkpt lat="44.79236" lon="4.09253">
        <ele>990.4</ele>
        <time>2022-06-10T08:46:03Z</time>
      </trkpt>
      <trkpt lat="44.79235" lon="4.09248">
        <ele>990.6</ele>
        <time>2022-06-10T08:46:04Z</time>
      </trkpt>
      <trkpt lat="44.79235" lon="4.09247">
        <ele>990.6</ele>
        <time>2022-06-10T08:46:05Z</time>
      </trkpt>
      <trkpt lat="44.79234" lon="4.09243">
        <ele>990.8</ele>
        <time>2022-06-10T08:46:06Z</time>
      </trkpt>
      <trkpt lat="44.79234" lon="4.09241">
        <ele>990.8</ele>
        <time>2022-06-10T08:46:07Z</time>
      </trkpt>
      <trkpt lat="44.79234" lon="4.09236">
        <ele>991</ele>
        <time>2022-06-10T08:46:08Z</time>
      </trkpt>
      <trkpt lat="44.79233" lon="4.09233">
        <ele>991</ele>
        <time>2022-06-10T08:46:09Z</time>
      </trkpt>
      <trkpt lat="44.79232" lon="4.09229">
        <ele>991.1</ele>
        <time>2022-06-10T08:46:11Z</time>
      </trkpt>
      <trkpt lat="44.79231" lon="4.09226">
        <ele>991.2</ele>
        <time>2022-06-10T08:46:12Z</time>
      </trkpt>
      <trkpt lat="44.7923" lon="4.09222">
        <ele>991.3</ele>
        <time>2022-06-10T08:46:13Z</time>
      </trkpt>
      <trkpt lat="44.7923" lon="4.09217">
        <ele>991.4</ele>
        <time>2022-06-10T08:46:14Z</time>
      </trkpt>
      <trkpt lat="44.7923" lon="4.09212">
        <ele>991.5</ele>
        <time>2022-06-10T08:46:16Z</time>
      </trkpt>
      <trkpt lat="44.79229" lon="4.09209">
        <ele>991.5</ele>
        <time>2022-06-10T08:46:17Z</time>
      </trkpt>
      <trkpt lat="44.79226" lon="4.09201">
        <ele>991.6</ele>
        <time>2022-06-10T08:46:19Z</time>
      </trkpt>
      <trkpt lat="44.79224" lon="4.09195">
        <ele>991.6</ele>
        <time>2022-06-10T08:46:20Z</time>
      </trkpt>
      <trkpt lat="44.79222" lon="4.09191">
        <ele>991.6</ele>
        <time>2022-06-10T08:46:22Z</time>
      </trkpt>
      <trkpt lat="44.79219" lon="4.09186">
        <ele>991.5</ele>
        <time>2022-06-10T08:46:23Z</time>
      </trkpt>
      <trkpt lat="44.79216" lon="4.0918">
        <ele>991.4</ele>
        <time>2022-06-10T08:46:24Z</time>
      </trkpt>
      <trkpt lat="44.79213" lon="4.09175">
        <ele>991.3</ele>
        <time>2022-06-10T08:46:26Z</time>
      </trkpt>
      <trkpt lat="44.79208" lon="4.09165">
        <ele>991</ele>
        <time>2022-06-10T08:46:28Z</time>
      </trkpt>
      <trkpt lat="44.79206" lon="4.09161">
        <ele>990.8</ele>
        <time>2022-06-10T08:46:29Z</time>
      </trkpt>
      <trkpt lat="44.79202" lon="4.09155">
        <ele>990.5</ele>
        <time>2022-06-10T08:46:30Z</time>
      </trkpt>
      <trkpt lat="44.79198" lon="4.09149">
        <ele>990.2</ele>
        <time>2022-06-10T08:46:31Z</time>
      </trkpt>
      <trkpt lat="44.79191" lon="4.09139">
        <ele>989.6</ele>
        <time>2022-06-10T08:46:33Z</time>
      </trkpt>
      <trkpt lat="44.79187" lon="4.09133">
        <ele>989.2</ele>
        <time>2022-06-10T08:46:34Z</time>
      </trkpt>
      <trkpt lat="44.79183" lon="4.09127">
        <ele>988.9</ele>
        <time>2022-06-10T08:46:35Z</time>
      </trkpt>
      <trkpt lat="44.7918" lon="4.09121">
        <ele>988.5</ele>
        <time>2022-06-10T08:46:36Z</time>
      </trkpt>
      <trkpt lat="44.79175" lon="4.09114">
        <ele>988.1</ele>
        <time>2022-06-10T08:46:37Z</time>
      </trkpt>
      <trkpt lat="44.79171" lon="4.09108">
        <ele>987.7</ele>
        <time>2022-06-10T08:46:38Z</time>
      </trkpt>
      <trkpt lat="44.79167" lon="4.09102">
        <ele>987.4</ele>
        <time>2022-06-10T08:46:39Z</time>
      </trkpt>
      <trkpt lat="44.79162" lon="4.09096">
        <ele>987</ele>
        <time>2022-06-10T08:46:40Z</time>
      </trkpt>
      <trkpt lat="44.79157" lon="4.09091">
        <ele>986.7</ele>
        <time>2022-06-10T08:46:41Z</time>
      </trkpt>
      <trkpt lat="44.79151" lon="4.09086">
        <ele>986.5</ele>
        <time>2022-06-10T08:46:42Z</time>
      </trkpt>
      <trkpt lat="44.79146" lon="4.09081">
        <ele>986.2</ele>
        <time>2022-06-10T08:46:43Z</time>
      </trkpt>
      <trkpt lat="44.7914" lon="4.09077">
        <ele>986.1</ele>
        <time>2022-06-10T08:46:44Z</time>
      </trkpt>
      <trkpt lat="44.79135" lon="4.09073">
        <ele>985.9</ele>
        <time>2022-06-10T08:46:45Z</time>
      </trkpt>
      <trkpt lat="44.79129" lon="4.09069">
        <ele>985.8</ele>
        <time>2022-06-10T08:46:46Z</time>
      </trkpt>
      <trkpt lat="44.79124" lon="4.09066">
        <ele>985.7</ele>
        <time>2022-06-10T08:46:47Z</time>
      </trkpt>
      <trkpt lat="44.79119" lon="4.09063">
        <ele>985.6</ele>
        <time>2022-06-10T08:46:48Z</time>
      </trkpt>
      <trkpt lat="44.79114" lon="4.09059">
        <ele>985.5</ele>
        <time>2022-06-10T08:46:49Z</time>
      </trkpt>
      <trkpt lat="44.79109" lon="4.09055">
        <ele>985.4</ele>
        <time>2022-06-10T08:46:50Z</time>
      </trkpt>
      <trkpt lat="44.79105" lon="4.09052">
        <ele>985.3</ele>
        <time>2022-06-10T08:46:51Z</time>
      </trkpt>
      <trkpt lat="44.791" lon="4.09049">
        <ele>985.2</ele>
        <time>2022-06-10T08:46:52Z</time>
      </trkpt>
      <trkpt lat="44.79094" lon="4.09046">
        <ele>985.1</ele>
        <time>2022-06-10T08:46:53Z</time>
      </trkpt>
      <trkpt lat="44.79089" lon="4.09044">
        <ele>985.1</ele>
        <time>2022-06-10T08:46:54Z</time>
      </trkpt>
      <trkpt lat="44.79084" lon="4.09041">
        <ele>985.1</ele>
        <time>2022-06-10T08:46:55Z</time>
      </trkpt>
      <trkpt lat="44.79079" lon="4.09038">
        <ele>985.2</ele>
        <time>2022-06-10T08:46:56Z</time>
      </trkpt>
      <trkpt lat="44.79073" lon="4.09035">
        <ele>985.2</ele>
        <time>2022-06-10T08:46:57Z</time>
      </trkpt>
      <trkpt lat="44.79068" lon="4.09033">
        <ele>985.3</ele>
        <time>2022-06-10T08:46:58Z</time>
      </trkpt>
      <trkpt lat="44.79063" lon="4.0903">
        <ele>985.4</ele>
        <time>2022-06-10T08:46:59Z</time>
      </trkpt>
      <trkpt lat="44.79058" lon="4.09027">
        <ele>985.4</ele>
        <time>2022-06-10T08:47:00Z</time>
      </trkpt>
      <trkpt lat="44.79054" lon="4.09023">
        <ele>985.5</ele>
        <time>2022-06-10T08:47:01Z</time>
      </trkpt>
      <trkpt lat="44.79049" lon="4.0902">
        <ele>985.6</ele>
        <time>2022-06-10T08:47:02Z</time>
      </trkpt>
      <trkpt lat="44.79045" lon="4.09016">
        <ele>985.6</ele>
        <time>2022-06-10T08:47:03Z</time>
      </trkpt>
      <trkpt lat="44.79041" lon="4.09012">
        <ele>985.7</ele>
        <time>2022-06-10T08:47:04Z</time>
      </trkpt>
      <trkpt lat="44.79037" lon="4.09008">
        <ele>985.8</ele>
        <time>2022-06-10T08:47:05Z</time>
      </trkpt>
      <trkpt lat="44.79032" lon="4.09004">
        <ele>985.9</ele>
        <time>2022-06-10T08:47:06Z</time>
      </trkpt>
      <trkpt lat="44.79028" lon="4.09001">
        <ele>985.9</ele>
        <time>2022-06-10T08:47:07Z</time>
      </trkpt>
      <trkpt lat="44.79024" lon="4.08998">
        <ele>986</ele>
        <time>2022-06-10T08:47:08Z</time>
      </trkpt>
      <trkpt lat="44.7902" lon="4.08996">
        <ele>986.1</ele>
        <time>2022-06-10T08:47:09Z</time>
      </trkpt>
      <trkpt lat="44.79015" lon="4.08994">
        <ele>986.1</ele>
        <time>2022-06-10T08:47:10Z</time>
      </trkpt>
      <trkpt lat="44.7901" lon="4.08991">
        <ele>986.2</ele>
        <time>2022-06-10T08:47:11Z</time>
      </trkpt>
      <trkpt lat="44.79007" lon="4.0899">
        <ele>986.2</ele>
        <time>2022-06-10T08:47:12Z</time>
      </trkpt>
      <trkpt lat="44.79003" lon="4.0899">
        <ele>986.3</ele>
        <time>2022-06-10T08:47:13Z</time>
      </trkpt>
      <trkpt lat="44.78997" lon="4.0899">
        <ele>986.4</ele>
        <time>2022-06-10T08:47:14Z</time>
      </trkpt>
      <trkpt lat="44.78991" lon="4.0899">
        <ele>986.4</ele>
        <time>2022-06-10T08:47:15Z</time>
      </trkpt>
      <trkpt lat="44.78987" lon="4.0899">
        <ele>986.4</ele>
        <time>2022-06-10T08:47:16Z</time>
      </trkpt>
      <trkpt lat="44.78981" lon="4.08989">
        <ele>986.5</ele>
        <time>2022-06-10T08:47:17Z</time>
      </trkpt>
      <trkpt lat="44.78976" lon="4.08988">
        <ele>986.5</ele>
        <time>2022-06-10T08:47:18Z</time>
      </trkpt>
      <trkpt lat="44.78971" lon="4.08987">
        <ele>986.6</ele>
        <time>2022-06-10T08:47:19Z</time>
      </trkpt>
      <trkpt lat="44.78966" lon="4.08986">
        <ele>986.7</ele>
        <time>2022-06-10T08:47:20Z</time>
      </trkpt>
      <trkpt lat="44.78961" lon="4.08985">
        <ele>986.7</ele>
        <time>2022-06-10T08:47:21Z</time>
      </trkpt>
      <trkpt lat="44.78956" lon="4.08985">
        <ele>986.8</ele>
        <time>2022-06-10T08:47:22Z</time>
      </trkpt>
      <trkpt lat="44.78952" lon="4.08984">
        <ele>986.9</ele>
        <time>2022-06-10T08:47:23Z</time>
      </trkpt>
      <trkpt lat="44.78947" lon="4.08982">
        <ele>987</ele>
        <time>2022-06-10T08:47:24Z</time>
      </trkpt>
      <trkpt lat="44.78943" lon="4.08981">
        <ele>987.1</ele>
        <time>2022-06-10T08:47:25Z</time>
      </trkpt>
      <trkpt lat="44.78938" lon="4.0898">
        <ele>987.2</ele>
        <time>2022-06-10T08:47:26Z</time>
      </trkpt>
      <trkpt lat="44.78934" lon="4.08979">
        <ele>987.4</ele>
        <time>2022-06-10T08:47:27Z</time>
      </trkpt>
      <trkpt lat="44.78929" lon="4.08979">
        <ele>987.5</ele>
        <time>2022-06-10T08:47:28Z</time>
      </trkpt>
      <trkpt lat="44.78926" lon="4.08979">
        <ele>987.6</ele>
        <time>2022-06-10T08:47:29Z</time>
      </trkpt>
      <trkpt lat="44.78923" lon="4.08979">
        <ele>987.8</ele>
        <time>2022-06-10T08:47:30Z</time>
      </trkpt>
      <trkpt lat="44.78918" lon="4.0898">
        <ele>988</ele>
        <time>2022-06-10T08:47:31Z</time>
      </trkpt>
      <trkpt lat="44.78914" lon="4.0898">
        <ele>988.1</ele>
        <time>2022-06-10T08:47:32Z</time>
      </trkpt>
      <trkpt lat="44.78911" lon="4.08981">
        <ele>988.3</ele>
        <time>2022-06-10T08:47:33Z</time>
      </trkpt>
      <trkpt lat="44.78905" lon="4.08985">
        <ele>988.7</ele>
        <time>2022-06-10T08:47:34Z</time>
      </trkpt>
      <trkpt lat="44.789" lon="4.08986">
        <ele>988.9</ele>
        <time>2022-06-10T08:47:36Z</time>
      </trkpt>
      <trkpt lat="44.78896" lon="4.08988">
        <ele>989.3</ele>
        <time>2022-06-10T08:47:37Z</time>
      </trkpt>
      <trkpt lat="44.78892" lon="4.0899">
        <ele>989.6</ele>
        <time>2022-06-10T08:47:38Z</time>
      </trkpt>
      <trkpt lat="44.78884" lon="4.08995">
        <ele>990.2</ele>
        <time>2022-06-10T08:47:40Z</time>
      </trkpt>
      <trkpt lat="44.78881" lon="4.08998">
        <ele>990.5</ele>
        <time>2022-06-10T08:47:42Z</time>
      </trkpt>
      <trkpt lat="44.78878" lon="4.09">
        <ele>990.8</ele>
        <time>2022-06-10T08:47:43Z</time>
      </trkpt>
      <trkpt lat="44.78876" lon="4.09002">
        <ele>991</ele>
        <time>2022-06-10T08:47:44Z</time>
      </trkpt>
      <trkpt lat="44.78874" lon="4.09004">
        <ele>991.2</ele>
        <time>2022-06-10T08:47:46Z</time>
      </trkpt>
      <trkpt lat="44.78872" lon="4.09007">
        <ele>991.5</ele>
        <time>2022-06-10T08:47:47Z</time>
      </trkpt>
      <trkpt lat="44.78869" lon="4.0901">
        <ele>991.7</ele>
        <time>2022-06-10T08:47:48Z</time>
      </trkpt>
      <trkpt lat="44.78868" lon="4.09013">
        <ele>991.9</ele>
        <time>2022-06-10T08:47:49Z</time>
      </trkpt>
      <trkpt lat="44.78866" lon="4.09015">
        <ele>992.2</ele>
        <time>2022-06-10T08:47:51Z</time>
      </trkpt>
      <trkpt lat="44.78863" lon="4.09019">
        <ele>992.5</ele>
        <time>2022-06-10T08:47:52Z</time>
      </trkpt>
      <trkpt lat="44.78862" lon="4.0902">
        <ele>992.6</ele>
        <time>2022-06-10T08:47:53Z</time>
      </trkpt>
      <trkpt lat="44.78859" lon="4.09023">
        <ele>992.9</ele>
        <time>2022-06-10T08:47:54Z</time>
      </trkpt>
      <trkpt lat="44.78857" lon="4.09026">
        <ele>993.2</ele>
        <time>2022-06-10T08:47:55Z</time>
      </trkpt>
      <trkpt lat="44.78855" lon="4.09029">
        <ele>993.5</ele>
        <time>2022-06-10T08:47:57Z</time>
      </trkpt>
      <trkpt lat="44.78852" lon="4.0903">
        <ele>993.8</ele>
        <time>2022-06-10T08:47:58Z</time>
      </trkpt>
      <trkpt lat="44.78849" lon="4.09032">
        <ele>994.1</ele>
        <time>2022-06-10T08:47:59Z</time>
      </trkpt>
      <trkpt lat="44.78848" lon="4.09033">
        <ele>994.2</ele>
        <time>2022-06-10T08:48:00Z</time>
      </trkpt>
      <trkpt lat="44.78846" lon="4.09034">
        <ele>994.4</ele>
        <time>2022-06-10T08:48:01Z</time>
      </trkpt>
      <trkpt lat="44.78844" lon="4.09036">
        <ele>994.6</ele>
        <time>2022-06-10T08:48:03Z</time>
      </trkpt>
      <trkpt lat="44.78841" lon="4.09038">
        <ele>994.9</ele>
        <time>2022-06-10T08:48:04Z</time>
      </trkpt>
      <trkpt lat="44.78841" lon="4.09038">
        <ele>995</ele>
        <time>2022-06-10T08:48:05Z</time>
      </trkpt>
      <trkpt lat="44.78839" lon="4.09039">
        <ele>995.1</ele>
        <time>2022-06-10T08:48:06Z</time>
      </trkpt>
      <trkpt lat="44.78837" lon="4.0904">
        <ele>995.3</ele>
        <time>2022-06-10T08:48:07Z</time>
      </trkpt>
      <trkpt lat="44.78834" lon="4.09042">
        <ele>995.6</ele>
        <time>2022-06-10T08:48:08Z</time>
      </trkpt>
      <trkpt lat="44.78833" lon="4.09042">
        <ele>995.7</ele>
        <time>2022-06-10T08:48:09Z</time>
      </trkpt>
      <trkpt lat="44.78831" lon="4.09043">
        <ele>995.9</ele>
        <time>2022-06-10T08:48:10Z</time>
      </trkpt>
      <trkpt lat="44.7883" lon="4.09044">
        <ele>996</ele>
        <time>2022-06-10T08:48:11Z</time>
      </trkpt>
      <trkpt lat="44.78827" lon="4.09045">
        <ele>996.3</ele>
        <time>2022-06-10T08:48:12Z</time>
      </trkpt>
      <trkpt lat="44.78826" lon="4.09046">
        <ele>996.4</ele>
        <time>2022-06-10T08:48:13Z</time>
      </trkpt>
      <trkpt lat="44.78824" lon="4.09047">
        <ele>996.6</ele>
        <time>2022-06-10T08:48:14Z</time>
      </trkpt>
      <trkpt lat="44.78823" lon="4.09047">
        <ele>996.7</ele>
        <time>2022-06-10T08:48:15Z</time>
      </trkpt>
      <trkpt lat="44.78818" lon="4.09048">
        <ele>997.1</ele>
        <time>2022-06-10T08:48:17Z</time>
      </trkpt>
      <trkpt lat="44.78816" lon="4.09049">
        <ele>997.2</ele>
        <time>2022-06-10T08:48:18Z</time>
      </trkpt>
      <trkpt lat="44.78815" lon="4.09049">
        <ele>997.4</ele>
        <time>2022-06-10T08:48:19Z</time>
      </trkpt>
      <trkpt lat="44.78812" lon="4.0905">
        <ele>997.6</ele>
        <time>2022-06-10T08:48:21Z</time>
      </trkpt>
      <trkpt lat="44.78811" lon="4.0905">
        <ele>997.7</ele>
        <time>2022-06-10T08:48:22Z</time>
      </trkpt>
      <trkpt lat="44.78808" lon="4.09051">
        <ele>998</ele>
        <time>2022-06-10T08:48:24Z</time>
      </trkpt>
      <trkpt lat="44.78807" lon="4.09052">
        <ele>998</ele>
        <time>2022-06-10T08:48:25Z</time>
      </trkpt>
      <trkpt lat="44.78805" lon="4.09051">
        <ele>998.2</ele>
        <time>2022-06-10T08:48:26Z</time>
      </trkpt>
      <trkpt lat="44.78804" lon="4.09051">
        <ele>998.3</ele>
        <time>2022-06-10T08:48:27Z</time>
      </trkpt>
      <trkpt lat="44.78804" lon="4.09051">
        <ele>998.4</ele>
        <time>2022-06-10T08:48:28Z</time>
      </trkpt>
      <trkpt lat="44.78802" lon="4.09051">
        <ele>998.6</ele>
        <time>2022-06-10T08:48:29Z</time>
      </trkpt>
      <trkpt lat="44.788" lon="4.09052">
        <ele>998.7</ele>
        <time>2022-06-10T08:48:30Z</time>
      </trkpt>
      <trkpt lat="44.78798" lon="4.09052">
        <ele>998.9</ele>
        <time>2022-06-10T08:48:32Z</time>
      </trkpt>
      <trkpt lat="44.78795" lon="4.09053">
        <ele>999.2</ele>
        <time>2022-06-10T08:48:34Z</time>
      </trkpt>
      <trkpt lat="44.78794" lon="4.09053">
        <ele>999.3</ele>
        <time>2022-06-10T08:48:35Z</time>
      </trkpt>
      <trkpt lat="44.78792" lon="4.09053">
        <ele>999.4</ele>
        <time>2022-06-10T08:48:36Z</time>
      </trkpt>
      <trkpt lat="44.78791" lon="4.09053">
        <ele>999.6</ele>
        <time>2022-06-10T08:48:37Z</time>
      </trkpt>
      <trkpt lat="44.78789" lon="4.09053">
        <ele>999.7</ele>
        <time>2022-06-10T08:48:38Z</time>
      </trkpt>
      <trkpt lat="44.78788" lon="4.09053">
        <ele>999.8</ele>
        <time>2022-06-10T08:48:39Z</time>
      </trkpt>
      <trkpt lat="44.78786" lon="4.09053">
        <ele>1000</ele>
        <time>2022-06-10T08:48:40Z</time>
      </trkpt>
      <trkpt lat="44.78784" lon="4.09054">
        <ele>1000.1</ele>
        <time>2022-06-10T08:48:41Z</time>
      </trkpt>
      <trkpt lat="44.78783" lon="4.09054">
        <ele>1000.2</ele>
        <time>2022-06-10T08:48:42Z</time>
      </trkpt>
      <trkpt lat="44.7878" lon="4.09054">
        <ele>1000.4</ele>
        <time>2022-06-10T08:48:43Z</time>
      </trkpt>
      <trkpt lat="44.78779" lon="4.09055">
        <ele>1000.6</ele>
        <time>2022-06-10T08:48:44Z</time>
      </trkpt>
      <trkpt lat="44.78778" lon="4.09055">
        <ele>1000.7</ele>
        <time>2022-06-10T08:48:45Z</time>
      </trkpt>
      <trkpt lat="44.78776" lon="4.09055">
        <ele>1000.8</ele>
        <time>2022-06-10T08:48:46Z</time>
      </trkpt>
      <trkpt lat="44.78774" lon="4.09055">
        <ele>1001</ele>
        <time>2022-06-10T08:48:48Z</time>
      </trkpt>
      <trkpt lat="44.78773" lon="4.09055">
        <ele>1001.1</ele>
        <time>2022-06-10T08:48:49Z</time>
      </trkpt>
      <trkpt lat="44.7877" lon="4.09055">
        <ele>1001.3</ele>
        <time>2022-06-10T08:48:50Z</time>
      </trkpt>
      <trkpt lat="44.78768" lon="4.09056">
        <ele>1001.5</ele>
        <time>2022-06-10T08:48:52Z</time>
      </trkpt>
      <trkpt lat="44.78764" lon="4.09057">
        <ele>1001.9</ele>
        <time>2022-06-10T08:48:54Z</time>
      </trkpt>
      <trkpt lat="44.78763" lon="4.09057">
        <ele>1002</ele>
        <time>2022-06-10T08:48:55Z</time>
      </trkpt>
      <trkpt lat="44.78762" lon="4.09057">
        <ele>1002.1</ele>
        <time>2022-06-10T08:48:56Z</time>
      </trkpt>
      <trkpt lat="44.78761" lon="4.09057">
        <ele>1002.1</ele>
        <time>2022-06-10T08:48:57Z</time>
      </trkpt>
      <trkpt lat="44.7876" lon="4.09057">
        <ele>1002.3</ele>
        <time>2022-06-10T08:48:58Z</time>
      </trkpt>
      <trkpt lat="44.78758" lon="4.09057">
        <ele>1002.4</ele>
        <time>2022-06-10T08:48:59Z</time>
      </trkpt>
      <trkpt lat="44.78755" lon="4.09057">
        <ele>1002.7</ele>
        <time>2022-06-10T08:49:00Z</time>
      </trkpt>
      <trkpt lat="44.78754" lon="4.09057">
        <ele>1002.8</ele>
        <time>2022-06-10T08:49:01Z</time>
      </trkpt>
      <trkpt lat="44.78751" lon="4.09058">
        <ele>1003.1</ele>
        <time>2022-06-10T08:49:03Z</time>
      </trkpt>
      <trkpt lat="44.7875" lon="4.09058">
        <ele>1003.1</ele>
        <time>2022-06-10T08:49:04Z</time>
      </trkpt>
      <trkpt lat="44.78747" lon="4.09059">
        <ele>1003.4</ele>
        <time>2022-06-10T08:49:05Z</time>
      </trkpt>
      <trkpt lat="44.78745" lon="4.09059">
        <ele>1003.6</ele>
        <time>2022-06-10T08:49:07Z</time>
      </trkpt>
      <trkpt lat="44.78744" lon="4.09059">
        <ele>1003.7</ele>
        <time>2022-06-10T08:49:08Z</time>
      </trkpt>
      <trkpt lat="44.78743" lon="4.09059">
        <ele>1003.8</ele>
        <time>2022-06-10T08:49:09Z</time>
      </trkpt>
      <trkpt lat="44.78741" lon="4.09059">
        <ele>1003.9</ele>
        <time>2022-06-10T08:49:10Z</time>
      </trkpt>
      <trkpt lat="44.7874" lon="4.0906">
        <ele>1004.1</ele>
        <time>2022-06-10T08:49:11Z</time>
      </trkpt>
      <trkpt lat="44.78738" lon="4.09059">
        <ele>1004.2</ele>
        <time>2022-06-10T08:49:12Z</time>
      </trkpt>
      <trkpt lat="44.78736" lon="4.09059">
        <ele>1004.4</ele>
        <time>2022-06-10T08:49:13Z</time>
      </trkpt>
      <trkpt lat="44.78735" lon="4.09059">
        <ele>1004.5</ele>
        <time>2022-06-10T08:49:14Z</time>
      </trkpt>
      <trkpt lat="44.78734" lon="4.09059">
        <ele>1004.6</ele>
        <time>2022-06-10T08:49:15Z</time>
      </trkpt>
      <trkpt lat="44.78733" lon="4.09059">
        <ele>1004.7</ele>
        <time>2022-06-10T08:49:16Z</time>
      </trkpt>
      <trkpt lat="44.78732" lon="4.09059">
        <ele>1004.9</ele>
        <time>2022-06-10T08:49:17Z</time>
      </trkpt>
      <trkpt lat="44.78729" lon="4.09058">
        <ele>1005.2</ele>
        <time>2022-06-10T08:49:18Z</time>
      </trkpt>
      <trkpt lat="44.78728" lon="4.09057">
        <ele>1005.3</ele>
        <time>2022-06-10T08:49:19Z</time>
      </trkpt>
      <trkpt lat="44.78726" lon="4.09056">
        <ele>1005.5</ele>
        <time>2022-06-10T08:49:21Z</time>
      </trkpt>
      <trkpt lat="44.78725" lon="4.09056">
        <ele>1005.6</ele>
        <time>2022-06-10T08:49:22Z</time>
      </trkpt>
      <trkpt lat="44.78722" lon="4.09055">
        <ele>1005.9</ele>
        <time>2022-06-10T08:49:24Z</time>
      </trkpt>
      <trkpt lat="44.7872" lon="4.09054">
        <ele>1006.2</ele>
        <time>2022-06-10T08:49:25Z</time>
      </trkpt>
      <trkpt lat="44.78719" lon="4.09053">
        <ele>1006.3</ele>
        <time>2022-06-10T08:49:27Z</time>
      </trkpt>
      <trkpt lat="44.78718" lon="4.09052">
        <ele>1006.4</ele>
        <time>2022-06-10T08:49:28Z</time>
      </trkpt>
      <trkpt lat="44.78717" lon="4.09052">
        <ele>1006.6</ele>
        <time>2022-06-10T08:49:29Z</time>
      </trkpt>
      <trkpt lat="44.78715" lon="4.09052">
        <ele>1006.7</ele>
        <time>2022-06-10T08:49:30Z</time>
      </trkpt>
      <trkpt lat="44.78714" lon="4.09051">
        <ele>1006.8</ele>
        <time>2022-06-10T08:49:31Z</time>
      </trkpt>
      <trkpt lat="44.78713" lon="4.09051">
        <ele>1007</ele>
        <time>2022-06-10T08:49:32Z</time>
      </trkpt>
      <trkpt lat="44.78711" lon="4.09051">
        <ele>1007.1</ele>
        <time>2022-06-10T08:49:33Z</time>
      </trkpt>
      <trkpt lat="44.7871" lon="4.0905">
        <ele>1007.3</ele>
        <time>2022-06-10T08:49:35Z</time>
      </trkpt>
      <trkpt lat="44.78708" lon="4.09049">
        <ele>1007.5</ele>
        <time>2022-06-10T08:49:36Z</time>
      </trkpt>
      <trkpt lat="44.78706" lon="4.09049">
        <ele>1007.7</ele>
        <time>2022-06-10T08:49:38Z</time>
      </trkpt>
      <trkpt lat="44.78703" lon="4.09047">
        <ele>1008</ele>
        <time>2022-06-10T08:49:39Z</time>
      </trkpt>
      <trkpt lat="44.78703" lon="4.09046">
        <ele>1008.1</ele>
        <time>2022-06-10T08:49:40Z</time>
      </trkpt>
      <trkpt lat="44.787" lon="4.09045">
        <ele>1008.3</ele>
        <time>2022-06-10T08:49:42Z</time>
      </trkpt>
      <trkpt lat="44.78699" lon="4.09045">
        <ele>1008.5</ele>
        <time>2022-06-10T08:49:43Z</time>
      </trkpt>
      <trkpt lat="44.78697" lon="4.09044">
        <ele>1008.6</ele>
        <time>2022-06-10T08:49:45Z</time>
      </trkpt>
      <trkpt lat="44.78696" lon="4.09043">
        <ele>1008.7</ele>
        <time>2022-06-10T08:49:46Z</time>
      </trkpt>
      <trkpt lat="44.78695" lon="4.09043">
        <ele>1008.8</ele>
        <time>2022-06-10T08:49:47Z</time>
      </trkpt>
      <trkpt lat="44.78694" lon="4.09042">
        <ele>1009</ele>
        <time>2022-06-10T08:49:48Z</time>
      </trkpt>
      <trkpt lat="44.78693" lon="4.09041">
        <ele>1009.1</ele>
        <time>2022-06-10T08:49:49Z</time>
      </trkpt>
      <trkpt lat="44.78692" lon="4.0904">
        <ele>1009.2</ele>
        <time>2022-06-10T08:49:50Z</time>
      </trkpt>
      <trkpt lat="44.78691" lon="4.0904">
        <ele>1009.4</ele>
        <time>2022-06-10T08:49:51Z</time>
      </trkpt>
      <trkpt lat="44.78689" lon="4.09039">
        <ele>1009.5</ele>
        <time>2022-06-10T08:49:52Z</time>
      </trkpt>
      <trkpt lat="44.78688" lon="4.09038">
        <ele>1009.6</ele>
        <time>2022-06-10T08:49:53Z</time>
      </trkpt>
      <trkpt lat="44.78686" lon="4.09038">
        <ele>1009.8</ele>
        <time>2022-06-10T08:49:54Z</time>
      </trkpt>
      <trkpt lat="44.78685" lon="4.09037">
        <ele>1009.9</ele>
        <time>2022-06-10T08:49:55Z</time>
      </trkpt>
      <trkpt lat="44.78684" lon="4.09037">
        <ele>1010</ele>
        <time>2022-06-10T08:49:56Z</time>
      </trkpt>
      <trkpt lat="44.78683" lon="4.09036">
        <ele>1010.2</ele>
        <time>2022-06-10T08:49:57Z</time>
      </trkpt>
      <trkpt lat="44.78681" lon="4.09035">
        <ele>1010.4</ele>
        <time>2022-06-10T08:49:58Z</time>
      </trkpt>
      <trkpt lat="44.78679" lon="4.09035">
        <ele>1010.5</ele>
        <time>2022-06-10T08:49:59Z</time>
      </trkpt>
      <trkpt lat="44.78678" lon="4.09034">
        <ele>1010.7</ele>
        <time>2022-06-10T08:50:00Z</time>
      </trkpt>
      <trkpt lat="44.78675" lon="4.09034">
        <ele>1011</ele>
        <time>2022-06-10T08:50:02Z</time>
      </trkpt>
      <trkpt lat="44.78673" lon="4.09033">
        <ele>1011.2</ele>
        <time>2022-06-10T08:50:03Z</time>
      </trkpt>
      <trkpt lat="44.78671" lon="4.09033">
        <ele>1011.5</ele>
        <time>2022-06-10T08:50:05Z</time>
      </trkpt>
      <trkpt lat="44.78669" lon="4.09033">
        <ele>1011.6</ele>
        <time>2022-06-10T08:50:06Z</time>
      </trkpt>
      <trkpt lat="44.78668" lon="4.09033">
        <ele>1011.8</ele>
        <time>2022-06-10T08:50:07Z</time>
      </trkpt>
      <trkpt lat="44.78666" lon="4.09032">
        <ele>1012</ele>
        <time>2022-06-10T08:50:08Z</time>
      </trkpt>
      <trkpt lat="44.78665" lon="4.09032">
        <ele>1012.1</ele>
        <time>2022-06-10T08:50:09Z</time>
      </trkpt>
      <trkpt lat="44.78664" lon="4.09032">
        <ele>1012.2</ele>
        <time>2022-06-10T08:50:10Z</time>
      </trkpt>
      <trkpt lat="44.78661" lon="4.09032">
        <ele>1012.5</ele>
        <time>2022-06-10T08:50:11Z</time>
      </trkpt>
      <trkpt lat="44.7866" lon="4.09032">
        <ele>1012.6</ele>
        <time>2022-06-10T08:50:12Z</time>
      </trkpt>
      <trkpt lat="44.78659" lon="4.09032">
        <ele>1012.7</ele>
        <time>2022-06-10T08:50:13Z</time>
      </trkpt>
      <trkpt lat="44.78658" lon="4.09031">
        <ele>1012.8</ele>
        <time>2022-06-10T08:50:14Z</time>
      </trkpt>
      <trkpt lat="44.78656" lon="4.09031">
        <ele>1013</ele>
        <time>2022-06-10T08:50:15Z</time>
      </trkpt>
      <trkpt lat="44.78654" lon="4.09032">
        <ele>1013.4</ele>
        <time>2022-06-10T08:50:16Z</time>
      </trkpt>
      <trkpt lat="44.78652" lon="4.09032">
        <ele>1013.5</ele>
        <time>2022-06-10T08:50:17Z</time>
      </trkpt>
      <trkpt lat="44.78651" lon="4.09033">
        <ele>1013.7</ele>
        <time>2022-06-10T08:50:18Z</time>
      </trkpt>
      <trkpt lat="44.7865" lon="4.09033">
        <ele>1013.8</ele>
        <time>2022-06-10T08:50:20Z</time>
      </trkpt>
      <trkpt lat="44.78647" lon="4.09034">
        <ele>1014.2</ele>
        <time>2022-06-10T08:50:22Z</time>
      </trkpt>
      <trkpt lat="44.78645" lon="4.09034">
        <ele>1014.3</ele>
        <time>2022-06-10T08:50:23Z</time>
      </trkpt>
      <trkpt lat="44.78645" lon="4.09034">
        <ele>1014.4</ele>
        <time>2022-06-10T08:50:24Z</time>
      </trkpt>
      <trkpt lat="44.78644" lon="4.09034">
        <ele>1014.5</ele>
        <time>2022-06-10T08:50:25Z</time>
      </trkpt>
      <trkpt lat="44.78642" lon="4.09035">
        <ele>1014.8</ele>
        <time>2022-06-10T08:50:26Z</time>
      </trkpt>
      <trkpt lat="44.78641" lon="4.09035">
        <ele>1014.9</ele>
        <time>2022-06-10T08:50:27Z</time>
      </trkpt>
      <trkpt lat="44.7864" lon="4.09036">
        <ele>1015</ele>
        <time>2022-06-10T08:50:28Z</time>
      </trkpt>
      <trkpt lat="44.78638" lon="4.09036">
        <ele>1015.2</ele>
        <time>2022-06-10T08:50:29Z</time>
      </trkpt>
      <trkpt lat="44.78637" lon="4.09036">
        <ele>1015.3</ele>
        <time>2022-06-10T08:50:30Z</time>
      </trkpt>
      <trkpt lat="44.78636" lon="4.09036">
        <ele>1015.4</ele>
        <time>2022-06-10T08:50:31Z</time>
      </trkpt>
      <trkpt lat="44.78633" lon="4.09037">
        <ele>1015.7</ele>
        <time>2022-06-10T08:50:33Z</time>
      </trkpt>
      <trkpt lat="44.78632" lon="4.09037">
        <ele>1015.8</ele>
        <time>2022-06-10T08:50:34Z</time>
      </trkpt>
      <trkpt lat="44.78631" lon="4.09038">
        <ele>1016</ele>
        <time>2022-06-10T08:50:35Z</time>
      </trkpt>
      <trkpt lat="44.78629" lon="4.09039">
        <ele>1016.2</ele>
        <time>2022-06-10T08:50:36Z</time>
      </trkpt>
      <trkpt lat="44.78628" lon="4.09039">
        <ele>1016.3</ele>
        <time>2022-06-10T08:50:37Z</time>
      </trkpt>
      <trkpt lat="44.78627" lon="4.0904">
        <ele>1016.4</ele>
        <time>2022-06-10T08:50:38Z</time>
      </trkpt>
      <trkpt lat="44.78626" lon="4.0904">
        <ele>1016.5</ele>
        <time>2022-06-10T08:50:39Z</time>
      </trkpt>
      <trkpt lat="44.78625" lon="4.0904">
        <ele>1016.6</ele>
        <time>2022-06-10T08:50:40Z</time>
      </trkpt>
      <trkpt lat="44.78623" lon="4.09041">
        <ele>1016.8</ele>
        <time>2022-06-10T08:50:42Z</time>
      </trkpt>
      <trkpt lat="44.78621" lon="4.09041">
        <ele>1017</ele>
        <time>2022-06-10T08:50:43Z</time>
      </trkpt>
      <trkpt lat="44.7862" lon="4.09042">
        <ele>1017.1</ele>
        <time>2022-06-10T08:50:44Z</time>
      </trkpt>
      <trkpt lat="44.78619" lon="4.09042">
        <ele>1017.2</ele>
        <time>2022-06-10T08:50:45Z</time>
      </trkpt>
      <trkpt lat="44.78618" lon="4.09042">
        <ele>1017.3</ele>
        <time>2022-06-10T08:50:46Z</time>
      </trkpt>
      <trkpt lat="44.78617" lon="4.09043">
        <ele>1017.4</ele>
        <time>2022-06-10T08:50:47Z</time>
      </trkpt>
      <trkpt lat="44.78615" lon="4.09043">
        <ele>1017.6</ele>
        <time>2022-06-10T08:50:48Z</time>
      </trkpt>
      <trkpt lat="44.78614" lon="4.09043">
        <ele>1017.6</ele>
        <time>2022-06-10T08:50:49Z</time>
      </trkpt>
      <trkpt lat="44.78613" lon="4.09043">
        <ele>1017.7</ele>
        <time>2022-06-10T08:50:50Z</time>
      </trkpt>
      <trkpt lat="44.78612" lon="4.09043">
        <ele>1017.8</ele>
        <time>2022-06-10T08:50:51Z</time>
      </trkpt>
      <trkpt lat="44.7861" lon="4.09043">
        <ele>1017.9</ele>
        <time>2022-06-10T08:50:52Z</time>
      </trkpt>
      <trkpt lat="44.78608" lon="4.09042">
        <ele>1018</ele>
        <time>2022-06-10T08:50:53Z</time>
      </trkpt>
      <trkpt lat="44.78605" lon="4.09042">
        <ele>1018.2</ele>
        <time>2022-06-10T08:50:54Z</time>
      </trkpt>
      <trkpt lat="44.78602" lon="4.09042">
        <ele>1018.4</ele>
        <time>2022-06-10T08:50:56Z</time>
      </trkpt>
      <trkpt lat="44.786" lon="4.09042">
        <ele>1018.5</ele>
        <time>2022-06-10T08:50:57Z</time>
      </trkpt>
      <trkpt lat="44.78599" lon="4.09042">
        <ele>1018.6</ele>
        <time>2022-06-10T08:50:58Z</time>
      </trkpt>
      <trkpt lat="44.78596" lon="4.09041">
        <ele>1018.7</ele>
        <time>2022-06-10T08:50:59Z</time>
      </trkpt>
      <trkpt lat="44.78595" lon="4.09041">
        <ele>1018.7</ele>
        <time>2022-06-10T08:51:00Z</time>
      </trkpt>
      <trkpt lat="44.78591" lon="4.09041">
        <ele>1018.9</ele>
        <time>2022-06-10T08:51:01Z</time>
      </trkpt>
      <trkpt lat="44.78588" lon="4.0904">
        <ele>1019</ele>
        <time>2022-06-10T08:51:03Z</time>
      </trkpt>
      <trkpt lat="44.78586" lon="4.09039">
        <ele>1019</ele>
        <time>2022-06-10T08:51:04Z</time>
      </trkpt>
      <trkpt lat="44.78584" lon="4.09039">
        <ele>1019</ele>
        <time>2022-06-10T08:51:06Z</time>
      </trkpt>
      <trkpt lat="44.78583" lon="4.09039">
        <ele>1019.1</ele>
        <time>2022-06-10T08:51:07Z</time>
      </trkpt>
      <trkpt lat="44.78581" lon="4.09039">
        <ele>1019.1</ele>
        <time>2022-06-10T08:51:08Z</time>
      </trkpt>
      <trkpt lat="44.7858" lon="4.09039">
        <ele>1019.1</ele>
        <time>2022-06-10T08:51:09Z</time>
      </trkpt>
      <trkpt lat="44.78577" lon="4.09039">
        <ele>1019.1</ele>
        <time>2022-06-10T08:51:10Z</time>
      </trkpt>
      <trkpt lat="44.78576" lon="4.09039">
        <ele>1019.1</ele>
        <time>2022-06-10T08:51:11Z</time>
      </trkpt>
      <trkpt lat="44.78572" lon="4.09039">
        <ele>1019.1</ele>
        <time>2022-06-10T08:51:12Z</time>
      </trkpt>
      <trkpt lat="44.7857" lon="4.09039">
        <ele>1019.1</ele>
        <time>2022-06-10T08:51:13Z</time>
      </trkpt>
      <trkpt lat="44.78567" lon="4.0904">
        <ele>1019.1</ele>
        <time>2022-06-10T08:51:15Z</time>
      </trkpt>
      <trkpt lat="44.78565" lon="4.0904">
        <ele>1019.1</ele>
        <time>2022-06-10T08:51:16Z</time>
      </trkpt>
      <trkpt lat="44.78561" lon="4.0904">
        <ele>1019.1</ele>
        <time>2022-06-10T08:51:17Z</time>
      </trkpt>
      <trkpt lat="44.7856" lon="4.0904">
        <ele>1019.1</ele>
        <time>2022-06-10T08:51:18Z</time>
      </trkpt>
      <trkpt lat="44.78555" lon="4.0904">
        <ele>1019</ele>
        <time>2022-06-10T08:51:19Z</time>
      </trkpt>
      <trkpt lat="44.78551" lon="4.09039">
        <ele>1018.9</ele>
        <time>2022-06-10T08:51:21Z</time>
      </trkpt>
      <trkpt lat="44.78544" lon="4.09039">
        <ele>1018.8</ele>
        <time>2022-06-10T08:51:22Z</time>
      </trkpt>
      <trkpt lat="44.7854" lon="4.0904">
        <ele>1018.7</ele>
        <time>2022-06-10T08:51:23Z</time>
      </trkpt>
      <trkpt lat="44.78536" lon="4.09042">
        <ele>1018.7</ele>
        <time>2022-06-10T08:51:25Z</time>
      </trkpt>
      <trkpt lat="44.78533" lon="4.09044">
        <ele>1018.6</ele>
        <time>2022-06-10T08:51:26Z</time>
      </trkpt>
      <trkpt lat="44.78529" lon="4.09046">
        <ele>1018.5</ele>
        <time>2022-06-10T08:51:27Z</time>
      </trkpt>
      <trkpt lat="44.78526" lon="4.09047">
        <ele>1018.5</ele>
        <time>2022-06-10T08:51:28Z</time>
      </trkpt>
      <trkpt lat="44.78523" lon="4.09048">
        <ele>1018.4</ele>
        <time>2022-06-10T08:51:29Z</time>
      </trkpt>
      <trkpt lat="44.7852" lon="4.09049">
        <ele>1018.3</ele>
        <time>2022-06-10T08:51:30Z</time>
      </trkpt>
      <trkpt lat="44.78516" lon="4.09051">
        <ele>1018.2</ele>
        <time>2022-06-10T08:51:31Z</time>
      </trkpt>
      <trkpt lat="44.78515" lon="4.09051">
        <ele>1018.2</ele>
        <time>2022-06-10T08:51:32Z</time>
      </trkpt>
      <trkpt lat="44.78513" lon="4.09052">
        <ele>1018.2</ele>
        <time>2022-06-10T08:51:33Z</time>
      </trkpt>
      <trkpt lat="44.78512" lon="4.09053">
        <ele>1018.1</ele>
        <time>2022-06-10T08:51:34Z</time>
      </trkpt>
      <trkpt lat="44.78512" lon="4.09053">
        <ele>1018.1</ele>
        <time>2022-06-10T08:51:35Z</time>
      </trkpt>
      <trkpt lat="44.78512" lon="4.09053">
        <ele>1018.1</ele>
        <time>2022-06-10T08:51:36Z</time>
      </trkpt>
      <trkpt lat="44.78512" lon="4.09053">
        <ele>1018.1</ele>
        <time>2022-06-10T08:51:37Z</time>
      </trkpt>
      <trkpt lat="44.78512" lon="4.09053">
        <ele>1018.1</ele>
        <time>2022-06-10T08:51:38Z</time>
      </trkpt>
      <trkpt lat="44.78512" lon="4.09053">
        <ele>1018.1</ele>
        <time>2022-06-10T08:51:39Z</time>
      </trkpt>
      <trkpt lat="44.78512" lon="4.09053">
        <ele>1018.1</ele>
        <time>2022-06-10T08:51:40Z</time>
      </trkpt>
      <trkpt lat="44.78512" lon="4.09053">
        <ele>1018.1</ele>
        <time>2022-06-10T08:51:41Z</time>
      </trkpt>
      <trkpt lat="44.78513" lon="4.09053">
        <ele>1018.1</ele>
        <time>2022-06-10T08:51:43Z</time>
      </trkpt>
      <trkpt lat="44.78513" lon="4.09053">
        <ele>1018.1</ele>
        <time>2022-06-10T08:51:44Z</time>
      </trkpt>
      <trkpt lat="44.78513" lon="4.09053">
        <ele>1018.1</ele>
        <time>2022-06-10T08:51:45Z</time>
      </trkpt>
      <trkpt lat="44.78513" lon="4.09053">
        <ele>1018.1</ele>
        <time>2022-06-10T08:51:46Z</time>
      </trkpt>
      <trkpt lat="44.78509" lon="4.09055">
        <ele>1018</ele>
        <time>2022-06-10T08:52:25Z</time>
      </trkpt>
      <trkpt lat="44.78506" lon="4.09057">
        <ele>1017.9</ele>
        <time>2022-06-10T08:52:26Z</time>
      </trkpt>
      <trkpt lat="44.785" lon="4.09062">
        <ele>1017.8</ele>
        <time>2022-06-10T08:52:27Z</time>
      </trkpt>
      <trkpt lat="44.78497" lon="4.09064">
        <ele>1017.7</ele>
        <time>2022-06-10T08:52:28Z</time>
      </trkpt>
      <trkpt lat="44.78493" lon="4.09067">
        <ele>1017.6</ele>
        <time>2022-06-10T08:52:29Z</time>
      </trkpt>
      <trkpt lat="44.78485" lon="4.09072">
        <ele>1017.5</ele>
        <time>2022-06-10T08:52:31Z</time>
      </trkpt>
      <trkpt lat="44.78481" lon="4.09075">
        <ele>1017.4</ele>
        <time>2022-06-10T08:52:33Z</time>
      </trkpt>
      <trkpt lat="44.78476" lon="4.09078">
        <ele>1017.3</ele>
        <time>2022-06-10T08:52:34Z</time>
      </trkpt>
      <trkpt lat="44.78473" lon="4.09081">
        <ele>1017.2</ele>
        <time>2022-06-10T08:52:35Z</time>
      </trkpt>
      <trkpt lat="44.78469" lon="4.09086">
        <ele>1017.1</ele>
        <time>2022-06-10T08:52:36Z</time>
      </trkpt>
      <trkpt lat="44.78466" lon="4.09091">
        <ele>1017.1</ele>
        <time>2022-06-10T08:52:37Z</time>
      </trkpt>
      <trkpt lat="44.78462" lon="4.09096">
        <ele>1017</ele>
        <time>2022-06-10T08:52:38Z</time>
      </trkpt>
      <trkpt lat="44.78458" lon="4.09102">
        <ele>1016.9</ele>
        <time>2022-06-10T08:52:39Z</time>
      </trkpt>
      <trkpt lat="44.78455" lon="4.09107">
        <ele>1016.9</ele>
        <time>2022-06-10T08:52:40Z</time>
      </trkpt>
      <trkpt lat="44.78452" lon="4.09113">
        <ele>1016.8</ele>
        <time>2022-06-10T08:52:41Z</time>
      </trkpt>
      <trkpt lat="44.78449" lon="4.09118">
        <ele>1016.8</ele>
        <time>2022-06-10T08:52:42Z</time>
      </trkpt>
      <trkpt lat="44.78446" lon="4.09124">
        <ele>1016.8</ele>
        <time>2022-06-10T08:52:43Z</time>
      </trkpt>
      <trkpt lat="44.78443" lon="4.0913">
        <ele>1016.8</ele>
        <time>2022-06-10T08:52:44Z</time>
      </trkpt>
      <trkpt lat="44.78441" lon="4.09136">
        <ele>1016.8</ele>
        <time>2022-06-10T08:52:45Z</time>
      </trkpt>
      <trkpt lat="44.78439" lon="4.09142">
        <ele>1016.8</ele>
        <time>2022-06-10T08:52:46Z</time>
      </trkpt>
      <trkpt lat="44.78437" lon="4.09148">
        <ele>1016.8</ele>
        <time>2022-06-10T08:52:47Z</time>
      </trkpt>
      <trkpt lat="44.78435" lon="4.09154">
        <ele>1016.8</ele>
        <time>2022-06-10T08:52:48Z</time>
      </trkpt>
      <trkpt lat="44.78433" lon="4.0916">
        <ele>1016.8</ele>
        <time>2022-06-10T08:52:49Z</time>
      </trkpt>
      <trkpt lat="44.78432" lon="4.09164">
        <ele>1016.8</ele>
        <time>2022-06-10T08:52:50Z</time>
      </trkpt>
      <trkpt lat="44.78431" lon="4.09169">
        <ele>1016.7</ele>
        <time>2022-06-10T08:52:51Z</time>
      </trkpt>
      <trkpt lat="44.7843" lon="4.09174">
        <ele>1016.7</ele>
        <time>2022-06-10T08:52:52Z</time>
      </trkpt>
      <trkpt lat="44.78429" lon="4.09181">
        <ele>1016.7</ele>
        <time>2022-06-10T08:52:53Z</time>
      </trkpt>
      <trkpt lat="44.78428" lon="4.09186">
        <ele>1016.7</ele>
        <time>2022-06-10T08:52:54Z</time>
      </trkpt>
      <trkpt lat="44.78427" lon="4.09194">
        <ele>1016.6</ele>
        <time>2022-06-10T08:52:55Z</time>
      </trkpt>
      <trkpt lat="44.78426" lon="4.09198">
        <ele>1016.6</ele>
        <time>2022-06-10T08:52:56Z</time>
      </trkpt>
      <trkpt lat="44.78425" lon="4.09206">
        <ele>1016.6</ele>
        <time>2022-06-10T08:52:57Z</time>
      </trkpt>
      <trkpt lat="44.78425" lon="4.09214">
        <ele>1016.6</ele>
        <time>2022-06-10T08:52:58Z</time>
      </trkpt>
      <trkpt lat="44.78424" lon="4.0922">
        <ele>1016.5</ele>
        <time>2022-06-10T08:52:59Z</time>
      </trkpt>
      <trkpt lat="44.78424" lon="4.09227">
        <ele>1016.5</ele>
        <time>2022-06-10T08:53:00Z</time>
      </trkpt>
      <trkpt lat="44.78424" lon="4.09234">
        <ele>1016.5</ele>
        <time>2022-06-10T08:53:01Z</time>
      </trkpt>
      <trkpt lat="44.78424" lon="4.09241">
        <ele>1016.5</ele>
        <time>2022-06-10T08:53:02Z</time>
      </trkpt>
      <trkpt lat="44.78424" lon="4.09248">
        <ele>1016.5</ele>
        <time>2022-06-10T08:53:03Z</time>
      </trkpt>
      <trkpt lat="44.78425" lon="4.09255">
        <ele>1016.5</ele>
        <time>2022-06-10T08:53:04Z</time>
      </trkpt>
      <trkpt lat="44.78426" lon="4.09262">
        <ele>1016.4</ele>
        <time>2022-06-10T08:53:05Z</time>
      </trkpt>
      <trkpt lat="44.78427" lon="4.09268">
        <ele>1016.4</ele>
        <time>2022-06-10T08:53:06Z</time>
      </trkpt>
      <trkpt lat="44.78429" lon="4.09274">
        <ele>1016.4</ele>
        <time>2022-06-10T08:53:07Z</time>
      </trkpt>
      <trkpt lat="44.78431" lon="4.0928">
        <ele>1016.4</ele>
        <time>2022-06-10T08:53:08Z</time>
      </trkpt>
      <trkpt lat="44.78433" lon="4.09287">
        <ele>1016.4</ele>
        <time>2022-06-10T08:53:09Z</time>
      </trkpt>
      <trkpt lat="44.78435" lon="4.09293">
        <ele>1016.4</ele>
        <time>2022-06-10T08:53:10Z</time>
      </trkpt>
      <trkpt lat="44.78437" lon="4.093">
        <ele>1016.4</ele>
        <time>2022-06-10T08:53:11Z</time>
      </trkpt>
      <trkpt lat="44.78439" lon="4.09306">
        <ele>1016.4</ele>
        <time>2022-06-10T08:53:12Z</time>
      </trkpt>
      <trkpt lat="44.78441" lon="4.09313">
        <ele>1016.4</ele>
        <time>2022-06-10T08:53:13Z</time>
      </trkpt>
      <trkpt lat="44.78443" lon="4.09319">
        <ele>1016.3</ele>
        <time>2022-06-10T08:53:14Z</time>
      </trkpt>
      <trkpt lat="44.78445" lon="4.09326">
        <ele>1016.3</ele>
        <time>2022-06-10T08:53:15Z</time>
      </trkpt>
      <trkpt lat="44.78447" lon="4.09333">
        <ele>1016.3</ele>
        <time>2022-06-10T08:53:16Z</time>
      </trkpt>
      <trkpt lat="44.7845" lon="4.09339">
        <ele>1016.3</ele>
        <time>2022-06-10T08:53:17Z</time>
      </trkpt>
      <trkpt lat="44.78452" lon="4.09346">
        <ele>1016.3</ele>
        <time>2022-06-10T08:53:18Z</time>
      </trkpt>
      <trkpt lat="44.78454" lon="4.09353">
        <ele>1016.3</ele>
        <time>2022-06-10T08:53:19Z</time>
      </trkpt>
      <trkpt lat="44.78456" lon="4.0936">
        <ele>1016.3</ele>
        <time>2022-06-10T08:53:20Z</time>
      </trkpt>
      <trkpt lat="44.78458" lon="4.09367">
        <ele>1016.3</ele>
        <time>2022-06-10T08:53:21Z</time>
      </trkpt>
      <trkpt lat="44.78459" lon="4.09374">
        <ele>1016.3</ele>
        <time>2022-06-10T08:53:22Z</time>
      </trkpt>
      <trkpt lat="44.78461" lon="4.09381">
        <ele>1016.3</ele>
        <time>2022-06-10T08:53:23Z</time>
      </trkpt>
      <trkpt lat="44.78462" lon="4.09387">
        <ele>1016.2</ele>
        <time>2022-06-10T08:53:24Z</time>
      </trkpt>
      <trkpt lat="44.78464" lon="4.09394">
        <ele>1016.2</ele>
        <time>2022-06-10T08:53:25Z</time>
      </trkpt>
      <trkpt lat="44.78466" lon="4.09401">
        <ele>1016.2</ele>
        <time>2022-06-10T08:53:26Z</time>
      </trkpt>
      <trkpt lat="44.78468" lon="4.09408">
        <ele>1016.2</ele>
        <time>2022-06-10T08:53:27Z</time>
      </trkpt>
      <trkpt lat="44.7847" lon="4.09415">
        <ele>1016.2</ele>
        <time>2022-06-10T08:53:28Z</time>
      </trkpt>
      <trkpt lat="44.78472" lon="4.09422">
        <ele>1016.1</ele>
        <time>2022-06-10T08:53:29Z</time>
      </trkpt>
      <trkpt lat="44.78474" lon="4.09429">
        <ele>1016.2</ele>
        <time>2022-06-10T08:53:30Z</time>
      </trkpt>
      <trkpt lat="44.78476" lon="4.09436">
        <ele>1016.2</ele>
        <time>2022-06-10T08:53:31Z</time>
      </trkpt>
      <trkpt lat="44.78478" lon="4.09443">
        <ele>1016.2</ele>
        <time>2022-06-10T08:53:32Z</time>
      </trkpt>
      <trkpt lat="44.7848" lon="4.0945">
        <ele>1016.3</ele>
        <time>2022-06-10T08:53:33Z</time>
      </trkpt>
      <trkpt lat="44.78482" lon="4.09456">
        <ele>1016.3</ele>
        <time>2022-06-10T08:53:34Z</time>
      </trkpt>
      <trkpt lat="44.78485" lon="4.09463">
        <ele>1016.4</ele>
        <time>2022-06-10T08:53:35Z</time>
      </trkpt>
      <trkpt lat="44.78487" lon="4.09469">
        <ele>1016.4</ele>
        <time>2022-06-10T08:53:36Z</time>
      </trkpt>
      <trkpt lat="44.7849" lon="4.09475">
        <ele>1016.5</ele>
        <time>2022-06-10T08:53:37Z</time>
      </trkpt>
      <trkpt lat="44.78492" lon="4.09482">
        <ele>1016.5</ele>
        <time>2022-06-10T08:53:38Z</time>
      </trkpt>
      <trkpt lat="44.78495" lon="4.09488">
        <ele>1016.6</ele>
        <time>2022-06-10T08:53:39Z</time>
      </trkpt>
      <trkpt lat="44.78497" lon="4.09494">
        <ele>1016.6</ele>
        <time>2022-06-10T08:53:40Z</time>
      </trkpt>
      <trkpt lat="44.78499" lon="4.09501">
        <ele>1016.6</ele>
        <time>2022-06-10T08:53:41Z</time>
      </trkpt>
      <trkpt lat="44.78501" lon="4.09508">
        <ele>1016.7</ele>
        <time>2022-06-10T08:53:42Z</time>
      </trkpt>
      <trkpt lat="44.78503" lon="4.09515">
        <ele>1016.7</ele>
        <time>2022-06-10T08:53:43Z</time>
      </trkpt>
      <trkpt lat="44.78505" lon="4.09521">
        <ele>1016.7</ele>
        <time>2022-06-10T08:53:44Z</time>
      </trkpt>
      <trkpt lat="44.78507" lon="4.09528">
        <ele>1016.7</ele>
        <time>2022-06-10T08:53:45Z</time>
      </trkpt>
      <trkpt lat="44.78508" lon="4.09535">
        <ele>1016.7</ele>
        <time>2022-06-10T08:53:46Z</time>
      </trkpt>
      <trkpt lat="44.78509" lon="4.09542">
        <ele>1016.8</ele>
        <time>2022-06-10T08:53:47Z</time>
      </trkpt>
      <trkpt lat="44.7851" lon="4.09549">
        <ele>1016.8</ele>
        <time>2022-06-10T08:53:48Z</time>
      </trkpt>
      <trkpt lat="44.78511" lon="4.09557">
        <ele>1016.8</ele>
        <time>2022-06-10T08:53:49Z</time>
      </trkpt>
      <trkpt lat="44.78512" lon="4.09564">
        <ele>1016.7</ele>
        <time>2022-06-10T08:53:50Z</time>
      </trkpt>
      <trkpt lat="44.78513" lon="4.09571">
        <ele>1016.7</ele>
        <time>2022-06-10T08:53:51Z</time>
      </trkpt>
      <trkpt lat="44.78513" lon="4.09579">
        <ele>1016.7</ele>
        <time>2022-06-10T08:53:52Z</time>
      </trkpt>
      <trkpt lat="44.78514" lon="4.09586">
        <ele>1016.6</ele>
        <time>2022-06-10T08:53:53Z</time>
      </trkpt>
      <trkpt lat="44.78514" lon="4.09593">
        <ele>1016.5</ele>
        <time>2022-06-10T08:53:54Z</time>
      </trkpt>
      <trkpt lat="44.78515" lon="4.096">
        <ele>1016.5</ele>
        <time>2022-06-10T08:53:55Z</time>
      </trkpt>
      <trkpt lat="44.78516" lon="4.09608">
        <ele>1016.4</ele>
        <time>2022-06-10T08:53:56Z</time>
      </trkpt>
      <trkpt lat="44.78517" lon="4.09615">
        <ele>1016.4</ele>
        <time>2022-06-10T08:53:57Z</time>
      </trkpt>
      <trkpt lat="44.78517" lon="4.09622">
        <ele>1016.3</ele>
        <time>2022-06-10T08:53:58Z</time>
      </trkpt>
      <trkpt lat="44.78517" lon="4.0963">
        <ele>1016.3</ele>
        <time>2022-06-10T08:53:59Z</time>
      </trkpt>
      <trkpt lat="44.78516" lon="4.09637">
        <ele>1016.3</ele>
        <time>2022-06-10T08:54:00Z</time>
      </trkpt>
      <trkpt lat="44.78514" lon="4.09645">
        <ele>1016.3</ele>
        <time>2022-06-10T08:54:01Z</time>
      </trkpt>
      <trkpt lat="44.78512" lon="4.09652">
        <ele>1016.4</ele>
        <time>2022-06-10T08:54:02Z</time>
      </trkpt>
      <trkpt lat="44.7851" lon="4.09659">
        <ele>1016.4</ele>
        <time>2022-06-10T08:54:03Z</time>
      </trkpt>
      <trkpt lat="44.78507" lon="4.09665">
        <ele>1016.5</ele>
        <time>2022-06-10T08:54:04Z</time>
      </trkpt>
      <trkpt lat="44.78504" lon="4.09671">
        <ele>1016.5</ele>
        <time>2022-06-10T08:54:05Z</time>
      </trkpt>
      <trkpt lat="44.78501" lon="4.09677">
        <ele>1016.5</ele>
        <time>2022-06-10T08:54:06Z</time>
      </trkpt>
      <trkpt lat="44.78498" lon="4.09682">
        <ele>1016.5</ele>
        <time>2022-06-10T08:54:07Z</time>
      </trkpt>
      <trkpt lat="44.78495" lon="4.09687">
        <ele>1016.6</ele>
        <time>2022-06-10T08:54:08Z</time>
      </trkpt>
      <trkpt lat="44.78492" lon="4.09692">
        <ele>1016.6</ele>
        <time>2022-06-10T08:54:09Z</time>
      </trkpt>
      <trkpt lat="44.78489" lon="4.09697">
        <ele>1016.6</ele>
        <time>2022-06-10T08:54:10Z</time>
      </trkpt>
      <trkpt lat="44.78485" lon="4.09702">
        <ele>1016.6</ele>
        <time>2022-06-10T08:54:11Z</time>
      </trkpt>
      <trkpt lat="44.78482" lon="4.09706">
        <ele>1016.6</ele>
        <time>2022-06-10T08:54:12Z</time>
      </trkpt>
      <trkpt lat="44.78478" lon="4.09711">
        <ele>1016.6</ele>
        <time>2022-06-10T08:54:13Z</time>
      </trkpt>
      <trkpt lat="44.78475" lon="4.09716">
        <ele>1016.5</ele>
        <time>2022-06-10T08:54:14Z</time>
      </trkpt>
      <trkpt lat="44.78472" lon="4.09721">
        <ele>1016.5</ele>
        <time>2022-06-10T08:54:15Z</time>
      </trkpt>
      <trkpt lat="44.78468" lon="4.09726">
        <ele>1016.5</ele>
        <time>2022-06-10T08:54:16Z</time>
      </trkpt>
      <trkpt lat="44.78465" lon="4.0973">
        <ele>1016.5</ele>
        <time>2022-06-10T08:54:17Z</time>
      </trkpt>
      <trkpt lat="44.78462" lon="4.09735">
        <ele>1016.5</ele>
        <time>2022-06-10T08:54:18Z</time>
      </trkpt>
      <trkpt lat="44.78458" lon="4.09739">
        <ele>1016.6</ele>
        <time>2022-06-10T08:54:19Z</time>
      </trkpt>
      <trkpt lat="44.78455" lon="4.09743">
        <ele>1016.6</ele>
        <time>2022-06-10T08:54:20Z</time>
      </trkpt>
      <trkpt lat="44.78451" lon="4.09748">
        <ele>1016.6</ele>
        <time>2022-06-10T08:54:21Z</time>
      </trkpt>
      <trkpt lat="44.78448" lon="4.09752">
        <ele>1016.7</ele>
        <time>2022-06-10T08:54:22Z</time>
      </trkpt>
      <trkpt lat="44.78444" lon="4.09757">
        <ele>1016.7</ele>
        <time>2022-06-10T08:54:23Z</time>
      </trkpt>
      <trkpt lat="44.7844" lon="4.09762">
        <ele>1016.8</ele>
        <time>2022-06-10T08:54:24Z</time>
      </trkpt>
      <trkpt lat="44.78437" lon="4.09767">
        <ele>1016.8</ele>
        <time>2022-06-10T08:54:25Z</time>
      </trkpt>
      <trkpt lat="44.78434" lon="4.09772">
        <ele>1016.9</ele>
        <time>2022-06-10T08:54:26Z</time>
      </trkpt>
      <trkpt lat="44.7843" lon="4.09776">
        <ele>1016.9</ele>
        <time>2022-06-10T08:54:27Z</time>
      </trkpt>
      <trkpt lat="44.78428" lon="4.09781">
        <ele>1016.9</ele>
        <time>2022-06-10T08:54:28Z</time>
      </trkpt>
      <trkpt lat="44.78425" lon="4.09784">
        <ele>1017</ele>
        <time>2022-06-10T08:54:29Z</time>
      </trkpt>
      <trkpt lat="44.78423" lon="4.09787">
        <ele>1017</ele>
        <time>2022-06-10T08:54:30Z</time>
      </trkpt>
      <trkpt lat="44.78419" lon="4.09792">
        <ele>1017.1</ele>
        <time>2022-06-10T08:54:31Z</time>
      </trkpt>
      <trkpt lat="44.78417" lon="4.09796">
        <ele>1017.1</ele>
        <time>2022-06-10T08:54:32Z</time>
      </trkpt>
      <trkpt lat="44.78414" lon="4.098">
        <ele>1017.1</ele>
        <time>2022-06-10T08:54:33Z</time>
      </trkpt>
      <trkpt lat="44.78411" lon="4.09804">
        <ele>1017.1</ele>
        <time>2022-06-10T08:54:34Z</time>
      </trkpt>
      <trkpt lat="44.78408" lon="4.09808">
        <ele>1017.2</ele>
        <time>2022-06-10T08:54:35Z</time>
      </trkpt>
      <trkpt lat="44.78407" lon="4.09812">
        <ele>1017.2</ele>
        <time>2022-06-10T08:54:36Z</time>
      </trkpt>
      <trkpt lat="44.78401" lon="4.09821">
        <ele>1017.3</ele>
        <time>2022-06-10T08:54:37Z</time>
      </trkpt>
      <trkpt lat="44.78397" lon="4.09826">
        <ele>1017.3</ele>
        <time>2022-06-10T08:54:39Z</time>
      </trkpt>
      <trkpt lat="44.78394" lon="4.0983">
        <ele>1017.4</ele>
        <time>2022-06-10T08:54:40Z</time>
      </trkpt>
      <trkpt lat="44.7839" lon="4.09836">
        <ele>1017.4</ele>
        <time>2022-06-10T08:54:41Z</time>
      </trkpt>
      <trkpt lat="44.78386" lon="4.09841">
        <ele>1017.5</ele>
        <time>2022-06-10T08:54:42Z</time>
      </trkpt>
      <trkpt lat="44.78384" lon="4.09845">
        <ele>1017.5</ele>
        <time>2022-06-10T08:54:43Z</time>
      </trkpt>
      <trkpt lat="44.7838" lon="4.0985">
        <ele>1017.5</ele>
        <time>2022-06-10T08:54:44Z</time>
      </trkpt>
      <trkpt lat="44.78376" lon="4.09855">
        <ele>1017.6</ele>
        <time>2022-06-10T08:54:45Z</time>
      </trkpt>
      <trkpt lat="44.78373" lon="4.09859">
        <ele>1017.6</ele>
        <time>2022-06-10T08:54:47Z</time>
      </trkpt>
      <trkpt lat="44.78369" lon="4.09865">
        <ele>1017.6</ele>
        <time>2022-06-10T08:54:48Z</time>
      </trkpt>
      <trkpt lat="44.78366" lon="4.09869">
        <ele>1017.7</ele>
        <time>2022-06-10T08:54:49Z</time>
      </trkpt>
      <trkpt lat="44.78363" lon="4.09873">
        <ele>1017.7</ele>
        <time>2022-06-10T08:54:50Z</time>
      </trkpt>
      <trkpt lat="44.78358" lon="4.0988">
        <ele>1017.8</ele>
        <time>2022-06-10T08:54:52Z</time>
      </trkpt>
      <trkpt lat="44.78353" lon="4.09885">
        <ele>1017.9</ele>
        <time>2022-06-10T08:54:53Z</time>
      </trkpt>
      <trkpt lat="44.78349" lon="4.0989">
        <ele>1017.9</ele>
        <time>2022-06-10T08:54:55Z</time>
      </trkpt>
      <trkpt lat="44.78346" lon="4.09894">
        <ele>1018</ele>
        <time>2022-06-10T08:54:56Z</time>
      </trkpt>
      <trkpt lat="44.78343" lon="4.09898">
        <ele>1018.1</ele>
        <time>2022-06-10T08:54:57Z</time>
      </trkpt>
      <trkpt lat="44.7834" lon="4.09903">
        <ele>1018.1</ele>
        <time>2022-06-10T08:54:58Z</time>
      </trkpt>
      <trkpt lat="44.78337" lon="4.09907">
        <ele>1018.2</ele>
        <time>2022-06-10T08:54:59Z</time>
      </trkpt>
      <trkpt lat="44.78334" lon="4.0991">
        <ele>1018.2</ele>
        <time>2022-06-10T08:55:00Z</time>
      </trkpt>
      <trkpt lat="44.78329" lon="4.09916">
        <ele>1018.3</ele>
        <time>2022-06-10T08:55:01Z</time>
      </trkpt>
      <trkpt lat="44.78325" lon="4.09921">
        <ele>1018.4</ele>
        <time>2022-06-10T08:55:03Z</time>
      </trkpt>
      <trkpt lat="44.78322" lon="4.09925">
        <ele>1018.5</ele>
        <time>2022-06-10T08:55:04Z</time>
      </trkpt>
      <trkpt lat="44.78319" lon="4.09928">
        <ele>1018.6</ele>
        <time>2022-06-10T08:55:05Z</time>
      </trkpt>
      <trkpt lat="44.78316" lon="4.09932">
        <ele>1018.6</ele>
        <time>2022-06-10T08:55:06Z</time>
      </trkpt>
      <trkpt lat="44.78313" lon="4.09935">
        <ele>1018.7</ele>
        <time>2022-06-10T08:55:07Z</time>
      </trkpt>
      <trkpt lat="44.7831" lon="4.09939">
        <ele>1018.8</ele>
        <time>2022-06-10T08:55:08Z</time>
      </trkpt>
      <trkpt lat="44.78307" lon="4.09943">
        <ele>1018.8</ele>
        <time>2022-06-10T08:55:09Z</time>
      </trkpt>
      <trkpt lat="44.783" lon="4.0995">
        <ele>1019</ele>
        <time>2022-06-10T08:55:11Z</time>
      </trkpt>
      <trkpt lat="44.78298" lon="4.09954">
        <ele>1019</ele>
        <time>2022-06-10T08:55:12Z</time>
      </trkpt>
      <trkpt lat="44.78293" lon="4.0996">
        <ele>1019.1</ele>
        <time>2022-06-10T08:55:13Z</time>
      </trkpt>
      <trkpt lat="44.7829" lon="4.09964">
        <ele>1019.1</ele>
        <time>2022-06-10T08:55:14Z</time>
      </trkpt>
      <trkpt lat="44.78285" lon="4.09969">
        <ele>1019.2</ele>
        <time>2022-06-10T08:55:16Z</time>
      </trkpt>
      <trkpt lat="44.7828" lon="4.09975">
        <ele>1019.3</ele>
        <time>2022-06-10T08:55:17Z</time>
      </trkpt>
      <trkpt lat="44.78277" lon="4.09978">
        <ele>1019.3</ele>
        <time>2022-06-10T08:55:18Z</time>
      </trkpt>
      <trkpt lat="44.78274" lon="4.09983">
        <ele>1019.4</ele>
        <time>2022-06-10T08:55:19Z</time>
      </trkpt>
      <trkpt lat="44.78271" lon="4.09988">
        <ele>1019.5</ele>
        <time>2022-06-10T08:55:20Z</time>
      </trkpt>
      <trkpt lat="44.78267" lon="4.09992">
        <ele>1019.5</ele>
        <time>2022-06-10T08:55:21Z</time>
      </trkpt>
      <trkpt lat="44.78263" lon="4.09997">
        <ele>1019.6</ele>
        <time>2022-06-10T08:55:22Z</time>
      </trkpt>
      <trkpt lat="44.78259" lon="4.10002">
        <ele>1019.6</ele>
        <time>2022-06-10T08:55:23Z</time>
      </trkpt>
      <trkpt lat="44.78253" lon="4.10009">
        <ele>1019.7</ele>
        <time>2022-06-10T08:55:25Z</time>
      </trkpt>
      <trkpt lat="44.78249" lon="4.10013">
        <ele>1019.8</ele>
        <time>2022-06-10T08:55:27Z</time>
      </trkpt>
      <trkpt lat="44.78244" lon="4.10021">
        <ele>1019.9</ele>
        <time>2022-06-10T08:55:28Z</time>
      </trkpt>
      <trkpt lat="44.78237" lon="4.10029">
        <ele>1020</ele>
        <time>2022-06-10T08:55:30Z</time>
      </trkpt>
      <trkpt lat="44.78234" lon="4.10033">
        <ele>1020</ele>
        <time>2022-06-10T08:55:32Z</time>
      </trkpt>
      <trkpt lat="44.7823" lon="4.10038">
        <ele>1020.1</ele>
        <time>2022-06-10T08:55:33Z</time>
      </trkpt>
      <trkpt lat="44.78228" lon="4.10042">
        <ele>1020.1</ele>
        <time>2022-06-10T08:55:34Z</time>
      </trkpt>
      <trkpt lat="44.78224" lon="4.10046">
        <ele>1020.1</ele>
        <time>2022-06-10T08:55:35Z</time>
      </trkpt>
      <trkpt lat="44.78221" lon="4.1005">
        <ele>1020.2</ele>
        <time>2022-06-10T08:55:36Z</time>
      </trkpt>
      <trkpt lat="44.78218" lon="4.10054">
        <ele>1020.2</ele>
        <time>2022-06-10T08:55:37Z</time>
      </trkpt>
      <trkpt lat="44.78215" lon="4.10058">
        <ele>1020.2</ele>
        <time>2022-06-10T08:55:38Z</time>
      </trkpt>
      <trkpt lat="44.78212" lon="4.10062">
        <ele>1020.3</ele>
        <time>2022-06-10T08:55:39Z</time>
      </trkpt>
      <trkpt lat="44.78208" lon="4.10067">
        <ele>1020.3</ele>
        <time>2022-06-10T08:55:40Z</time>
      </trkpt>
      <trkpt lat="44.78204" lon="4.10071">
        <ele>1020.3</ele>
        <time>2022-06-10T08:55:41Z</time>
      </trkpt>
      <trkpt lat="44.78201" lon="4.10075">
        <ele>1020.4</ele>
        <time>2022-06-10T08:55:43Z</time>
      </trkpt>
      <trkpt lat="44.78196" lon="4.10081">
        <ele>1020.4</ele>
        <time>2022-06-10T08:55:44Z</time>
      </trkpt>
      <trkpt lat="44.78192" lon="4.10086">
        <ele>1020.5</ele>
        <time>2022-06-10T08:55:45Z</time>
      </trkpt>
      <trkpt lat="44.78189" lon="4.10091">
        <ele>1020.5</ele>
        <time>2022-06-10T08:55:46Z</time>
      </trkpt>
      <trkpt lat="44.78185" lon="4.10096">
        <ele>1020.5</ele>
        <time>2022-06-10T08:55:48Z</time>
      </trkpt>
      <trkpt lat="44.78181" lon="4.10101">
        <ele>1020.5</ele>
        <time>2022-06-10T08:55:49Z</time>
      </trkpt>
      <trkpt lat="44.78178" lon="4.10107">
        <ele>1020.6</ele>
        <time>2022-06-10T08:55:50Z</time>
      </trkpt>
      <trkpt lat="44.78173" lon="4.10116">
        <ele>1020.6</ele>
        <time>2022-06-10T08:55:52Z</time>
      </trkpt>
      <trkpt lat="44.7817" lon="4.10121">
        <ele>1020.6</ele>
        <time>2022-06-10T08:55:53Z</time>
      </trkpt>
      <trkpt lat="44.78167" lon="4.10126">
        <ele>1020.6</ele>
        <time>2022-06-10T08:55:54Z</time>
      </trkpt>
      <trkpt lat="44.78164" lon="4.10131">
        <ele>1020.7</ele>
        <time>2022-06-10T08:55:55Z</time>
      </trkpt>
      <trkpt lat="44.78161" lon="4.10136">
        <ele>1020.7</ele>
        <time>2022-06-10T08:55:56Z</time>
      </trkpt>
      <trkpt lat="44.78158" lon="4.10141">
        <ele>1020.8</ele>
        <time>2022-06-10T08:55:57Z</time>
      </trkpt>
      <trkpt lat="44.78155" lon="4.10145">
        <ele>1020.8</ele>
        <time>2022-06-10T08:55:58Z</time>
      </trkpt>
      <trkpt lat="44.78152" lon="4.1015">
        <ele>1020.9</ele>
        <time>2022-06-10T08:55:59Z</time>
      </trkpt>
      <trkpt lat="44.78149" lon="4.10156">
        <ele>1021</ele>
        <time>2022-06-10T08:56:00Z</time>
      </trkpt>
      <trkpt lat="44.78146" lon="4.10163">
        <ele>1021.1</ele>
        <time>2022-06-10T08:56:01Z</time>
      </trkpt>
      <trkpt lat="44.78143" lon="4.10169">
        <ele>1021.1</ele>
        <time>2022-06-10T08:56:02Z</time>
      </trkpt>
      <trkpt lat="44.7814" lon="4.10174">
        <ele>1021.2</ele>
        <time>2022-06-10T08:56:04Z</time>
      </trkpt>
      <trkpt lat="44.78138" lon="4.10181">
        <ele>1021.3</ele>
        <time>2022-06-10T08:56:05Z</time>
      </trkpt>
      <trkpt lat="44.78135" lon="4.10186">
        <ele>1021.3</ele>
        <time>2022-06-10T08:56:06Z</time>
      </trkpt>
      <trkpt lat="44.78132" lon="4.10191">
        <ele>1021.4</ele>
        <time>2022-06-10T08:56:07Z</time>
      </trkpt>
      <trkpt lat="44.78129" lon="4.10197">
        <ele>1021.5</ele>
        <time>2022-06-10T08:56:09Z</time>
      </trkpt>
      <trkpt lat="44.78125" lon="4.10203">
        <ele>1021.5</ele>
        <time>2022-06-10T08:56:10Z</time>
      </trkpt>
      <trkpt lat="44.78122" lon="4.10208">
        <ele>1021.6</ele>
        <time>2022-06-10T08:56:11Z</time>
      </trkpt>
      <trkpt lat="44.7812" lon="4.10213">
        <ele>1021.7</ele>
        <time>2022-06-10T08:56:12Z</time>
      </trkpt>
      <trkpt lat="44.78116" lon="4.10218">
        <ele>1021.7</ele>
        <time>2022-06-10T08:56:14Z</time>
      </trkpt>
      <trkpt lat="44.78111" lon="4.10227">
        <ele>1021.9</ele>
        <time>2022-06-10T08:56:16Z</time>
      </trkpt>
      <trkpt lat="44.78108" lon="4.10232">
        <ele>1021.9</ele>
        <time>2022-06-10T08:56:17Z</time>
      </trkpt>
      <trkpt lat="44.78105" lon="4.10238">
        <ele>1022</ele>
        <time>2022-06-10T08:56:18Z</time>
      </trkpt>
      <trkpt lat="44.78103" lon="4.10243">
        <ele>1022.1</ele>
        <time>2022-06-10T08:56:19Z</time>
      </trkpt>
      <trkpt lat="44.781" lon="4.10248">
        <ele>1022.1</ele>
        <time>2022-06-10T08:56:20Z</time>
      </trkpt>
      <trkpt lat="44.78096" lon="4.10253">
        <ele>1022.1</ele>
        <time>2022-06-10T08:56:22Z</time>
      </trkpt>
      <trkpt lat="44.78092" lon="4.10259">
        <ele>1022.2</ele>
        <time>2022-06-10T08:56:23Z</time>
      </trkpt>
      <trkpt lat="44.78087" lon="4.10263">
        <ele>1022.2</ele>
        <time>2022-06-10T08:56:24Z</time>
      </trkpt>
      <trkpt lat="44.78082" lon="4.10266">
        <ele>1022.2</ele>
        <time>2022-06-10T08:56:25Z</time>
      </trkpt>
      <trkpt lat="44.78076" lon="4.10267">
        <ele>1022.2</ele>
        <time>2022-06-10T08:56:27Z</time>
      </trkpt>
      <trkpt lat="44.78072" lon="4.10268">
        <ele>1022.2</ele>
        <time>2022-06-10T08:56:28Z</time>
      </trkpt>
      <trkpt lat="44.78067" lon="4.10268">
        <ele>1022.1</ele>
        <time>2022-06-10T08:56:29Z</time>
      </trkpt>
      <trkpt lat="44.78063" lon="4.10268">
        <ele>1022.1</ele>
        <time>2022-06-10T08:56:30Z</time>
      </trkpt>
      <trkpt lat="44.78059" lon="4.10266">
        <ele>1022</ele>
        <time>2022-06-10T08:56:31Z</time>
      </trkpt>
      <trkpt lat="44.78054" lon="4.10266">
        <ele>1022</ele>
        <time>2022-06-10T08:56:32Z</time>
      </trkpt>
      <trkpt lat="44.78049" lon="4.10266">
        <ele>1021.9</ele>
        <time>2022-06-10T08:56:33Z</time>
      </trkpt>
      <trkpt lat="44.78043" lon="4.10266">
        <ele>1021.8</ele>
        <time>2022-06-10T08:56:34Z</time>
      </trkpt>
      <trkpt lat="44.78037" lon="4.10266">
        <ele>1021.8</ele>
        <time>2022-06-10T08:56:35Z</time>
      </trkpt>
      <trkpt lat="44.78031" lon="4.10266">
        <ele>1021.8</ele>
        <time>2022-06-10T08:56:36Z</time>
      </trkpt>
      <trkpt lat="44.78025" lon="4.10266">
        <ele>1021.7</ele>
        <time>2022-06-10T08:56:37Z</time>
      </trkpt>
      <trkpt lat="44.78019" lon="4.10265">
        <ele>1021.6</ele>
        <time>2022-06-10T08:56:38Z</time>
      </trkpt>
      <trkpt lat="44.78013" lon="4.10265">
        <ele>1021.6</ele>
        <time>2022-06-10T08:56:39Z</time>
      </trkpt>
      <trkpt lat="44.78008" lon="4.10264">
        <ele>1021.5</ele>
        <time>2022-06-10T08:56:40Z</time>
      </trkpt>
      <trkpt lat="44.78003" lon="4.10264">
        <ele>1021.5</ele>
        <time>2022-06-10T08:56:41Z</time>
      </trkpt>
      <trkpt lat="44.78" lon="4.10264">
        <ele>1021.4</ele>
        <time>2022-06-10T08:56:42Z</time>
      </trkpt>
      <trkpt lat="44.78" lon="4.10263">
        <ele>1021.4</ele>
        <time>2022-06-10T08:56:43Z</time>
      </trkpt>
      <trkpt lat="44.77998" lon="4.10263">
        <ele>1021.4</ele>
        <time>2022-06-10T08:56:44Z</time>
      </trkpt>
      <trkpt lat="44.77996" lon="4.10263">
        <ele>1021.4</ele>
        <time>2022-06-10T08:56:45Z</time>
      </trkpt>
      <trkpt lat="44.77995" lon="4.10262">
        <ele>1021.4</ele>
        <time>2022-06-10T08:56:46Z</time>
      </trkpt>
      <trkpt lat="44.77995" lon="4.10262">
        <ele>1021.4</ele>
        <time>2022-06-10T08:56:47Z</time>
      </trkpt>
      <trkpt lat="44.77996" lon="4.10263">
        <ele>1021.4</ele>
        <time>2022-06-10T08:56:48Z</time>
      </trkpt>
      <trkpt lat="44.77996" lon="4.10263">
        <ele>1021.4</ele>
        <time>2022-06-10T08:56:49Z</time>
      </trkpt>
      <trkpt lat="44.77996" lon="4.10264">
        <ele>1021.4</ele>
        <time>2022-06-10T08:56:50Z</time>
      </trkpt>
      <trkpt lat="44.77996" lon="4.10263">
        <ele>1021.4</ele>
        <time>2022-06-10T08:56:51Z</time>
      </trkpt>
      <trkpt lat="44.77996" lon="4.10263">
        <ele>1021.4</ele>
        <time>2022-06-10T08:56:52Z</time>
      </trkpt>
      <trkpt lat="44.77995" lon="4.10262">
        <ele>1021.4</ele>
        <time>2022-06-10T08:56:53Z</time>
      </trkpt>
      <trkpt lat="44.77996" lon="4.10262">
        <ele>1021.3</ele>
        <time>2022-06-10T08:56:54Z</time>
      </trkpt>
      <trkpt lat="44.77996" lon="4.10262">
        <ele>1021.3</ele>
        <time>2022-06-10T08:56:56Z</time>
      </trkpt>
      <trkpt lat="44.77993" lon="4.10262">
        <ele>1021.3</ele>
        <time>2022-06-10T08:57:29Z</time>
      </trkpt>
      <trkpt lat="44.77993" lon="4.10263">
        <ele>1021.3</ele>
        <time>2022-06-10T08:57:30Z</time>
      </trkpt>
      <trkpt lat="44.77992" lon="4.10264">
        <ele>1021.3</ele>
        <time>2022-06-10T08:57:31Z</time>
      </trkpt>
      <trkpt lat="44.77991" lon="4.10264">
        <ele>1021.3</ele>
        <time>2022-06-10T08:57:32Z</time>
      </trkpt>
      <trkpt lat="44.77991" lon="4.10265">
        <ele>1021.3</ele>
        <time>2022-06-10T08:57:33Z</time>
      </trkpt>
      <trkpt lat="44.77991" lon="4.10266">
        <ele>1021.3</ele>
        <time>2022-06-10T08:57:34Z</time>
      </trkpt>
      <trkpt lat="44.77991" lon="4.10266">
        <ele>1021.3</ele>
        <time>2022-06-10T08:57:35Z</time>
      </trkpt>
      <trkpt lat="44.77991" lon="4.10266">
        <ele>1021.3</ele>
        <time>2022-06-10T08:57:36Z</time>
      </trkpt>
      <trkpt lat="44.77991" lon="4.10267">
        <ele>1021.3</ele>
        <time>2022-06-10T08:57:37Z</time>
      </trkpt>
      <trkpt lat="44.77991" lon="4.10267">
        <ele>1021.3</ele>
        <time>2022-06-10T08:57:38Z</time>
      </trkpt>
      <trkpt lat="44.77991" lon="4.10267">
        <ele>1021.3</ele>
        <time>2022-06-10T08:57:39Z</time>
      </trkpt>
      <trkpt lat="44.77991" lon="4.10267">
        <ele>1021.3</ele>
        <time>2022-06-10T08:57:40Z</time>
      </trkpt>
      <trkpt lat="44.77991" lon="4.10267">
        <ele>1021.3</ele>
        <time>2022-06-10T08:57:41Z</time>
      </trkpt>
      <trkpt lat="44.77992" lon="4.10268">
        <ele>1021.3</ele>
        <time>2022-06-10T08:57:42Z</time>
      </trkpt>
      <trkpt lat="44.77992" lon="4.10268">
        <ele>1021.3</ele>
        <time>2022-06-10T08:57:43Z</time>
      </trkpt>
      <trkpt lat="44.77992" lon="4.10267">
        <ele>1021.3</ele>
        <time>2022-06-10T08:57:44Z</time>
      </trkpt>
      <trkpt lat="44.77993" lon="4.10267">
        <ele>1021.3</ele>
        <time>2022-06-10T08:57:45Z</time>
      </trkpt>
      <trkpt lat="44.77994" lon="4.10266">
        <ele>1021.2</ele>
        <time>2022-06-10T08:57:46Z</time>
      </trkpt>
      <trkpt lat="44.77995" lon="4.10265">
        <ele>1021.2</ele>
        <time>2022-06-10T08:57:47Z</time>
      </trkpt>
      <trkpt lat="44.77995" lon="4.10265">
        <ele>1021.2</ele>
        <time>2022-06-10T08:57:49Z</time>
      </trkpt>
      <trkpt lat="44.77995" lon="4.10264">
        <ele>1021.2</ele>
        <time>2022-06-10T08:57:50Z</time>
      </trkpt>
      <trkpt lat="44.77994" lon="4.10264">
        <ele>1021.2</ele>
        <time>2022-06-10T08:57:51Z</time>
      </trkpt>
      <trkpt lat="44.77994" lon="4.10263">
        <ele>1021.2</ele>
        <time>2022-06-10T08:57:53Z</time>
      </trkpt>
      <trkpt lat="44.77994" lon="4.10263">
        <ele>1021.2</ele>
        <time>2022-06-10T08:57:54Z</time>
      </trkpt>
      <trkpt lat="44.77994" lon="4.10263">
        <ele>1021.2</ele>
        <time>2022-06-10T08:57:56Z</time>
      </trkpt>
      <trkpt lat="44.77994" lon="4.10262">
        <ele>1021.2</ele>
        <time>2022-06-10T08:57:57Z</time>
      </trkpt>
      <trkpt lat="44.77992" lon="4.10262">
        <ele>1021.2</ele>
        <time>2022-06-10T08:57:58Z</time>
      </trkpt>
      <trkpt lat="44.7799" lon="4.10262">
        <ele>1021.2</ele>
        <time>2022-06-10T08:57:59Z</time>
      </trkpt>
      <trkpt lat="44.77988" lon="4.10262">
        <ele>1021.1</ele>
        <time>2022-06-10T08:58:16Z</time>
      </trkpt>
      <trkpt lat="44.77986" lon="4.10262">
        <ele>1021.1</ele>
        <time>2022-06-10T08:58:17Z</time>
      </trkpt>
      <trkpt lat="44.77982" lon="4.10263">
        <ele>1021.1</ele>
        <time>2022-06-10T08:58:18Z</time>
      </trkpt>
      <trkpt lat="44.77978" lon="4.10262">
        <ele>1021.1</ele>
        <time>2022-06-10T08:58:19Z</time>
      </trkpt>
      <trkpt lat="44.77971" lon="4.10261">
        <ele>1021</ele>
        <time>2022-06-10T08:58:20Z</time>
      </trkpt>
      <trkpt lat="44.77968" lon="4.10262">
        <ele>1021</ele>
        <time>2022-06-10T08:58:21Z</time>
      </trkpt>
      <trkpt lat="44.77964" lon="4.10262">
        <ele>1021</ele>
        <time>2022-06-10T08:58:22Z</time>
      </trkpt>
      <trkpt lat="44.7796" lon="4.10261">
        <ele>1021</ele>
        <time>2022-06-10T08:58:23Z</time>
      </trkpt>
      <trkpt lat="44.77955" lon="4.1026">
        <ele>1020.9</ele>
        <time>2022-06-10T08:58:25Z</time>
      </trkpt>
      <trkpt lat="44.77951" lon="4.1026">
        <ele>1020.9</ele>
        <time>2022-06-10T08:58:26Z</time>
      </trkpt>
      <trkpt lat="44.77947" lon="4.1026">
        <ele>1020.9</ele>
        <time>2022-06-10T08:58:27Z</time>
      </trkpt>
      <trkpt lat="44.77943" lon="4.10261">
        <ele>1020.9</ele>
        <time>2022-06-10T08:58:28Z</time>
      </trkpt>
      <trkpt lat="44.77937" lon="4.10262">
        <ele>1020.8</ele>
        <time>2022-06-10T08:58:29Z</time>
      </trkpt>
      <trkpt lat="44.77932" lon="4.10261">
        <ele>1020.8</ele>
        <time>2022-06-10T08:58:30Z</time>
      </trkpt>
      <trkpt lat="44.77927" lon="4.10261">
        <ele>1020.7</ele>
        <time>2022-06-10T08:58:31Z</time>
      </trkpt>
      <trkpt lat="44.77922" lon="4.10261">
        <ele>1020.7</ele>
        <time>2022-06-10T08:58:32Z</time>
      </trkpt>
      <trkpt lat="44.77917" lon="4.10261">
        <ele>1020.7</ele>
        <time>2022-06-10T08:58:33Z</time>
      </trkpt>
      <trkpt lat="44.77912" lon="4.10262">
        <ele>1020.7</ele>
        <time>2022-06-10T08:58:34Z</time>
      </trkpt>
      <trkpt lat="44.77907" lon="4.10262">
        <ele>1020.7</ele>
        <time>2022-06-10T08:58:35Z</time>
      </trkpt>
      <trkpt lat="44.77902" lon="4.10263">
        <ele>1020.7</ele>
        <time>2022-06-10T08:58:36Z</time>
      </trkpt>
      <trkpt lat="44.77897" lon="4.10264">
        <ele>1020.8</ele>
        <time>2022-06-10T08:58:37Z</time>
      </trkpt>
      <trkpt lat="44.77892" lon="4.10266">
        <ele>1020.8</ele>
        <time>2022-06-10T08:58:38Z</time>
      </trkpt>
      <trkpt lat="44.77888" lon="4.10269">
        <ele>1020.9</ele>
        <time>2022-06-10T08:58:39Z</time>
      </trkpt>
      <trkpt lat="44.77884" lon="4.10271">
        <ele>1020.9</ele>
        <time>2022-06-10T08:58:40Z</time>
      </trkpt>
      <trkpt lat="44.77878" lon="4.10276">
        <ele>1021</ele>
        <time>2022-06-10T08:58:41Z</time>
      </trkpt>
      <trkpt lat="44.77873" lon="4.10279">
        <ele>1021.1</ele>
        <time>2022-06-10T08:58:43Z</time>
      </trkpt>
      <trkpt lat="44.77869" lon="4.10283">
        <ele>1021.1</ele>
        <time>2022-06-10T08:58:44Z</time>
      </trkpt>
      <trkpt lat="44.77865" lon="4.10287">
        <ele>1021.2</ele>
        <time>2022-06-10T08:58:45Z</time>
      </trkpt>
      <trkpt lat="44.77862" lon="4.1029">
        <ele>1021.2</ele>
        <time>2022-06-10T08:58:46Z</time>
      </trkpt>
      <trkpt lat="44.77858" lon="4.10293">
        <ele>1021.3</ele>
        <time>2022-06-10T08:58:47Z</time>
      </trkpt>
      <trkpt lat="44.77854" lon="4.10297">
        <ele>1021.3</ele>
        <time>2022-06-10T08:58:49Z</time>
      </trkpt>
      <trkpt lat="44.77849" lon="4.10301">
        <ele>1021.4</ele>
        <time>2022-06-10T08:58:50Z</time>
      </trkpt>
      <trkpt lat="44.77845" lon="4.10304">
        <ele>1021.5</ele>
        <time>2022-06-10T08:58:52Z</time>
      </trkpt>
      <trkpt lat="44.77841" lon="4.10308">
        <ele>1021.6</ele>
        <time>2022-06-10T08:58:53Z</time>
      </trkpt>
      <trkpt lat="44.77837" lon="4.10311">
        <ele>1021.6</ele>
        <time>2022-06-10T08:58:54Z</time>
      </trkpt>
      <trkpt lat="44.77833" lon="4.10314">
        <ele>1021.7</ele>
        <time>2022-06-10T08:58:55Z</time>
      </trkpt>
      <trkpt lat="44.77829" lon="4.10316">
        <ele>1021.8</ele>
        <time>2022-06-10T08:58:57Z</time>
      </trkpt>
      <trkpt lat="44.77824" lon="4.10321">
        <ele>1021.9</ele>
        <time>2022-06-10T08:58:58Z</time>
      </trkpt>
      <trkpt lat="44.7782" lon="4.10325">
        <ele>1022</ele>
        <time>2022-06-10T08:59:00Z</time>
      </trkpt>
      <trkpt lat="44.77817" lon="4.10327">
        <ele>1022.1</ele>
        <time>2022-06-10T08:59:01Z</time>
      </trkpt>
      <trkpt lat="44.77813" lon="4.10329">
        <ele>1022.1</ele>
        <time>2022-06-10T08:59:02Z</time>
      </trkpt>
      <trkpt lat="44.77807" lon="4.10333">
        <ele>1022.3</ele>
        <time>2022-06-10T08:59:03Z</time>
      </trkpt>
      <trkpt lat="44.77804" lon="4.10335">
        <ele>1022.4</ele>
        <time>2022-06-10T08:59:05Z</time>
      </trkpt>
      <trkpt lat="44.77801" lon="4.10336">
        <ele>1022.4</ele>
        <time>2022-06-10T08:59:06Z</time>
      </trkpt>
      <trkpt lat="44.77798" lon="4.10337">
        <ele>1022.5</ele>
        <time>2022-06-10T08:59:07Z</time>
      </trkpt>
      <trkpt lat="44.77794" lon="4.10338">
        <ele>1022.6</ele>
        <time>2022-06-10T08:59:08Z</time>
      </trkpt>
      <trkpt lat="44.77787" lon="4.10338">
        <ele>1022.7</ele>
        <time>2022-06-10T08:59:09Z</time>
      </trkpt>
      <trkpt lat="44.77784" lon="4.10338">
        <ele>1022.8</ele>
        <time>2022-06-10T08:59:11Z</time>
      </trkpt>
      <trkpt lat="44.7778" lon="4.10339">
        <ele>1022.9</ele>
        <time>2022-06-10T08:59:12Z</time>
      </trkpt>
      <trkpt lat="44.77777" lon="4.10339">
        <ele>1023</ele>
        <time>2022-06-10T08:59:13Z</time>
      </trkpt>
      <trkpt lat="44.77774" lon="4.10339">
        <ele>1023.1</ele>
        <time>2022-06-10T08:59:14Z</time>
      </trkpt>
      <trkpt lat="44.77768" lon="4.10339">
        <ele>1023.2</ele>
        <time>2022-06-10T08:59:16Z</time>
      </trkpt>
      <trkpt lat="44.77763" lon="4.10338">
        <ele>1023.4</ele>
        <time>2022-06-10T08:59:17Z</time>
      </trkpt>
      <trkpt lat="44.7776" lon="4.10339">
        <ele>1023.5</ele>
        <time>2022-06-10T08:59:18Z</time>
      </trkpt>
      <trkpt lat="44.77756" lon="4.10339">
        <ele>1023.6</ele>
        <time>2022-06-10T08:59:20Z</time>
      </trkpt>
      <trkpt lat="44.77753" lon="4.10338">
        <ele>1023.7</ele>
        <time>2022-06-10T08:59:21Z</time>
      </trkpt>
      <trkpt lat="44.7775" lon="4.10337">
        <ele>1023.9</ele>
        <time>2022-06-10T08:59:22Z</time>
      </trkpt>
      <trkpt lat="44.77748" lon="4.10336">
        <ele>1023.9</ele>
        <time>2022-06-10T08:59:23Z</time>
      </trkpt>
      <trkpt lat="44.77744" lon="4.10335">
        <ele>1024.1</ele>
        <time>2022-06-10T08:59:24Z</time>
      </trkpt>
      <trkpt lat="44.77741" lon="4.10335">
        <ele>1024.2</ele>
        <time>2022-06-10T08:59:25Z</time>
      </trkpt>
      <trkpt lat="44.77738" lon="4.10335">
        <ele>1024.3</ele>
        <time>2022-06-10T08:59:26Z</time>
      </trkpt>
      <trkpt lat="44.77736" lon="4.10335">
        <ele>1024.4</ele>
        <time>2022-06-10T08:59:27Z</time>
      </trkpt>
      <trkpt lat="44.77732" lon="4.10334">
        <ele>1024.5</ele>
        <time>2022-06-10T08:59:28Z</time>
      </trkpt>
      <trkpt lat="44.77729" lon="4.10333">
        <ele>1024.6</ele>
        <time>2022-06-10T08:59:29Z</time>
      </trkpt>
      <trkpt lat="44.77726" lon="4.10333">
        <ele>1024.7</ele>
        <time>2022-06-10T08:59:30Z</time>
      </trkpt>
      <trkpt lat="44.77723" lon="4.10334">
        <ele>1024.8</ele>
        <time>2022-06-10T08:59:31Z</time>
      </trkpt>
      <trkpt lat="44.77719" lon="4.10334">
        <ele>1024.9</ele>
        <time>2022-06-10T08:59:32Z</time>
      </trkpt>
      <trkpt lat="44.77716" lon="4.10333">
        <ele>1025</ele>
        <time>2022-06-10T08:59:33Z</time>
      </trkpt>
      <trkpt lat="44.77712" lon="4.10334">
        <ele>1025.1</ele>
        <time>2022-06-10T08:59:34Z</time>
      </trkpt>
      <trkpt lat="44.7771" lon="4.10334">
        <ele>1025.2</ele>
        <time>2022-06-10T08:59:35Z</time>
      </trkpt>
      <trkpt lat="44.77705" lon="4.10336">
        <ele>1025.4</ele>
        <time>2022-06-10T08:59:36Z</time>
      </trkpt>
      <trkpt lat="44.77701" lon="4.10338">
        <ele>1025.5</ele>
        <time>2022-06-10T08:59:38Z</time>
      </trkpt>
      <trkpt lat="44.77698" lon="4.10339">
        <ele>1025.6</ele>
        <time>2022-06-10T08:59:39Z</time>
      </trkpt>
      <trkpt lat="44.77693" lon="4.1034">
        <ele>1025.7</ele>
        <time>2022-06-10T08:59:40Z</time>
      </trkpt>
      <trkpt lat="44.77689" lon="4.10342">
        <ele>1025.9</ele>
        <time>2022-06-10T08:59:41Z</time>
      </trkpt>
      <trkpt lat="44.77686" lon="4.10344">
        <ele>1026</ele>
        <time>2022-06-10T08:59:43Z</time>
      </trkpt>
      <trkpt lat="44.77682" lon="4.10348">
        <ele>1026.1</ele>
        <time>2022-06-10T08:59:44Z</time>
      </trkpt>
      <trkpt lat="44.77678" lon="4.10351">
        <ele>1026.3</ele>
        <time>2022-06-10T08:59:46Z</time>
      </trkpt>
      <trkpt lat="44.77675" lon="4.10352">
        <ele>1026.4</ele>
        <time>2022-06-10T08:59:47Z</time>
      </trkpt>
      <trkpt lat="44.77671" lon="4.10353">
        <ele>1026.5</ele>
        <time>2022-06-10T08:59:48Z</time>
      </trkpt>
      <trkpt lat="44.77668" lon="4.10355">
        <ele>1026.6</ele>
        <time>2022-06-10T08:59:49Z</time>
      </trkpt>
      <trkpt lat="44.77664" lon="4.10357">
        <ele>1026.7</ele>
        <time>2022-06-10T08:59:50Z</time>
      </trkpt>
      <trkpt lat="44.7766" lon="4.10358">
        <ele>1026.9</ele>
        <time>2022-06-10T08:59:51Z</time>
      </trkpt>
      <trkpt lat="44.77657" lon="4.10358">
        <ele>1027</ele>
        <time>2022-06-10T08:59:52Z</time>
      </trkpt>
      <trkpt lat="44.77653" lon="4.10357">
        <ele>1027.1</ele>
        <time>2022-06-10T08:59:53Z</time>
      </trkpt>
      <trkpt lat="44.77649" lon="4.10356">
        <ele>1027.2</ele>
        <time>2022-06-10T08:59:54Z</time>
      </trkpt>
      <trkpt lat="44.77646" lon="4.10354">
        <ele>1027.2</ele>
        <time>2022-06-10T08:59:55Z</time>
      </trkpt>
      <trkpt lat="44.77643" lon="4.10352">
        <ele>1027.2</ele>
        <time>2022-06-10T08:59:56Z</time>
      </trkpt>
      <trkpt lat="44.77641" lon="4.10349">
        <ele>1027.3</ele>
        <time>2022-06-10T08:59:57Z</time>
      </trkpt>
      <trkpt lat="44.77639" lon="4.10346">
        <ele>1027.3</ele>
        <time>2022-06-10T08:59:58Z</time>
      </trkpt>
      <trkpt lat="44.77636" lon="4.10344">
        <ele>1027.4</ele>
        <time>2022-06-10T08:59:59Z</time>
      </trkpt>
      <trkpt lat="44.77634" lon="4.1034">
        <ele>1027.5</ele>
        <time>2022-06-10T09:00:00Z</time>
      </trkpt>
      <trkpt lat="44.77633" lon="4.10337">
        <ele>1027.5</ele>
        <time>2022-06-10T09:00:01Z</time>
      </trkpt>
      <trkpt lat="44.77631" lon="4.10333">
        <ele>1027.6</ele>
        <time>2022-06-10T09:00:02Z</time>
      </trkpt>
      <trkpt lat="44.77629" lon="4.1033">
        <ele>1027.7</ele>
        <time>2022-06-10T09:00:03Z</time>
      </trkpt>
      <trkpt lat="44.77628" lon="4.10326">
        <ele>1027.7</ele>
        <time>2022-06-10T09:00:04Z</time>
      </trkpt>
      <trkpt lat="44.77626" lon="4.10323">
        <ele>1027.8</ele>
        <time>2022-06-10T09:00:05Z</time>
      </trkpt>
      <trkpt lat="44.77624" lon="4.10319">
        <ele>1027.9</ele>
        <time>2022-06-10T09:00:06Z</time>
      </trkpt>
      <trkpt lat="44.77621" lon="4.10316">
        <ele>1028</ele>
        <time>2022-06-10T09:00:07Z</time>
      </trkpt>
      <trkpt lat="44.77619" lon="4.10313">
        <ele>1028.1</ele>
        <time>2022-06-10T09:00:08Z</time>
      </trkpt>
      <trkpt lat="44.77614" lon="4.10309">
        <ele>1028.2</ele>
        <time>2022-06-10T09:00:09Z</time>
      </trkpt>
      <trkpt lat="44.7761" lon="4.10306">
        <ele>1028.3</ele>
        <time>2022-06-10T09:00:11Z</time>
      </trkpt>
      <trkpt lat="44.77606" lon="4.10304">
        <ele>1028.4</ele>
        <time>2022-06-10T09:00:12Z</time>
      </trkpt>
      <trkpt lat="44.776" lon="4.10302">
        <ele>1028.6</ele>
        <time>2022-06-10T09:00:13Z</time>
      </trkpt>
      <trkpt lat="44.77596" lon="4.103">
        <ele>1028.7</ele>
        <time>2022-06-10T09:00:15Z</time>
      </trkpt>
      <trkpt lat="44.77592" lon="4.10299">
        <ele>1028.8</ele>
        <time>2022-06-10T09:00:16Z</time>
      </trkpt>
      <trkpt lat="44.77588" lon="4.10298">
        <ele>1029</ele>
        <time>2022-06-10T09:00:17Z</time>
      </trkpt>
      <trkpt lat="44.77585" lon="4.10297">
        <ele>1029.1</ele>
        <time>2022-06-10T09:00:18Z</time>
      </trkpt>
      <trkpt lat="44.77582" lon="4.10296">
        <ele>1029.2</ele>
        <time>2022-06-10T09:00:19Z</time>
      </trkpt>
      <trkpt lat="44.77578" lon="4.10295">
        <ele>1029.3</ele>
        <time>2022-06-10T09:00:20Z</time>
      </trkpt>
      <trkpt lat="44.77575" lon="4.10294">
        <ele>1029.4</ele>
        <time>2022-06-10T09:00:21Z</time>
      </trkpt>
      <trkpt lat="44.77569" lon="4.10291">
        <ele>1029.5</ele>
        <time>2022-06-10T09:00:23Z</time>
      </trkpt>
      <trkpt lat="44.77566" lon="4.1029">
        <ele>1029.6</ele>
        <time>2022-06-10T09:00:24Z</time>
      </trkpt>
      <trkpt lat="44.77563" lon="4.10289">
        <ele>1029.7</ele>
        <time>2022-06-10T09:00:25Z</time>
      </trkpt>
      <trkpt lat="44.77559" lon="4.10288">
        <ele>1029.8</ele>
        <time>2022-06-10T09:00:26Z</time>
      </trkpt>
      <trkpt lat="44.77556" lon="4.10287">
        <ele>1029.9</ele>
        <time>2022-06-10T09:00:27Z</time>
      </trkpt>
      <trkpt lat="44.77552" lon="4.10285">
        <ele>1030.1</ele>
        <time>2022-06-10T09:00:28Z</time>
      </trkpt>
      <trkpt lat="44.77549" lon="4.10284">
        <ele>1030.2</ele>
        <time>2022-06-10T09:00:29Z</time>
      </trkpt>
      <trkpt lat="44.77547" lon="4.10282">
        <ele>1030.3</ele>
        <time>2022-06-10T09:00:30Z</time>
      </trkpt>
      <trkpt lat="44.77544" lon="4.10281">
        <ele>1030.4</ele>
        <time>2022-06-10T09:00:31Z</time>
      </trkpt>
      <trkpt lat="44.77541" lon="4.10279">
        <ele>1030.5</ele>
        <time>2022-06-10T09:00:32Z</time>
      </trkpt>
      <trkpt lat="44.77538" lon="4.10278">
        <ele>1030.6</ele>
        <time>2022-06-10T09:00:33Z</time>
      </trkpt>
      <trkpt lat="44.77535" lon="4.10278">
        <ele>1030.7</ele>
        <time>2022-06-10T09:00:34Z</time>
      </trkpt>
      <trkpt lat="44.77531" lon="4.10277">
        <ele>1030.8</ele>
        <time>2022-06-10T09:00:35Z</time>
      </trkpt>
      <trkpt lat="44.7753" lon="4.10276">
        <ele>1030.9</ele>
        <time>2022-06-10T09:00:36Z</time>
      </trkpt>
      <trkpt lat="44.77527" lon="4.10276">
        <ele>1030.9</ele>
        <time>2022-06-10T09:00:37Z</time>
      </trkpt>
      <trkpt lat="44.77524" lon="4.10275">
        <ele>1031</ele>
        <time>2022-06-10T09:00:38Z</time>
      </trkpt>
      <trkpt lat="44.77521" lon="4.10275">
        <ele>1031.1</ele>
        <time>2022-06-10T09:00:39Z</time>
      </trkpt>
      <trkpt lat="44.77519" lon="4.10275">
        <ele>1031.2</ele>
        <time>2022-06-10T09:00:40Z</time>
      </trkpt>
      <trkpt lat="44.77515" lon="4.10275">
        <ele>1031.3</ele>
        <time>2022-06-10T09:00:41Z</time>
      </trkpt>
      <trkpt lat="44.7751" lon="4.10276">
        <ele>1031.5</ele>
        <time>2022-06-10T09:00:43Z</time>
      </trkpt>
      <trkpt lat="44.77504" lon="4.10278">
        <ele>1031.6</ele>
        <time>2022-06-10T09:00:44Z</time>
      </trkpt>
      <trkpt lat="44.775" lon="4.10279">
        <ele>1031.7</ele>
        <time>2022-06-10T09:00:46Z</time>
      </trkpt>
      <trkpt lat="44.77497" lon="4.10281">
        <ele>1031.8</ele>
        <time>2022-06-10T09:00:47Z</time>
      </trkpt>
      <trkpt lat="44.77494" lon="4.10282">
        <ele>1031.9</ele>
        <time>2022-06-10T09:00:48Z</time>
      </trkpt>
      <trkpt lat="44.7749" lon="4.10284">
        <ele>1031.9</ele>
        <time>2022-06-10T09:00:49Z</time>
      </trkpt>
      <trkpt lat="44.77485" lon="4.10286">
        <ele>1031.9</ele>
        <time>2022-06-10T09:00:50Z</time>
      </trkpt>
      <trkpt lat="44.77477" lon="4.10291">
        <ele>1032</ele>
        <time>2022-06-10T09:00:52Z</time>
      </trkpt>
      <trkpt lat="44.77473" lon="4.10293">
        <ele>1032</ele>
        <time>2022-06-10T09:00:54Z</time>
      </trkpt>
      <trkpt lat="44.77465" lon="4.10296">
        <ele>1032</ele>
        <time>2022-06-10T09:00:55Z</time>
      </trkpt>
      <trkpt lat="44.77461" lon="4.10298">
        <ele>1032</ele>
        <time>2022-06-10T09:00:57Z</time>
      </trkpt>
      <trkpt lat="44.77455" lon="4.103">
        <ele>1032</ele>
        <time>2022-06-10T09:00:58Z</time>
      </trkpt>
      <trkpt lat="44.7745" lon="4.10302">
        <ele>1031.9</ele>
        <time>2022-06-10T09:00:59Z</time>
      </trkpt>
      <trkpt lat="44.77445" lon="4.10303">
        <ele>1031.9</ele>
        <time>2022-06-10T09:01:00Z</time>
      </trkpt>
      <trkpt lat="44.77441" lon="4.10304">
        <ele>1031.9</ele>
        <time>2022-06-10T09:01:01Z</time>
      </trkpt>
      <trkpt lat="44.77436" lon="4.10304">
        <ele>1031.8</ele>
        <time>2022-06-10T09:01:02Z</time>
      </trkpt>
      <trkpt lat="44.77431" lon="4.10304">
        <ele>1031.8</ele>
        <time>2022-06-10T09:01:03Z</time>
      </trkpt>
      <trkpt lat="44.77426" lon="4.10304">
        <ele>1031.7</ele>
        <time>2022-06-10T09:01:04Z</time>
      </trkpt>
      <trkpt lat="44.77421" lon="4.10304">
        <ele>1031.6</ele>
        <time>2022-06-10T09:01:05Z</time>
      </trkpt>
      <trkpt lat="44.77416" lon="4.10303">
        <ele>1031.5</ele>
        <time>2022-06-10T09:01:06Z</time>
      </trkpt>
      <trkpt lat="44.77411" lon="4.10302">
        <ele>1031.4</ele>
        <time>2022-06-10T09:01:07Z</time>
      </trkpt>
      <trkpt lat="44.77406" lon="4.10301">
        <ele>1031.3</ele>
        <time>2022-06-10T09:01:08Z</time>
      </trkpt>
      <trkpt lat="44.77401" lon="4.10299">
        <ele>1031.2</ele>
        <time>2022-06-10T09:01:09Z</time>
      </trkpt>
      <trkpt lat="44.77396" lon="4.10298">
        <ele>1031.1</ele>
        <time>2022-06-10T09:01:10Z</time>
      </trkpt>
      <trkpt lat="44.7739" lon="4.10297">
        <ele>1030.9</ele>
        <time>2022-06-10T09:01:11Z</time>
      </trkpt>
      <trkpt lat="44.77384" lon="4.10295">
        <ele>1030.8</ele>
        <time>2022-06-10T09:01:12Z</time>
      </trkpt>
      <trkpt lat="44.77378" lon="4.10294">
        <ele>1030.7</ele>
        <time>2022-06-10T09:01:13Z</time>
      </trkpt>
      <trkpt lat="44.77372" lon="4.10292">
        <ele>1030.5</ele>
        <time>2022-06-10T09:01:14Z</time>
      </trkpt>
      <trkpt lat="44.77366" lon="4.1029">
        <ele>1030.4</ele>
        <time>2022-06-10T09:01:15Z</time>
      </trkpt>
      <trkpt lat="44.77361" lon="4.10287">
        <ele>1030.3</ele>
        <time>2022-06-10T09:01:16Z</time>
      </trkpt>
      <trkpt lat="44.77355" lon="4.10284">
        <ele>1030.1</ele>
        <time>2022-06-10T09:01:17Z</time>
      </trkpt>
      <trkpt lat="44.7735" lon="4.1028">
        <ele>1029.9</ele>
        <time>2022-06-10T09:01:18Z</time>
      </trkpt>
      <trkpt lat="44.77344" lon="4.10277">
        <ele>1029.8</ele>
        <time>2022-06-10T09:01:19Z</time>
      </trkpt>
      <trkpt lat="44.77339" lon="4.10273">
        <ele>1029.6</ele>
        <time>2022-06-10T09:01:20Z</time>
      </trkpt>
      <trkpt lat="44.77332" lon="4.1027">
        <ele>1029.5</ele>
        <time>2022-06-10T09:01:21Z</time>
      </trkpt>
      <trkpt lat="44.77326" lon="4.10266">
        <ele>1029.3</ele>
        <time>2022-06-10T09:01:22Z</time>
      </trkpt>
      <trkpt lat="44.7732" lon="4.10263">
        <ele>1029.2</ele>
        <time>2022-06-10T09:01:23Z</time>
      </trkpt>
      <trkpt lat="44.77314" lon="4.1026">
        <ele>1029.1</ele>
        <time>2022-06-10T09:01:24Z</time>
      </trkpt>
      <trkpt lat="44.77308" lon="4.10256">
        <ele>1029</ele>
        <time>2022-06-10T09:01:25Z</time>
      </trkpt>
      <trkpt lat="44.77302" lon="4.10253">
        <ele>1029</ele>
        <time>2022-06-10T09:01:26Z</time>
      </trkpt>
      <trkpt lat="44.77296" lon="4.10248">
        <ele>1028.9</ele>
        <time>2022-06-10T09:01:27Z</time>
      </trkpt>
      <trkpt lat="44.7729" lon="4.10244">
        <ele>1028.9</ele>
        <time>2022-06-10T09:01:28Z</time>
      </trkpt>
      <trkpt lat="44.77284" lon="4.10241">
        <ele>1028.9</ele>
        <time>2022-06-10T09:01:29Z</time>
      </trkpt>
      <trkpt lat="44.77277" lon="4.10237">
        <ele>1028.9</ele>
        <time>2022-06-10T09:01:30Z</time>
      </trkpt>
      <trkpt lat="44.77271" lon="4.10234">
        <ele>1028.9</ele>
        <time>2022-06-10T09:01:31Z</time>
      </trkpt>
      <trkpt lat="44.77265" lon="4.10232">
        <ele>1029</ele>
        <time>2022-06-10T09:01:32Z</time>
      </trkpt>
      <trkpt lat="44.77259" lon="4.1023">
        <ele>1029</ele>
        <time>2022-06-10T09:01:33Z</time>
      </trkpt>
      <trkpt lat="44.77253" lon="4.10227">
        <ele>1029.1</ele>
        <time>2022-06-10T09:01:34Z</time>
      </trkpt>
      <trkpt lat="44.77247" lon="4.10224">
        <ele>1029.1</ele>
        <time>2022-06-10T09:01:35Z</time>
      </trkpt>
      <trkpt lat="44.77242" lon="4.10221">
        <ele>1029.2</ele>
        <time>2022-06-10T09:01:36Z</time>
      </trkpt>
      <trkpt lat="44.77236" lon="4.10217">
        <ele>1029.2</ele>
        <time>2022-06-10T09:01:37Z</time>
      </trkpt>
      <trkpt lat="44.7723" lon="4.10214">
        <ele>1029.2</ele>
        <time>2022-06-10T09:01:38Z</time>
      </trkpt>
      <trkpt lat="44.77224" lon="4.10212">
        <ele>1029.3</ele>
        <time>2022-06-10T09:01:39Z</time>
      </trkpt>
      <trkpt lat="44.77218" lon="4.10209">
        <ele>1029.3</ele>
        <time>2022-06-10T09:01:40Z</time>
      </trkpt>
      <trkpt lat="44.77212" lon="4.10206">
        <ele>1029.3</ele>
        <time>2022-06-10T09:01:41Z</time>
      </trkpt>
      <trkpt lat="44.77206" lon="4.10204">
        <ele>1029.3</ele>
        <time>2022-06-10T09:01:42Z</time>
      </trkpt>
      <trkpt lat="44.77201" lon="4.10201">
        <ele>1029.3</ele>
        <time>2022-06-10T09:01:43Z</time>
      </trkpt>
      <trkpt lat="44.77195" lon="4.10198">
        <ele>1029.3</ele>
        <time>2022-06-10T09:01:44Z</time>
      </trkpt>
      <trkpt lat="44.77189" lon="4.10195">
        <ele>1029.3</ele>
        <time>2022-06-10T09:01:45Z</time>
      </trkpt>
      <trkpt lat="44.77183" lon="4.10192">
        <ele>1029.3</ele>
        <time>2022-06-10T09:01:46Z</time>
      </trkpt>
      <trkpt lat="44.77176" lon="4.1019">
        <ele>1029.2</ele>
        <time>2022-06-10T09:01:47Z</time>
      </trkpt>
      <trkpt lat="44.7717" lon="4.10188">
        <ele>1029.2</ele>
        <time>2022-06-10T09:01:48Z</time>
      </trkpt>
      <trkpt lat="44.77164" lon="4.10186">
        <ele>1029.2</ele>
        <time>2022-06-10T09:01:49Z</time>
      </trkpt>
      <trkpt lat="44.77158" lon="4.10184">
        <ele>1029.1</ele>
        <time>2022-06-10T09:01:50Z</time>
      </trkpt>
      <trkpt lat="44.77152" lon="4.10183">
        <ele>1029.1</ele>
        <time>2022-06-10T09:01:51Z</time>
      </trkpt>
      <trkpt lat="44.77146" lon="4.10182">
        <ele>1029</ele>
        <time>2022-06-10T09:01:52Z</time>
      </trkpt>
      <trkpt lat="44.7714" lon="4.10183">
        <ele>1029</ele>
        <time>2022-06-10T09:01:53Z</time>
      </trkpt>
      <trkpt lat="44.77134" lon="4.10184">
        <ele>1028.9</ele>
        <time>2022-06-10T09:01:54Z</time>
      </trkpt>
      <trkpt lat="44.77127" lon="4.10186">
        <ele>1028.9</ele>
        <time>2022-06-10T09:01:55Z</time>
      </trkpt>
      <trkpt lat="44.77121" lon="4.10188">
        <ele>1028.9</ele>
        <time>2022-06-10T09:01:56Z</time>
      </trkpt>
      <trkpt lat="44.77115" lon="4.10191">
        <ele>1028.9</ele>
        <time>2022-06-10T09:01:57Z</time>
      </trkpt>
      <trkpt lat="44.77108" lon="4.10194">
        <ele>1028.9</ele>
        <time>2022-06-10T09:01:58Z</time>
      </trkpt>
      <trkpt lat="44.77101" lon="4.10196">
        <ele>1028.9</ele>
        <time>2022-06-10T09:01:59Z</time>
      </trkpt>
      <trkpt lat="44.77095" lon="4.10197">
        <ele>1028.9</ele>
        <time>2022-06-10T09:02:00Z</time>
      </trkpt>
      <trkpt lat="44.77088" lon="4.10194">
        <ele>1028.8</ele>
        <time>2022-06-10T09:02:01Z</time>
      </trkpt>
      <trkpt lat="44.77082" lon="4.10187">
        <ele>1028.8</ele>
        <time>2022-06-10T09:02:02Z</time>
      </trkpt>
      <trkpt lat="44.77077" lon="4.1018">
        <ele>1028.7</ele>
        <time>2022-06-10T09:02:03Z</time>
      </trkpt>
      <trkpt lat="44.77074" lon="4.10173">
        <ele>1028.8</ele>
        <time>2022-06-10T09:02:04Z</time>
      </trkpt>
      <trkpt lat="44.77073" lon="4.10165">
        <ele>1029.1</ele>
        <time>2022-06-10T09:02:05Z</time>
      </trkpt>
      <trkpt lat="44.77073" lon="4.10157">
        <ele>1029.3</ele>
        <time>2022-06-10T09:02:06Z</time>
      </trkpt>
      <trkpt lat="44.77075" lon="4.10151">
        <ele>1029.5</ele>
        <time>2022-06-10T09:02:07Z</time>
      </trkpt>
      <trkpt lat="44.77076" lon="4.10146">
        <ele>1029.6</ele>
        <time>2022-06-10T09:02:08Z</time>
      </trkpt>
      <trkpt lat="44.77076" lon="4.10144">
        <ele>1029.7</ele>
        <time>2022-06-10T09:02:09Z</time>
      </trkpt>
      <trkpt lat="44.77078" lon="4.1014">
        <ele>1029.8</ele>
        <time>2022-06-10T09:02:10Z</time>
      </trkpt>
      <trkpt lat="44.77079" lon="4.10137">
        <ele>1030</ele>
        <time>2022-06-10T09:02:11Z</time>
      </trkpt>
      <trkpt lat="44.77081" lon="4.10133">
        <ele>1030.1</ele>
        <time>2022-06-10T09:02:12Z</time>
      </trkpt>
      <trkpt lat="44.77082" lon="4.10128">
        <ele>1030.3</ele>
        <time>2022-06-10T09:02:13Z</time>
      </trkpt>
      <trkpt lat="44.77083" lon="4.10127">
        <ele>1030.4</ele>
        <time>2022-06-10T09:02:14Z</time>
      </trkpt>
      <trkpt lat="44.77085" lon="4.10122">
        <ele>1030.5</ele>
        <time>2022-06-10T09:02:15Z</time>
      </trkpt>
      <trkpt lat="44.77085" lon="4.1012">
        <ele>1030.6</ele>
        <time>2022-06-10T09:02:16Z</time>
      </trkpt>
      <trkpt lat="44.77087" lon="4.10116">
        <ele>1030.7</ele>
        <time>2022-06-10T09:02:17Z</time>
      </trkpt>
      <trkpt lat="44.77089" lon="4.10113">
        <ele>1030.9</ele>
        <time>2022-06-10T09:02:18Z</time>
      </trkpt>
      <trkpt lat="44.7709" lon="4.10109">
        <ele>1031</ele>
        <time>2022-06-10T09:02:19Z</time>
      </trkpt>
      <trkpt lat="44.77092" lon="4.10105">
        <ele>1031.2</ele>
        <time>2022-06-10T09:02:20Z</time>
      </trkpt>
      <trkpt lat="44.77093" lon="4.10102">
        <ele>1031.3</ele>
        <time>2022-06-10T09:02:21Z</time>
      </trkpt>
      <trkpt lat="44.77095" lon="4.10098">
        <ele>1031.5</ele>
        <time>2022-06-10T09:02:22Z</time>
      </trkpt>
      <trkpt lat="44.77098" lon="4.10094">
        <ele>1031.7</ele>
        <time>2022-06-10T09:02:23Z</time>
      </trkpt>
      <trkpt lat="44.771" lon="4.1009">
        <ele>1031.9</ele>
        <time>2022-06-10T09:02:24Z</time>
      </trkpt>
      <trkpt lat="44.77102" lon="4.10087">
        <ele>1032.1</ele>
        <time>2022-06-10T09:02:25Z</time>
      </trkpt>
      <trkpt lat="44.77105" lon="4.10084">
        <ele>1032.3</ele>
        <time>2022-06-10T09:02:27Z</time>
      </trkpt>
      <trkpt lat="44.77107" lon="4.10081">
        <ele>1032.5</ele>
        <time>2022-06-10T09:02:28Z</time>
      </trkpt>
      <trkpt lat="44.77109" lon="4.10077">
        <ele>1032.8</ele>
        <time>2022-06-10T09:02:29Z</time>
      </trkpt>
      <trkpt lat="44.7711" lon="4.10076">
        <ele>1032.9</ele>
        <time>2022-06-10T09:02:30Z</time>
      </trkpt>
      <trkpt lat="44.77113" lon="4.10073">
        <ele>1033.2</ele>
        <time>2022-06-10T09:02:32Z</time>
      </trkpt>
      <trkpt lat="44.77114" lon="4.10071">
        <ele>1033.3</ele>
        <time>2022-06-10T09:02:33Z</time>
      </trkpt>
      <trkpt lat="44.77117" lon="4.10068">
        <ele>1033.6</ele>
        <time>2022-06-10T09:02:35Z</time>
      </trkpt>
      <trkpt lat="44.77118" lon="4.10066">
        <ele>1033.7</ele>
        <time>2022-06-10T09:02:36Z</time>
      </trkpt>
      <trkpt lat="44.77119" lon="4.10065">
        <ele>1033.8</ele>
        <time>2022-06-10T09:02:37Z</time>
      </trkpt>
      <trkpt lat="44.77121" lon="4.10061">
        <ele>1034.1</ele>
        <time>2022-06-10T09:02:38Z</time>
      </trkpt>
      <trkpt lat="44.77123" lon="4.1006">
        <ele>1034.3</ele>
        <time>2022-06-10T09:02:40Z</time>
      </trkpt>
      <trkpt lat="44.77124" lon="4.10058">
        <ele>1034.4</ele>
        <time>2022-06-10T09:02:41Z</time>
      </trkpt>
      <trkpt lat="44.77125" lon="4.10056">
        <ele>1034.5</ele>
        <time>2022-06-10T09:02:42Z</time>
      </trkpt>
      <trkpt lat="44.77127" lon="4.10053">
        <ele>1034.8</ele>
        <time>2022-06-10T09:02:43Z</time>
      </trkpt>
      <trkpt lat="44.77128" lon="4.10051">
        <ele>1034.9</ele>
        <time>2022-06-10T09:02:45Z</time>
      </trkpt>
      <trkpt lat="44.77129" lon="4.10049">
        <ele>1035.1</ele>
        <time>2022-06-10T09:02:46Z</time>
      </trkpt>
      <trkpt lat="44.7713" lon="4.10047">
        <ele>1035.2</ele>
        <time>2022-06-10T09:02:47Z</time>
      </trkpt>
      <trkpt lat="44.77131" lon="4.10045">
        <ele>1035.4</ele>
        <time>2022-06-10T09:02:48Z</time>
      </trkpt>
      <trkpt lat="44.77132" lon="4.10043">
        <ele>1035.5</ele>
        <time>2022-06-10T09:02:49Z</time>
      </trkpt>
      <trkpt lat="44.77133" lon="4.10041">
        <ele>1035.6</ele>
        <time>2022-06-10T09:02:50Z</time>
      </trkpt>
      <trkpt lat="44.77134" lon="4.10039">
        <ele>1035.8</ele>
        <time>2022-06-10T09:02:51Z</time>
      </trkpt>
      <trkpt lat="44.77135" lon="4.10037">
        <ele>1035.9</ele>
        <time>2022-06-10T09:02:52Z</time>
      </trkpt>
      <trkpt lat="44.77135" lon="4.10035">
        <ele>1036</ele>
        <time>2022-06-10T09:02:53Z</time>
      </trkpt>
      <trkpt lat="44.77136" lon="4.10033">
        <ele>1036.1</ele>
        <time>2022-06-10T09:02:54Z</time>
      </trkpt>
      <trkpt lat="44.77137" lon="4.10031">
        <ele>1036.3</ele>
        <time>2022-06-10T09:02:55Z</time>
      </trkpt>
      <trkpt lat="44.77138" lon="4.10029">
        <ele>1036.4</ele>
        <time>2022-06-10T09:02:56Z</time>
      </trkpt>
      <trkpt lat="44.77138" lon="4.10028">
        <ele>1036.5</ele>
        <time>2022-06-10T09:02:57Z</time>
      </trkpt>
      <trkpt lat="44.77139" lon="4.10024">
        <ele>1036.7</ele>
        <time>2022-06-10T09:02:58Z</time>
      </trkpt>
      <trkpt lat="44.77139" lon="4.10023">
        <ele>1036.7</ele>
        <time>2022-06-10T09:02:59Z</time>
      </trkpt>
      <trkpt lat="44.77139" lon="4.10022">
        <ele>1036.8</ele>
        <time>2022-06-10T09:03:00Z</time>
      </trkpt>
      <trkpt lat="44.7714" lon="4.1002">
        <ele>1036.9</ele>
        <time>2022-06-10T09:03:01Z</time>
      </trkpt>
      <trkpt lat="44.7714" lon="4.10018">
        <ele>1037</ele>
        <time>2022-06-10T09:03:02Z</time>
      </trkpt>
      <trkpt lat="44.77141" lon="4.10013">
        <ele>1037.3</ele>
        <time>2022-06-10T09:03:04Z</time>
      </trkpt>
      <trkpt lat="44.77141" lon="4.10011">
        <ele>1037.4</ele>
        <time>2022-06-10T09:03:05Z</time>
      </trkpt>
      <trkpt lat="44.77141" lon="4.10009">
        <ele>1037.5</ele>
        <time>2022-06-10T09:03:06Z</time>
      </trkpt>
      <trkpt lat="44.77141" lon="4.10007">
        <ele>1037.6</ele>
        <time>2022-06-10T09:03:07Z</time>
      </trkpt>
      <trkpt lat="44.77141" lon="4.10005">
        <ele>1037.7</ele>
        <time>2022-06-10T09:03:08Z</time>
      </trkpt>
      <trkpt lat="44.77141" lon="4.10003">
        <ele>1037.8</ele>
        <time>2022-06-10T09:03:09Z</time>
      </trkpt>
      <trkpt lat="44.77141" lon="4.10001">
        <ele>1038</ele>
        <time>2022-06-10T09:03:10Z</time>
      </trkpt>
      <trkpt lat="44.77141" lon="4.09998">
        <ele>1038.2</ele>
        <time>2022-06-10T09:03:11Z</time>
      </trkpt>
      <trkpt lat="44.77141" lon="4.09997">
        <ele>1038.2</ele>
        <time>2022-06-10T09:03:12Z</time>
      </trkpt>
      <trkpt lat="44.77141" lon="4.09996">
        <ele>1038.3</ele>
        <time>2022-06-10T09:03:13Z</time>
      </trkpt>
      <trkpt lat="44.77141" lon="4.09992">
        <ele>1038.6</ele>
        <time>2022-06-10T09:03:15Z</time>
      </trkpt>
      <trkpt lat="44.77141" lon="4.09991">
        <ele>1038.7</ele>
        <time>2022-06-10T09:03:16Z</time>
      </trkpt>
      <trkpt lat="44.7714" lon="4.09988">
        <ele>1038.9</ele>
        <time>2022-06-10T09:03:17Z</time>
      </trkpt>
      <trkpt lat="44.7714" lon="4.09985">
        <ele>1039.1</ele>
        <time>2022-06-10T09:03:19Z</time>
      </trkpt>
      <trkpt lat="44.7714" lon="4.09983">
        <ele>1039.2</ele>
        <time>2022-06-10T09:03:20Z</time>
      </trkpt>
      <trkpt lat="44.7714" lon="4.09981">
        <ele>1039.3</ele>
        <time>2022-06-10T09:03:21Z</time>
      </trkpt>
      <trkpt lat="44.77139" lon="4.09978">
        <ele>1039.5</ele>
        <time>2022-06-10T09:03:22Z</time>
      </trkpt>
      <trkpt lat="44.77139" lon="4.09976">
        <ele>1039.6</ele>
        <time>2022-06-10T09:03:23Z</time>
      </trkpt>
      <trkpt lat="44.77139" lon="4.09972">
        <ele>1039.9</ele>
        <time>2022-06-10T09:03:24Z</time>
      </trkpt>
      <trkpt lat="44.77138" lon="4.09969">
        <ele>1040</ele>
        <time>2022-06-10T09:03:26Z</time>
      </trkpt>
      <trkpt lat="44.77138" lon="4.09967">
        <ele>1040.2</ele>
        <time>2022-06-10T09:03:27Z</time>
      </trkpt>
      <trkpt lat="44.77137" lon="4.09965">
        <ele>1040.3</ele>
        <time>2022-06-10T09:03:28Z</time>
      </trkpt>
      <trkpt lat="44.77137" lon="4.09963">
        <ele>1040.4</ele>
        <time>2022-06-10T09:03:29Z</time>
      </trkpt>
      <trkpt lat="44.77137" lon="4.09961">
        <ele>1040.5</ele>
        <time>2022-06-10T09:03:30Z</time>
      </trkpt>
      <trkpt lat="44.77136" lon="4.09959">
        <ele>1040.7</ele>
        <time>2022-06-10T09:03:31Z</time>
      </trkpt>
      <trkpt lat="44.77136" lon="4.09957">
        <ele>1040.8</ele>
        <time>2022-06-10T09:03:32Z</time>
      </trkpt>
      <trkpt lat="44.77135" lon="4.09955">
        <ele>1040.9</ele>
        <time>2022-06-10T09:03:33Z</time>
      </trkpt>
      <trkpt lat="44.77134" lon="4.09952">
        <ele>1041.2</ele>
        <time>2022-06-10T09:03:34Z</time>
      </trkpt>
      <trkpt lat="44.77133" lon="4.0995">
        <ele>1041.3</ele>
        <time>2022-06-10T09:03:35Z</time>
      </trkpt>
      <trkpt lat="44.77132" lon="4.09946">
        <ele>1041.5</ele>
        <time>2022-06-10T09:03:36Z</time>
      </trkpt>
      <trkpt lat="44.77131" lon="4.09946">
        <ele>1041.6</ele>
        <time>2022-06-10T09:03:37Z</time>
      </trkpt>
      <trkpt lat="44.7713" lon="4.09943">
        <ele>1041.7</ele>
        <time>2022-06-10T09:03:39Z</time>
      </trkpt>
      <trkpt lat="44.77129" lon="4.09942">
        <ele>1041.9</ele>
        <time>2022-06-10T09:03:40Z</time>
      </trkpt>
      <trkpt lat="44.77129" lon="4.0994">
        <ele>1042</ele>
        <time>2022-06-10T09:03:41Z</time>
      </trkpt>
      <trkpt lat="44.77128" lon="4.09939">
        <ele>1042.1</ele>
        <time>2022-06-10T09:03:42Z</time>
      </trkpt>
      <trkpt lat="44.77127" lon="4.09937">
        <ele>1042.2</ele>
        <time>2022-06-10T09:03:43Z</time>
      </trkpt>
      <trkpt lat="44.77126" lon="4.09935">
        <ele>1042.4</ele>
        <time>2022-06-10T09:03:44Z</time>
      </trkpt>
      <trkpt lat="44.77125" lon="4.09933">
        <ele>1042.5</ele>
        <time>2022-06-10T09:03:45Z</time>
      </trkpt>
      <trkpt lat="44.77124" lon="4.09932">
        <ele>1042.6</ele>
        <time>2022-06-10T09:03:46Z</time>
      </trkpt>
      <trkpt lat="44.77123" lon="4.0993">
        <ele>1042.7</ele>
        <time>2022-06-10T09:03:47Z</time>
      </trkpt>
      <trkpt lat="44.77122" lon="4.09928">
        <ele>1042.8</ele>
        <time>2022-06-10T09:03:48Z</time>
      </trkpt>
      <trkpt lat="44.77121" lon="4.09927">
        <ele>1043</ele>
        <time>2022-06-10T09:03:49Z</time>
      </trkpt>
      <trkpt lat="44.77119" lon="4.09925">
        <ele>1043.1</ele>
        <time>2022-06-10T09:03:50Z</time>
      </trkpt>
      <trkpt lat="44.77119" lon="4.09923">
        <ele>1043.2</ele>
        <time>2022-06-10T09:03:51Z</time>
      </trkpt>
      <trkpt lat="44.77117" lon="4.09921">
        <ele>1043.3</ele>
        <time>2022-06-10T09:03:52Z</time>
      </trkpt>
      <trkpt lat="44.77116" lon="4.09918">
        <ele>1043.5</ele>
        <time>2022-06-10T09:03:53Z</time>
      </trkpt>
      <trkpt lat="44.77115" lon="4.09917">
        <ele>1043.6</ele>
        <time>2022-06-10T09:03:54Z</time>
      </trkpt>
      <trkpt lat="44.77114" lon="4.09913">
        <ele>1043.8</ele>
        <time>2022-06-10T09:03:55Z</time>
      </trkpt>
      <trkpt lat="44.77113" lon="4.09912">
        <ele>1043.8</ele>
        <time>2022-06-10T09:03:56Z</time>
      </trkpt>
      <trkpt lat="44.77111" lon="4.09909">
        <ele>1044</ele>
        <time>2022-06-10T09:03:57Z</time>
      </trkpt>
      <trkpt lat="44.77111" lon="4.09908">
        <ele>1044.1</ele>
        <time>2022-06-10T09:03:58Z</time>
      </trkpt>
      <trkpt lat="44.77109" lon="4.09905">
        <ele>1044.3</ele>
        <time>2022-06-10T09:03:59Z</time>
      </trkpt>
      <trkpt lat="44.77108" lon="4.09904">
        <ele>1044.4</ele>
        <time>2022-06-10T09:04:00Z</time>
      </trkpt>
      <trkpt lat="44.77107" lon="4.099">
        <ele>1044.5</ele>
        <time>2022-06-10T09:04:01Z</time>
      </trkpt>
      <trkpt lat="44.77106" lon="4.09899">
        <ele>1044.6</ele>
        <time>2022-06-10T09:04:02Z</time>
      </trkpt>
      <trkpt lat="44.77104" lon="4.09895">
        <ele>1044.8</ele>
        <time>2022-06-10T09:04:03Z</time>
      </trkpt>
      <trkpt lat="44.77103" lon="4.09892">
        <ele>1045</ele>
        <time>2022-06-10T09:04:04Z</time>
      </trkpt>
      <trkpt lat="44.77102" lon="4.0989">
        <ele>1045.1</ele>
        <time>2022-06-10T09:04:06Z</time>
      </trkpt>
      <trkpt lat="44.771" lon="4.09886">
        <ele>1045.3</ele>
        <time>2022-06-10T09:04:07Z</time>
      </trkpt>
      <trkpt lat="44.77098" lon="4.09883">
        <ele>1045.5</ele>
        <time>2022-06-10T09:04:08Z</time>
      </trkpt>
      <trkpt lat="44.77096" lon="4.09879">
        <ele>1045.7</ele>
        <time>2022-06-10T09:04:10Z</time>
      </trkpt>
      <trkpt lat="44.77095" lon="4.09878">
        <ele>1045.7</ele>
        <time>2022-06-10T09:04:11Z</time>
      </trkpt>
      <trkpt lat="44.77093" lon="4.09874">
        <ele>1046</ele>
        <time>2022-06-10T09:04:12Z</time>
      </trkpt>
      <trkpt lat="44.77092" lon="4.09872">
        <ele>1046.1</ele>
        <time>2022-06-10T09:04:13Z</time>
      </trkpt>
      <trkpt lat="44.7709" lon="4.09869">
        <ele>1046.2</ele>
        <time>2022-06-10T09:04:14Z</time>
      </trkpt>
      <trkpt lat="44.77089" lon="4.09866">
        <ele>1046.3</ele>
        <time>2022-06-10T09:04:15Z</time>
      </trkpt>
      <trkpt lat="44.77088" lon="4.09863">
        <ele>1046.5</ele>
        <time>2022-06-10T09:04:17Z</time>
      </trkpt>
      <trkpt lat="44.77086" lon="4.0986">
        <ele>1046.6</ele>
        <time>2022-06-10T09:04:18Z</time>
      </trkpt>
      <trkpt lat="44.77085" lon="4.09858">
        <ele>1046.7</ele>
        <time>2022-06-10T09:04:19Z</time>
      </trkpt>
      <trkpt lat="44.77083" lon="4.09855">
        <ele>1046.9</ele>
        <time>2022-06-10T09:04:20Z</time>
      </trkpt>
      <trkpt lat="44.77081" lon="4.09852">
        <ele>1047</ele>
        <time>2022-06-10T09:04:21Z</time>
      </trkpt>
      <trkpt lat="44.77078" lon="4.09849">
        <ele>1047.2</ele>
        <time>2022-06-10T09:04:23Z</time>
      </trkpt>
      <trkpt lat="44.77077" lon="4.09848">
        <ele>1047.3</ele>
        <time>2022-06-10T09:04:24Z</time>
      </trkpt>
      <trkpt lat="44.77075" lon="4.09845">
        <ele>1047.5</ele>
        <time>2022-06-10T09:04:25Z</time>
      </trkpt>
      <trkpt lat="44.77074" lon="4.09844">
        <ele>1047.5</ele>
        <time>2022-06-10T09:04:26Z</time>
      </trkpt>
      <trkpt lat="44.77072" lon="4.09841">
        <ele>1047.7</ele>
        <time>2022-06-10T09:04:27Z</time>
      </trkpt>
      <trkpt lat="44.77071" lon="4.0984">
        <ele>1047.8</ele>
        <time>2022-06-10T09:04:28Z</time>
      </trkpt>
      <trkpt lat="44.77069" lon="4.09837">
        <ele>1048</ele>
        <time>2022-06-10T09:04:29Z</time>
      </trkpt>
      <trkpt lat="44.77068" lon="4.09836">
        <ele>1048.1</ele>
        <time>2022-06-10T09:04:30Z</time>
      </trkpt>
      <trkpt lat="44.77064" lon="4.09832">
        <ele>1048.3</ele>
        <time>2022-06-10T09:04:31Z</time>
      </trkpt>
      <trkpt lat="44.77063" lon="4.0983">
        <ele>1048.5</ele>
        <time>2022-06-10T09:04:32Z</time>
      </trkpt>
      <trkpt lat="44.77061" lon="4.09828">
        <ele>1048.6</ele>
        <time>2022-06-10T09:04:34Z</time>
      </trkpt>
      <trkpt lat="44.77058" lon="4.09825">
        <ele>1048.8</ele>
        <time>2022-06-10T09:04:35Z</time>
      </trkpt>
      <trkpt lat="44.77057" lon="4.09824">
        <ele>1048.9</ele>
        <time>2022-06-10T09:04:36Z</time>
      </trkpt>
      <trkpt lat="44.77055" lon="4.09823">
        <ele>1049</ele>
        <time>2022-06-10T09:04:37Z</time>
      </trkpt>
      <trkpt lat="44.77054" lon="4.09822">
        <ele>1049.1</ele>
        <time>2022-06-10T09:04:38Z</time>
      </trkpt>
      <trkpt lat="44.77052" lon="4.09819">
        <ele>1049.3</ele>
        <time>2022-06-10T09:04:39Z</time>
      </trkpt>
      <trkpt lat="44.77051" lon="4.09818">
        <ele>1049.3</ele>
        <time>2022-06-10T09:04:40Z</time>
      </trkpt>
      <trkpt lat="44.77049" lon="4.09816">
        <ele>1049.5</ele>
        <time>2022-06-10T09:04:41Z</time>
      </trkpt>
      <trkpt lat="44.77048" lon="4.09815">
        <ele>1049.6</ele>
        <time>2022-06-10T09:04:42Z</time>
      </trkpt>
      <trkpt lat="44.77045" lon="4.09812">
        <ele>1049.8</ele>
        <time>2022-06-10T09:04:43Z</time>
      </trkpt>
      <trkpt lat="44.77044" lon="4.09811">
        <ele>1049.9</ele>
        <time>2022-06-10T09:04:44Z</time>
      </trkpt>
      <trkpt lat="44.77041" lon="4.09808">
        <ele>1050.1</ele>
        <time>2022-06-10T09:04:45Z</time>
      </trkpt>
      <trkpt lat="44.7704" lon="4.09807">
        <ele>1050.2</ele>
        <time>2022-06-10T09:04:46Z</time>
      </trkpt>
      <trkpt lat="44.77037" lon="4.09804">
        <ele>1050.4</ele>
        <time>2022-06-10T09:04:47Z</time>
      </trkpt>
      <trkpt lat="44.77034" lon="4.098">
        <ele>1050.7</ele>
        <time>2022-06-10T09:04:49Z</time>
      </trkpt>
      <trkpt lat="44.77032" lon="4.09798">
        <ele>1050.8</ele>
        <time>2022-06-10T09:04:50Z</time>
      </trkpt>
      <trkpt lat="44.77031" lon="4.09796">
        <ele>1050.9</ele>
        <time>2022-06-10T09:04:52Z</time>
      </trkpt>
      <trkpt lat="44.77028" lon="4.09793">
        <ele>1051.1</ele>
        <time>2022-06-10T09:04:53Z</time>
      </trkpt>
      <trkpt lat="44.77027" lon="4.09792">
        <ele>1051.1</ele>
        <time>2022-06-10T09:04:54Z</time>
      </trkpt>
      <trkpt lat="44.77024" lon="4.09788">
        <ele>1051.3</ele>
        <time>2022-06-10T09:04:55Z</time>
      </trkpt>
      <trkpt lat="44.77023" lon="4.09786">
        <ele>1051.4</ele>
        <time>2022-06-10T09:04:56Z</time>
      </trkpt>
      <trkpt lat="44.77021" lon="4.09783">
        <ele>1051.6</ele>
        <time>2022-06-10T09:04:57Z</time>
      </trkpt>
      <trkpt lat="44.77018" lon="4.09778">
        <ele>1051.8</ele>
        <time>2022-06-10T09:04:59Z</time>
      </trkpt>
      <trkpt lat="44.77017" lon="4.09776">
        <ele>1051.9</ele>
        <time>2022-06-10T09:05:00Z</time>
      </trkpt>
      <trkpt lat="44.77016" lon="4.09774">
        <ele>1051.9</ele>
        <time>2022-06-10T09:05:01Z</time>
      </trkpt>
      <trkpt lat="44.77013" lon="4.09768">
        <ele>1052.2</ele>
        <time>2022-06-10T09:05:03Z</time>
      </trkpt>
      <trkpt lat="44.77012" lon="4.09767">
        <ele>1052.2</ele>
        <time>2022-06-10T09:05:04Z</time>
      </trkpt>
      <trkpt lat="44.77011" lon="4.09765">
        <ele>1052.3</ele>
        <time>2022-06-10T09:05:05Z</time>
      </trkpt>
      <trkpt lat="44.77009" lon="4.09762">
        <ele>1052.4</ele>
        <time>2022-06-10T09:05:06Z</time>
      </trkpt>
      <trkpt lat="44.77007" lon="4.09759">
        <ele>1052.6</ele>
        <time>2022-06-10T09:05:07Z</time>
      </trkpt>
      <trkpt lat="44.77005" lon="4.09756">
        <ele>1052.7</ele>
        <time>2022-06-10T09:05:08Z</time>
      </trkpt>
      <trkpt lat="44.77004" lon="4.09753">
        <ele>1052.8</ele>
        <time>2022-06-10T09:05:10Z</time>
      </trkpt>
      <trkpt lat="44.77001" lon="4.09749">
        <ele>1052.9</ele>
        <time>2022-06-10T09:05:11Z</time>
      </trkpt>
      <trkpt lat="44.77" lon="4.09748">
        <ele>1053</ele>
        <time>2022-06-10T09:05:12Z</time>
      </trkpt>
      <trkpt lat="44.76997" lon="4.09743">
        <ele>1053.2</ele>
        <time>2022-06-10T09:05:13Z</time>
      </trkpt>
      <trkpt lat="44.76996" lon="4.09741">
        <ele>1053.3</ele>
        <time>2022-06-10T09:05:14Z</time>
      </trkpt>
      <trkpt lat="44.76994" lon="4.09738">
        <ele>1053.4</ele>
        <time>2022-06-10T09:05:16Z</time>
      </trkpt>
      <trkpt lat="44.76992" lon="4.09735">
        <ele>1053.6</ele>
        <time>2022-06-10T09:05:17Z</time>
      </trkpt>
      <trkpt lat="44.7699" lon="4.09732">
        <ele>1053.7</ele>
        <time>2022-06-10T09:05:18Z</time>
      </trkpt>
      <trkpt lat="44.76988" lon="4.09729">
        <ele>1053.9</ele>
        <time>2022-06-10T09:05:19Z</time>
      </trkpt>
      <trkpt lat="44.76985" lon="4.09723">
        <ele>1054.1</ele>
        <time>2022-06-10T09:05:20Z</time>
      </trkpt>
      <trkpt lat="44.76983" lon="4.09718">
        <ele>1054.3</ele>
        <time>2022-06-10T09:05:22Z</time>
      </trkpt>
      <trkpt lat="44.76982" lon="4.09716">
        <ele>1054.4</ele>
        <time>2022-06-10T09:05:23Z</time>
      </trkpt>
      <trkpt lat="44.76981" lon="4.09714">
        <ele>1054.5</ele>
        <time>2022-06-10T09:05:24Z</time>
      </trkpt>
      <trkpt lat="44.76978" lon="4.09709">
        <ele>1054.7</ele>
        <time>2022-06-10T09:05:25Z</time>
      </trkpt>
      <trkpt lat="44.76976" lon="4.09707">
        <ele>1054.8</ele>
        <time>2022-06-10T09:05:26Z</time>
      </trkpt>
      <trkpt lat="44.76973" lon="4.09703">
        <ele>1055</ele>
        <time>2022-06-10T09:05:28Z</time>
      </trkpt>
      <trkpt lat="44.76971" lon="4.097">
        <ele>1055.1</ele>
        <time>2022-06-10T09:05:29Z</time>
      </trkpt>
      <trkpt lat="44.76969" lon="4.09696">
        <ele>1055.3</ele>
        <time>2022-06-10T09:05:30Z</time>
      </trkpt>
      <trkpt lat="44.76968" lon="4.09695">
        <ele>1055.4</ele>
        <time>2022-06-10T09:05:31Z</time>
      </trkpt>
      <trkpt lat="44.76966" lon="4.09691">
        <ele>1055.5</ele>
        <time>2022-06-10T09:05:32Z</time>
      </trkpt>
      <trkpt lat="44.76965" lon="4.09688">
        <ele>1055.6</ele>
        <time>2022-06-10T09:05:33Z</time>
      </trkpt>
      <trkpt lat="44.76962" lon="4.09683">
        <ele>1055.8</ele>
        <time>2022-06-10T09:05:34Z</time>
      </trkpt>
      <trkpt lat="44.76961" lon="4.0968">
        <ele>1056</ele>
        <time>2022-06-10T09:05:35Z</time>
      </trkpt>
      <trkpt lat="44.76958" lon="4.09675">
        <ele>1056.2</ele>
        <time>2022-06-10T09:05:37Z</time>
      </trkpt>
      <trkpt lat="44.76958" lon="4.09674">
        <ele>1056.2</ele>
        <time>2022-06-10T09:05:38Z</time>
      </trkpt>
      <trkpt lat="44.76955" lon="4.09669">
        <ele>1056.4</ele>
        <time>2022-06-10T09:05:39Z</time>
      </trkpt>
      <trkpt lat="44.76954" lon="4.09667">
        <ele>1056.5</ele>
        <time>2022-06-10T09:05:40Z</time>
      </trkpt>
      <trkpt lat="44.76952" lon="4.09663">
        <ele>1056.7</ele>
        <time>2022-06-10T09:05:41Z</time>
      </trkpt>
      <trkpt lat="44.76951" lon="4.09661">
        <ele>1056.8</ele>
        <time>2022-06-10T09:05:42Z</time>
      </trkpt>
      <trkpt lat="44.76949" lon="4.09656">
        <ele>1056.9</ele>
        <time>2022-06-10T09:05:44Z</time>
      </trkpt>
      <trkpt lat="44.76944" lon="4.09648">
        <ele>1057.3</ele>
        <time>2022-06-10T09:05:46Z</time>
      </trkpt>
      <trkpt lat="44.76943" lon="4.09645">
        <ele>1057.4</ele>
        <time>2022-06-10T09:05:48Z</time>
      </trkpt>
      <trkpt lat="44.76941" lon="4.09641">
        <ele>1057.6</ele>
        <time>2022-06-10T09:05:49Z</time>
      </trkpt>
      <trkpt lat="44.7694" lon="4.09639">
        <ele>1057.6</ele>
        <time>2022-06-10T09:05:50Z</time>
      </trkpt>
      <trkpt lat="44.76939" lon="4.09634">
        <ele>1057.8</ele>
        <time>2022-06-10T09:05:51Z</time>
      </trkpt>
      <trkpt lat="44.76938" lon="4.09632">
        <ele>1057.9</ele>
        <time>2022-06-10T09:05:52Z</time>
      </trkpt>
      <trkpt lat="44.76936" lon="4.09627">
        <ele>1058.1</ele>
        <time>2022-06-10T09:05:53Z</time>
      </trkpt>
      <trkpt lat="44.76934" lon="4.0962">
        <ele>1058.3</ele>
        <time>2022-06-10T09:05:55Z</time>
      </trkpt>
      <trkpt lat="44.76933" lon="4.09617">
        <ele>1058.4</ele>
        <time>2022-06-10T09:05:56Z</time>
      </trkpt>
      <trkpt lat="44.76932" lon="4.09614">
        <ele>1058.5</ele>
        <time>2022-06-10T09:05:57Z</time>
      </trkpt>
      <trkpt lat="44.76931" lon="4.09611">
        <ele>1058.7</ele>
        <time>2022-06-10T09:05:59Z</time>
      </trkpt>
      <trkpt lat="44.7693" lon="4.09606">
        <ele>1058.8</ele>
        <time>2022-06-10T09:06:00Z</time>
      </trkpt>
      <trkpt lat="44.76929" lon="4.09605">
        <ele>1058.9</ele>
        <time>2022-06-10T09:06:01Z</time>
      </trkpt>
      <trkpt lat="44.76928" lon="4.09601">
        <ele>1059</ele>
        <time>2022-06-10T09:06:02Z</time>
      </trkpt>
      <trkpt lat="44.76927" lon="4.09596">
        <ele>1059.2</ele>
        <time>2022-06-10T09:06:03Z</time>
      </trkpt>
      <trkpt lat="44.76926" lon="4.09594">
        <ele>1059.3</ele>
        <time>2022-06-10T09:06:04Z</time>
      </trkpt>
      <trkpt lat="44.76925" lon="4.0959">
        <ele>1059.4</ele>
        <time>2022-06-10T09:06:05Z</time>
      </trkpt>
      <trkpt lat="44.76925" lon="4.09588">
        <ele>1059.5</ele>
        <time>2022-06-10T09:06:06Z</time>
      </trkpt>
      <trkpt lat="44.76923" lon="4.09584">
        <ele>1059.7</ele>
        <time>2022-06-10T09:06:07Z</time>
      </trkpt>
      <trkpt lat="44.76923" lon="4.09582">
        <ele>1059.7</ele>
        <time>2022-06-10T09:06:08Z</time>
      </trkpt>
      <trkpt lat="44.7692" lon="4.09575">
        <ele>1060</ele>
        <time>2022-06-10T09:06:09Z</time>
      </trkpt>
      <trkpt lat="44.76919" lon="4.09572">
        <ele>1060.1</ele>
        <time>2022-06-10T09:06:10Z</time>
      </trkpt>
      <trkpt lat="44.76917" lon="4.09569">
        <ele>1060.3</ele>
        <time>2022-06-10T09:06:12Z</time>
      </trkpt>
      <trkpt lat="44.76915" lon="4.09564">
        <ele>1060.4</ele>
        <time>2022-06-10T09:06:13Z</time>
      </trkpt>
      <trkpt lat="44.76914" lon="4.09562">
        <ele>1060.5</ele>
        <time>2022-06-10T09:06:14Z</time>
      </trkpt>
      <trkpt lat="44.76912" lon="4.09558">
        <ele>1060.7</ele>
        <time>2022-06-10T09:06:15Z</time>
      </trkpt>
      <trkpt lat="44.7691" lon="4.09553">
        <ele>1060.9</ele>
        <time>2022-06-10T09:06:17Z</time>
      </trkpt>
      <trkpt lat="44.76909" lon="4.0955">
        <ele>1061</ele>
        <time>2022-06-10T09:06:18Z</time>
      </trkpt>
      <trkpt lat="44.76907" lon="4.09546">
        <ele>1061.1</ele>
        <time>2022-06-10T09:06:19Z</time>
      </trkpt>
      <trkpt lat="44.76906" lon="4.09542">
        <ele>1061.2</ele>
        <time>2022-06-10T09:06:20Z</time>
      </trkpt>
      <trkpt lat="44.76905" lon="4.09538">
        <ele>1061.3</ele>
        <time>2022-06-10T09:06:21Z</time>
      </trkpt>
      <trkpt lat="44.76904" lon="4.09534">
        <ele>1061.4</ele>
        <time>2022-06-10T09:06:22Z</time>
      </trkpt>
      <trkpt lat="44.76902" lon="4.09527">
        <ele>1061.6</ele>
        <time>2022-06-10T09:06:23Z</time>
      </trkpt>
      <trkpt lat="44.76901" lon="4.09523">
        <ele>1061.7</ele>
        <time>2022-06-10T09:06:25Z</time>
      </trkpt>
      <trkpt lat="44.769" lon="4.09519">
        <ele>1061.9</ele>
        <time>2022-06-10T09:06:26Z</time>
      </trkpt>
      <trkpt lat="44.76899" lon="4.09514">
        <ele>1062</ele>
        <time>2022-06-10T09:06:27Z</time>
      </trkpt>
      <trkpt lat="44.76897" lon="4.09506">
        <ele>1062.2</ele>
        <time>2022-06-10T09:06:29Z</time>
      </trkpt>
      <trkpt lat="44.76896" lon="4.09501">
        <ele>1062.3</ele>
        <time>2022-06-10T09:06:30Z</time>
      </trkpt>
      <trkpt lat="44.76895" lon="4.09494">
        <ele>1062.4</ele>
        <time>2022-06-10T09:06:32Z</time>
      </trkpt>
      <trkpt lat="44.76893" lon="4.09489">
        <ele>1062.5</ele>
        <time>2022-06-10T09:06:33Z</time>
      </trkpt>
      <trkpt lat="44.76893" lon="4.09487">
        <ele>1062.6</ele>
        <time>2022-06-10T09:06:34Z</time>
      </trkpt>
      <trkpt lat="44.76892" lon="4.09483">
        <ele>1062.6</ele>
        <time>2022-06-10T09:06:35Z</time>
      </trkpt>
      <trkpt lat="44.76892" lon="4.09478">
        <ele>1062.7</ele>
        <time>2022-06-10T09:06:36Z</time>
      </trkpt>
      <trkpt lat="44.76891" lon="4.09475">
        <ele>1062.8</ele>
        <time>2022-06-10T09:06:37Z</time>
      </trkpt>
      <trkpt lat="44.7689" lon="4.0947">
        <ele>1062.9</ele>
        <time>2022-06-10T09:06:39Z</time>
      </trkpt>
      <trkpt lat="44.76889" lon="4.09466">
        <ele>1062.9</ele>
        <time>2022-06-10T09:06:40Z</time>
      </trkpt>
      <trkpt lat="44.76888" lon="4.09462">
        <ele>1063</ele>
        <time>2022-06-10T09:06:41Z</time>
      </trkpt>
      <trkpt lat="44.76887" lon="4.09458">
        <ele>1063</ele>
        <time>2022-06-10T09:06:42Z</time>
      </trkpt>
      <trkpt lat="44.76886" lon="4.09449">
        <ele>1063.1</ele>
        <time>2022-06-10T09:06:43Z</time>
      </trkpt>
      <trkpt lat="44.76885" lon="4.09443">
        <ele>1063.1</ele>
        <time>2022-06-10T09:06:45Z</time>
      </trkpt>
      <trkpt lat="44.76883" lon="4.09436">
        <ele>1063.2</ele>
        <time>2022-06-10T09:06:46Z</time>
      </trkpt>
      <trkpt lat="44.76882" lon="4.09431">
        <ele>1063.2</ele>
        <time>2022-06-10T09:06:47Z</time>
      </trkpt>
      <trkpt lat="44.76881" lon="4.09425">
        <ele>1063.3</ele>
        <time>2022-06-10T09:06:48Z</time>
      </trkpt>
      <trkpt lat="44.7688" lon="4.0942">
        <ele>1063.3</ele>
        <time>2022-06-10T09:06:49Z</time>
      </trkpt>
      <trkpt lat="44.76878" lon="4.09414">
        <ele>1063.3</ele>
        <time>2022-06-10T09:06:50Z</time>
      </trkpt>
      <trkpt lat="44.76876" lon="4.09402">
        <ele>1063.4</ele>
        <time>2022-06-10T09:06:52Z</time>
      </trkpt>
      <trkpt lat="44.76874" lon="4.09396">
        <ele>1063.5</ele>
        <time>2022-06-10T09:06:54Z</time>
      </trkpt>
      <trkpt lat="44.76873" lon="4.09391">
        <ele>1063.5</ele>
        <time>2022-06-10T09:06:55Z</time>
      </trkpt>
      <trkpt lat="44.76871" lon="4.09386">
        <ele>1063.6</ele>
        <time>2022-06-10T09:06:56Z</time>
      </trkpt>
      <trkpt lat="44.7687" lon="4.0938">
        <ele>1063.6</ele>
        <time>2022-06-10T09:06:57Z</time>
      </trkpt>
      <trkpt lat="44.76868" lon="4.09372">
        <ele>1063.7</ele>
        <time>2022-06-10T09:06:58Z</time>
      </trkpt>
      <trkpt lat="44.76867" lon="4.09367">
        <ele>1063.7</ele>
        <time>2022-06-10T09:06:59Z</time>
      </trkpt>
      <trkpt lat="44.76863" lon="4.09359">
        <ele>1063.7</ele>
        <time>2022-06-10T09:07:01Z</time>
      </trkpt>
      <trkpt lat="44.76861" lon="4.09354">
        <ele>1063.8</ele>
        <time>2022-06-10T09:07:02Z</time>
      </trkpt>
      <trkpt lat="44.76859" lon="4.09349">
        <ele>1063.8</ele>
        <time>2022-06-10T09:07:03Z</time>
      </trkpt>
      <trkpt lat="44.76855" lon="4.09345">
        <ele>1063.8</ele>
        <time>2022-06-10T09:07:04Z</time>
      </trkpt>
      <trkpt lat="44.76851" lon="4.09341">
        <ele>1063.9</ele>
        <time>2022-06-10T09:07:05Z</time>
      </trkpt>
      <trkpt lat="44.76847" lon="4.09338">
        <ele>1063.9</ele>
        <time>2022-06-10T09:07:06Z</time>
      </trkpt>
      <trkpt lat="44.76842" lon="4.09337">
        <ele>1064</ele>
        <time>2022-06-10T09:07:07Z</time>
      </trkpt>
      <trkpt lat="44.76836" lon="4.09337">
        <ele>1064</ele>
        <time>2022-06-10T09:07:08Z</time>
      </trkpt>
      <trkpt lat="44.76832" lon="4.09337">
        <ele>1064.1</ele>
        <time>2022-06-10T09:07:09Z</time>
      </trkpt>
      <trkpt lat="44.76827" lon="4.09338">
        <ele>1064.1</ele>
        <time>2022-06-10T09:07:10Z</time>
      </trkpt>
      <trkpt lat="44.76823" lon="4.0934">
        <ele>1064.2</ele>
        <time>2022-06-10T09:07:11Z</time>
      </trkpt>
      <trkpt lat="44.76818" lon="4.09342">
        <ele>1064.3</ele>
        <time>2022-06-10T09:07:12Z</time>
      </trkpt>
      <trkpt lat="44.76814" lon="4.09344">
        <ele>1064.3</ele>
        <time>2022-06-10T09:07:13Z</time>
      </trkpt>
      <trkpt lat="44.76809" lon="4.09347">
        <ele>1064.4</ele>
        <time>2022-06-10T09:07:14Z</time>
      </trkpt>
      <trkpt lat="44.76805" lon="4.09349">
        <ele>1064.5</ele>
        <time>2022-06-10T09:07:15Z</time>
      </trkpt>
      <trkpt lat="44.768" lon="4.09351">
        <ele>1064.6</ele>
        <time>2022-06-10T09:07:16Z</time>
      </trkpt>
      <trkpt lat="44.76796" lon="4.09354">
        <ele>1064.7</ele>
        <time>2022-06-10T09:07:17Z</time>
      </trkpt>
      <trkpt lat="44.76792" lon="4.09356">
        <ele>1064.8</ele>
        <time>2022-06-10T09:07:18Z</time>
      </trkpt>
      <trkpt lat="44.76788" lon="4.09359">
        <ele>1064.9</ele>
        <time>2022-06-10T09:07:19Z</time>
      </trkpt>
      <trkpt lat="44.76785" lon="4.0936">
        <ele>1064.9</ele>
        <time>2022-06-10T09:07:20Z</time>
      </trkpt>
      <trkpt lat="44.76781" lon="4.09362">
        <ele>1065</ele>
        <time>2022-06-10T09:07:21Z</time>
      </trkpt>
      <trkpt lat="44.76777" lon="4.09363">
        <ele>1065.1</ele>
        <time>2022-06-10T09:07:22Z</time>
      </trkpt>
      <trkpt lat="44.76772" lon="4.09366">
        <ele>1065.2</ele>
        <time>2022-06-10T09:07:23Z</time>
      </trkpt>
      <trkpt lat="44.76769" lon="4.09368">
        <ele>1065.4</ele>
        <time>2022-06-10T09:07:24Z</time>
      </trkpt>
      <trkpt lat="44.76765" lon="4.0937">
        <ele>1065.5</ele>
        <time>2022-06-10T09:07:25Z</time>
      </trkpt>
      <trkpt lat="44.76764" lon="4.09371">
        <ele>1065.5</ele>
        <time>2022-06-10T09:07:26Z</time>
      </trkpt>
      <trkpt lat="44.7676" lon="4.09373">
        <ele>1065.7</ele>
        <time>2022-06-10T09:07:27Z</time>
      </trkpt>
      <trkpt lat="44.76755" lon="4.09375">
        <ele>1065.8</ele>
        <time>2022-06-10T09:07:28Z</time>
      </trkpt>
      <trkpt lat="44.76751" lon="4.09377">
        <ele>1065.9</ele>
        <time>2022-06-10T09:07:29Z</time>
      </trkpt>
      <trkpt lat="44.76747" lon="4.09379">
        <ele>1066</ele>
        <time>2022-06-10T09:07:30Z</time>
      </trkpt>
      <trkpt lat="44.76744" lon="4.0938">
        <ele>1066.1</ele>
        <time>2022-06-10T09:07:31Z</time>
      </trkpt>
      <trkpt lat="44.76737" lon="4.09382">
        <ele>1066.2</ele>
        <time>2022-06-10T09:07:32Z</time>
      </trkpt>
      <trkpt lat="44.76732" lon="4.09383">
        <ele>1066.3</ele>
        <time>2022-06-10T09:07:34Z</time>
      </trkpt>
      <trkpt lat="44.76728" lon="4.09385">
        <ele>1066.4</ele>
        <time>2022-06-10T09:07:35Z</time>
      </trkpt>
      <trkpt lat="44.76723" lon="4.09386">
        <ele>1066.5</ele>
        <time>2022-06-10T09:07:37Z</time>
      </trkpt>
      <trkpt lat="44.76718" lon="4.09388">
        <ele>1066.6</ele>
        <time>2022-06-10T09:07:38Z</time>
      </trkpt>
      <trkpt lat="44.76713" lon="4.0939">
        <ele>1066.7</ele>
        <time>2022-06-10T09:07:39Z</time>
      </trkpt>
      <trkpt lat="44.76707" lon="4.09392">
        <ele>1066.8</ele>
        <time>2022-06-10T09:07:41Z</time>
      </trkpt>
      <trkpt lat="44.76703" lon="4.09393">
        <ele>1066.9</ele>
        <time>2022-06-10T09:07:42Z</time>
      </trkpt>
      <trkpt lat="44.76698" lon="4.09394">
        <ele>1066.9</ele>
        <time>2022-06-10T09:07:43Z</time>
      </trkpt>
      <trkpt lat="44.76693" lon="4.09395">
        <ele>1067</ele>
        <time>2022-06-10T09:07:44Z</time>
      </trkpt>
      <trkpt lat="44.76688" lon="4.09396">
        <ele>1067</ele>
        <time>2022-06-10T09:07:45Z</time>
      </trkpt>
      <trkpt lat="44.76683" lon="4.09398">
        <ele>1067.1</ele>
        <time>2022-06-10T09:07:46Z</time>
      </trkpt>
      <trkpt lat="44.76679" lon="4.09399">
        <ele>1067</ele>
        <time>2022-06-10T09:07:48Z</time>
      </trkpt>
      <trkpt lat="44.76675" lon="4.09399">
        <ele>1067</ele>
        <time>2022-06-10T09:07:49Z</time>
      </trkpt>
      <trkpt lat="44.76669" lon="4.09401">
        <ele>1066.9</ele>
        <time>2022-06-10T09:07:50Z</time>
      </trkpt>
      <trkpt lat="44.76665" lon="4.09402">
        <ele>1066.9</ele>
        <time>2022-06-10T09:07:51Z</time>
      </trkpt>
      <trkpt lat="44.7666" lon="4.09402">
        <ele>1066.8</ele>
        <time>2022-06-10T09:07:52Z</time>
      </trkpt>
      <trkpt lat="44.76655" lon="4.09403">
        <ele>1066.6</ele>
        <time>2022-06-10T09:07:53Z</time>
      </trkpt>
      <trkpt lat="44.76646" lon="4.09402">
        <ele>1066.4</ele>
        <time>2022-06-10T09:07:55Z</time>
      </trkpt>
      <trkpt lat="44.7664" lon="4.09401">
        <ele>1066.2</ele>
        <time>2022-06-10T09:07:56Z</time>
      </trkpt>
      <trkpt lat="44.76635" lon="4.094">
        <ele>1066</ele>
        <time>2022-06-10T09:07:57Z</time>
      </trkpt>
      <trkpt lat="44.76629" lon="4.09399">
        <ele>1065.8</ele>
        <time>2022-06-10T09:07:58Z</time>
      </trkpt>
      <trkpt lat="44.76623" lon="4.09398">
        <ele>1065.6</ele>
        <time>2022-06-10T09:07:59Z</time>
      </trkpt>
      <trkpt lat="44.76617" lon="4.09397">
        <ele>1065.3</ele>
        <time>2022-06-10T09:08:00Z</time>
      </trkpt>
      <trkpt lat="44.76611" lon="4.09396">
        <ele>1065.1</ele>
        <time>2022-06-10T09:08:01Z</time>
      </trkpt>
      <trkpt lat="44.76605" lon="4.09394">
        <ele>1065</ele>
        <time>2022-06-10T09:08:02Z</time>
      </trkpt>
      <trkpt lat="44.76598" lon="4.09393">
        <ele>1064.8</ele>
        <time>2022-06-10T09:08:03Z</time>
      </trkpt>
      <trkpt lat="44.76591" lon="4.09392">
        <ele>1064.6</ele>
        <time>2022-06-10T09:08:04Z</time>
      </trkpt>
      <trkpt lat="44.76585" lon="4.09391">
        <ele>1064.5</ele>
        <time>2022-06-10T09:08:05Z</time>
      </trkpt>
      <trkpt lat="44.76578" lon="4.09389">
        <ele>1064.3</ele>
        <time>2022-06-10T09:08:06Z</time>
      </trkpt>
      <trkpt lat="44.76571" lon="4.09388">
        <ele>1064.1</ele>
        <time>2022-06-10T09:08:07Z</time>
      </trkpt>
      <trkpt lat="44.76565" lon="4.09386">
        <ele>1064</ele>
        <time>2022-06-10T09:08:08Z</time>
      </trkpt>
      <trkpt lat="44.76558" lon="4.09385">
        <ele>1063.9</ele>
        <time>2022-06-10T09:08:09Z</time>
      </trkpt>
      <trkpt lat="44.76552" lon="4.09383">
        <ele>1063.7</ele>
        <time>2022-06-10T09:08:10Z</time>
      </trkpt>
      <trkpt lat="44.76545" lon="4.09382">
        <ele>1063.6</ele>
        <time>2022-06-10T09:08:11Z</time>
      </trkpt>
      <trkpt lat="44.76538" lon="4.0938">
        <ele>1063.4</ele>
        <time>2022-06-10T09:08:12Z</time>
      </trkpt>
      <trkpt lat="44.76531" lon="4.09378">
        <ele>1063.3</ele>
        <time>2022-06-10T09:08:13Z</time>
      </trkpt>
      <trkpt lat="44.76524" lon="4.09375">
        <ele>1063.2</ele>
        <time>2022-06-10T09:08:14Z</time>
      </trkpt>
      <trkpt lat="44.76517" lon="4.09371">
        <ele>1063.2</ele>
        <time>2022-06-10T09:08:15Z</time>
      </trkpt>
      <trkpt lat="44.7651" lon="4.09367">
        <ele>1063.1</ele>
        <time>2022-06-10T09:08:16Z</time>
      </trkpt>
      <trkpt lat="44.76504" lon="4.09362">
        <ele>1063</ele>
        <time>2022-06-10T09:08:17Z</time>
      </trkpt>
      <trkpt lat="44.76498" lon="4.09356">
        <ele>1063</ele>
        <time>2022-06-10T09:08:18Z</time>
      </trkpt>
      <trkpt lat="44.76493" lon="4.0935">
        <ele>1063</ele>
        <time>2022-06-10T09:08:19Z</time>
      </trkpt>
      <trkpt lat="44.76488" lon="4.09343">
        <ele>1063</ele>
        <time>2022-06-10T09:08:20Z</time>
      </trkpt>
      <trkpt lat="44.76483" lon="4.09336">
        <ele>1062.9</ele>
        <time>2022-06-10T09:08:21Z</time>
      </trkpt>
      <trkpt lat="44.76479" lon="4.09329">
        <ele>1062.9</ele>
        <time>2022-06-10T09:08:22Z</time>
      </trkpt>
      <trkpt lat="44.76475" lon="4.09321">
        <ele>1062.9</ele>
        <time>2022-06-10T09:08:23Z</time>
      </trkpt>
      <trkpt lat="44.76471" lon="4.09314">
        <ele>1062.9</ele>
        <time>2022-06-10T09:08:24Z</time>
      </trkpt>
      <trkpt lat="44.76466" lon="4.09307">
        <ele>1062.9</ele>
        <time>2022-06-10T09:08:25Z</time>
      </trkpt>
      <trkpt lat="44.76461" lon="4.09301">
        <ele>1062.9</ele>
        <time>2022-06-10T09:08:26Z</time>
      </trkpt>
      <trkpt lat="44.76456" lon="4.09296">
        <ele>1062.9</ele>
        <time>2022-06-10T09:08:27Z</time>
      </trkpt>
      <trkpt lat="44.76451" lon="4.09291">
        <ele>1062.9</ele>
        <time>2022-06-10T09:08:28Z</time>
      </trkpt>
      <trkpt lat="44.76445" lon="4.09287">
        <ele>1062.9</ele>
        <time>2022-06-10T09:08:29Z</time>
      </trkpt>
      <trkpt lat="44.76439" lon="4.09284">
        <ele>1062.9</ele>
        <time>2022-06-10T09:08:30Z</time>
      </trkpt>
      <trkpt lat="44.76433" lon="4.09282">
        <ele>1062.9</ele>
        <time>2022-06-10T09:08:31Z</time>
      </trkpt>
      <trkpt lat="44.76427" lon="4.0928">
        <ele>1063</ele>
        <time>2022-06-10T09:08:32Z</time>
      </trkpt>
      <trkpt lat="44.7642" lon="4.09279">
        <ele>1063</ele>
        <time>2022-06-10T09:08:33Z</time>
      </trkpt>
      <trkpt lat="44.76414" lon="4.09278">
        <ele>1063</ele>
        <time>2022-06-10T09:08:34Z</time>
      </trkpt>
      <trkpt lat="44.76407" lon="4.09277">
        <ele>1063</ele>
        <time>2022-06-10T09:08:35Z</time>
      </trkpt>
      <trkpt lat="44.76401" lon="4.09277">
        <ele>1063</ele>
        <time>2022-06-10T09:08:36Z</time>
      </trkpt>
      <trkpt lat="44.76395" lon="4.09277">
        <ele>1063</ele>
        <time>2022-06-10T09:08:37Z</time>
      </trkpt>
      <trkpt lat="44.76389" lon="4.09276">
        <ele>1063.1</ele>
        <time>2022-06-10T09:08:38Z</time>
      </trkpt>
      <trkpt lat="44.76382" lon="4.09276">
        <ele>1063.1</ele>
        <time>2022-06-10T09:08:39Z</time>
      </trkpt>
      <trkpt lat="44.76376" lon="4.09276">
        <ele>1063.1</ele>
        <time>2022-06-10T09:08:40Z</time>
      </trkpt>
      <trkpt lat="44.76369" lon="4.09277">
        <ele>1063</ele>
        <time>2022-06-10T09:08:41Z</time>
      </trkpt>
      <trkpt lat="44.76363" lon="4.09279">
        <ele>1063</ele>
        <time>2022-06-10T09:08:42Z</time>
      </trkpt>
      <trkpt lat="44.76357" lon="4.09282">
        <ele>1063</ele>
        <time>2022-06-10T09:08:43Z</time>
      </trkpt>
      <trkpt lat="44.76351" lon="4.09286">
        <ele>1062.9</ele>
        <time>2022-06-10T09:08:44Z</time>
      </trkpt>
      <trkpt lat="44.76345" lon="4.09291">
        <ele>1062.9</ele>
        <time>2022-06-10T09:08:45Z</time>
      </trkpt>
      <trkpt lat="44.76339" lon="4.09297">
        <ele>1062.9</ele>
        <time>2022-06-10T09:08:46Z</time>
      </trkpt>
      <trkpt lat="44.76334" lon="4.09303">
        <ele>1062.8</ele>
        <time>2022-06-10T09:08:47Z</time>
      </trkpt>
      <trkpt lat="44.76329" lon="4.09309">
        <ele>1062.9</ele>
        <time>2022-06-10T09:08:48Z</time>
      </trkpt>
      <trkpt lat="44.76324" lon="4.09316">
        <ele>1062.9</ele>
        <time>2022-06-10T09:08:49Z</time>
      </trkpt>
      <trkpt lat="44.7632" lon="4.09323">
        <ele>1062.9</ele>
        <time>2022-06-10T09:08:50Z</time>
      </trkpt>
      <trkpt lat="44.76315" lon="4.0933">
        <ele>1062.9</ele>
        <time>2022-06-10T09:08:51Z</time>
      </trkpt>
      <trkpt lat="44.76311" lon="4.09337">
        <ele>1062.9</ele>
        <time>2022-06-10T09:08:52Z</time>
      </trkpt>
      <trkpt lat="44.76307" lon="4.09344">
        <ele>1062.9</ele>
        <time>2022-06-10T09:08:53Z</time>
      </trkpt>
      <trkpt lat="44.76303" lon="4.09351">
        <ele>1062.9</ele>
        <time>2022-06-10T09:08:54Z</time>
      </trkpt>
      <trkpt lat="44.76299" lon="4.09357">
        <ele>1062.9</ele>
        <time>2022-06-10T09:08:55Z</time>
      </trkpt>
      <trkpt lat="44.76295" lon="4.09363">
        <ele>1062.9</ele>
        <time>2022-06-10T09:08:56Z</time>
      </trkpt>
      <trkpt lat="44.7629" lon="4.0937">
        <ele>1062.9</ele>
        <time>2022-06-10T09:08:57Z</time>
      </trkpt>
      <trkpt lat="44.76286" lon="4.09376">
        <ele>1062.9</ele>
        <time>2022-06-10T09:08:58Z</time>
      </trkpt>
      <trkpt lat="44.76282" lon="4.09382">
        <ele>1062.9</ele>
        <time>2022-06-10T09:08:59Z</time>
      </trkpt>
      <trkpt lat="44.76278" lon="4.09389">
        <ele>1063</ele>
        <time>2022-06-10T09:09:00Z</time>
      </trkpt>
      <trkpt lat="44.76274" lon="4.09395">
        <ele>1063</ele>
        <time>2022-06-10T09:09:01Z</time>
      </trkpt>
      <trkpt lat="44.7627" lon="4.09402">
        <ele>1063</ele>
        <time>2022-06-10T09:09:02Z</time>
      </trkpt>
      <trkpt lat="44.76266" lon="4.09408">
        <ele>1063.1</ele>
        <time>2022-06-10T09:09:03Z</time>
      </trkpt>
      <trkpt lat="44.76262" lon="4.09415">
        <ele>1063.1</ele>
        <time>2022-06-10T09:09:04Z</time>
      </trkpt>
      <trkpt lat="44.76259" lon="4.09421">
        <ele>1063.1</ele>
        <time>2022-06-10T09:09:05Z</time>
      </trkpt>
      <trkpt lat="44.76255" lon="4.09427">
        <ele>1063.1</ele>
        <time>2022-06-10T09:09:06Z</time>
      </trkpt>
      <trkpt lat="44.76252" lon="4.09433">
        <ele>1063.2</ele>
        <time>2022-06-10T09:09:07Z</time>
      </trkpt>
      <trkpt lat="44.76248" lon="4.09439">
        <ele>1063.2</ele>
        <time>2022-06-10T09:09:08Z</time>
      </trkpt>
      <trkpt lat="44.76244" lon="4.09445">
        <ele>1063.2</ele>
        <time>2022-06-10T09:09:09Z</time>
      </trkpt>
      <trkpt lat="44.7624" lon="4.09451">
        <ele>1063.2</ele>
        <time>2022-06-10T09:09:10Z</time>
      </trkpt>
      <trkpt lat="44.76235" lon="4.09457">
        <ele>1063.2</ele>
        <time>2022-06-10T09:09:11Z</time>
      </trkpt>
      <trkpt lat="44.76231" lon="4.09462">
        <ele>1063.1</ele>
        <time>2022-06-10T09:09:12Z</time>
      </trkpt>
      <trkpt lat="44.76226" lon="4.09468">
        <ele>1063.1</ele>
        <time>2022-06-10T09:09:13Z</time>
      </trkpt>
      <trkpt lat="44.76222" lon="4.09473">
        <ele>1063.1</ele>
        <time>2022-06-10T09:09:14Z</time>
      </trkpt>
      <trkpt lat="44.76217" lon="4.09477">
        <ele>1063.1</ele>
        <time>2022-06-10T09:09:15Z</time>
      </trkpt>
      <trkpt lat="44.76212" lon="4.09482">
        <ele>1063.1</ele>
        <time>2022-06-10T09:09:16Z</time>
      </trkpt>
      <trkpt lat="44.76207" lon="4.09485">
        <ele>1063.1</ele>
        <time>2022-06-10T09:09:17Z</time>
      </trkpt>
      <trkpt lat="44.76202" lon="4.09488">
        <ele>1063.2</ele>
        <time>2022-06-10T09:09:18Z</time>
      </trkpt>
      <trkpt lat="44.76197" lon="4.0949">
        <ele>1063.2</ele>
        <time>2022-06-10T09:09:19Z</time>
      </trkpt>
      <trkpt lat="44.76193" lon="4.09492">
        <ele>1063.2</ele>
        <time>2022-06-10T09:09:20Z</time>
      </trkpt>
      <trkpt lat="44.76188" lon="4.09494">
        <ele>1063.2</ele>
        <time>2022-06-10T09:09:21Z</time>
      </trkpt>
      <trkpt lat="44.76183" lon="4.09496">
        <ele>1063.2</ele>
        <time>2022-06-10T09:09:22Z</time>
      </trkpt>
      <trkpt lat="44.76178" lon="4.09498">
        <ele>1063.2</ele>
        <time>2022-06-10T09:09:23Z</time>
      </trkpt>
      <trkpt lat="44.76173" lon="4.095">
        <ele>1063.2</ele>
        <time>2022-06-10T09:09:24Z</time>
      </trkpt>
      <trkpt lat="44.76168" lon="4.09502">
        <ele>1063.1</ele>
        <time>2022-06-10T09:09:25Z</time>
      </trkpt>
      <trkpt lat="44.76163" lon="4.09503">
        <ele>1063.1</ele>
        <time>2022-06-10T09:09:26Z</time>
      </trkpt>
      <trkpt lat="44.76158" lon="4.09504">
        <ele>1063.1</ele>
        <time>2022-06-10T09:09:27Z</time>
      </trkpt>
      <trkpt lat="44.76153" lon="4.09506">
        <ele>1063.1</ele>
        <time>2022-06-10T09:09:28Z</time>
      </trkpt>
      <trkpt lat="44.76148" lon="4.09508">
        <ele>1063.1</ele>
        <time>2022-06-10T09:09:29Z</time>
      </trkpt>
      <trkpt lat="44.76142" lon="4.09508">
        <ele>1063</ele>
        <time>2022-06-10T09:09:30Z</time>
      </trkpt>
      <trkpt lat="44.76136" lon="4.09508">
        <ele>1063</ele>
        <time>2022-06-10T09:09:31Z</time>
      </trkpt>
      <trkpt lat="44.7613" lon="4.09507">
        <ele>1063</ele>
        <time>2022-06-10T09:09:32Z</time>
      </trkpt>
      <trkpt lat="44.76124" lon="4.09506">
        <ele>1063</ele>
        <time>2022-06-10T09:09:33Z</time>
      </trkpt>
      <trkpt lat="44.76119" lon="4.09505">
        <ele>1063</ele>
        <time>2022-06-10T09:09:34Z</time>
      </trkpt>
      <trkpt lat="44.76113" lon="4.09503">
        <ele>1063.1</ele>
        <time>2022-06-10T09:09:35Z</time>
      </trkpt>
      <trkpt lat="44.76108" lon="4.09501">
        <ele>1063.1</ele>
        <time>2022-06-10T09:09:36Z</time>
      </trkpt>
      <trkpt lat="44.76103" lon="4.09498">
        <ele>1063.1</ele>
        <time>2022-06-10T09:09:37Z</time>
      </trkpt>
      <trkpt lat="44.76097" lon="4.09495">
        <ele>1063.2</ele>
        <time>2022-06-10T09:09:38Z</time>
      </trkpt>
      <trkpt lat="44.76092" lon="4.09492">
        <ele>1063.2</ele>
        <time>2022-06-10T09:09:39Z</time>
      </trkpt>
      <trkpt lat="44.76086" lon="4.09489">
        <ele>1063.2</ele>
        <time>2022-06-10T09:09:40Z</time>
      </trkpt>
      <trkpt lat="44.76081" lon="4.09486">
        <ele>1063.2</ele>
        <time>2022-06-10T09:09:41Z</time>
      </trkpt>
      <trkpt lat="44.76075" lon="4.09483">
        <ele>1063.2</ele>
        <time>2022-06-10T09:09:42Z</time>
      </trkpt>
      <trkpt lat="44.76069" lon="4.0948">
        <ele>1063.2</ele>
        <time>2022-06-10T09:09:43Z</time>
      </trkpt>
      <trkpt lat="44.76064" lon="4.09476">
        <ele>1063.2</ele>
        <time>2022-06-10T09:09:44Z</time>
      </trkpt>
      <trkpt lat="44.76059" lon="4.09472">
        <ele>1063.2</ele>
        <time>2022-06-10T09:09:45Z</time>
      </trkpt>
      <trkpt lat="44.76053" lon="4.09467">
        <ele>1063.2</ele>
        <time>2022-06-10T09:09:46Z</time>
      </trkpt>
      <trkpt lat="44.76048" lon="4.09463">
        <ele>1063.2</ele>
        <time>2022-06-10T09:09:47Z</time>
      </trkpt>
      <trkpt lat="44.76043" lon="4.09458">
        <ele>1063.2</ele>
        <time>2022-06-10T09:09:48Z</time>
      </trkpt>
      <trkpt lat="44.76038" lon="4.09454">
        <ele>1063.2</ele>
        <time>2022-06-10T09:09:49Z</time>
      </trkpt>
      <trkpt lat="44.76033" lon="4.09449">
        <ele>1063.1</ele>
        <time>2022-06-10T09:09:50Z</time>
      </trkpt>
      <trkpt lat="44.76028" lon="4.09444">
        <ele>1063.1</ele>
        <time>2022-06-10T09:09:51Z</time>
      </trkpt>
      <trkpt lat="44.76023" lon="4.09438">
        <ele>1063.1</ele>
        <time>2022-06-10T09:09:52Z</time>
      </trkpt>
      <trkpt lat="44.76018" lon="4.09433">
        <ele>1063.1</ele>
        <time>2022-06-10T09:09:53Z</time>
      </trkpt>
      <trkpt lat="44.76013" lon="4.09427">
        <ele>1063</ele>
        <time>2022-06-10T09:09:54Z</time>
      </trkpt>
      <trkpt lat="44.76009" lon="4.0942">
        <ele>1063</ele>
        <time>2022-06-10T09:09:55Z</time>
      </trkpt>
      <trkpt lat="44.76004" lon="4.09414">
        <ele>1063</ele>
        <time>2022-06-10T09:09:56Z</time>
      </trkpt>
      <trkpt lat="44.76" lon="4.09408">
        <ele>1063</ele>
        <time>2022-06-10T09:09:57Z</time>
      </trkpt>
      <trkpt lat="44.75995" lon="4.09403">
        <ele>1063</ele>
        <time>2022-06-10T09:09:58Z</time>
      </trkpt>
      <trkpt lat="44.75989" lon="4.09399">
        <ele>1063</ele>
        <time>2022-06-10T09:09:59Z</time>
      </trkpt>
      <trkpt lat="44.75984" lon="4.09396">
        <ele>1063</ele>
        <time>2022-06-10T09:10:00Z</time>
      </trkpt>
      <trkpt lat="44.75978" lon="4.09393">
        <ele>1063</ele>
        <time>2022-06-10T09:10:01Z</time>
      </trkpt>
      <trkpt lat="44.75972" lon="4.09391">
        <ele>1063</ele>
        <time>2022-06-10T09:10:02Z</time>
      </trkpt>
      <trkpt lat="44.75965" lon="4.0939">
        <ele>1063</ele>
        <time>2022-06-10T09:10:03Z</time>
      </trkpt>
      <trkpt lat="44.75959" lon="4.0939">
        <ele>1063.1</ele>
        <time>2022-06-10T09:10:04Z</time>
      </trkpt>
      <trkpt lat="44.75953" lon="4.0939">
        <ele>1063.1</ele>
        <time>2022-06-10T09:10:05Z</time>
      </trkpt>
      <trkpt lat="44.75946" lon="4.09391">
        <ele>1063.1</ele>
        <time>2022-06-10T09:10:06Z</time>
      </trkpt>
      <trkpt lat="44.7594" lon="4.09394">
        <ele>1063.2</ele>
        <time>2022-06-10T09:10:07Z</time>
      </trkpt>
      <trkpt lat="44.75935" lon="4.09396">
        <ele>1063.2</ele>
        <time>2022-06-10T09:10:08Z</time>
      </trkpt>
      <trkpt lat="44.75929" lon="4.09399">
        <ele>1063.3</ele>
        <time>2022-06-10T09:10:09Z</time>
      </trkpt>
      <trkpt lat="44.75923" lon="4.09403">
        <ele>1063.3</ele>
        <time>2022-06-10T09:10:10Z</time>
      </trkpt>
      <trkpt lat="44.75918" lon="4.09407">
        <ele>1063.4</ele>
        <time>2022-06-10T09:10:11Z</time>
      </trkpt>
      <trkpt lat="44.75913" lon="4.09411">
        <ele>1063.5</ele>
        <time>2022-06-10T09:10:12Z</time>
      </trkpt>
      <trkpt lat="44.75908" lon="4.09416">
        <ele>1063.5</ele>
        <time>2022-06-10T09:10:13Z</time>
      </trkpt>
      <trkpt lat="44.75903" lon="4.09422">
        <ele>1063.6</ele>
        <time>2022-06-10T09:10:14Z</time>
      </trkpt>
      <trkpt lat="44.75899" lon="4.09428">
        <ele>1063.6</ele>
        <time>2022-06-10T09:10:15Z</time>
      </trkpt>
      <trkpt lat="44.75896" lon="4.09435">
        <ele>1063.6</ele>
        <time>2022-06-10T09:10:16Z</time>
      </trkpt>
      <trkpt lat="44.75892" lon="4.09442">
        <ele>1063.6</ele>
        <time>2022-06-10T09:10:17Z</time>
      </trkpt>
      <trkpt lat="44.75888" lon="4.09449">
        <ele>1063.7</ele>
        <time>2022-06-10T09:10:18Z</time>
      </trkpt>
      <trkpt lat="44.75884" lon="4.09456">
        <ele>1063.7</ele>
        <time>2022-06-10T09:10:19Z</time>
      </trkpt>
      <trkpt lat="44.75881" lon="4.09463">
        <ele>1063.7</ele>
        <time>2022-06-10T09:10:20Z</time>
      </trkpt>
      <trkpt lat="44.75877" lon="4.0947">
        <ele>1063.7</ele>
        <time>2022-06-10T09:10:21Z</time>
      </trkpt>
      <trkpt lat="44.75874" lon="4.09478">
        <ele>1063.8</ele>
        <time>2022-06-10T09:10:22Z</time>
      </trkpt>
      <trkpt lat="44.7587" lon="4.09485">
        <ele>1063.8</ele>
        <time>2022-06-10T09:10:23Z</time>
      </trkpt>
      <trkpt lat="44.75867" lon="4.09492">
        <ele>1063.8</ele>
        <time>2022-06-10T09:10:24Z</time>
      </trkpt>
      <trkpt lat="44.75864" lon="4.09498">
        <ele>1063.8</ele>
        <time>2022-06-10T09:10:25Z</time>
      </trkpt>
      <trkpt lat="44.75861" lon="4.09505">
        <ele>1063.8</ele>
        <time>2022-06-10T09:10:26Z</time>
      </trkpt>
      <trkpt lat="44.75858" lon="4.09511">
        <ele>1063.9</ele>
        <time>2022-06-10T09:10:27Z</time>
      </trkpt>
      <trkpt lat="44.75855" lon="4.09517">
        <ele>1063.9</ele>
        <time>2022-06-10T09:10:28Z</time>
      </trkpt>
      <trkpt lat="44.75851" lon="4.09523">
        <ele>1063.9</ele>
        <time>2022-06-10T09:10:29Z</time>
      </trkpt>
      <trkpt lat="44.75848" lon="4.09529">
        <ele>1064</ele>
        <time>2022-06-10T09:10:30Z</time>
      </trkpt>
      <trkpt lat="44.75845" lon="4.09535">
        <ele>1064</ele>
        <time>2022-06-10T09:10:31Z</time>
      </trkpt>
      <trkpt lat="44.75842" lon="4.09541">
        <ele>1064</ele>
        <time>2022-06-10T09:10:32Z</time>
      </trkpt>
      <trkpt lat="44.75839" lon="4.09547">
        <ele>1064.1</ele>
        <time>2022-06-10T09:10:33Z</time>
      </trkpt>
      <trkpt lat="44.75835" lon="4.09552">
        <ele>1064.1</ele>
        <time>2022-06-10T09:10:34Z</time>
      </trkpt>
      <trkpt lat="44.75832" lon="4.09557">
        <ele>1064.2</ele>
        <time>2022-06-10T09:10:35Z</time>
      </trkpt>
      <trkpt lat="44.75828" lon="4.09562">
        <ele>1064.2</ele>
        <time>2022-06-10T09:10:36Z</time>
      </trkpt>
      <trkpt lat="44.75825" lon="4.09566">
        <ele>1064.2</ele>
        <time>2022-06-10T09:10:37Z</time>
      </trkpt>
      <trkpt lat="44.75821" lon="4.09571">
        <ele>1064.3</ele>
        <time>2022-06-10T09:10:38Z</time>
      </trkpt>
      <trkpt lat="44.75817" lon="4.09575">
        <ele>1064.3</ele>
        <time>2022-06-10T09:10:39Z</time>
      </trkpt>
      <trkpt lat="44.75813" lon="4.09578">
        <ele>1064.3</ele>
        <time>2022-06-10T09:10:40Z</time>
      </trkpt>
      <trkpt lat="44.75808" lon="4.09582">
        <ele>1064.3</ele>
        <time>2022-06-10T09:10:41Z</time>
      </trkpt>
      <trkpt lat="44.75803" lon="4.09584">
        <ele>1064.2</ele>
        <time>2022-06-10T09:10:42Z</time>
      </trkpt>
      <trkpt lat="44.75798" lon="4.09586">
        <ele>1064.2</ele>
        <time>2022-06-10T09:10:43Z</time>
      </trkpt>
      <trkpt lat="44.75793" lon="4.09588">
        <ele>1064.2</ele>
        <time>2022-06-10T09:10:44Z</time>
      </trkpt>
      <trkpt lat="44.75787" lon="4.09589">
        <ele>1064.2</ele>
        <time>2022-06-10T09:10:45Z</time>
      </trkpt>
      <trkpt lat="44.75782" lon="4.0959">
        <ele>1064.1</ele>
        <time>2022-06-10T09:10:46Z</time>
      </trkpt>
      <trkpt lat="44.75776" lon="4.09591">
        <ele>1064.1</ele>
        <time>2022-06-10T09:10:47Z</time>
      </trkpt>
      <trkpt lat="44.75771" lon="4.09592">
        <ele>1064</ele>
        <time>2022-06-10T09:10:48Z</time>
      </trkpt>
      <trkpt lat="44.75766" lon="4.09593">
        <ele>1064</ele>
        <time>2022-06-10T09:10:49Z</time>
      </trkpt>
      <trkpt lat="44.7576" lon="4.09594">
        <ele>1063.9</ele>
        <time>2022-06-10T09:10:50Z</time>
      </trkpt>
      <trkpt lat="44.75754" lon="4.09595">
        <ele>1063.9</ele>
        <time>2022-06-10T09:10:51Z</time>
      </trkpt>
      <trkpt lat="44.75748" lon="4.09596">
        <ele>1063.8</ele>
        <time>2022-06-10T09:10:52Z</time>
      </trkpt>
      <trkpt lat="44.75742" lon="4.09597">
        <ele>1063.6</ele>
        <time>2022-06-10T09:10:53Z</time>
      </trkpt>
      <trkpt lat="44.75736" lon="4.09597">
        <ele>1063.5</ele>
        <time>2022-06-10T09:10:54Z</time>
      </trkpt>
      <trkpt lat="44.7573" lon="4.09596">
        <ele>1063.3</ele>
        <time>2022-06-10T09:10:55Z</time>
      </trkpt>
      <trkpt lat="44.75723" lon="4.09595">
        <ele>1063.1</ele>
        <time>2022-06-10T09:10:56Z</time>
      </trkpt>
      <trkpt lat="44.75717" lon="4.09593">
        <ele>1063</ele>
        <time>2022-06-10T09:10:57Z</time>
      </trkpt>
      <trkpt lat="44.7571" lon="4.09591">
        <ele>1062.7</ele>
        <time>2022-06-10T09:10:58Z</time>
      </trkpt>
      <trkpt lat="44.75704" lon="4.09589">
        <ele>1062.5</ele>
        <time>2022-06-10T09:10:59Z</time>
      </trkpt>
      <trkpt lat="44.75697" lon="4.09587">
        <ele>1062.3</ele>
        <time>2022-06-10T09:11:00Z</time>
      </trkpt>
      <trkpt lat="44.7569" lon="4.09584">
        <ele>1062</ele>
        <time>2022-06-10T09:11:01Z</time>
      </trkpt>
      <trkpt lat="44.75684" lon="4.09582">
        <ele>1061.8</ele>
        <time>2022-06-10T09:11:02Z</time>
      </trkpt>
      <trkpt lat="44.75677" lon="4.09579">
        <ele>1061.5</ele>
        <time>2022-06-10T09:11:03Z</time>
      </trkpt>
      <trkpt lat="44.75671" lon="4.09575">
        <ele>1061.3</ele>
        <time>2022-06-10T09:11:04Z</time>
      </trkpt>
      <trkpt lat="44.75665" lon="4.09572">
        <ele>1061</ele>
        <time>2022-06-10T09:11:05Z</time>
      </trkpt>
      <trkpt lat="44.75658" lon="4.09569">
        <ele>1060.8</ele>
        <time>2022-06-10T09:11:06Z</time>
      </trkpt>
      <trkpt lat="44.75651" lon="4.09566">
        <ele>1060.6</ele>
        <time>2022-06-10T09:11:07Z</time>
      </trkpt>
      <trkpt lat="44.75643" lon="4.09562">
        <ele>1060.4</ele>
        <time>2022-06-10T09:11:08Z</time>
      </trkpt>
      <trkpt lat="44.75636" lon="4.09559">
        <ele>1060.2</ele>
        <time>2022-06-10T09:11:09Z</time>
      </trkpt>
      <trkpt lat="44.75629" lon="4.09554">
        <ele>1060.1</ele>
        <time>2022-06-10T09:11:10Z</time>
      </trkpt>
      <trkpt lat="44.75623" lon="4.09549">
        <ele>1060</ele>
        <time>2022-06-10T09:11:11Z</time>
      </trkpt>
      <trkpt lat="44.75616" lon="4.09544">
        <ele>1059.9</ele>
        <time>2022-06-10T09:11:12Z</time>
      </trkpt>
      <trkpt lat="44.7561" lon="4.09537">
        <ele>1059.9</ele>
        <time>2022-06-10T09:11:13Z</time>
      </trkpt>
      <trkpt lat="44.75604" lon="4.09529">
        <ele>1059.9</ele>
        <time>2022-06-10T09:11:14Z</time>
      </trkpt>
      <trkpt lat="44.75598" lon="4.09522">
        <ele>1059.6</ele>
        <time>2022-06-10T09:11:15Z</time>
      </trkpt>
      <trkpt lat="44.75591" lon="4.09517">
        <ele>1059.3</ele>
        <time>2022-06-10T09:11:16Z</time>
      </trkpt>
      <trkpt lat="44.75583" lon="4.09515">
        <ele>1059</ele>
        <time>2022-06-10T09:11:17Z</time>
      </trkpt>
      <trkpt lat="44.75575" lon="4.09515">
        <ele>1058.7</ele>
        <time>2022-06-10T09:11:18Z</time>
      </trkpt>
      <trkpt lat="44.75568" lon="4.09517">
        <ele>1058.4</ele>
        <time>2022-06-10T09:11:19Z</time>
      </trkpt>
      <trkpt lat="44.7556" lon="4.09522">
        <ele>1058.1</ele>
        <time>2022-06-10T09:11:20Z</time>
      </trkpt>
      <trkpt lat="44.75554" lon="4.09529">
        <ele>1057.8</ele>
        <time>2022-06-10T09:11:21Z</time>
      </trkpt>
      <trkpt lat="44.75548" lon="4.09536">
        <ele>1057.6</ele>
        <time>2022-06-10T09:11:22Z</time>
      </trkpt>
      <trkpt lat="44.75542" lon="4.09544">
        <ele>1057.5</ele>
        <time>2022-06-10T09:11:23Z</time>
      </trkpt>
      <trkpt lat="44.75536" lon="4.09551">
        <ele>1057.3</ele>
        <time>2022-06-10T09:11:24Z</time>
      </trkpt>
      <trkpt lat="44.7553" lon="4.09558">
        <ele>1057.2</ele>
        <time>2022-06-10T09:11:25Z</time>
      </trkpt>
      <trkpt lat="44.75525" lon="4.09565">
        <ele>1057.1</ele>
        <time>2022-06-10T09:11:26Z</time>
      </trkpt>
      <trkpt lat="44.7552" lon="4.09573">
        <ele>1057</ele>
        <time>2022-06-10T09:11:27Z</time>
      </trkpt>
      <trkpt lat="44.75515" lon="4.0958">
        <ele>1057</ele>
        <time>2022-06-10T09:11:28Z</time>
      </trkpt>
      <trkpt lat="44.75511" lon="4.09586">
        <ele>1057</ele>
        <time>2022-06-10T09:11:29Z</time>
      </trkpt>
      <trkpt lat="44.75506" lon="4.09591">
        <ele>1056.9</ele>
        <time>2022-06-10T09:11:30Z</time>
      </trkpt>
      <trkpt lat="44.75502" lon="4.09597">
        <ele>1056.9</ele>
        <time>2022-06-10T09:11:31Z</time>
      </trkpt>
      <trkpt lat="44.75498" lon="4.09603">
        <ele>1057</ele>
        <time>2022-06-10T09:11:32Z</time>
      </trkpt>
      <trkpt lat="44.75493" lon="4.09608">
        <ele>1057</ele>
        <time>2022-06-10T09:11:33Z</time>
      </trkpt>
      <trkpt lat="44.75489" lon="4.09614">
        <ele>1057</ele>
        <time>2022-06-10T09:11:34Z</time>
      </trkpt>
      <trkpt lat="44.75485" lon="4.0962">
        <ele>1057.1</ele>
        <time>2022-06-10T09:11:35Z</time>
      </trkpt>
      <trkpt lat="44.75481" lon="4.09626">
        <ele>1057.1</ele>
        <time>2022-06-10T09:11:36Z</time>
      </trkpt>
      <trkpt lat="44.75477" lon="4.09631">
        <ele>1057.2</ele>
        <time>2022-06-10T09:11:37Z</time>
      </trkpt>
      <trkpt lat="44.75473" lon="4.09633">
        <ele>1057.2</ele>
        <time>2022-06-10T09:11:38Z</time>
      </trkpt>
      <trkpt lat="44.75469" lon="4.0963">
        <ele>1057.2</ele>
        <time>2022-06-10T09:11:39Z</time>
      </trkpt>
      <trkpt lat="44.75468" lon="4.09626">
        <ele>1057.2</ele>
        <time>2022-06-10T09:11:40Z</time>
      </trkpt>
      <trkpt lat="44.75464" lon="4.09619">
        <ele>1057.1</ele>
        <time>2022-06-10T09:11:41Z</time>
      </trkpt>
      <trkpt lat="44.75461" lon="4.09613">
        <ele>1057</ele>
        <time>2022-06-10T09:11:42Z</time>
      </trkpt>
      <trkpt lat="44.75459" lon="4.09608">
        <ele>1056.9</ele>
        <time>2022-06-10T09:11:43Z</time>
      </trkpt>
      <trkpt lat="44.75457" lon="4.09604">
        <ele>1056.8</ele>
        <time>2022-06-10T09:11:44Z</time>
      </trkpt>
      <trkpt lat="44.75453" lon="4.096">
        <ele>1056.7</ele>
        <time>2022-06-10T09:11:45Z</time>
      </trkpt>
      <trkpt lat="44.75451" lon="4.09596">
        <ele>1056.6</ele>
        <time>2022-06-10T09:11:46Z</time>
      </trkpt>
      <trkpt lat="44.75448" lon="4.09592">
        <ele>1056.5</ele>
        <time>2022-06-10T09:11:47Z</time>
      </trkpt>
      <trkpt lat="44.75445" lon="4.09589">
        <ele>1056.4</ele>
        <time>2022-06-10T09:11:48Z</time>
      </trkpt>
      <trkpt lat="44.75442" lon="4.09587">
        <ele>1056.3</ele>
        <time>2022-06-10T09:11:49Z</time>
      </trkpt>
      <trkpt lat="44.75441" lon="4.09587">
        <ele>1056.3</ele>
        <time>2022-06-10T09:11:50Z</time>
      </trkpt>
      <trkpt lat="44.75438" lon="4.09581">
        <ele>1056.2</ele>
        <time>2022-06-10T09:11:51Z</time>
      </trkpt>
      <trkpt lat="44.75435" lon="4.09575">
        <ele>1056</ele>
        <time>2022-06-10T09:11:52Z</time>
      </trkpt>
      <trkpt lat="44.75432" lon="4.0957">
        <ele>1055.9</ele>
        <time>2022-06-10T09:11:53Z</time>
      </trkpt>
      <trkpt lat="44.75428" lon="4.09566">
        <ele>1055.7</ele>
        <time>2022-06-10T09:11:54Z</time>
      </trkpt>
      <trkpt lat="44.75425" lon="4.09562">
        <ele>1055.6</ele>
        <time>2022-06-10T09:11:55Z</time>
      </trkpt>
      <trkpt lat="44.75423" lon="4.09556">
        <ele>1055.4</ele>
        <time>2022-06-10T09:11:56Z</time>
      </trkpt>
      <trkpt lat="44.75421" lon="4.0955">
        <ele>1055.3</ele>
        <time>2022-06-10T09:11:57Z</time>
      </trkpt>
      <trkpt lat="44.75419" lon="4.09544">
        <ele>1055.2</ele>
        <time>2022-06-10T09:11:58Z</time>
      </trkpt>
      <trkpt lat="44.75422" lon="4.09535">
        <ele>1055</ele>
        <time>2022-06-10T09:11:59Z</time>
      </trkpt>
      <trkpt lat="44.75423" lon="4.09528">
        <ele>1054.9</ele>
        <time>2022-06-10T09:12:00Z</time>
      </trkpt>
      <trkpt lat="44.75425" lon="4.09521">
        <ele>1054.8</ele>
        <time>2022-06-10T09:12:01Z</time>
      </trkpt>
      <trkpt lat="44.75427" lon="4.09514">
        <ele>1054.7</ele>
        <time>2022-06-10T09:12:02Z</time>
      </trkpt>
      <trkpt lat="44.75429" lon="4.09508">
        <ele>1054.7</ele>
        <time>2022-06-10T09:12:03Z</time>
      </trkpt>
      <trkpt lat="44.75431" lon="4.09502">
        <ele>1054.6</ele>
        <time>2022-06-10T09:12:04Z</time>
      </trkpt>
      <trkpt lat="44.75432" lon="4.09496">
        <ele>1054.6</ele>
        <time>2022-06-10T09:12:05Z</time>
      </trkpt>
      <trkpt lat="44.75435" lon="4.09491">
        <ele>1054.3</ele>
        <time>2022-06-10T09:12:06Z</time>
      </trkpt>
      <trkpt lat="44.75437" lon="4.09487">
        <ele>1054.2</ele>
        <time>2022-06-10T09:12:07Z</time>
      </trkpt>
      <trkpt lat="44.75442" lon="4.0949">
        <ele>1054</ele>
        <time>2022-06-10T09:12:09Z</time>
      </trkpt>
      <trkpt lat="44.75448" lon="4.09494">
        <ele>1053.8</ele>
        <time>2022-06-10T09:12:10Z</time>
      </trkpt>
      <trkpt lat="44.75453" lon="4.09495">
        <ele>1053.7</ele>
        <time>2022-06-10T09:12:11Z</time>
      </trkpt>
      <trkpt lat="44.75458" lon="4.09498">
        <ele>1053.6</ele>
        <time>2022-06-10T09:12:13Z</time>
      </trkpt>
      <trkpt lat="44.75461" lon="4.09504">
        <ele>1053.6</ele>
        <time>2022-06-10T09:12:14Z</time>
      </trkpt>
      <trkpt lat="44.75464" lon="4.09508">
        <ele>1053.5</ele>
        <time>2022-06-10T09:12:15Z</time>
      </trkpt>
      <trkpt lat="44.75467" lon="4.09509">
        <ele>1053.5</ele>
        <time>2022-06-10T09:12:16Z</time>
      </trkpt>
      <trkpt lat="44.7547" lon="4.09507">
        <ele>1053.5</ele>
        <time>2022-06-10T09:12:18Z</time>
      </trkpt>
      <trkpt lat="44.7547" lon="4.09503">
        <ele>1053.5</ele>
        <time>2022-06-10T09:12:19Z</time>
      </trkpt>
      <trkpt lat="44.75466" lon="4.09501">
        <ele>1053.5</ele>
        <time>2022-06-10T09:12:21Z</time>
      </trkpt>
      <trkpt lat="44.75463" lon="4.095">
        <ele>1053.5</ele>
        <time>2022-06-10T09:12:22Z</time>
      </trkpt>
      <trkpt lat="44.75462" lon="4.095">
        <ele>1053.6</ele>
        <time>2022-06-10T09:12:23Z</time>
      </trkpt>
      <trkpt lat="44.7546" lon="4.09497">
        <ele>1053.6</ele>
        <time>2022-06-10T09:12:24Z</time>
      </trkpt>
      <trkpt lat="44.7546" lon="4.09496">
        <ele>1053.6</ele>
        <time>2022-06-10T09:12:25Z</time>
      </trkpt>
      <trkpt lat="44.75457" lon="4.09494">
        <ele>1053.6</ele>
        <time>2022-06-10T09:12:26Z</time>
      </trkpt>
      <trkpt lat="44.75457" lon="4.09494">
        <ele>1053.6</ele>
        <time>2022-06-10T09:12:27Z</time>
      </trkpt>
      <trkpt lat="44.75453" lon="4.09491">
        <ele>1053.7</ele>
        <time>2022-06-10T09:12:28Z</time>
      </trkpt>
      <trkpt lat="44.75452" lon="4.09491">
        <ele>1053.7</ele>
        <time>2022-06-10T09:12:29Z</time>
      </trkpt>
      <trkpt lat="44.75449" lon="4.09489">
        <ele>1053.8</ele>
        <time>2022-06-10T09:12:31Z</time>
      </trkpt>
      <trkpt lat="44.75446" lon="4.09489">
        <ele>1053.9</ele>
        <time>2022-06-10T09:12:32Z</time>
      </trkpt>
      <trkpt lat="44.75444" lon="4.09486">
        <ele>1054</ele>
        <time>2022-06-10T09:12:33Z</time>
      </trkpt>
      <trkpt lat="44.75443" lon="4.09485">
        <ele>1054</ele>
        <time>2022-06-10T09:12:34Z</time>
      </trkpt>
      <trkpt lat="44.7544" lon="4.09483">
        <ele>1054.2</ele>
        <time>2022-06-10T09:12:35Z</time>
      </trkpt>
      <trkpt lat="44.75439" lon="4.09483">
        <ele>1054.2</ele>
        <time>2022-06-10T09:12:36Z</time>
      </trkpt>
      <trkpt lat="44.75435" lon="4.09483">
        <ele>1054.4</ele>
        <time>2022-06-10T09:12:37Z</time>
      </trkpt>
      <trkpt lat="44.75434" lon="4.09483">
        <ele>1054.5</ele>
        <time>2022-06-10T09:12:39Z</time>
      </trkpt>
      <trkpt lat="44.75434" lon="4.09481">
        <ele>1054.5</ele>
        <time>2022-06-10T09:12:40Z</time>
      </trkpt>
      <trkpt lat="44.75435" lon="4.09478">
        <ele>1054.4</ele>
        <time>2022-06-10T09:12:42Z</time>
      </trkpt>
      <trkpt lat="44.75438" lon="4.09476">
        <ele>1054.4</ele>
        <time>2022-06-10T09:12:44Z</time>
      </trkpt>
      <trkpt lat="44.7544" lon="4.09469">
        <ele>1054.3</ele>
        <time>2022-06-10T09:12:45Z</time>
      </trkpt>
      <trkpt lat="44.75442" lon="4.09465">
        <ele>1054.3</ele>
        <time>2022-06-10T09:12:47Z</time>
      </trkpt>
      <trkpt lat="44.75443" lon="4.09462">
        <ele>1054.3</ele>
        <time>2022-06-10T09:12:48Z</time>
      </trkpt>
      <trkpt lat="44.75445" lon="4.09457">
        <ele>1054.2</ele>
        <time>2022-06-10T09:12:49Z</time>
      </trkpt>
      <trkpt lat="44.75446" lon="4.09455">
        <ele>1054.2</ele>
        <time>2022-06-10T09:12:50Z</time>
      </trkpt>
      <trkpt lat="44.75448" lon="4.09451">
        <ele>1054.2</ele>
        <time>2022-06-10T09:12:51Z</time>
      </trkpt>
      <trkpt lat="44.75449" lon="4.09447">
        <ele>1054.1</ele>
        <time>2022-06-10T09:12:52Z</time>
      </trkpt>
      <trkpt lat="44.7545" lon="4.09443">
        <ele>1054.1</ele>
        <time>2022-06-10T09:12:53Z</time>
      </trkpt>
      <trkpt lat="44.75453" lon="4.09436">
        <ele>1054.1</ele>
        <time>2022-06-10T09:12:55Z</time>
      </trkpt>
      <trkpt lat="44.75453" lon="4.09431">
        <ele>1054.1</ele>
        <time>2022-06-10T09:12:56Z</time>
      </trkpt>
      <trkpt lat="44.75456" lon="4.09422">
        <ele>1054.1</ele>
        <time>2022-06-10T09:12:58Z</time>
      </trkpt>
      <trkpt lat="44.75457" lon="4.09418">
        <ele>1054.1</ele>
        <time>2022-06-10T09:12:59Z</time>
      </trkpt>
      <trkpt lat="44.75459" lon="4.09412">
        <ele>1054.1</ele>
        <time>2022-06-10T09:13:00Z</time>
      </trkpt>
      <trkpt lat="44.7546" lon="4.09409">
        <ele>1054.2</ele>
        <time>2022-06-10T09:13:01Z</time>
      </trkpt>
      <trkpt lat="44.75462" lon="4.09403">
        <ele>1054.2</ele>
        <time>2022-06-10T09:13:03Z</time>
      </trkpt>
      <trkpt lat="44.75463" lon="4.09399">
        <ele>1054.2</ele>
        <time>2022-06-10T09:13:04Z</time>
      </trkpt>
      <trkpt lat="44.75465" lon="4.09396">
        <ele>1054.2</ele>
        <time>2022-06-10T09:13:05Z</time>
      </trkpt>
      <trkpt lat="44.75468" lon="4.09389">
        <ele>1054.3</ele>
        <time>2022-06-10T09:13:07Z</time>
      </trkpt>
      <trkpt lat="44.7547" lon="4.09384">
        <ele>1054.3</ele>
        <time>2022-06-10T09:13:08Z</time>
      </trkpt>
      <trkpt lat="44.75473" lon="4.09379">
        <ele>1054.4</ele>
        <time>2022-06-10T09:13:09Z</time>
      </trkpt>
      <trkpt lat="44.75474" lon="4.09375">
        <ele>1054.4</ele>
        <time>2022-06-10T09:13:10Z</time>
      </trkpt>
      <trkpt lat="44.75475" lon="4.09371">
        <ele>1054.4</ele>
        <time>2022-06-10T09:13:11Z</time>
      </trkpt>
      <trkpt lat="44.75478" lon="4.09365">
        <ele>1054.5</ele>
        <time>2022-06-10T09:13:13Z</time>
      </trkpt>
      <trkpt lat="44.75479" lon="4.09363">
        <ele>1054.5</ele>
        <time>2022-06-10T09:13:14Z</time>
      </trkpt>
      <trkpt lat="44.7548" lon="4.09362">
        <ele>1054.5</ele>
        <time>2022-06-10T09:13:15Z</time>
      </trkpt>
      <trkpt lat="44.75482" lon="4.09359">
        <ele>1054.5</ele>
        <time>2022-06-10T09:13:16Z</time>
      </trkpt>
      <trkpt lat="44.75484" lon="4.09356">
        <ele>1054.5</ele>
        <time>2022-06-10T09:13:17Z</time>
      </trkpt>
      <trkpt lat="44.75488" lon="4.09354">
        <ele>1054.5</ele>
        <time>2022-06-10T09:13:18Z</time>
      </trkpt>
      <trkpt lat="44.75489" lon="4.09353">
        <ele>1054.5</ele>
        <time>2022-06-10T09:13:19Z</time>
      </trkpt>
      <trkpt lat="44.75493" lon="4.09352">
        <ele>1054.5</ele>
        <time>2022-06-10T09:13:20Z</time>
      </trkpt>
      <trkpt lat="44.75496" lon="4.09352">
        <ele>1054.5</ele>
        <time>2022-06-10T09:13:21Z</time>
      </trkpt>
      <trkpt lat="44.75499" lon="4.09352">
        <ele>1054.5</ele>
        <time>2022-06-10T09:13:22Z</time>
      </trkpt>
      <trkpt lat="44.75505" lon="4.09351">
        <ele>1054.5</ele>
        <time>2022-06-10T09:13:23Z</time>
      </trkpt>
      <trkpt lat="44.75508" lon="4.09349">
        <ele>1054.4</ele>
        <time>2022-06-10T09:13:24Z</time>
      </trkpt>
      <trkpt lat="44.75513" lon="4.09346">
        <ele>1054.4</ele>
        <time>2022-06-10T09:13:25Z</time>
      </trkpt>
      <trkpt lat="44.75517" lon="4.09344">
        <ele>1054.4</ele>
        <time>2022-06-10T09:13:27Z</time>
      </trkpt>
      <trkpt lat="44.75519" lon="4.0934">
        <ele>1054.3</ele>
        <time>2022-06-10T09:13:28Z</time>
      </trkpt>
      <trkpt lat="44.75522" lon="4.09337">
        <ele>1054.3</ele>
        <time>2022-06-10T09:13:29Z</time>
      </trkpt>
      <trkpt lat="44.75524" lon="4.09332">
        <ele>1054.3</ele>
        <time>2022-06-10T09:13:30Z</time>
      </trkpt>
      <trkpt lat="44.75526" lon="4.09328">
        <ele>1054.2</ele>
        <time>2022-06-10T09:13:31Z</time>
      </trkpt>
      <trkpt lat="44.7553" lon="4.0932">
        <ele>1054.2</ele>
        <time>2022-06-10T09:13:32Z</time>
      </trkpt>
      <trkpt lat="44.75533" lon="4.09316">
        <ele>1054.1</ele>
        <time>2022-06-10T09:13:34Z</time>
      </trkpt>
      <trkpt lat="44.75535" lon="4.09312">
        <ele>1054.1</ele>
        <time>2022-06-10T09:13:35Z</time>
      </trkpt>
      <trkpt lat="44.75537" lon="4.09308">
        <ele>1054</ele>
        <time>2022-06-10T09:13:36Z</time>
      </trkpt>
      <trkpt lat="44.7554" lon="4.09303">
        <ele>1053.9</ele>
        <time>2022-06-10T09:13:37Z</time>
      </trkpt>
      <trkpt lat="44.75543" lon="4.09299">
        <ele>1053.9</ele>
        <time>2022-06-10T09:13:38Z</time>
      </trkpt>
      <trkpt lat="44.75545" lon="4.09294">
        <ele>1053.9</ele>
        <time>2022-06-10T09:13:39Z</time>
      </trkpt>
      <trkpt lat="44.75548" lon="4.09289">
        <ele>1053.9</ele>
        <time>2022-06-10T09:13:40Z</time>
      </trkpt>
      <trkpt lat="44.7555" lon="4.09284">
        <ele>1053.9</ele>
        <time>2022-06-10T09:13:41Z</time>
      </trkpt>
      <trkpt lat="44.75552" lon="4.09279">
        <ele>1054</ele>
        <time>2022-06-10T09:13:42Z</time>
      </trkpt>
      <trkpt lat="44.75555" lon="4.09274">
        <ele>1054</ele>
        <time>2022-06-10T09:13:43Z</time>
      </trkpt>
      <trkpt lat="44.75559" lon="4.09261">
        <ele>1054.1</ele>
        <time>2022-06-10T09:13:45Z</time>
      </trkpt>
      <trkpt lat="44.7556" lon="4.09256">
        <ele>1054.1</ele>
        <time>2022-06-10T09:13:47Z</time>
      </trkpt>
      <trkpt lat="44.75561" lon="4.0925">
        <ele>1054.1</ele>
        <time>2022-06-10T09:13:48Z</time>
      </trkpt>
      <trkpt lat="44.75562" lon="4.0924">
        <ele>1054.2</ele>
        <time>2022-06-10T09:13:50Z</time>
      </trkpt>
      <trkpt lat="44.75562" lon="4.09234">
        <ele>1054.2</ele>
        <time>2022-06-10T09:13:51Z</time>
      </trkpt>
      <trkpt lat="44.75562" lon="4.09229">
        <ele>1054.3</ele>
        <time>2022-06-10T09:13:52Z</time>
      </trkpt>
      <trkpt lat="44.75561" lon="4.09223">
        <ele>1054.3</ele>
        <time>2022-06-10T09:13:53Z</time>
      </trkpt>
      <trkpt lat="44.75561" lon="4.09215">
        <ele>1054.4</ele>
        <time>2022-06-10T09:13:54Z</time>
      </trkpt>
      <trkpt lat="44.7556" lon="4.09209">
        <ele>1054.5</ele>
        <time>2022-06-10T09:13:56Z</time>
      </trkpt>
      <trkpt lat="44.75559" lon="4.09205">
        <ele>1054.5</ele>
        <time>2022-06-10T09:13:57Z</time>
      </trkpt>
      <trkpt lat="44.75558" lon="4.09201">
        <ele>1054.5</ele>
        <time>2022-06-10T09:13:58Z</time>
      </trkpt>
      <trkpt lat="44.75557" lon="4.09195">
        <ele>1054.6</ele>
        <time>2022-06-10T09:13:59Z</time>
      </trkpt>
      <trkpt lat="44.75557" lon="4.09193">
        <ele>1054.7</ele>
        <time>2022-06-10T09:14:00Z</time>
      </trkpt>
      <trkpt lat="44.75556" lon="4.09186">
        <ele>1054.9</ele>
        <time>2022-06-10T09:14:02Z</time>
      </trkpt>
      <trkpt lat="44.75556" lon="4.09178">
        <ele>1055.1</ele>
        <time>2022-06-10T09:14:04Z</time>
      </trkpt>
      <trkpt lat="44.75555" lon="4.09174">
        <ele>1055.2</ele>
        <time>2022-06-10T09:14:05Z</time>
      </trkpt>
      <trkpt lat="44.75554" lon="4.09168">
        <ele>1055.4</ele>
        <time>2022-06-10T09:14:06Z</time>
      </trkpt>
      <trkpt lat="44.75554" lon="4.09165">
        <ele>1055.5</ele>
        <time>2022-06-10T09:14:07Z</time>
      </trkpt>
      <trkpt lat="44.75554" lon="4.09159">
        <ele>1055.7</ele>
        <time>2022-06-10T09:14:08Z</time>
      </trkpt>
      <trkpt lat="44.75553" lon="4.09156">
        <ele>1055.8</ele>
        <time>2022-06-10T09:14:09Z</time>
      </trkpt>
      <trkpt lat="44.75553" lon="4.09153">
        <ele>1055.9</ele>
        <time>2022-06-10T09:14:11Z</time>
      </trkpt>
      <trkpt lat="44.75552" lon="4.09149">
        <ele>1056.1</ele>
        <time>2022-06-10T09:14:12Z</time>
      </trkpt>
      <trkpt lat="44.75551" lon="4.09142">
        <ele>1056.3</ele>
        <time>2022-06-10T09:14:14Z</time>
      </trkpt>
      <trkpt lat="44.75552" lon="4.09137">
        <ele>1056.5</ele>
        <time>2022-06-10T09:14:15Z</time>
      </trkpt>
      <trkpt lat="44.75552" lon="4.09136">
        <ele>1056.5</ele>
        <time>2022-06-10T09:14:16Z</time>
      </trkpt>
      <trkpt lat="44.75552" lon="4.09131">
        <ele>1056.5</ele>
        <time>2022-06-10T09:14:17Z</time>
      </trkpt>
      <trkpt lat="44.75552" lon="4.0913">
        <ele>1056.5</ele>
        <time>2022-06-10T09:14:18Z</time>
      </trkpt>
      <trkpt lat="44.75553" lon="4.09126">
        <ele>1056.7</ele>
        <time>2022-06-10T09:14:19Z</time>
      </trkpt>
      <trkpt lat="44.75554" lon="4.09125">
        <ele>1056.8</ele>
        <time>2022-06-10T09:14:20Z</time>
      </trkpt>
      <trkpt lat="44.75556" lon="4.0912">
        <ele>1057</ele>
        <time>2022-06-10T09:14:22Z</time>
      </trkpt>
      <trkpt lat="44.75558" lon="4.09118">
        <ele>1057.2</ele>
        <time>2022-06-10T09:14:23Z</time>
      </trkpt>
      <trkpt lat="44.75559" lon="4.09117">
        <ele>1057.3</ele>
        <time>2022-06-10T09:14:24Z</time>
      </trkpt>
      <trkpt lat="44.75562" lon="4.09114">
        <ele>1057.5</ele>
        <time>2022-06-10T09:14:25Z</time>
      </trkpt>
      <trkpt lat="44.75562" lon="4.09113">
        <ele>1057.5</ele>
        <time>2022-06-10T09:14:26Z</time>
      </trkpt>
      <trkpt lat="44.75564" lon="4.0911">
        <ele>1057.7</ele>
        <time>2022-06-10T09:14:27Z</time>
      </trkpt>
      <trkpt lat="44.75565" lon="4.09109">
        <ele>1057.8</ele>
        <time>2022-06-10T09:14:28Z</time>
      </trkpt>
      <trkpt lat="44.75567" lon="4.09106">
        <ele>1058</ele>
        <time>2022-06-10T09:14:29Z</time>
      </trkpt>
      <trkpt lat="44.75568" lon="4.09105">
        <ele>1058.1</ele>
        <time>2022-06-10T09:14:30Z</time>
      </trkpt>
      <trkpt lat="44.75569" lon="4.09101">
        <ele>1058.3</ele>
        <time>2022-06-10T09:14:31Z</time>
      </trkpt>
      <trkpt lat="44.7557" lon="4.091">
        <ele>1058.3</ele>
        <time>2022-06-10T09:14:32Z</time>
      </trkpt>
      <trkpt lat="44.75571" lon="4.09096">
        <ele>1058.6</ele>
        <time>2022-06-10T09:14:33Z</time>
      </trkpt>
      <trkpt lat="44.75571" lon="4.09094">
        <ele>1058.6</ele>
        <time>2022-06-10T09:14:34Z</time>
      </trkpt>
      <trkpt lat="44.75572" lon="4.09091">
        <ele>1059</ele>
        <time>2022-06-10T09:14:35Z</time>
      </trkpt>
      <trkpt lat="44.75572" lon="4.09089">
        <ele>1059</ele>
        <time>2022-06-10T09:14:36Z</time>
      </trkpt>
      <trkpt lat="44.75571" lon="4.09086">
        <ele>1059.1</ele>
        <time>2022-06-10T09:14:37Z</time>
      </trkpt>
      <trkpt lat="44.75571" lon="4.09084">
        <ele>1059.2</ele>
        <time>2022-06-10T09:14:38Z</time>
      </trkpt>
      <trkpt lat="44.75571" lon="4.09083">
        <ele>1059.2</ele>
        <time>2022-06-10T09:14:39Z</time>
      </trkpt>
      <trkpt lat="44.75571" lon="4.0908">
        <ele>1059.3</ele>
        <time>2022-06-10T09:14:40Z</time>
      </trkpt>
      <trkpt lat="44.75571" lon="4.09078">
        <ele>1059.3</ele>
        <time>2022-06-10T09:14:41Z</time>
      </trkpt>
      <trkpt lat="44.75572" lon="4.09076">
        <ele>1061.6</ele>
        <time>2022-06-10T09:14:42Z</time>
      </trkpt>
      <trkpt lat="44.75571" lon="4.09074">
        <ele>1062.2</ele>
        <time>2022-06-10T09:14:43Z</time>
      </trkpt>
      <trkpt lat="44.75571" lon="4.09072">
        <ele>1062.7</ele>
        <time>2022-06-10T09:14:44Z</time>
      </trkpt>
      <trkpt lat="44.75573" lon="4.09069">
        <ele>1063.5</ele>
        <time>2022-06-10T09:14:45Z</time>
      </trkpt>
      <trkpt lat="44.75576" lon="4.09069">
        <ele>1064.8</ele>
        <time>2022-06-10T09:14:47Z</time>
      </trkpt>
      <trkpt lat="44.75577" lon="4.09069">
        <ele>1065.1</ele>
        <time>2022-06-10T09:14:48Z</time>
      </trkpt>
      <trkpt lat="44.75579" lon="4.0907">
        <ele>1065.9</ele>
        <time>2022-06-10T09:14:51Z</time>
      </trkpt>
      <trkpt lat="44.7558" lon="4.09071">
        <ele>1066.3</ele>
        <time>2022-06-10T09:14:52Z</time>
      </trkpt>
      <trkpt lat="44.75581" lon="4.09072">
        <ele>1068.2</ele>
        <time>2022-06-10T09:14:53Z</time>
      </trkpt>
      <trkpt lat="44.75581" lon="4.09073">
        <ele>1068.1</ele>
        <time>2022-06-10T09:14:54Z</time>
      </trkpt>
      <trkpt lat="44.75581" lon="4.09076">
        <ele>1068.1</ele>
        <time>2022-06-10T09:14:56Z</time>
      </trkpt>
      <trkpt lat="44.75581" lon="4.09078">
        <ele>1068.1</ele>
        <time>2022-06-10T09:14:57Z</time>
      </trkpt>
      <trkpt lat="44.7558" lon="4.09079">
        <ele>1068.1</ele>
        <time>2022-06-10T09:14:58Z</time>
      </trkpt>
      <trkpt lat="44.7558" lon="4.0908">
        <ele>1068.1</ele>
        <time>2022-06-10T09:14:59Z</time>
      </trkpt>
      <trkpt lat="44.7558" lon="4.09081">
        <ele>1068.1</ele>
        <time>2022-06-10T09:15:00Z</time>
      </trkpt>
      <trkpt lat="44.7558" lon="4.09081">
        <ele>1068.1</ele>
        <time>2022-06-10T09:15:01Z</time>
      </trkpt>
      <trkpt lat="44.7558" lon="4.09081">
        <ele>1068.1</ele>
        <time>2022-06-10T09:15:02Z</time>
      </trkpt>
      <trkpt lat="44.7558" lon="4.09081">
        <ele>1068.1</ele>
        <time>2022-06-10T09:15:03Z</time>
      </trkpt>
      <trkpt lat="44.75579" lon="4.09081">
        <ele>1068.1</ele>
        <time>2022-06-10T09:15:04Z</time>
      </trkpt>
      <trkpt lat="44.75579" lon="4.09081">
        <ele>1068.1</ele>
        <time>2022-06-10T09:15:05Z</time>
      </trkpt>
      <trkpt lat="44.75579" lon="4.09081">
        <ele>1068.1</ele>
        <time>2022-06-10T09:15:06Z</time>
      </trkpt>
      <trkpt lat="44.75579" lon="4.09081">
        <ele>1068.1</ele>
        <time>2022-06-10T09:15:07Z</time>
      </trkpt>
      <trkpt lat="44.75579" lon="4.09081">
        <ele>1068.1</ele>
        <time>2022-06-10T09:15:08Z</time>
      </trkpt>
      <trkpt lat="44.75579" lon="4.09081">
        <ele>1068.1</ele>
        <time>2022-06-10T09:15:09Z</time>
      </trkpt>
      <trkpt lat="44.75577" lon="4.09084">
        <ele>1067.3</ele>
        <time>2022-06-10T09:15:18Z</time>
      </trkpt>
      <trkpt lat="44.75576" lon="4.09086">
        <ele>1066.3</ele>
        <time>2022-06-10T09:15:19Z</time>
      </trkpt>
      <trkpt lat="44.75576" lon="4.09086">
        <ele>1065.7</ele>
        <time>2022-06-10T09:15:20Z</time>
      </trkpt>
      <trkpt lat="44.75575" lon="4.09086">
        <ele>1065</ele>
        <time>2022-06-10T09:15:21Z</time>
      </trkpt>
      <trkpt lat="44.75574" lon="4.09085">
        <ele>1064.3</ele>
        <time>2022-06-10T09:15:22Z</time>
      </trkpt>
      <trkpt lat="44.75574" lon="4.09084">
        <ele>1063.8</ele>
        <time>2022-06-10T09:15:23Z</time>
      </trkpt>
      <trkpt lat="44.75574" lon="4.09084">
        <ele>1063.6</ele>
        <time>2022-06-10T09:15:24Z</time>
      </trkpt>
      <trkpt lat="44.75574" lon="4.09084">
        <ele>1063.5</ele>
        <time>2022-06-10T09:15:25Z</time>
      </trkpt>
      <trkpt lat="44.75573" lon="4.09085">
        <ele>1063.2</ele>
        <time>2022-06-10T09:15:26Z</time>
      </trkpt>
      <trkpt lat="44.75573" lon="4.09085">
        <ele>1062.8</ele>
        <time>2022-06-10T09:15:27Z</time>
      </trkpt>
      <trkpt lat="44.75572" lon="4.09085">
        <ele>1062.5</ele>
        <time>2022-06-10T09:15:28Z</time>
      </trkpt>
      <trkpt lat="44.75572" lon="4.09085">
        <ele>1062.4</ele>
        <time>2022-06-10T09:15:29Z</time>
      </trkpt>
      <trkpt lat="44.75572" lon="4.09085">
        <ele>1062.4</ele>
        <time>2022-06-10T09:15:30Z</time>
      </trkpt>
      <trkpt lat="44.75572" lon="4.09085">
        <ele>1062.2</ele>
        <time>2022-06-10T09:15:31Z</time>
      </trkpt>
      <trkpt lat="44.75571" lon="4.09086">
        <ele>1061.1</ele>
        <time>2022-06-10T09:15:32Z</time>
      </trkpt>
      <trkpt lat="44.7557" lon="4.09087">
        <ele>1060.2</ele>
        <time>2022-06-10T09:15:33Z</time>
      </trkpt>
      <trkpt lat="44.75569" lon="4.09088">
        <ele>1059.3</ele>
        <time>2022-06-10T09:15:34Z</time>
      </trkpt>
      <trkpt lat="44.75568" lon="4.09088">
        <ele>1058.9</ele>
        <time>2022-06-10T09:15:35Z</time>
      </trkpt>
      <trkpt lat="44.75566" lon="4.09092">
        <ele>1058.7</ele>
        <time>2022-06-10T09:15:36Z</time>
      </trkpt>
      <trkpt lat="44.75564" lon="4.09102">
        <ele>1058.1</ele>
        <time>2022-06-10T09:15:38Z</time>
      </trkpt>
      <trkpt lat="44.75559" lon="4.09112">
        <ele>1057.5</ele>
        <time>2022-06-10T09:15:39Z</time>
      </trkpt>
      <trkpt lat="44.75555" lon="4.09117">
        <ele>1057.1</ele>
        <time>2022-06-10T09:15:40Z</time>
      </trkpt>
      <trkpt lat="44.75552" lon="4.09123">
        <ele>1056.8</ele>
        <time>2022-06-10T09:15:41Z</time>
      </trkpt>
      <trkpt lat="44.7555" lon="4.09129">
        <ele>1056.5</ele>
        <time>2022-06-10T09:15:42Z</time>
      </trkpt>
      <trkpt lat="44.75549" lon="4.09136">
        <ele>1056.5</ele>
        <time>2022-06-10T09:15:43Z</time>
      </trkpt>
      <trkpt lat="44.75549" lon="4.09143">
        <ele>1056.3</ele>
        <time>2022-06-10T09:15:44Z</time>
      </trkpt>
      <trkpt lat="44.75549" lon="4.09151">
        <ele>1056</ele>
        <time>2022-06-10T09:15:45Z</time>
      </trkpt>
      <trkpt lat="44.7555" lon="4.09158">
        <ele>1055.8</ele>
        <time>2022-06-10T09:15:46Z</time>
      </trkpt>
      <trkpt lat="44.75551" lon="4.09165">
        <ele>1055.5</ele>
        <time>2022-06-10T09:15:47Z</time>
      </trkpt>
      <trkpt lat="44.75551" lon="4.09172">
        <ele>1055.3</ele>
        <time>2022-06-10T09:15:48Z</time>
      </trkpt>
      <trkpt lat="44.75552" lon="4.09179">
        <ele>1055.1</ele>
        <time>2022-06-10T09:15:49Z</time>
      </trkpt>
      <trkpt lat="44.75557" lon="4.09185">
        <ele>1054.9</ele>
        <time>2022-06-10T09:15:51Z</time>
      </trkpt>
      <trkpt lat="44.75556" lon="4.09195">
        <ele>1054.6</ele>
        <time>2022-06-10T09:15:53Z</time>
      </trkpt>
      <trkpt lat="44.75555" lon="4.092">
        <ele>1054.5</ele>
        <time>2022-06-10T09:15:54Z</time>
      </trkpt>
      <trkpt lat="44.75555" lon="4.09203">
        <ele>1054.5</ele>
        <time>2022-06-10T09:15:56Z</time>
      </trkpt>
      <trkpt lat="44.75556" lon="4.09205">
        <ele>1054.5</ele>
        <time>2022-06-10T09:15:57Z</time>
      </trkpt>
      <trkpt lat="44.75554" lon="4.09208">
        <ele>1054.5</ele>
        <time>2022-06-10T09:15:58Z</time>
      </trkpt>
      <trkpt lat="44.75553" lon="4.09208">
        <ele>1054.5</ele>
        <time>2022-06-10T09:16:00Z</time>
      </trkpt>
      <trkpt lat="44.75552" lon="4.09209">
        <ele>1054.5</ele>
        <time>2022-06-10T09:16:01Z</time>
      </trkpt>
      <trkpt lat="44.75551" lon="4.0921">
        <ele>1054.4</ele>
        <time>2022-06-10T09:16:02Z</time>
      </trkpt>
      <trkpt lat="44.75548" lon="4.0921">
        <ele>1054.4</ele>
        <time>2022-06-10T09:16:04Z</time>
      </trkpt>
      <trkpt lat="44.75547" lon="4.0921">
        <ele>1054.4</ele>
        <time>2022-06-10T09:16:05Z</time>
      </trkpt>
      <trkpt lat="44.75546" lon="4.09211">
        <ele>1054.4</ele>
        <time>2022-06-10T09:16:07Z</time>
      </trkpt>
      <trkpt lat="44.75545" lon="4.09211">
        <ele>1054.4</ele>
        <time>2022-06-10T09:16:08Z</time>
      </trkpt>
      <trkpt lat="44.75545" lon="4.09211">
        <ele>1054.4</ele>
        <time>2022-06-10T09:16:09Z</time>
      </trkpt>
      <trkpt lat="44.75545" lon="4.09211">
        <ele>1054.4</ele>
        <time>2022-06-10T09:16:10Z</time>
      </trkpt>
      <trkpt lat="44.75545" lon="4.0921">
        <ele>1054.4</ele>
        <time>2022-06-10T09:16:11Z</time>
      </trkpt>
      <trkpt lat="44.75545" lon="4.0921">
        <ele>1054.4</ele>
        <time>2022-06-10T09:16:12Z</time>
      </trkpt>
      <trkpt lat="44.75545" lon="4.09209">
        <ele>1054.4</ele>
        <time>2022-06-10T09:16:13Z</time>
      </trkpt>
      <trkpt lat="44.75545" lon="4.09209">
        <ele>1054.4</ele>
        <time>2022-06-10T09:16:14Z</time>
      </trkpt>
      <trkpt lat="44.75545" lon="4.09209">
        <ele>1054.3</ele>
        <time>2022-06-10T09:16:15Z</time>
      </trkpt>
      <trkpt lat="44.75545" lon="4.09209">
        <ele>1054.3</ele>
        <time>2022-06-10T09:16:17Z</time>
      </trkpt>
      <trkpt lat="44.75545" lon="4.0921">
        <ele>1054.3</ele>
        <time>2022-06-10T09:16:18Z</time>
      </trkpt>
      <trkpt lat="44.75545" lon="4.09212">
        <ele>1054.3</ele>
        <time>2022-06-10T09:16:19Z</time>
      </trkpt>
      <trkpt lat="44.75545" lon="4.09214">
        <ele>1054.3</ele>
        <time>2022-06-10T09:16:20Z</time>
      </trkpt>
      <trkpt lat="44.75543" lon="4.09219">
        <ele>1054.2</ele>
        <time>2022-06-10T09:16:21Z</time>
      </trkpt>
      <trkpt lat="44.75542" lon="4.09225">
        <ele>1054</ele>
        <time>2022-06-10T09:16:23Z</time>
      </trkpt>
      <trkpt lat="44.75541" lon="4.09233">
        <ele>1053.8</ele>
        <time>2022-06-10T09:16:24Z</time>
      </trkpt>
      <trkpt lat="44.75541" lon="4.09237">
        <ele>1053.8</ele>
        <time>2022-06-10T09:16:25Z</time>
      </trkpt>
      <trkpt lat="44.75541" lon="4.09246">
        <ele>1053.6</ele>
        <time>2022-06-10T09:16:27Z</time>
      </trkpt>
      <trkpt lat="44.75541" lon="4.09253">
        <ele>1053.5</ele>
        <time>2022-06-10T09:16:29Z</time>
      </trkpt>
      <trkpt lat="44.75541" lon="4.0926">
        <ele>1053.3</ele>
        <time>2022-06-10T09:16:30Z</time>
      </trkpt>
      <trkpt lat="44.7554" lon="4.09268">
        <ele>1053.2</ele>
        <time>2022-06-10T09:16:32Z</time>
      </trkpt>
      <trkpt lat="44.75539" lon="4.09277">
        <ele>1053.2</ele>
        <time>2022-06-10T09:16:34Z</time>
      </trkpt>
      <trkpt lat="44.75538" lon="4.09282">
        <ele>1053.1</ele>
        <time>2022-06-10T09:16:35Z</time>
      </trkpt>
      <trkpt lat="44.75537" lon="4.09285">
        <ele>1053.1</ele>
        <time>2022-06-10T09:16:36Z</time>
      </trkpt>
      <trkpt lat="44.75535" lon="4.09292">
        <ele>1053.9</ele>
        <time>2022-06-10T09:16:37Z</time>
      </trkpt>
      <trkpt lat="44.75534" lon="4.09297">
        <ele>1054</ele>
        <time>2022-06-10T09:16:39Z</time>
      </trkpt>
      <trkpt lat="44.75534" lon="4.09301">
        <ele>1054</ele>
        <time>2022-06-10T09:16:40Z</time>
      </trkpt>
      <trkpt lat="44.75532" lon="4.09305">
        <ele>1054</ele>
        <time>2022-06-10T09:16:41Z</time>
      </trkpt>
      <trkpt lat="44.75529" lon="4.09308">
        <ele>1054.1</ele>
        <time>2022-06-10T09:16:42Z</time>
      </trkpt>
      <trkpt lat="44.75528" lon="4.0931">
        <ele>1054.1</ele>
        <time>2022-06-10T09:16:43Z</time>
      </trkpt>
      <trkpt lat="44.75527" lon="4.09313">
        <ele>1054.1</ele>
        <time>2022-06-10T09:16:44Z</time>
      </trkpt>
      <trkpt lat="44.75525" lon="4.09316">
        <ele>1054.2</ele>
        <time>2022-06-10T09:16:46Z</time>
      </trkpt>
      <trkpt lat="44.75522" lon="4.0932">
        <ele>1054.2</ele>
        <time>2022-06-10T09:16:47Z</time>
      </trkpt>
      <trkpt lat="44.7552" lon="4.09322">
        <ele>1054.2</ele>
        <time>2022-06-10T09:16:48Z</time>
      </trkpt>
      <trkpt lat="44.75519" lon="4.09324">
        <ele>1054.3</ele>
        <time>2022-06-10T09:16:49Z</time>
      </trkpt>
      <trkpt lat="44.75517" lon="4.09326">
        <ele>1054.3</ele>
        <time>2022-06-10T09:16:51Z</time>
      </trkpt>
      <trkpt lat="44.75516" lon="4.09327">
        <ele>1054.3</ele>
        <time>2022-06-10T09:16:52Z</time>
      </trkpt>
      <trkpt lat="44.75515" lon="4.09329">
        <ele>1054.2</ele>
        <time>2022-06-10T09:16:53Z</time>
      </trkpt>
      <trkpt lat="44.75515" lon="4.09329">
        <ele>1054.2</ele>
        <time>2022-06-10T09:16:54Z</time>
      </trkpt>
      <trkpt lat="44.75516" lon="4.09327">
        <ele>1054.2</ele>
        <time>2022-06-10T09:16:55Z</time>
      </trkpt>
      <trkpt lat="44.75516" lon="4.09326">
        <ele>1054.2</ele>
        <time>2022-06-10T09:16:56Z</time>
      </trkpt>
      <trkpt lat="44.75516" lon="4.09326">
        <ele>1054.2</ele>
        <time>2022-06-10T09:16:57Z</time>
      </trkpt>
      <trkpt lat="44.75516" lon="4.09326">
        <ele>1054.2</ele>
        <time>2022-06-10T09:16:58Z</time>
      </trkpt>
      <trkpt lat="44.75516" lon="4.09327">
        <ele>1054.2</ele>
        <time>2022-06-10T09:16:59Z</time>
      </trkpt>
      <trkpt lat="44.75516" lon="4.09327">
        <ele>1054.2</ele>
        <time>2022-06-10T09:17:00Z</time>
      </trkpt>
      <trkpt lat="44.75516" lon="4.09327">
        <ele>1054.2</ele>
        <time>2022-06-10T09:17:01Z</time>
      </trkpt>
      <trkpt lat="44.75516" lon="4.09327">
        <ele>1054.2</ele>
        <time>2022-06-10T09:17:03Z</time>
      </trkpt>
      <trkpt lat="44.75528" lon="4.09328">
        <ele>1054.2</ele>
        <time>2022-06-10T09:34:33Z</time>
      </trkpt>
      <trkpt lat="44.75528" lon="4.09328">
        <ele>1054.2</ele>
        <time>2022-06-10T09:34:34Z</time>
      </trkpt>
      <trkpt lat="44.75528" lon="4.09328">
        <ele>1054.2</ele>
        <time>2022-06-10T09:34:35Z</time>
      </trkpt>
      <trkpt lat="44.75531" lon="4.09327">
        <ele>1054.1</ele>
        <time>2022-06-10T09:34:36Z</time>
      </trkpt>
      <trkpt lat="44.75534" lon="4.09326">
        <ele>1054.1</ele>
        <time>2022-06-10T09:34:37Z</time>
      </trkpt>
      <trkpt lat="44.75536" lon="4.09322">
        <ele>1054.1</ele>
        <time>2022-06-10T09:34:39Z</time>
      </trkpt>
      <trkpt lat="44.75538" lon="4.09317">
        <ele>1054.1</ele>
        <time>2022-06-10T09:34:40Z</time>
      </trkpt>
      <trkpt lat="44.75541" lon="4.09312">
        <ele>1054</ele>
        <time>2022-06-10T09:34:41Z</time>
      </trkpt>
      <trkpt lat="44.75542" lon="4.09307">
        <ele>1054</ele>
        <time>2022-06-10T09:34:43Z</time>
      </trkpt>
      <trkpt lat="44.75545" lon="4.09301">
        <ele>1053.9</ele>
        <time>2022-06-10T09:34:44Z</time>
      </trkpt>
      <trkpt lat="44.75548" lon="4.09295">
        <ele>1053.9</ele>
        <time>2022-06-10T09:34:45Z</time>
      </trkpt>
      <trkpt lat="44.7555" lon="4.09288">
        <ele>1053.9</ele>
        <time>2022-06-10T09:34:46Z</time>
      </trkpt>
      <trkpt lat="44.75552" lon="4.09281">
        <ele>1053.9</ele>
        <time>2022-06-10T09:34:47Z</time>
      </trkpt>
      <trkpt lat="44.75555" lon="4.09268">
        <ele>1054</ele>
        <time>2022-06-10T09:34:49Z</time>
      </trkpt>
      <trkpt lat="44.75557" lon="4.09263">
        <ele>1054</ele>
        <time>2022-06-10T09:34:51Z</time>
      </trkpt>
      <trkpt lat="44.75559" lon="4.09257">
        <ele>1054.1</ele>
        <time>2022-06-10T09:34:52Z</time>
      </trkpt>
      <trkpt lat="44.7556" lon="4.09252">
        <ele>1054.1</ele>
        <time>2022-06-10T09:34:53Z</time>
      </trkpt>
      <trkpt lat="44.75561" lon="4.09246">
        <ele>1054.1</ele>
        <time>2022-06-10T09:34:54Z</time>
      </trkpt>
      <trkpt lat="44.75561" lon="4.0924">
        <ele>1054.2</ele>
        <time>2022-06-10T09:34:55Z</time>
      </trkpt>
      <trkpt lat="44.75561" lon="4.09234">
        <ele>1054.2</ele>
        <time>2022-06-10T09:34:56Z</time>
      </trkpt>
      <trkpt lat="44.75561" lon="4.09228">
        <ele>1054.3</ele>
        <time>2022-06-10T09:34:57Z</time>
      </trkpt>
      <trkpt lat="44.7556" lon="4.09222">
        <ele>1054.4</ele>
        <time>2022-06-10T09:34:58Z</time>
      </trkpt>
      <trkpt lat="44.75559" lon="4.09217">
        <ele>1054.4</ele>
        <time>2022-06-10T09:34:59Z</time>
      </trkpt>
      <trkpt lat="44.75559" lon="4.09212">
        <ele>1054.5</ele>
        <time>2022-06-10T09:35:00Z</time>
      </trkpt>
      <trkpt lat="44.75558" lon="4.09207">
        <ele>1054.5</ele>
        <time>2022-06-10T09:35:01Z</time>
      </trkpt>
      <trkpt lat="44.75558" lon="4.09202">
        <ele>1054.5</ele>
        <time>2022-06-10T09:35:02Z</time>
      </trkpt>
      <trkpt lat="44.75557" lon="4.09197">
        <ele>1054.6</ele>
        <time>2022-06-10T09:35:03Z</time>
      </trkpt>
      <trkpt lat="44.75557" lon="4.09192">
        <ele>1054.7</ele>
        <time>2022-06-10T09:35:04Z</time>
      </trkpt>
      <trkpt lat="44.75556" lon="4.09187">
        <ele>1054.8</ele>
        <time>2022-06-10T09:35:05Z</time>
      </trkpt>
      <trkpt lat="44.75556" lon="4.09182">
        <ele>1055</ele>
        <time>2022-06-10T09:35:06Z</time>
      </trkpt>
      <trkpt lat="44.75555" lon="4.09178">
        <ele>1055.1</ele>
        <time>2022-06-10T09:35:07Z</time>
      </trkpt>
      <trkpt lat="44.75555" lon="4.09173">
        <ele>1055.2</ele>
        <time>2022-06-10T09:35:08Z</time>
      </trkpt>
      <trkpt lat="44.75555" lon="4.09168">
        <ele>1055.4</ele>
        <time>2022-06-10T09:35:09Z</time>
      </trkpt>
      <trkpt lat="44.75554" lon="4.09164">
        <ele>1055.5</ele>
        <time>2022-06-10T09:35:10Z</time>
      </trkpt>
      <trkpt lat="44.75553" lon="4.0916">
        <ele>1055.7</ele>
        <time>2022-06-10T09:35:11Z</time>
      </trkpt>
      <trkpt lat="44.75553" lon="4.09156">
        <ele>1055.8</ele>
        <time>2022-06-10T09:35:12Z</time>
      </trkpt>
      <trkpt lat="44.75552" lon="4.09151">
        <ele>1056</ele>
        <time>2022-06-10T09:35:13Z</time>
      </trkpt>
      <trkpt lat="44.75552" lon="4.09146">
        <ele>1056.2</ele>
        <time>2022-06-10T09:35:14Z</time>
      </trkpt>
      <trkpt lat="44.75552" lon="4.09144">
        <ele>1056.2</ele>
        <time>2022-06-10T09:35:15Z</time>
      </trkpt>
      <trkpt lat="44.75551" lon="4.09139">
        <ele>1056.4</ele>
        <time>2022-06-10T09:35:16Z</time>
      </trkpt>
      <trkpt lat="44.75551" lon="4.09138">
        <ele>1056.5</ele>
        <time>2022-06-10T09:35:17Z</time>
      </trkpt>
      <trkpt lat="44.7555" lon="4.09131">
        <ele>1056.5</ele>
        <time>2022-06-10T09:35:18Z</time>
      </trkpt>
      <trkpt lat="44.7555" lon="4.09128">
        <ele>1056.5</ele>
        <time>2022-06-10T09:35:19Z</time>
      </trkpt>
      <trkpt lat="44.75552" lon="4.09125">
        <ele>1056.7</ele>
        <time>2022-06-10T09:35:21Z</time>
      </trkpt>
      <trkpt lat="44.75555" lon="4.09122">
        <ele>1056.9</ele>
        <time>2022-06-10T09:35:22Z</time>
      </trkpt>
      <trkpt lat="44.75556" lon="4.09121">
        <ele>1057</ele>
        <time>2022-06-10T09:35:23Z</time>
      </trkpt>
      <trkpt lat="44.75559" lon="4.09119">
        <ele>1057.2</ele>
        <time>2022-06-10T09:35:24Z</time>
      </trkpt>
      <trkpt lat="44.7556" lon="4.09118">
        <ele>1057.3</ele>
        <time>2022-06-10T09:35:25Z</time>
      </trkpt>
      <trkpt lat="44.75562" lon="4.09116">
        <ele>1057.4</ele>
        <time>2022-06-10T09:35:26Z</time>
      </trkpt>
      <trkpt lat="44.75565" lon="4.09113">
        <ele>1057.6</ele>
        <time>2022-06-10T09:35:27Z</time>
      </trkpt>
      <trkpt lat="44.75566" lon="4.09112">
        <ele>1057.7</ele>
        <time>2022-06-10T09:35:28Z</time>
      </trkpt>
      <trkpt lat="44.75568" lon="4.09108">
        <ele>1057.9</ele>
        <time>2022-06-10T09:35:29Z</time>
      </trkpt>
      <trkpt lat="44.75569" lon="4.09107">
        <ele>1058</ele>
        <time>2022-06-10T09:35:30Z</time>
      </trkpt>
      <trkpt lat="44.75571" lon="4.09103">
        <ele>1058.2</ele>
        <time>2022-06-10T09:35:31Z</time>
      </trkpt>
      <trkpt lat="44.75571" lon="4.09102">
        <ele>1058.3</ele>
        <time>2022-06-10T09:35:32Z</time>
      </trkpt>
      <trkpt lat="44.75573" lon="4.09098">
        <ele>1058.5</ele>
        <time>2022-06-10T09:35:33Z</time>
      </trkpt>
      <trkpt lat="44.75573" lon="4.09096">
        <ele>1058.6</ele>
        <time>2022-06-10T09:35:34Z</time>
      </trkpt>
      <trkpt lat="44.75574" lon="4.09091">
        <ele>1058.9</ele>
        <time>2022-06-10T09:35:35Z</time>
      </trkpt>
      <trkpt lat="44.75575" lon="4.09089">
        <ele>1059</ele>
        <time>2022-06-10T09:35:36Z</time>
      </trkpt>
      <trkpt lat="44.75575" lon="4.09083">
        <ele>1059.2</ele>
        <time>2022-06-10T09:35:37Z</time>
      </trkpt>
      <trkpt lat="44.75576" lon="4.09081">
        <ele>1059.2</ele>
        <time>2022-06-10T09:35:38Z</time>
      </trkpt>
      <trkpt lat="44.75575" lon="4.09077">
        <ele>1059.4</ele>
        <time>2022-06-10T09:35:39Z</time>
      </trkpt>
      <trkpt lat="44.75575" lon="4.09075">
        <ele>1059.4</ele>
        <time>2022-06-10T09:35:40Z</time>
      </trkpt>
      <trkpt lat="44.75575" lon="4.0907">
        <ele>1059.6</ele>
        <time>2022-06-10T09:35:41Z</time>
      </trkpt>
      <trkpt lat="44.75575" lon="4.09068">
        <ele>1059.6</ele>
        <time>2022-06-10T09:35:42Z</time>
      </trkpt>
      <trkpt lat="44.75575" lon="4.09063">
        <ele>1059.7</ele>
        <time>2022-06-10T09:35:43Z</time>
      </trkpt>
      <trkpt lat="44.75575" lon="4.09061">
        <ele>1059.7</ele>
        <time>2022-06-10T09:35:44Z</time>
      </trkpt>
      <trkpt lat="44.75575" lon="4.09057">
        <ele>1059.9</ele>
        <time>2022-06-10T09:35:45Z</time>
      </trkpt>
      <trkpt lat="44.75574" lon="4.09055">
        <ele>1059.9</ele>
        <time>2022-06-10T09:35:46Z</time>
      </trkpt>
      <trkpt lat="44.75574" lon="4.09051">
        <ele>1060</ele>
        <time>2022-06-10T09:35:47Z</time>
      </trkpt>
      <trkpt lat="44.75574" lon="4.0905">
        <ele>1060.1</ele>
        <time>2022-06-10T09:35:48Z</time>
      </trkpt>
      <trkpt lat="44.75574" lon="4.09045">
        <ele>1060.3</ele>
        <time>2022-06-10T09:35:49Z</time>
      </trkpt>
      <trkpt lat="44.75574" lon="4.09043">
        <ele>1060.3</ele>
        <time>2022-06-10T09:35:50Z</time>
      </trkpt>
      <trkpt lat="44.75574" lon="4.09038">
        <ele>1060.5</ele>
        <time>2022-06-10T09:35:51Z</time>
      </trkpt>
      <trkpt lat="44.75574" lon="4.09036">
        <ele>1060.6</ele>
        <time>2022-06-10T09:35:52Z</time>
      </trkpt>
      <trkpt lat="44.75574" lon="4.09031">
        <ele>1060.7</ele>
        <time>2022-06-10T09:35:53Z</time>
      </trkpt>
      <trkpt lat="44.75574" lon="4.0903">
        <ele>1060.8</ele>
        <time>2022-06-10T09:35:54Z</time>
      </trkpt>
      <trkpt lat="44.75574" lon="4.09025">
        <ele>1060.9</ele>
        <time>2022-06-10T09:35:55Z</time>
      </trkpt>
      <trkpt lat="44.75574" lon="4.09024">
        <ele>1061</ele>
        <time>2022-06-10T09:35:56Z</time>
      </trkpt>
      <trkpt lat="44.75574" lon="4.09019">
        <ele>1061.1</ele>
        <time>2022-06-10T09:35:57Z</time>
      </trkpt>
      <trkpt lat="44.75574" lon="4.09018">
        <ele>1061.2</ele>
        <time>2022-06-10T09:35:58Z</time>
      </trkpt>
      <trkpt lat="44.75574" lon="4.09013">
        <ele>1061.3</ele>
        <time>2022-06-10T09:35:59Z</time>
      </trkpt>
      <trkpt lat="44.75574" lon="4.09012">
        <ele>1061.4</ele>
        <time>2022-06-10T09:36:00Z</time>
      </trkpt>
      <trkpt lat="44.75573" lon="4.09007">
        <ele>1061.6</ele>
        <time>2022-06-10T09:36:01Z</time>
      </trkpt>
      <trkpt lat="44.75573" lon="4.09005">
        <ele>1061.6</ele>
        <time>2022-06-10T09:36:02Z</time>
      </trkpt>
      <trkpt lat="44.75572" lon="4.09001">
        <ele>1061.8</ele>
        <time>2022-06-10T09:36:03Z</time>
      </trkpt>
      <trkpt lat="44.75572" lon="4.08999">
        <ele>1061.8</ele>
        <time>2022-06-10T09:36:04Z</time>
      </trkpt>
      <trkpt lat="44.75572" lon="4.08994">
        <ele>1062</ele>
        <time>2022-06-10T09:36:05Z</time>
      </trkpt>
      <trkpt lat="44.75572" lon="4.08993">
        <ele>1062.1</ele>
        <time>2022-06-10T09:36:06Z</time>
      </trkpt>
      <trkpt lat="44.75572" lon="4.08988">
        <ele>1062.2</ele>
        <time>2022-06-10T09:36:07Z</time>
      </trkpt>
      <trkpt lat="44.75572" lon="4.08987">
        <ele>1062.3</ele>
        <time>2022-06-10T09:36:08Z</time>
      </trkpt>
      <trkpt lat="44.75572" lon="4.08982">
        <ele>1062.5</ele>
        <time>2022-06-10T09:36:09Z</time>
      </trkpt>
      <trkpt lat="44.75572" lon="4.0898">
        <ele>1062.5</ele>
        <time>2022-06-10T09:36:10Z</time>
      </trkpt>
      <trkpt lat="44.75572" lon="4.08975">
        <ele>1062.7</ele>
        <time>2022-06-10T09:36:11Z</time>
      </trkpt>
      <trkpt lat="44.75571" lon="4.08974">
        <ele>1062.8</ele>
        <time>2022-06-10T09:36:12Z</time>
      </trkpt>
      <trkpt lat="44.75571" lon="4.08969">
        <ele>1062.9</ele>
        <time>2022-06-10T09:36:13Z</time>
      </trkpt>
      <trkpt lat="44.75571" lon="4.08967">
        <ele>1063</ele>
        <time>2022-06-10T09:36:14Z</time>
      </trkpt>
      <trkpt lat="44.7557" lon="4.08963">
        <ele>1063.1</ele>
        <time>2022-06-10T09:36:15Z</time>
      </trkpt>
      <trkpt lat="44.7557" lon="4.08962">
        <ele>1063.2</ele>
        <time>2022-06-10T09:36:16Z</time>
      </trkpt>
      <trkpt lat="44.75569" lon="4.08957">
        <ele>1063.4</ele>
        <time>2022-06-10T09:36:17Z</time>
      </trkpt>
      <trkpt lat="44.75569" lon="4.08956">
        <ele>1063.4</ele>
        <time>2022-06-10T09:36:18Z</time>
      </trkpt>
      <trkpt lat="44.75568" lon="4.08951">
        <ele>1063.6</ele>
        <time>2022-06-10T09:36:19Z</time>
      </trkpt>
      <trkpt lat="44.75568" lon="4.0895">
        <ele>1063.6</ele>
        <time>2022-06-10T09:36:20Z</time>
      </trkpt>
      <trkpt lat="44.75568" lon="4.08945">
        <ele>1063.8</ele>
        <time>2022-06-10T09:36:21Z</time>
      </trkpt>
      <trkpt lat="44.75568" lon="4.08944">
        <ele>1063.8</ele>
        <time>2022-06-10T09:36:22Z</time>
      </trkpt>
      <trkpt lat="44.75568" lon="4.08939">
        <ele>1064</ele>
        <time>2022-06-10T09:36:23Z</time>
      </trkpt>
      <trkpt lat="44.75568" lon="4.08938">
        <ele>1064</ele>
        <time>2022-06-10T09:36:24Z</time>
      </trkpt>
      <trkpt lat="44.75567" lon="4.08933">
        <ele>1064.2</ele>
        <time>2022-06-10T09:36:25Z</time>
      </trkpt>
      <trkpt lat="44.75567" lon="4.08931">
        <ele>1064.3</ele>
        <time>2022-06-10T09:36:26Z</time>
      </trkpt>
      <trkpt lat="44.75567" lon="4.08927">
        <ele>1064.4</ele>
        <time>2022-06-10T09:36:27Z</time>
      </trkpt>
      <trkpt lat="44.75566" lon="4.08926">
        <ele>1064.5</ele>
        <time>2022-06-10T09:36:28Z</time>
      </trkpt>
      <trkpt lat="44.75566" lon="4.08921">
        <ele>1064.6</ele>
        <time>2022-06-10T09:36:29Z</time>
      </trkpt>
      <trkpt lat="44.75566" lon="4.08919">
        <ele>1064.7</ele>
        <time>2022-06-10T09:36:30Z</time>
      </trkpt>
      <trkpt lat="44.75566" lon="4.08916">
        <ele>1064.9</ele>
        <time>2022-06-10T09:36:31Z</time>
      </trkpt>
      <trkpt lat="44.75566" lon="4.08914">
        <ele>1064.9</ele>
        <time>2022-06-10T09:36:32Z</time>
      </trkpt>
      <trkpt lat="44.75565" lon="4.08909">
        <ele>1065.1</ele>
        <time>2022-06-10T09:36:33Z</time>
      </trkpt>
      <trkpt lat="44.75565" lon="4.08907">
        <ele>1065.2</ele>
        <time>2022-06-10T09:36:34Z</time>
      </trkpt>
      <trkpt lat="44.75565" lon="4.08903">
        <ele>1065.4</ele>
        <time>2022-06-10T09:36:35Z</time>
      </trkpt>
      <trkpt lat="44.75565" lon="4.08901">
        <ele>1065.4</ele>
        <time>2022-06-10T09:36:36Z</time>
      </trkpt>
      <trkpt lat="44.75565" lon="4.08897">
        <ele>1065.6</ele>
        <time>2022-06-10T09:36:37Z</time>
      </trkpt>
      <trkpt lat="44.75564" lon="4.08895">
        <ele>1065.6</ele>
        <time>2022-06-10T09:36:38Z</time>
      </trkpt>
      <trkpt lat="44.75564" lon="4.08891">
        <ele>1065.8</ele>
        <time>2022-06-10T09:36:39Z</time>
      </trkpt>
      <trkpt lat="44.75564" lon="4.08889">
        <ele>1065.9</ele>
        <time>2022-06-10T09:36:40Z</time>
      </trkpt>
      <trkpt lat="44.75564" lon="4.08885">
        <ele>1066.1</ele>
        <time>2022-06-10T09:36:41Z</time>
      </trkpt>
      <trkpt lat="44.75564" lon="4.08883">
        <ele>1066.1</ele>
        <time>2022-06-10T09:36:42Z</time>
      </trkpt>
      <trkpt lat="44.75563" lon="4.08879">
        <ele>1066.3</ele>
        <time>2022-06-10T09:36:43Z</time>
      </trkpt>
      <trkpt lat="44.75563" lon="4.08877">
        <ele>1066.3</ele>
        <time>2022-06-10T09:36:44Z</time>
      </trkpt>
      <trkpt lat="44.75563" lon="4.08874">
        <ele>1066.5</ele>
        <time>2022-06-10T09:36:45Z</time>
      </trkpt>
      <trkpt lat="44.75563" lon="4.08872">
        <ele>1066.5</ele>
        <time>2022-06-10T09:36:46Z</time>
      </trkpt>
      <trkpt lat="44.75562" lon="4.08867">
        <ele>1066.7</ele>
        <time>2022-06-10T09:36:47Z</time>
      </trkpt>
      <trkpt lat="44.75562" lon="4.08866">
        <ele>1066.8</ele>
        <time>2022-06-10T09:36:48Z</time>
      </trkpt>
      <trkpt lat="44.75562" lon="4.08861">
        <ele>1067</ele>
        <time>2022-06-10T09:36:49Z</time>
      </trkpt>
      <trkpt lat="44.75561" lon="4.08859">
        <ele>1067</ele>
        <time>2022-06-10T09:36:50Z</time>
      </trkpt>
      <trkpt lat="44.75561" lon="4.08854">
        <ele>1067.2</ele>
        <time>2022-06-10T09:36:51Z</time>
      </trkpt>
      <trkpt lat="44.75561" lon="4.08853">
        <ele>1067.3</ele>
        <time>2022-06-10T09:36:52Z</time>
      </trkpt>
      <trkpt lat="44.7556" lon="4.08848">
        <ele>1067.5</ele>
        <time>2022-06-10T09:36:53Z</time>
      </trkpt>
      <trkpt lat="44.7556" lon="4.08846">
        <ele>1067.5</ele>
        <time>2022-06-10T09:36:54Z</time>
      </trkpt>
      <trkpt lat="44.7556" lon="4.08842">
        <ele>1067.7</ele>
        <time>2022-06-10T09:36:55Z</time>
      </trkpt>
      <trkpt lat="44.7556" lon="4.0884">
        <ele>1067.8</ele>
        <time>2022-06-10T09:36:56Z</time>
      </trkpt>
      <trkpt lat="44.75559" lon="4.08835">
        <ele>1067.9</ele>
        <time>2022-06-10T09:36:57Z</time>
      </trkpt>
      <trkpt lat="44.75559" lon="4.08834">
        <ele>1068</ele>
        <time>2022-06-10T09:36:58Z</time>
      </trkpt>
      <trkpt lat="44.75559" lon="4.08829">
        <ele>1068.2</ele>
        <time>2022-06-10T09:36:59Z</time>
      </trkpt>
      <trkpt lat="44.75559" lon="4.08827">
        <ele>1068.3</ele>
        <time>2022-06-10T09:37:00Z</time>
      </trkpt>
      <trkpt lat="44.75559" lon="4.08822">
        <ele>1068.4</ele>
        <time>2022-06-10T09:37:01Z</time>
      </trkpt>
      <trkpt lat="44.75558" lon="4.0882">
        <ele>1068.5</ele>
        <time>2022-06-10T09:37:02Z</time>
      </trkpt>
      <trkpt lat="44.75558" lon="4.08815">
        <ele>1068.7</ele>
        <time>2022-06-10T09:37:03Z</time>
      </trkpt>
      <trkpt lat="44.75558" lon="4.08814">
        <ele>1068.8</ele>
        <time>2022-06-10T09:37:04Z</time>
      </trkpt>
      <trkpt lat="44.75557" lon="4.08809">
        <ele>1068.9</ele>
        <time>2022-06-10T09:37:05Z</time>
      </trkpt>
      <trkpt lat="44.75557" lon="4.08808">
        <ele>1068.9</ele>
        <time>2022-06-10T09:37:06Z</time>
      </trkpt>
      <trkpt lat="44.75557" lon="4.08804">
        <ele>1069.1</ele>
        <time>2022-06-10T09:37:07Z</time>
      </trkpt>
      <trkpt lat="44.75557" lon="4.088">
        <ele>1069.2</ele>
        <time>2022-06-10T09:37:08Z</time>
      </trkpt>
      <trkpt lat="44.75556" lon="4.08795">
        <ele>1069.4</ele>
        <time>2022-06-10T09:37:09Z</time>
      </trkpt>
      <trkpt lat="44.75556" lon="4.08794">
        <ele>1069.4</ele>
        <time>2022-06-10T09:37:10Z</time>
      </trkpt>
      <trkpt lat="44.75556" lon="4.08789">
        <ele>1069.6</ele>
        <time>2022-06-10T09:37:11Z</time>
      </trkpt>
      <trkpt lat="44.75555" lon="4.08787">
        <ele>1069.7</ele>
        <time>2022-06-10T09:37:12Z</time>
      </trkpt>
      <trkpt lat="44.75555" lon="4.08783">
        <ele>1069.8</ele>
        <time>2022-06-10T09:37:13Z</time>
      </trkpt>
      <trkpt lat="44.75555" lon="4.08781">
        <ele>1069.9</ele>
        <time>2022-06-10T09:37:14Z</time>
      </trkpt>
      <trkpt lat="44.75554" lon="4.08776">
        <ele>1070.1</ele>
        <time>2022-06-10T09:37:15Z</time>
      </trkpt>
      <trkpt lat="44.75554" lon="4.08775">
        <ele>1070.1</ele>
        <time>2022-06-10T09:37:16Z</time>
      </trkpt>
      <trkpt lat="44.75554" lon="4.0877">
        <ele>1070.3</ele>
        <time>2022-06-10T09:37:17Z</time>
      </trkpt>
      <trkpt lat="44.75553" lon="4.08769">
        <ele>1070.3</ele>
        <time>2022-06-10T09:37:18Z</time>
      </trkpt>
      <trkpt lat="44.75552" lon="4.08765">
        <ele>1070.5</ele>
        <time>2022-06-10T09:37:19Z</time>
      </trkpt>
      <trkpt lat="44.75551" lon="4.08764">
        <ele>1070.5</ele>
        <time>2022-06-10T09:37:20Z</time>
      </trkpt>
      <trkpt lat="44.7555" lon="4.0876">
        <ele>1070.7</ele>
        <time>2022-06-10T09:37:21Z</time>
      </trkpt>
      <trkpt lat="44.75549" lon="4.08759">
        <ele>1070.8</ele>
        <time>2022-06-10T09:37:22Z</time>
      </trkpt>
      <trkpt lat="44.75548" lon="4.08755">
        <ele>1070.9</ele>
        <time>2022-06-10T09:37:23Z</time>
      </trkpt>
      <trkpt lat="44.75547" lon="4.08753">
        <ele>1071</ele>
        <time>2022-06-10T09:37:24Z</time>
      </trkpt>
      <trkpt lat="44.75546" lon="4.08749">
        <ele>1071.1</ele>
        <time>2022-06-10T09:37:25Z</time>
      </trkpt>
      <trkpt lat="44.75545" lon="4.08748">
        <ele>1071.2</ele>
        <time>2022-06-10T09:37:26Z</time>
      </trkpt>
      <trkpt lat="44.75543" lon="4.08744">
        <ele>1071.4</ele>
        <time>2022-06-10T09:37:27Z</time>
      </trkpt>
      <trkpt lat="44.75543" lon="4.08743">
        <ele>1071.4</ele>
        <time>2022-06-10T09:37:28Z</time>
      </trkpt>
      <trkpt lat="44.75541" lon="4.08739">
        <ele>1071.6</ele>
        <time>2022-06-10T09:37:29Z</time>
      </trkpt>
      <trkpt lat="44.7554" lon="4.08738">
        <ele>1071.7</ele>
        <time>2022-06-10T09:37:30Z</time>
      </trkpt>
      <trkpt lat="44.75538" lon="4.08735">
        <ele>1071.8</ele>
        <time>2022-06-10T09:37:31Z</time>
      </trkpt>
      <trkpt lat="44.75538" lon="4.08734">
        <ele>1071.9</ele>
        <time>2022-06-10T09:37:32Z</time>
      </trkpt>
      <trkpt lat="44.75535" lon="4.0873">
        <ele>1072.1</ele>
        <time>2022-06-10T09:37:33Z</time>
      </trkpt>
      <trkpt lat="44.75535" lon="4.08729">
        <ele>1072.1</ele>
        <time>2022-06-10T09:37:34Z</time>
      </trkpt>
      <trkpt lat="44.75533" lon="4.08726">
        <ele>1072.3</ele>
        <time>2022-06-10T09:37:35Z</time>
      </trkpt>
      <trkpt lat="44.75532" lon="4.08725">
        <ele>1072.4</ele>
        <time>2022-06-10T09:37:36Z</time>
      </trkpt>
      <trkpt lat="44.7553" lon="4.08721">
        <ele>1072.5</ele>
        <time>2022-06-10T09:37:37Z</time>
      </trkpt>
      <trkpt lat="44.75529" lon="4.0872">
        <ele>1072.6</ele>
        <time>2022-06-10T09:37:38Z</time>
      </trkpt>
      <trkpt lat="44.75527" lon="4.08716">
        <ele>1072.8</ele>
        <time>2022-06-10T09:37:39Z</time>
      </trkpt>
      <trkpt lat="44.75526" lon="4.08715">
        <ele>1072.9</ele>
        <time>2022-06-10T09:37:40Z</time>
      </trkpt>
      <trkpt lat="44.75524" lon="4.08712">
        <ele>1073</ele>
        <time>2022-06-10T09:37:41Z</time>
      </trkpt>
      <trkpt lat="44.75523" lon="4.08712">
        <ele>1073.1</ele>
        <time>2022-06-10T09:37:42Z</time>
      </trkpt>
      <trkpt lat="44.7552" lon="4.08707">
        <ele>1073.3</ele>
        <time>2022-06-10T09:37:44Z</time>
      </trkpt>
      <trkpt lat="44.75518" lon="4.08704">
        <ele>1073.5</ele>
        <time>2022-06-10T09:37:45Z</time>
      </trkpt>
      <trkpt lat="44.75517" lon="4.08703">
        <ele>1073.5</ele>
        <time>2022-06-10T09:37:46Z</time>
      </trkpt>
      <trkpt lat="44.75515" lon="4.087">
        <ele>1073.7</ele>
        <time>2022-06-10T09:37:47Z</time>
      </trkpt>
      <trkpt lat="44.75514" lon="4.08699">
        <ele>1073.7</ele>
        <time>2022-06-10T09:37:48Z</time>
      </trkpt>
      <trkpt lat="44.75512" lon="4.08695">
        <ele>1073.9</ele>
        <time>2022-06-10T09:37:49Z</time>
      </trkpt>
      <trkpt lat="44.75512" lon="4.08694">
        <ele>1073.9</ele>
        <time>2022-06-10T09:37:50Z</time>
      </trkpt>
      <trkpt lat="44.75509" lon="4.08692">
        <ele>1074.1</ele>
        <time>2022-06-10T09:37:51Z</time>
      </trkpt>
      <trkpt lat="44.75508" lon="4.08692">
        <ele>1074.1</ele>
        <time>2022-06-10T09:37:52Z</time>
      </trkpt>
      <trkpt lat="44.75506" lon="4.0869">
        <ele>1074.3</ele>
        <time>2022-06-10T09:37:53Z</time>
      </trkpt>
      <trkpt lat="44.75505" lon="4.0869">
        <ele>1074.3</ele>
        <time>2022-06-10T09:37:54Z</time>
      </trkpt>
      <trkpt lat="44.75502" lon="4.08688">
        <ele>1074.5</ele>
        <time>2022-06-10T09:37:55Z</time>
      </trkpt>
      <trkpt lat="44.75501" lon="4.08688">
        <ele>1074.5</ele>
        <time>2022-06-10T09:37:56Z</time>
      </trkpt>
      <trkpt lat="44.75499" lon="4.08686">
        <ele>1074.5</ele>
        <time>2022-06-10T09:37:57Z</time>
      </trkpt>
      <trkpt lat="44.75498" lon="4.08685">
        <ele>1074.5</ele>
        <time>2022-06-10T09:37:58Z</time>
      </trkpt>
      <trkpt lat="44.75495" lon="4.08682">
        <ele>1074.6</ele>
        <time>2022-06-10T09:37:59Z</time>
      </trkpt>
      <trkpt lat="44.75494" lon="4.08682">
        <ele>1074.6</ele>
        <time>2022-06-10T09:38:00Z</time>
      </trkpt>
      <trkpt lat="44.75493" lon="4.08681">
        <ele>1074.6</ele>
        <time>2022-06-10T09:38:01Z</time>
      </trkpt>
      <trkpt lat="44.75493" lon="4.08681">
        <ele>1074.6</ele>
        <time>2022-06-10T09:38:02Z</time>
      </trkpt>
      <trkpt lat="44.75494" lon="4.08682">
        <ele>1074.6</ele>
        <time>2022-06-10T09:38:03Z</time>
      </trkpt>
      <trkpt lat="44.75495" lon="4.08683">
        <ele>1074.6</ele>
        <time>2022-06-10T09:38:04Z</time>
      </trkpt>
      <trkpt lat="44.75495" lon="4.08683">
        <ele>1074.6</ele>
        <time>2022-06-10T09:38:05Z</time>
      </trkpt>
      <trkpt lat="44.75495" lon="4.08683">
        <ele>1074.6</ele>
        <time>2022-06-10T09:38:06Z</time>
      </trkpt>
      <trkpt lat="44.75495" lon="4.08683">
        <ele>1074.6</ele>
        <time>2022-06-10T09:38:07Z</time>
      </trkpt>
      <trkpt lat="44.75495" lon="4.08683">
        <ele>1074.6</ele>
        <time>2022-06-10T09:38:08Z</time>
      </trkpt>
      <trkpt lat="44.75495" lon="4.08682">
        <ele>1074.6</ele>
        <time>2022-06-10T09:38:09Z</time>
      </trkpt>
      <trkpt lat="44.75495" lon="4.08682">
        <ele>1074.6</ele>
        <time>2022-06-10T09:38:10Z</time>
      </trkpt>
      <trkpt lat="44.75494" lon="4.08682">
        <ele>1074.6</ele>
        <time>2022-06-10T09:38:11Z</time>
      </trkpt>
      <trkpt lat="44.75494" lon="4.08682">
        <ele>1074.6</ele>
        <time>2022-06-10T09:38:12Z</time>
      </trkpt>
      <trkpt lat="44.75494" lon="4.08682">
        <ele>1074.6</ele>
        <time>2022-06-10T09:38:13Z</time>
      </trkpt>
      <trkpt lat="44.75494" lon="4.08682">
        <ele>1074.6</ele>
        <time>2022-06-10T09:38:14Z</time>
      </trkpt>
      <trkpt lat="44.75494" lon="4.08682">
        <ele>1074.6</ele>
        <time>2022-06-10T09:38:15Z</time>
      </trkpt>
      <trkpt lat="44.75494" lon="4.08682">
        <ele>1074.6</ele>
        <time>2022-06-10T09:38:16Z</time>
      </trkpt>
      <trkpt lat="44.75493" lon="4.08687">
        <ele>1074.7</ele>
        <time>2022-06-10T09:40:52Z</time>
      </trkpt>
      <trkpt lat="44.75495" lon="4.08689">
        <ele>1074.7</ele>
        <time>2022-06-10T09:40:53Z</time>
      </trkpt>
      <trkpt lat="44.755" lon="4.08691">
        <ele>1074.5</ele>
        <time>2022-06-10T09:40:56Z</time>
      </trkpt>
      <trkpt lat="44.75503" lon="4.08693">
        <ele>1074.3</ele>
        <time>2022-06-10T09:40:57Z</time>
      </trkpt>
      <trkpt lat="44.75512" lon="4.08701">
        <ele>1073.8</ele>
        <time>2022-06-10T09:40:59Z</time>
      </trkpt>
      <trkpt lat="44.75519" lon="4.08711">
        <ele>1073.3</ele>
        <time>2022-06-10T09:41:01Z</time>
      </trkpt>
      <trkpt lat="44.75524" lon="4.08717">
        <ele>1072.9</ele>
        <time>2022-06-10T09:41:02Z</time>
      </trkpt>
      <trkpt lat="44.75528" lon="4.08722">
        <ele>1072.6</ele>
        <time>2022-06-10T09:41:03Z</time>
      </trkpt>
      <trkpt lat="44.75531" lon="4.08729">
        <ele>1072.3</ele>
        <time>2022-06-10T09:41:04Z</time>
      </trkpt>
      <trkpt lat="44.75535" lon="4.08736">
        <ele>1071.9</ele>
        <time>2022-06-10T09:41:05Z</time>
      </trkpt>
      <trkpt lat="44.7554" lon="4.08744">
        <ele>1071.5</ele>
        <time>2022-06-10T09:41:06Z</time>
      </trkpt>
      <trkpt lat="44.75543" lon="4.08752">
        <ele>1071.2</ele>
        <time>2022-06-10T09:41:07Z</time>
      </trkpt>
      <trkpt lat="44.75547" lon="4.08761">
        <ele>1070.8</ele>
        <time>2022-06-10T09:41:08Z</time>
      </trkpt>
      <trkpt lat="44.7555" lon="4.0877">
        <ele>1070.4</ele>
        <time>2022-06-10T09:41:09Z</time>
      </trkpt>
      <trkpt lat="44.75552" lon="4.08781">
        <ele>1070</ele>
        <time>2022-06-10T09:41:10Z</time>
      </trkpt>
      <trkpt lat="44.75554" lon="4.08792">
        <ele>1069.6</ele>
        <time>2022-06-10T09:41:11Z</time>
      </trkpt>
      <trkpt lat="44.75555" lon="4.08802">
        <ele>1069.2</ele>
        <time>2022-06-10T09:41:12Z</time>
      </trkpt>
      <trkpt lat="44.75556" lon="4.08813">
        <ele>1068.8</ele>
        <time>2022-06-10T09:41:13Z</time>
      </trkpt>
      <trkpt lat="44.75557" lon="4.08824">
        <ele>1068.4</ele>
        <time>2022-06-10T09:41:14Z</time>
      </trkpt>
      <trkpt lat="44.75558" lon="4.08835">
        <ele>1068</ele>
        <time>2022-06-10T09:41:15Z</time>
      </trkpt>
      <trkpt lat="44.75559" lon="4.08847">
        <ele>1067.6</ele>
        <time>2022-06-10T09:41:16Z</time>
      </trkpt>
      <trkpt lat="44.7556" lon="4.08858">
        <ele>1067.1</ele>
        <time>2022-06-10T09:41:17Z</time>
      </trkpt>
      <trkpt lat="44.7556" lon="4.08869">
        <ele>1066.7</ele>
        <time>2022-06-10T09:41:18Z</time>
      </trkpt>
      <trkpt lat="44.7556" lon="4.08881">
        <ele>1066.3</ele>
        <time>2022-06-10T09:41:19Z</time>
      </trkpt>
      <trkpt lat="44.75561" lon="4.08892">
        <ele>1065.8</ele>
        <time>2022-06-10T09:41:20Z</time>
      </trkpt>
      <trkpt lat="44.75562" lon="4.08904">
        <ele>1065.4</ele>
        <time>2022-06-10T09:41:21Z</time>
      </trkpt>
      <trkpt lat="44.75563" lon="4.08915">
        <ele>1064.9</ele>
        <time>2022-06-10T09:41:22Z</time>
      </trkpt>
      <trkpt lat="44.75563" lon="4.08927">
        <ele>1064.4</ele>
        <time>2022-06-10T09:41:23Z</time>
      </trkpt>
      <trkpt lat="44.75564" lon="4.0894">
        <ele>1064</ele>
        <time>2022-06-10T09:41:24Z</time>
      </trkpt>
      <trkpt lat="44.75564" lon="4.08952">
        <ele>1063.6</ele>
        <time>2022-06-10T09:41:25Z</time>
      </trkpt>
      <trkpt lat="44.75565" lon="4.08964">
        <ele>1063.1</ele>
        <time>2022-06-10T09:41:26Z</time>
      </trkpt>
      <trkpt lat="44.75565" lon="4.08977">
        <ele>1062.7</ele>
        <time>2022-06-10T09:41:27Z</time>
      </trkpt>
      <trkpt lat="44.75565" lon="4.08989">
        <ele>1062.2</ele>
        <time>2022-06-10T09:41:28Z</time>
      </trkpt>
      <trkpt lat="44.75566" lon="4.09002">
        <ele>1061.8</ele>
        <time>2022-06-10T09:41:29Z</time>
      </trkpt>
      <trkpt lat="44.75566" lon="4.09015">
        <ele>1061.3</ele>
        <time>2022-06-10T09:41:30Z</time>
      </trkpt>
      <trkpt lat="44.75567" lon="4.09028">
        <ele>1060.9</ele>
        <time>2022-06-10T09:41:31Z</time>
      </trkpt>
      <trkpt lat="44.75567" lon="4.0904">
        <ele>1060.4</ele>
        <time>2022-06-10T09:41:32Z</time>
      </trkpt>
      <trkpt lat="44.75568" lon="4.09053">
        <ele>1060</ele>
        <time>2022-06-10T09:41:33Z</time>
      </trkpt>
      <trkpt lat="44.75568" lon="4.09065">
        <ele>1059.6</ele>
        <time>2022-06-10T09:41:34Z</time>
      </trkpt>
      <trkpt lat="44.75569" lon="4.09074">
        <ele>1059.5</ele>
        <time>2022-06-10T09:41:35Z</time>
      </trkpt>
      <trkpt lat="44.75569" lon="4.09083">
        <ele>1059.2</ele>
        <time>2022-06-10T09:41:36Z</time>
      </trkpt>
      <trkpt lat="44.75568" lon="4.09091">
        <ele>1058.8</ele>
        <time>2022-06-10T09:41:37Z</time>
      </trkpt>
      <trkpt lat="44.75566" lon="4.09099">
        <ele>1058.3</ele>
        <time>2022-06-10T09:41:38Z</time>
      </trkpt>
      <trkpt lat="44.75563" lon="4.09107">
        <ele>1057.8</ele>
        <time>2022-06-10T09:41:39Z</time>
      </trkpt>
      <trkpt lat="44.75558" lon="4.09114">
        <ele>1057.4</ele>
        <time>2022-06-10T09:41:40Z</time>
      </trkpt>
      <trkpt lat="44.75553" lon="4.0912">
        <ele>1056.9</ele>
        <time>2022-06-10T09:41:41Z</time>
      </trkpt>
      <trkpt lat="44.7555" lon="4.09127">
        <ele>1056.6</ele>
        <time>2022-06-10T09:41:42Z</time>
      </trkpt>
      <trkpt lat="44.75549" lon="4.09136">
        <ele>1056.5</ele>
        <time>2022-06-10T09:41:43Z</time>
      </trkpt>
      <trkpt lat="44.75549" lon="4.09145">
        <ele>1056.2</ele>
        <time>2022-06-10T09:41:44Z</time>
      </trkpt>
      <trkpt lat="44.75551" lon="4.09155">
        <ele>1055.8</ele>
        <time>2022-06-10T09:41:45Z</time>
      </trkpt>
      <trkpt lat="44.75552" lon="4.09165">
        <ele>1055.5</ele>
        <time>2022-06-10T09:41:46Z</time>
      </trkpt>
      <trkpt lat="44.75553" lon="4.09175">
        <ele>1055.2</ele>
        <time>2022-06-10T09:41:47Z</time>
      </trkpt>
      <trkpt lat="44.75554" lon="4.09184">
        <ele>1054.9</ele>
        <time>2022-06-10T09:41:48Z</time>
      </trkpt>
      <trkpt lat="44.75555" lon="4.09191">
        <ele>1054.7</ele>
        <time>2022-06-10T09:41:49Z</time>
      </trkpt>
      <trkpt lat="44.75554" lon="4.09197">
        <ele>1054.6</ele>
        <time>2022-06-10T09:41:50Z</time>
      </trkpt>
      <trkpt lat="44.75553" lon="4.09199">
        <ele>1054.5</ele>
        <time>2022-06-10T09:41:51Z</time>
      </trkpt>
      <trkpt lat="44.75551" lon="4.09204">
        <ele>1054.5</ele>
        <time>2022-06-10T09:41:52Z</time>
      </trkpt>
      <trkpt lat="44.75549" lon="4.09209">
        <ele>1054.4</ele>
        <time>2022-06-10T09:41:53Z</time>
      </trkpt>
      <trkpt lat="44.75549" lon="4.09216">
        <ele>1054.3</ele>
        <time>2022-06-10T09:41:54Z</time>
      </trkpt>
      <trkpt lat="44.75548" lon="4.09221">
        <ele>1054.2</ele>
        <time>2022-06-10T09:41:55Z</time>
      </trkpt>
      <trkpt lat="44.75548" lon="4.09229">
        <ele>1054</ele>
        <time>2022-06-10T09:41:56Z</time>
      </trkpt>
      <trkpt lat="44.75547" lon="4.09235">
        <ele>1053.9</ele>
        <time>2022-06-10T09:41:57Z</time>
      </trkpt>
      <trkpt lat="44.75547" lon="4.09246">
        <ele>1053.7</ele>
        <time>2022-06-10T09:41:58Z</time>
      </trkpt>
      <trkpt lat="44.75545" lon="4.09254">
        <ele>1053.5</ele>
        <time>2022-06-10T09:42:00Z</time>
      </trkpt>
      <trkpt lat="44.75544" lon="4.0926">
        <ele>1053.4</ele>
        <time>2022-06-10T09:42:01Z</time>
      </trkpt>
      <trkpt lat="44.75543" lon="4.09266">
        <ele>1053.3</ele>
        <time>2022-06-10T09:42:02Z</time>
      </trkpt>
      <trkpt lat="44.75541" lon="4.09272">
        <ele>1053.2</ele>
        <time>2022-06-10T09:42:03Z</time>
      </trkpt>
      <trkpt lat="44.7554" lon="4.09279">
        <ele>1053.1</ele>
        <time>2022-06-10T09:42:04Z</time>
      </trkpt>
      <trkpt lat="44.7554" lon="4.09285">
        <ele>1053.1</ele>
        <time>2022-06-10T09:42:05Z</time>
      </trkpt>
      <trkpt lat="44.75539" lon="4.09291">
        <ele>1053.6</ele>
        <time>2022-06-10T09:42:06Z</time>
      </trkpt>
      <trkpt lat="44.75537" lon="4.09297">
        <ele>1053.9</ele>
        <time>2022-06-10T09:42:07Z</time>
      </trkpt>
      <trkpt lat="44.75536" lon="4.09302">
        <ele>1054</ele>
        <time>2022-06-10T09:42:08Z</time>
      </trkpt>
      <trkpt lat="44.75534" lon="4.09307">
        <ele>1054</ele>
        <time>2022-06-10T09:42:09Z</time>
      </trkpt>
      <trkpt lat="44.75531" lon="4.0931">
        <ele>1054.1</ele>
        <time>2022-06-10T09:42:10Z</time>
      </trkpt>
      <trkpt lat="44.75528" lon="4.09314">
        <ele>1054.1</ele>
        <time>2022-06-10T09:42:11Z</time>
      </trkpt>
      <trkpt lat="44.75525" lon="4.09318">
        <ele>1054.2</ele>
        <time>2022-06-10T09:42:12Z</time>
      </trkpt>
      <trkpt lat="44.75523" lon="4.09323">
        <ele>1054.2</ele>
        <time>2022-06-10T09:42:13Z</time>
      </trkpt>
      <trkpt lat="44.75519" lon="4.0933">
        <ele>1054.3</ele>
        <time>2022-06-10T09:42:15Z</time>
      </trkpt>
      <trkpt lat="44.75516" lon="4.09334">
        <ele>1054.3</ele>
        <time>2022-06-10T09:42:16Z</time>
      </trkpt>
      <trkpt lat="44.7551" lon="4.09341">
        <ele>1054.4</ele>
        <time>2022-06-10T09:42:18Z</time>
      </trkpt>
      <trkpt lat="44.75506" lon="4.09344">
        <ele>1054.4</ele>
        <time>2022-06-10T09:42:19Z</time>
      </trkpt>
      <trkpt lat="44.75502" lon="4.09347">
        <ele>1054.5</ele>
        <time>2022-06-10T09:42:20Z</time>
      </trkpt>
      <trkpt lat="44.75495" lon="4.09349">
        <ele>1054.5</ele>
        <time>2022-06-10T09:42:21Z</time>
      </trkpt>
      <trkpt lat="44.7549" lon="4.09348">
        <ele>1054.5</ele>
        <time>2022-06-10T09:42:23Z</time>
      </trkpt>
      <trkpt lat="44.75486" lon="4.09349">
        <ele>1054.5</ele>
        <time>2022-06-10T09:42:24Z</time>
      </trkpt>
      <trkpt lat="44.7548" lon="4.0935">
        <ele>1054.5</ele>
        <time>2022-06-10T09:42:25Z</time>
      </trkpt>
      <trkpt lat="44.75474" lon="4.09353">
        <ele>1054.5</ele>
        <time>2022-06-10T09:42:27Z</time>
      </trkpt>
      <trkpt lat="44.7547" lon="4.09358">
        <ele>1054.5</ele>
        <time>2022-06-10T09:42:28Z</time>
      </trkpt>
      <trkpt lat="44.75468" lon="4.09363">
        <ele>1054.4</ele>
        <time>2022-06-10T09:42:29Z</time>
      </trkpt>
      <trkpt lat="44.75468" lon="4.09365">
        <ele>1054.4</ele>
        <time>2022-06-10T09:42:30Z</time>
      </trkpt>
      <trkpt lat="44.75467" lon="4.09367">
        <ele>1054.4</ele>
        <time>2022-06-10T09:42:31Z</time>
      </trkpt>
      <trkpt lat="44.75465" lon="4.09379">
        <ele>1054.3</ele>
        <time>2022-06-10T09:42:32Z</time>
      </trkpt>
      <trkpt lat="44.75462" lon="4.09386">
        <ele>1054.3</ele>
        <time>2022-06-10T09:42:33Z</time>
      </trkpt>
      <trkpt lat="44.7546" lon="4.09393">
        <ele>1054.2</ele>
        <time>2022-06-10T09:42:34Z</time>
      </trkpt>
      <trkpt lat="44.75458" lon="4.09399">
        <ele>1054.2</ele>
        <time>2022-06-10T09:42:35Z</time>
      </trkpt>
      <trkpt lat="44.75456" lon="4.09405">
        <ele>1054.2</ele>
        <time>2022-06-10T09:42:36Z</time>
      </trkpt>
      <trkpt lat="44.75455" lon="4.09412">
        <ele>1054.1</ele>
        <time>2022-06-10T09:42:37Z</time>
      </trkpt>
      <trkpt lat="44.75453" lon="4.09419">
        <ele>1054.1</ele>
        <time>2022-06-10T09:42:38Z</time>
      </trkpt>
      <trkpt lat="44.75451" lon="4.09425">
        <ele>1054.1</ele>
        <time>2022-06-10T09:42:39Z</time>
      </trkpt>
      <trkpt lat="44.75448" lon="4.09432">
        <ele>1054.1</ele>
        <time>2022-06-10T09:42:40Z</time>
      </trkpt>
      <trkpt lat="44.75446" lon="4.09438">
        <ele>1054.1</ele>
        <time>2022-06-10T09:42:41Z</time>
      </trkpt>
      <trkpt lat="44.75444" lon="4.09444">
        <ele>1054.2</ele>
        <time>2022-06-10T09:42:42Z</time>
      </trkpt>
      <trkpt lat="44.75442" lon="4.09451">
        <ele>1054.2</ele>
        <time>2022-06-10T09:42:43Z</time>
      </trkpt>
      <trkpt lat="44.7544" lon="4.09456">
        <ele>1054.3</ele>
        <time>2022-06-10T09:42:44Z</time>
      </trkpt>
      <trkpt lat="44.75438" lon="4.09462">
        <ele>1054.3</ele>
        <time>2022-06-10T09:42:45Z</time>
      </trkpt>
      <trkpt lat="44.75436" lon="4.09469">
        <ele>1054.4</ele>
        <time>2022-06-10T09:42:46Z</time>
      </trkpt>
      <trkpt lat="44.75434" lon="4.09476">
        <ele>1054.4</ele>
        <time>2022-06-10T09:42:47Z</time>
      </trkpt>
      <trkpt lat="44.75432" lon="4.09481">
        <ele>1054.5</ele>
        <time>2022-06-10T09:42:48Z</time>
      </trkpt>
      <trkpt lat="44.75429" lon="4.09486">
        <ele>1054.5</ele>
        <time>2022-06-10T09:42:49Z</time>
      </trkpt>
      <trkpt lat="44.75427" lon="4.09492">
        <ele>1054.6</ele>
        <time>2022-06-10T09:42:50Z</time>
      </trkpt>
      <trkpt lat="44.75426" lon="4.09497">
        <ele>1054.6</ele>
        <time>2022-06-10T09:42:51Z</time>
      </trkpt>
      <trkpt lat="44.75425" lon="4.09499">
        <ele>1054.6</ele>
        <time>2022-06-10T09:42:52Z</time>
      </trkpt>
      <trkpt lat="44.75424" lon="4.09505">
        <ele>1054.7</ele>
        <time>2022-06-10T09:42:53Z</time>
      </trkpt>
      <trkpt lat="44.75422" lon="4.0951">
        <ele>1054.7</ele>
        <time>2022-06-10T09:42:54Z</time>
      </trkpt>
      <trkpt lat="44.75421" lon="4.09515">
        <ele>1054.8</ele>
        <time>2022-06-10T09:42:55Z</time>
      </trkpt>
      <trkpt lat="44.75418" lon="4.09521">
        <ele>1054.8</ele>
        <time>2022-06-10T09:42:56Z</time>
      </trkpt>
      <trkpt lat="44.75417" lon="4.09523">
        <ele>1054.9</ele>
        <time>2022-06-10T09:42:57Z</time>
      </trkpt>
      <trkpt lat="44.75415" lon="4.09528">
        <ele>1055</ele>
        <time>2022-06-10T09:42:58Z</time>
      </trkpt>
      <trkpt lat="44.75414" lon="4.09534">
        <ele>1055</ele>
        <time>2022-06-10T09:42:59Z</time>
      </trkpt>
      <trkpt lat="44.75415" lon="4.09538">
        <ele>1055.1</ele>
        <time>2022-06-10T09:43:00Z</time>
      </trkpt>
      <trkpt lat="44.75417" lon="4.09543">
        <ele>1055.2</ele>
        <time>2022-06-10T09:43:01Z</time>
      </trkpt>
      <trkpt lat="44.75419" lon="4.09547">
        <ele>1055.3</ele>
        <time>2022-06-10T09:43:02Z</time>
      </trkpt>
      <trkpt lat="44.7542" lon="4.09555">
        <ele>1055.4</ele>
        <time>2022-06-10T09:43:03Z</time>
      </trkpt>
      <trkpt lat="44.75422" lon="4.09559">
        <ele>1055.5</ele>
        <time>2022-06-10T09:43:05Z</time>
      </trkpt>
      <trkpt lat="44.75423" lon="4.09562">
        <ele>1055.6</ele>
        <time>2022-06-10T09:43:06Z</time>
      </trkpt>
      <trkpt lat="44.75425" lon="4.09567">
        <ele>1055.7</ele>
        <time>2022-06-10T09:43:07Z</time>
      </trkpt>
      <trkpt lat="44.75427" lon="4.0957">
        <ele>1055.8</ele>
        <time>2022-06-10T09:43:08Z</time>
      </trkpt>
      <trkpt lat="44.7543" lon="4.09575">
        <ele>1055.9</ele>
        <time>2022-06-10T09:43:09Z</time>
      </trkpt>
      <trkpt lat="44.75433" lon="4.09579">
        <ele>1056</ele>
        <time>2022-06-10T09:43:11Z</time>
      </trkpt>
      <trkpt lat="44.75438" lon="4.09586">
        <ele>1056.3</ele>
        <time>2022-06-10T09:43:13Z</time>
      </trkpt>
      <trkpt lat="44.75442" lon="4.09593">
        <ele>1056.4</ele>
        <time>2022-06-10T09:43:14Z</time>
      </trkpt>
      <trkpt lat="44.75445" lon="4.09597">
        <ele>1056.5</ele>
        <time>2022-06-10T09:43:16Z</time>
      </trkpt>
      <trkpt lat="44.75447" lon="4.096">
        <ele>1056.6</ele>
        <time>2022-06-10T09:43:17Z</time>
      </trkpt>
      <trkpt lat="44.7545" lon="4.09604">
        <ele>1056.7</ele>
        <time>2022-06-10T09:43:18Z</time>
      </trkpt>
      <trkpt lat="44.75453" lon="4.09607">
        <ele>1056.8</ele>
        <time>2022-06-10T09:43:19Z</time>
      </trkpt>
      <trkpt lat="44.75459" lon="4.09614">
        <ele>1056.9</ele>
        <time>2022-06-10T09:43:21Z</time>
      </trkpt>
      <trkpt lat="44.75462" lon="4.09618">
        <ele>1057</ele>
        <time>2022-06-10T09:43:22Z</time>
      </trkpt>
      <trkpt lat="44.75464" lon="4.09622">
        <ele>1057.1</ele>
        <time>2022-06-10T09:43:23Z</time>
      </trkpt>
      <trkpt lat="44.75465" lon="4.09628">
        <ele>1057.2</ele>
        <time>2022-06-10T09:43:24Z</time>
      </trkpt>
      <trkpt lat="44.75466" lon="4.09633">
        <ele>1057.2</ele>
        <time>2022-06-10T09:43:25Z</time>
      </trkpt>
      <trkpt lat="44.75467" lon="4.09639">
        <ele>1057.2</ele>
        <time>2022-06-10T09:43:26Z</time>
      </trkpt>
      <trkpt lat="44.75467" lon="4.09644">
        <ele>1057.2</ele>
        <time>2022-06-10T09:43:27Z</time>
      </trkpt>
      <trkpt lat="44.75467" lon="4.09649">
        <ele>1057.3</ele>
        <time>2022-06-10T09:43:28Z</time>
      </trkpt>
      <trkpt lat="44.75465" lon="4.09654">
        <ele>1057.3</ele>
        <time>2022-06-10T09:43:29Z</time>
      </trkpt>
      <trkpt lat="44.75462" lon="4.09661">
        <ele>1057.4</ele>
        <time>2022-06-10T09:43:31Z</time>
      </trkpt>
      <trkpt lat="44.7546" lon="4.09665">
        <ele>1057.5</ele>
        <time>2022-06-10T09:43:32Z</time>
      </trkpt>
      <trkpt lat="44.75459" lon="4.09669">
        <ele>1057.5</ele>
        <time>2022-06-10T09:43:33Z</time>
      </trkpt>
      <trkpt lat="44.75457" lon="4.09672">
        <ele>1057.6</ele>
        <time>2022-06-10T09:43:34Z</time>
      </trkpt>
      <trkpt lat="44.75455" lon="4.09678">
        <ele>1057.7</ele>
        <time>2022-06-10T09:43:35Z</time>
      </trkpt>
      <trkpt lat="44.75453" lon="4.09683">
        <ele>1057.8</ele>
        <time>2022-06-10T09:43:37Z</time>
      </trkpt>
      <trkpt lat="44.75452" lon="4.09687">
        <ele>1057.9</ele>
        <time>2022-06-10T09:43:38Z</time>
      </trkpt>
      <trkpt lat="44.75451" lon="4.09691">
        <ele>1058</ele>
        <time>2022-06-10T09:43:39Z</time>
      </trkpt>
      <trkpt lat="44.7545" lon="4.09695">
        <ele>1058.1</ele>
        <time>2022-06-10T09:43:40Z</time>
      </trkpt>
      <trkpt lat="44.75449" lon="4.09699">
        <ele>1058.1</ele>
        <time>2022-06-10T09:43:41Z</time>
      </trkpt>
      <trkpt lat="44.75447" lon="4.09702">
        <ele>1058.2</ele>
        <time>2022-06-10T09:43:42Z</time>
      </trkpt>
      <trkpt lat="44.75446" lon="4.09707">
        <ele>1058.3</ele>
        <time>2022-06-10T09:43:43Z</time>
      </trkpt>
      <trkpt lat="44.75445" lon="4.09709">
        <ele>1058.4</ele>
        <time>2022-06-10T09:43:44Z</time>
      </trkpt>
      <trkpt lat="44.75444" lon="4.09713">
        <ele>1058.5</ele>
        <time>2022-06-10T09:43:45Z</time>
      </trkpt>
      <trkpt lat="44.75443" lon="4.09716">
        <ele>1058.5</ele>
        <time>2022-06-10T09:43:46Z</time>
      </trkpt>
      <trkpt lat="44.75441" lon="4.09721">
        <ele>1058.7</ele>
        <time>2022-06-10T09:43:47Z</time>
      </trkpt>
      <trkpt lat="44.75441" lon="4.09722">
        <ele>1058.7</ele>
        <time>2022-06-10T09:43:48Z</time>
      </trkpt>
      <trkpt lat="44.7544" lon="4.09724">
        <ele>1058.7</ele>
        <time>2022-06-10T09:43:49Z</time>
      </trkpt>
      <trkpt lat="44.7544" lon="4.09724">
        <ele>1058.7</ele>
        <time>2022-06-10T09:43:51Z</time>
      </trkpt>
      <trkpt lat="44.7544" lon="4.09723">
        <ele>1058.8</ele>
        <time>2022-06-10T09:43:52Z</time>
      </trkpt>
      <trkpt lat="44.75441" lon="4.09722">
        <ele>1058.8</ele>
        <time>2022-06-10T09:43:53Z</time>
      </trkpt>
      <trkpt lat="44.75441" lon="4.09722">
        <ele>1058.8</ele>
        <time>2022-06-10T09:43:54Z</time>
      </trkpt>
      <trkpt lat="44.75441" lon="4.09722">
        <ele>1058.8</ele>
        <time>2022-06-10T09:43:55Z</time>
      </trkpt>
      <trkpt lat="44.75441" lon="4.09722">
        <ele>1058.8</ele>
        <time>2022-06-10T09:43:56Z</time>
      </trkpt>
      <trkpt lat="44.75441" lon="4.09722">
        <ele>1058.8</ele>
        <time>2022-06-10T09:43:57Z</time>
      </trkpt>
      <trkpt lat="44.75441" lon="4.09722">
        <ele>1058.8</ele>
        <time>2022-06-10T09:43:58Z</time>
      </trkpt>
      <trkpt lat="44.75441" lon="4.09722">
        <ele>1058.8</ele>
        <time>2022-06-10T09:43:59Z</time>
      </trkpt>
      <trkpt lat="44.75441" lon="4.09722">
        <ele>1058.8</ele>
        <time>2022-06-10T09:44:00Z</time>
      </trkpt>
      <trkpt lat="44.75441" lon="4.09722">
        <ele>1058.8</ele>
        <time>2022-06-10T09:44:02Z</time>
      </trkpt>
      <trkpt lat="44.75441" lon="4.09722">
        <ele>1058.8</ele>
        <time>2022-06-10T09:44:03Z</time>
      </trkpt>
      <trkpt lat="44.75441" lon="4.09722">
        <ele>1058.8</ele>
        <time>2022-06-10T09:44:04Z</time>
      </trkpt>
      <trkpt lat="44.75441" lon="4.09722">
        <ele>1058.8</ele>
        <time>2022-06-10T09:44:05Z</time>
      </trkpt>
      <trkpt lat="44.75441" lon="4.09722">
        <ele>1058.8</ele>
        <time>2022-06-10T09:44:06Z</time>
      </trkpt>
      <trkpt lat="44.75437" lon="4.09726">
        <ele>1059</ele>
        <time>2022-06-10T09:45:39Z</time>
      </trkpt>
      <trkpt lat="44.75437" lon="4.09731">
        <ele>1059.1</ele>
        <time>2022-06-10T09:45:41Z</time>
      </trkpt>
      <trkpt lat="44.75436" lon="4.09736">
        <ele>1059.3</ele>
        <time>2022-06-10T09:45:42Z</time>
      </trkpt>
      <trkpt lat="44.75435" lon="4.0974">
        <ele>1059.4</ele>
        <time>2022-06-10T09:45:43Z</time>
      </trkpt>
      <trkpt lat="44.75433" lon="4.09744">
        <ele>1059.5</ele>
        <time>2022-06-10T09:45:44Z</time>
      </trkpt>
      <trkpt lat="44.75432" lon="4.09749">
        <ele>1059.6</ele>
        <time>2022-06-10T09:45:45Z</time>
      </trkpt>
      <trkpt lat="44.75431" lon="4.09754">
        <ele>1059.7</ele>
        <time>2022-06-10T09:45:46Z</time>
      </trkpt>
      <trkpt lat="44.7543" lon="4.09758">
        <ele>1059.8</ele>
        <time>2022-06-10T09:45:48Z</time>
      </trkpt>
      <trkpt lat="44.75428" lon="4.09763">
        <ele>1060</ele>
        <time>2022-06-10T09:45:49Z</time>
      </trkpt>
      <trkpt lat="44.75427" lon="4.09767">
        <ele>1060.1</ele>
        <time>2022-06-10T09:45:50Z</time>
      </trkpt>
      <trkpt lat="44.75425" lon="4.09772">
        <ele>1060.3</ele>
        <time>2022-06-10T09:45:51Z</time>
      </trkpt>
      <trkpt lat="44.75421" lon="4.0978">
        <ele>1060.5</ele>
        <time>2022-06-10T09:45:53Z</time>
      </trkpt>
      <trkpt lat="44.7542" lon="4.09784">
        <ele>1060.7</ele>
        <time>2022-06-10T09:45:55Z</time>
      </trkpt>
      <trkpt lat="44.75418" lon="4.09788">
        <ele>1060.8</ele>
        <time>2022-06-10T09:45:56Z</time>
      </trkpt>
      <trkpt lat="44.75417" lon="4.09792">
        <ele>1061</ele>
        <time>2022-06-10T09:45:57Z</time>
      </trkpt>
      <trkpt lat="44.75416" lon="4.09796">
        <ele>1061.1</ele>
        <time>2022-06-10T09:45:58Z</time>
      </trkpt>
      <trkpt lat="44.75414" lon="4.098">
        <ele>1061.2</ele>
        <time>2022-06-10T09:45:59Z</time>
      </trkpt>
      <trkpt lat="44.75412" lon="4.09804">
        <ele>1061.4</ele>
        <time>2022-06-10T09:46:00Z</time>
      </trkpt>
      <trkpt lat="44.75411" lon="4.09806">
        <ele>1061.5</ele>
        <time>2022-06-10T09:46:01Z</time>
      </trkpt>
      <trkpt lat="44.7541" lon="4.09809">
        <ele>1061.6</ele>
        <time>2022-06-10T09:46:02Z</time>
      </trkpt>
      <trkpt lat="44.75408" lon="4.09813">
        <ele>1061.7</ele>
        <time>2022-06-10T09:46:03Z</time>
      </trkpt>
      <trkpt lat="44.75406" lon="4.09817">
        <ele>1061.9</ele>
        <time>2022-06-10T09:46:04Z</time>
      </trkpt>
      <trkpt lat="44.75405" lon="4.09819">
        <ele>1061.9</ele>
        <time>2022-06-10T09:46:05Z</time>
      </trkpt>
      <trkpt lat="44.75403" lon="4.09824">
        <ele>1062.1</ele>
        <time>2022-06-10T09:46:06Z</time>
      </trkpt>
      <trkpt lat="44.75402" lon="4.09826">
        <ele>1062.2</ele>
        <time>2022-06-10T09:46:07Z</time>
      </trkpt>
      <trkpt lat="44.75401" lon="4.09829">
        <ele>1062.3</ele>
        <time>2022-06-10T09:46:08Z</time>
      </trkpt>
      <trkpt lat="44.754" lon="4.09833">
        <ele>1062.4</ele>
        <time>2022-06-10T09:46:09Z</time>
      </trkpt>
      <trkpt lat="44.75399" lon="4.09837">
        <ele>1062.6</ele>
        <time>2022-06-10T09:46:10Z</time>
      </trkpt>
      <trkpt lat="44.75397" lon="4.0984">
        <ele>1062.7</ele>
        <time>2022-06-10T09:46:11Z</time>
      </trkpt>
      <trkpt lat="44.75395" lon="4.09843">
        <ele>1062.8</ele>
        <time>2022-06-10T09:46:12Z</time>
      </trkpt>
      <trkpt lat="44.75393" lon="4.09846">
        <ele>1063</ele>
        <time>2022-06-10T09:46:13Z</time>
      </trkpt>
      <trkpt lat="44.75392" lon="4.09849">
        <ele>1063.1</ele>
        <time>2022-06-10T09:46:14Z</time>
      </trkpt>
      <trkpt lat="44.7539" lon="4.09853">
        <ele>1063.2</ele>
        <time>2022-06-10T09:46:15Z</time>
      </trkpt>
      <trkpt lat="44.75388" lon="4.09857">
        <ele>1063.4</ele>
        <time>2022-06-10T09:46:16Z</time>
      </trkpt>
      <trkpt lat="44.75387" lon="4.09858">
        <ele>1063.4</ele>
        <time>2022-06-10T09:46:17Z</time>
      </trkpt>
      <trkpt lat="44.75386" lon="4.09862">
        <ele>1063.6</ele>
        <time>2022-06-10T09:46:18Z</time>
      </trkpt>
      <trkpt lat="44.75385" lon="4.09863">
        <ele>1063.6</ele>
        <time>2022-06-10T09:46:19Z</time>
      </trkpt>
      <trkpt lat="44.75382" lon="4.09867">
        <ele>1063.8</ele>
        <time>2022-06-10T09:46:20Z</time>
      </trkpt>
      <trkpt lat="44.75381" lon="4.09868">
        <ele>1063.8</ele>
        <time>2022-06-10T09:46:21Z</time>
      </trkpt>
      <trkpt lat="44.7538" lon="4.09872">
        <ele>1064</ele>
        <time>2022-06-10T09:46:22Z</time>
      </trkpt>
      <trkpt lat="44.75379" lon="4.09875">
        <ele>1064.1</ele>
        <time>2022-06-10T09:46:23Z</time>
      </trkpt>
      <trkpt lat="44.75377" lon="4.09879">
        <ele>1064.2</ele>
        <time>2022-06-10T09:46:24Z</time>
      </trkpt>
      <trkpt lat="44.75375" lon="4.09882">
        <ele>1064.3</ele>
        <time>2022-06-10T09:46:25Z</time>
      </trkpt>
      <trkpt lat="44.75374" lon="4.09885">
        <ele>1064.4</ele>
        <time>2022-06-10T09:46:26Z</time>
      </trkpt>
      <trkpt lat="44.75372" lon="4.09889">
        <ele>1064.6</ele>
        <time>2022-06-10T09:46:27Z</time>
      </trkpt>
      <trkpt lat="44.7537" lon="4.09893">
        <ele>1064.7</ele>
        <time>2022-06-10T09:46:28Z</time>
      </trkpt>
      <trkpt lat="44.75369" lon="4.09895">
        <ele>1064.8</ele>
        <time>2022-06-10T09:46:29Z</time>
      </trkpt>
      <trkpt lat="44.75368" lon="4.09898">
        <ele>1064.9</ele>
        <time>2022-06-10T09:46:30Z</time>
      </trkpt>
      <trkpt lat="44.75366" lon="4.09902">
        <ele>1065.1</ele>
        <time>2022-06-10T09:46:31Z</time>
      </trkpt>
      <trkpt lat="44.75365" lon="4.09904">
        <ele>1065.1</ele>
        <time>2022-06-10T09:46:32Z</time>
      </trkpt>
      <trkpt lat="44.75363" lon="4.09909">
        <ele>1065.3</ele>
        <time>2022-06-10T09:46:33Z</time>
      </trkpt>
      <trkpt lat="44.75362" lon="4.0991">
        <ele>1065.3</ele>
        <time>2022-06-10T09:46:34Z</time>
      </trkpt>
      <trkpt lat="44.7536" lon="4.09915">
        <ele>1065.5</ele>
        <time>2022-06-10T09:46:35Z</time>
      </trkpt>
      <trkpt lat="44.75359" lon="4.09917">
        <ele>1065.6</ele>
        <time>2022-06-10T09:46:36Z</time>
      </trkpt>
      <trkpt lat="44.75357" lon="4.09921">
        <ele>1065.7</ele>
        <time>2022-06-10T09:46:37Z</time>
      </trkpt>
      <trkpt lat="44.75356" lon="4.09924">
        <ele>1065.8</ele>
        <time>2022-06-10T09:46:39Z</time>
      </trkpt>
      <trkpt lat="44.75353" lon="4.0993">
        <ele>1066</ele>
        <time>2022-06-10T09:46:40Z</time>
      </trkpt>
      <trkpt lat="44.75351" lon="4.09933">
        <ele>1066.1</ele>
        <time>2022-06-10T09:46:42Z</time>
      </trkpt>
      <trkpt lat="44.75349" lon="4.09936">
        <ele>1066.2</ele>
        <time>2022-06-10T09:46:43Z</time>
      </trkpt>
      <trkpt lat="44.75347" lon="4.09942">
        <ele>1066.4</ele>
        <time>2022-06-10T09:46:45Z</time>
      </trkpt>
      <trkpt lat="44.75344" lon="4.09947">
        <ele>1066.6</ele>
        <time>2022-06-10T09:46:46Z</time>
      </trkpt>
      <trkpt lat="44.75344" lon="4.09948">
        <ele>1066.7</ele>
        <time>2022-06-10T09:46:47Z</time>
      </trkpt>
      <trkpt lat="44.75342" lon="4.09952">
        <ele>1066.8</ele>
        <time>2022-06-10T09:46:48Z</time>
      </trkpt>
      <trkpt lat="44.75341" lon="4.09956">
        <ele>1066.9</ele>
        <time>2022-06-10T09:46:49Z</time>
      </trkpt>
      <trkpt lat="44.75338" lon="4.09961">
        <ele>1067.1</ele>
        <time>2022-06-10T09:46:50Z</time>
      </trkpt>
      <trkpt lat="44.75337" lon="4.09962">
        <ele>1067.2</ele>
        <time>2022-06-10T09:46:51Z</time>
      </trkpt>
      <trkpt lat="44.75334" lon="4.0997">
        <ele>1067.4</ele>
        <time>2022-06-10T09:46:53Z</time>
      </trkpt>
      <trkpt lat="44.75332" lon="4.09973">
        <ele>1067.5</ele>
        <time>2022-06-10T09:46:55Z</time>
      </trkpt>
      <trkpt lat="44.75331" lon="4.09976">
        <ele>1067.6</ele>
        <time>2022-06-10T09:46:56Z</time>
      </trkpt>
      <trkpt lat="44.75329" lon="4.0998">
        <ele>1067.7</ele>
        <time>2022-06-10T09:46:57Z</time>
      </trkpt>
      <trkpt lat="44.75327" lon="4.09986">
        <ele>1067.9</ele>
        <time>2022-06-10T09:46:58Z</time>
      </trkpt>
      <trkpt lat="44.75326" lon="4.09989">
        <ele>1068</ele>
        <time>2022-06-10T09:46:59Z</time>
      </trkpt>
      <trkpt lat="44.75323" lon="4.09994">
        <ele>1068.2</ele>
        <time>2022-06-10T09:47:01Z</time>
      </trkpt>
      <trkpt lat="44.75321" lon="4.09997">
        <ele>1068.3</ele>
        <time>2022-06-10T09:47:02Z</time>
      </trkpt>
      <trkpt lat="44.7532" lon="4.1">
        <ele>1068.4</ele>
        <time>2022-06-10T09:47:03Z</time>
      </trkpt>
      <trkpt lat="44.75319" lon="4.10004">
        <ele>1068.5</ele>
        <time>2022-06-10T09:47:04Z</time>
      </trkpt>
      <trkpt lat="44.75317" lon="4.10008">
        <ele>1068.6</ele>
        <time>2022-06-10T09:47:05Z</time>
      </trkpt>
      <trkpt lat="44.75316" lon="4.10012">
        <ele>1068.8</ele>
        <time>2022-06-10T09:47:06Z</time>
      </trkpt>
      <trkpt lat="44.75315" lon="4.10017">
        <ele>1068.9</ele>
        <time>2022-06-10T09:47:07Z</time>
      </trkpt>
      <trkpt lat="44.75314" lon="4.10018">
        <ele>1069</ele>
        <time>2022-06-10T09:47:08Z</time>
      </trkpt>
      <trkpt lat="44.75312" lon="4.10023">
        <ele>1069.1</ele>
        <time>2022-06-10T09:47:09Z</time>
      </trkpt>
      <trkpt lat="44.75311" lon="4.10025">
        <ele>1069.2</ele>
        <time>2022-06-10T09:47:10Z</time>
      </trkpt>
      <trkpt lat="44.7531" lon="4.10028">
        <ele>1069.3</ele>
        <time>2022-06-10T09:47:11Z</time>
      </trkpt>
      <trkpt lat="44.75309" lon="4.10032">
        <ele>1069.4</ele>
        <time>2022-06-10T09:47:12Z</time>
      </trkpt>
      <trkpt lat="44.75308" lon="4.10036">
        <ele>1069.6</ele>
        <time>2022-06-10T09:47:13Z</time>
      </trkpt>
      <trkpt lat="44.75307" lon="4.1004">
        <ele>1069.7</ele>
        <time>2022-06-10T09:47:14Z</time>
      </trkpt>
      <trkpt lat="44.75304" lon="4.10047">
        <ele>1069.9</ele>
        <time>2022-06-10T09:47:15Z</time>
      </trkpt>
      <trkpt lat="44.75304" lon="4.10051">
        <ele>1070</ele>
        <time>2022-06-10T09:47:17Z</time>
      </trkpt>
      <trkpt lat="44.75303" lon="4.10055">
        <ele>1070.1</ele>
        <time>2022-06-10T09:47:18Z</time>
      </trkpt>
      <trkpt lat="44.75301" lon="4.1006">
        <ele>1070.3</ele>
        <time>2022-06-10T09:47:20Z</time>
      </trkpt>
      <trkpt lat="44.753" lon="4.10064">
        <ele>1070.4</ele>
        <time>2022-06-10T09:47:21Z</time>
      </trkpt>
      <trkpt lat="44.75298" lon="4.10072">
        <ele>1070.6</ele>
        <time>2022-06-10T09:47:23Z</time>
      </trkpt>
      <trkpt lat="44.75297" lon="4.10075">
        <ele>1070.8</ele>
        <time>2022-06-10T09:47:24Z</time>
      </trkpt>
      <trkpt lat="44.75296" lon="4.10081">
        <ele>1070.9</ele>
        <time>2022-06-10T09:47:25Z</time>
      </trkpt>
      <trkpt lat="44.75296" lon="4.10082">
        <ele>1071</ele>
        <time>2022-06-10T09:47:26Z</time>
      </trkpt>
      <trkpt lat="44.75295" lon="4.10087">
        <ele>1071.1</ele>
        <time>2022-06-10T09:47:27Z</time>
      </trkpt>
      <trkpt lat="44.75294" lon="4.1009">
        <ele>1071.2</ele>
        <time>2022-06-10T09:47:28Z</time>
      </trkpt>
      <trkpt lat="44.75293" lon="4.10096">
        <ele>1071.4</ele>
        <time>2022-06-10T09:47:29Z</time>
      </trkpt>
      <trkpt lat="44.75293" lon="4.10098">
        <ele>1071.5</ele>
        <time>2022-06-10T09:47:30Z</time>
      </trkpt>
      <trkpt lat="44.75292" lon="4.10102">
        <ele>1071.6</ele>
        <time>2022-06-10T09:47:31Z</time>
      </trkpt>
      <trkpt lat="44.75291" lon="4.10106">
        <ele>1071.7</ele>
        <time>2022-06-10T09:47:32Z</time>
      </trkpt>
      <trkpt lat="44.7529" lon="4.1011">
        <ele>1071.8</ele>
        <time>2022-06-10T09:47:33Z</time>
      </trkpt>
      <trkpt lat="44.75289" lon="4.10118">
        <ele>1072</ele>
        <time>2022-06-10T09:47:35Z</time>
      </trkpt>
      <trkpt lat="44.75288" lon="4.10121">
        <ele>1072.1</ele>
        <time>2022-06-10T09:47:36Z</time>
      </trkpt>
      <trkpt lat="44.75287" lon="4.10126">
        <ele>1072.3</ele>
        <time>2022-06-10T09:47:37Z</time>
      </trkpt>
      <trkpt lat="44.75286" lon="4.1013">
        <ele>1072.4</ele>
        <time>2022-06-10T09:47:38Z</time>
      </trkpt>
      <trkpt lat="44.75286" lon="4.10134">
        <ele>1072.5</ele>
        <time>2022-06-10T09:47:39Z</time>
      </trkpt>
      <trkpt lat="44.75285" lon="4.10138">
        <ele>1072.6</ele>
        <time>2022-06-10T09:47:40Z</time>
      </trkpt>
      <trkpt lat="44.75283" lon="4.10143">
        <ele>1072.7</ele>
        <time>2022-06-10T09:47:41Z</time>
      </trkpt>
      <trkpt lat="44.75283" lon="4.10145">
        <ele>1072.8</ele>
        <time>2022-06-10T09:47:42Z</time>
      </trkpt>
      <trkpt lat="44.75282" lon="4.10148">
        <ele>1072.9</ele>
        <time>2022-06-10T09:47:43Z</time>
      </trkpt>
      <trkpt lat="44.7528" lon="4.10156">
        <ele>1073.1</ele>
        <time>2022-06-10T09:47:44Z</time>
      </trkpt>
      <trkpt lat="44.75279" lon="4.1016">
        <ele>1073.2</ele>
        <time>2022-06-10T09:47:46Z</time>
      </trkpt>
      <trkpt lat="44.75279" lon="4.10164">
        <ele>1073.3</ele>
        <time>2022-06-10T09:47:47Z</time>
      </trkpt>
      <trkpt lat="44.75278" lon="4.10168">
        <ele>1073.4</ele>
        <time>2022-06-10T09:47:48Z</time>
      </trkpt>
      <trkpt lat="44.75277" lon="4.10173">
        <ele>1073.5</ele>
        <time>2022-06-10T09:47:49Z</time>
      </trkpt>
      <trkpt lat="44.75276" lon="4.10174">
        <ele>1073.6</ele>
        <time>2022-06-10T09:47:50Z</time>
      </trkpt>
      <trkpt lat="44.75275" lon="4.1018">
        <ele>1073.8</ele>
        <time>2022-06-10T09:47:51Z</time>
      </trkpt>
      <trkpt lat="44.75275" lon="4.10182">
        <ele>1073.9</ele>
        <time>2022-06-10T09:47:52Z</time>
      </trkpt>
      <trkpt lat="44.75274" lon="4.10186">
        <ele>1074</ele>
        <time>2022-06-10T09:47:53Z</time>
      </trkpt>
      <trkpt lat="44.75273" lon="4.10192">
        <ele>1074.2</ele>
        <time>2022-06-10T09:47:54Z</time>
      </trkpt>
      <trkpt lat="44.75273" lon="4.10193">
        <ele>1074.2</ele>
        <time>2022-06-10T09:47:55Z</time>
      </trkpt>
      <trkpt lat="44.75272" lon="4.10199">
        <ele>1074.4</ele>
        <time>2022-06-10T09:47:56Z</time>
      </trkpt>
      <trkpt lat="44.75271" lon="4.10201">
        <ele>1074.5</ele>
        <time>2022-06-10T09:47:57Z</time>
      </trkpt>
      <trkpt lat="44.75271" lon="4.10204">
        <ele>1074.6</ele>
        <time>2022-06-10T09:47:58Z</time>
      </trkpt>
      <trkpt lat="44.75269" lon="4.1021">
        <ele>1074.8</ele>
        <time>2022-06-10T09:47:59Z</time>
      </trkpt>
      <trkpt lat="44.75268" lon="4.10211">
        <ele>1074.8</ele>
        <time>2022-06-10T09:48:00Z</time>
      </trkpt>
      <trkpt lat="44.75267" lon="4.10215">
        <ele>1075</ele>
        <time>2022-06-10T09:48:01Z</time>
      </trkpt>
      <trkpt lat="44.75267" lon="4.10219">
        <ele>1075.1</ele>
        <time>2022-06-10T09:48:02Z</time>
      </trkpt>
      <trkpt lat="44.75266" lon="4.10224">
        <ele>1075.2</ele>
        <time>2022-06-10T09:48:03Z</time>
      </trkpt>
      <trkpt lat="44.75266" lon="4.10227">
        <ele>1075.3</ele>
        <time>2022-06-10T09:48:04Z</time>
      </trkpt>
      <trkpt lat="44.75264" lon="4.10233">
        <ele>1075.5</ele>
        <time>2022-06-10T09:48:05Z</time>
      </trkpt>
      <trkpt lat="44.75264" lon="4.10234">
        <ele>1075.5</ele>
        <time>2022-06-10T09:48:06Z</time>
      </trkpt>
      <trkpt lat="44.75262" lon="4.10238">
        <ele>1075.7</ele>
        <time>2022-06-10T09:48:07Z</time>
      </trkpt>
      <trkpt lat="44.75261" lon="4.10245">
        <ele>1075.9</ele>
        <time>2022-06-10T09:48:08Z</time>
      </trkpt>
      <trkpt lat="44.7526" lon="4.10249">
        <ele>1076</ele>
        <time>2022-06-10T09:48:10Z</time>
      </trkpt>
      <trkpt lat="44.7526" lon="4.10254">
        <ele>1076.2</ele>
        <time>2022-06-10T09:48:11Z</time>
      </trkpt>
      <trkpt lat="44.75259" lon="4.1026">
        <ele>1076.3</ele>
        <time>2022-06-10T09:48:12Z</time>
      </trkpt>
      <trkpt lat="44.75259" lon="4.10262">
        <ele>1076.4</ele>
        <time>2022-06-10T09:48:13Z</time>
      </trkpt>
      <trkpt lat="44.75258" lon="4.10265">
        <ele>1076.5</ele>
        <time>2022-06-10T09:48:14Z</time>
      </trkpt>
      <trkpt lat="44.75257" lon="4.10272">
        <ele>1076.7</ele>
        <time>2022-06-10T09:48:15Z</time>
      </trkpt>
      <trkpt lat="44.75257" lon="4.10274">
        <ele>1076.8</ele>
        <time>2022-06-10T09:48:16Z</time>
      </trkpt>
      <trkpt lat="44.75255" lon="4.10281">
        <ele>1077</ele>
        <time>2022-06-10T09:48:18Z</time>
      </trkpt>
      <trkpt lat="44.75255" lon="4.10285">
        <ele>1077.1</ele>
        <time>2022-06-10T09:48:19Z</time>
      </trkpt>
      <trkpt lat="44.75254" lon="4.10289">
        <ele>1077.2</ele>
        <time>2022-06-10T09:48:20Z</time>
      </trkpt>
      <trkpt lat="44.75253" lon="4.10294">
        <ele>1077.4</ele>
        <time>2022-06-10T09:48:21Z</time>
      </trkpt>
      <trkpt lat="44.75252" lon="4.10299">
        <ele>1077.6</ele>
        <time>2022-06-10T09:48:22Z</time>
      </trkpt>
      <trkpt lat="44.75252" lon="4.10305">
        <ele>1077.7</ele>
        <time>2022-06-10T09:48:23Z</time>
      </trkpt>
      <trkpt lat="44.75251" lon="4.10308">
        <ele>1077.8</ele>
        <time>2022-06-10T09:48:25Z</time>
      </trkpt>
      <trkpt lat="44.75251" lon="4.10313">
        <ele>1077.9</ele>
        <time>2022-06-10T09:48:26Z</time>
      </trkpt>
      <trkpt lat="44.7525" lon="4.10317">
        <ele>1078</ele>
        <time>2022-06-10T09:48:27Z</time>
      </trkpt>
      <trkpt lat="44.75249" lon="4.10323">
        <ele>1078.2</ele>
        <time>2022-06-10T09:48:28Z</time>
      </trkpt>
      <trkpt lat="44.75248" lon="4.10328">
        <ele>1078.3</ele>
        <time>2022-06-10T09:48:29Z</time>
      </trkpt>
      <trkpt lat="44.75247" lon="4.10332">
        <ele>1078.4</ele>
        <time>2022-06-10T09:48:30Z</time>
      </trkpt>
      <trkpt lat="44.75246" lon="4.10335">
        <ele>1078.5</ele>
        <time>2022-06-10T09:48:31Z</time>
      </trkpt>
      <trkpt lat="44.75245" lon="4.10339">
        <ele>1078.6</ele>
        <time>2022-06-10T09:48:32Z</time>
      </trkpt>
      <trkpt lat="44.75243" lon="4.10345">
        <ele>1078.8</ele>
        <time>2022-06-10T09:48:34Z</time>
      </trkpt>
      <trkpt lat="44.75242" lon="4.10349">
        <ele>1078.9</ele>
        <time>2022-06-10T09:48:35Z</time>
      </trkpt>
      <trkpt lat="44.75241" lon="4.10356">
        <ele>1079.1</ele>
        <time>2022-06-10T09:48:36Z</time>
      </trkpt>
      <trkpt lat="44.7524" lon="4.10361">
        <ele>1079.2</ele>
        <time>2022-06-10T09:48:37Z</time>
      </trkpt>
      <trkpt lat="44.7524" lon="4.10366">
        <ele>1079.3</ele>
        <time>2022-06-10T09:48:39Z</time>
      </trkpt>
      <trkpt lat="44.75239" lon="4.10371">
        <ele>1079.5</ele>
        <time>2022-06-10T09:48:40Z</time>
      </trkpt>
      <trkpt lat="44.75238" lon="4.10375">
        <ele>1079.6</ele>
        <time>2022-06-10T09:48:41Z</time>
      </trkpt>
      <trkpt lat="44.75237" lon="4.10381">
        <ele>1079.8</ele>
        <time>2022-06-10T09:48:43Z</time>
      </trkpt>
      <trkpt lat="44.75236" lon="4.10385">
        <ele>1079.9</ele>
        <time>2022-06-10T09:48:44Z</time>
      </trkpt>
      <trkpt lat="44.75235" lon="4.10391">
        <ele>1080</ele>
        <time>2022-06-10T09:48:45Z</time>
      </trkpt>
      <trkpt lat="44.75234" lon="4.10395">
        <ele>1080.2</ele>
        <time>2022-06-10T09:48:46Z</time>
      </trkpt>
      <trkpt lat="44.75233" lon="4.10399">
        <ele>1080.3</ele>
        <time>2022-06-10T09:48:47Z</time>
      </trkpt>
      <trkpt lat="44.75231" lon="4.10404">
        <ele>1080.4</ele>
        <time>2022-06-10T09:48:49Z</time>
      </trkpt>
      <trkpt lat="44.7523" lon="4.10408">
        <ele>1080.5</ele>
        <time>2022-06-10T09:48:50Z</time>
      </trkpt>
      <trkpt lat="44.75229" lon="4.10416">
        <ele>1080.8</ele>
        <time>2022-06-10T09:48:52Z</time>
      </trkpt>
      <trkpt lat="44.75228" lon="4.1042">
        <ele>1080.9</ele>
        <time>2022-06-10T09:48:53Z</time>
      </trkpt>
      <trkpt lat="44.75227" lon="4.10424">
        <ele>1081</ele>
        <time>2022-06-10T09:48:54Z</time>
      </trkpt>
      <trkpt lat="44.75226" lon="4.10429">
        <ele>1081.1</ele>
        <time>2022-06-10T09:48:55Z</time>
      </trkpt>
      <trkpt lat="44.75225" lon="4.10433">
        <ele>1081.2</ele>
        <time>2022-06-10T09:48:56Z</time>
      </trkpt>
      <trkpt lat="44.75224" lon="4.10439">
        <ele>1081.4</ele>
        <time>2022-06-10T09:48:57Z</time>
      </trkpt>
      <trkpt lat="44.75222" lon="4.10445">
        <ele>1081.6</ele>
        <time>2022-06-10T09:48:59Z</time>
      </trkpt>
      <trkpt lat="44.75221" lon="4.10449">
        <ele>1081.7</ele>
        <time>2022-06-10T09:49:00Z</time>
      </trkpt>
      <trkpt lat="44.7522" lon="4.10453">
        <ele>1081.8</ele>
        <time>2022-06-10T09:49:01Z</time>
      </trkpt>
      <trkpt lat="44.75218" lon="4.10457">
        <ele>1081.9</ele>
        <time>2022-06-10T09:49:02Z</time>
      </trkpt>
      <trkpt lat="44.75216" lon="4.10462">
        <ele>1082.1</ele>
        <time>2022-06-10T09:49:03Z</time>
      </trkpt>
      <trkpt lat="44.75212" lon="4.10469">
        <ele>1082.3</ele>
        <time>2022-06-10T09:49:05Z</time>
      </trkpt>
      <trkpt lat="44.7521" lon="4.10473">
        <ele>1082.4</ele>
        <time>2022-06-10T09:49:07Z</time>
      </trkpt>
      <trkpt lat="44.75208" lon="4.10478">
        <ele>1082.5</ele>
        <time>2022-06-10T09:49:08Z</time>
      </trkpt>
      <trkpt lat="44.75208" lon="4.1048">
        <ele>1082.6</ele>
        <time>2022-06-10T09:49:09Z</time>
      </trkpt>
      <trkpt lat="44.75205" lon="4.10484">
        <ele>1082.7</ele>
        <time>2022-06-10T09:49:10Z</time>
      </trkpt>
      <trkpt lat="44.75203" lon="4.10487">
        <ele>1082.8</ele>
        <time>2022-06-10T09:49:11Z</time>
      </trkpt>
      <trkpt lat="44.75201" lon="4.1049">
        <ele>1083</ele>
        <time>2022-06-10T09:49:12Z</time>
      </trkpt>
      <trkpt lat="44.75199" lon="4.10493">
        <ele>1083.1</ele>
        <time>2022-06-10T09:49:14Z</time>
      </trkpt>
      <trkpt lat="44.75197" lon="4.10497">
        <ele>1083.2</ele>
        <time>2022-06-10T09:49:15Z</time>
      </trkpt>
      <trkpt lat="44.75195" lon="4.10499">
        <ele>1083.3</ele>
        <time>2022-06-10T09:49:16Z</time>
      </trkpt>
      <trkpt lat="44.75193" lon="4.10502">
        <ele>1083.4</ele>
        <time>2022-06-10T09:49:17Z</time>
      </trkpt>
      <trkpt lat="44.75191" lon="4.10507">
        <ele>1083.6</ele>
        <time>2022-06-10T09:49:18Z</time>
      </trkpt>
      <trkpt lat="44.7519" lon="4.10508">
        <ele>1083.6</ele>
        <time>2022-06-10T09:49:19Z</time>
      </trkpt>
      <trkpt lat="44.75188" lon="4.10512">
        <ele>1083.7</ele>
        <time>2022-06-10T09:49:20Z</time>
      </trkpt>
      <trkpt lat="44.75186" lon="4.10517">
        <ele>1083.9</ele>
        <time>2022-06-10T09:49:21Z</time>
      </trkpt>
      <trkpt lat="44.75186" lon="4.10518">
        <ele>1083.9</ele>
        <time>2022-06-10T09:49:22Z</time>
      </trkpt>
      <trkpt lat="44.75183" lon="4.10523">
        <ele>1084.1</ele>
        <time>2022-06-10T09:49:23Z</time>
      </trkpt>
      <trkpt lat="44.75182" lon="4.10524">
        <ele>1084.1</ele>
        <time>2022-06-10T09:49:24Z</time>
      </trkpt>
      <trkpt lat="44.75178" lon="4.1053">
        <ele>1084.3</ele>
        <time>2022-06-10T09:49:26Z</time>
      </trkpt>
      <trkpt lat="44.75176" lon="4.10534">
        <ele>1084.5</ele>
        <time>2022-06-10T09:49:27Z</time>
      </trkpt>
      <trkpt lat="44.75175" lon="4.10537">
        <ele>1084.6</ele>
        <time>2022-06-10T09:49:28Z</time>
      </trkpt>
      <trkpt lat="44.75173" lon="4.10541">
        <ele>1084.7</ele>
        <time>2022-06-10T09:49:29Z</time>
      </trkpt>
      <trkpt lat="44.75172" lon="4.10543">
        <ele>1084.7</ele>
        <time>2022-06-10T09:49:30Z</time>
      </trkpt>
      <trkpt lat="44.7517" lon="4.10546">
        <ele>1084.9</ele>
        <time>2022-06-10T09:49:31Z</time>
      </trkpt>
      <trkpt lat="44.75169" lon="4.1055">
        <ele>1085</ele>
        <time>2022-06-10T09:49:32Z</time>
      </trkpt>
      <trkpt lat="44.75165" lon="4.10558">
        <ele>1085.2</ele>
        <time>2022-06-10T09:49:34Z</time>
      </trkpt>
      <trkpt lat="44.75164" lon="4.10562">
        <ele>1085.3</ele>
        <time>2022-06-10T09:49:35Z</time>
      </trkpt>
      <trkpt lat="44.75162" lon="4.10567">
        <ele>1085.5</ele>
        <time>2022-06-10T09:49:36Z</time>
      </trkpt>
      <trkpt lat="44.7516" lon="4.10572">
        <ele>1085.6</ele>
        <time>2022-06-10T09:49:37Z</time>
      </trkpt>
      <trkpt lat="44.75159" lon="4.10578">
        <ele>1085.8</ele>
        <time>2022-06-10T09:49:39Z</time>
      </trkpt>
      <trkpt lat="44.75157" lon="4.10582">
        <ele>1085.9</ele>
        <time>2022-06-10T09:49:40Z</time>
      </trkpt>
      <trkpt lat="44.75155" lon="4.1059">
        <ele>1086.1</ele>
        <time>2022-06-10T09:49:42Z</time>
      </trkpt>
      <trkpt lat="44.75154" lon="4.10595">
        <ele>1086.2</ele>
        <time>2022-06-10T09:49:43Z</time>
      </trkpt>
      <trkpt lat="44.75152" lon="4.10603">
        <ele>1086.4</ele>
        <time>2022-06-10T09:49:44Z</time>
      </trkpt>
      <trkpt lat="44.75152" lon="4.10607">
        <ele>1086.6</ele>
        <time>2022-06-10T09:49:46Z</time>
      </trkpt>
      <trkpt lat="44.75151" lon="4.10612">
        <ele>1086.7</ele>
        <time>2022-06-10T09:49:47Z</time>
      </trkpt>
      <trkpt lat="44.7515" lon="4.10619">
        <ele>1086.8</ele>
        <time>2022-06-10T09:49:48Z</time>
      </trkpt>
      <trkpt lat="44.75149" lon="4.10623">
        <ele>1086.9</ele>
        <time>2022-06-10T09:49:50Z</time>
      </trkpt>
      <trkpt lat="44.75148" lon="4.10628">
        <ele>1087</ele>
        <time>2022-06-10T09:49:51Z</time>
      </trkpt>
      <trkpt lat="44.75147" lon="4.10632">
        <ele>1087.1</ele>
        <time>2022-06-10T09:49:52Z</time>
      </trkpt>
      <trkpt lat="44.75146" lon="4.10638">
        <ele>1087.3</ele>
        <time>2022-06-10T09:49:53Z</time>
      </trkpt>
      <trkpt lat="44.75145" lon="4.10642">
        <ele>1087.4</ele>
        <time>2022-06-10T09:49:54Z</time>
      </trkpt>
      <trkpt lat="44.75144" lon="4.10647">
        <ele>1087.5</ele>
        <time>2022-06-10T09:49:55Z</time>
      </trkpt>
      <trkpt lat="44.75141" lon="4.10652">
        <ele>1087.7</ele>
        <time>2022-06-10T09:49:57Z</time>
      </trkpt>
      <trkpt lat="44.75139" lon="4.10655">
        <ele>1087.8</ele>
        <time>2022-06-10T09:49:58Z</time>
      </trkpt>
      <trkpt lat="44.75137" lon="4.1066">
        <ele>1087.9</ele>
        <time>2022-06-10T09:49:59Z</time>
      </trkpt>
      <trkpt lat="44.75136" lon="4.10663">
        <ele>1088</ele>
        <time>2022-06-10T09:50:00Z</time>
      </trkpt>
      <trkpt lat="44.75134" lon="4.10667">
        <ele>1088.2</ele>
        <time>2022-06-10T09:50:01Z</time>
      </trkpt>
      <trkpt lat="44.75131" lon="4.10671">
        <ele>1088.3</ele>
        <time>2022-06-10T09:50:02Z</time>
      </trkpt>
      <trkpt lat="44.75129" lon="4.10675">
        <ele>1088.4</ele>
        <time>2022-06-10T09:50:03Z</time>
      </trkpt>
      <trkpt lat="44.75127" lon="4.10679">
        <ele>1088.6</ele>
        <time>2022-06-10T09:50:04Z</time>
      </trkpt>
      <trkpt lat="44.75126" lon="4.1068">
        <ele>1088.6</ele>
        <time>2022-06-10T09:50:05Z</time>
      </trkpt>
      <trkpt lat="44.75124" lon="4.10683">
        <ele>1088.7</ele>
        <time>2022-06-10T09:50:06Z</time>
      </trkpt>
      <trkpt lat="44.75121" lon="4.10687">
        <ele>1088.8</ele>
        <time>2022-06-10T09:50:07Z</time>
      </trkpt>
      <trkpt lat="44.7512" lon="4.10688">
        <ele>1088.9</ele>
        <time>2022-06-10T09:50:08Z</time>
      </trkpt>
      <trkpt lat="44.75118" lon="4.10693">
        <ele>1089</ele>
        <time>2022-06-10T09:50:09Z</time>
      </trkpt>
      <trkpt lat="44.75117" lon="4.10694">
        <ele>1089.1</ele>
        <time>2022-06-10T09:50:10Z</time>
      </trkpt>
      <trkpt lat="44.75115" lon="4.10697">
        <ele>1089.2</ele>
        <time>2022-06-10T09:50:11Z</time>
      </trkpt>
      <trkpt lat="44.75112" lon="4.10699">
        <ele>1089.3</ele>
        <time>2022-06-10T09:50:12Z</time>
      </trkpt>
      <trkpt lat="44.75109" lon="4.10702">
        <ele>1089.4</ele>
        <time>2022-06-10T09:50:13Z</time>
      </trkpt>
      <trkpt lat="44.75108" lon="4.10703">
        <ele>1089.5</ele>
        <time>2022-06-10T09:50:14Z</time>
      </trkpt>
      <trkpt lat="44.75105" lon="4.10707">
        <ele>1089.6</ele>
        <time>2022-06-10T09:50:15Z</time>
      </trkpt>
      <trkpt lat="44.75104" lon="4.10708">
        <ele>1089.7</ele>
        <time>2022-06-10T09:50:16Z</time>
      </trkpt>
      <trkpt lat="44.75102" lon="4.10711">
        <ele>1089.8</ele>
        <time>2022-06-10T09:50:17Z</time>
      </trkpt>
      <trkpt lat="44.75099" lon="4.10714">
        <ele>1089.9</ele>
        <time>2022-06-10T09:50:18Z</time>
      </trkpt>
      <trkpt lat="44.75098" lon="4.10716">
        <ele>1090</ele>
        <time>2022-06-10T09:50:19Z</time>
      </trkpt>
      <trkpt lat="44.75096" lon="4.10719">
        <ele>1090.1</ele>
        <time>2022-06-10T09:50:20Z</time>
      </trkpt>
      <trkpt lat="44.75093" lon="4.10721">
        <ele>1090.2</ele>
        <time>2022-06-10T09:50:21Z</time>
      </trkpt>
      <trkpt lat="44.75091" lon="4.10725">
        <ele>1090.4</ele>
        <time>2022-06-10T09:50:22Z</time>
      </trkpt>
      <trkpt lat="44.7509" lon="4.10726">
        <ele>1090.4</ele>
        <time>2022-06-10T09:50:23Z</time>
      </trkpt>
      <trkpt lat="44.75086" lon="4.10732">
        <ele>1090.6</ele>
        <time>2022-06-10T09:50:24Z</time>
      </trkpt>
      <trkpt lat="44.75083" lon="4.10738">
        <ele>1090.8</ele>
        <time>2022-06-10T09:50:26Z</time>
      </trkpt>
      <trkpt lat="44.75082" lon="4.1074">
        <ele>1090.9</ele>
        <time>2022-06-10T09:50:27Z</time>
      </trkpt>
      <trkpt lat="44.75081" lon="4.10742">
        <ele>1091</ele>
        <time>2022-06-10T09:50:28Z</time>
      </trkpt>
      <trkpt lat="44.75079" lon="4.10745">
        <ele>1091.1</ele>
        <time>2022-06-10T09:50:29Z</time>
      </trkpt>
      <trkpt lat="44.75073" lon="4.10755">
        <ele>1091.4</ele>
        <time>2022-06-10T09:50:31Z</time>
      </trkpt>
      <trkpt lat="44.75071" lon="4.10758">
        <ele>1091.5</ele>
        <time>2022-06-10T09:50:33Z</time>
      </trkpt>
      <trkpt lat="44.75069" lon="4.10763">
        <ele>1091.7</ele>
        <time>2022-06-10T09:50:34Z</time>
      </trkpt>
      <trkpt lat="44.75066" lon="4.10768">
        <ele>1091.9</ele>
        <time>2022-06-10T09:50:36Z</time>
      </trkpt>
      <trkpt lat="44.75065" lon="4.10771">
        <ele>1092</ele>
        <time>2022-06-10T09:50:37Z</time>
      </trkpt>
      <trkpt lat="44.75062" lon="4.10776">
        <ele>1092.2</ele>
        <time>2022-06-10T09:50:38Z</time>
      </trkpt>
      <trkpt lat="44.75061" lon="4.10778">
        <ele>1092.3</ele>
        <time>2022-06-10T09:50:39Z</time>
      </trkpt>
      <trkpt lat="44.75059" lon="4.10783">
        <ele>1092.4</ele>
        <time>2022-06-10T09:50:40Z</time>
      </trkpt>
      <trkpt lat="44.75057" lon="4.10786">
        <ele>1092.5</ele>
        <time>2022-06-10T09:50:42Z</time>
      </trkpt>
      <trkpt lat="44.75056" lon="4.10787">
        <ele>1092.6</ele>
        <time>2022-06-10T09:50:43Z</time>
      </trkpt>
      <trkpt lat="44.75055" lon="4.1079">
        <ele>1092.7</ele>
        <time>2022-06-10T09:50:44Z</time>
      </trkpt>
      <trkpt lat="44.75052" lon="4.10796">
        <ele>1092.9</ele>
        <time>2022-06-10T09:50:46Z</time>
      </trkpt>
      <trkpt lat="44.75049" lon="4.10801">
        <ele>1093.1</ele>
        <time>2022-06-10T09:50:47Z</time>
      </trkpt>
      <trkpt lat="44.75048" lon="4.10804">
        <ele>1093.2</ele>
        <time>2022-06-10T09:50:49Z</time>
      </trkpt>
      <trkpt lat="44.75045" lon="4.10809">
        <ele>1093.4</ele>
        <time>2022-06-10T09:50:50Z</time>
      </trkpt>
      <trkpt lat="44.75044" lon="4.10813">
        <ele>1093.5</ele>
        <time>2022-06-10T09:50:51Z</time>
      </trkpt>
      <trkpt lat="44.75042" lon="4.10816">
        <ele>1093.7</ele>
        <time>2022-06-10T09:50:52Z</time>
      </trkpt>
      <trkpt lat="44.7504" lon="4.10822">
        <ele>1093.9</ele>
        <time>2022-06-10T09:50:54Z</time>
      </trkpt>
      <trkpt lat="44.75039" lon="4.10824">
        <ele>1093.9</ele>
        <time>2022-06-10T09:50:55Z</time>
      </trkpt>
      <trkpt lat="44.75038" lon="4.10826">
        <ele>1094</ele>
        <time>2022-06-10T09:50:56Z</time>
      </trkpt>
      <trkpt lat="44.75035" lon="4.10832">
        <ele>1094.2</ele>
        <time>2022-06-10T09:50:57Z</time>
      </trkpt>
      <trkpt lat="44.75034" lon="4.10835">
        <ele>1094.4</ele>
        <time>2022-06-10T09:50:58Z</time>
      </trkpt>
      <trkpt lat="44.75033" lon="4.10838">
        <ele>1094.5</ele>
        <time>2022-06-10T09:51:00Z</time>
      </trkpt>
      <trkpt lat="44.7503" lon="4.10842">
        <ele>1094.6</ele>
        <time>2022-06-10T09:51:01Z</time>
      </trkpt>
      <trkpt lat="44.7503" lon="4.10843">
        <ele>1094.7</ele>
        <time>2022-06-10T09:51:02Z</time>
      </trkpt>
      <trkpt lat="44.75028" lon="4.10846">
        <ele>1094.8</ele>
        <time>2022-06-10T09:51:03Z</time>
      </trkpt>
      <trkpt lat="44.75026" lon="4.10851">
        <ele>1095</ele>
        <time>2022-06-10T09:51:04Z</time>
      </trkpt>
      <trkpt lat="44.75025" lon="4.10852">
        <ele>1095</ele>
        <time>2022-06-10T09:51:05Z</time>
      </trkpt>
      <trkpt lat="44.75023" lon="4.10857">
        <ele>1095.2</ele>
        <time>2022-06-10T09:51:06Z</time>
      </trkpt>
      <trkpt lat="44.75022" lon="4.10859">
        <ele>1095.2</ele>
        <time>2022-06-10T09:51:07Z</time>
      </trkpt>
      <trkpt lat="44.7502" lon="4.10862">
        <ele>1095.3</ele>
        <time>2022-06-10T09:51:08Z</time>
      </trkpt>
      <trkpt lat="44.7502" lon="4.10863">
        <ele>1095.4</ele>
        <time>2022-06-10T09:51:09Z</time>
      </trkpt>
      <trkpt lat="44.75019" lon="4.10865">
        <ele>1095.5</ele>
        <time>2022-06-10T09:51:10Z</time>
      </trkpt>
      <trkpt lat="44.75018" lon="4.10867">
        <ele>1095.5</ele>
        <time>2022-06-10T09:51:11Z</time>
      </trkpt>
      <trkpt lat="44.75016" lon="4.10868">
        <ele>1095.6</ele>
        <time>2022-06-10T09:51:12Z</time>
      </trkpt>
      <trkpt lat="44.75016" lon="4.10868">
        <ele>1095.6</ele>
        <time>2022-06-10T09:51:13Z</time>
      </trkpt>
      <trkpt lat="44.75016" lon="4.10868">
        <ele>1095.6</ele>
        <time>2022-06-10T09:51:14Z</time>
      </trkpt>
      <trkpt lat="44.75016" lon="4.10869">
        <ele>1095.6</ele>
        <time>2022-06-10T09:51:15Z</time>
      </trkpt>
      <trkpt lat="44.75016" lon="4.10869">
        <ele>1095.6</ele>
        <time>2022-06-10T09:51:17Z</time>
      </trkpt>
      <trkpt lat="44.75016" lon="4.10869">
        <ele>1095.6</ele>
        <time>2022-06-10T09:51:18Z</time>
      </trkpt>
      <trkpt lat="44.75015" lon="4.10869">
        <ele>1095.6</ele>
        <time>2022-06-10T09:51:19Z</time>
      </trkpt>
      <trkpt lat="44.75015" lon="4.1087">
        <ele>1095.6</ele>
        <time>2022-06-10T09:51:20Z</time>
      </trkpt>
      <trkpt lat="44.75015" lon="4.1087">
        <ele>1095.6</ele>
        <time>2022-06-10T09:51:21Z</time>
      </trkpt>
      <trkpt lat="44.75015" lon="4.1087">
        <ele>1095.7</ele>
        <time>2022-06-10T09:51:22Z</time>
      </trkpt>
      <trkpt lat="44.75015" lon="4.1087">
        <ele>1095.7</ele>
        <time>2022-06-10T09:51:23Z</time>
      </trkpt>
      <trkpt lat="44.75015" lon="4.10871">
        <ele>1095.7</ele>
        <time>2022-06-10T09:51:24Z</time>
      </trkpt>
      <trkpt lat="44.75014" lon="4.10871">
        <ele>1095.7</ele>
        <time>2022-06-10T09:51:25Z</time>
      </trkpt>
      <trkpt lat="44.75014" lon="4.10871">
        <ele>1095.7</ele>
        <time>2022-06-10T09:51:26Z</time>
      </trkpt>
      <trkpt lat="44.75014" lon="4.10872">
        <ele>1095.7</ele>
        <time>2022-06-10T09:51:28Z</time>
      </trkpt>
      <trkpt lat="44.75014" lon="4.10872">
        <ele>1095.7</ele>
        <time>2022-06-10T09:51:29Z</time>
      </trkpt>
      <trkpt lat="44.75014" lon="4.10872">
        <ele>1095.7</ele>
        <time>2022-06-10T09:51:30Z</time>
      </trkpt>
      <trkpt lat="44.75014" lon="4.10872">
        <ele>1095.7</ele>
        <time>2022-06-10T09:51:31Z</time>
      </trkpt>
      <trkpt lat="44.75013" lon="4.10873">
        <ele>1095.7</ele>
        <time>2022-06-10T09:51:32Z</time>
      </trkpt>
      <trkpt lat="44.75013" lon="4.10873">
        <ele>1095.7</ele>
        <time>2022-06-10T09:51:33Z</time>
      </trkpt>
      <trkpt lat="44.75013" lon="4.10873">
        <ele>1095.8</ele>
        <time>2022-06-10T09:51:34Z</time>
      </trkpt>
      <trkpt lat="44.75013" lon="4.10873">
        <ele>1095.8</ele>
        <time>2022-06-10T09:51:35Z</time>
      </trkpt>
      <trkpt lat="44.75013" lon="4.10874">
        <ele>1095.8</ele>
        <time>2022-06-10T09:51:36Z</time>
      </trkpt>
      <trkpt lat="44.75013" lon="4.10874">
        <ele>1095.8</ele>
        <time>2022-06-10T09:51:37Z</time>
      </trkpt>
      <trkpt lat="44.75012" lon="4.10874">
        <ele>1095.8</ele>
        <time>2022-06-10T09:51:38Z</time>
      </trkpt>
      <trkpt lat="44.75012" lon="4.10875">
        <ele>1095.8</ele>
        <time>2022-06-10T09:51:39Z</time>
      </trkpt>
      <trkpt lat="44.75012" lon="4.10875">
        <ele>1095.8</ele>
        <time>2022-06-10T09:51:43Z</time>
      </trkpt>
      <trkpt lat="44.75012" lon="4.10875">
        <ele>1095.8</ele>
        <time>2022-06-10T09:51:44Z</time>
      </trkpt>
      <trkpt lat="44.75012" lon="4.10875">
        <ele>1095.8</ele>
        <time>2022-06-10T09:51:45Z</time>
      </trkpt>
      <trkpt lat="44.75012" lon="4.10876">
        <ele>1095.8</ele>
        <time>2022-06-10T09:51:46Z</time>
      </trkpt>
      <trkpt lat="44.75011" lon="4.10876">
        <ele>1095.9</ele>
        <time>2022-06-10T09:51:47Z</time>
      </trkpt>
      <trkpt lat="44.75011" lon="4.10876">
        <ele>1095.9</ele>
        <time>2022-06-10T09:51:48Z</time>
      </trkpt>
      <trkpt lat="44.75011" lon="4.10876">
        <ele>1095.9</ele>
        <time>2022-06-10T09:51:49Z</time>
      </trkpt>
      <trkpt lat="44.75011" lon="4.10877">
        <ele>1095.9</ele>
        <time>2022-06-10T09:51:50Z</time>
      </trkpt>
      <trkpt lat="44.75011" lon="4.10877">
        <ele>1095.9</ele>
        <time>2022-06-10T09:51:51Z</time>
      </trkpt>
      <trkpt lat="44.75011" lon="4.10877">
        <ele>1095.9</ele>
        <time>2022-06-10T09:51:52Z</time>
      </trkpt>
      <trkpt lat="44.7501" lon="4.10877">
        <ele>1095.9</ele>
        <time>2022-06-10T09:51:53Z</time>
      </trkpt>
      <trkpt lat="44.7501" lon="4.10878">
        <ele>1095.9</ele>
        <time>2022-06-10T09:51:54Z</time>
      </trkpt>
      <trkpt lat="44.7501" lon="4.10878">
        <ele>1095.9</ele>
        <time>2022-06-10T09:51:55Z</time>
      </trkpt>
      <trkpt lat="44.7501" lon="4.10878">
        <ele>1095.9</ele>
        <time>2022-06-10T09:51:56Z</time>
      </trkpt>
      <trkpt lat="44.7501" lon="4.10879">
        <ele>1096</ele>
        <time>2022-06-10T09:52:22Z</time>
      </trkpt>
      <trkpt lat="44.7501" lon="4.10879">
        <ele>1096</ele>
        <time>2022-06-10T09:52:23Z</time>
      </trkpt>
      <trkpt lat="44.75009" lon="4.10879">
        <ele>1096</ele>
        <time>2022-06-10T09:52:24Z</time>
      </trkpt>
      <trkpt lat="44.75008" lon="4.10884">
        <ele>1096.1</ele>
        <time>2022-06-10T09:52:26Z</time>
      </trkpt>
      <trkpt lat="44.75007" lon="4.10887">
        <ele>1096.2</ele>
        <time>2022-06-10T09:52:27Z</time>
      </trkpt>
      <trkpt lat="44.75006" lon="4.10891">
        <ele>1096.3</ele>
        <time>2022-06-10T09:52:28Z</time>
      </trkpt>
      <trkpt lat="44.75004" lon="4.10895">
        <ele>1096.5</ele>
        <time>2022-06-10T09:52:29Z</time>
      </trkpt>
      <trkpt lat="44.75002" lon="4.109">
        <ele>1096.6</ele>
        <time>2022-06-10T09:52:30Z</time>
      </trkpt>
      <trkpt lat="44.75" lon="4.10904">
        <ele>1096.7</ele>
        <time>2022-06-10T09:52:31Z</time>
      </trkpt>
      <trkpt lat="44.74999" lon="4.10908">
        <ele>1096.8</ele>
        <time>2022-06-10T09:52:32Z</time>
      </trkpt>
      <trkpt lat="44.74997" lon="4.10912">
        <ele>1096.9</ele>
        <time>2022-06-10T09:52:33Z</time>
      </trkpt>
      <trkpt lat="44.74995" lon="4.10916">
        <ele>1097</ele>
        <time>2022-06-10T09:52:34Z</time>
      </trkpt>
      <trkpt lat="44.74993" lon="4.1092">
        <ele>1097.2</ele>
        <time>2022-06-10T09:52:35Z</time>
      </trkpt>
      <trkpt lat="44.74989" lon="4.10927">
        <ele>1097.4</ele>
        <time>2022-06-10T09:52:36Z</time>
      </trkpt>
      <trkpt lat="44.74988" lon="4.10931">
        <ele>1097.5</ele>
        <time>2022-06-10T09:52:38Z</time>
      </trkpt>
      <trkpt lat="44.74985" lon="4.10938">
        <ele>1097.7</ele>
        <time>2022-06-10T09:52:39Z</time>
      </trkpt>
      <trkpt lat="44.74983" lon="4.10942">
        <ele>1097.8</ele>
        <time>2022-06-10T09:52:40Z</time>
      </trkpt>
      <trkpt lat="44.74981" lon="4.10945">
        <ele>1098</ele>
        <time>2022-06-10T09:52:41Z</time>
      </trkpt>
      <trkpt lat="44.74979" lon="4.10949">
        <ele>1098.1</ele>
        <time>2022-06-10T09:52:42Z</time>
      </trkpt>
      <trkpt lat="44.74978" lon="4.10953">
        <ele>1098.2</ele>
        <time>2022-06-10T09:52:44Z</time>
      </trkpt>
      <trkpt lat="44.74976" lon="4.10957">
        <ele>1098.3</ele>
        <time>2022-06-10T09:52:45Z</time>
      </trkpt>
      <trkpt lat="44.74974" lon="4.1096">
        <ele>1098.4</ele>
        <time>2022-06-10T09:52:46Z</time>
      </trkpt>
      <trkpt lat="44.74973" lon="4.10964">
        <ele>1098.5</ele>
        <time>2022-06-10T09:52:47Z</time>
      </trkpt>
      <trkpt lat="44.74971" lon="4.10967">
        <ele>1098.6</ele>
        <time>2022-06-10T09:52:48Z</time>
      </trkpt>
      <trkpt lat="44.7497" lon="4.10971">
        <ele>1098.8</ele>
        <time>2022-06-10T09:52:49Z</time>
      </trkpt>
      <trkpt lat="44.74968" lon="4.10974">
        <ele>1098.9</ele>
        <time>2022-06-10T09:52:50Z</time>
      </trkpt>
      <trkpt lat="44.74966" lon="4.10979">
        <ele>1099</ele>
        <time>2022-06-10T09:52:51Z</time>
      </trkpt>
      <trkpt lat="44.74965" lon="4.10981">
        <ele>1099.1</ele>
        <time>2022-06-10T09:52:52Z</time>
      </trkpt>
      <trkpt lat="44.74962" lon="4.10989">
        <ele>1099.3</ele>
        <time>2022-06-10T09:52:53Z</time>
      </trkpt>
      <trkpt lat="44.7496" lon="4.10992">
        <ele>1099.4</ele>
        <time>2022-06-10T09:52:54Z</time>
      </trkpt>
      <trkpt lat="44.74958" lon="4.10996">
        <ele>1099.5</ele>
        <time>2022-06-10T09:52:55Z</time>
      </trkpt>
      <trkpt lat="44.74956" lon="4.10999">
        <ele>1099.6</ele>
        <time>2022-06-10T09:52:57Z</time>
      </trkpt>
      <trkpt lat="44.74953" lon="4.11004">
        <ele>1099.7</ele>
        <time>2022-06-10T09:52:58Z</time>
      </trkpt>
      <trkpt lat="44.7495" lon="4.1101">
        <ele>1099.9</ele>
        <time>2022-06-10T09:53:00Z</time>
      </trkpt>
      <trkpt lat="44.74949" lon="4.11013">
        <ele>1100</ele>
        <time>2022-06-10T09:53:01Z</time>
      </trkpt>
      <trkpt lat="44.74947" lon="4.11017">
        <ele>1100.1</ele>
        <time>2022-06-10T09:53:02Z</time>
      </trkpt>
      <trkpt lat="44.74945" lon="4.11021">
        <ele>1100.2</ele>
        <time>2022-06-10T09:53:03Z</time>
      </trkpt>
      <trkpt lat="44.74944" lon="4.11025">
        <ele>1100.3</ele>
        <time>2022-06-10T09:53:04Z</time>
      </trkpt>
      <trkpt lat="44.74942" lon="4.11028">
        <ele>1100.4</ele>
        <time>2022-06-10T09:53:05Z</time>
      </trkpt>
      <trkpt lat="44.74941" lon="4.11031">
        <ele>1100.5</ele>
        <time>2022-06-10T09:53:06Z</time>
      </trkpt>
      <trkpt lat="44.74939" lon="4.11035">
        <ele>1100.6</ele>
        <time>2022-06-10T09:53:07Z</time>
      </trkpt>
      <trkpt lat="44.74938" lon="4.11039">
        <ele>1100.7</ele>
        <time>2022-06-10T09:53:08Z</time>
      </trkpt>
      <trkpt lat="44.74936" lon="4.11042">
        <ele>1100.8</ele>
        <time>2022-06-10T09:53:09Z</time>
      </trkpt>
      <trkpt lat="44.74934" lon="4.11045">
        <ele>1100.9</ele>
        <time>2022-06-10T09:53:10Z</time>
      </trkpt>
      <trkpt lat="44.74933" lon="4.11049">
        <ele>1101.1</ele>
        <time>2022-06-10T09:53:11Z</time>
      </trkpt>
      <trkpt lat="44.74931" lon="4.11053">
        <ele>1101.2</ele>
        <time>2022-06-10T09:53:12Z</time>
      </trkpt>
      <trkpt lat="44.7493" lon="4.11055">
        <ele>1101.3</ele>
        <time>2022-06-10T09:53:13Z</time>
      </trkpt>
      <trkpt lat="44.74927" lon="4.11061">
        <ele>1101.5</ele>
        <time>2022-06-10T09:53:14Z</time>
      </trkpt>
      <trkpt lat="44.74925" lon="4.11064">
        <ele>1101.6</ele>
        <time>2022-06-10T09:53:16Z</time>
      </trkpt>
      <trkpt lat="44.74923" lon="4.11069">
        <ele>1101.7</ele>
        <time>2022-06-10T09:53:17Z</time>
      </trkpt>
      <trkpt lat="44.74921" lon="4.11074">
        <ele>1101.9</ele>
        <time>2022-06-10T09:53:18Z</time>
      </trkpt>
      <trkpt lat="44.74918" lon="4.11079">
        <ele>1102.1</ele>
        <time>2022-06-10T09:53:20Z</time>
      </trkpt>
      <trkpt lat="44.74917" lon="4.11081">
        <ele>1102.2</ele>
        <time>2022-06-10T09:53:21Z</time>
      </trkpt>
      <trkpt lat="44.74916" lon="4.11083">
        <ele>1102.2</ele>
        <time>2022-06-10T09:53:22Z</time>
      </trkpt>
      <trkpt lat="44.74915" lon="4.11088">
        <ele>1102.4</ele>
        <time>2022-06-10T09:53:23Z</time>
      </trkpt>
      <trkpt lat="44.74914" lon="4.11089">
        <ele>1102.4</ele>
        <time>2022-06-10T09:53:24Z</time>
      </trkpt>
      <trkpt lat="44.74912" lon="4.11094">
        <ele>1102.6</ele>
        <time>2022-06-10T09:53:25Z</time>
      </trkpt>
      <trkpt lat="44.74911" lon="4.11095">
        <ele>1102.7</ele>
        <time>2022-06-10T09:53:26Z</time>
      </trkpt>
      <trkpt lat="44.74908" lon="4.11102">
        <ele>1102.9</ele>
        <time>2022-06-10T09:53:28Z</time>
      </trkpt>
      <trkpt lat="44.74906" lon="4.11105">
        <ele>1103</ele>
        <time>2022-06-10T09:53:29Z</time>
      </trkpt>
      <trkpt lat="44.74904" lon="4.11108">
        <ele>1103.1</ele>
        <time>2022-06-10T09:53:30Z</time>
      </trkpt>
      <trkpt lat="44.74902" lon="4.11112">
        <ele>1103.2</ele>
        <time>2022-06-10T09:53:31Z</time>
      </trkpt>
      <trkpt lat="44.74901" lon="4.11115">
        <ele>1103.3</ele>
        <time>2022-06-10T09:53:32Z</time>
      </trkpt>
      <trkpt lat="44.74898" lon="4.11119">
        <ele>1103.5</ele>
        <time>2022-06-10T09:53:33Z</time>
      </trkpt>
      <trkpt lat="44.74897" lon="4.11121">
        <ele>1103.5</ele>
        <time>2022-06-10T09:53:34Z</time>
      </trkpt>
      <trkpt lat="44.74895" lon="4.11124">
        <ele>1103.6</ele>
        <time>2022-06-10T09:53:35Z</time>
      </trkpt>
      <trkpt lat="44.74893" lon="4.11128">
        <ele>1103.7</ele>
        <time>2022-06-10T09:53:36Z</time>
      </trkpt>
      <trkpt lat="44.74891" lon="4.11132">
        <ele>1103.8</ele>
        <time>2022-06-10T09:53:37Z</time>
      </trkpt>
      <trkpt lat="44.74889" lon="4.11135">
        <ele>1103.9</ele>
        <time>2022-06-10T09:53:38Z</time>
      </trkpt>
      <trkpt lat="44.74887" lon="4.11138">
        <ele>1104</ele>
        <time>2022-06-10T09:53:39Z</time>
      </trkpt>
      <trkpt lat="44.74884" lon="4.11143">
        <ele>1104.2</ele>
        <time>2022-06-10T09:53:40Z</time>
      </trkpt>
      <trkpt lat="44.74882" lon="4.11147">
        <ele>1104.3</ele>
        <time>2022-06-10T09:53:41Z</time>
      </trkpt>
      <trkpt lat="44.7488" lon="4.1115">
        <ele>1104.4</ele>
        <time>2022-06-10T09:53:42Z</time>
      </trkpt>
      <trkpt lat="44.74878" lon="4.11153">
        <ele>1104.5</ele>
        <time>2022-06-10T09:53:44Z</time>
      </trkpt>
      <trkpt lat="44.74876" lon="4.11157">
        <ele>1104.6</ele>
        <time>2022-06-10T09:53:45Z</time>
      </trkpt>
      <trkpt lat="44.74875" lon="4.1116">
        <ele>1104.7</ele>
        <time>2022-06-10T09:53:46Z</time>
      </trkpt>
      <trkpt lat="44.74872" lon="4.11164">
        <ele>1104.9</ele>
        <time>2022-06-10T09:53:47Z</time>
      </trkpt>
      <trkpt lat="44.74871" lon="4.11166">
        <ele>1104.9</ele>
        <time>2022-06-10T09:53:48Z</time>
      </trkpt>
      <trkpt lat="44.74869" lon="4.1117">
        <ele>1105</ele>
        <time>2022-06-10T09:53:49Z</time>
      </trkpt>
      <trkpt lat="44.74868" lon="4.11172">
        <ele>1105.1</ele>
        <time>2022-06-10T09:53:50Z</time>
      </trkpt>
      <trkpt lat="44.74865" lon="4.11176">
        <ele>1105.2</ele>
        <time>2022-06-10T09:53:51Z</time>
      </trkpt>
      <trkpt lat="44.74862" lon="4.11182">
        <ele>1105.4</ele>
        <time>2022-06-10T09:53:53Z</time>
      </trkpt>
      <trkpt lat="44.7486" lon="4.11185">
        <ele>1105.5</ele>
        <time>2022-06-10T09:53:54Z</time>
      </trkpt>
      <trkpt lat="44.74859" lon="4.11188">
        <ele>1105.6</ele>
        <time>2022-06-10T09:53:55Z</time>
      </trkpt>
      <trkpt lat="44.74856" lon="4.11192">
        <ele>1105.7</ele>
        <time>2022-06-10T09:53:57Z</time>
      </trkpt>
      <trkpt lat="44.74854" lon="4.11196">
        <ele>1105.9</ele>
        <time>2022-06-10T09:53:58Z</time>
      </trkpt>
      <trkpt lat="44.74851" lon="4.112">
        <ele>1106</ele>
        <time>2022-06-10T09:53:59Z</time>
      </trkpt>
      <trkpt lat="44.74848" lon="4.11205">
        <ele>1106.2</ele>
        <time>2022-06-10T09:54:01Z</time>
      </trkpt>
      <trkpt lat="44.74844" lon="4.11209">
        <ele>1106.4</ele>
        <time>2022-06-10T09:54:03Z</time>
      </trkpt>
      <trkpt lat="44.74842" lon="4.11213">
        <ele>1106.5</ele>
        <time>2022-06-10T09:54:04Z</time>
      </trkpt>
      <trkpt lat="44.74839" lon="4.11217">
        <ele>1106.7</ele>
        <time>2022-06-10T09:54:06Z</time>
      </trkpt>
      <trkpt lat="44.74836" lon="4.11223">
        <ele>1106.9</ele>
        <time>2022-06-10T09:54:07Z</time>
      </trkpt>
      <trkpt lat="44.74834" lon="4.11226">
        <ele>1107.1</ele>
        <time>2022-06-10T09:54:09Z</time>
      </trkpt>
      <trkpt lat="44.74831" lon="4.11231">
        <ele>1107.3</ele>
        <time>2022-06-10T09:54:10Z</time>
      </trkpt>
      <trkpt lat="44.74831" lon="4.11232">
        <ele>1107.3</ele>
        <time>2022-06-10T09:54:11Z</time>
      </trkpt>
      <trkpt lat="44.74828" lon="4.11237">
        <ele>1107.5</ele>
        <time>2022-06-10T09:54:12Z</time>
      </trkpt>
      <trkpt lat="44.74826" lon="4.1124">
        <ele>1107.6</ele>
        <time>2022-06-10T09:54:13Z</time>
      </trkpt>
      <trkpt lat="44.74823" lon="4.11244">
        <ele>1107.8</ele>
        <time>2022-06-10T09:54:14Z</time>
      </trkpt>
      <trkpt lat="44.74822" lon="4.11245">
        <ele>1107.9</ele>
        <time>2022-06-10T09:54:15Z</time>
      </trkpt>
      <trkpt lat="44.74819" lon="4.11249">
        <ele>1108</ele>
        <time>2022-06-10T09:54:17Z</time>
      </trkpt>
      <trkpt lat="44.74817" lon="4.11252">
        <ele>1108.2</ele>
        <time>2022-06-10T09:54:18Z</time>
      </trkpt>
      <trkpt lat="44.74814" lon="4.11255">
        <ele>1108.3</ele>
        <time>2022-06-10T09:54:19Z</time>
      </trkpt>
      <trkpt lat="44.74812" lon="4.11258">
        <ele>1108.4</ele>
        <time>2022-06-10T09:54:20Z</time>
      </trkpt>
      <trkpt lat="44.7481" lon="4.11261">
        <ele>1108.5</ele>
        <time>2022-06-10T09:54:21Z</time>
      </trkpt>
      <trkpt lat="44.74807" lon="4.11264">
        <ele>1108.7</ele>
        <time>2022-06-10T09:54:22Z</time>
      </trkpt>
      <trkpt lat="44.74805" lon="4.11268">
        <ele>1108.8</ele>
        <time>2022-06-10T09:54:23Z</time>
      </trkpt>
      <trkpt lat="44.74803" lon="4.11272">
        <ele>1109</ele>
        <time>2022-06-10T09:54:24Z</time>
      </trkpt>
      <trkpt lat="44.748" lon="4.11275">
        <ele>1109.1</ele>
        <time>2022-06-10T09:54:26Z</time>
      </trkpt>
      <trkpt lat="44.74798" lon="4.11279">
        <ele>1109.2</ele>
        <time>2022-06-10T09:54:27Z</time>
      </trkpt>
      <trkpt lat="44.74796" lon="4.11282">
        <ele>1109.4</ele>
        <time>2022-06-10T09:54:28Z</time>
      </trkpt>
      <trkpt lat="44.74794" lon="4.11285">
        <ele>1109.5</ele>
        <time>2022-06-10T09:54:29Z</time>
      </trkpt>
      <trkpt lat="44.74791" lon="4.11289">
        <ele>1109.6</ele>
        <time>2022-06-10T09:54:30Z</time>
      </trkpt>
      <trkpt lat="44.74789" lon="4.11292">
        <ele>1109.8</ele>
        <time>2022-06-10T09:54:31Z</time>
      </trkpt>
      <trkpt lat="44.74786" lon="4.11296">
        <ele>1109.9</ele>
        <time>2022-06-10T09:54:32Z</time>
      </trkpt>
      <trkpt lat="44.74785" lon="4.11297">
        <ele>1110</ele>
        <time>2022-06-10T09:54:33Z</time>
      </trkpt>
      <trkpt lat="44.74783" lon="4.113">
        <ele>1110.1</ele>
        <time>2022-06-10T09:54:34Z</time>
      </trkpt>
      <trkpt lat="44.74781" lon="4.11303">
        <ele>1110.2</ele>
        <time>2022-06-10T09:54:35Z</time>
      </trkpt>
      <trkpt lat="44.74779" lon="4.11306">
        <ele>1110.3</ele>
        <time>2022-06-10T09:54:37Z</time>
      </trkpt>
      <trkpt lat="44.74777" lon="4.1131">
        <ele>1110.4</ele>
        <time>2022-06-10T09:54:38Z</time>
      </trkpt>
      <trkpt lat="44.74774" lon="4.11312">
        <ele>1110.5</ele>
        <time>2022-06-10T09:54:39Z</time>
      </trkpt>
      <trkpt lat="44.74772" lon="4.11315">
        <ele>1110.6</ele>
        <time>2022-06-10T09:54:40Z</time>
      </trkpt>
      <trkpt lat="44.7477" lon="4.11318">
        <ele>1110.8</ele>
        <time>2022-06-10T09:54:41Z</time>
      </trkpt>
      <trkpt lat="44.74766" lon="4.11323">
        <ele>1111</ele>
        <time>2022-06-10T09:54:42Z</time>
      </trkpt>
      <trkpt lat="44.74764" lon="4.11325">
        <ele>1111.1</ele>
        <time>2022-06-10T09:54:43Z</time>
      </trkpt>
      <trkpt lat="44.74762" lon="4.11329">
        <ele>1111.2</ele>
        <time>2022-06-10T09:54:45Z</time>
      </trkpt>
      <trkpt lat="44.74759" lon="4.11333">
        <ele>1111.3</ele>
        <time>2022-06-10T09:54:46Z</time>
      </trkpt>
      <trkpt lat="44.74754" lon="4.11341">
        <ele>1111.6</ele>
        <time>2022-06-10T09:54:48Z</time>
      </trkpt>
      <trkpt lat="44.74752" lon="4.11344">
        <ele>1111.7</ele>
        <time>2022-06-10T09:54:49Z</time>
      </trkpt>
      <trkpt lat="44.7475" lon="4.11347">
        <ele>1111.8</ele>
        <time>2022-06-10T09:54:50Z</time>
      </trkpt>
      <trkpt lat="44.74748" lon="4.11351">
        <ele>1112</ele>
        <time>2022-06-10T09:54:52Z</time>
      </trkpt>
      <trkpt lat="44.74746" lon="4.11355">
        <ele>1112.1</ele>
        <time>2022-06-10T09:54:53Z</time>
      </trkpt>
      <trkpt lat="44.74744" lon="4.11359">
        <ele>1112.2</ele>
        <time>2022-06-10T09:54:54Z</time>
      </trkpt>
      <trkpt lat="44.74742" lon="4.11364">
        <ele>1112.4</ele>
        <time>2022-06-10T09:54:56Z</time>
      </trkpt>
      <trkpt lat="44.7474" lon="4.11369">
        <ele>1112.5</ele>
        <time>2022-06-10T09:54:57Z</time>
      </trkpt>
      <trkpt lat="44.74739" lon="4.11371">
        <ele>1112.6</ele>
        <time>2022-06-10T09:54:58Z</time>
      </trkpt>
      <trkpt lat="44.74736" lon="4.11376">
        <ele>1112.8</ele>
        <time>2022-06-10T09:54:59Z</time>
      </trkpt>
      <trkpt lat="44.74734" lon="4.11381">
        <ele>1112.9</ele>
        <time>2022-06-10T09:55:00Z</time>
      </trkpt>
      <trkpt lat="44.74733" lon="4.11385">
        <ele>1113.1</ele>
        <time>2022-06-10T09:55:01Z</time>
      </trkpt>
      <trkpt lat="44.7473" lon="4.11391">
        <ele>1113.2</ele>
        <time>2022-06-10T09:55:03Z</time>
      </trkpt>
      <trkpt lat="44.7473" lon="4.11393">
        <ele>1113.3</ele>
        <time>2022-06-10T09:55:04Z</time>
      </trkpt>
      <trkpt lat="44.74729" lon="4.11394">
        <ele>1113.4</ele>
        <time>2022-06-10T09:55:05Z</time>
      </trkpt>
      <trkpt lat="44.74726" lon="4.11399">
        <ele>1113.5</ele>
        <time>2022-06-10T09:55:06Z</time>
      </trkpt>
      <trkpt lat="44.74726" lon="4.11401">
        <ele>1113.6</ele>
        <time>2022-06-10T09:55:07Z</time>
      </trkpt>
      <trkpt lat="44.74723" lon="4.11405">
        <ele>1113.7</ele>
        <time>2022-06-10T09:55:08Z</time>
      </trkpt>
      <trkpt lat="44.74723" lon="4.11407">
        <ele>1113.8</ele>
        <time>2022-06-10T09:55:09Z</time>
      </trkpt>
      <trkpt lat="44.74721" lon="4.11411">
        <ele>1113.9</ele>
        <time>2022-06-10T09:55:10Z</time>
      </trkpt>
      <trkpt lat="44.7472" lon="4.11414">
        <ele>1114</ele>
        <time>2022-06-10T09:55:11Z</time>
      </trkpt>
      <trkpt lat="44.74718" lon="4.11417">
        <ele>1114.1</ele>
        <time>2022-06-10T09:55:12Z</time>
      </trkpt>
      <trkpt lat="44.74717" lon="4.11421">
        <ele>1114.2</ele>
        <time>2022-06-10T09:55:13Z</time>
      </trkpt>
      <trkpt lat="44.74715" lon="4.11424">
        <ele>1114.3</ele>
        <time>2022-06-10T09:55:14Z</time>
      </trkpt>
      <trkpt lat="44.74714" lon="4.11428">
        <ele>1114.4</ele>
        <time>2022-06-10T09:55:15Z</time>
      </trkpt>
      <trkpt lat="44.74713" lon="4.11432">
        <ele>1114.5</ele>
        <time>2022-06-10T09:55:16Z</time>
      </trkpt>
      <trkpt lat="44.74712" lon="4.11435">
        <ele>1114.6</ele>
        <time>2022-06-10T09:55:17Z</time>
      </trkpt>
      <trkpt lat="44.74709" lon="4.11441">
        <ele>1114.8</ele>
        <time>2022-06-10T09:55:18Z</time>
      </trkpt>
      <trkpt lat="44.74707" lon="4.11448">
        <ele>1115</ele>
        <time>2022-06-10T09:55:20Z</time>
      </trkpt>
      <trkpt lat="44.74706" lon="4.1145">
        <ele>1115.1</ele>
        <time>2022-06-10T09:55:21Z</time>
      </trkpt>
      <trkpt lat="44.74705" lon="4.11452">
        <ele>1115.2</ele>
        <time>2022-06-10T09:55:22Z</time>
      </trkpt>
      <trkpt lat="44.74704" lon="4.11456">
        <ele>1115.3</ele>
        <time>2022-06-10T09:55:23Z</time>
      </trkpt>
      <trkpt lat="44.74703" lon="4.1146">
        <ele>1115.4</ele>
        <time>2022-06-10T09:55:24Z</time>
      </trkpt>
      <trkpt lat="44.74701" lon="4.11464">
        <ele>1115.5</ele>
        <time>2022-06-10T09:55:25Z</time>
      </trkpt>
      <trkpt lat="44.747" lon="4.11468">
        <ele>1115.7</ele>
        <time>2022-06-10T09:55:26Z</time>
      </trkpt>
      <trkpt lat="44.74699" lon="4.11475">
        <ele>1115.9</ele>
        <time>2022-06-10T09:55:28Z</time>
      </trkpt>
      <trkpt lat="44.74698" lon="4.11479">
        <ele>1116</ele>
        <time>2022-06-10T09:55:29Z</time>
      </trkpt>
      <trkpt lat="44.74698" lon="4.11483">
        <ele>1116.1</ele>
        <time>2022-06-10T09:55:30Z</time>
      </trkpt>
      <trkpt lat="44.74698" lon="4.11487">
        <ele>1116.3</ele>
        <time>2022-06-10T09:55:31Z</time>
      </trkpt>
      <trkpt lat="44.74697" lon="4.11492">
        <ele>1116.4</ele>
        <time>2022-06-10T09:55:32Z</time>
      </trkpt>
      <trkpt lat="44.74696" lon="4.11494">
        <ele>1116.5</ele>
        <time>2022-06-10T09:55:33Z</time>
      </trkpt>
      <trkpt lat="44.74696" lon="4.11498">
        <ele>1116.6</ele>
        <time>2022-06-10T09:55:34Z</time>
      </trkpt>
      <trkpt lat="44.74697" lon="4.11504">
        <ele>1116.8</ele>
        <time>2022-06-10T09:55:35Z</time>
      </trkpt>
      <trkpt lat="44.74697" lon="4.11506">
        <ele>1116.9</ele>
        <time>2022-06-10T09:55:36Z</time>
      </trkpt>
      <trkpt lat="44.74697" lon="4.11511">
        <ele>1117</ele>
        <time>2022-06-10T09:55:37Z</time>
      </trkpt>
      <trkpt lat="44.74697" lon="4.11513">
        <ele>1117.1</ele>
        <time>2022-06-10T09:55:38Z</time>
      </trkpt>
      <trkpt lat="44.74697" lon="4.11518">
        <ele>1117.3</ele>
        <time>2022-06-10T09:55:39Z</time>
      </trkpt>
      <trkpt lat="44.74699" lon="4.11523">
        <ele>1117.5</ele>
        <time>2022-06-10T09:55:40Z</time>
      </trkpt>
      <trkpt lat="44.747" lon="4.11527">
        <ele>1117.6</ele>
        <time>2022-06-10T09:55:42Z</time>
      </trkpt>
      <trkpt lat="44.74702" lon="4.11533">
        <ele>1117.8</ele>
        <time>2022-06-10T09:55:43Z</time>
      </trkpt>
      <trkpt lat="44.74702" lon="4.11537">
        <ele>1118</ele>
        <time>2022-06-10T09:55:45Z</time>
      </trkpt>
      <trkpt lat="44.74702" lon="4.11539">
        <ele>1118</ele>
        <time>2022-06-10T09:55:46Z</time>
      </trkpt>
      <trkpt lat="44.74703" lon="4.11542">
        <ele>1118.2</ele>
        <time>2022-06-10T09:55:47Z</time>
      </trkpt>
      <trkpt lat="44.74703" lon="4.11544">
        <ele>1118.2</ele>
        <time>2022-06-10T09:55:48Z</time>
      </trkpt>
      <trkpt lat="44.74702" lon="4.11552">
        <ele>1118.5</ele>
        <time>2022-06-10T09:55:50Z</time>
      </trkpt>
      <trkpt lat="44.74701" lon="4.11556">
        <ele>1118.6</ele>
        <time>2022-06-10T09:55:51Z</time>
      </trkpt>
      <trkpt lat="44.74701" lon="4.11561">
        <ele>1118.7</ele>
        <time>2022-06-10T09:55:52Z</time>
      </trkpt>
      <trkpt lat="44.747" lon="4.11566">
        <ele>1118.9</ele>
        <time>2022-06-10T09:55:53Z</time>
      </trkpt>
      <trkpt lat="44.74698" lon="4.11573">
        <ele>1119</ele>
        <time>2022-06-10T09:55:55Z</time>
      </trkpt>
      <trkpt lat="44.74696" lon="4.11576">
        <ele>1119.2</ele>
        <time>2022-06-10T09:55:56Z</time>
      </trkpt>
      <trkpt lat="44.74695" lon="4.1158">
        <ele>1119.3</ele>
        <time>2022-06-10T09:55:57Z</time>
      </trkpt>
      <trkpt lat="44.74693" lon="4.11584">
        <ele>1119.4</ele>
        <time>2022-06-10T09:55:58Z</time>
      </trkpt>
      <trkpt lat="44.74691" lon="4.11586">
        <ele>1119.5</ele>
        <time>2022-06-10T09:55:59Z</time>
      </trkpt>
      <trkpt lat="44.74687" lon="4.11591">
        <ele>1119.7</ele>
        <time>2022-06-10T09:56:01Z</time>
      </trkpt>
      <trkpt lat="44.74685" lon="4.11594">
        <ele>1119.8</ele>
        <time>2022-06-10T09:56:02Z</time>
      </trkpt>
      <trkpt lat="44.74684" lon="4.11598">
        <ele>1120</ele>
        <time>2022-06-10T09:56:03Z</time>
      </trkpt>
      <trkpt lat="44.74681" lon="4.11602">
        <ele>1120.1</ele>
        <time>2022-06-10T09:56:05Z</time>
      </trkpt>
      <trkpt lat="44.74679" lon="4.11603">
        <ele>1120.2</ele>
        <time>2022-06-10T09:56:06Z</time>
      </trkpt>
      <trkpt lat="44.74677" lon="4.11607">
        <ele>1120.3</ele>
        <time>2022-06-10T09:56:07Z</time>
      </trkpt>
      <trkpt lat="44.74676" lon="4.1161">
        <ele>1120.4</ele>
        <time>2022-06-10T09:56:08Z</time>
      </trkpt>
      <trkpt lat="44.74674" lon="4.11613">
        <ele>1120.5</ele>
        <time>2022-06-10T09:56:10Z</time>
      </trkpt>
      <trkpt lat="44.74671" lon="4.11617">
        <ele>1120.7</ele>
        <time>2022-06-10T09:56:11Z</time>
      </trkpt>
      <trkpt lat="44.74671" lon="4.11618">
        <ele>1120.7</ele>
        <time>2022-06-10T09:56:12Z</time>
      </trkpt>
      <trkpt lat="44.74668" lon="4.11623">
        <ele>1120.8</ele>
        <time>2022-06-10T09:56:13Z</time>
      </trkpt>
      <trkpt lat="44.74668" lon="4.11624">
        <ele>1120.9</ele>
        <time>2022-06-10T09:56:14Z</time>
      </trkpt>
      <trkpt lat="44.74666" lon="4.11627">
        <ele>1121</ele>
        <time>2022-06-10T09:56:15Z</time>
      </trkpt>
      <trkpt lat="44.74664" lon="4.1163">
        <ele>1121.1</ele>
        <time>2022-06-10T09:56:16Z</time>
      </trkpt>
      <trkpt lat="44.74661" lon="4.11635">
        <ele>1121.3</ele>
        <time>2022-06-10T09:56:17Z</time>
      </trkpt>
      <trkpt lat="44.74659" lon="4.1164">
        <ele>1121.4</ele>
        <time>2022-06-10T09:56:19Z</time>
      </trkpt>
      <trkpt lat="44.74657" lon="4.11644">
        <ele>1121.5</ele>
        <time>2022-06-10T09:56:20Z</time>
      </trkpt>
      <trkpt lat="44.74656" lon="4.11648">
        <ele>1121.6</ele>
        <time>2022-06-10T09:56:21Z</time>
      </trkpt>
      <trkpt lat="44.74654" lon="4.11652">
        <ele>1121.8</ele>
        <time>2022-06-10T09:56:22Z</time>
      </trkpt>
      <trkpt lat="44.74652" lon="4.11656">
        <ele>1121.9</ele>
        <time>2022-06-10T09:56:24Z</time>
      </trkpt>
      <trkpt lat="44.7465" lon="4.11661">
        <ele>1122</ele>
        <time>2022-06-10T09:56:25Z</time>
      </trkpt>
      <trkpt lat="44.74649" lon="4.11663">
        <ele>1122.1</ele>
        <time>2022-06-10T09:56:26Z</time>
      </trkpt>
      <trkpt lat="44.74648" lon="4.11667">
        <ele>1122.2</ele>
        <time>2022-06-10T09:56:28Z</time>
      </trkpt>
      <trkpt lat="44.74646" lon="4.11671">
        <ele>1122.3</ele>
        <time>2022-06-10T09:56:29Z</time>
      </trkpt>
      <trkpt lat="44.74644" lon="4.11675">
        <ele>1122.4</ele>
        <time>2022-06-10T09:56:30Z</time>
      </trkpt>
      <trkpt lat="44.74644" lon="4.11677">
        <ele>1122.4</ele>
        <time>2022-06-10T09:56:31Z</time>
      </trkpt>
      <trkpt lat="44.74641" lon="4.11681">
        <ele>1122.6</ele>
        <time>2022-06-10T09:56:32Z</time>
      </trkpt>
      <trkpt lat="44.74639" lon="4.11685">
        <ele>1122.7</ele>
        <time>2022-06-10T09:56:33Z</time>
      </trkpt>
      <trkpt lat="44.74637" lon="4.11689">
        <ele>1122.8</ele>
        <time>2022-06-10T09:56:34Z</time>
      </trkpt>
      <trkpt lat="44.74636" lon="4.11693">
        <ele>1122.9</ele>
        <time>2022-06-10T09:56:35Z</time>
      </trkpt>
      <trkpt lat="44.74634" lon="4.11696">
        <ele>1123</ele>
        <time>2022-06-10T09:56:36Z</time>
      </trkpt>
      <trkpt lat="44.74631" lon="4.11701">
        <ele>1123.2</ele>
        <time>2022-06-10T09:56:38Z</time>
      </trkpt>
      <trkpt lat="44.74628" lon="4.11708">
        <ele>1123.4</ele>
        <time>2022-06-10T09:56:39Z</time>
      </trkpt>
      <trkpt lat="44.74626" lon="4.11712">
        <ele>1123.5</ele>
        <time>2022-06-10T09:56:40Z</time>
      </trkpt>
      <trkpt lat="44.74624" lon="4.11716">
        <ele>1123.7</ele>
        <time>2022-06-10T09:56:42Z</time>
      </trkpt>
      <trkpt lat="44.74622" lon="4.1172">
        <ele>1123.8</ele>
        <time>2022-06-10T09:56:43Z</time>
      </trkpt>
      <trkpt lat="44.74621" lon="4.11724">
        <ele>1123.9</ele>
        <time>2022-06-10T09:56:44Z</time>
      </trkpt>
      <trkpt lat="44.74619" lon="4.11728">
        <ele>1124.1</ele>
        <time>2022-06-10T09:56:45Z</time>
      </trkpt>
      <trkpt lat="44.74618" lon="4.11732">
        <ele>1124.2</ele>
        <time>2022-06-10T09:56:46Z</time>
      </trkpt>
      <trkpt lat="44.74616" lon="4.11736">
        <ele>1124.3</ele>
        <time>2022-06-10T09:56:47Z</time>
      </trkpt>
      <trkpt lat="44.74614" lon="4.11739">
        <ele>1124.4</ele>
        <time>2022-06-10T09:56:48Z</time>
      </trkpt>
      <trkpt lat="44.74613" lon="4.11743">
        <ele>1124.5</ele>
        <time>2022-06-10T09:56:49Z</time>
      </trkpt>
      <trkpt lat="44.74611" lon="4.11746">
        <ele>1124.7</ele>
        <time>2022-06-10T09:56:50Z</time>
      </trkpt>
      <trkpt lat="44.74609" lon="4.1175">
        <ele>1124.8</ele>
        <time>2022-06-10T09:56:51Z</time>
      </trkpt>
      <trkpt lat="44.74608" lon="4.11753">
        <ele>1124.9</ele>
        <time>2022-06-10T09:56:52Z</time>
      </trkpt>
      <trkpt lat="44.74606" lon="4.11757">
        <ele>1125</ele>
        <time>2022-06-10T09:56:53Z</time>
      </trkpt>
      <trkpt lat="44.74605" lon="4.11761">
        <ele>1125.2</ele>
        <time>2022-06-10T09:56:54Z</time>
      </trkpt>
      <trkpt lat="44.74602" lon="4.11768">
        <ele>1125.4</ele>
        <time>2022-06-10T09:56:55Z</time>
      </trkpt>
      <trkpt lat="44.74597" lon="4.11775">
        <ele>1125.6</ele>
        <time>2022-06-10T09:56:57Z</time>
      </trkpt>
      <trkpt lat="44.74595" lon="4.11778">
        <ele>1125.7</ele>
        <time>2022-06-10T09:56:58Z</time>
      </trkpt>
      <trkpt lat="44.74592" lon="4.11783">
        <ele>1125.9</ele>
        <time>2022-06-10T09:57:00Z</time>
      </trkpt>
      <trkpt lat="44.7459" lon="4.11788">
        <ele>1126</ele>
        <time>2022-06-10T09:57:01Z</time>
      </trkpt>
      <trkpt lat="44.74588" lon="4.11792">
        <ele>1126.1</ele>
        <time>2022-06-10T09:57:03Z</time>
      </trkpt>
      <trkpt lat="44.74586" lon="4.11795">
        <ele>1126.2</ele>
        <time>2022-06-10T09:57:04Z</time>
      </trkpt>
      <trkpt lat="44.74584" lon="4.11801">
        <ele>1126.4</ele>
        <time>2022-06-10T09:57:05Z</time>
      </trkpt>
      <trkpt lat="44.74582" lon="4.11805">
        <ele>1126.5</ele>
        <time>2022-06-10T09:57:06Z</time>
      </trkpt>
      <trkpt lat="44.7458" lon="4.11809">
        <ele>1126.6</ele>
        <time>2022-06-10T09:57:07Z</time>
      </trkpt>
      <trkpt lat="44.74579" lon="4.11813">
        <ele>1126.7</ele>
        <time>2022-06-10T09:57:09Z</time>
      </trkpt>
      <trkpt lat="44.74577" lon="4.11816">
        <ele>1126.8</ele>
        <time>2022-06-10T09:57:10Z</time>
      </trkpt>
      <trkpt lat="44.74575" lon="4.1182">
        <ele>1126.9</ele>
        <time>2022-06-10T09:57:11Z</time>
      </trkpt>
      <trkpt lat="44.74573" lon="4.11827">
        <ele>1127.1</ele>
        <time>2022-06-10T09:57:13Z</time>
      </trkpt>
      <trkpt lat="44.7457" lon="4.11831">
        <ele>1127.2</ele>
        <time>2022-06-10T09:57:14Z</time>
      </trkpt>
      <trkpt lat="44.74568" lon="4.11835">
        <ele>1127.3</ele>
        <time>2022-06-10T09:57:15Z</time>
      </trkpt>
      <trkpt lat="44.74566" lon="4.1184">
        <ele>1127.4</ele>
        <time>2022-06-10T09:57:16Z</time>
      </trkpt>
      <trkpt lat="44.74565" lon="4.11844">
        <ele>1127.5</ele>
        <time>2022-06-10T09:57:17Z</time>
      </trkpt>
      <trkpt lat="44.74561" lon="4.11852">
        <ele>1127.7</ele>
        <time>2022-06-10T09:57:19Z</time>
      </trkpt>
      <trkpt lat="44.74559" lon="4.11855">
        <ele>1127.8</ele>
        <time>2022-06-10T09:57:20Z</time>
      </trkpt>
      <trkpt lat="44.74557" lon="4.11862">
        <ele>1128</ele>
        <time>2022-06-10T09:57:22Z</time>
      </trkpt>
      <trkpt lat="44.74553" lon="4.11869">
        <ele>1128.2</ele>
        <time>2022-06-10T09:57:24Z</time>
      </trkpt>
      <trkpt lat="44.74552" lon="4.11872">
        <ele>1128.3</ele>
        <time>2022-06-10T09:57:25Z</time>
      </trkpt>
      <trkpt lat="44.74551" lon="4.11876">
        <ele>1128.5</ele>
        <time>2022-06-10T09:57:27Z</time>
      </trkpt>
      <trkpt lat="44.74547" lon="4.11883">
        <ele>1128.7</ele>
        <time>2022-06-10T09:57:29Z</time>
      </trkpt>
      <trkpt lat="44.74545" lon="4.11886">
        <ele>1128.8</ele>
        <time>2022-06-10T09:57:30Z</time>
      </trkpt>
      <trkpt lat="44.74544" lon="4.11889">
        <ele>1128.9</ele>
        <time>2022-06-10T09:57:31Z</time>
      </trkpt>
      <trkpt lat="44.74542" lon="4.11894">
        <ele>1129.1</ele>
        <time>2022-06-10T09:57:32Z</time>
      </trkpt>
      <trkpt lat="44.74541" lon="4.11896">
        <ele>1129.2</ele>
        <time>2022-06-10T09:57:33Z</time>
      </trkpt>
      <trkpt lat="44.74539" lon="4.11899">
        <ele>1129.3</ele>
        <time>2022-06-10T09:57:34Z</time>
      </trkpt>
      <trkpt lat="44.74537" lon="4.11905">
        <ele>1129.5</ele>
        <time>2022-06-10T09:57:35Z</time>
      </trkpt>
      <trkpt lat="44.74535" lon="4.11909">
        <ele>1129.6</ele>
        <time>2022-06-10T09:57:37Z</time>
      </trkpt>
      <trkpt lat="44.74534" lon="4.11912">
        <ele>1129.7</ele>
        <time>2022-06-10T09:57:38Z</time>
      </trkpt>
      <trkpt lat="44.74533" lon="4.11916">
        <ele>1129.9</ele>
        <time>2022-06-10T09:57:39Z</time>
      </trkpt>
      <trkpt lat="44.74531" lon="4.1192">
        <ele>1130</ele>
        <time>2022-06-10T09:57:40Z</time>
      </trkpt>
      <trkpt lat="44.74529" lon="4.11924">
        <ele>1130.1</ele>
        <time>2022-06-10T09:57:41Z</time>
      </trkpt>
      <trkpt lat="44.74528" lon="4.11925">
        <ele>1130.2</ele>
        <time>2022-06-10T09:57:42Z</time>
      </trkpt>
      <trkpt lat="44.74527" lon="4.11929">
        <ele>1130.3</ele>
        <time>2022-06-10T09:57:43Z</time>
      </trkpt>
      <trkpt lat="44.74525" lon="4.11935">
        <ele>1130.5</ele>
        <time>2022-06-10T09:57:44Z</time>
      </trkpt>
      <trkpt lat="44.74524" lon="4.11938">
        <ele>1130.6</ele>
        <time>2022-06-10T09:57:45Z</time>
      </trkpt>
      <trkpt lat="44.74522" lon="4.11942">
        <ele>1130.7</ele>
        <time>2022-06-10T09:57:47Z</time>
      </trkpt>
      <trkpt lat="44.74519" lon="4.11947">
        <ele>1130.9</ele>
        <time>2022-06-10T09:57:48Z</time>
      </trkpt>
      <trkpt lat="44.74518" lon="4.1195">
        <ele>1131</ele>
        <time>2022-06-10T09:57:49Z</time>
      </trkpt>
      <trkpt lat="44.74516" lon="4.11953">
        <ele>1131.1</ele>
        <time>2022-06-10T09:57:51Z</time>
      </trkpt>
      <trkpt lat="44.74514" lon="4.11959">
        <ele>1131.3</ele>
        <time>2022-06-10T09:57:52Z</time>
      </trkpt>
      <trkpt lat="44.74513" lon="4.11961">
        <ele>1131.4</ele>
        <time>2022-06-10T09:57:53Z</time>
      </trkpt>
      <trkpt lat="44.74511" lon="4.11966">
        <ele>1131.6</ele>
        <time>2022-06-10T09:57:55Z</time>
      </trkpt>
      <trkpt lat="44.74509" lon="4.11971">
        <ele>1131.7</ele>
        <time>2022-06-10T09:57:56Z</time>
      </trkpt>
      <trkpt lat="44.74508" lon="4.11976">
        <ele>1131.9</ele>
        <time>2022-06-10T09:57:58Z</time>
      </trkpt>
      <trkpt lat="44.74507" lon="4.11978">
        <ele>1132</ele>
        <time>2022-06-10T09:57:59Z</time>
      </trkpt>
      <trkpt lat="44.74506" lon="4.11983">
        <ele>1132.1</ele>
        <time>2022-06-10T09:58:00Z</time>
      </trkpt>
      <trkpt lat="44.74505" lon="4.11988">
        <ele>1132.2</ele>
        <time>2022-06-10T09:58:02Z</time>
      </trkpt>
      <trkpt lat="44.74504" lon="4.11992">
        <ele>1132.3</ele>
        <time>2022-06-10T09:58:03Z</time>
      </trkpt>
      <trkpt lat="44.74503" lon="4.11997">
        <ele>1132.5</ele>
        <time>2022-06-10T09:58:04Z</time>
      </trkpt>
      <trkpt lat="44.74502" lon="4.12001">
        <ele>1132.6</ele>
        <time>2022-06-10T09:58:05Z</time>
      </trkpt>
      <trkpt lat="44.74501" lon="4.12005">
        <ele>1132.7</ele>
        <time>2022-06-10T09:58:07Z</time>
      </trkpt>
      <trkpt lat="44.74501" lon="4.12009">
        <ele>1132.8</ele>
        <time>2022-06-10T09:58:08Z</time>
      </trkpt>
      <trkpt lat="44.74501" lon="4.12015">
        <ele>1133</ele>
        <time>2022-06-10T09:58:09Z</time>
      </trkpt>
      <trkpt lat="44.74502" lon="4.12018">
        <ele>1133.1</ele>
        <time>2022-06-10T09:58:10Z</time>
      </trkpt>
      <trkpt lat="44.74503" lon="4.12027">
        <ele>1133.3</ele>
        <time>2022-06-10T09:58:12Z</time>
      </trkpt>
      <trkpt lat="44.74504" lon="4.12031">
        <ele>1133.4</ele>
        <time>2022-06-10T09:58:13Z</time>
      </trkpt>
      <trkpt lat="44.74505" lon="4.12035">
        <ele>1133.5</ele>
        <time>2022-06-10T09:58:15Z</time>
      </trkpt>
      <trkpt lat="44.74505" lon="4.12039">
        <ele>1133.7</ele>
        <time>2022-06-10T09:58:16Z</time>
      </trkpt>
      <trkpt lat="44.74506" lon="4.12043">
        <ele>1133.8</ele>
        <time>2022-06-10T09:58:17Z</time>
      </trkpt>
      <trkpt lat="44.74507" lon="4.12046">
        <ele>1133.9</ele>
        <time>2022-06-10T09:58:18Z</time>
      </trkpt>
      <trkpt lat="44.74511" lon="4.12051">
        <ele>1134.1</ele>
        <time>2022-06-10T09:58:19Z</time>
      </trkpt>
      <trkpt lat="44.74514" lon="4.12056">
        <ele>1134.3</ele>
        <time>2022-06-10T09:58:21Z</time>
      </trkpt>
      <trkpt lat="44.74515" lon="4.12058">
        <ele>1134.4</ele>
        <time>2022-06-10T09:58:22Z</time>
      </trkpt>
      <trkpt lat="44.74516" lon="4.1206">
        <ele>1134.5</ele>
        <time>2022-06-10T09:58:23Z</time>
      </trkpt>
      <trkpt lat="44.74518" lon="4.12064">
        <ele>1134.6</ele>
        <time>2022-06-10T09:58:24Z</time>
      </trkpt>
      <trkpt lat="44.74519" lon="4.12065">
        <ele>1134.7</ele>
        <time>2022-06-10T09:58:25Z</time>
      </trkpt>
      <trkpt lat="44.74522" lon="4.12067">
        <ele>1134.8</ele>
        <time>2022-06-10T09:58:26Z</time>
      </trkpt>
      <trkpt lat="44.74523" lon="4.12067">
        <ele>1134.9</ele>
        <time>2022-06-10T09:58:27Z</time>
      </trkpt>
      <trkpt lat="44.74526" lon="4.1207">
        <ele>1135.1</ele>
        <time>2022-06-10T09:58:28Z</time>
      </trkpt>
      <trkpt lat="44.74531" lon="4.12072">
        <ele>1135.3</ele>
        <time>2022-06-10T09:58:30Z</time>
      </trkpt>
      <trkpt lat="44.74533" lon="4.12073">
        <ele>1135.4</ele>
        <time>2022-06-10T09:58:31Z</time>
      </trkpt>
      <trkpt lat="44.74537" lon="4.12074">
        <ele>1135.6</ele>
        <time>2022-06-10T09:58:33Z</time>
      </trkpt>
      <trkpt lat="44.74538" lon="4.12074">
        <ele>1135.7</ele>
        <time>2022-06-10T09:58:34Z</time>
      </trkpt>
      <trkpt lat="44.74539" lon="4.12075">
        <ele>1135.8</ele>
        <time>2022-06-10T09:58:35Z</time>
      </trkpt>
      <trkpt lat="44.74542" lon="4.12074">
        <ele>1136</ele>
        <time>2022-06-10T09:58:36Z</time>
      </trkpt>
      <trkpt lat="44.74544" lon="4.12074">
        <ele>1136</ele>
        <time>2022-06-10T09:58:37Z</time>
      </trkpt>
      <trkpt lat="44.74548" lon="4.12074">
        <ele>1136.2</ele>
        <time>2022-06-10T09:58:38Z</time>
      </trkpt>
      <trkpt lat="44.7455" lon="4.12073">
        <ele>1136.3</ele>
        <time>2022-06-10T09:58:39Z</time>
      </trkpt>
      <trkpt lat="44.74554" lon="4.12073">
        <ele>1136.5</ele>
        <time>2022-06-10T09:58:41Z</time>
      </trkpt>
      <trkpt lat="44.74558" lon="4.12072">
        <ele>1136.8</ele>
        <time>2022-06-10T09:58:42Z</time>
      </trkpt>
      <trkpt lat="44.74563" lon="4.12073">
        <ele>1137</ele>
        <time>2022-06-10T09:58:44Z</time>
      </trkpt>
      <trkpt lat="44.74564" lon="4.12073">
        <ele>1137.1</ele>
        <time>2022-06-10T09:58:45Z</time>
      </trkpt>
      <trkpt lat="44.74566" lon="4.12073">
        <ele>1137.2</ele>
        <time>2022-06-10T09:58:46Z</time>
      </trkpt>
      <trkpt lat="44.7457" lon="4.12072">
        <ele>1137.4</ele>
        <time>2022-06-10T09:58:47Z</time>
      </trkpt>
      <trkpt lat="44.74571" lon="4.12072">
        <ele>1137.4</ele>
        <time>2022-06-10T09:58:48Z</time>
      </trkpt>
      <trkpt lat="44.74574" lon="4.12073">
        <ele>1137.6</ele>
        <time>2022-06-10T09:58:49Z</time>
      </trkpt>
      <trkpt lat="44.74576" lon="4.12073">
        <ele>1137.7</ele>
        <time>2022-06-10T09:58:50Z</time>
      </trkpt>
      <trkpt lat="44.74579" lon="4.12076">
        <ele>1137.9</ele>
        <time>2022-06-10T09:58:51Z</time>
      </trkpt>
      <trkpt lat="44.7458" lon="4.12077">
        <ele>1138</ele>
        <time>2022-06-10T09:58:52Z</time>
      </trkpt>
      <trkpt lat="44.74583" lon="4.12079">
        <ele>1138.1</ele>
        <time>2022-06-10T09:58:53Z</time>
      </trkpt>
      <trkpt lat="44.74587" lon="4.1208">
        <ele>1138.1</ele>
        <time>2022-06-10T09:58:54Z</time>
      </trkpt>
      <trkpt lat="44.74589" lon="4.12083">
        <ele>1138.1</ele>
        <time>2022-06-10T09:58:55Z</time>
      </trkpt>
      <trkpt lat="44.74591" lon="4.12085">
        <ele>1138.1</ele>
        <time>2022-06-10T09:58:57Z</time>
      </trkpt>
      <trkpt lat="44.74595" lon="4.12088">
        <ele>1138.2</ele>
        <time>2022-06-10T09:58:58Z</time>
      </trkpt>
      <trkpt lat="44.74597" lon="4.12091">
        <ele>1138.3</ele>
        <time>2022-06-10T09:58:59Z</time>
      </trkpt>
      <trkpt lat="44.746" lon="4.12094">
        <ele>1138.4</ele>
        <time>2022-06-10T09:59:01Z</time>
      </trkpt>
      <trkpt lat="44.74602" lon="4.12097">
        <ele>1138.6</ele>
        <time>2022-06-10T09:59:02Z</time>
      </trkpt>
      <trkpt lat="44.74604" lon="4.121">
        <ele>1138.7</ele>
        <time>2022-06-10T09:59:03Z</time>
      </trkpt>
      <trkpt lat="44.74607" lon="4.12107">
        <ele>1138.9</ele>
        <time>2022-06-10T09:59:04Z</time>
      </trkpt>
      <trkpt lat="44.74609" lon="4.12109">
        <ele>1139</ele>
        <time>2022-06-10T09:59:06Z</time>
      </trkpt>
      <trkpt lat="44.7461" lon="4.12113">
        <ele>1139.1</ele>
        <time>2022-06-10T09:59:07Z</time>
      </trkpt>
      <trkpt lat="44.74611" lon="4.12118">
        <ele>1139.3</ele>
        <time>2022-06-10T09:59:08Z</time>
      </trkpt>
      <trkpt lat="44.74612" lon="4.1212">
        <ele>1139.3</ele>
        <time>2022-06-10T09:59:09Z</time>
      </trkpt>
      <trkpt lat="44.74613" lon="4.12124">
        <ele>1139.5</ele>
        <time>2022-06-10T09:59:10Z</time>
      </trkpt>
      <trkpt lat="44.74614" lon="4.12126">
        <ele>1139.5</ele>
        <time>2022-06-10T09:59:11Z</time>
      </trkpt>
      <trkpt lat="44.74615" lon="4.1213">
        <ele>1139.7</ele>
        <time>2022-06-10T09:59:12Z</time>
      </trkpt>
      <trkpt lat="44.74615" lon="4.12131">
        <ele>1139.7</ele>
        <time>2022-06-10T09:59:13Z</time>
      </trkpt>
      <trkpt lat="44.74615" lon="4.12136">
        <ele>1139.9</ele>
        <time>2022-06-10T09:59:14Z</time>
      </trkpt>
      <trkpt lat="44.74615" lon="4.12137">
        <ele>1139.9</ele>
        <time>2022-06-10T09:59:15Z</time>
      </trkpt>
      <trkpt lat="44.74615" lon="4.1214">
        <ele>1140</ele>
        <time>2022-06-10T09:59:16Z</time>
      </trkpt>
      <trkpt lat="44.74615" lon="4.12142">
        <ele>1140.1</ele>
        <time>2022-06-10T09:59:17Z</time>
      </trkpt>
      <trkpt lat="44.74616" lon="4.12146">
        <ele>1140.2</ele>
        <time>2022-06-10T09:59:18Z</time>
      </trkpt>
      <trkpt lat="44.74616" lon="4.12147">
        <ele>1140.3</ele>
        <time>2022-06-10T09:59:19Z</time>
      </trkpt>
      <trkpt lat="44.74616" lon="4.12151">
        <ele>1140.5</ele>
        <time>2022-06-10T09:59:20Z</time>
      </trkpt>
      <trkpt lat="44.74617" lon="4.12153">
        <ele>1140.5</ele>
        <time>2022-06-10T09:59:21Z</time>
      </trkpt>
      <trkpt lat="44.74617" lon="4.12158">
        <ele>1140.7</ele>
        <time>2022-06-10T09:59:22Z</time>
      </trkpt>
      <trkpt lat="44.74617" lon="4.12161">
        <ele>1140.9</ele>
        <time>2022-06-10T09:59:23Z</time>
      </trkpt>
      <trkpt lat="44.74618" lon="4.12165">
        <ele>1141.1</ele>
        <time>2022-06-10T09:59:25Z</time>
      </trkpt>
      <trkpt lat="44.74619" lon="4.12167">
        <ele>1141.2</ele>
        <time>2022-06-10T09:59:26Z</time>
      </trkpt>
      <trkpt lat="44.74619" lon="4.12171">
        <ele>1141.3</ele>
        <time>2022-06-10T09:59:27Z</time>
      </trkpt>
      <trkpt lat="44.74621" lon="4.12175">
        <ele>1141.5</ele>
        <time>2022-06-10T09:59:28Z</time>
      </trkpt>
      <trkpt lat="44.74621" lon="4.12176">
        <ele>1141.6</ele>
        <time>2022-06-10T09:59:29Z</time>
      </trkpt>
      <trkpt lat="44.74623" lon="4.12179">
        <ele>1141.7</ele>
        <time>2022-06-10T09:59:30Z</time>
      </trkpt>
      <trkpt lat="44.74623" lon="4.12181">
        <ele>1141.9</ele>
        <time>2022-06-10T09:59:32Z</time>
      </trkpt>
      <trkpt lat="44.74625" lon="4.12185">
        <ele>1142.1</ele>
        <time>2022-06-10T09:59:33Z</time>
      </trkpt>
      <trkpt lat="44.74626" lon="4.12186">
        <ele>1142.1</ele>
        <time>2022-06-10T09:59:34Z</time>
      </trkpt>
      <trkpt lat="44.74628" lon="4.1219">
        <ele>1142.3</ele>
        <time>2022-06-10T09:59:35Z</time>
      </trkpt>
      <trkpt lat="44.74628" lon="4.12192">
        <ele>1142.4</ele>
        <time>2022-06-10T09:59:36Z</time>
      </trkpt>
      <trkpt lat="44.74632" lon="4.12197">
        <ele>1142.7</ele>
        <time>2022-06-10T09:59:38Z</time>
      </trkpt>
      <trkpt lat="44.74634" lon="4.12199">
        <ele>1142.9</ele>
        <time>2022-06-10T09:59:39Z</time>
      </trkpt>
      <trkpt lat="44.74635" lon="4.122">
        <ele>1143</ele>
        <time>2022-06-10T09:59:40Z</time>
      </trkpt>
      <trkpt lat="44.74637" lon="4.12202">
        <ele>1143.1</ele>
        <time>2022-06-10T09:59:42Z</time>
      </trkpt>
      <trkpt lat="44.74639" lon="4.12205">
        <ele>1143.3</ele>
        <time>2022-06-10T09:59:43Z</time>
      </trkpt>
      <trkpt lat="44.74642" lon="4.12208">
        <ele>1143.5</ele>
        <time>2022-06-10T09:59:44Z</time>
      </trkpt>
      <trkpt lat="44.74645" lon="4.1221">
        <ele>1143.7</ele>
        <time>2022-06-10T09:59:46Z</time>
      </trkpt>
      <trkpt lat="44.74646" lon="4.12211">
        <ele>1143.7</ele>
        <time>2022-06-10T09:59:47Z</time>
      </trkpt>
      <trkpt lat="44.7465" lon="4.12214">
        <ele>1144</ele>
        <time>2022-06-10T09:59:48Z</time>
      </trkpt>
      <trkpt lat="44.74652" lon="4.12216">
        <ele>1144.1</ele>
        <time>2022-06-10T09:59:49Z</time>
      </trkpt>
      <trkpt lat="44.74654" lon="4.12218">
        <ele>1144.2</ele>
        <time>2022-06-10T09:59:50Z</time>
      </trkpt>
      <trkpt lat="44.74656" lon="4.12219">
        <ele>1144.4</ele>
        <time>2022-06-10T09:59:51Z</time>
      </trkpt>
      <trkpt lat="44.74659" lon="4.12221">
        <ele>1144.5</ele>
        <time>2022-06-10T09:59:53Z</time>
      </trkpt>
      <trkpt lat="44.74663" lon="4.12222">
        <ele>1144.7</ele>
        <time>2022-06-10T09:59:54Z</time>
      </trkpt>
      <trkpt lat="44.74664" lon="4.12223">
        <ele>1144.8</ele>
        <time>2022-06-10T09:59:55Z</time>
      </trkpt>
      <trkpt lat="44.74667" lon="4.12225">
        <ele>1144.9</ele>
        <time>2022-06-10T09:59:56Z</time>
      </trkpt>
      <trkpt lat="44.74668" lon="4.12226">
        <ele>1145</ele>
        <time>2022-06-10T09:59:57Z</time>
      </trkpt>
      <trkpt lat="44.74671" lon="4.12228">
        <ele>1145.2</ele>
        <time>2022-06-10T09:59:58Z</time>
      </trkpt>
      <trkpt lat="44.74672" lon="4.12229">
        <ele>1145.2</ele>
        <time>2022-06-10T09:59:59Z</time>
      </trkpt>
      <trkpt lat="44.74676" lon="4.12232">
        <ele>1145.4</ele>
        <time>2022-06-10T10:00:00Z</time>
      </trkpt>
      <trkpt lat="44.74677" lon="4.12233">
        <ele>1145.4</ele>
        <time>2022-06-10T10:00:01Z</time>
      </trkpt>
      <trkpt lat="44.7468" lon="4.12235">
        <ele>1145.6</ele>
        <time>2022-06-10T10:00:02Z</time>
      </trkpt>
      <trkpt lat="44.74681" lon="4.12236">
        <ele>1145.6</ele>
        <time>2022-06-10T10:00:03Z</time>
      </trkpt>
      <trkpt lat="44.74684" lon="4.12238">
        <ele>1145.8</ele>
        <time>2022-06-10T10:00:04Z</time>
      </trkpt>
      <trkpt lat="44.74688" lon="4.12239">
        <ele>1145.9</ele>
        <time>2022-06-10T10:00:05Z</time>
      </trkpt>
      <trkpt lat="44.74689" lon="4.12239">
        <ele>1146</ele>
        <time>2022-06-10T10:00:06Z</time>
      </trkpt>
      <trkpt lat="44.74693" lon="4.12242">
        <ele>1146.2</ele>
        <time>2022-06-10T10:00:07Z</time>
      </trkpt>
      <trkpt lat="44.74696" lon="4.12244">
        <ele>1146.3</ele>
        <time>2022-06-10T10:00:08Z</time>
      </trkpt>
      <trkpt lat="44.74698" lon="4.12245">
        <ele>1146.4</ele>
        <time>2022-06-10T10:00:09Z</time>
      </trkpt>
      <trkpt lat="44.747" lon="4.12246">
        <ele>1146.5</ele>
        <time>2022-06-10T10:00:10Z</time>
      </trkpt>
      <trkpt lat="44.74703" lon="4.12248">
        <ele>1146.7</ele>
        <time>2022-06-10T10:00:12Z</time>
      </trkpt>
      <trkpt lat="44.74708" lon="4.12251">
        <ele>1146.9</ele>
        <time>2022-06-10T10:00:14Z</time>
      </trkpt>
      <trkpt lat="44.74711" lon="4.12253">
        <ele>1147</ele>
        <time>2022-06-10T10:00:15Z</time>
      </trkpt>
      <trkpt lat="44.74712" lon="4.12254">
        <ele>1147.1</ele>
        <time>2022-06-10T10:00:16Z</time>
      </trkpt>
      <trkpt lat="44.74716" lon="4.12256">
        <ele>1147.2</ele>
        <time>2022-06-10T10:00:17Z</time>
      </trkpt>
      <trkpt lat="44.74718" lon="4.12258">
        <ele>1147.3</ele>
        <time>2022-06-10T10:00:18Z</time>
      </trkpt>
      <trkpt lat="44.74721" lon="4.1226">
        <ele>1147.5</ele>
        <time>2022-06-10T10:00:20Z</time>
      </trkpt>
      <trkpt lat="44.74723" lon="4.12263">
        <ele>1147.6</ele>
        <time>2022-06-10T10:00:21Z</time>
      </trkpt>
      <trkpt lat="44.74726" lon="4.12267">
        <ele>1147.7</ele>
        <time>2022-06-10T10:00:22Z</time>
      </trkpt>
      <trkpt lat="44.74727" lon="4.12269">
        <ele>1147.8</ele>
        <time>2022-06-10T10:00:23Z</time>
      </trkpt>
      <trkpt lat="44.74729" lon="4.12271">
        <ele>1147.9</ele>
        <time>2022-06-10T10:00:24Z</time>
      </trkpt>
      <trkpt lat="44.74731" lon="4.12274">
        <ele>1148.1</ele>
        <time>2022-06-10T10:00:25Z</time>
      </trkpt>
      <trkpt lat="44.74735" lon="4.1228">
        <ele>1148.3</ele>
        <time>2022-06-10T10:00:27Z</time>
      </trkpt>
      <trkpt lat="44.74736" lon="4.12283">
        <ele>1148.5</ele>
        <time>2022-06-10T10:00:28Z</time>
      </trkpt>
      <trkpt lat="44.74738" lon="4.12288">
        <ele>1148.7</ele>
        <time>2022-06-10T10:00:29Z</time>
      </trkpt>
      <trkpt lat="44.74739" lon="4.12289">
        <ele>1148.7</ele>
        <time>2022-06-10T10:00:30Z</time>
      </trkpt>
      <trkpt lat="44.74741" lon="4.12295">
        <ele>1149</ele>
        <time>2022-06-10T10:00:31Z</time>
      </trkpt>
      <trkpt lat="44.74742" lon="4.12298">
        <ele>1149.1</ele>
        <time>2022-06-10T10:00:33Z</time>
      </trkpt>
      <trkpt lat="44.74744" lon="4.12304">
        <ele>1149.3</ele>
        <time>2022-06-10T10:00:35Z</time>
      </trkpt>
      <trkpt lat="44.74745" lon="4.1231">
        <ele>1149.5</ele>
        <time>2022-06-10T10:00:36Z</time>
      </trkpt>
      <trkpt lat="44.74745" lon="4.12313">
        <ele>1149.7</ele>
        <time>2022-06-10T10:00:37Z</time>
      </trkpt>
      <trkpt lat="44.74747" lon="4.12319">
        <ele>1149.9</ele>
        <time>2022-06-10T10:00:39Z</time>
      </trkpt>
      <trkpt lat="44.74747" lon="4.12322">
        <ele>1150</ele>
        <time>2022-06-10T10:00:40Z</time>
      </trkpt>
      <trkpt lat="44.74747" lon="4.12324">
        <ele>1150.1</ele>
        <time>2022-06-10T10:00:41Z</time>
      </trkpt>
      <trkpt lat="44.74748" lon="4.12329">
        <ele>1150.3</ele>
        <time>2022-06-10T10:00:42Z</time>
      </trkpt>
      <trkpt lat="44.74749" lon="4.12331">
        <ele>1150.3</ele>
        <time>2022-06-10T10:00:43Z</time>
      </trkpt>
      <trkpt lat="44.74749" lon="4.12335">
        <ele>1150.5</ele>
        <time>2022-06-10T10:00:44Z</time>
      </trkpt>
      <trkpt lat="44.74749" lon="4.12339">
        <ele>1150.6</ele>
        <time>2022-06-10T10:00:45Z</time>
      </trkpt>
      <trkpt lat="44.74749" lon="4.12343">
        <ele>1150.7</ele>
        <time>2022-06-10T10:00:46Z</time>
      </trkpt>
      <trkpt lat="44.74749" lon="4.12347">
        <ele>1150.8</ele>
        <time>2022-06-10T10:00:47Z</time>
      </trkpt>
      <trkpt lat="44.74748" lon="4.12352">
        <ele>1150.9</ele>
        <time>2022-06-10T10:00:48Z</time>
      </trkpt>
      <trkpt lat="44.74747" lon="4.12354">
        <ele>1150.9</ele>
        <time>2022-06-10T10:00:49Z</time>
      </trkpt>
      <trkpt lat="44.74745" lon="4.12358">
        <ele>1151</ele>
        <time>2022-06-10T10:00:50Z</time>
      </trkpt>
      <trkpt lat="44.74744" lon="4.1236">
        <ele>1151</ele>
        <time>2022-06-10T10:00:51Z</time>
      </trkpt>
      <trkpt lat="44.74742" lon="4.12366">
        <ele>1151.1</ele>
        <time>2022-06-10T10:00:52Z</time>
      </trkpt>
      <trkpt lat="44.7474" lon="4.12369">
        <ele>1151.2</ele>
        <time>2022-06-10T10:00:54Z</time>
      </trkpt>
      <trkpt lat="44.74737" lon="4.12372">
        <ele>1151.3</ele>
        <time>2022-06-10T10:00:55Z</time>
      </trkpt>
      <trkpt lat="44.74736" lon="4.12373">
        <ele>1151.3</ele>
        <time>2022-06-10T10:00:56Z</time>
      </trkpt>
      <trkpt lat="44.74733" lon="4.12376">
        <ele>1151.4</ele>
        <time>2022-06-10T10:00:57Z</time>
      </trkpt>
      <trkpt lat="44.74732" lon="4.12376">
        <ele>1151.4</ele>
        <time>2022-06-10T10:00:58Z</time>
      </trkpt>
      <trkpt lat="44.74729" lon="4.12378">
        <ele>1151.6</ele>
        <time>2022-06-10T10:00:59Z</time>
      </trkpt>
      <trkpt lat="44.74728" lon="4.12379">
        <ele>1151.7</ele>
        <time>2022-06-10T10:01:00Z</time>
      </trkpt>
      <trkpt lat="44.74724" lon="4.12379">
        <ele>1151.9</ele>
        <time>2022-06-10T10:01:01Z</time>
      </trkpt>
      <trkpt lat="44.74722" lon="4.1238">
        <ele>1152</ele>
        <time>2022-06-10T10:01:02Z</time>
      </trkpt>
      <trkpt lat="44.74718" lon="4.12379">
        <ele>1152.2</ele>
        <time>2022-06-10T10:01:03Z</time>
      </trkpt>
      <trkpt lat="44.74715" lon="4.12379">
        <ele>1152.3</ele>
        <time>2022-06-10T10:01:05Z</time>
      </trkpt>
      <trkpt lat="44.7471" lon="4.12378">
        <ele>1152.6</ele>
        <time>2022-06-10T10:01:06Z</time>
      </trkpt>
      <trkpt lat="44.74706" lon="4.12378">
        <ele>1152.7</ele>
        <time>2022-06-10T10:01:07Z</time>
      </trkpt>
      <trkpt lat="44.74701" lon="4.12377">
        <ele>1153</ele>
        <time>2022-06-10T10:01:09Z</time>
      </trkpt>
      <trkpt lat="44.74699" lon="4.12377">
        <ele>1153.1</ele>
        <time>2022-06-10T10:01:10Z</time>
      </trkpt>
      <trkpt lat="44.74695" lon="4.12376">
        <ele>1153.3</ele>
        <time>2022-06-10T10:01:12Z</time>
      </trkpt>
      <trkpt lat="44.74694" lon="4.12376">
        <ele>1153.3</ele>
        <time>2022-06-10T10:01:13Z</time>
      </trkpt>
      <trkpt lat="44.7469" lon="4.12376">
        <ele>1153.5</ele>
        <time>2022-06-10T10:01:14Z</time>
      </trkpt>
      <trkpt lat="44.74689" lon="4.12376">
        <ele>1153.6</ele>
        <time>2022-06-10T10:01:15Z</time>
      </trkpt>
      <trkpt lat="44.74685" lon="4.12375">
        <ele>1153.8</ele>
        <time>2022-06-10T10:01:16Z</time>
      </trkpt>
      <trkpt lat="44.74681" lon="4.12375">
        <ele>1154</ele>
        <time>2022-06-10T10:01:18Z</time>
      </trkpt>
      <trkpt lat="44.74679" lon="4.12375">
        <ele>1154.1</ele>
        <time>2022-06-10T10:01:19Z</time>
      </trkpt>
      <trkpt lat="44.74675" lon="4.12374">
        <ele>1154.3</ele>
        <time>2022-06-10T10:01:20Z</time>
      </trkpt>
      <trkpt lat="44.74673" lon="4.12374">
        <ele>1154.4</ele>
        <time>2022-06-10T10:01:21Z</time>
      </trkpt>
      <trkpt lat="44.74668" lon="4.12374">
        <ele>1154.6</ele>
        <time>2022-06-10T10:01:23Z</time>
      </trkpt>
      <trkpt lat="44.74666" lon="4.12374">
        <ele>1154.7</ele>
        <time>2022-06-10T10:01:24Z</time>
      </trkpt>
      <trkpt lat="44.74664" lon="4.12374">
        <ele>1154.8</ele>
        <time>2022-06-10T10:01:25Z</time>
      </trkpt>
      <trkpt lat="44.74662" lon="4.12375">
        <ele>1154.9</ele>
        <time>2022-06-10T10:01:26Z</time>
      </trkpt>
      <trkpt lat="44.74658" lon="4.12376">
        <ele>1155</ele>
        <time>2022-06-10T10:01:27Z</time>
      </trkpt>
      <trkpt lat="44.74657" lon="4.12376">
        <ele>1155.1</ele>
        <time>2022-06-10T10:01:28Z</time>
      </trkpt>
      <trkpt lat="44.74653" lon="4.12376">
        <ele>1155.3</ele>
        <time>2022-06-10T10:01:29Z</time>
      </trkpt>
      <trkpt lat="44.74651" lon="4.12376">
        <ele>1155.3</ele>
        <time>2022-06-10T10:01:30Z</time>
      </trkpt>
      <trkpt lat="44.74647" lon="4.12377">
        <ele>1155.5</ele>
        <time>2022-06-10T10:01:31Z</time>
      </trkpt>
      <trkpt lat="44.74645" lon="4.12377">
        <ele>1155.6</ele>
        <time>2022-06-10T10:01:32Z</time>
      </trkpt>
      <trkpt lat="44.74642" lon="4.12378">
        <ele>1155.7</ele>
        <time>2022-06-10T10:01:33Z</time>
      </trkpt>
      <trkpt lat="44.74637" lon="4.1238">
        <ele>1155.9</ele>
        <time>2022-06-10T10:01:34Z</time>
      </trkpt>
      <trkpt lat="44.74634" lon="4.12381">
        <ele>1156.1</ele>
        <time>2022-06-10T10:01:36Z</time>
      </trkpt>
      <trkpt lat="44.74631" lon="4.12382">
        <ele>1156.2</ele>
        <time>2022-06-10T10:01:37Z</time>
      </trkpt>
      <trkpt lat="44.74628" lon="4.12383">
        <ele>1156.3</ele>
        <time>2022-06-10T10:01:38Z</time>
      </trkpt>
      <trkpt lat="44.74625" lon="4.12385">
        <ele>1156.5</ele>
        <time>2022-06-10T10:01:39Z</time>
      </trkpt>
      <trkpt lat="44.74623" lon="4.12385">
        <ele>1156.5</ele>
        <time>2022-06-10T10:01:40Z</time>
      </trkpt>
      <trkpt lat="44.74621" lon="4.12387">
        <ele>1156.6</ele>
        <time>2022-06-10T10:01:41Z</time>
      </trkpt>
      <trkpt lat="44.74618" lon="4.12389">
        <ele>1156.8</ele>
        <time>2022-06-10T10:01:42Z</time>
      </trkpt>
      <trkpt lat="44.74617" lon="4.12389">
        <ele>1156.8</ele>
        <time>2022-06-10T10:01:43Z</time>
      </trkpt>
      <trkpt lat="44.74612" lon="4.1239">
        <ele>1157</ele>
        <time>2022-06-10T10:01:44Z</time>
      </trkpt>
      <trkpt lat="44.74611" lon="4.12391">
        <ele>1157.1</ele>
        <time>2022-06-10T10:01:45Z</time>
      </trkpt>
      <trkpt lat="44.74606" lon="4.12393">
        <ele>1157.3</ele>
        <time>2022-06-10T10:01:47Z</time>
      </trkpt>
      <trkpt lat="44.74603" lon="4.12395">
        <ele>1157.5</ele>
        <time>2022-06-10T10:01:48Z</time>
      </trkpt>
      <trkpt lat="44.74602" lon="4.12396">
        <ele>1157.5</ele>
        <time>2022-06-10T10:01:49Z</time>
      </trkpt>
      <trkpt lat="44.74598" lon="4.12398">
        <ele>1157.7</ele>
        <time>2022-06-10T10:01:50Z</time>
      </trkpt>
      <trkpt lat="44.74595" lon="4.12399">
        <ele>1157.8</ele>
        <time>2022-06-10T10:01:51Z</time>
      </trkpt>
      <trkpt lat="44.74593" lon="4.124">
        <ele>1157.9</ele>
        <time>2022-06-10T10:01:53Z</time>
      </trkpt>
      <trkpt lat="44.74588" lon="4.12401">
        <ele>1158.2</ele>
        <time>2022-06-10T10:01:55Z</time>
      </trkpt>
      <trkpt lat="44.74585" lon="4.12403">
        <ele>1158.4</ele>
        <time>2022-06-10T10:01:56Z</time>
      </trkpt>
      <trkpt lat="44.74584" lon="4.12404">
        <ele>1158.4</ele>
        <time>2022-06-10T10:01:57Z</time>
      </trkpt>
      <trkpt lat="44.74581" lon="4.12405">
        <ele>1158.6</ele>
        <time>2022-06-10T10:01:58Z</time>
      </trkpt>
      <trkpt lat="44.74578" lon="4.12406">
        <ele>1158.7</ele>
        <time>2022-06-10T10:01:59Z</time>
      </trkpt>
      <trkpt lat="44.74573" lon="4.12409">
        <ele>1158.9</ele>
        <time>2022-06-10T10:02:01Z</time>
      </trkpt>
      <trkpt lat="44.7457" lon="4.1241">
        <ele>1159</ele>
        <time>2022-06-10T10:02:02Z</time>
      </trkpt>
      <trkpt lat="44.74568" lon="4.12411">
        <ele>1159.1</ele>
        <time>2022-06-10T10:02:03Z</time>
      </trkpt>
      <trkpt lat="44.74565" lon="4.12412">
        <ele>1159.2</ele>
        <time>2022-06-10T10:02:04Z</time>
      </trkpt>
      <trkpt lat="44.74561" lon="4.12414">
        <ele>1159.4</ele>
        <time>2022-06-10T10:02:05Z</time>
      </trkpt>
      <trkpt lat="44.7456" lon="4.12414">
        <ele>1159.5</ele>
        <time>2022-06-10T10:02:06Z</time>
      </trkpt>
      <trkpt lat="44.74555" lon="4.12417">
        <ele>1159.7</ele>
        <time>2022-06-10T10:02:07Z</time>
      </trkpt>
      <trkpt lat="44.74553" lon="4.12418">
        <ele>1159.8</ele>
        <time>2022-06-10T10:02:08Z</time>
      </trkpt>
      <trkpt lat="44.7455" lon="4.1242">
        <ele>1159.9</ele>
        <time>2022-06-10T10:02:09Z</time>
      </trkpt>
      <trkpt lat="44.74546" lon="4.12422">
        <ele>1160.1</ele>
        <time>2022-06-10T10:02:11Z</time>
      </trkpt>
      <trkpt lat="44.74545" lon="4.12423">
        <ele>1160.1</ele>
        <time>2022-06-10T10:02:12Z</time>
      </trkpt>
      <trkpt lat="44.74543" lon="4.12424">
        <ele>1160.2</ele>
        <time>2022-06-10T10:02:13Z</time>
      </trkpt>
      <trkpt lat="44.7454" lon="4.12426">
        <ele>1160.4</ele>
        <time>2022-06-10T10:02:14Z</time>
      </trkpt>
      <trkpt lat="44.74538" lon="4.12427">
        <ele>1160.4</ele>
        <time>2022-06-10T10:02:15Z</time>
      </trkpt>
      <trkpt lat="44.74534" lon="4.1243">
        <ele>1160.6</ele>
        <time>2022-06-10T10:02:17Z</time>
      </trkpt>
      <trkpt lat="44.7453" lon="4.12432">
        <ele>1160.8</ele>
        <time>2022-06-10T10:02:18Z</time>
      </trkpt>
      <trkpt lat="44.74529" lon="4.12432">
        <ele>1160.9</ele>
        <time>2022-06-10T10:02:19Z</time>
      </trkpt>
      <trkpt lat="44.74525" lon="4.12434">
        <ele>1161</ele>
        <time>2022-06-10T10:02:20Z</time>
      </trkpt>
      <trkpt lat="44.74524" lon="4.12435">
        <ele>1161.1</ele>
        <time>2022-06-10T10:02:21Z</time>
      </trkpt>
      <trkpt lat="44.74521" lon="4.12436">
        <ele>1161.2</ele>
        <time>2022-06-10T10:02:22Z</time>
      </trkpt>
      <trkpt lat="44.74517" lon="4.12438">
        <ele>1161.4</ele>
        <time>2022-06-10T10:02:23Z</time>
      </trkpt>
      <trkpt lat="44.74516" lon="4.12438">
        <ele>1161.4</ele>
        <time>2022-06-10T10:02:24Z</time>
      </trkpt>
      <trkpt lat="44.74514" lon="4.1244">
        <ele>1161.6</ele>
        <time>2022-06-10T10:02:25Z</time>
      </trkpt>
      <trkpt lat="44.74511" lon="4.12442">
        <ele>1161.7</ele>
        <time>2022-06-10T10:02:26Z</time>
      </trkpt>
      <trkpt lat="44.74507" lon="4.12443">
        <ele>1161.9</ele>
        <time>2022-06-10T10:02:27Z</time>
      </trkpt>
      <trkpt lat="44.74505" lon="4.12444">
        <ele>1162</ele>
        <time>2022-06-10T10:02:28Z</time>
      </trkpt>
      <trkpt lat="44.74502" lon="4.12445">
        <ele>1162.1</ele>
        <time>2022-06-10T10:02:29Z</time>
      </trkpt>
      <trkpt lat="44.74499" lon="4.12446">
        <ele>1162.2</ele>
        <time>2022-06-10T10:02:30Z</time>
      </trkpt>
      <trkpt lat="44.74496" lon="4.12449">
        <ele>1162.4</ele>
        <time>2022-06-10T10:02:31Z</time>
      </trkpt>
      <trkpt lat="44.74494" lon="4.12449">
        <ele>1162.5</ele>
        <time>2022-06-10T10:02:32Z</time>
      </trkpt>
      <trkpt lat="44.7449" lon="4.12451">
        <ele>1162.7</ele>
        <time>2022-06-10T10:02:33Z</time>
      </trkpt>
      <trkpt lat="44.74489" lon="4.12452">
        <ele>1162.8</ele>
        <time>2022-06-10T10:02:34Z</time>
      </trkpt>
      <trkpt lat="44.74486" lon="4.12452">
        <ele>1162.9</ele>
        <time>2022-06-10T10:02:35Z</time>
      </trkpt>
      <trkpt lat="44.74483" lon="4.12454">
        <ele>1163.1</ele>
        <time>2022-06-10T10:02:36Z</time>
      </trkpt>
      <trkpt lat="44.74482" lon="4.12455">
        <ele>1163.1</ele>
        <time>2022-06-10T10:02:37Z</time>
      </trkpt>
      <trkpt lat="44.74479" lon="4.12457">
        <ele>1163.3</ele>
        <time>2022-06-10T10:02:38Z</time>
      </trkpt>
      <trkpt lat="44.74476" lon="4.12458">
        <ele>1163.4</ele>
        <time>2022-06-10T10:02:39Z</time>
      </trkpt>
      <trkpt lat="44.74471" lon="4.1246">
        <ele>1163.6</ele>
        <time>2022-06-10T10:02:40Z</time>
      </trkpt>
      <trkpt lat="44.74468" lon="4.12461">
        <ele>1163.8</ele>
        <time>2022-06-10T10:02:41Z</time>
      </trkpt>
      <trkpt lat="44.74466" lon="4.12463">
        <ele>1163.9</ele>
        <time>2022-06-10T10:02:43Z</time>
      </trkpt>
      <trkpt lat="44.74463" lon="4.12465">
        <ele>1164.1</ele>
        <time>2022-06-10T10:02:44Z</time>
      </trkpt>
      <trkpt lat="44.74458" lon="4.12467">
        <ele>1164.3</ele>
        <time>2022-06-10T10:02:45Z</time>
      </trkpt>
      <trkpt lat="44.74455" lon="4.12469">
        <ele>1164.5</ele>
        <time>2022-06-10T10:02:46Z</time>
      </trkpt>
      <trkpt lat="44.74452" lon="4.12472">
        <ele>1164.6</ele>
        <time>2022-06-10T10:02:48Z</time>
      </trkpt>
      <trkpt lat="44.74449" lon="4.12473">
        <ele>1164.8</ele>
        <time>2022-06-10T10:02:49Z</time>
      </trkpt>
      <trkpt lat="44.74446" lon="4.12474">
        <ele>1164.9</ele>
        <time>2022-06-10T10:02:50Z</time>
      </trkpt>
      <trkpt lat="44.74443" lon="4.12476">
        <ele>1165.1</ele>
        <time>2022-06-10T10:02:51Z</time>
      </trkpt>
      <trkpt lat="44.74439" lon="4.12479">
        <ele>1165.3</ele>
        <time>2022-06-10T10:02:53Z</time>
      </trkpt>
      <trkpt lat="44.74436" lon="4.12482">
        <ele>1165.5</ele>
        <time>2022-06-10T10:02:54Z</time>
      </trkpt>
      <trkpt lat="44.74435" lon="4.12483">
        <ele>1165.5</ele>
        <time>2022-06-10T10:02:55Z</time>
      </trkpt>
      <trkpt lat="44.74432" lon="4.12484">
        <ele>1165.7</ele>
        <time>2022-06-10T10:02:56Z</time>
      </trkpt>
      <trkpt lat="44.74428" lon="4.12489">
        <ele>1165.9</ele>
        <time>2022-06-10T10:02:57Z</time>
      </trkpt>
      <trkpt lat="44.74424" lon="4.12491">
        <ele>1166.1</ele>
        <time>2022-06-10T10:02:59Z</time>
      </trkpt>
      <trkpt lat="44.74422" lon="4.12493">
        <ele>1166.2</ele>
        <time>2022-06-10T10:03:00Z</time>
      </trkpt>
      <trkpt lat="44.74417" lon="4.12498">
        <ele>1166.5</ele>
        <time>2022-06-10T10:03:01Z</time>
      </trkpt>
      <trkpt lat="44.74415" lon="4.125">
        <ele>1166.7</ele>
        <time>2022-06-10T10:03:03Z</time>
      </trkpt>
      <trkpt lat="44.74412" lon="4.12503">
        <ele>1166.8</ele>
        <time>2022-06-10T10:03:04Z</time>
      </trkpt>
      <trkpt lat="44.7441" lon="4.12506">
        <ele>1167</ele>
        <time>2022-06-10T10:03:05Z</time>
      </trkpt>
      <trkpt lat="44.74406" lon="4.12511">
        <ele>1167.2</ele>
        <time>2022-06-10T10:03:07Z</time>
      </trkpt>
      <trkpt lat="44.74404" lon="4.12513">
        <ele>1167.3</ele>
        <time>2022-06-10T10:03:08Z</time>
      </trkpt>
      <trkpt lat="44.74402" lon="4.12516">
        <ele>1167.5</ele>
        <time>2022-06-10T10:03:09Z</time>
      </trkpt>
      <trkpt lat="44.744" lon="4.12519">
        <ele>1167.6</ele>
        <time>2022-06-10T10:03:10Z</time>
      </trkpt>
      <trkpt lat="44.74398" lon="4.12522">
        <ele>1167.8</ele>
        <time>2022-06-10T10:03:11Z</time>
      </trkpt>
      <trkpt lat="44.74396" lon="4.12525">
        <ele>1167.9</ele>
        <time>2022-06-10T10:03:12Z</time>
      </trkpt>
      <trkpt lat="44.74394" lon="4.12528">
        <ele>1168</ele>
        <time>2022-06-10T10:03:13Z</time>
      </trkpt>
      <trkpt lat="44.74391" lon="4.1253">
        <ele>1168.2</ele>
        <time>2022-06-10T10:03:14Z</time>
      </trkpt>
      <trkpt lat="44.74386" lon="4.12538">
        <ele>1168.6</ele>
        <time>2022-06-10T10:03:16Z</time>
      </trkpt>
      <trkpt lat="44.74384" lon="4.12541">
        <ele>1168.7</ele>
        <time>2022-06-10T10:03:18Z</time>
      </trkpt>
      <trkpt lat="44.74382" lon="4.12545">
        <ele>1168.9</ele>
        <time>2022-06-10T10:03:19Z</time>
      </trkpt>
      <trkpt lat="44.74381" lon="4.12546">
        <ele>1168.9</ele>
        <time>2022-06-10T10:03:20Z</time>
      </trkpt>
      <trkpt lat="44.74378" lon="4.1255">
        <ele>1169.1</ele>
        <time>2022-06-10T10:03:21Z</time>
      </trkpt>
      <trkpt lat="44.74377" lon="4.12552">
        <ele>1169.2</ele>
        <time>2022-06-10T10:03:22Z</time>
      </trkpt>
      <trkpt lat="44.74375" lon="4.12555">
        <ele>1169.3</ele>
        <time>2022-06-10T10:03:23Z</time>
      </trkpt>
      <trkpt lat="44.74372" lon="4.12559">
        <ele>1169.5</ele>
        <time>2022-06-10T10:03:24Z</time>
      </trkpt>
      <trkpt lat="44.74372" lon="4.1256">
        <ele>1169.6</ele>
        <time>2022-06-10T10:03:25Z</time>
      </trkpt>
      <trkpt lat="44.74369" lon="4.12564">
        <ele>1169.8</ele>
        <time>2022-06-10T10:03:26Z</time>
      </trkpt>
      <trkpt lat="44.74368" lon="4.12566">
        <ele>1169.8</ele>
        <time>2022-06-10T10:03:27Z</time>
      </trkpt>
      <trkpt lat="44.74366" lon="4.12568">
        <ele>1170</ele>
        <time>2022-06-10T10:03:28Z</time>
      </trkpt>
      <trkpt lat="44.74363" lon="4.12572">
        <ele>1170.2</ele>
        <time>2022-06-10T10:03:29Z</time>
      </trkpt>
      <trkpt lat="44.74361" lon="4.12575">
        <ele>1170.3</ele>
        <time>2022-06-10T10:03:30Z</time>
      </trkpt>
      <trkpt lat="44.74357" lon="4.1258">
        <ele>1170.5</ele>
        <time>2022-06-10T10:03:32Z</time>
      </trkpt>
      <trkpt lat="44.74356" lon="4.12581">
        <ele>1170.6</ele>
        <time>2022-06-10T10:03:33Z</time>
      </trkpt>
      <trkpt lat="44.74354" lon="4.12583">
        <ele>1170.7</ele>
        <time>2022-06-10T10:03:34Z</time>
      </trkpt>
      <trkpt lat="44.74353" lon="4.12586">
        <ele>1170.8</ele>
        <time>2022-06-10T10:03:35Z</time>
      </trkpt>
      <trkpt lat="44.74351" lon="4.1259">
        <ele>1171</ele>
        <time>2022-06-10T10:03:36Z</time>
      </trkpt>
      <trkpt lat="44.74348" lon="4.12594">
        <ele>1171.2</ele>
        <time>2022-06-10T10:03:37Z</time>
      </trkpt>
      <trkpt lat="44.74347" lon="4.12595">
        <ele>1171.2</ele>
        <time>2022-06-10T10:03:38Z</time>
      </trkpt>
      <trkpt lat="44.74344" lon="4.12599">
        <ele>1171.4</ele>
        <time>2022-06-10T10:03:39Z</time>
      </trkpt>
      <trkpt lat="44.74343" lon="4.126">
        <ele>1171.4</ele>
        <time>2022-06-10T10:03:40Z</time>
      </trkpt>
      <trkpt lat="44.74341" lon="4.12602">
        <ele>1171.6</ele>
        <time>2022-06-10T10:03:41Z</time>
      </trkpt>
      <trkpt lat="44.74338" lon="4.12608">
        <ele>1171.8</ele>
        <time>2022-06-10T10:03:42Z</time>
      </trkpt>
      <trkpt lat="44.74336" lon="4.12611">
        <ele>1171.9</ele>
        <time>2022-06-10T10:03:44Z</time>
      </trkpt>
      <trkpt lat="44.74334" lon="4.12614">
        <ele>1172.1</ele>
        <time>2022-06-10T10:03:45Z</time>
      </trkpt>
      <trkpt lat="44.74332" lon="4.12617">
        <ele>1172.2</ele>
        <time>2022-06-10T10:03:46Z</time>
      </trkpt>
      <trkpt lat="44.7433" lon="4.1262">
        <ele>1172.3</ele>
        <time>2022-06-10T10:03:47Z</time>
      </trkpt>
      <trkpt lat="44.74327" lon="4.12623">
        <ele>1172.5</ele>
        <time>2022-06-10T10:03:48Z</time>
      </trkpt>
      <trkpt lat="44.74327" lon="4.12624">
        <ele>1172.5</ele>
        <time>2022-06-10T10:03:49Z</time>
      </trkpt>
      <trkpt lat="44.74324" lon="4.12629">
        <ele>1172.7</ele>
        <time>2022-06-10T10:03:50Z</time>
      </trkpt>
      <trkpt lat="44.74322" lon="4.12633">
        <ele>1172.8</ele>
        <time>2022-06-10T10:03:51Z</time>
      </trkpt>
      <trkpt lat="44.74318" lon="4.12639">
        <ele>1173.1</ele>
        <time>2022-06-10T10:03:53Z</time>
      </trkpt>
      <trkpt lat="44.74316" lon="4.12642">
        <ele>1173.2</ele>
        <time>2022-06-10T10:03:55Z</time>
      </trkpt>
      <trkpt lat="44.74313" lon="4.12647">
        <ele>1173.3</ele>
        <time>2022-06-10T10:03:56Z</time>
      </trkpt>
      <trkpt lat="44.7431" lon="4.1265">
        <ele>1173.5</ele>
        <time>2022-06-10T10:03:57Z</time>
      </trkpt>
      <trkpt lat="44.74308" lon="4.12654">
        <ele>1173.6</ele>
        <time>2022-06-10T10:03:58Z</time>
      </trkpt>
      <trkpt lat="44.74305" lon="4.12659">
        <ele>1173.8</ele>
        <time>2022-06-10T10:04:00Z</time>
      </trkpt>
      <trkpt lat="44.74302" lon="4.12663">
        <ele>1173.9</ele>
        <time>2022-06-10T10:04:01Z</time>
      </trkpt>
      <trkpt lat="44.743" lon="4.12666">
        <ele>1174</ele>
        <time>2022-06-10T10:04:02Z</time>
      </trkpt>
      <trkpt lat="44.74298" lon="4.1267">
        <ele>1174.1</ele>
        <time>2022-06-10T10:04:03Z</time>
      </trkpt>
      <trkpt lat="44.74294" lon="4.12676">
        <ele>1174.3</ele>
        <time>2022-06-10T10:04:05Z</time>
      </trkpt>
      <trkpt lat="44.74291" lon="4.12679">
        <ele>1174.4</ele>
        <time>2022-06-10T10:04:06Z</time>
      </trkpt>
      <trkpt lat="44.74289" lon="4.12682">
        <ele>1174.5</ele>
        <time>2022-06-10T10:04:07Z</time>
      </trkpt>
      <trkpt lat="44.74287" lon="4.12685">
        <ele>1174.6</ele>
        <time>2022-06-10T10:04:08Z</time>
      </trkpt>
      <trkpt lat="44.74282" lon="4.12691">
        <ele>1174.8</ele>
        <time>2022-06-10T10:04:09Z</time>
      </trkpt>
      <trkpt lat="44.7428" lon="4.12695">
        <ele>1175</ele>
        <time>2022-06-10T10:04:11Z</time>
      </trkpt>
      <trkpt lat="44.74277" lon="4.12698">
        <ele>1175.1</ele>
        <time>2022-06-10T10:04:12Z</time>
      </trkpt>
      <trkpt lat="44.74274" lon="4.12703">
        <ele>1175.3</ele>
        <time>2022-06-10T10:04:13Z</time>
      </trkpt>
      <trkpt lat="44.74271" lon="4.12707">
        <ele>1175.4</ele>
        <time>2022-06-10T10:04:14Z</time>
      </trkpt>
      <trkpt lat="44.74269" lon="4.1271">
        <ele>1175.5</ele>
        <time>2022-06-10T10:04:16Z</time>
      </trkpt>
      <trkpt lat="44.74267" lon="4.12713">
        <ele>1175.6</ele>
        <time>2022-06-10T10:04:17Z</time>
      </trkpt>
      <trkpt lat="44.74265" lon="4.12716">
        <ele>1175.7</ele>
        <time>2022-06-10T10:04:18Z</time>
      </trkpt>
      <trkpt lat="44.74264" lon="4.12719">
        <ele>1175.8</ele>
        <time>2022-06-10T10:04:19Z</time>
      </trkpt>
      <trkpt lat="44.74261" lon="4.12722">
        <ele>1175.9</ele>
        <time>2022-06-10T10:04:20Z</time>
      </trkpt>
      <trkpt lat="44.74259" lon="4.12725">
        <ele>1176</ele>
        <time>2022-06-10T10:04:21Z</time>
      </trkpt>
      <trkpt lat="44.74255" lon="4.12731">
        <ele>1176.2</ele>
        <time>2022-06-10T10:04:23Z</time>
      </trkpt>
      <trkpt lat="44.74252" lon="4.12737">
        <ele>1176.4</ele>
        <time>2022-06-10T10:04:24Z</time>
      </trkpt>
      <trkpt lat="44.7425" lon="4.12742">
        <ele>1176.5</ele>
        <time>2022-06-10T10:04:26Z</time>
      </trkpt>
      <trkpt lat="44.74248" lon="4.12746">
        <ele>1176.6</ele>
        <time>2022-06-10T10:04:27Z</time>
      </trkpt>
      <trkpt lat="44.74246" lon="4.1275">
        <ele>1176.7</ele>
        <time>2022-06-10T10:04:28Z</time>
      </trkpt>
      <trkpt lat="44.74244" lon="4.12753">
        <ele>1176.8</ele>
        <time>2022-06-10T10:04:29Z</time>
      </trkpt>
      <trkpt lat="44.74242" lon="4.12756">
        <ele>1176.9</ele>
        <time>2022-06-10T10:04:30Z</time>
      </trkpt>
      <trkpt lat="44.7424" lon="4.1276">
        <ele>1177.1</ele>
        <time>2022-06-10T10:04:31Z</time>
      </trkpt>
      <trkpt lat="44.74237" lon="4.12767">
        <ele>1177.3</ele>
        <time>2022-06-10T10:04:33Z</time>
      </trkpt>
      <trkpt lat="44.74235" lon="4.1277">
        <ele>1177.4</ele>
        <time>2022-06-10T10:04:34Z</time>
      </trkpt>
      <trkpt lat="44.74233" lon="4.12774">
        <ele>1177.5</ele>
        <time>2022-06-10T10:04:35Z</time>
      </trkpt>
      <trkpt lat="44.74231" lon="4.12777">
        <ele>1177.6</ele>
        <time>2022-06-10T10:04:36Z</time>
      </trkpt>
      <trkpt lat="44.74228" lon="4.12783">
        <ele>1177.8</ele>
        <time>2022-06-10T10:04:37Z</time>
      </trkpt>
      <trkpt lat="44.74226" lon="4.12786">
        <ele>1177.9</ele>
        <time>2022-06-10T10:04:38Z</time>
      </trkpt>
      <trkpt lat="44.74224" lon="4.1279">
        <ele>1178</ele>
        <time>2022-06-10T10:04:39Z</time>
      </trkpt>
      <trkpt lat="44.74222" lon="4.12794">
        <ele>1178.1</ele>
        <time>2022-06-10T10:04:40Z</time>
      </trkpt>
      <trkpt lat="44.7422" lon="4.12798">
        <ele>1178.3</ele>
        <time>2022-06-10T10:04:42Z</time>
      </trkpt>
      <trkpt lat="44.74218" lon="4.12801">
        <ele>1178.4</ele>
        <time>2022-06-10T10:04:43Z</time>
      </trkpt>
      <trkpt lat="44.74215" lon="4.12805">
        <ele>1178.5</ele>
        <time>2022-06-10T10:04:44Z</time>
      </trkpt>
      <trkpt lat="44.74213" lon="4.1281">
        <ele>1178.7</ele>
        <time>2022-06-10T10:04:46Z</time>
      </trkpt>
      <trkpt lat="44.74211" lon="4.12813">
        <ele>1178.8</ele>
        <time>2022-06-10T10:04:47Z</time>
      </trkpt>
      <trkpt lat="44.74209" lon="4.12817">
        <ele>1178.9</ele>
        <time>2022-06-10T10:04:48Z</time>
      </trkpt>
      <trkpt lat="44.74206" lon="4.12823">
        <ele>1179.1</ele>
        <time>2022-06-10T10:04:49Z</time>
      </trkpt>
      <trkpt lat="44.74205" lon="4.12828">
        <ele>1179.3</ele>
        <time>2022-06-10T10:04:51Z</time>
      </trkpt>
      <trkpt lat="44.74204" lon="4.1283">
        <ele>1179.4</ele>
        <time>2022-06-10T10:04:52Z</time>
      </trkpt>
      <trkpt lat="44.74203" lon="4.12834">
        <ele>1179.5</ele>
        <time>2022-06-10T10:04:53Z</time>
      </trkpt>
      <trkpt lat="44.74202" lon="4.12836">
        <ele>1179.6</ele>
        <time>2022-06-10T10:04:54Z</time>
      </trkpt>
      <trkpt lat="44.74201" lon="4.1284">
        <ele>1179.7</ele>
        <time>2022-06-10T10:04:55Z</time>
      </trkpt>
      <trkpt lat="44.74201" lon="4.12842">
        <ele>1179.8</ele>
        <time>2022-06-10T10:04:56Z</time>
      </trkpt>
      <trkpt lat="44.742" lon="4.12843">
        <ele>1179.8</ele>
        <time>2022-06-10T10:04:57Z</time>
      </trkpt>
      <trkpt lat="44.742" lon="4.12843">
        <ele>1179.9</ele>
        <time>2022-06-10T10:04:58Z</time>
      </trkpt>
      <trkpt lat="44.742" lon="4.12843">
        <ele>1179.9</ele>
        <time>2022-06-10T10:04:59Z</time>
      </trkpt>
      <trkpt lat="44.742" lon="4.12841">
        <ele>1179.9</ele>
        <time>2022-06-10T10:05:00Z</time>
      </trkpt>
      <trkpt lat="44.742" lon="4.1284">
        <ele>1180</ele>
        <time>2022-06-10T10:05:01Z</time>
      </trkpt>
      <trkpt lat="44.742" lon="4.1284">
        <ele>1180</ele>
        <time>2022-06-10T10:05:02Z</time>
      </trkpt>
      <trkpt lat="44.742" lon="4.1284">
        <ele>1180</ele>
        <time>2022-06-10T10:05:03Z</time>
      </trkpt>
      <trkpt lat="44.742" lon="4.1284">
        <ele>1180</ele>
        <time>2022-06-10T10:05:04Z</time>
      </trkpt>
      <trkpt lat="44.742" lon="4.1284">
        <ele>1180</ele>
        <time>2022-06-10T10:05:05Z</time>
      </trkpt>
      <trkpt lat="44.742" lon="4.1284">
        <ele>1180</ele>
        <time>2022-06-10T10:05:06Z</time>
      </trkpt>
      <trkpt lat="44.74201" lon="4.1284">
        <ele>1180</ele>
        <time>2022-06-10T10:05:07Z</time>
      </trkpt>
      <trkpt lat="44.74201" lon="4.12841">
        <ele>1180.1</ele>
        <time>2022-06-10T10:05:09Z</time>
      </trkpt>
      <trkpt lat="44.74202" lon="4.12842">
        <ele>1180.1</ele>
        <time>2022-06-10T10:05:10Z</time>
      </trkpt>
      <trkpt lat="44.74203" lon="4.12844">
        <ele>1180.2</ele>
        <time>2022-06-10T10:05:11Z</time>
      </trkpt>
      <trkpt lat="44.74204" lon="4.12849">
        <ele>1180.4</ele>
        <time>2022-06-10T10:05:12Z</time>
      </trkpt>
      <trkpt lat="44.74204" lon="4.12851">
        <ele>1180.4</ele>
        <time>2022-06-10T10:05:14Z</time>
      </trkpt>
      <trkpt lat="44.74204" lon="4.12853">
        <ele>1180.5</ele>
        <time>2022-06-10T10:05:15Z</time>
      </trkpt>
      <trkpt lat="44.74204" lon="4.12854">
        <ele>1180.6</ele>
        <time>2022-06-10T10:05:16Z</time>
      </trkpt>
      <trkpt lat="44.74204" lon="4.12856">
        <ele>1180.6</ele>
        <time>2022-06-10T10:05:17Z</time>
      </trkpt>
      <trkpt lat="44.74204" lon="4.12856">
        <ele>1180.6</ele>
        <time>2022-06-10T10:05:18Z</time>
      </trkpt>
      <trkpt lat="44.74204" lon="4.12856">
        <ele>1180.6</ele>
        <time>2022-06-10T10:05:19Z</time>
      </trkpt>
      <trkpt lat="44.74204" lon="4.12856">
        <ele>1180.6</ele>
        <time>2022-06-10T10:05:20Z</time>
      </trkpt>
      <trkpt lat="44.74204" lon="4.12856">
        <ele>1180.6</ele>
        <time>2022-06-10T10:05:21Z</time>
      </trkpt>
      <trkpt lat="44.74203" lon="4.12857">
        <ele>1180.7</ele>
        <time>2022-06-10T10:05:22Z</time>
      </trkpt>
      <trkpt lat="44.74203" lon="4.12857">
        <ele>1180.7</ele>
        <time>2022-06-10T10:05:23Z</time>
      </trkpt>
      <trkpt lat="44.74204" lon="4.12857">
        <ele>1180.7</ele>
        <time>2022-06-10T10:05:24Z</time>
      </trkpt>
      <trkpt lat="44.74204" lon="4.12857">
        <ele>1180.7</ele>
        <time>2022-06-10T10:05:25Z</time>
      </trkpt>
      <trkpt lat="44.74204" lon="4.12857">
        <ele>1180.7</ele>
        <time>2022-06-10T10:05:26Z</time>
      </trkpt>
      <trkpt lat="44.74204" lon="4.12857">
        <ele>1180.7</ele>
        <time>2022-06-10T10:05:27Z</time>
      </trkpt>
      <trkpt lat="44.74205" lon="4.12861">
        <ele>1180.8</ele>
        <time>2022-06-10T10:08:10Z</time>
      </trkpt>
      <trkpt lat="44.74208" lon="4.12866">
        <ele>1181.1</ele>
        <time>2022-06-10T10:08:12Z</time>
      </trkpt>
      <trkpt lat="44.74212" lon="4.1287">
        <ele>1181.3</ele>
        <time>2022-06-10T10:08:14Z</time>
      </trkpt>
      <trkpt lat="44.74214" lon="4.12875">
        <ele>1181.6</ele>
        <time>2022-06-10T10:08:15Z</time>
      </trkpt>
      <trkpt lat="44.74215" lon="4.12876">
        <ele>1181.7</ele>
        <time>2022-06-10T10:08:16Z</time>
      </trkpt>
      <trkpt lat="44.74217" lon="4.12879">
        <ele>1181.8</ele>
        <time>2022-06-10T10:08:17Z</time>
      </trkpt>
      <trkpt lat="44.74219" lon="4.12882">
        <ele>1182</ele>
        <time>2022-06-10T10:08:18Z</time>
      </trkpt>
      <trkpt lat="44.74221" lon="4.12885">
        <ele>1182.2</ele>
        <time>2022-06-10T10:08:19Z</time>
      </trkpt>
      <trkpt lat="44.74223" lon="4.12888">
        <ele>1182.3</ele>
        <time>2022-06-10T10:08:20Z</time>
      </trkpt>
      <trkpt lat="44.74226" lon="4.12892">
        <ele>1182.6</ele>
        <time>2022-06-10T10:08:21Z</time>
      </trkpt>
      <trkpt lat="44.74227" lon="4.12893">
        <ele>1182.7</ele>
        <time>2022-06-10T10:08:22Z</time>
      </trkpt>
      <trkpt lat="44.7423" lon="4.12896">
        <ele>1182.9</ele>
        <time>2022-06-10T10:08:23Z</time>
      </trkpt>
      <trkpt lat="44.74233" lon="4.129">
        <ele>1183.1</ele>
        <time>2022-06-10T10:08:24Z</time>
      </trkpt>
      <trkpt lat="44.74236" lon="4.12903">
        <ele>1183.3</ele>
        <time>2022-06-10T10:08:26Z</time>
      </trkpt>
      <trkpt lat="44.74237" lon="4.12905">
        <ele>1183.4</ele>
        <time>2022-06-10T10:08:27Z</time>
      </trkpt>
      <trkpt lat="44.7424" lon="4.12909">
        <ele>1183.7</ele>
        <time>2022-06-10T10:08:28Z</time>
      </trkpt>
      <trkpt lat="44.74242" lon="4.12913">
        <ele>1183.9</ele>
        <time>2022-06-10T10:08:30Z</time>
      </trkpt>
      <trkpt lat="44.74242" lon="4.12914">
        <ele>1183.9</ele>
        <time>2022-06-10T10:08:31Z</time>
      </trkpt>
      <trkpt lat="44.74245" lon="4.12917">
        <ele>1184.2</ele>
        <time>2022-06-10T10:08:32Z</time>
      </trkpt>
      <trkpt lat="44.74246" lon="4.12918">
        <ele>1184.2</ele>
        <time>2022-06-10T10:08:33Z</time>
      </trkpt>
      <trkpt lat="44.74248" lon="4.12921">
        <ele>1184.4</ele>
        <time>2022-06-10T10:08:34Z</time>
      </trkpt>
      <trkpt lat="44.74249" lon="4.12922">
        <ele>1184.5</ele>
        <time>2022-06-10T10:08:35Z</time>
      </trkpt>
      <trkpt lat="44.74251" lon="4.12926">
        <ele>1184.7</ele>
        <time>2022-06-10T10:08:36Z</time>
      </trkpt>
      <trkpt lat="44.74252" lon="4.12927">
        <ele>1184.7</ele>
        <time>2022-06-10T10:08:37Z</time>
      </trkpt>
      <trkpt lat="44.74254" lon="4.1293">
        <ele>1184.9</ele>
        <time>2022-06-10T10:08:38Z</time>
      </trkpt>
      <trkpt lat="44.74255" lon="4.12931">
        <ele>1185</ele>
        <time>2022-06-10T10:08:39Z</time>
      </trkpt>
      <trkpt lat="44.74258" lon="4.12936">
        <ele>1185.2</ele>
        <time>2022-06-10T10:08:40Z</time>
      </trkpt>
      <trkpt lat="44.74259" lon="4.12938">
        <ele>1185.3</ele>
        <time>2022-06-10T10:08:41Z</time>
      </trkpt>
      <trkpt lat="44.74261" lon="4.1294">
        <ele>1185.4</ele>
        <time>2022-06-10T10:08:43Z</time>
      </trkpt>
      <trkpt lat="44.74263" lon="4.12943">
        <ele>1185.6</ele>
        <time>2022-06-10T10:08:44Z</time>
      </trkpt>
      <trkpt lat="44.74264" lon="4.12944">
        <ele>1185.7</ele>
        <time>2022-06-10T10:08:45Z</time>
      </trkpt>
      <trkpt lat="44.74266" lon="4.12947">
        <ele>1185.8</ele>
        <time>2022-06-10T10:08:46Z</time>
      </trkpt>
      <trkpt lat="44.74266" lon="4.12948">
        <ele>1185.8</ele>
        <time>2022-06-10T10:08:47Z</time>
      </trkpt>
      <trkpt lat="44.74269" lon="4.12952">
        <ele>1186</ele>
        <time>2022-06-10T10:08:48Z</time>
      </trkpt>
      <trkpt lat="44.7427" lon="4.12953">
        <ele>1186.1</ele>
        <time>2022-06-10T10:08:49Z</time>
      </trkpt>
      <trkpt lat="44.74272" lon="4.12957">
        <ele>1186.3</ele>
        <time>2022-06-10T10:08:50Z</time>
      </trkpt>
      <trkpt lat="44.74273" lon="4.12958">
        <ele>1186.3</ele>
        <time>2022-06-10T10:08:51Z</time>
      </trkpt>
      <trkpt lat="44.74275" lon="4.12962">
        <ele>1186.5</ele>
        <time>2022-06-10T10:08:52Z</time>
      </trkpt>
      <trkpt lat="44.74276" lon="4.12963">
        <ele>1186.5</ele>
        <time>2022-06-10T10:08:53Z</time>
      </trkpt>
      <trkpt lat="44.74278" lon="4.12966">
        <ele>1186.6</ele>
        <time>2022-06-10T10:08:54Z</time>
      </trkpt>
      <trkpt lat="44.74279" lon="4.12967">
        <ele>1186.7</ele>
        <time>2022-06-10T10:08:55Z</time>
      </trkpt>
      <trkpt lat="44.7428" lon="4.12969">
        <ele>1186.8</ele>
        <time>2022-06-10T10:08:56Z</time>
      </trkpt>
      <trkpt lat="44.74283" lon="4.12974">
        <ele>1187</ele>
        <time>2022-06-10T10:08:58Z</time>
      </trkpt>
      <trkpt lat="44.74285" lon="4.12977">
        <ele>1187.1</ele>
        <time>2022-06-10T10:08:59Z</time>
      </trkpt>
      <trkpt lat="44.74287" lon="4.12983">
        <ele>1187.3</ele>
        <time>2022-06-10T10:09:01Z</time>
      </trkpt>
      <trkpt lat="44.74288" lon="4.12985">
        <ele>1187.3</ele>
        <time>2022-06-10T10:09:02Z</time>
      </trkpt>
      <trkpt lat="44.74289" lon="4.12987">
        <ele>1187.4</ele>
        <time>2022-06-10T10:09:03Z</time>
      </trkpt>
      <trkpt lat="44.74291" lon="4.12993">
        <ele>1187.6</ele>
        <time>2022-06-10T10:09:04Z</time>
      </trkpt>
      <trkpt lat="44.74293" lon="4.12999">
        <ele>1187.8</ele>
        <time>2022-06-10T10:09:06Z</time>
      </trkpt>
      <trkpt lat="44.74293" lon="4.13001">
        <ele>1187.9</ele>
        <time>2022-06-10T10:09:07Z</time>
      </trkpt>
      <trkpt lat="44.74294" lon="4.13003">
        <ele>1187.9</ele>
        <time>2022-06-10T10:09:08Z</time>
      </trkpt>
      <trkpt lat="44.74295" lon="4.13008">
        <ele>1188.1</ele>
        <time>2022-06-10T10:09:09Z</time>
      </trkpt>
      <trkpt lat="44.74295" lon="4.1301">
        <ele>1188.2</ele>
        <time>2022-06-10T10:09:10Z</time>
      </trkpt>
      <trkpt lat="44.74296" lon="4.13015">
        <ele>1188.3</ele>
        <time>2022-06-10T10:09:11Z</time>
      </trkpt>
      <trkpt lat="44.74296" lon="4.13017">
        <ele>1188.4</ele>
        <time>2022-06-10T10:09:12Z</time>
      </trkpt>
      <trkpt lat="44.74297" lon="4.13024">
        <ele>1188.6</ele>
        <time>2022-06-10T10:09:14Z</time>
      </trkpt>
      <trkpt lat="44.74297" lon="4.13027">
        <ele>1188.7</ele>
        <time>2022-06-10T10:09:15Z</time>
      </trkpt>
      <trkpt lat="44.74297" lon="4.1303">
        <ele>1188.8</ele>
        <time>2022-06-10T10:09:16Z</time>
      </trkpt>
      <trkpt lat="44.74296" lon="4.13033">
        <ele>1188.9</ele>
        <time>2022-06-10T10:09:18Z</time>
      </trkpt>
      <trkpt lat="44.74296" lon="4.13038">
        <ele>1189.1</ele>
        <time>2022-06-10T10:09:19Z</time>
      </trkpt>
      <trkpt lat="44.74296" lon="4.13039">
        <ele>1189.1</ele>
        <time>2022-06-10T10:09:20Z</time>
      </trkpt>
      <trkpt lat="44.74295" lon="4.13045">
        <ele>1189.4</ele>
        <time>2022-06-10T10:09:21Z</time>
      </trkpt>
      <trkpt lat="44.74295" lon="4.13049">
        <ele>1189.5</ele>
        <time>2022-06-10T10:09:22Z</time>
      </trkpt>
      <trkpt lat="44.74295" lon="4.13051">
        <ele>1189.6</ele>
        <time>2022-06-10T10:09:24Z</time>
      </trkpt>
      <trkpt lat="44.74294" lon="4.13055">
        <ele>1189.7</ele>
        <time>2022-06-10T10:09:25Z</time>
      </trkpt>
      <trkpt lat="44.74294" lon="4.13056">
        <ele>1189.8</ele>
        <time>2022-06-10T10:09:26Z</time>
      </trkpt>
      <trkpt lat="44.74294" lon="4.13061">
        <ele>1190</ele>
        <time>2022-06-10T10:09:27Z</time>
      </trkpt>
      <trkpt lat="44.74294" lon="4.13068">
        <ele>1190.2</ele>
        <time>2022-06-10T10:09:29Z</time>
      </trkpt>
      <trkpt lat="44.74293" lon="4.1307">
        <ele>1190.3</ele>
        <time>2022-06-10T10:09:30Z</time>
      </trkpt>
      <trkpt lat="44.74293" lon="4.13072">
        <ele>1190.4</ele>
        <time>2022-06-10T10:09:31Z</time>
      </trkpt>
      <trkpt lat="44.74292" lon="4.13078">
        <ele>1190.7</ele>
        <time>2022-06-10T10:09:32Z</time>
      </trkpt>
      <trkpt lat="44.74292" lon="4.13081">
        <ele>1190.8</ele>
        <time>2022-06-10T10:09:33Z</time>
      </trkpt>
      <trkpt lat="44.74292" lon="4.13084">
        <ele>1190.9</ele>
        <time>2022-06-10T10:09:34Z</time>
      </trkpt>
      <trkpt lat="44.74291" lon="4.13086">
        <ele>1191</ele>
        <time>2022-06-10T10:09:36Z</time>
      </trkpt>
      <trkpt lat="44.74291" lon="4.13088">
        <ele>1191.1</ele>
        <time>2022-06-10T10:09:37Z</time>
      </trkpt>
      <trkpt lat="44.74291" lon="4.13091">
        <ele>1191.2</ele>
        <time>2022-06-10T10:09:38Z</time>
      </trkpt>
      <trkpt lat="44.74289" lon="4.13096">
        <ele>1191.5</ele>
        <time>2022-06-10T10:09:39Z</time>
      </trkpt>
      <trkpt lat="44.74288" lon="4.13103">
        <ele>1191.8</ele>
        <time>2022-06-10T10:09:41Z</time>
      </trkpt>
      <trkpt lat="44.74288" lon="4.13106">
        <ele>1191.9</ele>
        <time>2022-06-10T10:09:42Z</time>
      </trkpt>
      <trkpt lat="44.74287" lon="4.1311">
        <ele>1192.1</ele>
        <time>2022-06-10T10:09:44Z</time>
      </trkpt>
      <trkpt lat="44.74286" lon="4.13112">
        <ele>1192.2</ele>
        <time>2022-06-10T10:09:45Z</time>
      </trkpt>
      <trkpt lat="44.74286" lon="4.13114">
        <ele>1192.3</ele>
        <time>2022-06-10T10:09:46Z</time>
      </trkpt>
      <trkpt lat="44.74286" lon="4.13115">
        <ele>1192.3</ele>
        <time>2022-06-10T10:09:47Z</time>
      </trkpt>
      <trkpt lat="44.74287" lon="4.13116">
        <ele>1192.3</ele>
        <time>2022-06-10T10:09:48Z</time>
      </trkpt>
      <trkpt lat="44.74287" lon="4.13116">
        <ele>1192.4</ele>
        <time>2022-06-10T10:09:49Z</time>
      </trkpt>
      <trkpt lat="44.74287" lon="4.13117">
        <ele>1192.4</ele>
        <time>2022-06-10T10:09:50Z</time>
      </trkpt>
      <trkpt lat="44.74287" lon="4.13118">
        <ele>1192.5</ele>
        <time>2022-06-10T10:09:51Z</time>
      </trkpt>
      <trkpt lat="44.74288" lon="4.13119">
        <ele>1192.5</ele>
        <time>2022-06-10T10:09:52Z</time>
      </trkpt>
      <trkpt lat="44.74288" lon="4.13119">
        <ele>1192.5</ele>
        <time>2022-06-10T10:09:54Z</time>
      </trkpt>
      <trkpt lat="44.74288" lon="4.1312">
        <ele>1192.6</ele>
        <time>2022-06-10T10:09:55Z</time>
      </trkpt>
      <trkpt lat="44.74288" lon="4.13121">
        <ele>1192.6</ele>
        <time>2022-06-10T10:09:56Z</time>
      </trkpt>
      <trkpt lat="44.74289" lon="4.13122">
        <ele>1192.6</ele>
        <time>2022-06-10T10:10:13Z</time>
      </trkpt>
      <trkpt lat="44.74289" lon="4.13122">
        <ele>1192.7</ele>
        <time>2022-06-10T10:10:14Z</time>
      </trkpt>
      <trkpt lat="44.74289" lon="4.13123">
        <ele>1192.7</ele>
        <time>2022-06-10T10:10:15Z</time>
      </trkpt>
      <trkpt lat="44.74289" lon="4.13128">
        <ele>1192.9</ele>
        <time>2022-06-10T10:10:16Z</time>
      </trkpt>
      <trkpt lat="44.7429" lon="4.13129">
        <ele>1193</ele>
        <time>2022-06-10T10:10:17Z</time>
      </trkpt>
      <trkpt lat="44.7429" lon="4.13134">
        <ele>1193.1</ele>
        <time>2022-06-10T10:10:18Z</time>
      </trkpt>
      <trkpt lat="44.7429" lon="4.13136">
        <ele>1193.2</ele>
        <time>2022-06-10T10:10:19Z</time>
      </trkpt>
      <trkpt lat="44.7429" lon="4.1314">
        <ele>1193.3</ele>
        <time>2022-06-10T10:10:20Z</time>
      </trkpt>
      <trkpt lat="44.7429" lon="4.13144">
        <ele>1193.5</ele>
        <time>2022-06-10T10:10:21Z</time>
      </trkpt>
      <trkpt lat="44.7429" lon="4.13148">
        <ele>1193.7</ele>
        <time>2022-06-10T10:10:22Z</time>
      </trkpt>
      <trkpt lat="44.74291" lon="4.13149">
        <ele>1193.7</ele>
        <time>2022-06-10T10:10:23Z</time>
      </trkpt>
      <trkpt lat="44.74291" lon="4.13154">
        <ele>1193.9</ele>
        <time>2022-06-10T10:10:24Z</time>
      </trkpt>
      <trkpt lat="44.74292" lon="4.13156">
        <ele>1194</ele>
        <time>2022-06-10T10:10:25Z</time>
      </trkpt>
      <trkpt lat="44.74292" lon="4.1316">
        <ele>1194.1</ele>
        <time>2022-06-10T10:10:26Z</time>
      </trkpt>
      <trkpt lat="44.74292" lon="4.13161">
        <ele>1194.2</ele>
        <time>2022-06-10T10:10:27Z</time>
      </trkpt>
      <trkpt lat="44.74293" lon="4.13166">
        <ele>1194.4</ele>
        <time>2022-06-10T10:10:28Z</time>
      </trkpt>
      <trkpt lat="44.74293" lon="4.13167">
        <ele>1194.4</ele>
        <time>2022-06-10T10:10:29Z</time>
      </trkpt>
      <trkpt lat="44.74295" lon="4.13171">
        <ele>1194.6</ele>
        <time>2022-06-10T10:10:30Z</time>
      </trkpt>
      <trkpt lat="44.74295" lon="4.13173">
        <ele>1194.7</ele>
        <time>2022-06-10T10:10:31Z</time>
      </trkpt>
      <trkpt lat="44.74296" lon="4.13179">
        <ele>1194.9</ele>
        <time>2022-06-10T10:10:32Z</time>
      </trkpt>
      <trkpt lat="44.74296" lon="4.13181">
        <ele>1195</ele>
        <time>2022-06-10T10:10:33Z</time>
      </trkpt>
      <trkpt lat="44.74297" lon="4.13187">
        <ele>1195.2</ele>
        <time>2022-06-10T10:10:35Z</time>
      </trkpt>
      <trkpt lat="44.74297" lon="4.13189">
        <ele>1195.3</ele>
        <time>2022-06-10T10:10:36Z</time>
      </trkpt>
      <trkpt lat="44.74298" lon="4.13195">
        <ele>1195.6</ele>
        <time>2022-06-10T10:10:38Z</time>
      </trkpt>
      <trkpt lat="44.74299" lon="4.132">
        <ele>1195.8</ele>
        <time>2022-06-10T10:10:39Z</time>
      </trkpt>
      <trkpt lat="44.743" lon="4.13201">
        <ele>1195.9</ele>
        <time>2022-06-10T10:10:40Z</time>
      </trkpt>
      <trkpt lat="44.74301" lon="4.13206">
        <ele>1196.1</ele>
        <time>2022-06-10T10:10:41Z</time>
      </trkpt>
      <trkpt lat="44.74302" lon="4.13207">
        <ele>1196.1</ele>
        <time>2022-06-10T10:10:42Z</time>
      </trkpt>
      <trkpt lat="44.74303" lon="4.13213">
        <ele>1196.4</ele>
        <time>2022-06-10T10:10:43Z</time>
      </trkpt>
      <trkpt lat="44.74304" lon="4.13215">
        <ele>1196.5</ele>
        <time>2022-06-10T10:10:44Z</time>
      </trkpt>
      <trkpt lat="44.74305" lon="4.13219">
        <ele>1196.7</ele>
        <time>2022-06-10T10:10:46Z</time>
      </trkpt>
      <trkpt lat="44.74305" lon="4.13226">
        <ele>1197</ele>
        <time>2022-06-10T10:10:47Z</time>
      </trkpt>
      <trkpt lat="44.74306" lon="4.13229">
        <ele>1197.1</ele>
        <time>2022-06-10T10:10:48Z</time>
      </trkpt>
      <trkpt lat="44.74306" lon="4.13232">
        <ele>1197.2</ele>
        <time>2022-06-10T10:10:50Z</time>
      </trkpt>
      <trkpt lat="44.74307" lon="4.13236">
        <ele>1197.4</ele>
        <time>2022-06-10T10:10:51Z</time>
      </trkpt>
      <trkpt lat="44.74307" lon="4.13238">
        <ele>1197.5</ele>
        <time>2022-06-10T10:10:52Z</time>
      </trkpt>
      <trkpt lat="44.74307" lon="4.13243">
        <ele>1197.7</ele>
        <time>2022-06-10T10:10:53Z</time>
      </trkpt>
      <trkpt lat="44.74307" lon="4.13245">
        <ele>1197.8</ele>
        <time>2022-06-10T10:10:54Z</time>
      </trkpt>
      <trkpt lat="44.74308" lon="4.13251">
        <ele>1198</ele>
        <time>2022-06-10T10:10:55Z</time>
      </trkpt>
      <trkpt lat="44.74307" lon="4.13257">
        <ele>1198.3</ele>
        <time>2022-06-10T10:10:57Z</time>
      </trkpt>
      <trkpt lat="44.74308" lon="4.13262">
        <ele>1198.5</ele>
        <time>2022-06-10T10:10:58Z</time>
      </trkpt>
      <trkpt lat="44.74308" lon="4.13264">
        <ele>1198.6</ele>
        <time>2022-06-10T10:10:59Z</time>
      </trkpt>
      <trkpt lat="44.74308" lon="4.13269">
        <ele>1198.8</ele>
        <time>2022-06-10T10:11:00Z</time>
      </trkpt>
      <trkpt lat="44.74308" lon="4.13271">
        <ele>1198.8</ele>
        <time>2022-06-10T10:11:01Z</time>
      </trkpt>
      <trkpt lat="44.74308" lon="4.13277">
        <ele>1199</ele>
        <time>2022-06-10T10:11:02Z</time>
      </trkpt>
      <trkpt lat="44.74307" lon="4.13282">
        <ele>1199.2</ele>
        <time>2022-06-10T10:11:04Z</time>
      </trkpt>
      <trkpt lat="44.74307" lon="4.13284">
        <ele>1199.3</ele>
        <time>2022-06-10T10:11:05Z</time>
      </trkpt>
      <trkpt lat="44.74306" lon="4.13289">
        <ele>1199.5</ele>
        <time>2022-06-10T10:11:06Z</time>
      </trkpt>
      <trkpt lat="44.74306" lon="4.13291">
        <ele>1199.6</ele>
        <time>2022-06-10T10:11:07Z</time>
      </trkpt>
      <trkpt lat="44.74306" lon="4.13297">
        <ele>1199.8</ele>
        <time>2022-06-10T10:11:08Z</time>
      </trkpt>
      <trkpt lat="44.74306" lon="4.13298">
        <ele>1199.8</ele>
        <time>2022-06-10T10:11:09Z</time>
      </trkpt>
      <trkpt lat="44.74305" lon="4.13302">
        <ele>1200</ele>
        <time>2022-06-10T10:11:10Z</time>
      </trkpt>
      <trkpt lat="44.74305" lon="4.13306">
        <ele>1200.1</ele>
        <time>2022-06-10T10:11:11Z</time>
      </trkpt>
      <trkpt lat="44.74304" lon="4.1331">
        <ele>1200.3</ele>
        <time>2022-06-10T10:11:12Z</time>
      </trkpt>
      <trkpt lat="44.74305" lon="4.13315">
        <ele>1200.4</ele>
        <time>2022-06-10T10:11:13Z</time>
      </trkpt>
      <trkpt lat="44.74305" lon="4.13316">
        <ele>1200.5</ele>
        <time>2022-06-10T10:11:14Z</time>
      </trkpt>
      <trkpt lat="44.74306" lon="4.13321">
        <ele>1200.6</ele>
        <time>2022-06-10T10:11:15Z</time>
      </trkpt>
      <trkpt lat="44.74306" lon="4.13322">
        <ele>1200.7</ele>
        <time>2022-06-10T10:11:16Z</time>
      </trkpt>
      <trkpt lat="44.74307" lon="4.13326">
        <ele>1200.9</ele>
        <time>2022-06-10T10:11:17Z</time>
      </trkpt>
      <trkpt lat="44.74306" lon="4.13331">
        <ele>1201</ele>
        <time>2022-06-10T10:11:19Z</time>
      </trkpt>
      <trkpt lat="44.74306" lon="4.13332">
        <ele>1201</ele>
        <time>2022-06-10T10:11:20Z</time>
      </trkpt>
      <trkpt lat="44.74306" lon="4.13337">
        <ele>1201.2</ele>
        <time>2022-06-10T10:11:21Z</time>
      </trkpt>
      <trkpt lat="44.74306" lon="4.13339">
        <ele>1201.3</ele>
        <time>2022-06-10T10:11:22Z</time>
      </trkpt>
      <trkpt lat="44.74305" lon="4.13343">
        <ele>1201.4</ele>
        <time>2022-06-10T10:11:23Z</time>
      </trkpt>
      <trkpt lat="44.74305" lon="4.13348">
        <ele>1201.6</ele>
        <time>2022-06-10T10:11:25Z</time>
      </trkpt>
      <trkpt lat="44.74305" lon="4.1335">
        <ele>1201.6</ele>
        <time>2022-06-10T10:11:26Z</time>
      </trkpt>
      <trkpt lat="44.74305" lon="4.13356">
        <ele>1201.9</ele>
        <time>2022-06-10T10:11:28Z</time>
      </trkpt>
      <trkpt lat="44.74306" lon="4.13361">
        <ele>1202</ele>
        <time>2022-06-10T10:11:29Z</time>
      </trkpt>
      <trkpt lat="44.74306" lon="4.13362">
        <ele>1202.1</ele>
        <time>2022-06-10T10:11:30Z</time>
      </trkpt>
      <trkpt lat="44.74306" lon="4.13366">
        <ele>1202.2</ele>
        <time>2022-06-10T10:11:31Z</time>
      </trkpt>
      <trkpt lat="44.74306" lon="4.13368">
        <ele>1202.2</ele>
        <time>2022-06-10T10:11:32Z</time>
      </trkpt>
      <trkpt lat="44.74307" lon="4.13372">
        <ele>1202.4</ele>
        <time>2022-06-10T10:11:33Z</time>
      </trkpt>
      <trkpt lat="44.74308" lon="4.13373">
        <ele>1202.4</ele>
        <time>2022-06-10T10:11:34Z</time>
      </trkpt>
      <trkpt lat="44.74309" lon="4.13379">
        <ele>1202.6</ele>
        <time>2022-06-10T10:11:36Z</time>
      </trkpt>
      <trkpt lat="44.74311" lon="4.13384">
        <ele>1202.8</ele>
        <time>2022-06-10T10:11:37Z</time>
      </trkpt>
      <trkpt lat="44.74311" lon="4.13386">
        <ele>1202.8</ele>
        <time>2022-06-10T10:11:38Z</time>
      </trkpt>
      <trkpt lat="44.74313" lon="4.13389">
        <ele>1202.9</ele>
        <time>2022-06-10T10:11:39Z</time>
      </trkpt>
      <trkpt lat="44.74314" lon="4.13393">
        <ele>1203.1</ele>
        <time>2022-06-10T10:11:40Z</time>
      </trkpt>
      <trkpt lat="44.74315" lon="4.13395">
        <ele>1203.1</ele>
        <time>2022-06-10T10:11:41Z</time>
      </trkpt>
      <trkpt lat="44.74316" lon="4.134">
        <ele>1203.3</ele>
        <time>2022-06-10T10:11:42Z</time>
      </trkpt>
      <trkpt lat="44.74316" lon="4.13401">
        <ele>1203.3</ele>
        <time>2022-06-10T10:11:43Z</time>
      </trkpt>
      <trkpt lat="44.74318" lon="4.13406">
        <ele>1203.5</ele>
        <time>2022-06-10T10:11:44Z</time>
      </trkpt>
      <trkpt lat="44.74319" lon="4.13408">
        <ele>1203.5</ele>
        <time>2022-06-10T10:11:45Z</time>
      </trkpt>
      <trkpt lat="44.7432" lon="4.13412">
        <ele>1203.6</ele>
        <time>2022-06-10T10:11:46Z</time>
      </trkpt>
      <trkpt lat="44.74321" lon="4.13413">
        <ele>1203.7</ele>
        <time>2022-06-10T10:11:47Z</time>
      </trkpt>
      <trkpt lat="44.74323" lon="4.13417">
        <ele>1203.8</ele>
        <time>2022-06-10T10:11:48Z</time>
      </trkpt>
      <trkpt lat="44.74324" lon="4.13418">
        <ele>1203.8</ele>
        <time>2022-06-10T10:11:49Z</time>
      </trkpt>
      <trkpt lat="44.74325" lon="4.13422">
        <ele>1204</ele>
        <time>2022-06-10T10:11:50Z</time>
      </trkpt>
      <trkpt lat="44.74326" lon="4.13424">
        <ele>1204</ele>
        <time>2022-06-10T10:11:51Z</time>
      </trkpt>
      <trkpt lat="44.74328" lon="4.13428">
        <ele>1204.1</ele>
        <time>2022-06-10T10:11:52Z</time>
      </trkpt>
      <trkpt lat="44.74329" lon="4.13429">
        <ele>1204.2</ele>
        <time>2022-06-10T10:11:53Z</time>
      </trkpt>
      <trkpt lat="44.74332" lon="4.13434">
        <ele>1204.3</ele>
        <time>2022-06-10T10:11:54Z</time>
      </trkpt>
      <trkpt lat="44.74334" lon="4.13436">
        <ele>1204.4</ele>
        <time>2022-06-10T10:11:55Z</time>
      </trkpt>
      <trkpt lat="44.74336" lon="4.13439">
        <ele>1204.5</ele>
        <time>2022-06-10T10:11:57Z</time>
      </trkpt>
      <trkpt lat="44.74339" lon="4.13443">
        <ele>1204.7</ele>
        <time>2022-06-10T10:11:58Z</time>
      </trkpt>
      <trkpt lat="44.74341" lon="4.13444">
        <ele>1204.7</ele>
        <time>2022-06-10T10:11:59Z</time>
      </trkpt>
      <trkpt lat="44.74343" lon="4.13447">
        <ele>1204.8</ele>
        <time>2022-06-10T10:12:00Z</time>
      </trkpt>
      <trkpt lat="44.74345" lon="4.1345">
        <ele>1204.9</ele>
        <time>2022-06-10T10:12:01Z</time>
      </trkpt>
      <trkpt lat="44.74349" lon="4.13453">
        <ele>1205.1</ele>
        <time>2022-06-10T10:12:02Z</time>
      </trkpt>
      <trkpt lat="44.74353" lon="4.13455">
        <ele>1205.2</ele>
        <time>2022-06-10T10:12:04Z</time>
      </trkpt>
      <trkpt lat="44.74357" lon="4.13457">
        <ele>1205.4</ele>
        <time>2022-06-10T10:12:06Z</time>
      </trkpt>
      <trkpt lat="44.7436" lon="4.13459">
        <ele>1205.5</ele>
        <time>2022-06-10T10:12:07Z</time>
      </trkpt>
      <trkpt lat="44.74364" lon="4.13461">
        <ele>1205.6</ele>
        <time>2022-06-10T10:12:08Z</time>
      </trkpt>
      <trkpt lat="44.74369" lon="4.13463">
        <ele>1205.8</ele>
        <time>2022-06-10T10:12:10Z</time>
      </trkpt>
      <trkpt lat="44.74372" lon="4.13465">
        <ele>1205.9</ele>
        <time>2022-06-10T10:12:11Z</time>
      </trkpt>
      <trkpt lat="44.74379" lon="4.13468">
        <ele>1206.1</ele>
        <time>2022-06-10T10:12:13Z</time>
      </trkpt>
      <trkpt lat="44.74382" lon="4.1347">
        <ele>1206.3</ele>
        <time>2022-06-10T10:12:15Z</time>
      </trkpt>
      <trkpt lat="44.74387" lon="4.13472">
        <ele>1206.4</ele>
        <time>2022-06-10T10:12:16Z</time>
      </trkpt>
      <trkpt lat="44.74391" lon="4.13474">
        <ele>1206.5</ele>
        <time>2022-06-10T10:12:17Z</time>
      </trkpt>
      <trkpt lat="44.74395" lon="4.13476">
        <ele>1206.7</ele>
        <time>2022-06-10T10:12:19Z</time>
      </trkpt>
      <trkpt lat="44.74397" lon="4.13478">
        <ele>1206.8</ele>
        <time>2022-06-10T10:12:20Z</time>
      </trkpt>
      <trkpt lat="44.744" lon="4.13479">
        <ele>1206.9</ele>
        <time>2022-06-10T10:12:21Z</time>
      </trkpt>
      <trkpt lat="44.74405" lon="4.13481">
        <ele>1207.1</ele>
        <time>2022-06-10T10:12:22Z</time>
      </trkpt>
      <trkpt lat="44.74408" lon="4.13482">
        <ele>1207.2</ele>
        <time>2022-06-10T10:12:23Z</time>
      </trkpt>
      <trkpt lat="44.74411" lon="4.13483">
        <ele>1207.3</ele>
        <time>2022-06-10T10:12:24Z</time>
      </trkpt>
      <trkpt lat="44.74415" lon="4.13484">
        <ele>1207.5</ele>
        <time>2022-06-10T10:12:26Z</time>
      </trkpt>
      <trkpt lat="44.74418" lon="4.13485">
        <ele>1207.6</ele>
        <time>2022-06-10T10:12:27Z</time>
      </trkpt>
      <trkpt lat="44.74423" lon="4.13488">
        <ele>1207.8</ele>
        <time>2022-06-10T10:12:29Z</time>
      </trkpt>
      <trkpt lat="44.74426" lon="4.13489">
        <ele>1208</ele>
        <time>2022-06-10T10:12:30Z</time>
      </trkpt>
      <trkpt lat="44.74427" lon="4.1349">
        <ele>1208.1</ele>
        <time>2022-06-10T10:12:31Z</time>
      </trkpt>
      <trkpt lat="44.7443" lon="4.13491">
        <ele>1208.2</ele>
        <time>2022-06-10T10:12:32Z</time>
      </trkpt>
      <trkpt lat="44.74434" lon="4.13492">
        <ele>1208.4</ele>
        <time>2022-06-10T10:12:33Z</time>
      </trkpt>
      <trkpt lat="44.74436" lon="4.13492">
        <ele>1208.5</ele>
        <time>2022-06-10T10:12:34Z</time>
      </trkpt>
      <trkpt lat="44.74439" lon="4.13494">
        <ele>1208.6</ele>
        <time>2022-06-10T10:12:35Z</time>
      </trkpt>
      <trkpt lat="44.74441" lon="4.13494">
        <ele>1208.7</ele>
        <time>2022-06-10T10:12:36Z</time>
      </trkpt>
      <trkpt lat="44.74445" lon="4.13495">
        <ele>1208.9</ele>
        <time>2022-06-10T10:12:37Z</time>
      </trkpt>
      <trkpt lat="44.74449" lon="4.13497">
        <ele>1209.2</ele>
        <time>2022-06-10T10:12:39Z</time>
      </trkpt>
      <trkpt lat="44.74451" lon="4.13497">
        <ele>1209.3</ele>
        <time>2022-06-10T10:12:40Z</time>
      </trkpt>
      <trkpt lat="44.74452" lon="4.13498">
        <ele>1209.3</ele>
        <time>2022-06-10T10:12:41Z</time>
      </trkpt>
      <trkpt lat="44.74457" lon="4.135">
        <ele>1209.6</ele>
        <time>2022-06-10T10:12:42Z</time>
      </trkpt>
      <trkpt lat="44.7446" lon="4.13503">
        <ele>1209.8</ele>
        <time>2022-06-10T10:12:44Z</time>
      </trkpt>
      <trkpt lat="44.74461" lon="4.13504">
        <ele>1209.9</ele>
        <time>2022-06-10T10:12:45Z</time>
      </trkpt>
      <trkpt lat="44.74464" lon="4.13507">
        <ele>1210.1</ele>
        <time>2022-06-10T10:12:46Z</time>
      </trkpt>
      <trkpt lat="44.74466" lon="4.13509">
        <ele>1210.3</ele>
        <time>2022-06-10T10:12:47Z</time>
      </trkpt>
      <trkpt lat="44.74468" lon="4.13511">
        <ele>1210.4</ele>
        <time>2022-06-10T10:12:49Z</time>
      </trkpt>
      <trkpt lat="44.74469" lon="4.13513">
        <ele>1210.5</ele>
        <time>2022-06-10T10:12:50Z</time>
      </trkpt>
      <trkpt lat="44.7447" lon="4.13515">
        <ele>1210.6</ele>
        <time>2022-06-10T10:12:51Z</time>
      </trkpt>
      <trkpt lat="44.7447" lon="4.13518">
        <ele>1210.7</ele>
        <time>2022-06-10T10:12:52Z</time>
      </trkpt>
      <trkpt lat="44.74471" lon="4.1352">
        <ele>1210.9</ele>
        <time>2022-06-10T10:12:53Z</time>
      </trkpt>
      <trkpt lat="44.74472" lon="4.13522">
        <ele>1211</ele>
        <time>2022-06-10T10:12:54Z</time>
      </trkpt>
      <trkpt lat="44.74472" lon="4.13526">
        <ele>1211.2</ele>
        <time>2022-06-10T10:12:55Z</time>
      </trkpt>
      <trkpt lat="44.74472" lon="4.13529">
        <ele>1211.3</ele>
        <time>2022-06-10T10:12:57Z</time>
      </trkpt>
      <trkpt lat="44.74472" lon="4.13531">
        <ele>1211.4</ele>
        <time>2022-06-10T10:12:58Z</time>
      </trkpt>
      <trkpt lat="44.74472" lon="4.13534">
        <ele>1211.5</ele>
        <time>2022-06-10T10:12:59Z</time>
      </trkpt>
      <trkpt lat="44.74471" lon="4.13538">
        <ele>1211.7</ele>
        <time>2022-06-10T10:13:00Z</time>
      </trkpt>
      <trkpt lat="44.74471" lon="4.1354">
        <ele>1211.8</ele>
        <time>2022-06-10T10:13:01Z</time>
      </trkpt>
      <trkpt lat="44.74469" lon="4.13545">
        <ele>1212.1</ele>
        <time>2022-06-10T10:13:02Z</time>
      </trkpt>
      <trkpt lat="44.74468" lon="4.13547">
        <ele>1212.2</ele>
        <time>2022-06-10T10:13:03Z</time>
      </trkpt>
      <trkpt lat="44.74467" lon="4.1355">
        <ele>1212.3</ele>
        <time>2022-06-10T10:13:05Z</time>
      </trkpt>
      <trkpt lat="44.74465" lon="4.13554">
        <ele>1212.5</ele>
        <time>2022-06-10T10:13:06Z</time>
      </trkpt>
      <trkpt lat="44.74465" lon="4.13555">
        <ele>1212.6</ele>
        <time>2022-06-10T10:13:07Z</time>
      </trkpt>
      <trkpt lat="44.74463" lon="4.1356">
        <ele>1212.8</ele>
        <time>2022-06-10T10:13:09Z</time>
      </trkpt>
      <trkpt lat="44.74462" lon="4.13562">
        <ele>1212.9</ele>
        <time>2022-06-10T10:13:10Z</time>
      </trkpt>
      <trkpt lat="44.7446" lon="4.13566">
        <ele>1213.1</ele>
        <time>2022-06-10T10:13:12Z</time>
      </trkpt>
      <trkpt lat="44.74458" lon="4.1357">
        <ele>1213.3</ele>
        <time>2022-06-10T10:13:13Z</time>
      </trkpt>
      <trkpt lat="44.74457" lon="4.13572">
        <ele>1213.4</ele>
        <time>2022-06-10T10:13:14Z</time>
      </trkpt>
      <trkpt lat="44.74455" lon="4.13577">
        <ele>1213.6</ele>
        <time>2022-06-10T10:13:16Z</time>
      </trkpt>
      <trkpt lat="44.74452" lon="4.13582">
        <ele>1213.8</ele>
        <time>2022-06-10T10:13:17Z</time>
      </trkpt>
      <trkpt lat="44.74452" lon="4.13584">
        <ele>1213.9</ele>
        <time>2022-06-10T10:13:18Z</time>
      </trkpt>
      <trkpt lat="44.74449" lon="4.13588">
        <ele>1214.1</ele>
        <time>2022-06-10T10:13:19Z</time>
      </trkpt>
      <trkpt lat="44.74447" lon="4.13593">
        <ele>1214.3</ele>
        <time>2022-06-10T10:13:21Z</time>
      </trkpt>
      <trkpt lat="44.74446" lon="4.13594">
        <ele>1214.4</ele>
        <time>2022-06-10T10:13:22Z</time>
      </trkpt>
      <trkpt lat="44.74444" lon="4.13599">
        <ele>1214.6</ele>
        <time>2022-06-10T10:13:23Z</time>
      </trkpt>
      <trkpt lat="44.74443" lon="4.136">
        <ele>1214.6</ele>
        <time>2022-06-10T10:13:24Z</time>
      </trkpt>
      <trkpt lat="44.74441" lon="4.13604">
        <ele>1214.8</ele>
        <time>2022-06-10T10:13:25Z</time>
      </trkpt>
      <trkpt lat="44.7444" lon="4.13606">
        <ele>1214.9</ele>
        <time>2022-06-10T10:13:26Z</time>
      </trkpt>
      <trkpt lat="44.74438" lon="4.1361">
        <ele>1215</ele>
        <time>2022-06-10T10:13:27Z</time>
      </trkpt>
      <trkpt lat="44.74438" lon="4.13612">
        <ele>1215.1</ele>
        <time>2022-06-10T10:13:28Z</time>
      </trkpt>
      <trkpt lat="44.74436" lon="4.13616">
        <ele>1215.3</ele>
        <time>2022-06-10T10:13:29Z</time>
      </trkpt>
      <trkpt lat="44.74435" lon="4.13617">
        <ele>1215.3</ele>
        <time>2022-06-10T10:13:30Z</time>
      </trkpt>
      <trkpt lat="44.74433" lon="4.13623">
        <ele>1215.5</ele>
        <time>2022-06-10T10:13:31Z</time>
      </trkpt>
      <trkpt lat="44.74431" lon="4.13626">
        <ele>1215.6</ele>
        <time>2022-06-10T10:13:32Z</time>
      </trkpt>
      <trkpt lat="44.7443" lon="4.13629">
        <ele>1215.8</ele>
        <time>2022-06-10T10:13:34Z</time>
      </trkpt>
      <trkpt lat="44.74428" lon="4.13632">
        <ele>1215.9</ele>
        <time>2022-06-10T10:13:35Z</time>
      </trkpt>
      <trkpt lat="44.74424" lon="4.13639">
        <ele>1216.2</ele>
        <time>2022-06-10T10:13:37Z</time>
      </trkpt>
      <trkpt lat="44.74422" lon="4.13643">
        <ele>1216.3</ele>
        <time>2022-06-10T10:13:39Z</time>
      </trkpt>
      <trkpt lat="44.7442" lon="4.13645">
        <ele>1216.4</ele>
        <time>2022-06-10T10:13:40Z</time>
      </trkpt>
      <trkpt lat="44.74419" lon="4.13646">
        <ele>1216.5</ele>
        <time>2022-06-10T10:13:41Z</time>
      </trkpt>
      <trkpt lat="44.74417" lon="4.13649">
        <ele>1216.6</ele>
        <time>2022-06-10T10:13:42Z</time>
      </trkpt>
      <trkpt lat="44.74416" lon="4.1365">
        <ele>1216.6</ele>
        <time>2022-06-10T10:13:43Z</time>
      </trkpt>
      <trkpt lat="44.74413" lon="4.13653">
        <ele>1216.8</ele>
        <time>2022-06-10T10:13:44Z</time>
      </trkpt>
      <trkpt lat="44.74413" lon="4.13654">
        <ele>1216.8</ele>
        <time>2022-06-10T10:13:45Z</time>
      </trkpt>
      <trkpt lat="44.74411" lon="4.13656">
        <ele>1216.9</ele>
        <time>2022-06-10T10:13:46Z</time>
      </trkpt>
      <trkpt lat="44.74408" lon="4.1366">
        <ele>1217.1</ele>
        <time>2022-06-10T10:13:48Z</time>
      </trkpt>
      <trkpt lat="44.74405" lon="4.13662">
        <ele>1217.3</ele>
        <time>2022-06-10T10:13:49Z</time>
      </trkpt>
      <trkpt lat="44.74404" lon="4.13662">
        <ele>1217.3</ele>
        <time>2022-06-10T10:13:50Z</time>
      </trkpt>
      <trkpt lat="44.74401" lon="4.13664">
        <ele>1217.4</ele>
        <time>2022-06-10T10:13:51Z</time>
      </trkpt>
      <trkpt lat="44.744" lon="4.13664">
        <ele>1217.5</ele>
        <time>2022-06-10T10:13:52Z</time>
      </trkpt>
      <trkpt lat="44.74398" lon="4.13665">
        <ele>1217.6</ele>
        <time>2022-06-10T10:13:53Z</time>
      </trkpt>
      <trkpt lat="44.74394" lon="4.13667">
        <ele>1217.8</ele>
        <time>2022-06-10T10:13:55Z</time>
      </trkpt>
      <trkpt lat="44.7439" lon="4.13668">
        <ele>1218</ele>
        <time>2022-06-10T10:13:56Z</time>
      </trkpt>
      <trkpt lat="44.74389" lon="4.13668">
        <ele>1218</ele>
        <time>2022-06-10T10:13:57Z</time>
      </trkpt>
      <trkpt lat="44.74384" lon="4.13669">
        <ele>1218.2</ele>
        <time>2022-06-10T10:13:58Z</time>
      </trkpt>
      <trkpt lat="44.7438" lon="4.1367">
        <ele>1218.4</ele>
        <time>2022-06-10T10:14:00Z</time>
      </trkpt>
      <trkpt lat="44.74378" lon="4.13671">
        <ele>1218.5</ele>
        <time>2022-06-10T10:14:01Z</time>
      </trkpt>
      <trkpt lat="44.74377" lon="4.13671">
        <ele>1218.6</ele>
        <time>2022-06-10T10:14:02Z</time>
      </trkpt>
      <trkpt lat="44.74373" lon="4.13672">
        <ele>1218.8</ele>
        <time>2022-06-10T10:14:03Z</time>
      </trkpt>
      <trkpt lat="44.74371" lon="4.13673">
        <ele>1218.8</ele>
        <time>2022-06-10T10:14:04Z</time>
      </trkpt>
      <trkpt lat="44.74367" lon="4.13675">
        <ele>1219</ele>
        <time>2022-06-10T10:14:05Z</time>
      </trkpt>
      <trkpt lat="44.74363" lon="4.13676">
        <ele>1219.2</ele>
        <time>2022-06-10T10:14:07Z</time>
      </trkpt>
      <trkpt lat="44.74361" lon="4.13677">
        <ele>1219.3</ele>
        <time>2022-06-10T10:14:08Z</time>
      </trkpt>
      <trkpt lat="44.74359" lon="4.13677">
        <ele>1219.4</ele>
        <time>2022-06-10T10:14:10Z</time>
      </trkpt>
      <trkpt lat="44.74354" lon="4.13678">
        <ele>1219.5</ele>
        <time>2022-06-10T10:14:12Z</time>
      </trkpt>
      <trkpt lat="44.74352" lon="4.13679">
        <ele>1219.6</ele>
        <time>2022-06-10T10:14:13Z</time>
      </trkpt>
      <trkpt lat="44.74351" lon="4.1368">
        <ele>1219.7</ele>
        <time>2022-06-10T10:14:14Z</time>
      </trkpt>
      <trkpt lat="44.74348" lon="4.13681">
        <ele>1219.8</ele>
        <time>2022-06-10T10:14:15Z</time>
      </trkpt>
      <trkpt lat="44.74344" lon="4.13684">
        <ele>1219.9</ele>
        <time>2022-06-10T10:14:17Z</time>
      </trkpt>
      <trkpt lat="44.74341" lon="4.13686">
        <ele>1220.1</ele>
        <time>2022-06-10T10:14:18Z</time>
      </trkpt>
      <trkpt lat="44.74338" lon="4.13689">
        <ele>1220.2</ele>
        <time>2022-06-10T10:14:19Z</time>
      </trkpt>
      <trkpt lat="44.74335" lon="4.13692">
        <ele>1220.3</ele>
        <time>2022-06-10T10:14:20Z</time>
      </trkpt>
      <trkpt lat="44.74332" lon="4.13694">
        <ele>1220.5</ele>
        <time>2022-06-10T10:14:21Z</time>
      </trkpt>
      <trkpt lat="44.74329" lon="4.13696">
        <ele>1220.6</ele>
        <time>2022-06-10T10:14:23Z</time>
      </trkpt>
      <trkpt lat="44.74326" lon="4.13699">
        <ele>1220.7</ele>
        <time>2022-06-10T10:14:24Z</time>
      </trkpt>
      <trkpt lat="44.74323" lon="4.13701">
        <ele>1220.8</ele>
        <time>2022-06-10T10:14:25Z</time>
      </trkpt>
      <trkpt lat="44.74321" lon="4.13703">
        <ele>1221</ele>
        <time>2022-06-10T10:14:26Z</time>
      </trkpt>
      <trkpt lat="44.74318" lon="4.13705">
        <ele>1221.1</ele>
        <time>2022-06-10T10:14:27Z</time>
      </trkpt>
      <trkpt lat="44.74313" lon="4.13707">
        <ele>1221.3</ele>
        <time>2022-06-10T10:14:28Z</time>
      </trkpt>
      <trkpt lat="44.7431" lon="4.13709">
        <ele>1221.5</ele>
        <time>2022-06-10T10:14:29Z</time>
      </trkpt>
      <trkpt lat="44.74307" lon="4.13712">
        <ele>1221.7</ele>
        <time>2022-06-10T10:14:31Z</time>
      </trkpt>
      <trkpt lat="44.74305" lon="4.13714">
        <ele>1221.7</ele>
        <time>2022-06-10T10:14:32Z</time>
      </trkpt>
      <trkpt lat="44.74304" lon="4.13714">
        <ele>1221.8</ele>
        <time>2022-06-10T10:14:33Z</time>
      </trkpt>
      <trkpt lat="44.74302" lon="4.13716">
        <ele>1221.9</ele>
        <time>2022-06-10T10:14:34Z</time>
      </trkpt>
      <trkpt lat="44.74301" lon="4.13717">
        <ele>1221.9</ele>
        <time>2022-06-10T10:14:35Z</time>
      </trkpt>
      <trkpt lat="44.74298" lon="4.1372">
        <ele>1222.1</ele>
        <time>2022-06-10T10:14:37Z</time>
      </trkpt>
      <trkpt lat="44.74296" lon="4.13721">
        <ele>1222.2</ele>
        <time>2022-06-10T10:14:38Z</time>
      </trkpt>
      <trkpt lat="44.74295" lon="4.13722">
        <ele>1222.3</ele>
        <time>2022-06-10T10:14:39Z</time>
      </trkpt>
      <trkpt lat="44.74292" lon="4.13725">
        <ele>1222.5</ele>
        <time>2022-06-10T10:14:40Z</time>
      </trkpt>
      <trkpt lat="44.74289" lon="4.13728">
        <ele>1222.6</ele>
        <time>2022-06-10T10:14:41Z</time>
      </trkpt>
      <trkpt lat="44.74288" lon="4.13728">
        <ele>1222.7</ele>
        <time>2022-06-10T10:14:42Z</time>
      </trkpt>
      <trkpt lat="44.74286" lon="4.13731">
        <ele>1222.8</ele>
        <time>2022-06-10T10:14:44Z</time>
      </trkpt>
      <trkpt lat="44.74283" lon="4.13734">
        <ele>1223</ele>
        <time>2022-06-10T10:14:45Z</time>
      </trkpt>
      <trkpt lat="44.74281" lon="4.13736">
        <ele>1223.1</ele>
        <time>2022-06-10T10:14:46Z</time>
      </trkpt>
      <trkpt lat="44.74278" lon="4.1374">
        <ele>1223.3</ele>
        <time>2022-06-10T10:14:48Z</time>
      </trkpt>
      <trkpt lat="44.74275" lon="4.13743">
        <ele>1223.5</ele>
        <time>2022-06-10T10:14:49Z</time>
      </trkpt>
      <trkpt lat="44.74271" lon="4.13747">
        <ele>1223.7</ele>
        <time>2022-06-10T10:14:51Z</time>
      </trkpt>
      <trkpt lat="44.74269" lon="4.1375">
        <ele>1223.9</ele>
        <time>2022-06-10T10:14:52Z</time>
      </trkpt>
      <trkpt lat="44.74267" lon="4.13753">
        <ele>1224.1</ele>
        <time>2022-06-10T10:14:53Z</time>
      </trkpt>
      <trkpt lat="44.74264" lon="4.13757">
        <ele>1224.3</ele>
        <time>2022-06-10T10:14:54Z</time>
      </trkpt>
      <trkpt lat="44.74264" lon="4.13759">
        <ele>1224.3</ele>
        <time>2022-06-10T10:14:55Z</time>
      </trkpt>
      <trkpt lat="44.74259" lon="4.13763">
        <ele>1224.6</ele>
        <time>2022-06-10T10:14:57Z</time>
      </trkpt>
      <trkpt lat="44.74258" lon="4.13765">
        <ele>1224.7</ele>
        <time>2022-06-10T10:14:59Z</time>
      </trkpt>
      <trkpt lat="44.74256" lon="4.13767">
        <ele>1224.8</ele>
        <time>2022-06-10T10:15:00Z</time>
      </trkpt>
      <trkpt lat="44.74255" lon="4.13769">
        <ele>1224.9</ele>
        <time>2022-06-10T10:15:01Z</time>
      </trkpt>
      <trkpt lat="44.74252" lon="4.13774">
        <ele>1225.1</ele>
        <time>2022-06-10T10:15:02Z</time>
      </trkpt>
      <trkpt lat="44.74248" lon="4.13778">
        <ele>1225.3</ele>
        <time>2022-06-10T10:15:04Z</time>
      </trkpt>
      <trkpt lat="44.74247" lon="4.13779">
        <ele>1225.4</ele>
        <time>2022-06-10T10:15:05Z</time>
      </trkpt>
      <trkpt lat="44.74245" lon="4.1378">
        <ele>1225.5</ele>
        <time>2022-06-10T10:15:06Z</time>
      </trkpt>
      <trkpt lat="44.74242" lon="4.13784">
        <ele>1225.7</ele>
        <time>2022-06-10T10:15:07Z</time>
      </trkpt>
      <trkpt lat="44.7424" lon="4.13787">
        <ele>1225.8</ele>
        <time>2022-06-10T10:15:09Z</time>
      </trkpt>
      <trkpt lat="44.74238" lon="4.13789">
        <ele>1226</ele>
        <time>2022-06-10T10:15:10Z</time>
      </trkpt>
      <trkpt lat="44.74235" lon="4.13792">
        <ele>1226.1</ele>
        <time>2022-06-10T10:15:11Z</time>
      </trkpt>
      <trkpt lat="44.74233" lon="4.13795">
        <ele>1226.3</ele>
        <time>2022-06-10T10:15:12Z</time>
      </trkpt>
      <trkpt lat="44.7423" lon="4.13797">
        <ele>1226.4</ele>
        <time>2022-06-10T10:15:13Z</time>
      </trkpt>
      <trkpt lat="44.74228" lon="4.138">
        <ele>1226.6</ele>
        <time>2022-06-10T10:15:14Z</time>
      </trkpt>
      <trkpt lat="44.74225" lon="4.13802">
        <ele>1226.8</ele>
        <time>2022-06-10T10:15:15Z</time>
      </trkpt>
      <trkpt lat="44.74222" lon="4.13805">
        <ele>1226.9</ele>
        <time>2022-06-10T10:15:16Z</time>
      </trkpt>
      <trkpt lat="44.74218" lon="4.13809">
        <ele>1227.2</ele>
        <time>2022-06-10T10:15:17Z</time>
      </trkpt>
      <trkpt lat="44.74215" lon="4.13812">
        <ele>1227.3</ele>
        <time>2022-06-10T10:15:19Z</time>
      </trkpt>
      <trkpt lat="44.74211" lon="4.13818">
        <ele>1227.6</ele>
        <time>2022-06-10T10:15:20Z</time>
      </trkpt>
      <trkpt lat="44.74207" lon="4.13822">
        <ele>1227.8</ele>
        <time>2022-06-10T10:15:22Z</time>
      </trkpt>
      <trkpt lat="44.74205" lon="4.13825">
        <ele>1228</ele>
        <time>2022-06-10T10:15:24Z</time>
      </trkpt>
      <trkpt lat="44.74202" lon="4.13829">
        <ele>1228.1</ele>
        <time>2022-06-10T10:15:25Z</time>
      </trkpt>
      <trkpt lat="44.74201" lon="4.1383">
        <ele>1228.2</ele>
        <time>2022-06-10T10:15:26Z</time>
      </trkpt>
      <trkpt lat="44.74199" lon="4.13833">
        <ele>1228.4</ele>
        <time>2022-06-10T10:15:27Z</time>
      </trkpt>
      <trkpt lat="44.74196" lon="4.13839">
        <ele>1228.6</ele>
        <time>2022-06-10T10:15:28Z</time>
      </trkpt>
      <trkpt lat="44.74194" lon="4.13843">
        <ele>1228.8</ele>
        <time>2022-06-10T10:15:30Z</time>
      </trkpt>
      <trkpt lat="44.74191" lon="4.13848">
        <ele>1229</ele>
        <time>2022-06-10T10:15:31Z</time>
      </trkpt>
      <trkpt lat="44.74187" lon="4.13855">
        <ele>1229.3</ele>
        <time>2022-06-10T10:15:33Z</time>
      </trkpt>
      <trkpt lat="44.74184" lon="4.13861">
        <ele>1229.6</ele>
        <time>2022-06-10T10:15:35Z</time>
      </trkpt>
      <trkpt lat="44.74182" lon="4.13864">
        <ele>1229.8</ele>
        <time>2022-06-10T10:15:36Z</time>
      </trkpt>
      <trkpt lat="44.7418" lon="4.13866">
        <ele>1229.9</ele>
        <time>2022-06-10T10:15:37Z</time>
      </trkpt>
      <trkpt lat="44.74178" lon="4.13869">
        <ele>1230.1</ele>
        <time>2022-06-10T10:15:39Z</time>
      </trkpt>
      <trkpt lat="44.74176" lon="4.13872">
        <ele>1230.2</ele>
        <time>2022-06-10T10:15:40Z</time>
      </trkpt>
      <trkpt lat="44.74174" lon="4.13875">
        <ele>1230.4</ele>
        <time>2022-06-10T10:15:41Z</time>
      </trkpt>
      <trkpt lat="44.74172" lon="4.13879">
        <ele>1230.6</ele>
        <time>2022-06-10T10:15:42Z</time>
      </trkpt>
      <trkpt lat="44.7417" lon="4.13882">
        <ele>1230.8</ele>
        <time>2022-06-10T10:15:43Z</time>
      </trkpt>
      <trkpt lat="44.74168" lon="4.13885">
        <ele>1230.9</ele>
        <time>2022-06-10T10:15:45Z</time>
      </trkpt>
      <trkpt lat="44.74166" lon="4.13888">
        <ele>1231.1</ele>
        <time>2022-06-10T10:15:46Z</time>
      </trkpt>
      <trkpt lat="44.74163" lon="4.13892">
        <ele>1231.3</ele>
        <time>2022-06-10T10:15:47Z</time>
      </trkpt>
      <trkpt lat="44.74162" lon="4.13893">
        <ele>1231.4</ele>
        <time>2022-06-10T10:15:48Z</time>
      </trkpt>
      <trkpt lat="44.74159" lon="4.13899">
        <ele>1231.7</ele>
        <time>2022-06-10T10:15:49Z</time>
      </trkpt>
      <trkpt lat="44.74157" lon="4.13902">
        <ele>1231.8</ele>
        <time>2022-06-10T10:15:51Z</time>
      </trkpt>
      <trkpt lat="44.74155" lon="4.13905">
        <ele>1232</ele>
        <time>2022-06-10T10:15:52Z</time>
      </trkpt>
      <trkpt lat="44.74152" lon="4.13908">
        <ele>1232.2</ele>
        <time>2022-06-10T10:15:53Z</time>
      </trkpt>
      <trkpt lat="44.7415" lon="4.13911">
        <ele>1232.4</ele>
        <time>2022-06-10T10:15:54Z</time>
      </trkpt>
      <trkpt lat="44.74148" lon="4.13913">
        <ele>1232.5</ele>
        <time>2022-06-10T10:15:55Z</time>
      </trkpt>
      <trkpt lat="44.74146" lon="4.13917">
        <ele>1232.7</ele>
        <time>2022-06-10T10:15:57Z</time>
      </trkpt>
      <trkpt lat="44.74143" lon="4.13922">
        <ele>1232.9</ele>
        <time>2022-06-10T10:15:58Z</time>
      </trkpt>
      <trkpt lat="44.74142" lon="4.13924">
        <ele>1233.1</ele>
        <time>2022-06-10T10:15:59Z</time>
      </trkpt>
      <trkpt lat="44.7414" lon="4.13927">
        <ele>1233.2</ele>
        <time>2022-06-10T10:16:01Z</time>
      </trkpt>
      <trkpt lat="44.74137" lon="4.13932">
        <ele>1233.5</ele>
        <time>2022-06-10T10:16:02Z</time>
      </trkpt>
      <trkpt lat="44.74134" lon="4.13935">
        <ele>1233.6</ele>
        <time>2022-06-10T10:16:04Z</time>
      </trkpt>
      <trkpt lat="44.74134" lon="4.13936">
        <ele>1233.7</ele>
        <time>2022-06-10T10:16:05Z</time>
      </trkpt>
      <trkpt lat="44.74131" lon="4.13939">
        <ele>1233.9</ele>
        <time>2022-06-10T10:16:06Z</time>
      </trkpt>
      <trkpt lat="44.74128" lon="4.13942">
        <ele>1234.1</ele>
        <time>2022-06-10T10:16:07Z</time>
      </trkpt>
      <trkpt lat="44.74127" lon="4.13943">
        <ele>1234.1</ele>
        <time>2022-06-10T10:16:08Z</time>
      </trkpt>
      <trkpt lat="44.74125" lon="4.13946">
        <ele>1234.3</ele>
        <time>2022-06-10T10:16:09Z</time>
      </trkpt>
      <trkpt lat="44.74123" lon="4.13949">
        <ele>1234.4</ele>
        <time>2022-06-10T10:16:10Z</time>
      </trkpt>
      <trkpt lat="44.74121" lon="4.13951">
        <ele>1234.6</ele>
        <time>2022-06-10T10:16:11Z</time>
      </trkpt>
      <trkpt lat="44.74119" lon="4.13955">
        <ele>1234.8</ele>
        <time>2022-06-10T10:16:13Z</time>
      </trkpt>
      <trkpt lat="44.74116" lon="4.1396">
        <ele>1235</ele>
        <time>2022-06-10T10:16:14Z</time>
      </trkpt>
      <trkpt lat="44.74114" lon="4.13963">
        <ele>1235.1</ele>
        <time>2022-06-10T10:16:15Z</time>
      </trkpt>
      <trkpt lat="44.74111" lon="4.13967">
        <ele>1235.3</ele>
        <time>2022-06-10T10:16:16Z</time>
      </trkpt>
      <trkpt lat="44.7411" lon="4.13969">
        <ele>1235.4</ele>
        <time>2022-06-10T10:16:17Z</time>
      </trkpt>
      <trkpt lat="44.74108" lon="4.13974">
        <ele>1235.7</ele>
        <time>2022-06-10T10:16:19Z</time>
      </trkpt>
      <trkpt lat="44.74107" lon="4.13976">
        <ele>1235.8</ele>
        <time>2022-06-10T10:16:20Z</time>
      </trkpt>
      <trkpt lat="44.74104" lon="4.13978">
        <ele>1235.9</ele>
        <time>2022-06-10T10:16:21Z</time>
      </trkpt>
      <trkpt lat="44.74103" lon="4.1398">
        <ele>1236</ele>
        <time>2022-06-10T10:16:23Z</time>
      </trkpt>
      <trkpt lat="44.741" lon="4.13985">
        <ele>1236.2</ele>
        <time>2022-06-10T10:16:24Z</time>
      </trkpt>
      <trkpt lat="44.74099" lon="4.13987">
        <ele>1236.3</ele>
        <time>2022-06-10T10:16:25Z</time>
      </trkpt>
      <trkpt lat="44.74096" lon="4.13991">
        <ele>1236.6</ele>
        <time>2022-06-10T10:16:27Z</time>
      </trkpt>
      <trkpt lat="44.74095" lon="4.13993">
        <ele>1236.6</ele>
        <time>2022-06-10T10:16:28Z</time>
      </trkpt>
      <trkpt lat="44.74094" lon="4.13995">
        <ele>1236.7</ele>
        <time>2022-06-10T10:16:29Z</time>
      </trkpt>
      <trkpt lat="44.74091" lon="4.13998">
        <ele>1236.9</ele>
        <time>2022-06-10T10:16:30Z</time>
      </trkpt>
      <trkpt lat="44.74089" lon="4.13999">
        <ele>1237</ele>
        <time>2022-06-10T10:16:31Z</time>
      </trkpt>
      <trkpt lat="44.74087" lon="4.14003">
        <ele>1237.2</ele>
        <time>2022-06-10T10:16:32Z</time>
      </trkpt>
      <trkpt lat="44.74086" lon="4.14004">
        <ele>1237.3</ele>
        <time>2022-06-10T10:16:33Z</time>
      </trkpt>
      <trkpt lat="44.74084" lon="4.14008">
        <ele>1237.5</ele>
        <time>2022-06-10T10:16:34Z</time>
      </trkpt>
      <trkpt lat="44.74083" lon="4.14009">
        <ele>1237.6</ele>
        <time>2022-06-10T10:16:35Z</time>
      </trkpt>
      <trkpt lat="44.7408" lon="4.14013">
        <ele>1237.8</ele>
        <time>2022-06-10T10:16:36Z</time>
      </trkpt>
      <trkpt lat="44.74079" lon="4.14014">
        <ele>1237.8</ele>
        <time>2022-06-10T10:16:37Z</time>
      </trkpt>
      <trkpt lat="44.74078" lon="4.14018">
        <ele>1238</ele>
        <time>2022-06-10T10:16:38Z</time>
      </trkpt>
      <trkpt lat="44.74077" lon="4.14019">
        <ele>1238.1</ele>
        <time>2022-06-10T10:16:39Z</time>
      </trkpt>
      <trkpt lat="44.74075" lon="4.14023">
        <ele>1238.3</ele>
        <time>2022-06-10T10:16:40Z</time>
      </trkpt>
      <trkpt lat="44.74074" lon="4.14024">
        <ele>1238.3</ele>
        <time>2022-06-10T10:16:41Z</time>
      </trkpt>
      <trkpt lat="44.74073" lon="4.14029">
        <ele>1238.6</ele>
        <time>2022-06-10T10:16:42Z</time>
      </trkpt>
      <trkpt lat="44.74072" lon="4.14031">
        <ele>1238.6</ele>
        <time>2022-06-10T10:16:43Z</time>
      </trkpt>
      <trkpt lat="44.7407" lon="4.14035">
        <ele>1238.8</ele>
        <time>2022-06-10T10:16:44Z</time>
      </trkpt>
      <trkpt lat="44.7407" lon="4.14037">
        <ele>1238.9</ele>
        <time>2022-06-10T10:16:45Z</time>
      </trkpt>
      <trkpt lat="44.74068" lon="4.1404">
        <ele>1239.1</ele>
        <time>2022-06-10T10:16:46Z</time>
      </trkpt>
      <trkpt lat="44.74066" lon="4.14046">
        <ele>1239.3</ele>
        <time>2022-06-10T10:16:47Z</time>
      </trkpt>
      <trkpt lat="44.74065" lon="4.14051">
        <ele>1239.5</ele>
        <time>2022-06-10T10:16:48Z</time>
      </trkpt>
      <trkpt lat="44.74064" lon="4.14052">
        <ele>1239.6</ele>
        <time>2022-06-10T10:16:49Z</time>
      </trkpt>
      <trkpt lat="44.74063" lon="4.14056">
        <ele>1239.8</ele>
        <time>2022-06-10T10:16:51Z</time>
      </trkpt>
      <trkpt lat="44.74062" lon="4.14058">
        <ele>1239.9</ele>
        <time>2022-06-10T10:16:52Z</time>
      </trkpt>
      <trkpt lat="44.74061" lon="4.14062">
        <ele>1240.1</ele>
        <time>2022-06-10T10:16:53Z</time>
      </trkpt>
      <trkpt lat="44.7406" lon="4.14067">
        <ele>1240.3</ele>
        <time>2022-06-10T10:16:54Z</time>
      </trkpt>
      <trkpt lat="44.74058" lon="4.14071">
        <ele>1240.4</ele>
        <time>2022-06-10T10:16:56Z</time>
      </trkpt>
      <trkpt lat="44.74057" lon="4.14075">
        <ele>1240.6</ele>
        <time>2022-06-10T10:16:57Z</time>
      </trkpt>
      <trkpt lat="44.74056" lon="4.14079">
        <ele>1240.8</ele>
        <time>2022-06-10T10:16:58Z</time>
      </trkpt>
      <trkpt lat="44.74055" lon="4.14083">
        <ele>1241</ele>
        <time>2022-06-10T10:16:59Z</time>
      </trkpt>
      <trkpt lat="44.74054" lon="4.14087">
        <ele>1241.2</ele>
        <time>2022-06-10T10:17:00Z</time>
      </trkpt>
      <trkpt lat="44.74052" lon="4.14091">
        <ele>1241.3</ele>
        <time>2022-06-10T10:17:02Z</time>
      </trkpt>
      <trkpt lat="44.74052" lon="4.14092">
        <ele>1241.4</ele>
        <time>2022-06-10T10:17:03Z</time>
      </trkpt>
      <trkpt lat="44.74051" lon="4.14097">
        <ele>1241.6</ele>
        <time>2022-06-10T10:17:04Z</time>
      </trkpt>
      <trkpt lat="44.74051" lon="4.14099">
        <ele>1241.7</ele>
        <time>2022-06-10T10:17:05Z</time>
      </trkpt>
      <trkpt lat="44.7405" lon="4.14105">
        <ele>1241.9</ele>
        <time>2022-06-10T10:17:06Z</time>
      </trkpt>
      <trkpt lat="44.74049" lon="4.1411">
        <ele>1242.1</ele>
        <time>2022-06-10T10:17:07Z</time>
      </trkpt>
      <trkpt lat="44.74049" lon="4.14116">
        <ele>1242.3</ele>
        <time>2022-06-10T10:17:09Z</time>
      </trkpt>
      <trkpt lat="44.74048" lon="4.14121">
        <ele>1242.5</ele>
        <time>2022-06-10T10:17:10Z</time>
      </trkpt>
      <trkpt lat="44.74048" lon="4.14124">
        <ele>1242.6</ele>
        <time>2022-06-10T10:17:11Z</time>
      </trkpt>
      <trkpt lat="44.74049" lon="4.14129">
        <ele>1242.8</ele>
        <time>2022-06-10T10:17:13Z</time>
      </trkpt>
      <trkpt lat="44.74049" lon="4.14133">
        <ele>1243</ele>
        <time>2022-06-10T10:17:14Z</time>
      </trkpt>
      <trkpt lat="44.74049" lon="4.14134">
        <ele>1243</ele>
        <time>2022-06-10T10:17:15Z</time>
      </trkpt>
      <trkpt lat="44.7405" lon="4.14138">
        <ele>1243.2</ele>
        <time>2022-06-10T10:17:16Z</time>
      </trkpt>
      <trkpt lat="44.7405" lon="4.14139">
        <ele>1243.2</ele>
        <time>2022-06-10T10:17:17Z</time>
      </trkpt>
      <trkpt lat="44.74051" lon="4.14145">
        <ele>1243.5</ele>
        <time>2022-06-10T10:17:18Z</time>
      </trkpt>
      <trkpt lat="44.74051" lon="4.14148">
        <ele>1243.6</ele>
        <time>2022-06-10T10:17:19Z</time>
      </trkpt>
      <trkpt lat="44.74052" lon="4.14152">
        <ele>1243.8</ele>
        <time>2022-06-10T10:17:21Z</time>
      </trkpt>
      <trkpt lat="44.74053" lon="4.14157">
        <ele>1244</ele>
        <time>2022-06-10T10:17:22Z</time>
      </trkpt>
      <trkpt lat="44.74054" lon="4.14164">
        <ele>1244.3</ele>
        <time>2022-06-10T10:17:24Z</time>
      </trkpt>
      <trkpt lat="44.74054" lon="4.14168">
        <ele>1244.5</ele>
        <time>2022-06-10T10:17:26Z</time>
      </trkpt>
      <trkpt lat="44.74056" lon="4.14173">
        <ele>1244.7</ele>
        <time>2022-06-10T10:17:27Z</time>
      </trkpt>
      <trkpt lat="44.74056" lon="4.14175">
        <ele>1244.8</ele>
        <time>2022-06-10T10:17:28Z</time>
      </trkpt>
      <trkpt lat="44.74058" lon="4.14179">
        <ele>1245</ele>
        <time>2022-06-10T10:17:29Z</time>
      </trkpt>
      <trkpt lat="44.74058" lon="4.14181">
        <ele>1245.1</ele>
        <time>2022-06-10T10:17:30Z</time>
      </trkpt>
      <trkpt lat="44.7406" lon="4.14185">
        <ele>1245.3</ele>
        <time>2022-06-10T10:17:31Z</time>
      </trkpt>
      <trkpt lat="44.7406" lon="4.14186">
        <ele>1245.4</ele>
        <time>2022-06-10T10:17:32Z</time>
      </trkpt>
      <trkpt lat="44.74061" lon="4.14191">
        <ele>1245.6</ele>
        <time>2022-06-10T10:17:33Z</time>
      </trkpt>
      <trkpt lat="44.74061" lon="4.14192">
        <ele>1245.6</ele>
        <time>2022-06-10T10:17:34Z</time>
      </trkpt>
      <trkpt lat="44.74062" lon="4.14197">
        <ele>1245.9</ele>
        <time>2022-06-10T10:17:36Z</time>
      </trkpt>
      <trkpt lat="44.74062" lon="4.14201">
        <ele>1246.1</ele>
        <time>2022-06-10T10:17:37Z</time>
      </trkpt>
      <trkpt lat="44.74063" lon="4.14203">
        <ele>1246.1</ele>
        <time>2022-06-10T10:17:38Z</time>
      </trkpt>
      <trkpt lat="44.74063" lon="4.14207">
        <ele>1246.3</ele>
        <time>2022-06-10T10:17:39Z</time>
      </trkpt>
      <trkpt lat="44.74064" lon="4.14208">
        <ele>1246.4</ele>
        <time>2022-06-10T10:17:40Z</time>
      </trkpt>
      <trkpt lat="44.74064" lon="4.14212">
        <ele>1246.6</ele>
        <time>2022-06-10T10:17:41Z</time>
      </trkpt>
      <trkpt lat="44.74064" lon="4.14214">
        <ele>1246.7</ele>
        <time>2022-06-10T10:17:42Z</time>
      </trkpt>
      <trkpt lat="44.74064" lon="4.14218">
        <ele>1246.9</ele>
        <time>2022-06-10T10:17:43Z</time>
      </trkpt>
      <trkpt lat="44.74064" lon="4.14219">
        <ele>1246.9</ele>
        <time>2022-06-10T10:17:44Z</time>
      </trkpt>
      <trkpt lat="44.74064" lon="4.14224">
        <ele>1247.2</ele>
        <time>2022-06-10T10:17:45Z</time>
      </trkpt>
      <trkpt lat="44.74064" lon="4.14226">
        <ele>1247.3</ele>
        <time>2022-06-10T10:17:46Z</time>
      </trkpt>
      <trkpt lat="44.74063" lon="4.1423">
        <ele>1247.6</ele>
        <time>2022-06-10T10:17:48Z</time>
      </trkpt>
      <trkpt lat="44.74063" lon="4.14232">
        <ele>1247.6</ele>
        <time>2022-06-10T10:17:49Z</time>
      </trkpt>
      <trkpt lat="44.74063" lon="4.14237">
        <ele>1247.9</ele>
        <time>2022-06-10T10:17:51Z</time>
      </trkpt>
      <trkpt lat="44.74062" lon="4.14242">
        <ele>1248.2</ele>
        <time>2022-06-10T10:17:52Z</time>
      </trkpt>
      <trkpt lat="44.74062" lon="4.14243">
        <ele>1248.3</ele>
        <time>2022-06-10T10:17:53Z</time>
      </trkpt>
      <trkpt lat="44.74061" lon="4.14248">
        <ele>1248.6</ele>
        <time>2022-06-10T10:17:54Z</time>
      </trkpt>
      <trkpt lat="44.7406" lon="4.14251">
        <ele>1248.7</ele>
        <time>2022-06-10T10:17:55Z</time>
      </trkpt>
      <trkpt lat="44.7406" lon="4.14254">
        <ele>1248.9</ele>
        <time>2022-06-10T10:17:57Z</time>
      </trkpt>
      <trkpt lat="44.74059" lon="4.14258">
        <ele>1249.1</ele>
        <time>2022-06-10T10:17:58Z</time>
      </trkpt>
      <trkpt lat="44.74059" lon="4.14259">
        <ele>1249.2</ele>
        <time>2022-06-10T10:17:59Z</time>
      </trkpt>
      <trkpt lat="44.74058" lon="4.14263">
        <ele>1249.5</ele>
        <time>2022-06-10T10:18:00Z</time>
      </trkpt>
      <trkpt lat="44.74058" lon="4.14265">
        <ele>1249.6</ele>
        <time>2022-06-10T10:18:01Z</time>
      </trkpt>
      <trkpt lat="44.74057" lon="4.14269">
        <ele>1249.8</ele>
        <time>2022-06-10T10:18:02Z</time>
      </trkpt>
      <trkpt lat="44.74056" lon="4.14271">
        <ele>1249.9</ele>
        <time>2022-06-10T10:18:03Z</time>
      </trkpt>
      <trkpt lat="44.74055" lon="4.14274">
        <ele>1250.2</ele>
        <time>2022-06-10T10:18:04Z</time>
      </trkpt>
      <trkpt lat="44.74055" lon="4.14276">
        <ele>1250.2</ele>
        <time>2022-06-10T10:18:05Z</time>
      </trkpt>
      <trkpt lat="44.74054" lon="4.14279">
        <ele>1250.5</ele>
        <time>2022-06-10T10:18:06Z</time>
      </trkpt>
      <trkpt lat="44.74053" lon="4.14281">
        <ele>1250.6</ele>
        <time>2022-06-10T10:18:07Z</time>
      </trkpt>
      <trkpt lat="44.74052" lon="4.14285">
        <ele>1250.9</ele>
        <time>2022-06-10T10:18:08Z</time>
      </trkpt>
      <trkpt lat="44.74051" lon="4.14286">
        <ele>1251</ele>
        <time>2022-06-10T10:18:09Z</time>
      </trkpt>
      <trkpt lat="44.74049" lon="4.1429">
        <ele>1251.3</ele>
        <time>2022-06-10T10:18:10Z</time>
      </trkpt>
      <trkpt lat="44.74049" lon="4.14291">
        <ele>1251.4</ele>
        <time>2022-06-10T10:18:11Z</time>
      </trkpt>
      <trkpt lat="44.74047" lon="4.14295">
        <ele>1251.6</ele>
        <time>2022-06-10T10:18:12Z</time>
      </trkpt>
      <trkpt lat="44.74046" lon="4.14296">
        <ele>1251.7</ele>
        <time>2022-06-10T10:18:13Z</time>
      </trkpt>
      <trkpt lat="44.74045" lon="4.143">
        <ele>1251.9</ele>
        <time>2022-06-10T10:18:14Z</time>
      </trkpt>
      <trkpt lat="44.74044" lon="4.143">
        <ele>1252</ele>
        <time>2022-06-10T10:18:15Z</time>
      </trkpt>
      <trkpt lat="44.74042" lon="4.14304">
        <ele>1252.2</ele>
        <time>2022-06-10T10:18:16Z</time>
      </trkpt>
      <trkpt lat="44.74041" lon="4.14305">
        <ele>1252.3</ele>
        <time>2022-06-10T10:18:17Z</time>
      </trkpt>
      <trkpt lat="44.7404" lon="4.14309">
        <ele>1252.6</ele>
        <time>2022-06-10T10:18:18Z</time>
      </trkpt>
      <trkpt lat="44.7404" lon="4.14311">
        <ele>1252.6</ele>
        <time>2022-06-10T10:18:19Z</time>
      </trkpt>
      <trkpt lat="44.74038" lon="4.14314">
        <ele>1252.8</ele>
        <time>2022-06-10T10:18:20Z</time>
      </trkpt>
      <trkpt lat="44.74037" lon="4.14315">
        <ele>1252.9</ele>
        <time>2022-06-10T10:18:21Z</time>
      </trkpt>
      <trkpt lat="44.74035" lon="4.14319">
        <ele>1253.1</ele>
        <time>2022-06-10T10:18:22Z</time>
      </trkpt>
      <trkpt lat="44.74034" lon="4.1432">
        <ele>1253.2</ele>
        <time>2022-06-10T10:18:23Z</time>
      </trkpt>
      <trkpt lat="44.74031" lon="4.14324">
        <ele>1253.4</ele>
        <time>2022-06-10T10:18:24Z</time>
      </trkpt>
      <trkpt lat="44.74029" lon="4.14328">
        <ele>1253.7</ele>
        <time>2022-06-10T10:18:26Z</time>
      </trkpt>
      <trkpt lat="44.74027" lon="4.1433">
        <ele>1253.8</ele>
        <time>2022-06-10T10:18:27Z</time>
      </trkpt>
      <trkpt lat="44.74023" lon="4.14334">
        <ele>1254.1</ele>
        <time>2022-06-10T10:18:29Z</time>
      </trkpt>
      <trkpt lat="44.74022" lon="4.14335">
        <ele>1254.2</ele>
        <time>2022-06-10T10:18:30Z</time>
      </trkpt>
      <trkpt lat="44.74021" lon="4.14336">
        <ele>1254.3</ele>
        <time>2022-06-10T10:18:31Z</time>
      </trkpt>
      <trkpt lat="44.74018" lon="4.14339">
        <ele>1254.6</ele>
        <time>2022-06-10T10:18:32Z</time>
      </trkpt>
      <trkpt lat="44.74017" lon="4.14339">
        <ele>1254.6</ele>
        <time>2022-06-10T10:18:33Z</time>
      </trkpt>
      <trkpt lat="44.74012" lon="4.14343">
        <ele>1255</ele>
        <time>2022-06-10T10:18:34Z</time>
      </trkpt>
      <trkpt lat="44.7401" lon="4.14345">
        <ele>1255.2</ele>
        <time>2022-06-10T10:18:35Z</time>
      </trkpt>
      <trkpt lat="44.74007" lon="4.14347">
        <ele>1255.4</ele>
        <time>2022-06-10T10:18:37Z</time>
      </trkpt>
      <trkpt lat="44.74004" lon="4.14349">
        <ele>1255.6</ele>
        <time>2022-06-10T10:18:38Z</time>
      </trkpt>
      <trkpt lat="44.74003" lon="4.1435">
        <ele>1255.7</ele>
        <time>2022-06-10T10:18:39Z</time>
      </trkpt>
      <trkpt lat="44.73999" lon="4.14352">
        <ele>1256</ele>
        <time>2022-06-10T10:18:40Z</time>
      </trkpt>
      <trkpt lat="44.73998" lon="4.14353">
        <ele>1256</ele>
        <time>2022-06-10T10:18:41Z</time>
      </trkpt>
      <trkpt lat="44.73995" lon="4.14356">
        <ele>1256.3</ele>
        <time>2022-06-10T10:18:42Z</time>
      </trkpt>
      <trkpt lat="44.73993" lon="4.14358">
        <ele>1256.5</ele>
        <time>2022-06-10T10:18:43Z</time>
      </trkpt>
      <trkpt lat="44.73991" lon="4.14359">
        <ele>1256.6</ele>
        <time>2022-06-10T10:18:45Z</time>
      </trkpt>
      <trkpt lat="44.73988" lon="4.14361">
        <ele>1256.8</ele>
        <time>2022-06-10T10:18:46Z</time>
      </trkpt>
      <trkpt lat="44.73987" lon="4.14362">
        <ele>1256.8</ele>
        <time>2022-06-10T10:18:47Z</time>
      </trkpt>
      <trkpt lat="44.73983" lon="4.14365">
        <ele>1257.1</ele>
        <time>2022-06-10T10:18:48Z</time>
      </trkpt>
      <trkpt lat="44.7398" lon="4.14366">
        <ele>1257.2</ele>
        <time>2022-06-10T10:18:49Z</time>
      </trkpt>
      <trkpt lat="44.73979" lon="4.14366">
        <ele>1257.3</ele>
        <time>2022-06-10T10:18:50Z</time>
      </trkpt>
      <trkpt lat="44.73975" lon="4.14366">
        <ele>1257.4</ele>
        <time>2022-06-10T10:18:52Z</time>
      </trkpt>
      <trkpt lat="44.73974" lon="4.14366">
        <ele>1257.5</ele>
        <time>2022-06-10T10:18:53Z</time>
      </trkpt>
      <trkpt lat="44.7397" lon="4.14367">
        <ele>1257.6</ele>
        <time>2022-06-10T10:18:54Z</time>
      </trkpt>
      <trkpt lat="44.73969" lon="4.14367">
        <ele>1257.7</ele>
        <time>2022-06-10T10:18:55Z</time>
      </trkpt>
      <trkpt lat="44.73966" lon="4.14368">
        <ele>1257.8</ele>
        <time>2022-06-10T10:18:56Z</time>
      </trkpt>
      <trkpt lat="44.73962" lon="4.14369">
        <ele>1257.9</ele>
        <time>2022-06-10T10:18:57Z</time>
      </trkpt>
      <trkpt lat="44.73959" lon="4.14369">
        <ele>1258</ele>
        <time>2022-06-10T10:18:58Z</time>
      </trkpt>
      <trkpt lat="44.73955" lon="4.1437">
        <ele>1258.1</ele>
        <time>2022-06-10T10:18:59Z</time>
      </trkpt>
      <trkpt lat="44.73948" lon="4.14372">
        <ele>1258.3</ele>
        <time>2022-06-10T10:19:00Z</time>
      </trkpt>
      <trkpt lat="44.73944" lon="4.14373">
        <ele>1258.4</ele>
        <time>2022-06-10T10:19:02Z</time>
      </trkpt>
      <trkpt lat="44.73941" lon="4.14374">
        <ele>1258.5</ele>
        <time>2022-06-10T10:19:03Z</time>
      </trkpt>
      <trkpt lat="44.73938" lon="4.14375">
        <ele>1258.6</ele>
        <time>2022-06-10T10:19:04Z</time>
      </trkpt>
      <trkpt lat="44.73935" lon="4.14377">
        <ele>1258.6</ele>
        <time>2022-06-10T10:19:05Z</time>
      </trkpt>
      <trkpt lat="44.73932" lon="4.14379">
        <ele>1258.7</ele>
        <time>2022-06-10T10:19:06Z</time>
      </trkpt>
      <trkpt lat="44.73928" lon="4.14384">
        <ele>1258.8</ele>
        <time>2022-06-10T10:19:07Z</time>
      </trkpt>
      <trkpt lat="44.73926" lon="4.14387">
        <ele>1258.9</ele>
        <time>2022-06-10T10:19:09Z</time>
      </trkpt>
      <trkpt lat="44.73925" lon="4.1439">
        <ele>1258.9</ele>
        <time>2022-06-10T10:19:10Z</time>
      </trkpt>
      <trkpt lat="44.73923" lon="4.14396">
        <ele>1259</ele>
        <time>2022-06-10T10:19:11Z</time>
      </trkpt>
      <trkpt lat="44.7392" lon="4.14404">
        <ele>1259.2</ele>
        <time>2022-06-10T10:19:12Z</time>
      </trkpt>
      <trkpt lat="44.73917" lon="4.1441">
        <ele>1259.3</ele>
        <time>2022-06-10T10:19:13Z</time>
      </trkpt>
      <trkpt lat="44.73914" lon="4.14416">
        <ele>1259.4</ele>
        <time>2022-06-10T10:19:14Z</time>
      </trkpt>
      <trkpt lat="44.73911" lon="4.14422">
        <ele>1259.4</ele>
        <time>2022-06-10T10:19:16Z</time>
      </trkpt>
      <trkpt lat="44.73907" lon="4.14427">
        <ele>1259.5</ele>
        <time>2022-06-10T10:19:17Z</time>
      </trkpt>
      <trkpt lat="44.73904" lon="4.14431">
        <ele>1259.6</ele>
        <time>2022-06-10T10:19:18Z</time>
      </trkpt>
      <trkpt lat="44.73902" lon="4.14436">
        <ele>1259.7</ele>
        <time>2022-06-10T10:19:19Z</time>
      </trkpt>
      <trkpt lat="44.73898" lon="4.14441">
        <ele>1259.9</ele>
        <time>2022-06-10T10:19:20Z</time>
      </trkpt>
      <trkpt lat="44.73894" lon="4.14446">
        <ele>1260</ele>
        <time>2022-06-10T10:19:21Z</time>
      </trkpt>
      <trkpt lat="44.73892" lon="4.1445">
        <ele>1260.1</ele>
        <time>2022-06-10T10:19:23Z</time>
      </trkpt>
      <trkpt lat="44.73889" lon="4.14454">
        <ele>1260.2</ele>
        <time>2022-06-10T10:19:24Z</time>
      </trkpt>
      <trkpt lat="44.73887" lon="4.14459">
        <ele>1260.3</ele>
        <time>2022-06-10T10:19:25Z</time>
      </trkpt>
      <trkpt lat="44.73884" lon="4.14465">
        <ele>1260.4</ele>
        <time>2022-06-10T10:19:26Z</time>
      </trkpt>
      <trkpt lat="44.73881" lon="4.1447">
        <ele>1260.5</ele>
        <time>2022-06-10T10:19:27Z</time>
      </trkpt>
      <trkpt lat="44.73878" lon="4.14477">
        <ele>1260.7</ele>
        <time>2022-06-10T10:19:28Z</time>
      </trkpt>
      <trkpt lat="44.73876" lon="4.14482">
        <ele>1260.8</ele>
        <time>2022-06-10T10:19:30Z</time>
      </trkpt>
      <trkpt lat="44.73874" lon="4.14487">
        <ele>1261</ele>
        <time>2022-06-10T10:19:31Z</time>
      </trkpt>
      <trkpt lat="44.73872" lon="4.14492">
        <ele>1261.1</ele>
        <time>2022-06-10T10:19:32Z</time>
      </trkpt>
      <trkpt lat="44.73869" lon="4.145">
        <ele>1261.3</ele>
        <time>2022-06-10T10:19:33Z</time>
      </trkpt>
      <trkpt lat="44.73867" lon="4.14504">
        <ele>1261.4</ele>
        <time>2022-06-10T10:19:35Z</time>
      </trkpt>
      <trkpt lat="44.73865" lon="4.14509">
        <ele>1261.5</ele>
        <time>2022-06-10T10:19:36Z</time>
      </trkpt>
      <trkpt lat="44.73863" lon="4.14515">
        <ele>1261.6</ele>
        <time>2022-06-10T10:19:37Z</time>
      </trkpt>
      <trkpt lat="44.73861" lon="4.1452">
        <ele>1261.7</ele>
        <time>2022-06-10T10:19:38Z</time>
      </trkpt>
      <trkpt lat="44.7386" lon="4.14525">
        <ele>1261.8</ele>
        <time>2022-06-10T10:19:39Z</time>
      </trkpt>
      <trkpt lat="44.73858" lon="4.1453">
        <ele>1261.9</ele>
        <time>2022-06-10T10:19:40Z</time>
      </trkpt>
      <trkpt lat="44.73856" lon="4.14535">
        <ele>1262</ele>
        <time>2022-06-10T10:19:41Z</time>
      </trkpt>
      <trkpt lat="44.73855" lon="4.14539">
        <ele>1262</ele>
        <time>2022-06-10T10:19:42Z</time>
      </trkpt>
      <trkpt lat="44.73853" lon="4.14544">
        <ele>1262.1</ele>
        <time>2022-06-10T10:19:43Z</time>
      </trkpt>
      <trkpt lat="44.73851" lon="4.14549">
        <ele>1262.2</ele>
        <time>2022-06-10T10:19:44Z</time>
      </trkpt>
      <trkpt lat="44.7385" lon="4.14553">
        <ele>1262.2</ele>
        <time>2022-06-10T10:19:45Z</time>
      </trkpt>
      <trkpt lat="44.73847" lon="4.1456">
        <ele>1262.3</ele>
        <time>2022-06-10T10:19:46Z</time>
      </trkpt>
      <trkpt lat="44.73845" lon="4.14567">
        <ele>1262.4</ele>
        <time>2022-06-10T10:19:47Z</time>
      </trkpt>
      <trkpt lat="44.73843" lon="4.14574">
        <ele>1262.5</ele>
        <time>2022-06-10T10:19:48Z</time>
      </trkpt>
      <trkpt lat="44.73839" lon="4.14585">
        <ele>1262.6</ele>
        <time>2022-06-10T10:19:50Z</time>
      </trkpt>
      <trkpt lat="44.73838" lon="4.14592">
        <ele>1262.6</ele>
        <time>2022-06-10T10:19:51Z</time>
      </trkpt>
      <trkpt lat="44.73836" lon="4.14598">
        <ele>1262.6</ele>
        <time>2022-06-10T10:19:52Z</time>
      </trkpt>
      <trkpt lat="44.73833" lon="4.14604">
        <ele>1262.7</ele>
        <time>2022-06-10T10:19:53Z</time>
      </trkpt>
      <trkpt lat="44.73831" lon="4.14611">
        <ele>1262.7</ele>
        <time>2022-06-10T10:19:54Z</time>
      </trkpt>
      <trkpt lat="44.73829" lon="4.14617">
        <ele>1262.7</ele>
        <time>2022-06-10T10:19:55Z</time>
      </trkpt>
      <trkpt lat="44.73827" lon="4.14624">
        <ele>1262.8</ele>
        <time>2022-06-10T10:19:56Z</time>
      </trkpt>
      <trkpt lat="44.73825" lon="4.14631">
        <ele>1262.8</ele>
        <time>2022-06-10T10:19:57Z</time>
      </trkpt>
      <trkpt lat="44.73822" lon="4.14638">
        <ele>1262.8</ele>
        <time>2022-06-10T10:19:58Z</time>
      </trkpt>
      <trkpt lat="44.7382" lon="4.14645">
        <ele>1262.8</ele>
        <time>2022-06-10T10:19:59Z</time>
      </trkpt>
      <trkpt lat="44.73818" lon="4.14652">
        <ele>1262.8</ele>
        <time>2022-06-10T10:20:00Z</time>
      </trkpt>
      <trkpt lat="44.73816" lon="4.14659">
        <ele>1262.8</ele>
        <time>2022-06-10T10:20:01Z</time>
      </trkpt>
      <trkpt lat="44.73814" lon="4.14666">
        <ele>1262.9</ele>
        <time>2022-06-10T10:20:02Z</time>
      </trkpt>
      <trkpt lat="44.73812" lon="4.14673">
        <ele>1262.9</ele>
        <time>2022-06-10T10:20:03Z</time>
      </trkpt>
      <trkpt lat="44.7381" lon="4.14679">
        <ele>1262.9</ele>
        <time>2022-06-10T10:20:04Z</time>
      </trkpt>
      <trkpt lat="44.73808" lon="4.14687">
        <ele>1262.9</ele>
        <time>2022-06-10T10:20:05Z</time>
      </trkpt>
      <trkpt lat="44.73806" lon="4.14695">
        <ele>1262.9</ele>
        <time>2022-06-10T10:20:06Z</time>
      </trkpt>
      <trkpt lat="44.73804" lon="4.14702">
        <ele>1262.9</ele>
        <time>2022-06-10T10:20:07Z</time>
      </trkpt>
      <trkpt lat="44.73802" lon="4.14709">
        <ele>1262.9</ele>
        <time>2022-06-10T10:20:08Z</time>
      </trkpt>
      <trkpt lat="44.73799" lon="4.14716">
        <ele>1263</ele>
        <time>2022-06-10T10:20:09Z</time>
      </trkpt>
      <trkpt lat="44.73797" lon="4.14722">
        <ele>1263</ele>
        <time>2022-06-10T10:20:10Z</time>
      </trkpt>
      <trkpt lat="44.73794" lon="4.1473">
        <ele>1263</ele>
        <time>2022-06-10T10:20:11Z</time>
      </trkpt>
      <trkpt lat="44.73792" lon="4.14737">
        <ele>1263.1</ele>
        <time>2022-06-10T10:20:12Z</time>
      </trkpt>
      <trkpt lat="44.73789" lon="4.14744">
        <ele>1263.1</ele>
        <time>2022-06-10T10:20:13Z</time>
      </trkpt>
      <trkpt lat="44.73787" lon="4.1475">
        <ele>1263.2</ele>
        <time>2022-06-10T10:20:14Z</time>
      </trkpt>
      <trkpt lat="44.73785" lon="4.14757">
        <ele>1263.3</ele>
        <time>2022-06-10T10:20:15Z</time>
      </trkpt>
      <trkpt lat="44.73782" lon="4.14764">
        <ele>1263.4</ele>
        <time>2022-06-10T10:20:16Z</time>
      </trkpt>
      <trkpt lat="44.73779" lon="4.14771">
        <ele>1263.4</ele>
        <time>2022-06-10T10:20:17Z</time>
      </trkpt>
      <trkpt lat="44.73777" lon="4.14779">
        <ele>1263.6</ele>
        <time>2022-06-10T10:20:18Z</time>
      </trkpt>
      <trkpt lat="44.73775" lon="4.14785">
        <ele>1263.6</ele>
        <time>2022-06-10T10:20:19Z</time>
      </trkpt>
      <trkpt lat="44.73773" lon="4.14792">
        <ele>1263.7</ele>
        <time>2022-06-10T10:20:20Z</time>
      </trkpt>
      <trkpt lat="44.73771" lon="4.14799">
        <ele>1263.8</ele>
        <time>2022-06-10T10:20:21Z</time>
      </trkpt>
      <trkpt lat="44.7377" lon="4.14805">
        <ele>1263.9</ele>
        <time>2022-06-10T10:20:22Z</time>
      </trkpt>
      <trkpt lat="44.73768" lon="4.14811">
        <ele>1263.9</ele>
        <time>2022-06-10T10:20:23Z</time>
      </trkpt>
      <trkpt lat="44.73765" lon="4.14818">
        <ele>1263.9</ele>
        <time>2022-06-10T10:20:24Z</time>
      </trkpt>
      <trkpt lat="44.73763" lon="4.14826">
        <ele>1263.8</ele>
        <time>2022-06-10T10:20:25Z</time>
      </trkpt>
      <trkpt lat="44.73761" lon="4.14833">
        <ele>1263.8</ele>
        <time>2022-06-10T10:20:26Z</time>
      </trkpt>
      <trkpt lat="44.73759" lon="4.1484">
        <ele>1263.8</ele>
        <time>2022-06-10T10:20:27Z</time>
      </trkpt>
      <trkpt lat="44.73757" lon="4.14848">
        <ele>1263.8</ele>
        <time>2022-06-10T10:20:28Z</time>
      </trkpt>
      <trkpt lat="44.73754" lon="4.14855">
        <ele>1263.8</ele>
        <time>2022-06-10T10:20:29Z</time>
      </trkpt>
      <trkpt lat="44.73753" lon="4.14862">
        <ele>1263.7</ele>
        <time>2022-06-10T10:20:30Z</time>
      </trkpt>
      <trkpt lat="44.73752" lon="4.14869">
        <ele>1263.6</ele>
        <time>2022-06-10T10:20:31Z</time>
      </trkpt>
      <trkpt lat="44.73751" lon="4.14876">
        <ele>1263.6</ele>
        <time>2022-06-10T10:20:32Z</time>
      </trkpt>
      <trkpt lat="44.7375" lon="4.14883">
        <ele>1263.5</ele>
        <time>2022-06-10T10:20:33Z</time>
      </trkpt>
      <trkpt lat="44.7375" lon="4.1489">
        <ele>1263.4</ele>
        <time>2022-06-10T10:20:34Z</time>
      </trkpt>
      <trkpt lat="44.73749" lon="4.14898">
        <ele>1263.3</ele>
        <time>2022-06-10T10:20:35Z</time>
      </trkpt>
      <trkpt lat="44.73748" lon="4.14905">
        <ele>1263.3</ele>
        <time>2022-06-10T10:20:36Z</time>
      </trkpt>
      <trkpt lat="44.73749" lon="4.14913">
        <ele>1263.2</ele>
        <time>2022-06-10T10:20:37Z</time>
      </trkpt>
      <trkpt lat="44.73749" lon="4.14921">
        <ele>1263.1</ele>
        <time>2022-06-10T10:20:38Z</time>
      </trkpt>
      <trkpt lat="44.7375" lon="4.14928">
        <ele>1263</ele>
        <time>2022-06-10T10:20:39Z</time>
      </trkpt>
      <trkpt lat="44.73751" lon="4.14936">
        <ele>1262.9</ele>
        <time>2022-06-10T10:20:40Z</time>
      </trkpt>
      <trkpt lat="44.73751" lon="4.14943">
        <ele>1262.8</ele>
        <time>2022-06-10T10:20:41Z</time>
      </trkpt>
      <trkpt lat="44.73753" lon="4.1495">
        <ele>1262.7</ele>
        <time>2022-06-10T10:20:42Z</time>
      </trkpt>
      <trkpt lat="44.73755" lon="4.14958">
        <ele>1262.6</ele>
        <time>2022-06-10T10:20:43Z</time>
      </trkpt>
      <trkpt lat="44.73758" lon="4.14966">
        <ele>1262.4</ele>
        <time>2022-06-10T10:20:44Z</time>
      </trkpt>
      <trkpt lat="44.73761" lon="4.14974">
        <ele>1262.2</ele>
        <time>2022-06-10T10:20:45Z</time>
      </trkpt>
      <trkpt lat="44.73764" lon="4.14982">
        <ele>1262</ele>
        <time>2022-06-10T10:20:46Z</time>
      </trkpt>
      <trkpt lat="44.73768" lon="4.1499">
        <ele>1261.8</ele>
        <time>2022-06-10T10:20:47Z</time>
      </trkpt>
      <trkpt lat="44.73771" lon="4.14997">
        <ele>1261.6</ele>
        <time>2022-06-10T10:20:48Z</time>
      </trkpt>
      <trkpt lat="44.73774" lon="4.15005">
        <ele>1261.5</ele>
        <time>2022-06-10T10:20:49Z</time>
      </trkpt>
      <trkpt lat="44.73777" lon="4.15012">
        <ele>1261.3</ele>
        <time>2022-06-10T10:20:50Z</time>
      </trkpt>
      <trkpt lat="44.7378" lon="4.1502">
        <ele>1261.2</ele>
        <time>2022-06-10T10:20:51Z</time>
      </trkpt>
      <trkpt lat="44.73783" lon="4.15027">
        <ele>1261</ele>
        <time>2022-06-10T10:20:52Z</time>
      </trkpt>
      <trkpt lat="44.73786" lon="4.15034">
        <ele>1260.9</ele>
        <time>2022-06-10T10:20:53Z</time>
      </trkpt>
      <trkpt lat="44.73788" lon="4.15041">
        <ele>1260.8</ele>
        <time>2022-06-10T10:20:54Z</time>
      </trkpt>
      <trkpt lat="44.73791" lon="4.15048">
        <ele>1260.6</ele>
        <time>2022-06-10T10:20:55Z</time>
      </trkpt>
      <trkpt lat="44.73795" lon="4.15056">
        <ele>1260.5</ele>
        <time>2022-06-10T10:20:56Z</time>
      </trkpt>
      <trkpt lat="44.73798" lon="4.15063">
        <ele>1260.3</ele>
        <time>2022-06-10T10:20:57Z</time>
      </trkpt>
      <trkpt lat="44.73801" lon="4.1507">
        <ele>1260.2</ele>
        <time>2022-06-10T10:20:58Z</time>
      </trkpt>
      <trkpt lat="44.73803" lon="4.15079">
        <ele>1260</ele>
        <time>2022-06-10T10:20:59Z</time>
      </trkpt>
      <trkpt lat="44.73806" lon="4.15087">
        <ele>1259.8</ele>
        <time>2022-06-10T10:21:00Z</time>
      </trkpt>
      <trkpt lat="44.73807" lon="4.15096">
        <ele>1259.7</ele>
        <time>2022-06-10T10:21:01Z</time>
      </trkpt>
      <trkpt lat="44.73807" lon="4.15105">
        <ele>1259.5</ele>
        <time>2022-06-10T10:21:02Z</time>
      </trkpt>
      <trkpt lat="44.73805" lon="4.15113">
        <ele>1259.3</ele>
        <time>2022-06-10T10:21:03Z</time>
      </trkpt>
      <trkpt lat="44.73802" lon="4.15121">
        <ele>1259.2</ele>
        <time>2022-06-10T10:21:04Z</time>
      </trkpt>
      <trkpt lat="44.73798" lon="4.15127">
        <ele>1259.1</ele>
        <time>2022-06-10T10:21:05Z</time>
      </trkpt>
      <trkpt lat="44.73794" lon="4.15132">
        <ele>1258.9</ele>
        <time>2022-06-10T10:21:06Z</time>
      </trkpt>
      <trkpt lat="44.73788" lon="4.15136">
        <ele>1258.8</ele>
        <time>2022-06-10T10:21:07Z</time>
      </trkpt>
      <trkpt lat="44.73783" lon="4.15138">
        <ele>1258.6</ele>
        <time>2022-06-10T10:21:08Z</time>
      </trkpt>
      <trkpt lat="44.73777" lon="4.15139">
        <ele>1258.5</ele>
        <time>2022-06-10T10:21:09Z</time>
      </trkpt>
      <trkpt lat="44.73771" lon="4.15141">
        <ele>1258.3</ele>
        <time>2022-06-10T10:21:10Z</time>
      </trkpt>
      <trkpt lat="44.73765" lon="4.15142">
        <ele>1258.2</ele>
        <time>2022-06-10T10:21:11Z</time>
      </trkpt>
      <trkpt lat="44.7376" lon="4.15144">
        <ele>1258</ele>
        <time>2022-06-10T10:21:12Z</time>
      </trkpt>
      <trkpt lat="44.73754" lon="4.15146">
        <ele>1257.9</ele>
        <time>2022-06-10T10:21:13Z</time>
      </trkpt>
      <trkpt lat="44.73749" lon="4.15149">
        <ele>1257.8</ele>
        <time>2022-06-10T10:21:14Z</time>
      </trkpt>
      <trkpt lat="44.73744" lon="4.15152">
        <ele>1257.6</ele>
        <time>2022-06-10T10:21:15Z</time>
      </trkpt>
      <trkpt lat="44.7374" lon="4.15155">
        <ele>1257.4</ele>
        <time>2022-06-10T10:21:16Z</time>
      </trkpt>
      <trkpt lat="44.73735" lon="4.1516">
        <ele>1257.3</ele>
        <time>2022-06-10T10:21:17Z</time>
      </trkpt>
      <trkpt lat="44.7373" lon="4.15164">
        <ele>1257.1</ele>
        <time>2022-06-10T10:21:18Z</time>
      </trkpt>
      <trkpt lat="44.73726" lon="4.15169">
        <ele>1256.9</ele>
        <time>2022-06-10T10:21:19Z</time>
      </trkpt>
      <trkpt lat="44.73722" lon="4.15175">
        <ele>1256.8</ele>
        <time>2022-06-10T10:21:20Z</time>
      </trkpt>
      <trkpt lat="44.73718" lon="4.15181">
        <ele>1256.6</ele>
        <time>2022-06-10T10:21:21Z</time>
      </trkpt>
      <trkpt lat="44.73714" lon="4.15188">
        <ele>1256.4</ele>
        <time>2022-06-10T10:21:22Z</time>
      </trkpt>
      <trkpt lat="44.73711" lon="4.15195">
        <ele>1256.3</ele>
        <time>2022-06-10T10:21:23Z</time>
      </trkpt>
      <trkpt lat="44.73707" lon="4.15203">
        <ele>1256.1</ele>
        <time>2022-06-10T10:21:24Z</time>
      </trkpt>
      <trkpt lat="44.73704" lon="4.1521">
        <ele>1256</ele>
        <time>2022-06-10T10:21:25Z</time>
      </trkpt>
      <trkpt lat="44.73701" lon="4.15219">
        <ele>1255.8</ele>
        <time>2022-06-10T10:21:26Z</time>
      </trkpt>
      <trkpt lat="44.73698" lon="4.15227">
        <ele>1255.6</ele>
        <time>2022-06-10T10:21:27Z</time>
      </trkpt>
      <trkpt lat="44.73695" lon="4.15236">
        <ele>1255.5</ele>
        <time>2022-06-10T10:21:28Z</time>
      </trkpt>
      <trkpt lat="44.73691" lon="4.15245">
        <ele>1255.3</ele>
        <time>2022-06-10T10:21:29Z</time>
      </trkpt>
      <trkpt lat="44.73688" lon="4.15255">
        <ele>1255.1</ele>
        <time>2022-06-10T10:21:30Z</time>
      </trkpt>
      <trkpt lat="44.73685" lon="4.15264">
        <ele>1254.9</ele>
        <time>2022-06-10T10:21:31Z</time>
      </trkpt>
      <trkpt lat="44.73682" lon="4.15274">
        <ele>1254.6</ele>
        <time>2022-06-10T10:21:32Z</time>
      </trkpt>
      <trkpt lat="44.73679" lon="4.15284">
        <ele>1254.4</ele>
        <time>2022-06-10T10:21:33Z</time>
      </trkpt>
      <trkpt lat="44.73675" lon="4.15294">
        <ele>1254.2</ele>
        <time>2022-06-10T10:21:34Z</time>
      </trkpt>
      <trkpt lat="44.73671" lon="4.15304">
        <ele>1254</ele>
        <time>2022-06-10T10:21:35Z</time>
      </trkpt>
      <trkpt lat="44.73667" lon="4.15314">
        <ele>1253.8</ele>
        <time>2022-06-10T10:21:36Z</time>
      </trkpt>
      <trkpt lat="44.73662" lon="4.15323">
        <ele>1253.5</ele>
        <time>2022-06-10T10:21:37Z</time>
      </trkpt>
      <trkpt lat="44.73656" lon="4.15332">
        <ele>1253.3</ele>
        <time>2022-06-10T10:21:38Z</time>
      </trkpt>
      <trkpt lat="44.73651" lon="4.1534">
        <ele>1253.1</ele>
        <time>2022-06-10T10:21:39Z</time>
      </trkpt>
      <trkpt lat="44.73646" lon="4.1535">
        <ele>1252.9</ele>
        <time>2022-06-10T10:21:40Z</time>
      </trkpt>
      <trkpt lat="44.73641" lon="4.15359">
        <ele>1252.6</ele>
        <time>2022-06-10T10:21:41Z</time>
      </trkpt>
      <trkpt lat="44.73635" lon="4.15369">
        <ele>1252.4</ele>
        <time>2022-06-10T10:21:42Z</time>
      </trkpt>
      <trkpt lat="44.73631" lon="4.15379">
        <ele>1252.2</ele>
        <time>2022-06-10T10:21:43Z</time>
      </trkpt>
      <trkpt lat="44.73626" lon="4.1539">
        <ele>1251.9</ele>
        <time>2022-06-10T10:21:44Z</time>
      </trkpt>
      <trkpt lat="44.73621" lon="4.154">
        <ele>1251.6</ele>
        <time>2022-06-10T10:21:45Z</time>
      </trkpt>
      <trkpt lat="44.73615" lon="4.1541">
        <ele>1251.3</ele>
        <time>2022-06-10T10:21:46Z</time>
      </trkpt>
      <trkpt lat="44.7361" lon="4.1542">
        <ele>1251</ele>
        <time>2022-06-10T10:21:47Z</time>
      </trkpt>
      <trkpt lat="44.73605" lon="4.15431">
        <ele>1250.8</ele>
        <time>2022-06-10T10:21:48Z</time>
      </trkpt>
      <trkpt lat="44.73601" lon="4.15442">
        <ele>1250.5</ele>
        <time>2022-06-10T10:21:49Z</time>
      </trkpt>
      <trkpt lat="44.73596" lon="4.15453">
        <ele>1250.3</ele>
        <time>2022-06-10T10:21:50Z</time>
      </trkpt>
      <trkpt lat="44.73592" lon="4.15465">
        <ele>1250.1</ele>
        <time>2022-06-10T10:21:51Z</time>
      </trkpt>
      <trkpt lat="44.73588" lon="4.15476">
        <ele>1249.8</ele>
        <time>2022-06-10T10:21:52Z</time>
      </trkpt>
      <trkpt lat="44.73585" lon="4.15487">
        <ele>1249.6</ele>
        <time>2022-06-10T10:21:53Z</time>
      </trkpt>
      <trkpt lat="44.73582" lon="4.15499">
        <ele>1249.4</ele>
        <time>2022-06-10T10:21:54Z</time>
      </trkpt>
      <trkpt lat="44.7358" lon="4.1551">
        <ele>1249.2</ele>
        <time>2022-06-10T10:21:55Z</time>
      </trkpt>
      <trkpt lat="44.73579" lon="4.15522">
        <ele>1249.1</ele>
        <time>2022-06-10T10:21:56Z</time>
      </trkpt>
      <trkpt lat="44.73578" lon="4.15535">
        <ele>1248.9</ele>
        <time>2022-06-10T10:21:57Z</time>
      </trkpt>
      <trkpt lat="44.73577" lon="4.15547">
        <ele>1248.7</ele>
        <time>2022-06-10T10:21:58Z</time>
      </trkpt>
      <trkpt lat="44.73577" lon="4.15559">
        <ele>1248.5</ele>
        <time>2022-06-10T10:21:59Z</time>
      </trkpt>
      <trkpt lat="44.73577" lon="4.15571">
        <ele>1248.3</ele>
        <time>2022-06-10T10:22:00Z</time>
      </trkpt>
      <trkpt lat="44.73579" lon="4.15582">
        <ele>1248.1</ele>
        <time>2022-06-10T10:22:01Z</time>
      </trkpt>
      <trkpt lat="44.73581" lon="4.15593">
        <ele>1247.9</ele>
        <time>2022-06-10T10:22:02Z</time>
      </trkpt>
      <trkpt lat="44.73585" lon="4.15604">
        <ele>1247.7</ele>
        <time>2022-06-10T10:22:03Z</time>
      </trkpt>
      <trkpt lat="44.73588" lon="4.15614">
        <ele>1247.5</ele>
        <time>2022-06-10T10:22:04Z</time>
      </trkpt>
      <trkpt lat="44.73592" lon="4.15624">
        <ele>1247.4</ele>
        <time>2022-06-10T10:22:05Z</time>
      </trkpt>
      <trkpt lat="44.73595" lon="4.15634">
        <ele>1247.2</ele>
        <time>2022-06-10T10:22:06Z</time>
      </trkpt>
      <trkpt lat="44.73598" lon="4.15644">
        <ele>1247</ele>
        <time>2022-06-10T10:22:07Z</time>
      </trkpt>
      <trkpt lat="44.73601" lon="4.15654">
        <ele>1246.8</ele>
        <time>2022-06-10T10:22:08Z</time>
      </trkpt>
      <trkpt lat="44.73603" lon="4.15664">
        <ele>1246.5</ele>
        <time>2022-06-10T10:22:09Z</time>
      </trkpt>
      <trkpt lat="44.73604" lon="4.15675">
        <ele>1246.3</ele>
        <time>2022-06-10T10:22:10Z</time>
      </trkpt>
      <trkpt lat="44.73604" lon="4.15685">
        <ele>1246.1</ele>
        <time>2022-06-10T10:22:11Z</time>
      </trkpt>
      <trkpt lat="44.73604" lon="4.15696">
        <ele>1245.9</ele>
        <time>2022-06-10T10:22:12Z</time>
      </trkpt>
      <trkpt lat="44.73604" lon="4.15707">
        <ele>1245.6</ele>
        <time>2022-06-10T10:22:13Z</time>
      </trkpt>
      <trkpt lat="44.73604" lon="4.15717">
        <ele>1245.4</ele>
        <time>2022-06-10T10:22:14Z</time>
      </trkpt>
      <trkpt lat="44.73605" lon="4.15727">
        <ele>1245.2</ele>
        <time>2022-06-10T10:22:15Z</time>
      </trkpt>
      <trkpt lat="44.73606" lon="4.15738">
        <ele>1245</ele>
        <time>2022-06-10T10:22:16Z</time>
      </trkpt>
      <trkpt lat="44.73608" lon="4.15748">
        <ele>1244.7</ele>
        <time>2022-06-10T10:22:17Z</time>
      </trkpt>
      <trkpt lat="44.7361" lon="4.15757">
        <ele>1244.5</ele>
        <time>2022-06-10T10:22:18Z</time>
      </trkpt>
      <trkpt lat="44.73612" lon="4.15767">
        <ele>1244.3</ele>
        <time>2022-06-10T10:22:19Z</time>
      </trkpt>
      <trkpt lat="44.73614" lon="4.15776">
        <ele>1244.1</ele>
        <time>2022-06-10T10:22:20Z</time>
      </trkpt>
      <trkpt lat="44.73617" lon="4.15785">
        <ele>1243.9</ele>
        <time>2022-06-10T10:22:21Z</time>
      </trkpt>
      <trkpt lat="44.73619" lon="4.15794">
        <ele>1243.8</ele>
        <time>2022-06-10T10:22:22Z</time>
      </trkpt>
      <trkpt lat="44.73622" lon="4.15803">
        <ele>1243.6</ele>
        <time>2022-06-10T10:22:23Z</time>
      </trkpt>
      <trkpt lat="44.73624" lon="4.15812">
        <ele>1243.4</ele>
        <time>2022-06-10T10:22:24Z</time>
      </trkpt>
      <trkpt lat="44.73627" lon="4.15821">
        <ele>1243.3</ele>
        <time>2022-06-10T10:22:25Z</time>
      </trkpt>
      <trkpt lat="44.7363" lon="4.1583">
        <ele>1243.1</ele>
        <time>2022-06-10T10:22:26Z</time>
      </trkpt>
      <trkpt lat="44.73633" lon="4.15838">
        <ele>1243</ele>
        <time>2022-06-10T10:22:27Z</time>
      </trkpt>
      <trkpt lat="44.73636" lon="4.15846">
        <ele>1242.8</ele>
        <time>2022-06-10T10:22:28Z</time>
      </trkpt>
      <trkpt lat="44.73639" lon="4.15853">
        <ele>1242.6</ele>
        <time>2022-06-10T10:22:29Z</time>
      </trkpt>
      <trkpt lat="44.73643" lon="4.1586">
        <ele>1242.5</ele>
        <time>2022-06-10T10:22:30Z</time>
      </trkpt>
      <trkpt lat="44.73647" lon="4.15867">
        <ele>1242.3</ele>
        <time>2022-06-10T10:22:31Z</time>
      </trkpt>
      <trkpt lat="44.7365" lon="4.15873">
        <ele>1242.1</ele>
        <time>2022-06-10T10:22:32Z</time>
      </trkpt>
      <trkpt lat="44.73655" lon="4.15879">
        <ele>1242</ele>
        <time>2022-06-10T10:22:33Z</time>
      </trkpt>
      <trkpt lat="44.73659" lon="4.15885">
        <ele>1241.8</ele>
        <time>2022-06-10T10:22:34Z</time>
      </trkpt>
      <trkpt lat="44.73663" lon="4.1589">
        <ele>1241.7</ele>
        <time>2022-06-10T10:22:35Z</time>
      </trkpt>
      <trkpt lat="44.73668" lon="4.15896">
        <ele>1241.5</ele>
        <time>2022-06-10T10:22:36Z</time>
      </trkpt>
      <trkpt lat="44.73672" lon="4.15902">
        <ele>1241.4</ele>
        <time>2022-06-10T10:22:37Z</time>
      </trkpt>
      <trkpt lat="44.73676" lon="4.15908">
        <ele>1241.2</ele>
        <time>2022-06-10T10:22:38Z</time>
      </trkpt>
      <trkpt lat="44.73681" lon="4.15913">
        <ele>1241.1</ele>
        <time>2022-06-10T10:22:39Z</time>
      </trkpt>
      <trkpt lat="44.73686" lon="4.15918">
        <ele>1240.9</ele>
        <time>2022-06-10T10:22:40Z</time>
      </trkpt>
      <trkpt lat="44.73691" lon="4.15923">
        <ele>1240.7</ele>
        <time>2022-06-10T10:22:41Z</time>
      </trkpt>
      <trkpt lat="44.73696" lon="4.15928">
        <ele>1240.6</ele>
        <time>2022-06-10T10:22:42Z</time>
      </trkpt>
      <trkpt lat="44.73701" lon="4.15933">
        <ele>1240.4</ele>
        <time>2022-06-10T10:22:43Z</time>
      </trkpt>
      <trkpt lat="44.73706" lon="4.15937">
        <ele>1240.2</ele>
        <time>2022-06-10T10:22:44Z</time>
      </trkpt>
      <trkpt lat="44.73712" lon="4.15942">
        <ele>1240</ele>
        <time>2022-06-10T10:22:45Z</time>
      </trkpt>
      <trkpt lat="44.73718" lon="4.15946">
        <ele>1239.9</ele>
        <time>2022-06-10T10:22:46Z</time>
      </trkpt>
      <trkpt lat="44.73723" lon="4.1595">
        <ele>1239.7</ele>
        <time>2022-06-10T10:22:47Z</time>
      </trkpt>
      <trkpt lat="44.73729" lon="4.15954">
        <ele>1239.5</ele>
        <time>2022-06-10T10:22:48Z</time>
      </trkpt>
      <trkpt lat="44.73735" lon="4.15958">
        <ele>1239.3</ele>
        <time>2022-06-10T10:22:49Z</time>
      </trkpt>
      <trkpt lat="44.73741" lon="4.15961">
        <ele>1239.1</ele>
        <time>2022-06-10T10:22:50Z</time>
      </trkpt>
      <trkpt lat="44.73747" lon="4.15966">
        <ele>1238.9</ele>
        <time>2022-06-10T10:22:51Z</time>
      </trkpt>
      <trkpt lat="44.73753" lon="4.15971">
        <ele>1238.7</ele>
        <time>2022-06-10T10:22:52Z</time>
      </trkpt>
      <trkpt lat="44.73759" lon="4.15978">
        <ele>1238.5</ele>
        <time>2022-06-10T10:22:53Z</time>
      </trkpt>
      <trkpt lat="44.73763" lon="4.15985">
        <ele>1238.3</ele>
        <time>2022-06-10T10:22:54Z</time>
      </trkpt>
      <trkpt lat="44.73768" lon="4.15993">
        <ele>1238.2</ele>
        <time>2022-06-10T10:22:55Z</time>
      </trkpt>
      <trkpt lat="44.73772" lon="4.16001">
        <ele>1238.1</ele>
        <time>2022-06-10T10:22:56Z</time>
      </trkpt>
      <trkpt lat="44.73775" lon="4.1601">
        <ele>1238.1</ele>
        <time>2022-06-10T10:22:57Z</time>
      </trkpt>
      <trkpt lat="44.73779" lon="4.16018">
        <ele>1238</ele>
        <time>2022-06-10T10:22:58Z</time>
      </trkpt>
      <trkpt lat="44.73782" lon="4.16025">
        <ele>1237.9</ele>
        <time>2022-06-10T10:22:59Z</time>
      </trkpt>
      <trkpt lat="44.73786" lon="4.16033">
        <ele>1237.7</ele>
        <time>2022-06-10T10:23:00Z</time>
      </trkpt>
      <trkpt lat="44.73788" lon="4.16041">
        <ele>1237.6</ele>
        <time>2022-06-10T10:23:01Z</time>
      </trkpt>
      <trkpt lat="44.73791" lon="4.1605">
        <ele>1237.5</ele>
        <time>2022-06-10T10:23:02Z</time>
      </trkpt>
      <trkpt lat="44.73793" lon="4.16059">
        <ele>1237.3</ele>
        <time>2022-06-10T10:23:03Z</time>
      </trkpt>
      <trkpt lat="44.73796" lon="4.16068">
        <ele>1237.1</ele>
        <time>2022-06-10T10:23:04Z</time>
      </trkpt>
      <trkpt lat="44.73799" lon="4.16076">
        <ele>1237</ele>
        <time>2022-06-10T10:23:05Z</time>
      </trkpt>
      <trkpt lat="44.73802" lon="4.16085">
        <ele>1236.8</ele>
        <time>2022-06-10T10:23:06Z</time>
      </trkpt>
      <trkpt lat="44.73806" lon="4.16093">
        <ele>1236.5</ele>
        <time>2022-06-10T10:23:07Z</time>
      </trkpt>
      <trkpt lat="44.73811" lon="4.16101">
        <ele>1236.3</ele>
        <time>2022-06-10T10:23:08Z</time>
      </trkpt>
      <trkpt lat="44.73816" lon="4.16108">
        <ele>1236</ele>
        <time>2022-06-10T10:23:09Z</time>
      </trkpt>
      <trkpt lat="44.73822" lon="4.16115">
        <ele>1235.8</ele>
        <time>2022-06-10T10:23:10Z</time>
      </trkpt>
      <trkpt lat="44.73828" lon="4.16122">
        <ele>1235.6</ele>
        <time>2022-06-10T10:23:11Z</time>
      </trkpt>
      <trkpt lat="44.73834" lon="4.16128">
        <ele>1235.3</ele>
        <time>2022-06-10T10:23:12Z</time>
      </trkpt>
      <trkpt lat="44.73841" lon="4.16133">
        <ele>1235.1</ele>
        <time>2022-06-10T10:23:13Z</time>
      </trkpt>
      <trkpt lat="44.73847" lon="4.16137">
        <ele>1234.8</ele>
        <time>2022-06-10T10:23:14Z</time>
      </trkpt>
      <trkpt lat="44.73854" lon="4.16141">
        <ele>1234.6</ele>
        <time>2022-06-10T10:23:15Z</time>
      </trkpt>
      <trkpt lat="44.73861" lon="4.16143">
        <ele>1234.4</ele>
        <time>2022-06-10T10:23:16Z</time>
      </trkpt>
      <trkpt lat="44.73868" lon="4.16145">
        <ele>1234.1</ele>
        <time>2022-06-10T10:23:17Z</time>
      </trkpt>
      <trkpt lat="44.73875" lon="4.16146">
        <ele>1233.9</ele>
        <time>2022-06-10T10:23:18Z</time>
      </trkpt>
      <trkpt lat="44.73882" lon="4.16146">
        <ele>1233.6</ele>
        <time>2022-06-10T10:23:19Z</time>
      </trkpt>
      <trkpt lat="44.73889" lon="4.16145">
        <ele>1233.3</ele>
        <time>2022-06-10T10:23:20Z</time>
      </trkpt>
      <trkpt lat="44.73897" lon="4.16142">
        <ele>1233.1</ele>
        <time>2022-06-10T10:23:21Z</time>
      </trkpt>
      <trkpt lat="44.73904" lon="4.16139">
        <ele>1232.8</ele>
        <time>2022-06-10T10:23:22Z</time>
      </trkpt>
      <trkpt lat="44.73912" lon="4.16136">
        <ele>1232.5</ele>
        <time>2022-06-10T10:23:23Z</time>
      </trkpt>
      <trkpt lat="44.73919" lon="4.16133">
        <ele>1232.3</ele>
        <time>2022-06-10T10:23:24Z</time>
      </trkpt>
      <trkpt lat="44.73927" lon="4.1613">
        <ele>1232</ele>
        <time>2022-06-10T10:23:25Z</time>
      </trkpt>
      <trkpt lat="44.73935" lon="4.16127">
        <ele>1231.8</ele>
        <time>2022-06-10T10:23:26Z</time>
      </trkpt>
      <trkpt lat="44.73943" lon="4.16125">
        <ele>1231.5</ele>
        <time>2022-06-10T10:23:27Z</time>
      </trkpt>
      <trkpt lat="44.73951" lon="4.16124">
        <ele>1231.2</ele>
        <time>2022-06-10T10:23:28Z</time>
      </trkpt>
      <trkpt lat="44.73959" lon="4.16124">
        <ele>1231</ele>
        <time>2022-06-10T10:23:29Z</time>
      </trkpt>
      <trkpt lat="44.73968" lon="4.16124">
        <ele>1230.8</ele>
        <time>2022-06-10T10:23:30Z</time>
      </trkpt>
      <trkpt lat="44.73977" lon="4.16125">
        <ele>1230.6</ele>
        <time>2022-06-10T10:23:31Z</time>
      </trkpt>
      <trkpt lat="44.73985" lon="4.16126">
        <ele>1230.3</ele>
        <time>2022-06-10T10:23:32Z</time>
      </trkpt>
      <trkpt lat="44.73993" lon="4.16126">
        <ele>1230.1</ele>
        <time>2022-06-10T10:23:33Z</time>
      </trkpt>
      <trkpt lat="44.74002" lon="4.16125">
        <ele>1229.8</ele>
        <time>2022-06-10T10:23:34Z</time>
      </trkpt>
      <trkpt lat="44.7401" lon="4.16125">
        <ele>1229.6</ele>
        <time>2022-06-10T10:23:35Z</time>
      </trkpt>
      <trkpt lat="44.74018" lon="4.16124">
        <ele>1229.5</ele>
        <time>2022-06-10T10:23:36Z</time>
      </trkpt>
      <trkpt lat="44.74027" lon="4.16124">
        <ele>1229.3</ele>
        <time>2022-06-10T10:23:37Z</time>
      </trkpt>
      <trkpt lat="44.74036" lon="4.16124">
        <ele>1229.2</ele>
        <time>2022-06-10T10:23:38Z</time>
      </trkpt>
      <trkpt lat="44.74045" lon="4.16126">
        <ele>1229.1</ele>
        <time>2022-06-10T10:23:39Z</time>
      </trkpt>
      <trkpt lat="44.74052" lon="4.16132">
        <ele>1229.1</ele>
        <time>2022-06-10T10:23:40Z</time>
      </trkpt>
      <trkpt lat="44.74056" lon="4.16138">
        <ele>1229.1</ele>
        <time>2022-06-10T10:23:41Z</time>
      </trkpt>
      <trkpt lat="44.74053" lon="4.16148">
        <ele>1229</ele>
        <time>2022-06-10T10:23:42Z</time>
      </trkpt>
      <trkpt lat="44.74049" lon="4.1616">
        <ele>1228.9</ele>
        <time>2022-06-10T10:23:43Z</time>
      </trkpt>
      <trkpt lat="44.74042" lon="4.16167">
        <ele>1228.3</ele>
        <time>2022-06-10T10:23:44Z</time>
      </trkpt>
      <trkpt lat="44.74034" lon="4.16168">
        <ele>1227.8</ele>
        <time>2022-06-10T10:23:45Z</time>
      </trkpt>
      <trkpt lat="44.74026" lon="4.16169">
        <ele>1227.4</ele>
        <time>2022-06-10T10:23:46Z</time>
      </trkpt>
      <trkpt lat="44.74019" lon="4.16171">
        <ele>1227</ele>
        <time>2022-06-10T10:23:47Z</time>
      </trkpt>
      <trkpt lat="44.74012" lon="4.16175">
        <ele>1226.7</ele>
        <time>2022-06-10T10:23:48Z</time>
      </trkpt>
      <trkpt lat="44.74004" lon="4.16181">
        <ele>1226.3</ele>
        <time>2022-06-10T10:23:49Z</time>
      </trkpt>
      <trkpt lat="44.73997" lon="4.16187">
        <ele>1225.9</ele>
        <time>2022-06-10T10:23:50Z</time>
      </trkpt>
      <trkpt lat="44.73991" lon="4.16194">
        <ele>1225.6</ele>
        <time>2022-06-10T10:23:51Z</time>
      </trkpt>
      <trkpt lat="44.73986" lon="4.16204">
        <ele>1225.2</ele>
        <time>2022-06-10T10:23:52Z</time>
      </trkpt>
      <trkpt lat="44.73981" lon="4.16215">
        <ele>1224.9</ele>
        <time>2022-06-10T10:23:53Z</time>
      </trkpt>
      <trkpt lat="44.73977" lon="4.16226">
        <ele>1224.5</ele>
        <time>2022-06-10T10:23:54Z</time>
      </trkpt>
      <trkpt lat="44.73974" lon="4.16238">
        <ele>1224.1</ele>
        <time>2022-06-10T10:23:55Z</time>
      </trkpt>
      <trkpt lat="44.73971" lon="4.1625">
        <ele>1223.8</ele>
        <time>2022-06-10T10:23:56Z</time>
      </trkpt>
      <trkpt lat="44.73969" lon="4.16262">
        <ele>1223.4</ele>
        <time>2022-06-10T10:23:57Z</time>
      </trkpt>
      <trkpt lat="44.73966" lon="4.16275">
        <ele>1223</ele>
        <time>2022-06-10T10:23:58Z</time>
      </trkpt>
      <trkpt lat="44.73964" lon="4.16286">
        <ele>1222.6</ele>
        <time>2022-06-10T10:23:59Z</time>
      </trkpt>
      <trkpt lat="44.7396" lon="4.16298">
        <ele>1222.2</ele>
        <time>2022-06-10T10:24:00Z</time>
      </trkpt>
      <trkpt lat="44.73956" lon="4.16308">
        <ele>1221.8</ele>
        <time>2022-06-10T10:24:01Z</time>
      </trkpt>
      <trkpt lat="44.73951" lon="4.16319">
        <ele>1221.3</ele>
        <time>2022-06-10T10:24:02Z</time>
      </trkpt>
      <trkpt lat="44.73946" lon="4.16329">
        <ele>1220.8</ele>
        <time>2022-06-10T10:24:03Z</time>
      </trkpt>
      <trkpt lat="44.73941" lon="4.16339">
        <ele>1220.2</ele>
        <time>2022-06-10T10:24:04Z</time>
      </trkpt>
      <trkpt lat="44.73935" lon="4.16349">
        <ele>1219.7</ele>
        <time>2022-06-10T10:24:05Z</time>
      </trkpt>
      <trkpt lat="44.7393" lon="4.16359">
        <ele>1219.2</ele>
        <time>2022-06-10T10:24:06Z</time>
      </trkpt>
      <trkpt lat="44.73923" lon="4.16369">
        <ele>1218.7</ele>
        <time>2022-06-10T10:24:07Z</time>
      </trkpt>
      <trkpt lat="44.73916" lon="4.16377">
        <ele>1218.1</ele>
        <time>2022-06-10T10:24:08Z</time>
      </trkpt>
      <trkpt lat="44.73909" lon="4.16385">
        <ele>1217.5</ele>
        <time>2022-06-10T10:24:09Z</time>
      </trkpt>
      <trkpt lat="44.73902" lon="4.16392">
        <ele>1217</ele>
        <time>2022-06-10T10:24:10Z</time>
      </trkpt>
      <trkpt lat="44.73894" lon="4.16399">
        <ele>1216.4</ele>
        <time>2022-06-10T10:24:11Z</time>
      </trkpt>
      <trkpt lat="44.73886" lon="4.16405">
        <ele>1215.8</ele>
        <time>2022-06-10T10:24:12Z</time>
      </trkpt>
      <trkpt lat="44.73878" lon="4.16411">
        <ele>1215.2</ele>
        <time>2022-06-10T10:24:13Z</time>
      </trkpt>
      <trkpt lat="44.73869" lon="4.16416">
        <ele>1214.7</ele>
        <time>2022-06-10T10:24:14Z</time>
      </trkpt>
      <trkpt lat="44.73861" lon="4.16422">
        <ele>1214.2</ele>
        <time>2022-06-10T10:24:15Z</time>
      </trkpt>
      <trkpt lat="44.73853" lon="4.16429">
        <ele>1213.7</ele>
        <time>2022-06-10T10:24:16Z</time>
      </trkpt>
      <trkpt lat="44.73847" lon="4.16438">
        <ele>1213.2</ele>
        <time>2022-06-10T10:24:17Z</time>
      </trkpt>
      <trkpt lat="44.73843" lon="4.1645">
        <ele>1212.6</ele>
        <time>2022-06-10T10:24:18Z</time>
      </trkpt>
      <trkpt lat="44.73842" lon="4.16464">
        <ele>1212</ele>
        <time>2022-06-10T10:24:19Z</time>
      </trkpt>
      <trkpt lat="44.73843" lon="4.16478">
        <ele>1211.4</ele>
        <time>2022-06-10T10:24:20Z</time>
      </trkpt>
      <trkpt lat="44.73845" lon="4.16492">
        <ele>1210.8</ele>
        <time>2022-06-10T10:24:21Z</time>
      </trkpt>
      <trkpt lat="44.73848" lon="4.16505">
        <ele>1210.3</ele>
        <time>2022-06-10T10:24:22Z</time>
      </trkpt>
      <trkpt lat="44.7385" lon="4.16518">
        <ele>1209.8</ele>
        <time>2022-06-10T10:24:23Z</time>
      </trkpt>
      <trkpt lat="44.73852" lon="4.16531">
        <ele>1209.3</ele>
        <time>2022-06-10T10:24:24Z</time>
      </trkpt>
      <trkpt lat="44.73852" lon="4.16545">
        <ele>1208.7</ele>
        <time>2022-06-10T10:24:25Z</time>
      </trkpt>
      <trkpt lat="44.73851" lon="4.16559">
        <ele>1208.1</ele>
        <time>2022-06-10T10:24:26Z</time>
      </trkpt>
      <trkpt lat="44.73851" lon="4.16572">
        <ele>1207.5</ele>
        <time>2022-06-10T10:24:27Z</time>
      </trkpt>
      <trkpt lat="44.73852" lon="4.16586">
        <ele>1207</ele>
        <time>2022-06-10T10:24:28Z</time>
      </trkpt>
      <trkpt lat="44.73854" lon="4.16599">
        <ele>1206.4</ele>
        <time>2022-06-10T10:24:29Z</time>
      </trkpt>
      <trkpt lat="44.73859" lon="4.16611">
        <ele>1205.9</ele>
        <time>2022-06-10T10:24:30Z</time>
      </trkpt>
      <trkpt lat="44.73865" lon="4.16621">
        <ele>1205.2</ele>
        <time>2022-06-10T10:24:31Z</time>
      </trkpt>
      <trkpt lat="44.73872" lon="4.1663">
        <ele>1204.6</ele>
        <time>2022-06-10T10:24:32Z</time>
      </trkpt>
      <trkpt lat="44.73881" lon="4.16638">
        <ele>1204</ele>
        <time>2022-06-10T10:24:33Z</time>
      </trkpt>
      <trkpt lat="44.73888" lon="4.16647">
        <ele>1203.3</ele>
        <time>2022-06-10T10:24:34Z</time>
      </trkpt>
      <trkpt lat="44.73896" lon="4.16657">
        <ele>1202.8</ele>
        <time>2022-06-10T10:24:35Z</time>
      </trkpt>
      <trkpt lat="44.73901" lon="4.16668">
        <ele>1202.2</ele>
        <time>2022-06-10T10:24:36Z</time>
      </trkpt>
      <trkpt lat="44.73905" lon="4.16682">
        <ele>1201.6</ele>
        <time>2022-06-10T10:24:37Z</time>
      </trkpt>
      <trkpt lat="44.73907" lon="4.16696">
        <ele>1201</ele>
        <time>2022-06-10T10:24:38Z</time>
      </trkpt>
      <trkpt lat="44.7391" lon="4.16709">
        <ele>1200.4</ele>
        <time>2022-06-10T10:24:39Z</time>
      </trkpt>
      <trkpt lat="44.73913" lon="4.16723">
        <ele>1199.8</ele>
        <time>2022-06-10T10:24:40Z</time>
      </trkpt>
      <trkpt lat="44.73916" lon="4.16735">
        <ele>1199.3</ele>
        <time>2022-06-10T10:24:41Z</time>
      </trkpt>
      <trkpt lat="44.73921" lon="4.16748">
        <ele>1198.8</ele>
        <time>2022-06-10T10:24:42Z</time>
      </trkpt>
      <trkpt lat="44.73926" lon="4.16759">
        <ele>1198.3</ele>
        <time>2022-06-10T10:24:43Z</time>
      </trkpt>
      <trkpt lat="44.73932" lon="4.16771">
        <ele>1198</ele>
        <time>2022-06-10T10:24:44Z</time>
      </trkpt>
      <trkpt lat="44.73937" lon="4.16783">
        <ele>1197.7</ele>
        <time>2022-06-10T10:24:45Z</time>
      </trkpt>
      <trkpt lat="44.73942" lon="4.16794">
        <ele>1197.4</ele>
        <time>2022-06-10T10:24:46Z</time>
      </trkpt>
      <trkpt lat="44.73947" lon="4.16806">
        <ele>1197.3</ele>
        <time>2022-06-10T10:24:47Z</time>
      </trkpt>
      <trkpt lat="44.73952" lon="4.16817">
        <ele>1197.1</ele>
        <time>2022-06-10T10:24:48Z</time>
      </trkpt>
      <trkpt lat="44.73956" lon="4.16828">
        <ele>1197.1</ele>
        <time>2022-06-10T10:24:49Z</time>
      </trkpt>
      <trkpt lat="44.73959" lon="4.16839">
        <ele>1197</ele>
        <time>2022-06-10T10:24:50Z</time>
      </trkpt>
      <trkpt lat="44.73959" lon="4.16851">
        <ele>1197</ele>
        <time>2022-06-10T10:24:51Z</time>
      </trkpt>
      <trkpt lat="44.73955" lon="4.16861">
        <ele>1196.9</ele>
        <time>2022-06-10T10:24:52Z</time>
      </trkpt>
      <trkpt lat="44.73949" lon="4.16868">
        <ele>1197</ele>
        <time>2022-06-10T10:24:53Z</time>
      </trkpt>
      <trkpt lat="44.73942" lon="4.16872">
        <ele>1197.1</ele>
        <time>2022-06-10T10:24:54Z</time>
      </trkpt>
      <trkpt lat="44.73934" lon="4.16871">
        <ele>1197.2</ele>
        <time>2022-06-10T10:24:55Z</time>
      </trkpt>
      <trkpt lat="44.73928" lon="4.16867">
        <ele>1196.9</ele>
        <time>2022-06-10T10:24:56Z</time>
      </trkpt>
      <trkpt lat="44.73922" lon="4.1686">
        <ele>1196.6</ele>
        <time>2022-06-10T10:24:57Z</time>
      </trkpt>
      <trkpt lat="44.73917" lon="4.16852">
        <ele>1196.2</ele>
        <time>2022-06-10T10:24:58Z</time>
      </trkpt>
      <trkpt lat="44.73912" lon="4.16845">
        <ele>1195.9</ele>
        <time>2022-06-10T10:24:59Z</time>
      </trkpt>
      <trkpt lat="44.73906" lon="4.16838">
        <ele>1195.5</ele>
        <time>2022-06-10T10:25:00Z</time>
      </trkpt>
      <trkpt lat="44.73901" lon="4.1683">
        <ele>1195.2</ele>
        <time>2022-06-10T10:25:01Z</time>
      </trkpt>
      <trkpt lat="44.73894" lon="4.16824">
        <ele>1194.8</ele>
        <time>2022-06-10T10:25:02Z</time>
      </trkpt>
      <trkpt lat="44.73888" lon="4.16817">
        <ele>1194.4</ele>
        <time>2022-06-10T10:25:03Z</time>
      </trkpt>
      <trkpt lat="44.73881" lon="4.1681">
        <ele>1194</ele>
        <time>2022-06-10T10:25:04Z</time>
      </trkpt>
      <trkpt lat="44.73873" lon="4.16804">
        <ele>1193.5</ele>
        <time>2022-06-10T10:25:05Z</time>
      </trkpt>
      <trkpt lat="44.73865" lon="4.16799">
        <ele>1193</ele>
        <time>2022-06-10T10:25:06Z</time>
      </trkpt>
      <trkpt lat="44.73857" lon="4.16795">
        <ele>1192.4</ele>
        <time>2022-06-10T10:25:07Z</time>
      </trkpt>
      <trkpt lat="44.73848" lon="4.16792">
        <ele>1191.7</ele>
        <time>2022-06-10T10:25:08Z</time>
      </trkpt>
      <trkpt lat="44.73839" lon="4.16791">
        <ele>1191</ele>
        <time>2022-06-10T10:25:09Z</time>
      </trkpt>
      <trkpt lat="44.73829" lon="4.16789">
        <ele>1190.3</ele>
        <time>2022-06-10T10:25:10Z</time>
      </trkpt>
      <trkpt lat="44.73819" lon="4.16788">
        <ele>1189.5</ele>
        <time>2022-06-10T10:25:11Z</time>
      </trkpt>
      <trkpt lat="44.7381" lon="4.16786">
        <ele>1188.8</ele>
        <time>2022-06-10T10:25:12Z</time>
      </trkpt>
      <trkpt lat="44.738" lon="4.16784">
        <ele>1188</ele>
        <time>2022-06-10T10:25:13Z</time>
      </trkpt>
      <trkpt lat="44.7379" lon="4.16782">
        <ele>1187.2</ele>
        <time>2022-06-10T10:25:14Z</time>
      </trkpt>
      <trkpt lat="44.7378" lon="4.1678">
        <ele>1186.2</ele>
        <time>2022-06-10T10:25:15Z</time>
      </trkpt>
      <trkpt lat="44.73771" lon="4.16775">
        <ele>1185.4</ele>
        <time>2022-06-10T10:25:16Z</time>
      </trkpt>
      <trkpt lat="44.73762" lon="4.16768">
        <ele>1184.6</ele>
        <time>2022-06-10T10:25:17Z</time>
      </trkpt>
      <trkpt lat="44.73754" lon="4.16759">
        <ele>1183.8</ele>
        <time>2022-06-10T10:25:18Z</time>
      </trkpt>
      <trkpt lat="44.73746" lon="4.16749">
        <ele>1183</ele>
        <time>2022-06-10T10:25:19Z</time>
      </trkpt>
      <trkpt lat="44.73739" lon="4.16739">
        <ele>1182.2</ele>
        <time>2022-06-10T10:25:20Z</time>
      </trkpt>
      <trkpt lat="44.73732" lon="4.16729">
        <ele>1181.3</ele>
        <time>2022-06-10T10:25:21Z</time>
      </trkpt>
      <trkpt lat="44.73724" lon="4.16718">
        <ele>1180.5</ele>
        <time>2022-06-10T10:25:22Z</time>
      </trkpt>
      <trkpt lat="44.73717" lon="4.16708">
        <ele>1179.6</ele>
        <time>2022-06-10T10:25:23Z</time>
      </trkpt>
      <trkpt lat="44.73711" lon="4.16697">
        <ele>1178.8</ele>
        <time>2022-06-10T10:25:24Z</time>
      </trkpt>
      <trkpt lat="44.73705" lon="4.16686">
        <ele>1177.9</ele>
        <time>2022-06-10T10:25:25Z</time>
      </trkpt>
      <trkpt lat="44.73699" lon="4.16674">
        <ele>1177.1</ele>
        <time>2022-06-10T10:25:26Z</time>
      </trkpt>
      <trkpt lat="44.73693" lon="4.16661">
        <ele>1176.4</ele>
        <time>2022-06-10T10:25:27Z</time>
      </trkpt>
      <trkpt lat="44.73687" lon="4.16648">
        <ele>1175.7</ele>
        <time>2022-06-10T10:25:28Z</time>
      </trkpt>
      <trkpt lat="44.73682" lon="4.16635">
        <ele>1175.2</ele>
        <time>2022-06-10T10:25:29Z</time>
      </trkpt>
      <trkpt lat="44.73676" lon="4.16621">
        <ele>1174.7</ele>
        <time>2022-06-10T10:25:30Z</time>
      </trkpt>
      <trkpt lat="44.7367" lon="4.16609">
        <ele>1174.3</ele>
        <time>2022-06-10T10:25:31Z</time>
      </trkpt>
      <trkpt lat="44.73663" lon="4.16598">
        <ele>1173.9</ele>
        <time>2022-06-10T10:25:32Z</time>
      </trkpt>
      <trkpt lat="44.73654" lon="4.1659">
        <ele>1173.6</ele>
        <time>2022-06-10T10:25:33Z</time>
      </trkpt>
      <trkpt lat="44.73645" lon="4.16585">
        <ele>1173.4</ele>
        <time>2022-06-10T10:25:34Z</time>
      </trkpt>
      <trkpt lat="44.73636" lon="4.16585">
        <ele>1173.1</ele>
        <time>2022-06-10T10:25:35Z</time>
      </trkpt>
      <trkpt lat="44.73627" lon="4.1659">
        <ele>1172.8</ele>
        <time>2022-06-10T10:25:36Z</time>
      </trkpt>
      <trkpt lat="44.7362" lon="4.16599">
        <ele>1172.5</ele>
        <time>2022-06-10T10:25:37Z</time>
      </trkpt>
      <trkpt lat="44.73615" lon="4.16608">
        <ele>1172</ele>
        <time>2022-06-10T10:25:38Z</time>
      </trkpt>
      <trkpt lat="44.73609" lon="4.16618">
        <ele>1171.5</ele>
        <time>2022-06-10T10:25:39Z</time>
      </trkpt>
      <trkpt lat="44.73601" lon="4.16624">
        <ele>1170.9</ele>
        <time>2022-06-10T10:25:40Z</time>
      </trkpt>
      <trkpt lat="44.73593" lon="4.16625">
        <ele>1170.3</ele>
        <time>2022-06-10T10:25:41Z</time>
      </trkpt>
      <trkpt lat="44.73584" lon="4.16622">
        <ele>1169.7</ele>
        <time>2022-06-10T10:25:42Z</time>
      </trkpt>
      <trkpt lat="44.73575" lon="4.16614">
        <ele>1168.9</ele>
        <time>2022-06-10T10:25:43Z</time>
      </trkpt>
      <trkpt lat="44.7357" lon="4.16603">
        <ele>1168.2</ele>
        <time>2022-06-10T10:25:44Z</time>
      </trkpt>
      <trkpt lat="44.73568" lon="4.16591">
        <ele>1167.5</ele>
        <time>2022-06-10T10:25:45Z</time>
      </trkpt>
      <trkpt lat="44.73567" lon="4.16578">
        <ele>1166.8</ele>
        <time>2022-06-10T10:25:46Z</time>
      </trkpt>
      <trkpt lat="44.73565" lon="4.16565">
        <ele>1166</ele>
        <time>2022-06-10T10:25:47Z</time>
      </trkpt>
      <trkpt lat="44.73563" lon="4.16553">
        <ele>1165.3</ele>
        <time>2022-06-10T10:25:48Z</time>
      </trkpt>
      <trkpt lat="44.73561" lon="4.1654">
        <ele>1164.5</ele>
        <time>2022-06-10T10:25:49Z</time>
      </trkpt>
      <trkpt lat="44.73558" lon="4.16527">
        <ele>1163.9</ele>
        <time>2022-06-10T10:25:50Z</time>
      </trkpt>
      <trkpt lat="44.73554" lon="4.16514">
        <ele>1163.2</ele>
        <time>2022-06-10T10:25:51Z</time>
      </trkpt>
      <trkpt lat="44.7355" lon="4.16502">
        <ele>1162.6</ele>
        <time>2022-06-10T10:25:52Z</time>
      </trkpt>
      <trkpt lat="44.73543" lon="4.16493">
        <ele>1161.8</ele>
        <time>2022-06-10T10:25:53Z</time>
      </trkpt>
      <trkpt lat="44.73534" lon="4.16487">
        <ele>1160.8</ele>
        <time>2022-06-10T10:25:54Z</time>
      </trkpt>
      <trkpt lat="44.73524" lon="4.16481">
        <ele>1159.8</ele>
        <time>2022-06-10T10:25:55Z</time>
      </trkpt>
      <trkpt lat="44.73515" lon="4.16474">
        <ele>1158.7</ele>
        <time>2022-06-10T10:25:56Z</time>
      </trkpt>
      <trkpt lat="44.73505" lon="4.16469">
        <ele>1157.8</ele>
        <time>2022-06-10T10:25:57Z</time>
      </trkpt>
      <trkpt lat="44.73497" lon="4.16464">
        <ele>1156.9</ele>
        <time>2022-06-10T10:25:58Z</time>
      </trkpt>
      <trkpt lat="44.73488" lon="4.16457">
        <ele>1156</ele>
        <time>2022-06-10T10:25:59Z</time>
      </trkpt>
      <trkpt lat="44.7348" lon="4.16448">
        <ele>1155.1</ele>
        <time>2022-06-10T10:26:00Z</time>
      </trkpt>
      <trkpt lat="44.73472" lon="4.16439">
        <ele>1154.3</ele>
        <time>2022-06-10T10:26:01Z</time>
      </trkpt>
      <trkpt lat="44.73464" lon="4.16431">
        <ele>1153.5</ele>
        <time>2022-06-10T10:26:02Z</time>
      </trkpt>
      <trkpt lat="44.73455" lon="4.16424">
        <ele>1152.7</ele>
        <time>2022-06-10T10:26:03Z</time>
      </trkpt>
      <trkpt lat="44.73446" lon="4.16417">
        <ele>1151.9</ele>
        <time>2022-06-10T10:26:04Z</time>
      </trkpt>
      <trkpt lat="44.73437" lon="4.16411">
        <ele>1151.3</ele>
        <time>2022-06-10T10:26:05Z</time>
      </trkpt>
      <trkpt lat="44.73428" lon="4.16406">
        <ele>1150.7</ele>
        <time>2022-06-10T10:26:06Z</time>
      </trkpt>
      <trkpt lat="44.73418" lon="4.16403">
        <ele>1150</ele>
        <time>2022-06-10T10:26:07Z</time>
      </trkpt>
      <trkpt lat="44.73408" lon="4.164">
        <ele>1149.3</ele>
        <time>2022-06-10T10:26:08Z</time>
      </trkpt>
      <trkpt lat="44.73397" lon="4.16398">
        <ele>1148.6</ele>
        <time>2022-06-10T10:26:09Z</time>
      </trkpt>
      <trkpt lat="44.73386" lon="4.16398">
        <ele>1147.9</ele>
        <time>2022-06-10T10:26:10Z</time>
      </trkpt>
      <trkpt lat="44.73374" lon="4.164">
        <ele>1147.2</ele>
        <time>2022-06-10T10:26:11Z</time>
      </trkpt>
      <trkpt lat="44.73364" lon="4.16407">
        <ele>1146.4</ele>
        <time>2022-06-10T10:26:12Z</time>
      </trkpt>
      <trkpt lat="44.73355" lon="4.16415">
        <ele>1145.7</ele>
        <time>2022-06-10T10:26:13Z</time>
      </trkpt>
      <trkpt lat="44.73346" lon="4.16425">
        <ele>1144.8</ele>
        <time>2022-06-10T10:26:14Z</time>
      </trkpt>
      <trkpt lat="44.73338" lon="4.16438">
        <ele>1143.9</ele>
        <time>2022-06-10T10:26:15Z</time>
      </trkpt>
      <trkpt lat="44.73331" lon="4.16451">
        <ele>1143</ele>
        <time>2022-06-10T10:26:16Z</time>
      </trkpt>
      <trkpt lat="44.73325" lon="4.16465">
        <ele>1142.2</ele>
        <time>2022-06-10T10:26:17Z</time>
      </trkpt>
      <trkpt lat="44.73319" lon="4.16479">
        <ele>1141.5</ele>
        <time>2022-06-10T10:26:18Z</time>
      </trkpt>
      <trkpt lat="44.73312" lon="4.16492">
        <ele>1140.8</ele>
        <time>2022-06-10T10:26:19Z</time>
      </trkpt>
      <trkpt lat="44.73306" lon="4.16505">
        <ele>1140.4</ele>
        <time>2022-06-10T10:26:20Z</time>
      </trkpt>
      <trkpt lat="44.73301" lon="4.16519">
        <ele>1140.1</ele>
        <time>2022-06-10T10:26:21Z</time>
      </trkpt>
      <trkpt lat="44.73296" lon="4.16532">
        <ele>1139.8</ele>
        <time>2022-06-10T10:26:22Z</time>
      </trkpt>
      <trkpt lat="44.73291" lon="4.16545">
        <ele>1139.7</ele>
        <time>2022-06-10T10:26:23Z</time>
      </trkpt>
      <trkpt lat="44.73285" lon="4.16558">
        <ele>1139.7</ele>
        <time>2022-06-10T10:26:24Z</time>
      </trkpt>
      <trkpt lat="44.73279" lon="4.16569">
        <ele>1139.6</ele>
        <time>2022-06-10T10:26:25Z</time>
      </trkpt>
      <trkpt lat="44.7327" lon="4.16576">
        <ele>1139.6</ele>
        <time>2022-06-10T10:26:26Z</time>
      </trkpt>
      <trkpt lat="44.73261" lon="4.16579">
        <ele>1139.6</ele>
        <time>2022-06-10T10:26:27Z</time>
      </trkpt>
      <trkpt lat="44.73252" lon="4.16577">
        <ele>1139.4</ele>
        <time>2022-06-10T10:26:28Z</time>
      </trkpt>
      <trkpt lat="44.73244" lon="4.16572">
        <ele>1139</ele>
        <time>2022-06-10T10:26:29Z</time>
      </trkpt>
      <trkpt lat="44.73238" lon="4.16563">
        <ele>1138.4</ele>
        <time>2022-06-10T10:26:30Z</time>
      </trkpt>
      <trkpt lat="44.73236" lon="4.16551">
        <ele>1137.8</ele>
        <time>2022-06-10T10:26:31Z</time>
      </trkpt>
      <trkpt lat="44.73234" lon="4.1654">
        <ele>1137.2</ele>
        <time>2022-06-10T10:26:32Z</time>
      </trkpt>
      <trkpt lat="44.73232" lon="4.1653">
        <ele>1136.7</ele>
        <time>2022-06-10T10:26:33Z</time>
      </trkpt>
      <trkpt lat="44.7323" lon="4.1652">
        <ele>1136.3</ele>
        <time>2022-06-10T10:26:34Z</time>
      </trkpt>
      <trkpt lat="44.73227" lon="4.1651">
        <ele>1135.8</ele>
        <time>2022-06-10T10:26:35Z</time>
      </trkpt>
      <trkpt lat="44.73224" lon="4.16499">
        <ele>1135.3</ele>
        <time>2022-06-10T10:26:36Z</time>
      </trkpt>
      <trkpt lat="44.7322" lon="4.16489">
        <ele>1134.8</ele>
        <time>2022-06-10T10:26:37Z</time>
      </trkpt>
      <trkpt lat="44.73217" lon="4.16477">
        <ele>1134.3</ele>
        <time>2022-06-10T10:26:38Z</time>
      </trkpt>
      <trkpt lat="44.73213" lon="4.16465">
        <ele>1133.7</ele>
        <time>2022-06-10T10:26:39Z</time>
      </trkpt>
      <trkpt lat="44.73209" lon="4.16453">
        <ele>1133.1</ele>
        <time>2022-06-10T10:26:40Z</time>
      </trkpt>
      <trkpt lat="44.73205" lon="4.16439">
        <ele>1132.4</ele>
        <time>2022-06-10T10:26:41Z</time>
      </trkpt>
      <trkpt lat="44.73205" lon="4.16425">
        <ele>1131.6</ele>
        <time>2022-06-10T10:26:42Z</time>
      </trkpt>
      <trkpt lat="44.73206" lon="4.1641">
        <ele>1130.9</ele>
        <time>2022-06-10T10:26:43Z</time>
      </trkpt>
      <trkpt lat="44.73208" lon="4.16395">
        <ele>1130.1</ele>
        <time>2022-06-10T10:26:44Z</time>
      </trkpt>
      <trkpt lat="44.73213" lon="4.1638">
        <ele>1129.2</ele>
        <time>2022-06-10T10:26:45Z</time>
      </trkpt>
      <trkpt lat="44.73217" lon="4.16365">
        <ele>1128.4</ele>
        <time>2022-06-10T10:26:46Z</time>
      </trkpt>
      <trkpt lat="44.73219" lon="4.16349">
        <ele>1127.7</ele>
        <time>2022-06-10T10:26:47Z</time>
      </trkpt>
      <trkpt lat="44.73222" lon="4.16335">
        <ele>1127</ele>
        <time>2022-06-10T10:26:48Z</time>
      </trkpt>
      <trkpt lat="44.73225" lon="4.16321">
        <ele>1126.3</ele>
        <time>2022-06-10T10:26:49Z</time>
      </trkpt>
      <trkpt lat="44.73228" lon="4.16307">
        <ele>1125.6</ele>
        <time>2022-06-10T10:26:50Z</time>
      </trkpt>
      <trkpt lat="44.73229" lon="4.16292">
        <ele>1124.8</ele>
        <time>2022-06-10T10:26:51Z</time>
      </trkpt>
      <trkpt lat="44.7323" lon="4.16276">
        <ele>1123.9</ele>
        <time>2022-06-10T10:26:52Z</time>
      </trkpt>
      <trkpt lat="44.7323" lon="4.16261">
        <ele>1123.1</ele>
        <time>2022-06-10T10:26:53Z</time>
      </trkpt>
      <trkpt lat="44.73229" lon="4.16245">
        <ele>1122.2</ele>
        <time>2022-06-10T10:26:54Z</time>
      </trkpt>
      <trkpt lat="44.73227" lon="4.1623">
        <ele>1121.4</ele>
        <time>2022-06-10T10:26:55Z</time>
      </trkpt>
      <trkpt lat="44.73226" lon="4.16216">
        <ele>1120.6</ele>
        <time>2022-06-10T10:26:56Z</time>
      </trkpt>
      <trkpt lat="44.73224" lon="4.16201">
        <ele>1119.7</ele>
        <time>2022-06-10T10:26:57Z</time>
      </trkpt>
      <trkpt lat="44.73223" lon="4.16185">
        <ele>1118.9</ele>
        <time>2022-06-10T10:26:58Z</time>
      </trkpt>
      <trkpt lat="44.73222" lon="4.16169">
        <ele>1118.2</ele>
        <time>2022-06-10T10:26:59Z</time>
      </trkpt>
      <trkpt lat="44.73222" lon="4.16154">
        <ele>1117.5</ele>
        <time>2022-06-10T10:27:00Z</time>
      </trkpt>
      <trkpt lat="44.73221" lon="4.16139">
        <ele>1116.8</ele>
        <time>2022-06-10T10:27:01Z</time>
      </trkpt>
      <trkpt lat="44.73219" lon="4.16123">
        <ele>1116</ele>
        <time>2022-06-10T10:27:02Z</time>
      </trkpt>
      <trkpt lat="44.73216" lon="4.16107">
        <ele>1115.3</ele>
        <time>2022-06-10T10:27:03Z</time>
      </trkpt>
      <trkpt lat="44.73211" lon="4.16092">
        <ele>1114.5</ele>
        <time>2022-06-10T10:27:04Z</time>
      </trkpt>
      <trkpt lat="44.73208" lon="4.16077">
        <ele>1113.8</ele>
        <time>2022-06-10T10:27:05Z</time>
      </trkpt>
      <trkpt lat="44.73205" lon="4.16064">
        <ele>1113.2</ele>
        <time>2022-06-10T10:27:06Z</time>
      </trkpt>
      <trkpt lat="44.73202" lon="4.1605">
        <ele>1112.6</ele>
        <time>2022-06-10T10:27:07Z</time>
      </trkpt>
      <trkpt lat="44.73198" lon="4.16036">
        <ele>1112</ele>
        <time>2022-06-10T10:27:08Z</time>
      </trkpt>
      <trkpt lat="44.73195" lon="4.16022">
        <ele>1111.5</ele>
        <time>2022-06-10T10:27:09Z</time>
      </trkpt>
      <trkpt lat="44.73191" lon="4.16009">
        <ele>1111</ele>
        <time>2022-06-10T10:27:10Z</time>
      </trkpt>
      <trkpt lat="44.73186" lon="4.15997">
        <ele>1110.5</ele>
        <time>2022-06-10T10:27:11Z</time>
      </trkpt>
      <trkpt lat="44.73181" lon="4.15985">
        <ele>1109.9</ele>
        <time>2022-06-10T10:27:12Z</time>
      </trkpt>
      <trkpt lat="44.73175" lon="4.15974">
        <ele>1109.4</ele>
        <time>2022-06-10T10:27:13Z</time>
      </trkpt>
      <trkpt lat="44.73169" lon="4.15963">
        <ele>1108.9</ele>
        <time>2022-06-10T10:27:14Z</time>
      </trkpt>
      <trkpt lat="44.73161" lon="4.15952">
        <ele>1108.3</ele>
        <time>2022-06-10T10:27:15Z</time>
      </trkpt>
      <trkpt lat="44.73154" lon="4.15943">
        <ele>1107.8</ele>
        <time>2022-06-10T10:27:16Z</time>
      </trkpt>
      <trkpt lat="44.73145" lon="4.15934">
        <ele>1107.2</ele>
        <time>2022-06-10T10:27:17Z</time>
      </trkpt>
      <trkpt lat="44.73135" lon="4.15928">
        <ele>1106.6</ele>
        <time>2022-06-10T10:27:18Z</time>
      </trkpt>
      <trkpt lat="44.73126" lon="4.15923">
        <ele>1106</ele>
        <time>2022-06-10T10:27:19Z</time>
      </trkpt>
      <trkpt lat="44.73116" lon="4.15918">
        <ele>1105.5</ele>
        <time>2022-06-10T10:27:20Z</time>
      </trkpt>
      <trkpt lat="44.73105" lon="4.15914">
        <ele>1104.9</ele>
        <time>2022-06-10T10:27:21Z</time>
      </trkpt>
      <trkpt lat="44.73094" lon="4.15911">
        <ele>1104.3</ele>
        <time>2022-06-10T10:27:22Z</time>
      </trkpt>
      <trkpt lat="44.73082" lon="4.15911">
        <ele>1103.6</ele>
        <time>2022-06-10T10:27:23Z</time>
      </trkpt>
      <trkpt lat="44.73071" lon="4.15916">
        <ele>1102.9</ele>
        <time>2022-06-10T10:27:24Z</time>
      </trkpt>
      <trkpt lat="44.7306" lon="4.15921">
        <ele>1102.2</ele>
        <time>2022-06-10T10:27:25Z</time>
      </trkpt>
      <trkpt lat="44.73049" lon="4.15927">
        <ele>1101.5</ele>
        <time>2022-06-10T10:27:26Z</time>
      </trkpt>
      <trkpt lat="44.73038" lon="4.15932">
        <ele>1101</ele>
        <time>2022-06-10T10:27:27Z</time>
      </trkpt>
      <trkpt lat="44.73028" lon="4.15938">
        <ele>1100.5</ele>
        <time>2022-06-10T10:27:28Z</time>
      </trkpt>
      <trkpt lat="44.73018" lon="4.15944">
        <ele>1100</ele>
        <time>2022-06-10T10:27:29Z</time>
      </trkpt>
      <trkpt lat="44.73008" lon="4.15951">
        <ele>1099.5</ele>
        <time>2022-06-10T10:27:30Z</time>
      </trkpt>
      <trkpt lat="44.72999" lon="4.15956">
        <ele>1099.2</ele>
        <time>2022-06-10T10:27:31Z</time>
      </trkpt>
      <trkpt lat="44.7299" lon="4.15959">
        <ele>1098.8</ele>
        <time>2022-06-10T10:27:32Z</time>
      </trkpt>
      <trkpt lat="44.72981" lon="4.15957">
        <ele>1098.4</ele>
        <time>2022-06-10T10:27:33Z</time>
      </trkpt>
      <trkpt lat="44.72974" lon="4.15951">
        <ele>1097.9</ele>
        <time>2022-06-10T10:27:34Z</time>
      </trkpt>
      <trkpt lat="44.72968" lon="4.15943">
        <ele>1097.1</ele>
        <time>2022-06-10T10:27:35Z</time>
      </trkpt>
      <trkpt lat="44.72963" lon="4.15931">
        <ele>1096.2</ele>
        <time>2022-06-10T10:27:36Z</time>
      </trkpt>
      <trkpt lat="44.7296" lon="4.15918">
        <ele>1095.3</ele>
        <time>2022-06-10T10:27:37Z</time>
      </trkpt>
      <trkpt lat="44.72961" lon="4.15904">
        <ele>1094.4</ele>
        <time>2022-06-10T10:27:38Z</time>
      </trkpt>
      <trkpt lat="44.72964" lon="4.1589">
        <ele>1093.5</ele>
        <time>2022-06-10T10:27:39Z</time>
      </trkpt>
      <trkpt lat="44.72965" lon="4.15877">
        <ele>1092.7</ele>
        <time>2022-06-10T10:27:40Z</time>
      </trkpt>
      <trkpt lat="44.72963" lon="4.15863">
        <ele>1091.9</ele>
        <time>2022-06-10T10:27:41Z</time>
      </trkpt>
      <trkpt lat="44.72963" lon="4.1585">
        <ele>1091.2</ele>
        <time>2022-06-10T10:27:42Z</time>
      </trkpt>
      <trkpt lat="44.72963" lon="4.15836">
        <ele>1090.5</ele>
        <time>2022-06-10T10:27:43Z</time>
      </trkpt>
      <trkpt lat="44.72962" lon="4.15821">
        <ele>1089.8</ele>
        <time>2022-06-10T10:27:44Z</time>
      </trkpt>
      <trkpt lat="44.72963" lon="4.15806">
        <ele>1089.2</ele>
        <time>2022-06-10T10:27:45Z</time>
      </trkpt>
      <trkpt lat="44.72964" lon="4.1579">
        <ele>1088.6</ele>
        <time>2022-06-10T10:27:46Z</time>
      </trkpt>
      <trkpt lat="44.72965" lon="4.15774">
        <ele>1088.1</ele>
        <time>2022-06-10T10:27:47Z</time>
      </trkpt>
      <trkpt lat="44.72963" lon="4.1576">
        <ele>1087.6</ele>
        <time>2022-06-10T10:27:48Z</time>
      </trkpt>
      <trkpt lat="44.72958" lon="4.15748">
        <ele>1086.9</ele>
        <time>2022-06-10T10:27:49Z</time>
      </trkpt>
      <trkpt lat="44.72951" lon="4.15739">
        <ele>1086.3</ele>
        <time>2022-06-10T10:27:50Z</time>
      </trkpt>
      <trkpt lat="44.72942" lon="4.15733">
        <ele>1085.5</ele>
        <time>2022-06-10T10:27:51Z</time>
      </trkpt>
      <trkpt lat="44.72933" lon="4.15728">
        <ele>1084.8</ele>
        <time>2022-06-10T10:27:52Z</time>
      </trkpt>
      <trkpt lat="44.72924" lon="4.15722">
        <ele>1084.1</ele>
        <time>2022-06-10T10:27:53Z</time>
      </trkpt>
      <trkpt lat="44.72916" lon="4.15714">
        <ele>1083.3</ele>
        <time>2022-06-10T10:27:54Z</time>
      </trkpt>
      <trkpt lat="44.72908" lon="4.15704">
        <ele>1082.5</ele>
        <time>2022-06-10T10:27:55Z</time>
      </trkpt>
      <trkpt lat="44.72901" lon="4.15691">
        <ele>1081.8</ele>
        <time>2022-06-10T10:27:56Z</time>
      </trkpt>
      <trkpt lat="44.72894" lon="4.15678">
        <ele>1081.1</ele>
        <time>2022-06-10T10:27:57Z</time>
      </trkpt>
      <trkpt lat="44.72886" lon="4.15666">
        <ele>1080.4</ele>
        <time>2022-06-10T10:27:58Z</time>
      </trkpt>
      <trkpt lat="44.72877" lon="4.15654">
        <ele>1080</ele>
        <time>2022-06-10T10:27:59Z</time>
      </trkpt>
      <trkpt lat="44.72869" lon="4.15642">
        <ele>1079.7</ele>
        <time>2022-06-10T10:28:00Z</time>
      </trkpt>
      <trkpt lat="44.7286" lon="4.15632">
        <ele>1079.5</ele>
        <time>2022-06-10T10:28:01Z</time>
      </trkpt>
      <trkpt lat="44.72852" lon="4.15624">
        <ele>1079.2</ele>
        <time>2022-06-10T10:28:02Z</time>
      </trkpt>
      <trkpt lat="44.72843" lon="4.15622">
        <ele>1078.7</ele>
        <time>2022-06-10T10:28:03Z</time>
      </trkpt>
      <trkpt lat="44.72834" lon="4.15626">
        <ele>1077.9</ele>
        <time>2022-06-10T10:28:04Z</time>
      </trkpt>
      <trkpt lat="44.72825" lon="4.15633">
        <ele>1076.9</ele>
        <time>2022-06-10T10:28:05Z</time>
      </trkpt>
      <trkpt lat="44.72817" lon="4.15642">
        <ele>1075.8</ele>
        <time>2022-06-10T10:28:06Z</time>
      </trkpt>
      <trkpt lat="44.72809" lon="4.15651">
        <ele>1074.8</ele>
        <time>2022-06-10T10:28:07Z</time>
      </trkpt>
      <trkpt lat="44.728" lon="4.15658">
        <ele>1073.9</ele>
        <time>2022-06-10T10:28:08Z</time>
      </trkpt>
      <trkpt lat="44.72792" lon="4.15666">
        <ele>1073.1</ele>
        <time>2022-06-10T10:28:09Z</time>
      </trkpt>
      <trkpt lat="44.72785" lon="4.15675">
        <ele>1072.3</ele>
        <time>2022-06-10T10:28:10Z</time>
      </trkpt>
      <trkpt lat="44.72777" lon="4.15684">
        <ele>1071.5</ele>
        <time>2022-06-10T10:28:11Z</time>
      </trkpt>
      <trkpt lat="44.72769" lon="4.15695">
        <ele>1070.7</ele>
        <time>2022-06-10T10:28:12Z</time>
      </trkpt>
      <trkpt lat="44.72762" lon="4.15705">
        <ele>1070</ele>
        <time>2022-06-10T10:28:13Z</time>
      </trkpt>
      <trkpt lat="44.72755" lon="4.15717">
        <ele>1069.2</ele>
        <time>2022-06-10T10:28:14Z</time>
      </trkpt>
      <trkpt lat="44.72748" lon="4.15729">
        <ele>1068.3</ele>
        <time>2022-06-10T10:28:15Z</time>
      </trkpt>
      <trkpt lat="44.72742" lon="4.15742">
        <ele>1067.5</ele>
        <time>2022-06-10T10:28:16Z</time>
      </trkpt>
      <trkpt lat="44.72734" lon="4.15753">
        <ele>1066.8</ele>
        <time>2022-06-10T10:28:17Z</time>
      </trkpt>
      <trkpt lat="44.72727" lon="4.15765">
        <ele>1066</ele>
        <time>2022-06-10T10:28:18Z</time>
      </trkpt>
      <trkpt lat="44.72721" lon="4.15777">
        <ele>1065.2</ele>
        <time>2022-06-10T10:28:19Z</time>
      </trkpt>
      <trkpt lat="44.72715" lon="4.1579">
        <ele>1064.4</ele>
        <time>2022-06-10T10:28:20Z</time>
      </trkpt>
      <trkpt lat="44.7271" lon="4.15804">
        <ele>1063.6</ele>
        <time>2022-06-10T10:28:21Z</time>
      </trkpt>
      <trkpt lat="44.72705" lon="4.1582">
        <ele>1062.8</ele>
        <time>2022-06-10T10:28:22Z</time>
      </trkpt>
      <trkpt lat="44.72701" lon="4.15836">
        <ele>1062.1</ele>
        <time>2022-06-10T10:28:23Z</time>
      </trkpt>
      <trkpt lat="44.72698" lon="4.15852">
        <ele>1061.3</ele>
        <time>2022-06-10T10:28:24Z</time>
      </trkpt>
      <trkpt lat="44.72696" lon="4.15868">
        <ele>1060.6</ele>
        <time>2022-06-10T10:28:25Z</time>
      </trkpt>
      <trkpt lat="44.72692" lon="4.15884">
        <ele>1059.9</ele>
        <time>2022-06-10T10:28:26Z</time>
      </trkpt>
      <trkpt lat="44.72689" lon="4.159">
        <ele>1059.3</ele>
        <time>2022-06-10T10:28:27Z</time>
      </trkpt>
      <trkpt lat="44.72685" lon="4.15915">
        <ele>1058.9</ele>
        <time>2022-06-10T10:28:28Z</time>
      </trkpt>
      <trkpt lat="44.72682" lon="4.15929">
        <ele>1058.5</ele>
        <time>2022-06-10T10:28:29Z</time>
      </trkpt>
      <trkpt lat="44.72677" lon="4.15943">
        <ele>1058.2</ele>
        <time>2022-06-10T10:28:30Z</time>
      </trkpt>
      <trkpt lat="44.72672" lon="4.15956">
        <ele>1057.8</ele>
        <time>2022-06-10T10:28:31Z</time>
      </trkpt>
      <trkpt lat="44.72665" lon="4.15967">
        <ele>1057.1</ele>
        <time>2022-06-10T10:28:32Z</time>
      </trkpt>
      <trkpt lat="44.72657" lon="4.15975">
        <ele>1056.4</ele>
        <time>2022-06-10T10:28:33Z</time>
      </trkpt>
      <trkpt lat="44.72648" lon="4.15979">
        <ele>1055.7</ele>
        <time>2022-06-10T10:28:34Z</time>
      </trkpt>
      <trkpt lat="44.72637" lon="4.15974">
        <ele>1054.7</ele>
        <time>2022-06-10T10:28:35Z</time>
      </trkpt>
      <trkpt lat="44.72625" lon="4.15969">
        <ele>1053.6</ele>
        <time>2022-06-10T10:28:36Z</time>
      </trkpt>
      <trkpt lat="44.72614" lon="4.15964">
        <ele>1052.7</ele>
        <time>2022-06-10T10:28:37Z</time>
      </trkpt>
      <trkpt lat="44.72603" lon="4.15961">
        <ele>1052</ele>
        <time>2022-06-10T10:28:38Z</time>
      </trkpt>
      <trkpt lat="44.72593" lon="4.15957">
        <ele>1051.4</ele>
        <time>2022-06-10T10:28:39Z</time>
      </trkpt>
      <trkpt lat="44.72582" lon="4.15954">
        <ele>1050.8</ele>
        <time>2022-06-10T10:28:40Z</time>
      </trkpt>
      <trkpt lat="44.72572" lon="4.1595">
        <ele>1050.2</ele>
        <time>2022-06-10T10:28:41Z</time>
      </trkpt>
      <trkpt lat="44.72561" lon="4.15949">
        <ele>1049.6</ele>
        <time>2022-06-10T10:28:42Z</time>
      </trkpt>
      <trkpt lat="44.72551" lon="4.1595">
        <ele>1049</ele>
        <time>2022-06-10T10:28:43Z</time>
      </trkpt>
      <trkpt lat="44.72541" lon="4.15955">
        <ele>1048.4</ele>
        <time>2022-06-10T10:28:44Z</time>
      </trkpt>
      <trkpt lat="44.72532" lon="4.15962">
        <ele>1047.8</ele>
        <time>2022-06-10T10:28:45Z</time>
      </trkpt>
      <trkpt lat="44.72523" lon="4.15971">
        <ele>1047.4</ele>
        <time>2022-06-10T10:28:46Z</time>
      </trkpt>
      <trkpt lat="44.72514" lon="4.15979">
        <ele>1047.1</ele>
        <time>2022-06-10T10:28:47Z</time>
      </trkpt>
      <trkpt lat="44.72506" lon="4.15988">
        <ele>1046.9</ele>
        <time>2022-06-10T10:28:48Z</time>
      </trkpt>
      <trkpt lat="44.72498" lon="4.15996">
        <ele>1046.8</ele>
        <time>2022-06-10T10:28:49Z</time>
      </trkpt>
      <trkpt lat="44.72489" lon="4.16001">
        <ele>1046.3</ele>
        <time>2022-06-10T10:28:50Z</time>
      </trkpt>
      <trkpt lat="44.72483" lon="4.16">
        <ele>1045.7</ele>
        <time>2022-06-10T10:28:51Z</time>
      </trkpt>
      <trkpt lat="44.72476" lon="4.15996">
        <ele>1045.1</ele>
        <time>2022-06-10T10:28:52Z</time>
      </trkpt>
      <trkpt lat="44.7247" lon="4.15986">
        <ele>1044.1</ele>
        <time>2022-06-10T10:28:53Z</time>
      </trkpt>
      <trkpt lat="44.72465" lon="4.15974">
        <ele>1042.9</ele>
        <time>2022-06-10T10:28:54Z</time>
      </trkpt>
      <trkpt lat="44.72461" lon="4.15962">
        <ele>1042</ele>
        <time>2022-06-10T10:28:55Z</time>
      </trkpt>
      <trkpt lat="44.72461" lon="4.15949">
        <ele>1041</ele>
        <time>2022-06-10T10:28:56Z</time>
      </trkpt>
      <trkpt lat="44.72461" lon="4.15935">
        <ele>1040</ele>
        <time>2022-06-10T10:28:57Z</time>
      </trkpt>
      <trkpt lat="44.72461" lon="4.15921">
        <ele>1039.1</ele>
        <time>2022-06-10T10:28:58Z</time>
      </trkpt>
      <trkpt lat="44.7246" lon="4.15908">
        <ele>1038.4</ele>
        <time>2022-06-10T10:28:59Z</time>
      </trkpt>
      <trkpt lat="44.72459" lon="4.15895">
        <ele>1037.8</ele>
        <time>2022-06-10T10:29:00Z</time>
      </trkpt>
      <trkpt lat="44.72457" lon="4.15882">
        <ele>1037.2</ele>
        <time>2022-06-10T10:29:01Z</time>
      </trkpt>
      <trkpt lat="44.72454" lon="4.15869">
        <ele>1036.5</ele>
        <time>2022-06-10T10:29:02Z</time>
      </trkpt>
      <trkpt lat="44.72452" lon="4.15856">
        <ele>1035.9</ele>
        <time>2022-06-10T10:29:03Z</time>
      </trkpt>
      <trkpt lat="44.7245" lon="4.15843">
        <ele>1035.4</ele>
        <time>2022-06-10T10:29:04Z</time>
      </trkpt>
      <trkpt lat="44.72448" lon="4.1583">
        <ele>1034.8</ele>
        <time>2022-06-10T10:29:05Z</time>
      </trkpt>
      <trkpt lat="44.72445" lon="4.15817">
        <ele>1034.3</ele>
        <time>2022-06-10T10:29:06Z</time>
      </trkpt>
      <trkpt lat="44.72442" lon="4.15804">
        <ele>1033.8</ele>
        <time>2022-06-10T10:29:07Z</time>
      </trkpt>
      <trkpt lat="44.72439" lon="4.15792">
        <ele>1033.3</ele>
        <time>2022-06-10T10:29:08Z</time>
      </trkpt>
      <trkpt lat="44.72434" lon="4.1578">
        <ele>1032.7</ele>
        <time>2022-06-10T10:29:09Z</time>
      </trkpt>
      <trkpt lat="44.72428" lon="4.15769">
        <ele>1032.1</ele>
        <time>2022-06-10T10:29:10Z</time>
      </trkpt>
      <trkpt lat="44.72419" lon="4.15761">
        <ele>1031.4</ele>
        <time>2022-06-10T10:29:11Z</time>
      </trkpt>
      <trkpt lat="44.72409" lon="4.15755">
        <ele>1030.6</ele>
        <time>2022-06-10T10:29:12Z</time>
      </trkpt>
      <trkpt lat="44.72398" lon="4.15751">
        <ele>1029.8</ele>
        <time>2022-06-10T10:29:13Z</time>
      </trkpt>
      <trkpt lat="44.72388" lon="4.15747">
        <ele>1028.9</ele>
        <time>2022-06-10T10:29:14Z</time>
      </trkpt>
      <trkpt lat="44.72377" lon="4.15742">
        <ele>1028.1</ele>
        <time>2022-06-10T10:29:15Z</time>
      </trkpt>
      <trkpt lat="44.72366" lon="4.15738">
        <ele>1027.2</ele>
        <time>2022-06-10T10:29:16Z</time>
      </trkpt>
      <trkpt lat="44.72355" lon="4.15733">
        <ele>1026.4</ele>
        <time>2022-06-10T10:29:17Z</time>
      </trkpt>
      <trkpt lat="44.72344" lon="4.15729">
        <ele>1025.7</ele>
        <time>2022-06-10T10:29:18Z</time>
      </trkpt>
      <trkpt lat="44.72333" lon="4.15725">
        <ele>1024.9</ele>
        <time>2022-06-10T10:29:19Z</time>
      </trkpt>
      <trkpt lat="44.72321" lon="4.15723">
        <ele>1024.2</ele>
        <time>2022-06-10T10:29:20Z</time>
      </trkpt>
      <trkpt lat="44.7231" lon="4.15725">
        <ele>1023.4</ele>
        <time>2022-06-10T10:29:21Z</time>
      </trkpt>
      <trkpt lat="44.72299" lon="4.15729">
        <ele>1022.6</ele>
        <time>2022-06-10T10:29:22Z</time>
      </trkpt>
      <trkpt lat="44.72287" lon="4.15734">
        <ele>1021.6</ele>
        <time>2022-06-10T10:29:23Z</time>
      </trkpt>
      <trkpt lat="44.72277" lon="4.1574">
        <ele>1020.7</ele>
        <time>2022-06-10T10:29:24Z</time>
      </trkpt>
      <trkpt lat="44.72265" lon="4.15744">
        <ele>1019.8</ele>
        <time>2022-06-10T10:29:25Z</time>
      </trkpt>
      <trkpt lat="44.72253" lon="4.15745">
        <ele>1018.9</ele>
        <time>2022-06-10T10:29:26Z</time>
      </trkpt>
      <trkpt lat="44.72241" lon="4.15743">
        <ele>1018</ele>
        <time>2022-06-10T10:29:27Z</time>
      </trkpt>
      <trkpt lat="44.7223" lon="4.15738">
        <ele>1017.2</ele>
        <time>2022-06-10T10:29:28Z</time>
      </trkpt>
      <trkpt lat="44.72219" lon="4.15731">
        <ele>1016.4</ele>
        <time>2022-06-10T10:29:29Z</time>
      </trkpt>
      <trkpt lat="44.72208" lon="4.15722">
        <ele>1015.7</ele>
        <time>2022-06-10T10:29:30Z</time>
      </trkpt>
      <trkpt lat="44.72198" lon="4.15712">
        <ele>1015.1</ele>
        <time>2022-06-10T10:29:31Z</time>
      </trkpt>
      <trkpt lat="44.72189" lon="4.15699">
        <ele>1014.6</ele>
        <time>2022-06-10T10:29:32Z</time>
      </trkpt>
      <trkpt lat="44.72182" lon="4.15685">
        <ele>1014</ele>
        <time>2022-06-10T10:29:33Z</time>
      </trkpt>
      <trkpt lat="44.7218" lon="4.1567">
        <ele>1013.3</ele>
        <time>2022-06-10T10:29:34Z</time>
      </trkpt>
      <trkpt lat="44.72178" lon="4.15655">
        <ele>1012.5</ele>
        <time>2022-06-10T10:29:35Z</time>
      </trkpt>
      <trkpt lat="44.72174" lon="4.15641">
        <ele>1011.7</ele>
        <time>2022-06-10T10:29:36Z</time>
      </trkpt>
      <trkpt lat="44.72167" lon="4.15629">
        <ele>1010.8</ele>
        <time>2022-06-10T10:29:37Z</time>
      </trkpt>
      <trkpt lat="44.72159" lon="4.15618">
        <ele>1009.9</ele>
        <time>2022-06-10T10:29:38Z</time>
      </trkpt>
      <trkpt lat="44.72152" lon="4.15607">
        <ele>1009</ele>
        <time>2022-06-10T10:29:39Z</time>
      </trkpt>
      <trkpt lat="44.72145" lon="4.15594">
        <ele>1008.1</ele>
        <time>2022-06-10T10:29:40Z</time>
      </trkpt>
      <trkpt lat="44.72141" lon="4.15579">
        <ele>1007.3</ele>
        <time>2022-06-10T10:29:41Z</time>
      </trkpt>
      <trkpt lat="44.7214" lon="4.15562">
        <ele>1006.4</ele>
        <time>2022-06-10T10:29:42Z</time>
      </trkpt>
      <trkpt lat="44.72138" lon="4.15545">
        <ele>1005.6</ele>
        <time>2022-06-10T10:29:43Z</time>
      </trkpt>
      <trkpt lat="44.72135" lon="4.15529">
        <ele>1004.7</ele>
        <time>2022-06-10T10:29:44Z</time>
      </trkpt>
      <trkpt lat="44.72131" lon="4.15514">
        <ele>1003.9</ele>
        <time>2022-06-10T10:29:45Z</time>
      </trkpt>
      <trkpt lat="44.72127" lon="4.15498">
        <ele>1003</ele>
        <time>2022-06-10T10:29:46Z</time>
      </trkpt>
      <trkpt lat="44.72124" lon="4.1548">
        <ele>1002.1</ele>
        <time>2022-06-10T10:29:47Z</time>
      </trkpt>
      <trkpt lat="44.72121" lon="4.15464">
        <ele>1001.2</ele>
        <time>2022-06-10T10:29:48Z</time>
      </trkpt>
      <trkpt lat="44.72119" lon="4.15448">
        <ele>1000.4</ele>
        <time>2022-06-10T10:29:49Z</time>
      </trkpt>
      <trkpt lat="44.72118" lon="4.15433">
        <ele>999.7</ele>
        <time>2022-06-10T10:29:50Z</time>
      </trkpt>
      <trkpt lat="44.72116" lon="4.15417">
        <ele>998.9</ele>
        <time>2022-06-10T10:29:51Z</time>
      </trkpt>
      <trkpt lat="44.72115" lon="4.15401">
        <ele>998.1</ele>
        <time>2022-06-10T10:29:52Z</time>
      </trkpt>
      <trkpt lat="44.72114" lon="4.15385">
        <ele>997.3</ele>
        <time>2022-06-10T10:29:53Z</time>
      </trkpt>
      <trkpt lat="44.72111" lon="4.15369">
        <ele>996.6</ele>
        <time>2022-06-10T10:29:54Z</time>
      </trkpt>
      <trkpt lat="44.72106" lon="4.15353">
        <ele>995.7</ele>
        <time>2022-06-10T10:29:55Z</time>
      </trkpt>
      <trkpt lat="44.721" lon="4.15339">
        <ele>994.9</ele>
        <time>2022-06-10T10:29:56Z</time>
      </trkpt>
      <trkpt lat="44.72092" lon="4.15325">
        <ele>994</ele>
        <time>2022-06-10T10:29:57Z</time>
      </trkpt>
      <trkpt lat="44.72085" lon="4.15312">
        <ele>993.1</ele>
        <time>2022-06-10T10:29:58Z</time>
      </trkpt>
      <trkpt lat="44.72078" lon="4.15298">
        <ele>992.3</ele>
        <time>2022-06-10T10:29:59Z</time>
      </trkpt>
      <trkpt lat="44.72072" lon="4.15284">
        <ele>991.5</ele>
        <time>2022-06-10T10:30:00Z</time>
      </trkpt>
      <trkpt lat="44.72065" lon="4.1527">
        <ele>990.9</ele>
        <time>2022-06-10T10:30:01Z</time>
      </trkpt>
      <trkpt lat="44.72059" lon="4.15256">
        <ele>990.2</ele>
        <time>2022-06-10T10:30:02Z</time>
      </trkpt>
      <trkpt lat="44.72053" lon="4.15242">
        <ele>989.7</ele>
        <time>2022-06-10T10:30:03Z</time>
      </trkpt>
      <trkpt lat="44.72048" lon="4.15228">
        <ele>989.3</ele>
        <time>2022-06-10T10:30:04Z</time>
      </trkpt>
      <trkpt lat="44.72043" lon="4.15214">
        <ele>989</ele>
        <time>2022-06-10T10:30:05Z</time>
      </trkpt>
      <trkpt lat="44.72036" lon="4.15201">
        <ele>988.8</ele>
        <time>2022-06-10T10:30:06Z</time>
      </trkpt>
      <trkpt lat="44.72028" lon="4.15191">
        <ele>988.6</ele>
        <time>2022-06-10T10:30:07Z</time>
      </trkpt>
      <trkpt lat="44.7202" lon="4.15185">
        <ele>988.4</ele>
        <time>2022-06-10T10:30:08Z</time>
      </trkpt>
      <trkpt lat="44.72012" lon="4.15182">
        <ele>988.1</ele>
        <time>2022-06-10T10:30:09Z</time>
      </trkpt>
      <trkpt lat="44.72003" lon="4.15182">
        <ele>987.7</ele>
        <time>2022-06-10T10:30:10Z</time>
      </trkpt>
      <trkpt lat="44.71996" lon="4.15184">
        <ele>987.2</ele>
        <time>2022-06-10T10:30:11Z</time>
      </trkpt>
      <trkpt lat="44.71989" lon="4.15189">
        <ele>987.1</ele>
        <time>2022-06-10T10:30:12Z</time>
      </trkpt>
      <trkpt lat="44.71983" lon="4.15196">
        <ele>987</ele>
        <time>2022-06-10T10:30:13Z</time>
      </trkpt>
      <trkpt lat="44.7198" lon="4.15203">
        <ele>987</ele>
        <time>2022-06-10T10:30:14Z</time>
      </trkpt>
      <trkpt lat="44.71977" lon="4.15209">
        <ele>986.5</ele>
        <time>2022-06-10T10:30:15Z</time>
      </trkpt>
      <trkpt lat="44.71975" lon="4.15214">
        <ele>986.2</ele>
        <time>2022-06-10T10:30:16Z</time>
      </trkpt>
      <trkpt lat="44.71975" lon="4.15215">
        <ele>986</ele>
        <time>2022-06-10T10:30:17Z</time>
      </trkpt>
      <trkpt lat="44.71973" lon="4.15217">
        <ele>986.1</ele>
        <time>2022-06-10T10:30:18Z</time>
      </trkpt>
      <trkpt lat="44.71973" lon="4.15217">
        <ele>986.2</ele>
        <time>2022-06-10T10:30:19Z</time>
      </trkpt>
      <trkpt lat="44.71974" lon="4.15216">
        <ele>986.2</ele>
        <time>2022-06-10T10:30:20Z</time>
      </trkpt>
      <trkpt lat="44.71974" lon="4.15215">
        <ele>986.3</ele>
        <time>2022-06-10T10:30:21Z</time>
      </trkpt>
      <trkpt lat="44.71974" lon="4.15214">
        <ele>986.3</ele>
        <time>2022-06-10T10:30:22Z</time>
      </trkpt>
      <trkpt lat="44.71974" lon="4.15213">
        <ele>986.4</ele>
        <time>2022-06-10T10:30:23Z</time>
      </trkpt>
      <trkpt lat="44.71975" lon="4.15212">
        <ele>986.4</ele>
        <time>2022-06-10T10:30:24Z</time>
      </trkpt>
      <trkpt lat="44.71975" lon="4.15211">
        <ele>986.5</ele>
        <time>2022-06-10T10:30:25Z</time>
      </trkpt>
      <trkpt lat="44.71975" lon="4.1521">
        <ele>986.5</ele>
        <time>2022-06-10T10:30:26Z</time>
      </trkpt>
      <trkpt lat="44.71975" lon="4.15209">
        <ele>986.6</ele>
        <time>2022-06-10T10:30:27Z</time>
      </trkpt>
      <trkpt lat="44.71976" lon="4.15208">
        <ele>986.6</ele>
        <time>2022-06-10T10:30:28Z</time>
      </trkpt>
      <trkpt lat="44.71976" lon="4.15208">
        <ele>986.7</ele>
        <time>2022-06-10T10:30:29Z</time>
      </trkpt>
      <trkpt lat="44.71976" lon="4.15207">
        <ele>986.7</ele>
        <time>2022-06-10T10:30:53Z</time>
      </trkpt>
      <trkpt lat="44.71977" lon="4.15206">
        <ele>986.8</ele>
        <time>2022-06-10T10:30:55Z</time>
      </trkpt>
      <trkpt lat="44.71977" lon="4.15205">
        <ele>986.8</ele>
        <time>2022-06-10T10:30:56Z</time>
      </trkpt>
      <trkpt lat="44.71978" lon="4.15202">
        <ele>987</ele>
        <time>2022-06-10T10:30:57Z</time>
      </trkpt>
      <trkpt lat="44.71978" lon="4.15198">
        <ele>987</ele>
        <time>2022-06-10T10:30:59Z</time>
      </trkpt>
      <trkpt lat="44.71979" lon="4.15195">
        <ele>987</ele>
        <time>2022-06-10T10:31:01Z</time>
      </trkpt>
      <trkpt lat="44.71978" lon="4.15194">
        <ele>987</ele>
        <time>2022-06-10T10:31:02Z</time>
      </trkpt>
      <trkpt lat="44.71978" lon="4.15193">
        <ele>987</ele>
        <time>2022-06-10T10:31:03Z</time>
      </trkpt>
      <trkpt lat="44.71979" lon="4.15191">
        <ele>987</ele>
        <time>2022-06-10T10:31:05Z</time>
      </trkpt>
      <trkpt lat="44.71979" lon="4.1519">
        <ele>987</ele>
        <time>2022-06-10T10:31:06Z</time>
      </trkpt>
      <trkpt lat="44.7198" lon="4.1519">
        <ele>987</ele>
        <time>2022-06-10T10:31:07Z</time>
      </trkpt>
      <trkpt lat="44.71981" lon="4.1519">
        <ele>987</ele>
        <time>2022-06-10T10:31:08Z</time>
      </trkpt>
      <trkpt lat="44.71982" lon="4.15189">
        <ele>987.1</ele>
        <time>2022-06-10T10:31:09Z</time>
      </trkpt>
      <trkpt lat="44.71983" lon="4.15188">
        <ele>987.1</ele>
        <time>2022-06-10T10:31:10Z</time>
      </trkpt>
      <trkpt lat="44.71985" lon="4.15187">
        <ele>987.1</ele>
        <time>2022-06-10T10:31:11Z</time>
      </trkpt>
      <trkpt lat="44.71987" lon="4.15184">
        <ele>987.1</ele>
        <time>2022-06-10T10:31:12Z</time>
      </trkpt>
      <trkpt lat="44.71988" lon="4.15183">
        <ele>987.1</ele>
        <time>2022-06-10T10:31:14Z</time>
      </trkpt>
      <trkpt lat="44.71989" lon="4.15182">
        <ele>987.1</ele>
        <time>2022-06-10T10:31:16Z</time>
      </trkpt>
      <trkpt lat="44.7199" lon="4.15181">
        <ele>987.2</ele>
        <time>2022-06-10T10:31:17Z</time>
      </trkpt>
      <trkpt lat="44.71992" lon="4.15178">
        <ele>987.2</ele>
        <time>2022-06-10T10:31:18Z</time>
      </trkpt>
      <trkpt lat="44.71993" lon="4.15177">
        <ele>987.2</ele>
        <time>2022-06-10T10:31:20Z</time>
      </trkpt>
      <trkpt lat="44.71994" lon="4.15176">
        <ele>987.2</ele>
        <time>2022-06-10T10:31:21Z</time>
      </trkpt>
      <trkpt lat="44.71995" lon="4.15174">
        <ele>987.3</ele>
        <time>2022-06-10T10:31:22Z</time>
      </trkpt>
      <trkpt lat="44.71998" lon="4.15173">
        <ele>987.4</ele>
        <time>2022-06-10T10:31:24Z</time>
      </trkpt>
      <trkpt lat="44.71999" lon="4.15173">
        <ele>987.5</ele>
        <time>2022-06-10T10:31:26Z</time>
      </trkpt>
      <trkpt lat="44.72" lon="4.15172">
        <ele>987.6</ele>
        <time>2022-06-10T10:31:27Z</time>
      </trkpt>
      <trkpt lat="44.72002" lon="4.15172">
        <ele>987.7</ele>
        <time>2022-06-10T10:31:29Z</time>
      </trkpt>
      <trkpt lat="44.72004" lon="4.15172">
        <ele>987.7</ele>
        <time>2022-06-10T10:31:30Z</time>
      </trkpt>
      <trkpt lat="44.72005" lon="4.15172">
        <ele>987.8</ele>
        <time>2022-06-10T10:31:31Z</time>
      </trkpt>
      <trkpt lat="44.72007" lon="4.15173">
        <ele>987.8</ele>
        <time>2022-06-10T10:31:33Z</time>
      </trkpt>
      <trkpt lat="44.72008" lon="4.15173">
        <ele>987.9</ele>
        <time>2022-06-10T10:31:34Z</time>
      </trkpt>
      <trkpt lat="44.7201" lon="4.15174">
        <ele>988</ele>
        <time>2022-06-10T10:31:35Z</time>
      </trkpt>
      <trkpt lat="44.72012" lon="4.15174">
        <ele>988</ele>
        <time>2022-06-10T10:31:37Z</time>
      </trkpt>
      <trkpt lat="44.72013" lon="4.15174">
        <ele>988.1</ele>
        <time>2022-06-10T10:31:38Z</time>
      </trkpt>
      <trkpt lat="44.72014" lon="4.15174">
        <ele>988.1</ele>
        <time>2022-06-10T10:31:39Z</time>
      </trkpt>
      <trkpt lat="44.72016" lon="4.15175">
        <ele>988.2</ele>
        <time>2022-06-10T10:31:40Z</time>
      </trkpt>
      <trkpt lat="44.72017" lon="4.15176">
        <ele>988.2</ele>
        <time>2022-06-10T10:31:42Z</time>
      </trkpt>
      <trkpt lat="44.72018" lon="4.15176">
        <ele>988.2</ele>
        <time>2022-06-10T10:31:43Z</time>
      </trkpt>
      <trkpt lat="44.72019" lon="4.15177">
        <ele>988.3</ele>
        <time>2022-06-10T10:31:44Z</time>
      </trkpt>
      <trkpt lat="44.72021" lon="4.15177">
        <ele>988.3</ele>
        <time>2022-06-10T10:31:45Z</time>
      </trkpt>
      <trkpt lat="44.72022" lon="4.15178">
        <ele>988.3</ele>
        <time>2022-06-10T10:31:47Z</time>
      </trkpt>
      <trkpt lat="44.72023" lon="4.15179">
        <ele>988.4</ele>
        <time>2022-06-10T10:31:48Z</time>
      </trkpt>
      <trkpt lat="44.72025" lon="4.1518">
        <ele>988.4</ele>
        <time>2022-06-10T10:31:50Z</time>
      </trkpt>
      <trkpt lat="44.72027" lon="4.1518">
        <ele>988.5</ele>
        <time>2022-06-10T10:31:51Z</time>
      </trkpt>
      <trkpt lat="44.72028" lon="4.1518">
        <ele>988.5</ele>
        <time>2022-06-10T10:31:53Z</time>
      </trkpt>
      <trkpt lat="44.72029" lon="4.1518">
        <ele>988.5</ele>
        <time>2022-06-10T10:31:54Z</time>
      </trkpt>
      <trkpt lat="44.7203" lon="4.1518">
        <ele>988.4</ele>
        <time>2022-06-10T10:31:55Z</time>
      </trkpt>
      <trkpt lat="44.7203" lon="4.15181">
        <ele>988.4</ele>
        <time>2022-06-10T10:31:56Z</time>
      </trkpt>
      <trkpt lat="44.72031" lon="4.15181">
        <ele>988.4</ele>
        <time>2022-06-10T10:31:57Z</time>
      </trkpt>
      <trkpt lat="44.7203" lon="4.15183">
        <ele>988.4</ele>
        <time>2022-06-10T10:31:59Z</time>
      </trkpt>
      <trkpt lat="44.72029" lon="4.15184">
        <ele>988.4</ele>
        <time>2022-06-10T10:32:00Z</time>
      </trkpt>
      <trkpt lat="44.72028" lon="4.15183">
        <ele>988.4</ele>
        <time>2022-06-10T10:32:01Z</time>
      </trkpt>
      <trkpt lat="44.72027" lon="4.15182">
        <ele>988.3</ele>
        <time>2022-06-10T10:32:03Z</time>
      </trkpt>
      <trkpt lat="44.72026" lon="4.15181">
        <ele>988.3</ele>
        <time>2022-06-10T10:32:04Z</time>
      </trkpt>
      <trkpt lat="44.72025" lon="4.1518">
        <ele>988.3</ele>
        <time>2022-06-10T10:32:05Z</time>
      </trkpt>
      <trkpt lat="44.72024" lon="4.15178">
        <ele>988.2</ele>
        <time>2022-06-10T10:32:06Z</time>
      </trkpt>
      <trkpt lat="44.72022" lon="4.15176">
        <ele>988.2</ele>
        <time>2022-06-10T10:32:07Z</time>
      </trkpt>
      <trkpt lat="44.72021" lon="4.15175">
        <ele>988.1</ele>
        <time>2022-06-10T10:32:08Z</time>
      </trkpt>
      <trkpt lat="44.72019" lon="4.15174">
        <ele>988.1</ele>
        <time>2022-06-10T10:32:09Z</time>
      </trkpt>
      <trkpt lat="44.72018" lon="4.15172">
        <ele>988.1</ele>
        <time>2022-06-10T10:32:11Z</time>
      </trkpt>
      <trkpt lat="44.72017" lon="4.15171">
        <ele>988</ele>
        <time>2022-06-10T10:32:12Z</time>
      </trkpt>
      <trkpt lat="44.72015" lon="4.1517">
        <ele>988</ele>
        <time>2022-06-10T10:32:13Z</time>
      </trkpt>
      <trkpt lat="44.72013" lon="4.15168">
        <ele>987.9</ele>
        <time>2022-06-10T10:32:14Z</time>
      </trkpt>
      <trkpt lat="44.72013" lon="4.15168">
        <ele>987.9</ele>
        <time>2022-06-10T10:32:15Z</time>
      </trkpt>
      <trkpt lat="44.72012" lon="4.15167">
        <ele>987.9</ele>
        <time>2022-06-10T10:32:16Z</time>
      </trkpt>
      <trkpt lat="44.72011" lon="4.15167">
        <ele>987.9</ele>
        <time>2022-06-10T10:32:17Z</time>
      </trkpt>
      <trkpt lat="44.7201" lon="4.15166">
        <ele>987.8</ele>
        <time>2022-06-10T10:32:18Z</time>
      </trkpt>
      <trkpt lat="44.72008" lon="4.15165">
        <ele>987.8</ele>
        <time>2022-06-10T10:32:19Z</time>
      </trkpt>
      <trkpt lat="44.72006" lon="4.15164">
        <ele>987.7</ele>
        <time>2022-06-10T10:32:21Z</time>
      </trkpt>
      <trkpt lat="44.72005" lon="4.15164">
        <ele>987.7</ele>
        <time>2022-06-10T10:32:22Z</time>
      </trkpt>
      <trkpt lat="44.72004" lon="4.15163">
        <ele>987.7</ele>
        <time>2022-06-10T10:32:23Z</time>
      </trkpt>
      <trkpt lat="44.72002" lon="4.15164">
        <ele>987.6</ele>
        <time>2022-06-10T10:32:24Z</time>
      </trkpt>
      <trkpt lat="44.72001" lon="4.15164">
        <ele>987.5</ele>
        <time>2022-06-10T10:32:25Z</time>
      </trkpt>
      <trkpt lat="44.71999" lon="4.15164">
        <ele>987.5</ele>
        <time>2022-06-10T10:32:26Z</time>
      </trkpt>
      <trkpt lat="44.71996" lon="4.15166">
        <ele>987.4</ele>
        <time>2022-06-10T10:32:28Z</time>
      </trkpt>
      <trkpt lat="44.71995" lon="4.15167">
        <ele>987.3</ele>
        <time>2022-06-10T10:32:29Z</time>
      </trkpt>
      <trkpt lat="44.71994" lon="4.15168">
        <ele>987.3</ele>
        <time>2022-06-10T10:32:31Z</time>
      </trkpt>
      <trkpt lat="44.71992" lon="4.15169">
        <ele>987.2</ele>
        <time>2022-06-10T10:32:32Z</time>
      </trkpt>
      <trkpt lat="44.71991" lon="4.1517">
        <ele>987.2</ele>
        <time>2022-06-10T10:32:33Z</time>
      </trkpt>
      <trkpt lat="44.71989" lon="4.15172">
        <ele>987.2</ele>
        <time>2022-06-10T10:32:34Z</time>
      </trkpt>
      <trkpt lat="44.71988" lon="4.15173">
        <ele>987.1</ele>
        <time>2022-06-10T10:32:35Z</time>
      </trkpt>
      <trkpt lat="44.71987" lon="4.15174">
        <ele>987.1</ele>
        <time>2022-06-10T10:32:36Z</time>
      </trkpt>
      <trkpt lat="44.71986" lon="4.15176">
        <ele>987.1</ele>
        <time>2022-06-10T10:32:37Z</time>
      </trkpt>
      <trkpt lat="44.71984" lon="4.15178">
        <ele>987.1</ele>
        <time>2022-06-10T10:32:39Z</time>
      </trkpt>
      <trkpt lat="44.71984" lon="4.15179">
        <ele>987.1</ele>
        <time>2022-06-10T10:32:40Z</time>
      </trkpt>
      <trkpt lat="44.71983" lon="4.1518">
        <ele>987.1</ele>
        <time>2022-06-10T10:32:41Z</time>
      </trkpt>
      <trkpt lat="44.71982" lon="4.15182">
        <ele>987.1</ele>
        <time>2022-06-10T10:32:42Z</time>
      </trkpt>
      <trkpt lat="44.71981" lon="4.15184">
        <ele>987.1</ele>
        <time>2022-06-10T10:32:43Z</time>
      </trkpt>
      <trkpt lat="44.7198" lon="4.15186">
        <ele>987</ele>
        <time>2022-06-10T10:32:45Z</time>
      </trkpt>
      <trkpt lat="44.71979" lon="4.15187">
        <ele>987</ele>
        <time>2022-06-10T10:32:46Z</time>
      </trkpt>
      <trkpt lat="44.71978" lon="4.15188">
        <ele>987</ele>
        <time>2022-06-10T10:32:47Z</time>
      </trkpt>
      <trkpt lat="44.71978" lon="4.1519">
        <ele>987</ele>
        <time>2022-06-10T10:32:48Z</time>
      </trkpt>
      <trkpt lat="44.71977" lon="4.15191">
        <ele>987</ele>
        <time>2022-06-10T10:32:49Z</time>
      </trkpt>
      <trkpt lat="44.71977" lon="4.15192">
        <ele>987</ele>
        <time>2022-06-10T10:32:50Z</time>
      </trkpt>
      <trkpt lat="44.71975" lon="4.15194">
        <ele>987</ele>
        <time>2022-06-10T10:32:51Z</time>
      </trkpt>
      <trkpt lat="44.71974" lon="4.15197">
        <ele>987</ele>
        <time>2022-06-10T10:32:53Z</time>
      </trkpt>
      <trkpt lat="44.71974" lon="4.15198">
        <ele>987</ele>
        <time>2022-06-10T10:32:54Z</time>
      </trkpt>
      <trkpt lat="44.71974" lon="4.152">
        <ele>987</ele>
        <time>2022-06-10T10:32:55Z</time>
      </trkpt>
      <trkpt lat="44.71973" lon="4.15202">
        <ele>986.9</ele>
        <time>2022-06-10T10:32:56Z</time>
      </trkpt>
      <trkpt lat="44.71973" lon="4.15205">
        <ele>986.7</ele>
        <time>2022-06-10T10:32:58Z</time>
      </trkpt>
      <trkpt lat="44.71973" lon="4.15206">
        <ele>986.7</ele>
        <time>2022-06-10T10:32:59Z</time>
      </trkpt>
      <trkpt lat="44.71973" lon="4.15207">
        <ele>986.6</ele>
        <time>2022-06-10T10:33:00Z</time>
      </trkpt>
      <trkpt lat="44.71973" lon="4.15208">
        <ele>986.5</ele>
        <time>2022-06-10T10:33:01Z</time>
      </trkpt>
      <trkpt lat="44.71973" lon="4.15209">
        <ele>986.4</ele>
        <time>2022-06-10T10:33:02Z</time>
      </trkpt>
      <trkpt lat="44.71973" lon="4.15211">
        <ele>986.3</ele>
        <time>2022-06-10T10:33:03Z</time>
      </trkpt>
      <trkpt lat="44.71973" lon="4.15213">
        <ele>986.2</ele>
        <time>2022-06-10T10:33:04Z</time>
      </trkpt>
      <trkpt lat="44.71973" lon="4.15214">
        <ele>986.1</ele>
        <time>2022-06-10T10:33:05Z</time>
      </trkpt>
      <trkpt lat="44.71973" lon="4.15215">
        <ele>986</ele>
        <time>2022-06-10T10:33:07Z</time>
      </trkpt>
      <trkpt lat="44.71973" lon="4.15216">
        <ele>985.9</ele>
        <time>2022-06-10T10:33:08Z</time>
      </trkpt>
      <trkpt lat="44.71973" lon="4.15216">
        <ele>985.9</ele>
        <time>2022-06-10T10:33:09Z</time>
      </trkpt>
      <trkpt lat="44.71973" lon="4.15216">
        <ele>985.9</ele>
        <time>2022-06-10T10:33:10Z</time>
      </trkpt>
      <trkpt lat="44.71973" lon="4.15216">
        <ele>985.9</ele>
        <time>2022-06-10T10:33:11Z</time>
      </trkpt>
      <trkpt lat="44.71973" lon="4.15216">
        <ele>985.9</ele>
        <time>2022-06-10T10:33:12Z</time>
      </trkpt>
      <trkpt lat="44.71973" lon="4.15216">
        <ele>985.9</ele>
        <time>2022-06-10T10:33:13Z</time>
      </trkpt>
      <trkpt lat="44.71973" lon="4.15216">
        <ele>985.9</ele>
        <time>2022-06-10T10:33:14Z</time>
      </trkpt>
      <trkpt lat="44.71973" lon="4.15216">
        <ele>985.9</ele>
        <time>2022-06-10T10:33:15Z</time>
      </trkpt>
      <trkpt lat="44.71973" lon="4.15216">
        <ele>985.9</ele>
        <time>2022-06-10T10:33:16Z</time>
      </trkpt>
      <trkpt lat="44.71973" lon="4.15216">
        <ele>985.9</ele>
        <time>2022-06-10T10:33:17Z</time>
      </trkpt>
      <trkpt lat="44.71973" lon="4.15216">
        <ele>985.9</ele>
        <time>2022-06-10T10:33:18Z</time>
      </trkpt>
      <trkpt lat="44.71973" lon="4.15216">
        <ele>985.9</ele>
        <time>2022-06-10T10:33:19Z</time>
      </trkpt>
      <trkpt lat="44.71972" lon="4.15209">
        <ele>985.4</ele>
        <time>2022-06-10T11:01:30Z</time>
      </trkpt>
      <trkpt lat="44.71972" lon="4.15209">
        <ele>985.4</ele>
        <time>2022-06-10T11:01:32Z</time>
      </trkpt>
      <trkpt lat="44.71972" lon="4.15209">
        <ele>985.3</ele>
        <time>2022-06-10T11:01:33Z</time>
      </trkpt>
      <trkpt lat="44.71972" lon="4.15209">
        <ele>985.3</ele>
        <time>2022-06-10T11:01:34Z</time>
      </trkpt>
      <trkpt lat="44.71972" lon="4.15209">
        <ele>985.3</ele>
        <time>2022-06-10T11:01:35Z</time>
      </trkpt>
      <trkpt lat="44.71972" lon="4.15209">
        <ele>985.3</ele>
        <time>2022-06-10T11:01:36Z</time>
      </trkpt>
      <trkpt lat="44.71972" lon="4.15209">
        <ele>985.3</ele>
        <time>2022-06-10T11:01:37Z</time>
      </trkpt>
      <trkpt lat="44.71972" lon="4.15208">
        <ele>985.3</ele>
        <time>2022-06-10T11:01:38Z</time>
      </trkpt>
      <trkpt lat="44.71972" lon="4.15208">
        <ele>985.3</ele>
        <time>2022-06-10T11:01:39Z</time>
      </trkpt>
      <trkpt lat="44.71972" lon="4.15208">
        <ele>985.3</ele>
        <time>2022-06-10T11:01:40Z</time>
      </trkpt>
      <trkpt lat="44.71972" lon="4.15208">
        <ele>985.3</ele>
        <time>2022-06-10T11:01:41Z</time>
      </trkpt>
      <trkpt lat="44.71972" lon="4.15208">
        <ele>985.2</ele>
        <time>2022-06-10T11:01:42Z</time>
      </trkpt>
      <trkpt lat="44.71972" lon="4.15208">
        <ele>985.2</ele>
        <time>2022-06-10T11:01:44Z</time>
      </trkpt>
      <trkpt lat="44.71972" lon="4.15207">
        <ele>985.2</ele>
        <time>2022-06-10T11:01:45Z</time>
      </trkpt>
      <trkpt lat="44.71972" lon="4.15207">
        <ele>985.2</ele>
        <time>2022-06-10T11:01:47Z</time>
      </trkpt>
      <trkpt lat="44.71972" lon="4.15207">
        <ele>985.2</ele>
        <time>2022-06-10T11:01:49Z</time>
      </trkpt>
      <trkpt lat="44.71972" lon="4.15208">
        <ele>985.1</ele>
        <time>2022-06-10T11:01:50Z</time>
      </trkpt>
      <trkpt lat="44.71972" lon="4.15208">
        <ele>985.1</ele>
        <time>2022-06-10T11:01:51Z</time>
      </trkpt>
      <trkpt lat="44.71971" lon="4.15208">
        <ele>985</ele>
        <time>2022-06-10T11:01:52Z</time>
      </trkpt>
      <trkpt lat="44.71971" lon="4.15208">
        <ele>985</ele>
        <time>2022-06-10T11:01:53Z</time>
      </trkpt>
      <trkpt lat="44.71971" lon="4.15208">
        <ele>985</ele>
        <time>2022-06-10T11:01:54Z</time>
      </trkpt>
      <trkpt lat="44.71971" lon="4.15208">
        <ele>985</ele>
        <time>2022-06-10T11:01:56Z</time>
      </trkpt>
      <trkpt lat="44.71971" lon="4.15208">
        <ele>985</ele>
        <time>2022-06-10T11:01:57Z</time>
      </trkpt>
      <trkpt lat="44.7197" lon="4.15209">
        <ele>984.9</ele>
        <time>2022-06-10T11:01:58Z</time>
      </trkpt>
      <trkpt lat="44.7197" lon="4.15209">
        <ele>984.9</ele>
        <time>2022-06-10T11:01:59Z</time>
      </trkpt>
      <trkpt lat="44.7197" lon="4.15209">
        <ele>984.9</ele>
        <time>2022-06-10T11:02:00Z</time>
      </trkpt>
      <trkpt lat="44.71972" lon="4.15213">
        <ele>984.6</ele>
        <time>2022-06-10T11:03:16Z</time>
      </trkpt>
      <trkpt lat="44.71972" lon="4.15214">
        <ele>984.6</ele>
        <time>2022-06-10T11:03:17Z</time>
      </trkpt>
      <trkpt lat="44.71972" lon="4.15214">
        <ele>984.6</ele>
        <time>2022-06-10T11:03:18Z</time>
      </trkpt>
      <trkpt lat="44.71972" lon="4.15214">
        <ele>984.5</ele>
        <time>2022-06-10T11:03:19Z</time>
      </trkpt>
      <trkpt lat="44.71972" lon="4.15214">
        <ele>984.5</ele>
        <time>2022-06-10T11:03:20Z</time>
      </trkpt>
      <trkpt lat="44.71972" lon="4.15214">
        <ele>984.5</ele>
        <time>2022-06-10T11:03:21Z</time>
      </trkpt>
      <trkpt lat="44.71972" lon="4.15214">
        <ele>984.5</ele>
        <time>2022-06-10T11:03:22Z</time>
      </trkpt>
      <trkpt lat="44.71972" lon="4.15214">
        <ele>984.5</ele>
        <time>2022-06-10T11:03:23Z</time>
      </trkpt>
      <trkpt lat="44.71972" lon="4.15214">
        <ele>984.5</ele>
        <time>2022-06-10T11:03:24Z</time>
      </trkpt>
      <trkpt lat="44.71972" lon="4.15215">
        <ele>984.4</ele>
        <time>2022-06-10T11:03:25Z</time>
      </trkpt>
      <trkpt lat="44.71972" lon="4.15215">
        <ele>984.4</ele>
        <time>2022-06-10T11:03:26Z</time>
      </trkpt>
      <trkpt lat="44.71972" lon="4.15215">
        <ele>984.4</ele>
        <time>2022-06-10T11:03:27Z</time>
      </trkpt>
      <trkpt lat="44.71972" lon="4.15215">
        <ele>984.4</ele>
        <time>2022-06-10T11:03:29Z</time>
      </trkpt>
      <trkpt lat="44.71973" lon="4.15215">
        <ele>984.4</ele>
        <time>2022-06-10T11:03:30Z</time>
      </trkpt>
      <trkpt lat="44.71974" lon="4.15217">
        <ele>984.2</ele>
        <time>2022-06-10T11:06:02Z</time>
      </trkpt>
      <trkpt lat="44.71975" lon="4.15222">
        <ele>983.9</ele>
        <time>2022-06-10T11:06:03Z</time>
      </trkpt>
      <trkpt lat="44.71975" lon="4.15231">
        <ele>983.3</ele>
        <time>2022-06-10T11:06:05Z</time>
      </trkpt>
      <trkpt lat="44.71975" lon="4.15241">
        <ele>982.7</ele>
        <time>2022-06-10T11:06:06Z</time>
      </trkpt>
      <trkpt lat="44.71974" lon="4.1525">
        <ele>982.3</ele>
        <time>2022-06-10T11:06:07Z</time>
      </trkpt>
      <trkpt lat="44.71974" lon="4.15256">
        <ele>981.9</ele>
        <time>2022-06-10T11:06:09Z</time>
      </trkpt>
      <trkpt lat="44.71973" lon="4.1526">
        <ele>981.7</ele>
        <time>2022-06-10T11:06:10Z</time>
      </trkpt>
      <trkpt lat="44.71973" lon="4.15264">
        <ele>981.5</ele>
        <time>2022-06-10T11:06:11Z</time>
      </trkpt>
      <trkpt lat="44.71972" lon="4.15269">
        <ele>981.2</ele>
        <time>2022-06-10T11:06:12Z</time>
      </trkpt>
      <trkpt lat="44.71971" lon="4.15274">
        <ele>980.9</ele>
        <time>2022-06-10T11:06:13Z</time>
      </trkpt>
      <trkpt lat="44.7197" lon="4.15279">
        <ele>980.6</ele>
        <time>2022-06-10T11:06:14Z</time>
      </trkpt>
      <trkpt lat="44.71969" lon="4.15287">
        <ele>980.3</ele>
        <time>2022-06-10T11:06:15Z</time>
      </trkpt>
      <trkpt lat="44.71968" lon="4.15294">
        <ele>979.8</ele>
        <time>2022-06-10T11:06:16Z</time>
      </trkpt>
      <trkpt lat="44.71966" lon="4.15305">
        <ele>979.2</ele>
        <time>2022-06-10T11:06:18Z</time>
      </trkpt>
      <trkpt lat="44.71965" lon="4.15313">
        <ele>978.8</ele>
        <time>2022-06-10T11:06:19Z</time>
      </trkpt>
      <trkpt lat="44.71964" lon="4.1532">
        <ele>978.4</ele>
        <time>2022-06-10T11:06:20Z</time>
      </trkpt>
      <trkpt lat="44.71961" lon="4.15327">
        <ele>977.9</ele>
        <time>2022-06-10T11:06:21Z</time>
      </trkpt>
      <trkpt lat="44.71959" lon="4.15335">
        <ele>977.4</ele>
        <time>2022-06-10T11:06:22Z</time>
      </trkpt>
      <trkpt lat="44.71957" lon="4.15344">
        <ele>976.9</ele>
        <time>2022-06-10T11:06:23Z</time>
      </trkpt>
      <trkpt lat="44.71953" lon="4.15351">
        <ele>976.3</ele>
        <time>2022-06-10T11:06:24Z</time>
      </trkpt>
      <trkpt lat="44.71949" lon="4.15358">
        <ele>975.8</ele>
        <time>2022-06-10T11:06:25Z</time>
      </trkpt>
      <trkpt lat="44.71943" lon="4.15365">
        <ele>975.3</ele>
        <time>2022-06-10T11:06:26Z</time>
      </trkpt>
      <trkpt lat="44.71938" lon="4.15372">
        <ele>974.7</ele>
        <time>2022-06-10T11:06:27Z</time>
      </trkpt>
      <trkpt lat="44.71932" lon="4.15379">
        <ele>974.1</ele>
        <time>2022-06-10T11:06:28Z</time>
      </trkpt>
      <trkpt lat="44.71926" lon="4.15385">
        <ele>973.5</ele>
        <time>2022-06-10T11:06:29Z</time>
      </trkpt>
      <trkpt lat="44.71919" lon="4.15391">
        <ele>972.9</ele>
        <time>2022-06-10T11:06:30Z</time>
      </trkpt>
      <trkpt lat="44.71911" lon="4.15397">
        <ele>972.3</ele>
        <time>2022-06-10T11:06:31Z</time>
      </trkpt>
      <trkpt lat="44.71904" lon="4.15404">
        <ele>971.6</ele>
        <time>2022-06-10T11:06:32Z</time>
      </trkpt>
      <trkpt lat="44.71897" lon="4.15412">
        <ele>971</ele>
        <time>2022-06-10T11:06:33Z</time>
      </trkpt>
      <trkpt lat="44.71889" lon="4.1542">
        <ele>970.3</ele>
        <time>2022-06-10T11:06:34Z</time>
      </trkpt>
      <trkpt lat="44.71882" lon="4.15429">
        <ele>969.5</ele>
        <time>2022-06-10T11:06:35Z</time>
      </trkpt>
      <trkpt lat="44.71876" lon="4.15439">
        <ele>968.8</ele>
        <time>2022-06-10T11:06:36Z</time>
      </trkpt>
      <trkpt lat="44.71871" lon="4.15451">
        <ele>968</ele>
        <time>2022-06-10T11:06:37Z</time>
      </trkpt>
      <trkpt lat="44.71867" lon="4.15465">
        <ele>967.2</ele>
        <time>2022-06-10T11:06:38Z</time>
      </trkpt>
      <trkpt lat="44.71864" lon="4.15479">
        <ele>966.5</ele>
        <time>2022-06-10T11:06:39Z</time>
      </trkpt>
      <trkpt lat="44.71862" lon="4.15494">
        <ele>965.9</ele>
        <time>2022-06-10T11:06:40Z</time>
      </trkpt>
      <trkpt lat="44.7186" lon="4.15509">
        <ele>965.3</ele>
        <time>2022-06-10T11:06:41Z</time>
      </trkpt>
      <trkpt lat="44.71858" lon="4.15524">
        <ele>964.7</ele>
        <time>2022-06-10T11:06:42Z</time>
      </trkpt>
      <trkpt lat="44.71855" lon="4.15539">
        <ele>964</ele>
        <time>2022-06-10T11:06:43Z</time>
      </trkpt>
      <trkpt lat="44.71851" lon="4.15553">
        <ele>963.3</ele>
        <time>2022-06-10T11:06:44Z</time>
      </trkpt>
      <trkpt lat="44.71844" lon="4.15565">
        <ele>962.5</ele>
        <time>2022-06-10T11:06:45Z</time>
      </trkpt>
      <trkpt lat="44.71835" lon="4.15574">
        <ele>961.7</ele>
        <time>2022-06-10T11:06:46Z</time>
      </trkpt>
      <trkpt lat="44.71825" lon="4.1558">
        <ele>960.8</ele>
        <time>2022-06-10T11:06:47Z</time>
      </trkpt>
      <trkpt lat="44.71813" lon="4.15581">
        <ele>960</ele>
        <time>2022-06-10T11:06:48Z</time>
      </trkpt>
      <trkpt lat="44.71801" lon="4.15581">
        <ele>959.3</ele>
        <time>2022-06-10T11:06:49Z</time>
      </trkpt>
      <trkpt lat="44.71791" lon="4.15582">
        <ele>958.8</ele>
        <time>2022-06-10T11:06:50Z</time>
      </trkpt>
      <trkpt lat="44.71782" lon="4.15584">
        <ele>958.5</ele>
        <time>2022-06-10T11:06:51Z</time>
      </trkpt>
      <trkpt lat="44.71774" lon="4.15585">
        <ele>958.3</ele>
        <time>2022-06-10T11:06:52Z</time>
      </trkpt>
      <trkpt lat="44.71768" lon="4.15587">
        <ele>958.1</ele>
        <time>2022-06-10T11:06:53Z</time>
      </trkpt>
      <trkpt lat="44.71764" lon="4.1559">
        <ele>958</ele>
        <time>2022-06-10T11:06:54Z</time>
      </trkpt>
      <trkpt lat="44.71759" lon="4.15593">
        <ele>957.8</ele>
        <time>2022-06-10T11:06:55Z</time>
      </trkpt>
      <trkpt lat="44.71756" lon="4.15597">
        <ele>957.5</ele>
        <time>2022-06-10T11:06:56Z</time>
      </trkpt>
      <trkpt lat="44.71752" lon="4.15601">
        <ele>957.3</ele>
        <time>2022-06-10T11:06:57Z</time>
      </trkpt>
      <trkpt lat="44.71749" lon="4.15606">
        <ele>956.9</ele>
        <time>2022-06-10T11:06:58Z</time>
      </trkpt>
      <trkpt lat="44.71747" lon="4.15609">
        <ele>956.6</ele>
        <time>2022-06-10T11:06:59Z</time>
      </trkpt>
      <trkpt lat="44.71745" lon="4.15612">
        <ele>956.3</ele>
        <time>2022-06-10T11:07:00Z</time>
      </trkpt>
      <trkpt lat="44.71742" lon="4.15615">
        <ele>956</ele>
        <time>2022-06-10T11:07:01Z</time>
      </trkpt>
      <trkpt lat="44.71739" lon="4.15616">
        <ele>955.7</ele>
        <time>2022-06-10T11:07:02Z</time>
      </trkpt>
      <trkpt lat="44.71738" lon="4.15616">
        <ele>955.6</ele>
        <time>2022-06-10T11:07:03Z</time>
      </trkpt>
      <trkpt lat="44.71736" lon="4.15615">
        <ele>955.4</ele>
        <time>2022-06-10T11:07:04Z</time>
      </trkpt>
      <trkpt lat="44.71734" lon="4.15614">
        <ele>955.2</ele>
        <time>2022-06-10T11:07:05Z</time>
      </trkpt>
      <trkpt lat="44.71731" lon="4.15612">
        <ele>955</ele>
        <time>2022-06-10T11:07:07Z</time>
      </trkpt>
      <trkpt lat="44.71729" lon="4.15609">
        <ele>954.7</ele>
        <time>2022-06-10T11:07:08Z</time>
      </trkpt>
      <trkpt lat="44.71729" lon="4.15608">
        <ele>954.6</ele>
        <time>2022-06-10T11:07:09Z</time>
      </trkpt>
      <trkpt lat="44.71727" lon="4.15606">
        <ele>954.4</ele>
        <time>2022-06-10T11:07:10Z</time>
      </trkpt>
      <trkpt lat="44.71725" lon="4.15606">
        <ele>954.3</ele>
        <time>2022-06-10T11:07:12Z</time>
      </trkpt>
      <trkpt lat="44.71725" lon="4.15607">
        <ele>954.2</ele>
        <time>2022-06-10T11:07:13Z</time>
      </trkpt>
      <trkpt lat="44.71726" lon="4.15606">
        <ele>954.2</ele>
        <time>2022-06-10T11:07:14Z</time>
      </trkpt>
      <trkpt lat="44.71726" lon="4.15607">
        <ele>954.1</ele>
        <time>2022-06-10T11:07:15Z</time>
      </trkpt>
      <trkpt lat="44.71726" lon="4.15608">
        <ele>954</ele>
        <time>2022-06-10T11:07:17Z</time>
      </trkpt>
      <trkpt lat="44.71726" lon="4.15608">
        <ele>954</ele>
        <time>2022-06-10T11:07:18Z</time>
      </trkpt>
      <trkpt lat="44.71726" lon="4.15609">
        <ele>954</ele>
        <time>2022-06-10T11:07:19Z</time>
      </trkpt>
      <trkpt lat="44.71727" lon="4.15609">
        <ele>953.9</ele>
        <time>2022-06-10T11:07:20Z</time>
      </trkpt>
      <trkpt lat="44.71727" lon="4.15609">
        <ele>953.9</ele>
        <time>2022-06-10T11:07:21Z</time>
      </trkpt>
      <trkpt lat="44.71728" lon="4.15609">
        <ele>953.8</ele>
        <time>2022-06-10T11:07:22Z</time>
      </trkpt>
      <trkpt lat="44.71729" lon="4.15609">
        <ele>953.7</ele>
        <time>2022-06-10T11:07:24Z</time>
      </trkpt>
      <trkpt lat="44.71729" lon="4.15609">
        <ele>953.7</ele>
        <time>2022-06-10T11:07:25Z</time>
      </trkpt>
      <trkpt lat="44.7173" lon="4.15609">
        <ele>953.7</ele>
        <time>2022-06-10T11:07:26Z</time>
      </trkpt>
      <trkpt lat="44.7173" lon="4.15609">
        <ele>953.7</ele>
        <time>2022-06-10T11:07:27Z</time>
      </trkpt>
      <trkpt lat="44.7173" lon="4.15609">
        <ele>953.6</ele>
        <time>2022-06-10T11:07:28Z</time>
      </trkpt>
      <trkpt lat="44.71731" lon="4.15609">
        <ele>953.5</ele>
        <time>2022-06-10T11:07:29Z</time>
      </trkpt>
      <trkpt lat="44.71732" lon="4.1561">
        <ele>953.4</ele>
        <time>2022-06-10T11:07:30Z</time>
      </trkpt>
      <trkpt lat="44.71734" lon="4.15611">
        <ele>953.3</ele>
        <time>2022-06-10T11:07:31Z</time>
      </trkpt>
      <trkpt lat="44.71735" lon="4.15612">
        <ele>953.2</ele>
        <time>2022-06-10T11:07:32Z</time>
      </trkpt>
      <trkpt lat="44.71736" lon="4.15613">
        <ele>953</ele>
        <time>2022-06-10T11:07:33Z</time>
      </trkpt>
      <trkpt lat="44.71738" lon="4.15613">
        <ele>952.8</ele>
        <time>2022-06-10T11:07:35Z</time>
      </trkpt>
      <trkpt lat="44.71739" lon="4.15614">
        <ele>952.7</ele>
        <time>2022-06-10T11:07:36Z</time>
      </trkpt>
      <trkpt lat="44.7174" lon="4.15615">
        <ele>952.6</ele>
        <time>2022-06-10T11:07:37Z</time>
      </trkpt>
      <trkpt lat="44.71741" lon="4.15616">
        <ele>952.5</ele>
        <time>2022-06-10T11:07:38Z</time>
      </trkpt>
      <trkpt lat="44.71743" lon="4.15617">
        <ele>952.4</ele>
        <time>2022-06-10T11:07:40Z</time>
      </trkpt>
      <trkpt lat="44.71743" lon="4.15617">
        <ele>952.4</ele>
        <time>2022-06-10T11:07:41Z</time>
      </trkpt>
      <trkpt lat="44.71743" lon="4.15617">
        <ele>952.3</ele>
        <time>2022-06-10T11:07:42Z</time>
      </trkpt>
      <trkpt lat="44.71742" lon="4.15617">
        <ele>952.3</ele>
        <time>2022-06-10T11:07:43Z</time>
      </trkpt>
      <trkpt lat="44.71742" lon="4.15616">
        <ele>952.3</ele>
        <time>2022-06-10T11:07:44Z</time>
      </trkpt>
      <trkpt lat="44.71742" lon="4.15616">
        <ele>952.3</ele>
        <time>2022-06-10T11:07:45Z</time>
      </trkpt>
      <trkpt lat="44.71742" lon="4.15615">
        <ele>952.2</ele>
        <time>2022-06-10T11:07:46Z</time>
      </trkpt>
      <trkpt lat="44.71742" lon="4.15615">
        <ele>952.2</ele>
        <time>2022-06-10T11:07:47Z</time>
      </trkpt>
      <trkpt lat="44.71742" lon="4.15615">
        <ele>952.2</ele>
        <time>2022-06-10T11:07:48Z</time>
      </trkpt>
      <trkpt lat="44.71741" lon="4.15614">
        <ele>952.1</ele>
        <time>2022-06-10T11:07:49Z</time>
      </trkpt>
      <trkpt lat="44.71741" lon="4.15614">
        <ele>952.1</ele>
        <time>2022-06-10T11:07:50Z</time>
      </trkpt>
      <trkpt lat="44.71741" lon="4.15614">
        <ele>952.1</ele>
        <time>2022-06-10T11:07:51Z</time>
      </trkpt>
      <trkpt lat="44.71741" lon="4.15613">
        <ele>952.1</ele>
        <time>2022-06-10T11:07:52Z</time>
      </trkpt>
      <trkpt lat="44.71741" lon="4.15613">
        <ele>952</ele>
        <time>2022-06-10T11:07:53Z</time>
      </trkpt>
      <trkpt lat="44.7174" lon="4.15613">
        <ele>952</ele>
        <time>2022-06-10T11:07:54Z</time>
      </trkpt>
      <trkpt lat="44.7174" lon="4.15612">
        <ele>952</ele>
        <time>2022-06-10T11:07:55Z</time>
      </trkpt>
      <trkpt lat="44.7174" lon="4.15612">
        <ele>951.9</ele>
        <time>2022-06-10T11:07:56Z</time>
      </trkpt>
      <trkpt lat="44.7174" lon="4.15611">
        <ele>951.9</ele>
        <time>2022-06-10T11:07:57Z</time>
      </trkpt>
      <trkpt lat="44.7174" lon="4.15611">
        <ele>951.9</ele>
        <time>2022-06-10T11:07:58Z</time>
      </trkpt>
      <trkpt lat="44.7174" lon="4.15611">
        <ele>951.9</ele>
        <time>2022-06-10T11:08:41Z</time>
      </trkpt>
      <trkpt lat="44.71739" lon="4.1561">
        <ele>951.8</ele>
        <time>2022-06-10T11:08:43Z</time>
      </trkpt>
      <trkpt lat="44.71739" lon="4.1561">
        <ele>951.8</ele>
        <time>2022-06-10T11:08:44Z</time>
      </trkpt>
      <trkpt lat="44.71739" lon="4.1561">
        <ele>951.8</ele>
        <time>2022-06-10T11:08:45Z</time>
      </trkpt>
      <trkpt lat="44.71739" lon="4.15609">
        <ele>951.7</ele>
        <time>2022-06-10T11:08:46Z</time>
      </trkpt>
      <trkpt lat="44.71739" lon="4.15609">
        <ele>951.7</ele>
        <time>2022-06-10T11:08:47Z</time>
      </trkpt>
      <trkpt lat="44.71739" lon="4.15609">
        <ele>951.7</ele>
        <time>2022-06-10T11:08:48Z</time>
      </trkpt>
      <trkpt lat="44.71738" lon="4.15608">
        <ele>951.7</ele>
        <time>2022-06-10T11:08:49Z</time>
      </trkpt>
      <trkpt lat="44.71738" lon="4.15608">
        <ele>951.6</ele>
        <time>2022-06-10T11:08:50Z</time>
      </trkpt>
      <trkpt lat="44.71738" lon="4.15607">
        <ele>951.6</ele>
        <time>2022-06-10T11:08:51Z</time>
      </trkpt>
      <trkpt lat="44.71738" lon="4.15607">
        <ele>951.6</ele>
        <time>2022-06-10T11:08:52Z</time>
      </trkpt>
      <trkpt lat="44.71738" lon="4.15607">
        <ele>951.5</ele>
        <time>2022-06-10T11:08:53Z</time>
      </trkpt>
      <trkpt lat="44.71737" lon="4.15606">
        <ele>951.5</ele>
        <time>2022-06-10T11:08:54Z</time>
      </trkpt>
      <trkpt lat="44.71737" lon="4.15606">
        <ele>951.5</ele>
        <time>2022-06-10T11:13:57Z</time>
      </trkpt>
      <trkpt lat="44.71737" lon="4.15606">
        <ele>951.5</ele>
        <time>2022-06-10T11:13:58Z</time>
      </trkpt>
      <trkpt lat="44.71737" lon="4.15605">
        <ele>951.4</ele>
        <time>2022-06-10T11:13:59Z</time>
      </trkpt>
      <trkpt lat="44.71737" lon="4.15597">
        <ele>950.9</ele>
        <time>2022-06-10T11:14:00Z</time>
      </trkpt>
      <trkpt lat="44.71739" lon="4.15592">
        <ele>950.5</ele>
        <time>2022-06-10T11:14:01Z</time>
      </trkpt>
      <trkpt lat="44.71748" lon="4.15585">
        <ele>949.6</ele>
        <time>2022-06-10T11:14:03Z</time>
      </trkpt>
      <trkpt lat="44.71755" lon="4.15581">
        <ele>949</ele>
        <time>2022-06-10T11:14:04Z</time>
      </trkpt>
      <trkpt lat="44.71762" lon="4.15578">
        <ele>948.3</ele>
        <time>2022-06-10T11:14:05Z</time>
      </trkpt>
      <trkpt lat="44.7177" lon="4.15573">
        <ele>947.6</ele>
        <time>2022-06-10T11:14:06Z</time>
      </trkpt>
      <trkpt lat="44.71777" lon="4.15568">
        <ele>946.8</ele>
        <time>2022-06-10T11:14:07Z</time>
      </trkpt>
      <trkpt lat="44.71785" lon="4.15563">
        <ele>946</ele>
        <time>2022-06-10T11:14:08Z</time>
      </trkpt>
      <trkpt lat="44.71794" lon="4.15557">
        <ele>945.2</ele>
        <time>2022-06-10T11:14:09Z</time>
      </trkpt>
      <trkpt lat="44.71802" lon="4.15552">
        <ele>944.4</ele>
        <time>2022-06-10T11:14:10Z</time>
      </trkpt>
      <trkpt lat="44.7181" lon="4.15547">
        <ele>943.6</ele>
        <time>2022-06-10T11:14:11Z</time>
      </trkpt>
      <trkpt lat="44.71817" lon="4.1554">
        <ele>942.8</ele>
        <time>2022-06-10T11:14:12Z</time>
      </trkpt>
      <trkpt lat="44.71823" lon="4.1553">
        <ele>942</ele>
        <time>2022-06-10T11:14:13Z</time>
      </trkpt>
      <trkpt lat="44.71825" lon="4.15519">
        <ele>941.3</ele>
        <time>2022-06-10T11:14:14Z</time>
      </trkpt>
      <trkpt lat="44.71824" lon="4.15506">
        <ele>940.5</ele>
        <time>2022-06-10T11:14:15Z</time>
      </trkpt>
      <trkpt lat="44.71824" lon="4.15492">
        <ele>939.6</ele>
        <time>2022-06-10T11:14:16Z</time>
      </trkpt>
      <trkpt lat="44.71823" lon="4.1548">
        <ele>938.8</ele>
        <time>2022-06-10T11:14:17Z</time>
      </trkpt>
      <trkpt lat="44.71822" lon="4.15467">
        <ele>938</ele>
        <time>2022-06-10T11:14:18Z</time>
      </trkpt>
      <trkpt lat="44.71821" lon="4.15454">
        <ele>937.2</ele>
        <time>2022-06-10T11:14:19Z</time>
      </trkpt>
      <trkpt lat="44.7182" lon="4.1544">
        <ele>936.3</ele>
        <time>2022-06-10T11:14:20Z</time>
      </trkpt>
      <trkpt lat="44.71819" lon="4.15427">
        <ele>935.4</ele>
        <time>2022-06-10T11:14:21Z</time>
      </trkpt>
      <trkpt lat="44.71819" lon="4.15413">
        <ele>934.6</ele>
        <time>2022-06-10T11:14:22Z</time>
      </trkpt>
      <trkpt lat="44.71819" lon="4.15399">
        <ele>933.7</ele>
        <time>2022-06-10T11:14:23Z</time>
      </trkpt>
      <trkpt lat="44.71821" lon="4.15386">
        <ele>932.9</ele>
        <time>2022-06-10T11:14:24Z</time>
      </trkpt>
      <trkpt lat="44.71826" lon="4.15375">
        <ele>932</ele>
        <time>2022-06-10T11:14:25Z</time>
      </trkpt>
      <trkpt lat="44.71832" lon="4.15364">
        <ele>931.1</ele>
        <time>2022-06-10T11:14:26Z</time>
      </trkpt>
      <trkpt lat="44.71839" lon="4.15353">
        <ele>930.2</ele>
        <time>2022-06-10T11:14:27Z</time>
      </trkpt>
      <trkpt lat="44.71846" lon="4.15344">
        <ele>929.4</ele>
        <time>2022-06-10T11:14:28Z</time>
      </trkpt>
      <trkpt lat="44.71854" lon="4.15336">
        <ele>928.5</ele>
        <time>2022-06-10T11:14:29Z</time>
      </trkpt>
      <trkpt lat="44.71863" lon="4.1533">
        <ele>927.6</ele>
        <time>2022-06-10T11:14:30Z</time>
      </trkpt>
      <trkpt lat="44.71872" lon="4.15323">
        <ele>926.7</ele>
        <time>2022-06-10T11:14:31Z</time>
      </trkpt>
      <trkpt lat="44.7188" lon="4.15314">
        <ele>925.8</ele>
        <time>2022-06-10T11:14:32Z</time>
      </trkpt>
      <trkpt lat="44.71886" lon="4.15304">
        <ele>925</ele>
        <time>2022-06-10T11:14:33Z</time>
      </trkpt>
      <trkpt lat="44.71889" lon="4.15292">
        <ele>924.2</ele>
        <time>2022-06-10T11:14:34Z</time>
      </trkpt>
      <trkpt lat="44.7189" lon="4.15278">
        <ele>923.3</ele>
        <time>2022-06-10T11:14:35Z</time>
      </trkpt>
      <trkpt lat="44.7189" lon="4.15264">
        <ele>922.4</ele>
        <time>2022-06-10T11:14:36Z</time>
      </trkpt>
      <trkpt lat="44.71889" lon="4.1525">
        <ele>921.5</ele>
        <time>2022-06-10T11:14:37Z</time>
      </trkpt>
      <trkpt lat="44.71887" lon="4.15236">
        <ele>920.6</ele>
        <time>2022-06-10T11:14:38Z</time>
      </trkpt>
      <trkpt lat="44.71885" lon="4.15223">
        <ele>919.7</ele>
        <time>2022-06-10T11:14:39Z</time>
      </trkpt>
      <trkpt lat="44.71883" lon="4.15208">
        <ele>918.8</ele>
        <time>2022-06-10T11:14:40Z</time>
      </trkpt>
      <trkpt lat="44.71882" lon="4.15194">
        <ele>917.9</ele>
        <time>2022-06-10T11:14:41Z</time>
      </trkpt>
      <trkpt lat="44.71881" lon="4.15179">
        <ele>917</ele>
        <time>2022-06-10T11:14:42Z</time>
      </trkpt>
      <trkpt lat="44.7188" lon="4.15164">
        <ele>916</ele>
        <time>2022-06-10T11:14:43Z</time>
      </trkpt>
      <trkpt lat="44.7188" lon="4.15149">
        <ele>915.1</ele>
        <time>2022-06-10T11:14:44Z</time>
      </trkpt>
      <trkpt lat="44.7188" lon="4.15134">
        <ele>914.1</ele>
        <time>2022-06-10T11:14:45Z</time>
      </trkpt>
      <trkpt lat="44.71878" lon="4.15119">
        <ele>913.2</ele>
        <time>2022-06-10T11:14:46Z</time>
      </trkpt>
      <trkpt lat="44.71874" lon="4.15104">
        <ele>912.2</ele>
        <time>2022-06-10T11:14:47Z</time>
      </trkpt>
      <trkpt lat="44.7187" lon="4.15089">
        <ele>911.2</ele>
        <time>2022-06-10T11:14:48Z</time>
      </trkpt>
      <trkpt lat="44.71867" lon="4.15074">
        <ele>910.2</ele>
        <time>2022-06-10T11:14:49Z</time>
      </trkpt>
      <trkpt lat="44.71864" lon="4.15058">
        <ele>909.1</ele>
        <time>2022-06-10T11:14:50Z</time>
      </trkpt>
      <trkpt lat="44.7186" lon="4.15043">
        <ele>908.1</ele>
        <time>2022-06-10T11:14:51Z</time>
      </trkpt>
      <trkpt lat="44.71855" lon="4.15028">
        <ele>907.1</ele>
        <time>2022-06-10T11:14:52Z</time>
      </trkpt>
      <trkpt lat="44.71849" lon="4.15014">
        <ele>906</ele>
        <time>2022-06-10T11:14:53Z</time>
      </trkpt>
      <trkpt lat="44.71842" lon="4.15">
        <ele>905</ele>
        <time>2022-06-10T11:14:54Z</time>
      </trkpt>
      <trkpt lat="44.71836" lon="4.14987">
        <ele>903.9</ele>
        <time>2022-06-10T11:14:55Z</time>
      </trkpt>
      <trkpt lat="44.7183" lon="4.14972">
        <ele>902.9</ele>
        <time>2022-06-10T11:14:56Z</time>
      </trkpt>
      <trkpt lat="44.71825" lon="4.14957">
        <ele>901.8</ele>
        <time>2022-06-10T11:14:57Z</time>
      </trkpt>
      <trkpt lat="44.71821" lon="4.14941">
        <ele>900.7</ele>
        <time>2022-06-10T11:14:58Z</time>
      </trkpt>
      <trkpt lat="44.71818" lon="4.14925">
        <ele>899.7</ele>
        <time>2022-06-10T11:14:59Z</time>
      </trkpt>
      <trkpt lat="44.71815" lon="4.14911">
        <ele>898.8</ele>
        <time>2022-06-10T11:15:00Z</time>
      </trkpt>
      <trkpt lat="44.71814" lon="4.14897">
        <ele>897.9</ele>
        <time>2022-06-10T11:15:01Z</time>
      </trkpt>
      <trkpt lat="44.71815" lon="4.14884">
        <ele>897.1</ele>
        <time>2022-06-10T11:15:02Z</time>
      </trkpt>
      <trkpt lat="44.71815" lon="4.14872">
        <ele>896.3</ele>
        <time>2022-06-10T11:15:03Z</time>
      </trkpt>
      <trkpt lat="44.71813" lon="4.14862">
        <ele>895.6</ele>
        <time>2022-06-10T11:15:04Z</time>
      </trkpt>
      <trkpt lat="44.71808" lon="4.14853">
        <ele>894.9</ele>
        <time>2022-06-10T11:15:05Z</time>
      </trkpt>
      <trkpt lat="44.71801" lon="4.14844">
        <ele>894.1</ele>
        <time>2022-06-10T11:15:06Z</time>
      </trkpt>
      <trkpt lat="44.71794" lon="4.14836">
        <ele>893.3</ele>
        <time>2022-06-10T11:15:07Z</time>
      </trkpt>
      <trkpt lat="44.71786" lon="4.14829">
        <ele>892.4</ele>
        <time>2022-06-10T11:15:08Z</time>
      </trkpt>
      <trkpt lat="44.71778" lon="4.14821">
        <ele>891.6</ele>
        <time>2022-06-10T11:15:09Z</time>
      </trkpt>
      <trkpt lat="44.71769" lon="4.14814">
        <ele>890.7</ele>
        <time>2022-06-10T11:15:10Z</time>
      </trkpt>
      <trkpt lat="44.71761" lon="4.14807">
        <ele>889.8</ele>
        <time>2022-06-10T11:15:11Z</time>
      </trkpt>
      <trkpt lat="44.71753" lon="4.14802">
        <ele>889</ele>
        <time>2022-06-10T11:15:12Z</time>
      </trkpt>
      <trkpt lat="44.71747" lon="4.14796">
        <ele>888.4</ele>
        <time>2022-06-10T11:15:13Z</time>
      </trkpt>
      <trkpt lat="44.71744" lon="4.14789">
        <ele>887.9</ele>
        <time>2022-06-10T11:15:14Z</time>
      </trkpt>
      <trkpt lat="44.71744" lon="4.14782">
        <ele>887.4</ele>
        <time>2022-06-10T11:15:15Z</time>
      </trkpt>
      <trkpt lat="44.71747" lon="4.14775">
        <ele>886.9</ele>
        <time>2022-06-10T11:15:16Z</time>
      </trkpt>
      <trkpt lat="44.71752" lon="4.1477">
        <ele>886.4</ele>
        <time>2022-06-10T11:15:17Z</time>
      </trkpt>
      <trkpt lat="44.71759" lon="4.14769">
        <ele>885.7</ele>
        <time>2022-06-10T11:15:18Z</time>
      </trkpt>
      <trkpt lat="44.71767" lon="4.1477">
        <ele>885.1</ele>
        <time>2022-06-10T11:15:19Z</time>
      </trkpt>
      <trkpt lat="44.71774" lon="4.14774">
        <ele>884.4</ele>
        <time>2022-06-10T11:15:20Z</time>
      </trkpt>
      <trkpt lat="44.71781" lon="4.14778">
        <ele>883.7</ele>
        <time>2022-06-10T11:15:21Z</time>
      </trkpt>
      <trkpt lat="44.71788" lon="4.14783">
        <ele>882.9</ele>
        <time>2022-06-10T11:15:22Z</time>
      </trkpt>
      <trkpt lat="44.71796" lon="4.14787">
        <ele>882.2</ele>
        <time>2022-06-10T11:15:23Z</time>
      </trkpt>
      <trkpt lat="44.71804" lon="4.14792">
        <ele>881.4</ele>
        <time>2022-06-10T11:15:24Z</time>
      </trkpt>
      <trkpt lat="44.71811" lon="4.14799">
        <ele>880.7</ele>
        <time>2022-06-10T11:15:25Z</time>
      </trkpt>
      <trkpt lat="44.71819" lon="4.14807">
        <ele>879.8</ele>
        <time>2022-06-10T11:15:26Z</time>
      </trkpt>
      <trkpt lat="44.71826" lon="4.14814">
        <ele>879.1</ele>
        <time>2022-06-10T11:15:27Z</time>
      </trkpt>
      <trkpt lat="44.71833" lon="4.14822">
        <ele>878.3</ele>
        <time>2022-06-10T11:15:28Z</time>
      </trkpt>
      <trkpt lat="44.71841" lon="4.14829">
        <ele>877.4</ele>
        <time>2022-06-10T11:15:29Z</time>
      </trkpt>
      <trkpt lat="44.71849" lon="4.14836">
        <ele>876.6</ele>
        <time>2022-06-10T11:15:30Z</time>
      </trkpt>
      <trkpt lat="44.71858" lon="4.14842">
        <ele>875.7</ele>
        <time>2022-06-10T11:15:31Z</time>
      </trkpt>
      <trkpt lat="44.71866" lon="4.14848">
        <ele>874.9</ele>
        <time>2022-06-10T11:15:32Z</time>
      </trkpt>
      <trkpt lat="44.71872" lon="4.14852">
        <ele>874.3</ele>
        <time>2022-06-10T11:15:33Z</time>
      </trkpt>
      <trkpt lat="44.71877" lon="4.14855">
        <ele>873.8</ele>
        <time>2022-06-10T11:15:34Z</time>
      </trkpt>
      <trkpt lat="44.71882" lon="4.14858">
        <ele>873.4</ele>
        <time>2022-06-10T11:15:35Z</time>
      </trkpt>
      <trkpt lat="44.71886" lon="4.14859">
        <ele>873.2</ele>
        <time>2022-06-10T11:15:36Z</time>
      </trkpt>
      <trkpt lat="44.71891" lon="4.1486">
        <ele>873</ele>
        <time>2022-06-10T11:15:37Z</time>
      </trkpt>
      <trkpt lat="44.71896" lon="4.14861">
        <ele>872.7</ele>
        <time>2022-06-10T11:15:38Z</time>
      </trkpt>
      <trkpt lat="44.71902" lon="4.14863">
        <ele>872.4</ele>
        <time>2022-06-10T11:15:39Z</time>
      </trkpt>
      <trkpt lat="44.71907" lon="4.14864">
        <ele>872.1</ele>
        <time>2022-06-10T11:15:40Z</time>
      </trkpt>
      <trkpt lat="44.71912" lon="4.14866">
        <ele>871.9</ele>
        <time>2022-06-10T11:15:41Z</time>
      </trkpt>
      <trkpt lat="44.71917" lon="4.14866">
        <ele>871.6</ele>
        <time>2022-06-10T11:15:42Z</time>
      </trkpt>
      <trkpt lat="44.71921" lon="4.14864">
        <ele>871.4</ele>
        <time>2022-06-10T11:15:43Z</time>
      </trkpt>
      <trkpt lat="44.71923" lon="4.14862">
        <ele>871.3</ele>
        <time>2022-06-10T11:15:44Z</time>
      </trkpt>
      <trkpt lat="44.71924" lon="4.14861">
        <ele>871.2</ele>
        <time>2022-06-10T11:15:45Z</time>
      </trkpt>
      <trkpt lat="44.71925" lon="4.14861">
        <ele>871.1</ele>
        <time>2022-06-10T11:15:46Z</time>
      </trkpt>
      <trkpt lat="44.71927" lon="4.14861">
        <ele>871.1</ele>
        <time>2022-06-10T11:15:47Z</time>
      </trkpt>
      <trkpt lat="44.7193" lon="4.14861">
        <ele>870.9</ele>
        <time>2022-06-10T11:15:48Z</time>
      </trkpt>
      <trkpt lat="44.71934" lon="4.1486">
        <ele>870.7</ele>
        <time>2022-06-10T11:15:49Z</time>
      </trkpt>
      <trkpt lat="44.71936" lon="4.14859">
        <ele>870.6</ele>
        <time>2022-06-10T11:15:50Z</time>
      </trkpt>
      <trkpt lat="44.7194" lon="4.14857">
        <ele>870.4</ele>
        <time>2022-06-10T11:15:52Z</time>
      </trkpt>
      <trkpt lat="44.71947" lon="4.14855">
        <ele>870.1</ele>
        <time>2022-06-10T11:15:53Z</time>
      </trkpt>
      <trkpt lat="44.71953" lon="4.14853">
        <ele>869.9</ele>
        <time>2022-06-10T11:15:54Z</time>
      </trkpt>
      <trkpt lat="44.71958" lon="4.14851">
        <ele>869.7</ele>
        <time>2022-06-10T11:15:55Z</time>
      </trkpt>
      <trkpt lat="44.71964" lon="4.14848">
        <ele>869.6</ele>
        <time>2022-06-10T11:15:56Z</time>
      </trkpt>
      <trkpt lat="44.71969" lon="4.14844">
        <ele>869.4</ele>
        <time>2022-06-10T11:15:57Z</time>
      </trkpt>
      <trkpt lat="44.71976" lon="4.14841">
        <ele>869.1</ele>
        <time>2022-06-10T11:15:58Z</time>
      </trkpt>
      <trkpt lat="44.71983" lon="4.14839">
        <ele>868.9</ele>
        <time>2022-06-10T11:15:59Z</time>
      </trkpt>
      <trkpt lat="44.7199" lon="4.14837">
        <ele>868.6</ele>
        <time>2022-06-10T11:16:00Z</time>
      </trkpt>
      <trkpt lat="44.71997" lon="4.14836">
        <ele>868.3</ele>
        <time>2022-06-10T11:16:01Z</time>
      </trkpt>
      <trkpt lat="44.72005" lon="4.14837">
        <ele>867.9</ele>
        <time>2022-06-10T11:16:02Z</time>
      </trkpt>
      <trkpt lat="44.72013" lon="4.1484">
        <ele>867.5</ele>
        <time>2022-06-10T11:16:03Z</time>
      </trkpt>
      <trkpt lat="44.72021" lon="4.14846">
        <ele>867.1</ele>
        <time>2022-06-10T11:16:04Z</time>
      </trkpt>
      <trkpt lat="44.72028" lon="4.14853">
        <ele>866.8</ele>
        <time>2022-06-10T11:16:05Z</time>
      </trkpt>
      <trkpt lat="44.72034" lon="4.1486">
        <ele>866.6</ele>
        <time>2022-06-10T11:16:06Z</time>
      </trkpt>
      <trkpt lat="44.7204" lon="4.14865">
        <ele>866.4</ele>
        <time>2022-06-10T11:16:07Z</time>
      </trkpt>
      <trkpt lat="44.72046" lon="4.14867">
        <ele>866.2</ele>
        <time>2022-06-10T11:16:08Z</time>
      </trkpt>
      <trkpt lat="44.72053" lon="4.14867">
        <ele>866</ele>
        <time>2022-06-10T11:16:09Z</time>
      </trkpt>
      <trkpt lat="44.72059" lon="4.14863">
        <ele>865.7</ele>
        <time>2022-06-10T11:16:10Z</time>
      </trkpt>
      <trkpt lat="44.72066" lon="4.14859">
        <ele>865.6</ele>
        <time>2022-06-10T11:16:11Z</time>
      </trkpt>
      <trkpt lat="44.72071" lon="4.14854">
        <ele>865.4</ele>
        <time>2022-06-10T11:16:12Z</time>
      </trkpt>
      <trkpt lat="44.72077" lon="4.14849">
        <ele>865.2</ele>
        <time>2022-06-10T11:16:13Z</time>
      </trkpt>
      <trkpt lat="44.72081" lon="4.14845">
        <ele>865.1</ele>
        <time>2022-06-10T11:16:14Z</time>
      </trkpt>
      <trkpt lat="44.72085" lon="4.14842">
        <ele>864.9</ele>
        <time>2022-06-10T11:16:15Z</time>
      </trkpt>
      <trkpt lat="44.7209" lon="4.1484">
        <ele>864.8</ele>
        <time>2022-06-10T11:16:16Z</time>
      </trkpt>
      <trkpt lat="44.72091" lon="4.1484">
        <ele>864.8</ele>
        <time>2022-06-10T11:16:17Z</time>
      </trkpt>
      <trkpt lat="44.72095" lon="4.14839">
        <ele>864.7</ele>
        <time>2022-06-10T11:16:18Z</time>
      </trkpt>
      <trkpt lat="44.72098" lon="4.14837">
        <ele>864.6</ele>
        <time>2022-06-10T11:16:19Z</time>
      </trkpt>
      <trkpt lat="44.72101" lon="4.14837">
        <ele>864.6</ele>
        <time>2022-06-10T11:16:20Z</time>
      </trkpt>
      <trkpt lat="44.72104" lon="4.14837">
        <ele>864.5</ele>
        <time>2022-06-10T11:16:21Z</time>
      </trkpt>
      <trkpt lat="44.72107" lon="4.14837">
        <ele>864.5</ele>
        <time>2022-06-10T11:16:22Z</time>
      </trkpt>
      <trkpt lat="44.72111" lon="4.14837">
        <ele>864.5</ele>
        <time>2022-06-10T11:16:23Z</time>
      </trkpt>
      <trkpt lat="44.72115" lon="4.14839">
        <ele>864.5</ele>
        <time>2022-06-10T11:16:24Z</time>
      </trkpt>
      <trkpt lat="44.72119" lon="4.14842">
        <ele>864.4</ele>
        <time>2022-06-10T11:16:25Z</time>
      </trkpt>
      <trkpt lat="44.72124" lon="4.14844">
        <ele>864.4</ele>
        <time>2022-06-10T11:16:26Z</time>
      </trkpt>
      <trkpt lat="44.72128" lon="4.14846">
        <ele>864.3</ele>
        <time>2022-06-10T11:16:27Z</time>
      </trkpt>
      <trkpt lat="44.72132" lon="4.14848">
        <ele>864.2</ele>
        <time>2022-06-10T11:16:28Z</time>
      </trkpt>
      <trkpt lat="44.72136" lon="4.14851">
        <ele>864.1</ele>
        <time>2022-06-10T11:16:29Z</time>
      </trkpt>
      <trkpt lat="44.7214" lon="4.14854">
        <ele>864</ele>
        <time>2022-06-10T11:16:30Z</time>
      </trkpt>
      <trkpt lat="44.72144" lon="4.14857">
        <ele>863.9</ele>
        <time>2022-06-10T11:16:31Z</time>
      </trkpt>
      <trkpt lat="44.72148" lon="4.1486">
        <ele>863.9</ele>
        <time>2022-06-10T11:16:32Z</time>
      </trkpt>
      <trkpt lat="44.72151" lon="4.14863">
        <ele>863.8</ele>
        <time>2022-06-10T11:16:33Z</time>
      </trkpt>
      <trkpt lat="44.72152" lon="4.14864">
        <ele>863.8</ele>
        <time>2022-06-10T11:16:34Z</time>
      </trkpt>
      <trkpt lat="44.72153" lon="4.14866">
        <ele>863.8</ele>
        <time>2022-06-10T11:16:35Z</time>
      </trkpt>
      <trkpt lat="44.72154" lon="4.14866">
        <ele>863.8</ele>
        <time>2022-06-10T11:16:37Z</time>
      </trkpt>
      <trkpt lat="44.72155" lon="4.14867">
        <ele>863.8</ele>
        <time>2022-06-10T11:16:38Z</time>
      </trkpt>
      <trkpt lat="44.72154" lon="4.14866">
        <ele>863.8</ele>
        <time>2022-06-10T11:16:40Z</time>
      </trkpt>
      <trkpt lat="44.72153" lon="4.14866">
        <ele>863.8</ele>
        <time>2022-06-10T11:16:41Z</time>
      </trkpt>
      <trkpt lat="44.72153" lon="4.14865">
        <ele>863.8</ele>
        <time>2022-06-10T11:16:42Z</time>
      </trkpt>
      <trkpt lat="44.72153" lon="4.14865">
        <ele>863.8</ele>
        <time>2022-06-10T11:16:43Z</time>
      </trkpt>
      <trkpt lat="44.72153" lon="4.14865">
        <ele>863.8</ele>
        <time>2022-06-10T11:16:44Z</time>
      </trkpt>
      <trkpt lat="44.72152" lon="4.14865">
        <ele>863.8</ele>
        <time>2022-06-10T11:16:45Z</time>
      </trkpt>
      <trkpt lat="44.72152" lon="4.14865">
        <ele>863.8</ele>
        <time>2022-06-10T11:16:47Z</time>
      </trkpt>
      <trkpt lat="44.72152" lon="4.14864">
        <ele>863.8</ele>
        <time>2022-06-10T11:16:48Z</time>
      </trkpt>
      <trkpt lat="44.72152" lon="4.14864">
        <ele>863.8</ele>
        <time>2022-06-10T11:16:49Z</time>
      </trkpt>
      <trkpt lat="44.72152" lon="4.14864">
        <ele>863.8</ele>
        <time>2022-06-10T11:16:50Z</time>
      </trkpt>
      <trkpt lat="44.72155" lon="4.14867">
        <ele>863.7</ele>
        <time>2022-06-10T11:17:41Z</time>
      </trkpt>
      <trkpt lat="44.72156" lon="4.14871">
        <ele>863.7</ele>
        <time>2022-06-10T11:17:42Z</time>
      </trkpt>
      <trkpt lat="44.72159" lon="4.14876">
        <ele>863.6</ele>
        <time>2022-06-10T11:17:43Z</time>
      </trkpt>
      <trkpt lat="44.72164" lon="4.14884">
        <ele>863.5</ele>
        <time>2022-06-10T11:17:45Z</time>
      </trkpt>
      <trkpt lat="44.72168" lon="4.1489">
        <ele>863.4</ele>
        <time>2022-06-10T11:17:46Z</time>
      </trkpt>
      <trkpt lat="44.72171" lon="4.14896">
        <ele>863.3</ele>
        <time>2022-06-10T11:17:47Z</time>
      </trkpt>
      <trkpt lat="44.72174" lon="4.14903">
        <ele>863.2</ele>
        <time>2022-06-10T11:17:48Z</time>
      </trkpt>
      <trkpt lat="44.72176" lon="4.1491">
        <ele>863.1</ele>
        <time>2022-06-10T11:17:49Z</time>
      </trkpt>
      <trkpt lat="44.72179" lon="4.14918">
        <ele>863</ele>
        <time>2022-06-10T11:17:50Z</time>
      </trkpt>
      <trkpt lat="44.7218" lon="4.14927">
        <ele>862.9</ele>
        <time>2022-06-10T11:17:51Z</time>
      </trkpt>
      <trkpt lat="44.72181" lon="4.14937">
        <ele>862.7</ele>
        <time>2022-06-10T11:17:52Z</time>
      </trkpt>
      <trkpt lat="44.72182" lon="4.14946">
        <ele>862.6</ele>
        <time>2022-06-10T11:17:53Z</time>
      </trkpt>
      <trkpt lat="44.72183" lon="4.14956">
        <ele>862.5</ele>
        <time>2022-06-10T11:17:54Z</time>
      </trkpt>
      <trkpt lat="44.72186" lon="4.14965">
        <ele>862.3</ele>
        <time>2022-06-10T11:17:55Z</time>
      </trkpt>
      <trkpt lat="44.72191" lon="4.14972">
        <ele>862.2</ele>
        <time>2022-06-10T11:17:56Z</time>
      </trkpt>
      <trkpt lat="44.72197" lon="4.14978">
        <ele>862</ele>
        <time>2022-06-10T11:17:57Z</time>
      </trkpt>
      <trkpt lat="44.72204" lon="4.14983">
        <ele>861.8</ele>
        <time>2022-06-10T11:17:58Z</time>
      </trkpt>
      <trkpt lat="44.72211" lon="4.14988">
        <ele>861.5</ele>
        <time>2022-06-10T11:17:59Z</time>
      </trkpt>
      <trkpt lat="44.72219" lon="4.14992">
        <ele>861.1</ele>
        <time>2022-06-10T11:18:00Z</time>
      </trkpt>
      <trkpt lat="44.72226" lon="4.14995">
        <ele>860.8</ele>
        <time>2022-06-10T11:18:01Z</time>
      </trkpt>
      <trkpt lat="44.72234" lon="4.14999">
        <ele>860.5</ele>
        <time>2022-06-10T11:18:02Z</time>
      </trkpt>
      <trkpt lat="44.72242" lon="4.15002">
        <ele>860.2</ele>
        <time>2022-06-10T11:18:03Z</time>
      </trkpt>
      <trkpt lat="44.7225" lon="4.15005">
        <ele>859.9</ele>
        <time>2022-06-10T11:18:04Z</time>
      </trkpt>
      <trkpt lat="44.72259" lon="4.1501">
        <ele>859.5</ele>
        <time>2022-06-10T11:18:05Z</time>
      </trkpt>
      <trkpt lat="44.72268" lon="4.15015">
        <ele>859.1</ele>
        <time>2022-06-10T11:18:06Z</time>
      </trkpt>
      <trkpt lat="44.72277" lon="4.15021">
        <ele>858.7</ele>
        <time>2022-06-10T11:18:07Z</time>
      </trkpt>
      <trkpt lat="44.72286" lon="4.15027">
        <ele>858.5</ele>
        <time>2022-06-10T11:18:08Z</time>
      </trkpt>
      <trkpt lat="44.72295" lon="4.15032">
        <ele>858.3</ele>
        <time>2022-06-10T11:18:09Z</time>
      </trkpt>
      <trkpt lat="44.72303" lon="4.15035">
        <ele>858.4</ele>
        <time>2022-06-10T11:18:10Z</time>
      </trkpt>
      <trkpt lat="44.72312" lon="4.15037">
        <ele>858.4</ele>
        <time>2022-06-10T11:18:11Z</time>
      </trkpt>
      <trkpt lat="44.7232" lon="4.15036">
        <ele>858.5</ele>
        <time>2022-06-10T11:18:12Z</time>
      </trkpt>
      <trkpt lat="44.72327" lon="4.15033">
        <ele>858.6</ele>
        <time>2022-06-10T11:18:13Z</time>
      </trkpt>
      <trkpt lat="44.72333" lon="4.15029">
        <ele>858.6</ele>
        <time>2022-06-10T11:18:14Z</time>
      </trkpt>
      <trkpt lat="44.72338" lon="4.15023">
        <ele>858.7</ele>
        <time>2022-06-10T11:18:15Z</time>
      </trkpt>
      <trkpt lat="44.7234" lon="4.15014">
        <ele>858.6</ele>
        <time>2022-06-10T11:18:16Z</time>
      </trkpt>
      <trkpt lat="44.7234" lon="4.15005">
        <ele>858.5</ele>
        <time>2022-06-10T11:18:17Z</time>
      </trkpt>
      <trkpt lat="44.72342" lon="4.14997">
        <ele>858.5</ele>
        <time>2022-06-10T11:18:18Z</time>
      </trkpt>
      <trkpt lat="44.72343" lon="4.1499">
        <ele>858.5</ele>
        <time>2022-06-10T11:18:19Z</time>
      </trkpt>
      <trkpt lat="44.72344" lon="4.14983">
        <ele>858.6</ele>
        <time>2022-06-10T11:18:20Z</time>
      </trkpt>
      <trkpt lat="44.72344" lon="4.14976">
        <ele>858.8</ele>
        <time>2022-06-10T11:18:21Z</time>
      </trkpt>
      <trkpt lat="44.72344" lon="4.1497">
        <ele>859</ele>
        <time>2022-06-10T11:18:22Z</time>
      </trkpt>
      <trkpt lat="44.72344" lon="4.14965">
        <ele>859.2</ele>
        <time>2022-06-10T11:18:23Z</time>
      </trkpt>
      <trkpt lat="44.72344" lon="4.14961">
        <ele>859.4</ele>
        <time>2022-06-10T11:18:24Z</time>
      </trkpt>
      <trkpt lat="44.72343" lon="4.14955">
        <ele>859.6</ele>
        <time>2022-06-10T11:18:25Z</time>
      </trkpt>
      <trkpt lat="44.72343" lon="4.14951">
        <ele>859.8</ele>
        <time>2022-06-10T11:18:26Z</time>
      </trkpt>
      <trkpt lat="44.72342" lon="4.14946">
        <ele>860</ele>
        <time>2022-06-10T11:18:27Z</time>
      </trkpt>
      <trkpt lat="44.72342" lon="4.14942">
        <ele>860.2</ele>
        <time>2022-06-10T11:18:28Z</time>
      </trkpt>
      <trkpt lat="44.72342" lon="4.14939">
        <ele>860.3</ele>
        <time>2022-06-10T11:18:29Z</time>
      </trkpt>
      <trkpt lat="44.7234" lon="4.14939">
        <ele>860.5</ele>
        <time>2022-06-10T11:18:30Z</time>
      </trkpt>
      <trkpt lat="44.72339" lon="4.14934">
        <ele>860.7</ele>
        <time>2022-06-10T11:18:31Z</time>
      </trkpt>
      <trkpt lat="44.72339" lon="4.14925">
        <ele>861.1</ele>
        <time>2022-06-10T11:18:33Z</time>
      </trkpt>
      <trkpt lat="44.72339" lon="4.1492">
        <ele>861.4</ele>
        <time>2022-06-10T11:18:34Z</time>
      </trkpt>
      <trkpt lat="44.72338" lon="4.14916">
        <ele>861.6</ele>
        <time>2022-06-10T11:18:35Z</time>
      </trkpt>
      <trkpt lat="44.72337" lon="4.14912">
        <ele>861.8</ele>
        <time>2022-06-10T11:18:36Z</time>
      </trkpt>
      <trkpt lat="44.72336" lon="4.14908">
        <ele>862</ele>
        <time>2022-06-10T11:18:37Z</time>
      </trkpt>
      <trkpt lat="44.72334" lon="4.14904">
        <ele>862.2</ele>
        <time>2022-06-10T11:18:38Z</time>
      </trkpt>
      <trkpt lat="44.72332" lon="4.149">
        <ele>862.4</ele>
        <time>2022-06-10T11:18:39Z</time>
      </trkpt>
      <trkpt lat="44.72331" lon="4.14898">
        <ele>862.5</ele>
        <time>2022-06-10T11:18:40Z</time>
      </trkpt>
      <trkpt lat="44.72328" lon="4.14896">
        <ele>862.8</ele>
        <time>2022-06-10T11:18:41Z</time>
      </trkpt>
      <trkpt lat="44.72327" lon="4.14895">
        <ele>862.9</ele>
        <time>2022-06-10T11:18:42Z</time>
      </trkpt>
      <trkpt lat="44.72324" lon="4.14894">
        <ele>863.1</ele>
        <time>2022-06-10T11:18:43Z</time>
      </trkpt>
      <trkpt lat="44.72321" lon="4.14891">
        <ele>863.4</ele>
        <time>2022-06-10T11:18:44Z</time>
      </trkpt>
      <trkpt lat="44.7232" lon="4.1489">
        <ele>863.5</ele>
        <time>2022-06-10T11:18:45Z</time>
      </trkpt>
      <trkpt lat="44.72317" lon="4.14887">
        <ele>863.7</ele>
        <time>2022-06-10T11:18:46Z</time>
      </trkpt>
      <trkpt lat="44.72316" lon="4.14887">
        <ele>863.9</ele>
        <time>2022-06-10T11:18:47Z</time>
      </trkpt>
      <trkpt lat="44.72314" lon="4.14884">
        <ele>864.1</ele>
        <time>2022-06-10T11:18:48Z</time>
      </trkpt>
      <trkpt lat="44.72313" lon="4.14883">
        <ele>864.2</ele>
        <time>2022-06-10T11:18:49Z</time>
      </trkpt>
      <trkpt lat="44.7231" lon="4.1488">
        <ele>864.6</ele>
        <time>2022-06-10T11:18:50Z</time>
      </trkpt>
      <trkpt lat="44.72309" lon="4.14879">
        <ele>864.7</ele>
        <time>2022-06-10T11:18:51Z</time>
      </trkpt>
      <trkpt lat="44.72306" lon="4.14876">
        <ele>865</ele>
        <time>2022-06-10T11:18:52Z</time>
      </trkpt>
      <trkpt lat="44.72306" lon="4.14875">
        <ele>865.2</ele>
        <time>2022-06-10T11:18:53Z</time>
      </trkpt>
      <trkpt lat="44.72304" lon="4.14872">
        <ele>865.4</ele>
        <time>2022-06-10T11:18:54Z</time>
      </trkpt>
      <trkpt lat="44.72303" lon="4.14871">
        <ele>865.5</ele>
        <time>2022-06-10T11:18:55Z</time>
      </trkpt>
      <trkpt lat="44.72302" lon="4.14868">
        <ele>865.8</ele>
        <time>2022-06-10T11:18:56Z</time>
      </trkpt>
      <trkpt lat="44.72302" lon="4.14866">
        <ele>865.9</ele>
        <time>2022-06-10T11:18:57Z</time>
      </trkpt>
      <trkpt lat="44.72302" lon="4.14862">
        <ele>866.2</ele>
        <time>2022-06-10T11:18:58Z</time>
      </trkpt>
      <trkpt lat="44.72302" lon="4.14861">
        <ele>866.3</ele>
        <time>2022-06-10T11:18:59Z</time>
      </trkpt>
      <trkpt lat="44.72303" lon="4.14859">
        <ele>866.4</ele>
        <time>2022-06-10T11:19:00Z</time>
      </trkpt>
      <trkpt lat="44.72304" lon="4.14857">
        <ele>866.6</ele>
        <time>2022-06-10T11:19:01Z</time>
      </trkpt>
      <trkpt lat="44.72305" lon="4.14855">
        <ele>866.7</ele>
        <time>2022-06-10T11:19:02Z</time>
      </trkpt>
      <trkpt lat="44.72306" lon="4.14853">
        <ele>866.9</ele>
        <time>2022-06-10T11:19:03Z</time>
      </trkpt>
      <trkpt lat="44.72308" lon="4.14852">
        <ele>867</ele>
        <time>2022-06-10T11:19:04Z</time>
      </trkpt>
      <trkpt lat="44.72309" lon="4.14851">
        <ele>867.1</ele>
        <time>2022-06-10T11:19:05Z</time>
      </trkpt>
      <trkpt lat="44.72311" lon="4.14851">
        <ele>867.2</ele>
        <time>2022-06-10T11:19:06Z</time>
      </trkpt>
      <trkpt lat="44.72313" lon="4.14851">
        <ele>867.3</ele>
        <time>2022-06-10T11:19:07Z</time>
      </trkpt>
      <trkpt lat="44.72315" lon="4.14854">
        <ele>867.5</ele>
        <time>2022-06-10T11:19:08Z</time>
      </trkpt>
      <trkpt lat="44.72316" lon="4.14854">
        <ele>867.5</ele>
        <time>2022-06-10T11:19:09Z</time>
      </trkpt>
      <trkpt lat="44.72317" lon="4.14855">
        <ele>867.6</ele>
        <time>2022-06-10T11:19:10Z</time>
      </trkpt>
      <trkpt lat="44.72319" lon="4.14856">
        <ele>867.7</ele>
        <time>2022-06-10T11:19:11Z</time>
      </trkpt>
      <trkpt lat="44.7232" lon="4.14857">
        <ele>867.8</ele>
        <time>2022-06-10T11:19:12Z</time>
      </trkpt>
      <trkpt lat="44.72321" lon="4.14858">
        <ele>867.9</ele>
        <time>2022-06-10T11:19:13Z</time>
      </trkpt>
      <trkpt lat="44.72323" lon="4.14859">
        <ele>868</ele>
        <time>2022-06-10T11:19:14Z</time>
      </trkpt>
      <trkpt lat="44.72324" lon="4.14859">
        <ele>868</ele>
        <time>2022-06-10T11:19:15Z</time>
      </trkpt>
      <trkpt lat="44.72326" lon="4.1486">
        <ele>868.1</ele>
        <time>2022-06-10T11:19:16Z</time>
      </trkpt>
      <trkpt lat="44.72327" lon="4.14861">
        <ele>868.2</ele>
        <time>2022-06-10T11:19:17Z</time>
      </trkpt>
      <trkpt lat="44.72328" lon="4.14862">
        <ele>868.3</ele>
        <time>2022-06-10T11:19:18Z</time>
      </trkpt>
      <trkpt lat="44.72329" lon="4.14863">
        <ele>868.4</ele>
        <time>2022-06-10T11:19:19Z</time>
      </trkpt>
      <trkpt lat="44.7233" lon="4.14864">
        <ele>868.5</ele>
        <time>2022-06-10T11:19:20Z</time>
      </trkpt>
      <trkpt lat="44.72332" lon="4.14865">
        <ele>868.6</ele>
        <time>2022-06-10T11:19:21Z</time>
      </trkpt>
      <trkpt lat="44.72333" lon="4.14866">
        <ele>868.7</ele>
        <time>2022-06-10T11:19:22Z</time>
      </trkpt>
      <trkpt lat="44.72334" lon="4.14867">
        <ele>868.8</ele>
        <time>2022-06-10T11:19:23Z</time>
      </trkpt>
      <trkpt lat="44.72335" lon="4.14868">
        <ele>868.9</ele>
        <time>2022-06-10T11:19:24Z</time>
      </trkpt>
      <trkpt lat="44.72337" lon="4.14869">
        <ele>869</ele>
        <time>2022-06-10T11:19:25Z</time>
      </trkpt>
      <trkpt lat="44.72338" lon="4.1487">
        <ele>869.1</ele>
        <time>2022-06-10T11:19:26Z</time>
      </trkpt>
      <trkpt lat="44.72339" lon="4.14871">
        <ele>869.2</ele>
        <time>2022-06-10T11:19:27Z</time>
      </trkpt>
      <trkpt lat="44.72341" lon="4.14872">
        <ele>869.4</ele>
        <time>2022-06-10T11:19:28Z</time>
      </trkpt>
      <trkpt lat="44.72342" lon="4.14872">
        <ele>869.5</ele>
        <time>2022-06-10T11:19:29Z</time>
      </trkpt>
      <trkpt lat="44.72343" lon="4.14873">
        <ele>869.6</ele>
        <time>2022-06-10T11:19:30Z</time>
      </trkpt>
      <trkpt lat="44.72345" lon="4.14873">
        <ele>869.7</ele>
        <time>2022-06-10T11:19:31Z</time>
      </trkpt>
      <trkpt lat="44.72347" lon="4.14874">
        <ele>869.9</ele>
        <time>2022-06-10T11:19:32Z</time>
      </trkpt>
      <trkpt lat="44.72348" lon="4.14874">
        <ele>870</ele>
        <time>2022-06-10T11:19:33Z</time>
      </trkpt>
      <trkpt lat="44.72349" lon="4.14874">
        <ele>870.1</ele>
        <time>2022-06-10T11:19:34Z</time>
      </trkpt>
      <trkpt lat="44.7235" lon="4.14875">
        <ele>870.2</ele>
        <time>2022-06-10T11:19:35Z</time>
      </trkpt>
      <trkpt lat="44.72351" lon="4.14875">
        <ele>870.3</ele>
        <time>2022-06-10T11:19:36Z</time>
      </trkpt>
      <trkpt lat="44.72353" lon="4.14874">
        <ele>870.5</ele>
        <time>2022-06-10T11:19:37Z</time>
      </trkpt>
      <trkpt lat="44.72354" lon="4.14874">
        <ele>870.6</ele>
        <time>2022-06-10T11:19:38Z</time>
      </trkpt>
      <trkpt lat="44.72356" lon="4.14874">
        <ele>870.8</ele>
        <time>2022-06-10T11:19:39Z</time>
      </trkpt>
      <trkpt lat="44.72357" lon="4.14874">
        <ele>870.8</ele>
        <time>2022-06-10T11:19:40Z</time>
      </trkpt>
      <trkpt lat="44.72358" lon="4.14874">
        <ele>870.9</ele>
        <time>2022-06-10T11:19:41Z</time>
      </trkpt>
      <trkpt lat="44.7236" lon="4.14874">
        <ele>871</ele>
        <time>2022-06-10T11:19:42Z</time>
      </trkpt>
      <trkpt lat="44.72361" lon="4.14874">
        <ele>871.1</ele>
        <time>2022-06-10T11:19:43Z</time>
      </trkpt>
      <trkpt lat="44.72362" lon="4.14873">
        <ele>871.2</ele>
        <time>2022-06-10T11:19:44Z</time>
      </trkpt>
      <trkpt lat="44.72364" lon="4.14872">
        <ele>871.3</ele>
        <time>2022-06-10T11:19:45Z</time>
      </trkpt>
      <trkpt lat="44.72365" lon="4.14871">
        <ele>871.4</ele>
        <time>2022-06-10T11:19:46Z</time>
      </trkpt>
      <trkpt lat="44.72366" lon="4.14869">
        <ele>871.5</ele>
        <time>2022-06-10T11:19:47Z</time>
      </trkpt>
      <trkpt lat="44.72367" lon="4.14868">
        <ele>871.6</ele>
        <time>2022-06-10T11:19:48Z</time>
      </trkpt>
      <trkpt lat="44.72368" lon="4.14866">
        <ele>871.7</ele>
        <time>2022-06-10T11:19:49Z</time>
      </trkpt>
      <trkpt lat="44.72368" lon="4.14863">
        <ele>871.8</ele>
        <time>2022-06-10T11:19:50Z</time>
      </trkpt>
      <trkpt lat="44.72369" lon="4.14861">
        <ele>871.9</ele>
        <time>2022-06-10T11:19:51Z</time>
      </trkpt>
      <trkpt lat="44.72369" lon="4.14859">
        <ele>872</ele>
        <time>2022-06-10T11:19:52Z</time>
      </trkpt>
      <trkpt lat="44.72369" lon="4.14857">
        <ele>872</ele>
        <time>2022-06-10T11:19:53Z</time>
      </trkpt>
      <trkpt lat="44.72369" lon="4.14856">
        <ele>872.1</ele>
        <time>2022-06-10T11:19:54Z</time>
      </trkpt>
      <trkpt lat="44.7237" lon="4.14853">
        <ele>872.1</ele>
        <time>2022-06-10T11:19:55Z</time>
      </trkpt>
      <trkpt lat="44.7237" lon="4.1485">
        <ele>872.2</ele>
        <time>2022-06-10T11:19:56Z</time>
      </trkpt>
      <trkpt lat="44.7237" lon="4.14849">
        <ele>872.3</ele>
        <time>2022-06-10T11:19:57Z</time>
      </trkpt>
      <trkpt lat="44.7237" lon="4.14848">
        <ele>872.3</ele>
        <time>2022-06-10T11:19:58Z</time>
      </trkpt>
      <trkpt lat="44.72371" lon="4.14845">
        <ele>872.4</ele>
        <time>2022-06-10T11:19:59Z</time>
      </trkpt>
      <trkpt lat="44.72371" lon="4.14844">
        <ele>872.4</ele>
        <time>2022-06-10T11:20:00Z</time>
      </trkpt>
      <trkpt lat="44.7237" lon="4.14842">
        <ele>872.4</ele>
        <time>2022-06-10T11:20:01Z</time>
      </trkpt>
      <trkpt lat="44.7237" lon="4.1484">
        <ele>872.5</ele>
        <time>2022-06-10T11:20:02Z</time>
      </trkpt>
      <trkpt lat="44.7237" lon="4.14838">
        <ele>872.6</ele>
        <time>2022-06-10T11:20:03Z</time>
      </trkpt>
      <trkpt lat="44.7237" lon="4.14836">
        <ele>872.6</ele>
        <time>2022-06-10T11:20:04Z</time>
      </trkpt>
      <trkpt lat="44.7237" lon="4.14834">
        <ele>872.7</ele>
        <time>2022-06-10T11:20:05Z</time>
      </trkpt>
      <trkpt lat="44.72371" lon="4.14832">
        <ele>872.7</ele>
        <time>2022-06-10T11:20:06Z</time>
      </trkpt>
      <trkpt lat="44.72371" lon="4.14831">
        <ele>872.8</ele>
        <time>2022-06-10T11:20:07Z</time>
      </trkpt>
      <trkpt lat="44.72371" lon="4.14829">
        <ele>872.8</ele>
        <time>2022-06-10T11:20:08Z</time>
      </trkpt>
      <trkpt lat="44.72371" lon="4.14826">
        <ele>872.9</ele>
        <time>2022-06-10T11:20:09Z</time>
      </trkpt>
      <trkpt lat="44.72371" lon="4.14825">
        <ele>872.9</ele>
        <time>2022-06-10T11:20:10Z</time>
      </trkpt>
      <trkpt lat="44.72371" lon="4.14824">
        <ele>873</ele>
        <time>2022-06-10T11:20:11Z</time>
      </trkpt>
      <trkpt lat="44.72369" lon="4.14822">
        <ele>873.1</ele>
        <time>2022-06-10T11:20:12Z</time>
      </trkpt>
      <trkpt lat="44.72369" lon="4.14821">
        <ele>873.1</ele>
        <time>2022-06-10T11:20:13Z</time>
      </trkpt>
      <trkpt lat="44.72368" lon="4.1482">
        <ele>873.2</ele>
        <time>2022-06-10T11:20:14Z</time>
      </trkpt>
      <trkpt lat="44.72367" lon="4.14819">
        <ele>873.2</ele>
        <time>2022-06-10T11:20:15Z</time>
      </trkpt>
      <trkpt lat="44.72368" lon="4.14816">
        <ele>873.3</ele>
        <time>2022-06-10T11:20:16Z</time>
      </trkpt>
      <trkpt lat="44.72368" lon="4.14814">
        <ele>873.4</ele>
        <time>2022-06-10T11:20:17Z</time>
      </trkpt>
      <trkpt lat="44.72367" lon="4.14811">
        <ele>873.5</ele>
        <time>2022-06-10T11:20:18Z</time>
      </trkpt>
      <trkpt lat="44.72368" lon="4.14809">
        <ele>873.6</ele>
        <time>2022-06-10T11:20:19Z</time>
      </trkpt>
      <trkpt lat="44.72368" lon="4.14807">
        <ele>873.7</ele>
        <time>2022-06-10T11:20:20Z</time>
      </trkpt>
      <trkpt lat="44.72368" lon="4.14804">
        <ele>873.8</ele>
        <time>2022-06-10T11:20:21Z</time>
      </trkpt>
      <trkpt lat="44.72368" lon="4.14802">
        <ele>873.9</ele>
        <time>2022-06-10T11:20:22Z</time>
      </trkpt>
      <trkpt lat="44.72367" lon="4.148">
        <ele>874</ele>
        <time>2022-06-10T11:20:23Z</time>
      </trkpt>
      <trkpt lat="44.72367" lon="4.14798">
        <ele>874.1</ele>
        <time>2022-06-10T11:20:24Z</time>
      </trkpt>
      <trkpt lat="44.72366" lon="4.14796">
        <ele>874.2</ele>
        <time>2022-06-10T11:20:25Z</time>
      </trkpt>
      <trkpt lat="44.72365" lon="4.14794">
        <ele>874.3</ele>
        <time>2022-06-10T11:20:26Z</time>
      </trkpt>
      <trkpt lat="44.72365" lon="4.14791">
        <ele>874.5</ele>
        <time>2022-06-10T11:20:27Z</time>
      </trkpt>
      <trkpt lat="44.72364" lon="4.1479">
        <ele>874.5</ele>
        <time>2022-06-10T11:20:28Z</time>
      </trkpt>
      <trkpt lat="44.72364" lon="4.14789">
        <ele>874.6</ele>
        <time>2022-06-10T11:20:29Z</time>
      </trkpt>
      <trkpt lat="44.72364" lon="4.14787">
        <ele>874.6</ele>
        <time>2022-06-10T11:20:30Z</time>
      </trkpt>
      <trkpt lat="44.72364" lon="4.14786">
        <ele>874.7</ele>
        <time>2022-06-10T11:20:31Z</time>
      </trkpt>
      <trkpt lat="44.72365" lon="4.14784">
        <ele>874.8</ele>
        <time>2022-06-10T11:20:32Z</time>
      </trkpt>
      <trkpt lat="44.72366" lon="4.14782">
        <ele>874.9</ele>
        <time>2022-06-10T11:20:33Z</time>
      </trkpt>
      <trkpt lat="44.72366" lon="4.1478">
        <ele>875</ele>
        <time>2022-06-10T11:20:34Z</time>
      </trkpt>
      <trkpt lat="44.72366" lon="4.14777">
        <ele>875.2</ele>
        <time>2022-06-10T11:20:35Z</time>
      </trkpt>
      <trkpt lat="44.72366" lon="4.14776">
        <ele>875.2</ele>
        <time>2022-06-10T11:20:36Z</time>
      </trkpt>
      <trkpt lat="44.72366" lon="4.14775">
        <ele>875.3</ele>
        <time>2022-06-10T11:20:37Z</time>
      </trkpt>
      <trkpt lat="44.72366" lon="4.14773">
        <ele>875.4</ele>
        <time>2022-06-10T11:20:38Z</time>
      </trkpt>
      <trkpt lat="44.72366" lon="4.14772">
        <ele>875.4</ele>
        <time>2022-06-10T11:20:39Z</time>
      </trkpt>
      <trkpt lat="44.72367" lon="4.1477">
        <ele>875.5</ele>
        <time>2022-06-10T11:20:40Z</time>
      </trkpt>
      <trkpt lat="44.72367" lon="4.14769">
        <ele>875.6</ele>
        <time>2022-06-10T11:20:41Z</time>
      </trkpt>
      <trkpt lat="44.72367" lon="4.14768">
        <ele>875.6</ele>
        <time>2022-06-10T11:20:42Z</time>
      </trkpt>
      <trkpt lat="44.72367" lon="4.14765">
        <ele>875.7</ele>
        <time>2022-06-10T11:20:43Z</time>
      </trkpt>
      <trkpt lat="44.72367" lon="4.14763">
        <ele>875.9</ele>
        <time>2022-06-10T11:20:44Z</time>
      </trkpt>
      <trkpt lat="44.72367" lon="4.14761">
        <ele>875.9</ele>
        <time>2022-06-10T11:20:45Z</time>
      </trkpt>
      <trkpt lat="44.72367" lon="4.14759">
        <ele>876</ele>
        <time>2022-06-10T11:20:46Z</time>
      </trkpt>
      <trkpt lat="44.72367" lon="4.14757">
        <ele>876.1</ele>
        <time>2022-06-10T11:20:47Z</time>
      </trkpt>
      <trkpt lat="44.72368" lon="4.14755">
        <ele>876.2</ele>
        <time>2022-06-10T11:20:48Z</time>
      </trkpt>
      <trkpt lat="44.72368" lon="4.14753">
        <ele>876.3</ele>
        <time>2022-06-10T11:20:49Z</time>
      </trkpt>
      <trkpt lat="44.72368" lon="4.14752">
        <ele>876.3</ele>
        <time>2022-06-10T11:20:50Z</time>
      </trkpt>
      <trkpt lat="44.72368" lon="4.1475">
        <ele>876.4</ele>
        <time>2022-06-10T11:20:51Z</time>
      </trkpt>
      <trkpt lat="44.72368" lon="4.14748">
        <ele>876.5</ele>
        <time>2022-06-10T11:20:52Z</time>
      </trkpt>
      <trkpt lat="44.72368" lon="4.14746">
        <ele>876.6</ele>
        <time>2022-06-10T11:20:53Z</time>
      </trkpt>
      <trkpt lat="44.72368" lon="4.14744">
        <ele>876.7</ele>
        <time>2022-06-10T11:20:54Z</time>
      </trkpt>
      <trkpt lat="44.72368" lon="4.14741">
        <ele>876.8</ele>
        <time>2022-06-10T11:20:55Z</time>
      </trkpt>
      <trkpt lat="44.72368" lon="4.1474">
        <ele>876.8</ele>
        <time>2022-06-10T11:20:56Z</time>
      </trkpt>
      <trkpt lat="44.72368" lon="4.14739">
        <ele>876.9</ele>
        <time>2022-06-10T11:20:57Z</time>
      </trkpt>
      <trkpt lat="44.72368" lon="4.14737">
        <ele>877</ele>
        <time>2022-06-10T11:20:58Z</time>
      </trkpt>
      <trkpt lat="44.72369" lon="4.14734">
        <ele>877</ele>
        <time>2022-06-10T11:20:59Z</time>
      </trkpt>
      <trkpt lat="44.72369" lon="4.14732">
        <ele>877.1</ele>
        <time>2022-06-10T11:21:00Z</time>
      </trkpt>
      <trkpt lat="44.72368" lon="4.1473">
        <ele>877.2</ele>
        <time>2022-06-10T11:21:01Z</time>
      </trkpt>
      <trkpt lat="44.72368" lon="4.14727">
        <ele>877.3</ele>
        <time>2022-06-10T11:21:02Z</time>
      </trkpt>
      <trkpt lat="44.72367" lon="4.14725">
        <ele>877.4</ele>
        <time>2022-06-10T11:21:03Z</time>
      </trkpt>
      <trkpt lat="44.72367" lon="4.14723">
        <ele>877.4</ele>
        <time>2022-06-10T11:21:04Z</time>
      </trkpt>
      <trkpt lat="44.72366" lon="4.14721">
        <ele>877.4</ele>
        <time>2022-06-10T11:21:05Z</time>
      </trkpt>
      <trkpt lat="44.72366" lon="4.14719">
        <ele>877.4</ele>
        <time>2022-06-10T11:21:06Z</time>
      </trkpt>
      <trkpt lat="44.72366" lon="4.14717">
        <ele>877.5</ele>
        <time>2022-06-10T11:21:07Z</time>
      </trkpt>
      <trkpt lat="44.72366" lon="4.14716">
        <ele>877.6</ele>
        <time>2022-06-10T11:21:08Z</time>
      </trkpt>
      <trkpt lat="44.72365" lon="4.14714">
        <ele>877.8</ele>
        <time>2022-06-10T11:21:09Z</time>
      </trkpt>
      <trkpt lat="44.72365" lon="4.14712">
        <ele>877.9</ele>
        <time>2022-06-10T11:21:10Z</time>
      </trkpt>
      <trkpt lat="44.72364" lon="4.14709">
        <ele>878.1</ele>
        <time>2022-06-10T11:21:11Z</time>
      </trkpt>
      <trkpt lat="44.72363" lon="4.14707">
        <ele>878.2</ele>
        <time>2022-06-10T11:21:12Z</time>
      </trkpt>
      <trkpt lat="44.72362" lon="4.14705">
        <ele>878.3</ele>
        <time>2022-06-10T11:21:13Z</time>
      </trkpt>
      <trkpt lat="44.72362" lon="4.14703">
        <ele>878.5</ele>
        <time>2022-06-10T11:21:14Z</time>
      </trkpt>
      <trkpt lat="44.72362" lon="4.147">
        <ele>878.6</ele>
        <time>2022-06-10T11:21:15Z</time>
      </trkpt>
      <trkpt lat="44.72362" lon="4.14698">
        <ele>878.7</ele>
        <time>2022-06-10T11:21:16Z</time>
      </trkpt>
      <trkpt lat="44.72361" lon="4.14696">
        <ele>878.8</ele>
        <time>2022-06-10T11:21:17Z</time>
      </trkpt>
      <trkpt lat="44.72361" lon="4.14694">
        <ele>878.9</ele>
        <time>2022-06-10T11:21:18Z</time>
      </trkpt>
      <trkpt lat="44.72362" lon="4.14691">
        <ele>879</ele>
        <time>2022-06-10T11:21:19Z</time>
      </trkpt>
      <trkpt lat="44.72362" lon="4.14689">
        <ele>879.1</ele>
        <time>2022-06-10T11:21:20Z</time>
      </trkpt>
      <trkpt lat="44.72362" lon="4.14684">
        <ele>879.2</ele>
        <time>2022-06-10T11:21:21Z</time>
      </trkpt>
      <trkpt lat="44.72362" lon="4.14683">
        <ele>879.3</ele>
        <time>2022-06-10T11:21:22Z</time>
      </trkpt>
      <trkpt lat="44.72362" lon="4.14678">
        <ele>879.4</ele>
        <time>2022-06-10T11:21:23Z</time>
      </trkpt>
      <trkpt lat="44.72362" lon="4.14676">
        <ele>879.5</ele>
        <time>2022-06-10T11:21:24Z</time>
      </trkpt>
      <trkpt lat="44.72362" lon="4.14671">
        <ele>879.6</ele>
        <time>2022-06-10T11:21:25Z</time>
      </trkpt>
      <trkpt lat="44.72362" lon="4.14669">
        <ele>879.6</ele>
        <time>2022-06-10T11:21:26Z</time>
      </trkpt>
      <trkpt lat="44.72363" lon="4.14665">
        <ele>879.7</ele>
        <time>2022-06-10T11:21:27Z</time>
      </trkpt>
      <trkpt lat="44.72363" lon="4.14661">
        <ele>879.7</ele>
        <time>2022-06-10T11:21:28Z</time>
      </trkpt>
      <trkpt lat="44.72363" lon="4.14657">
        <ele>879.8</ele>
        <time>2022-06-10T11:21:29Z</time>
      </trkpt>
      <trkpt lat="44.72364" lon="4.14653">
        <ele>879.8</ele>
        <time>2022-06-10T11:21:30Z</time>
      </trkpt>
      <trkpt lat="44.72363" lon="4.14649">
        <ele>879.8</ele>
        <time>2022-06-10T11:21:31Z</time>
      </trkpt>
      <trkpt lat="44.72363" lon="4.14645">
        <ele>879.8</ele>
        <time>2022-06-10T11:21:32Z</time>
      </trkpt>
      <trkpt lat="44.72363" lon="4.14639">
        <ele>879.9</ele>
        <time>2022-06-10T11:21:33Z</time>
      </trkpt>
      <trkpt lat="44.72363" lon="4.14638">
        <ele>879.9</ele>
        <time>2022-06-10T11:21:34Z</time>
      </trkpt>
      <trkpt lat="44.72362" lon="4.14632">
        <ele>879.8</ele>
        <time>2022-06-10T11:21:35Z</time>
      </trkpt>
      <trkpt lat="44.7236" lon="4.14625">
        <ele>879.8</ele>
        <time>2022-06-10T11:21:36Z</time>
      </trkpt>
      <trkpt lat="44.72358" lon="4.14615">
        <ele>879.5</ele>
        <time>2022-06-10T11:21:38Z</time>
      </trkpt>
      <trkpt lat="44.72356" lon="4.14608">
        <ele>878.2</ele>
        <time>2022-06-10T11:21:39Z</time>
      </trkpt>
      <trkpt lat="44.72353" lon="4.14602">
        <ele>876.7</ele>
        <time>2022-06-10T11:21:40Z</time>
      </trkpt>
      <trkpt lat="44.7235" lon="4.14595">
        <ele>875.3</ele>
        <time>2022-06-10T11:21:41Z</time>
      </trkpt>
      <trkpt lat="44.72347" lon="4.14588">
        <ele>874.8</ele>
        <time>2022-06-10T11:21:42Z</time>
      </trkpt>
      <trkpt lat="44.72344" lon="4.14582">
        <ele>875</ele>
        <time>2022-06-10T11:21:43Z</time>
      </trkpt>
      <trkpt lat="44.7234" lon="4.14576">
        <ele>875.2</ele>
        <time>2022-06-10T11:21:44Z</time>
      </trkpt>
      <trkpt lat="44.72338" lon="4.14569">
        <ele>875.5</ele>
        <time>2022-06-10T11:21:45Z</time>
      </trkpt>
      <trkpt lat="44.72335" lon="4.14563">
        <ele>875.7</ele>
        <time>2022-06-10T11:21:46Z</time>
      </trkpt>
      <trkpt lat="44.72333" lon="4.14556">
        <ele>876</ele>
        <time>2022-06-10T11:21:47Z</time>
      </trkpt>
      <trkpt lat="44.7233" lon="4.14549">
        <ele>876.3</ele>
        <time>2022-06-10T11:21:48Z</time>
      </trkpt>
      <trkpt lat="44.72328" lon="4.14544">
        <ele>876.4</ele>
        <time>2022-06-10T11:21:49Z</time>
      </trkpt>
      <trkpt lat="44.72325" lon="4.14539">
        <ele>876.6</ele>
        <time>2022-06-10T11:21:50Z</time>
      </trkpt>
      <trkpt lat="44.72324" lon="4.14536">
        <ele>876.7</ele>
        <time>2022-06-10T11:21:51Z</time>
      </trkpt>
      <trkpt lat="44.7232" lon="4.14532">
        <ele>876.9</ele>
        <time>2022-06-10T11:21:52Z</time>
      </trkpt>
      <trkpt lat="44.72315" lon="4.14529">
        <ele>877</ele>
        <time>2022-06-10T11:21:53Z</time>
      </trkpt>
      <trkpt lat="44.7231" lon="4.14527">
        <ele>877.2</ele>
        <time>2022-06-10T11:21:54Z</time>
      </trkpt>
      <trkpt lat="44.72305" lon="4.14525">
        <ele>877.3</ele>
        <time>2022-06-10T11:21:55Z</time>
      </trkpt>
      <trkpt lat="44.72299" lon="4.14523">
        <ele>877.4</ele>
        <time>2022-06-10T11:21:56Z</time>
      </trkpt>
      <trkpt lat="44.72293" lon="4.14522">
        <ele>877.6</ele>
        <time>2022-06-10T11:21:57Z</time>
      </trkpt>
      <trkpt lat="44.72286" lon="4.14522">
        <ele>877.7</ele>
        <time>2022-06-10T11:21:58Z</time>
      </trkpt>
      <trkpt lat="44.7228" lon="4.1452">
        <ele>877.9</ele>
        <time>2022-06-10T11:21:59Z</time>
      </trkpt>
      <trkpt lat="44.72274" lon="4.14516">
        <ele>878</ele>
        <time>2022-06-10T11:22:00Z</time>
      </trkpt>
      <trkpt lat="44.72269" lon="4.1451">
        <ele>878.1</ele>
        <time>2022-06-10T11:22:01Z</time>
      </trkpt>
      <trkpt lat="44.72266" lon="4.14501">
        <ele>878.2</ele>
        <time>2022-06-10T11:22:02Z</time>
      </trkpt>
      <trkpt lat="44.72264" lon="4.14492">
        <ele>878.3</ele>
        <time>2022-06-10T11:22:03Z</time>
      </trkpt>
      <trkpt lat="44.72264" lon="4.14483">
        <ele>878.4</ele>
        <time>2022-06-10T11:22:04Z</time>
      </trkpt>
      <trkpt lat="44.72265" lon="4.14475">
        <ele>878.4</ele>
        <time>2022-06-10T11:22:05Z</time>
      </trkpt>
      <trkpt lat="44.72266" lon="4.14467">
        <ele>878.5</ele>
        <time>2022-06-10T11:22:06Z</time>
      </trkpt>
      <trkpt lat="44.72266" lon="4.14458">
        <ele>878.5</ele>
        <time>2022-06-10T11:22:07Z</time>
      </trkpt>
      <trkpt lat="44.72267" lon="4.14448">
        <ele>878.5</ele>
        <time>2022-06-10T11:22:08Z</time>
      </trkpt>
      <trkpt lat="44.72268" lon="4.14439">
        <ele>878.5</ele>
        <time>2022-06-10T11:22:09Z</time>
      </trkpt>
      <trkpt lat="44.72268" lon="4.14429">
        <ele>878.3</ele>
        <time>2022-06-10T11:22:10Z</time>
      </trkpt>
      <trkpt lat="44.72267" lon="4.14418">
        <ele>878.2</ele>
        <time>2022-06-10T11:22:11Z</time>
      </trkpt>
      <trkpt lat="44.72265" lon="4.14408">
        <ele>878.1</ele>
        <time>2022-06-10T11:22:12Z</time>
      </trkpt>
      <trkpt lat="44.72263" lon="4.14398">
        <ele>878</ele>
        <time>2022-06-10T11:22:13Z</time>
      </trkpt>
      <trkpt lat="44.72261" lon="4.14389">
        <ele>877.8</ele>
        <time>2022-06-10T11:22:14Z</time>
      </trkpt>
      <trkpt lat="44.72258" lon="4.14379">
        <ele>877.8</ele>
        <time>2022-06-10T11:22:15Z</time>
      </trkpt>
      <trkpt lat="44.72255" lon="4.1437">
        <ele>877.8</ele>
        <time>2022-06-10T11:22:16Z</time>
      </trkpt>
      <trkpt lat="44.72253" lon="4.14361">
        <ele>877.8</ele>
        <time>2022-06-10T11:22:17Z</time>
      </trkpt>
      <trkpt lat="44.7225" lon="4.14354">
        <ele>877.5</ele>
        <time>2022-06-10T11:22:18Z</time>
      </trkpt>
      <trkpt lat="44.72245" lon="4.1435">
        <ele>877.1</ele>
        <time>2022-06-10T11:22:19Z</time>
      </trkpt>
      <trkpt lat="44.72239" lon="4.14349">
        <ele>876.6</ele>
        <time>2022-06-10T11:22:20Z</time>
      </trkpt>
      <trkpt lat="44.72233" lon="4.1435">
        <ele>876</ele>
        <time>2022-06-10T11:22:21Z</time>
      </trkpt>
      <trkpt lat="44.72226" lon="4.14353">
        <ele>875.5</ele>
        <time>2022-06-10T11:22:22Z</time>
      </trkpt>
      <trkpt lat="44.72219" lon="4.14355">
        <ele>874.9</ele>
        <time>2022-06-10T11:22:23Z</time>
      </trkpt>
      <trkpt lat="44.72212" lon="4.14358">
        <ele>874.3</ele>
        <time>2022-06-10T11:22:24Z</time>
      </trkpt>
      <trkpt lat="44.72205" lon="4.14359">
        <ele>873.6</ele>
        <time>2022-06-10T11:22:25Z</time>
      </trkpt>
      <trkpt lat="44.72197" lon="4.14359">
        <ele>873</ele>
        <time>2022-06-10T11:22:26Z</time>
      </trkpt>
      <trkpt lat="44.72188" lon="4.14357">
        <ele>872.3</ele>
        <time>2022-06-10T11:22:27Z</time>
      </trkpt>
      <trkpt lat="44.7218" lon="4.14355">
        <ele>871.6</ele>
        <time>2022-06-10T11:22:28Z</time>
      </trkpt>
      <trkpt lat="44.72172" lon="4.14351">
        <ele>871.1</ele>
        <time>2022-06-10T11:22:29Z</time>
      </trkpt>
      <trkpt lat="44.72166" lon="4.14345">
        <ele>870.5</ele>
        <time>2022-06-10T11:22:30Z</time>
      </trkpt>
      <trkpt lat="44.72159" lon="4.14339">
        <ele>870</ele>
        <time>2022-06-10T11:22:31Z</time>
      </trkpt>
      <trkpt lat="44.72153" lon="4.14333">
        <ele>869.5</ele>
        <time>2022-06-10T11:22:32Z</time>
      </trkpt>
      <trkpt lat="44.72147" lon="4.14326">
        <ele>869.1</ele>
        <time>2022-06-10T11:22:33Z</time>
      </trkpt>
      <trkpt lat="44.7214" lon="4.14322">
        <ele>868.7</ele>
        <time>2022-06-10T11:22:34Z</time>
      </trkpt>
      <trkpt lat="44.72133" lon="4.1432">
        <ele>868.3</ele>
        <time>2022-06-10T11:22:35Z</time>
      </trkpt>
      <trkpt lat="44.72126" lon="4.14318">
        <ele>867.9</ele>
        <time>2022-06-10T11:22:36Z</time>
      </trkpt>
      <trkpt lat="44.72119" lon="4.14317">
        <ele>867.6</ele>
        <time>2022-06-10T11:22:37Z</time>
      </trkpt>
      <trkpt lat="44.72113" lon="4.14318">
        <ele>867.2</ele>
        <time>2022-06-10T11:22:38Z</time>
      </trkpt>
      <trkpt lat="44.72108" lon="4.14322">
        <ele>866.9</ele>
        <time>2022-06-10T11:22:39Z</time>
      </trkpt>
      <trkpt lat="44.72104" lon="4.14329">
        <ele>866.5</ele>
        <time>2022-06-10T11:22:40Z</time>
      </trkpt>
      <trkpt lat="44.72101" lon="4.14337">
        <ele>866.2</ele>
        <time>2022-06-10T11:22:41Z</time>
      </trkpt>
      <trkpt lat="44.72101" lon="4.14346">
        <ele>865.9</ele>
        <time>2022-06-10T11:22:42Z</time>
      </trkpt>
      <trkpt lat="44.721" lon="4.14354">
        <ele>865.5</ele>
        <time>2022-06-10T11:22:43Z</time>
      </trkpt>
      <trkpt lat="44.72097" lon="4.14361">
        <ele>865</ele>
        <time>2022-06-10T11:22:44Z</time>
      </trkpt>
      <trkpt lat="44.72091" lon="4.14363">
        <ele>864.5</ele>
        <time>2022-06-10T11:22:45Z</time>
      </trkpt>
      <trkpt lat="44.72084" lon="4.14363">
        <ele>863.7</ele>
        <time>2022-06-10T11:22:46Z</time>
      </trkpt>
      <trkpt lat="44.72077" lon="4.1436">
        <ele>862.9</ele>
        <time>2022-06-10T11:22:47Z</time>
      </trkpt>
      <trkpt lat="44.72069" lon="4.14358">
        <ele>862.1</ele>
        <time>2022-06-10T11:22:48Z</time>
      </trkpt>
      <trkpt lat="44.72061" lon="4.14359">
        <ele>861.5</ele>
        <time>2022-06-10T11:22:49Z</time>
      </trkpt>
      <trkpt lat="44.72054" lon="4.14361">
        <ele>861.1</ele>
        <time>2022-06-10T11:22:50Z</time>
      </trkpt>
      <trkpt lat="44.72047" lon="4.14364">
        <ele>860.7</ele>
        <time>2022-06-10T11:22:51Z</time>
      </trkpt>
      <trkpt lat="44.72041" lon="4.14369">
        <ele>860.4</ele>
        <time>2022-06-10T11:22:52Z</time>
      </trkpt>
      <trkpt lat="44.72036" lon="4.14372">
        <ele>860.2</ele>
        <time>2022-06-10T11:22:53Z</time>
      </trkpt>
      <trkpt lat="44.72031" lon="4.14374">
        <ele>859.9</ele>
        <time>2022-06-10T11:22:54Z</time>
      </trkpt>
      <trkpt lat="44.72028" lon="4.14375">
        <ele>859.7</ele>
        <time>2022-06-10T11:22:55Z</time>
      </trkpt>
      <trkpt lat="44.72027" lon="4.14375">
        <ele>859.6</ele>
        <time>2022-06-10T11:22:56Z</time>
      </trkpt>
      <trkpt lat="44.72024" lon="4.14375">
        <ele>859.4</ele>
        <time>2022-06-10T11:22:57Z</time>
      </trkpt>
      <trkpt lat="44.72019" lon="4.14373">
        <ele>859</ele>
        <time>2022-06-10T11:22:58Z</time>
      </trkpt>
      <trkpt lat="44.72018" lon="4.14372">
        <ele>858.9</ele>
        <time>2022-06-10T11:22:59Z</time>
      </trkpt>
      <trkpt lat="44.72014" lon="4.14369">
        <ele>858.5</ele>
        <time>2022-06-10T11:23:00Z</time>
      </trkpt>
      <trkpt lat="44.72008" lon="4.14365">
        <ele>857.9</ele>
        <time>2022-06-10T11:23:01Z</time>
      </trkpt>
      <trkpt lat="44.72004" lon="4.14361">
        <ele>857.4</ele>
        <time>2022-06-10T11:23:02Z</time>
      </trkpt>
      <trkpt lat="44.72" lon="4.14358">
        <ele>856.9</ele>
        <time>2022-06-10T11:23:03Z</time>
      </trkpt>
      <trkpt lat="44.71997" lon="4.14359">
        <ele>856.5</ele>
        <time>2022-06-10T11:23:04Z</time>
      </trkpt>
      <trkpt lat="44.71993" lon="4.14356">
        <ele>855.9</ele>
        <time>2022-06-10T11:23:05Z</time>
      </trkpt>
      <trkpt lat="44.71987" lon="4.14353">
        <ele>855.1</ele>
        <time>2022-06-10T11:23:07Z</time>
      </trkpt>
      <trkpt lat="44.71982" lon="4.14351">
        <ele>854.5</ele>
        <time>2022-06-10T11:23:08Z</time>
      </trkpt>
      <trkpt lat="44.71978" lon="4.14349">
        <ele>854</ele>
        <time>2022-06-10T11:23:09Z</time>
      </trkpt>
      <trkpt lat="44.71974" lon="4.14345">
        <ele>853.4</ele>
        <time>2022-06-10T11:23:10Z</time>
      </trkpt>
      <trkpt lat="44.7197" lon="4.14343">
        <ele>853</ele>
        <time>2022-06-10T11:23:11Z</time>
      </trkpt>
      <trkpt lat="44.71959" lon="4.14338">
        <ele>852</ele>
        <time>2022-06-10T11:23:12Z</time>
      </trkpt>
      <trkpt lat="44.71951" lon="4.14333">
        <ele>851.3</ele>
        <time>2022-06-10T11:23:13Z</time>
      </trkpt>
      <trkpt lat="44.71943" lon="4.14334">
        <ele>850.8</ele>
        <time>2022-06-10T11:23:14Z</time>
      </trkpt>
      <trkpt lat="44.71936" lon="4.14334">
        <ele>850.4</ele>
        <time>2022-06-10T11:23:15Z</time>
      </trkpt>
      <trkpt lat="44.71931" lon="4.1433">
        <ele>850</ele>
        <time>2022-06-10T11:23:16Z</time>
      </trkpt>
      <trkpt lat="44.71926" lon="4.14326">
        <ele>849.6</ele>
        <time>2022-06-10T11:23:17Z</time>
      </trkpt>
      <trkpt lat="44.7192" lon="4.14318">
        <ele>849.1</ele>
        <time>2022-06-10T11:23:18Z</time>
      </trkpt>
      <trkpt lat="44.71915" lon="4.1431">
        <ele>848.5</ele>
        <time>2022-06-10T11:23:19Z</time>
      </trkpt>
      <trkpt lat="44.71911" lon="4.143">
        <ele>848</ele>
        <time>2022-06-10T11:23:20Z</time>
      </trkpt>
      <trkpt lat="44.71909" lon="4.14289">
        <ele>847.4</ele>
        <time>2022-06-10T11:23:21Z</time>
      </trkpt>
      <trkpt lat="44.71908" lon="4.14279">
        <ele>846.8</ele>
        <time>2022-06-10T11:23:22Z</time>
      </trkpt>
      <trkpt lat="44.71907" lon="4.1427">
        <ele>846.3</ele>
        <time>2022-06-10T11:23:23Z</time>
      </trkpt>
      <trkpt lat="44.71906" lon="4.14261">
        <ele>845.9</ele>
        <time>2022-06-10T11:23:24Z</time>
      </trkpt>
      <trkpt lat="44.71903" lon="4.14253">
        <ele>845.4</ele>
        <time>2022-06-10T11:23:25Z</time>
      </trkpt>
      <trkpt lat="44.71898" lon="4.14244">
        <ele>844.9</ele>
        <time>2022-06-10T11:23:26Z</time>
      </trkpt>
      <trkpt lat="44.71893" lon="4.14237">
        <ele>844.4</ele>
        <time>2022-06-10T11:23:27Z</time>
      </trkpt>
      <trkpt lat="44.71887" lon="4.14231">
        <ele>844</ele>
        <time>2022-06-10T11:23:28Z</time>
      </trkpt>
      <trkpt lat="44.71882" lon="4.14224">
        <ele>843.5</ele>
        <time>2022-06-10T11:23:29Z</time>
      </trkpt>
      <trkpt lat="44.71878" lon="4.14217">
        <ele>843</ele>
        <time>2022-06-10T11:23:30Z</time>
      </trkpt>
      <trkpt lat="44.71875" lon="4.14208">
        <ele>842.5</ele>
        <time>2022-06-10T11:23:31Z</time>
      </trkpt>
      <trkpt lat="44.71874" lon="4.14199">
        <ele>842</ele>
        <time>2022-06-10T11:23:32Z</time>
      </trkpt>
      <trkpt lat="44.71872" lon="4.14192">
        <ele>841.6</ele>
        <time>2022-06-10T11:23:33Z</time>
      </trkpt>
      <trkpt lat="44.71867" lon="4.14187">
        <ele>841.2</ele>
        <time>2022-06-10T11:23:34Z</time>
      </trkpt>
      <trkpt lat="44.71861" lon="4.14184">
        <ele>840.7</ele>
        <time>2022-06-10T11:23:35Z</time>
      </trkpt>
      <trkpt lat="44.71854" lon="4.14185">
        <ele>840.1</ele>
        <time>2022-06-10T11:23:36Z</time>
      </trkpt>
      <trkpt lat="44.71847" lon="4.14189">
        <ele>839.5</ele>
        <time>2022-06-10T11:23:37Z</time>
      </trkpt>
      <trkpt lat="44.71842" lon="4.14196">
        <ele>838.8</ele>
        <time>2022-06-10T11:23:38Z</time>
      </trkpt>
      <trkpt lat="44.71839" lon="4.14204">
        <ele>838.2</ele>
        <time>2022-06-10T11:23:39Z</time>
      </trkpt>
      <trkpt lat="44.71835" lon="4.14213">
        <ele>837.7</ele>
        <time>2022-06-10T11:23:40Z</time>
      </trkpt>
      <trkpt lat="44.7183" lon="4.14221">
        <ele>837.1</ele>
        <time>2022-06-10T11:23:41Z</time>
      </trkpt>
      <trkpt lat="44.71826" lon="4.14229">
        <ele>836.5</ele>
        <time>2022-06-10T11:23:42Z</time>
      </trkpt>
      <trkpt lat="44.71822" lon="4.14236">
        <ele>836</ele>
        <time>2022-06-10T11:23:43Z</time>
      </trkpt>
      <trkpt lat="44.71817" lon="4.1424">
        <ele>835.5</ele>
        <time>2022-06-10T11:23:44Z</time>
      </trkpt>
      <trkpt lat="44.71812" lon="4.1424">
        <ele>835</ele>
        <time>2022-06-10T11:23:45Z</time>
      </trkpt>
      <trkpt lat="44.71807" lon="4.14236">
        <ele>834.5</ele>
        <time>2022-06-10T11:23:46Z</time>
      </trkpt>
      <trkpt lat="44.71803" lon="4.14229">
        <ele>834</ele>
        <time>2022-06-10T11:23:47Z</time>
      </trkpt>
      <trkpt lat="44.71798" lon="4.14222">
        <ele>833.5</ele>
        <time>2022-06-10T11:23:48Z</time>
      </trkpt>
      <trkpt lat="44.71794" lon="4.14215">
        <ele>833</ele>
        <time>2022-06-10T11:23:49Z</time>
      </trkpt>
      <trkpt lat="44.7179" lon="4.14208">
        <ele>832.5</ele>
        <time>2022-06-10T11:23:50Z</time>
      </trkpt>
      <trkpt lat="44.71785" lon="4.14201">
        <ele>832</ele>
        <time>2022-06-10T11:23:51Z</time>
      </trkpt>
      <trkpt lat="44.7178" lon="4.14194">
        <ele>831.6</ele>
        <time>2022-06-10T11:23:52Z</time>
      </trkpt>
      <trkpt lat="44.71775" lon="4.14187">
        <ele>831.1</ele>
        <time>2022-06-10T11:23:53Z</time>
      </trkpt>
      <trkpt lat="44.7177" lon="4.1418">
        <ele>830.6</ele>
        <time>2022-06-10T11:23:54Z</time>
      </trkpt>
      <trkpt lat="44.71766" lon="4.14173">
        <ele>830.1</ele>
        <time>2022-06-10T11:23:55Z</time>
      </trkpt>
      <trkpt lat="44.71761" lon="4.14168">
        <ele>829.7</ele>
        <time>2022-06-10T11:23:56Z</time>
      </trkpt>
      <trkpt lat="44.71756" lon="4.14162">
        <ele>829.2</ele>
        <time>2022-06-10T11:23:57Z</time>
      </trkpt>
      <trkpt lat="44.7175" lon="4.14158">
        <ele>828.7</ele>
        <time>2022-06-10T11:23:58Z</time>
      </trkpt>
      <trkpt lat="44.71744" lon="4.14155">
        <ele>828.2</ele>
        <time>2022-06-10T11:23:59Z</time>
      </trkpt>
      <trkpt lat="44.71736" lon="4.14152">
        <ele>827.7</ele>
        <time>2022-06-10T11:24:00Z</time>
      </trkpt>
      <trkpt lat="44.71729" lon="4.1415">
        <ele>827.2</ele>
        <time>2022-06-10T11:24:01Z</time>
      </trkpt>
      <trkpt lat="44.71723" lon="4.14147">
        <ele>826.8</ele>
        <time>2022-06-10T11:24:02Z</time>
      </trkpt>
      <trkpt lat="44.71719" lon="4.14142">
        <ele>826.4</ele>
        <time>2022-06-10T11:24:03Z</time>
      </trkpt>
      <trkpt lat="44.71716" lon="4.14134">
        <ele>825.9</ele>
        <time>2022-06-10T11:24:04Z</time>
      </trkpt>
      <trkpt lat="44.71715" lon="4.14124">
        <ele>825.4</ele>
        <time>2022-06-10T11:24:05Z</time>
      </trkpt>
      <trkpt lat="44.71715" lon="4.14114">
        <ele>824.8</ele>
        <time>2022-06-10T11:24:06Z</time>
      </trkpt>
      <trkpt lat="44.71715" lon="4.14104">
        <ele>824.2</ele>
        <time>2022-06-10T11:24:07Z</time>
      </trkpt>
      <trkpt lat="44.71715" lon="4.14093">
        <ele>823.7</ele>
        <time>2022-06-10T11:24:08Z</time>
      </trkpt>
      <trkpt lat="44.71716" lon="4.14083">
        <ele>823.2</ele>
        <time>2022-06-10T11:24:09Z</time>
      </trkpt>
      <trkpt lat="44.71719" lon="4.14074">
        <ele>822.7</ele>
        <time>2022-06-10T11:24:10Z</time>
      </trkpt>
      <trkpt lat="44.71722" lon="4.14066">
        <ele>822.4</ele>
        <time>2022-06-10T11:24:11Z</time>
      </trkpt>
      <trkpt lat="44.71723" lon="4.14057">
        <ele>822</ele>
        <time>2022-06-10T11:24:12Z</time>
      </trkpt>
      <trkpt lat="44.71723" lon="4.14048">
        <ele>821.7</ele>
        <time>2022-06-10T11:24:13Z</time>
      </trkpt>
      <trkpt lat="44.71721" lon="4.14038">
        <ele>821.3</ele>
        <time>2022-06-10T11:24:14Z</time>
      </trkpt>
      <trkpt lat="44.71717" lon="4.14031">
        <ele>820.9</ele>
        <time>2022-06-10T11:24:15Z</time>
      </trkpt>
      <trkpt lat="44.71712" lon="4.14026">
        <ele>820.6</ele>
        <time>2022-06-10T11:24:16Z</time>
      </trkpt>
      <trkpt lat="44.71706" lon="4.14024">
        <ele>820.2</ele>
        <time>2022-06-10T11:24:17Z</time>
      </trkpt>
      <trkpt lat="44.717" lon="4.14024">
        <ele>820.2</ele>
        <time>2022-06-10T11:24:18Z</time>
      </trkpt>
      <trkpt lat="44.71694" lon="4.14027">
        <ele>819.4</ele>
        <time>2022-06-10T11:24:19Z</time>
      </trkpt>
      <trkpt lat="44.71689" lon="4.14033">
        <ele>818.2</ele>
        <time>2022-06-10T11:24:20Z</time>
      </trkpt>
      <trkpt lat="44.71684" lon="4.14041">
        <ele>817.1</ele>
        <time>2022-06-10T11:24:21Z</time>
      </trkpt>
      <trkpt lat="44.71679" lon="4.14049">
        <ele>816.1</ele>
        <time>2022-06-10T11:24:22Z</time>
      </trkpt>
      <trkpt lat="44.71674" lon="4.14056">
        <ele>815.2</ele>
        <time>2022-06-10T11:24:23Z</time>
      </trkpt>
      <trkpt lat="44.71668" lon="4.14063">
        <ele>814.3</ele>
        <time>2022-06-10T11:24:24Z</time>
      </trkpt>
      <trkpt lat="44.71662" lon="4.14069">
        <ele>813.4</ele>
        <time>2022-06-10T11:24:25Z</time>
      </trkpt>
      <trkpt lat="44.71655" lon="4.14074">
        <ele>812.4</ele>
        <time>2022-06-10T11:24:26Z</time>
      </trkpt>
      <trkpt lat="44.71648" lon="4.14079">
        <ele>811.5</ele>
        <time>2022-06-10T11:24:27Z</time>
      </trkpt>
      <trkpt lat="44.71642" lon="4.14084">
        <ele>810.7</ele>
        <time>2022-06-10T11:24:28Z</time>
      </trkpt>
      <trkpt lat="44.71635" lon="4.14087">
        <ele>809.9</ele>
        <time>2022-06-10T11:24:29Z</time>
      </trkpt>
      <trkpt lat="44.7163" lon="4.1409">
        <ele>809.2</ele>
        <time>2022-06-10T11:24:30Z</time>
      </trkpt>
      <trkpt lat="44.71624" lon="4.1409">
        <ele>808.5</ele>
        <time>2022-06-10T11:24:31Z</time>
      </trkpt>
      <trkpt lat="44.71619" lon="4.14089">
        <ele>807.7</ele>
        <time>2022-06-10T11:24:32Z</time>
      </trkpt>
      <trkpt lat="44.71614" lon="4.14085">
        <ele>806.9</ele>
        <time>2022-06-10T11:24:33Z</time>
      </trkpt>
      <trkpt lat="44.7161" lon="4.1408">
        <ele>806.1</ele>
        <time>2022-06-10T11:24:34Z</time>
      </trkpt>
      <trkpt lat="44.71606" lon="4.14075">
        <ele>805.3</ele>
        <time>2022-06-10T11:24:35Z</time>
      </trkpt>
      <trkpt lat="44.71602" lon="4.14069">
        <ele>804.4</ele>
        <time>2022-06-10T11:24:36Z</time>
      </trkpt>
      <trkpt lat="44.716" lon="4.14062">
        <ele>803.5</ele>
        <time>2022-06-10T11:24:37Z</time>
      </trkpt>
      <trkpt lat="44.71598" lon="4.14053">
        <ele>802.6</ele>
        <time>2022-06-10T11:24:38Z</time>
      </trkpt>
      <trkpt lat="44.71596" lon="4.14045">
        <ele>801.6</ele>
        <time>2022-06-10T11:24:39Z</time>
      </trkpt>
      <trkpt lat="44.71594" lon="4.14037">
        <ele>800.6</ele>
        <time>2022-06-10T11:24:40Z</time>
      </trkpt>
      <trkpt lat="44.71592" lon="4.14028">
        <ele>799.5</ele>
        <time>2022-06-10T11:24:41Z</time>
      </trkpt>
      <trkpt lat="44.7159" lon="4.14018">
        <ele>798.5</ele>
        <time>2022-06-10T11:24:42Z</time>
      </trkpt>
      <trkpt lat="44.71587" lon="4.14009">
        <ele>797.6</ele>
        <time>2022-06-10T11:24:43Z</time>
      </trkpt>
      <trkpt lat="44.71584" lon="4.13999">
        <ele>796.7</ele>
        <time>2022-06-10T11:24:44Z</time>
      </trkpt>
      <trkpt lat="44.71581" lon="4.13989">
        <ele>795.9</ele>
        <time>2022-06-10T11:24:45Z</time>
      </trkpt>
      <trkpt lat="44.71579" lon="4.13981">
        <ele>795.3</ele>
        <time>2022-06-10T11:24:46Z</time>
      </trkpt>
      <trkpt lat="44.71578" lon="4.13973">
        <ele>794.8</ele>
        <time>2022-06-10T11:24:47Z</time>
      </trkpt>
      <trkpt lat="44.71577" lon="4.13965">
        <ele>794.3</ele>
        <time>2022-06-10T11:24:48Z</time>
      </trkpt>
      <trkpt lat="44.71576" lon="4.13959">
        <ele>794</ele>
        <time>2022-06-10T11:24:49Z</time>
      </trkpt>
      <trkpt lat="44.71575" lon="4.13953">
        <ele>793.6</ele>
        <time>2022-06-10T11:24:50Z</time>
      </trkpt>
      <trkpt lat="44.71574" lon="4.13949">
        <ele>793.3</ele>
        <time>2022-06-10T11:24:51Z</time>
      </trkpt>
      <trkpt lat="44.71573" lon="4.13947">
        <ele>793.2</ele>
        <time>2022-06-10T11:24:52Z</time>
      </trkpt>
      <trkpt lat="44.71572" lon="4.13946">
        <ele>793</ele>
        <time>2022-06-10T11:24:53Z</time>
      </trkpt>
      <trkpt lat="44.71571" lon="4.13945">
        <ele>792.9</ele>
        <time>2022-06-10T11:24:54Z</time>
      </trkpt>
      <trkpt lat="44.7157" lon="4.13945">
        <ele>792.7</ele>
        <time>2022-06-10T11:24:55Z</time>
      </trkpt>
      <trkpt lat="44.71568" lon="4.13945">
        <ele>792.5</ele>
        <time>2022-06-10T11:24:56Z</time>
      </trkpt>
      <trkpt lat="44.71568" lon="4.13945">
        <ele>792.4</ele>
        <time>2022-06-10T11:24:57Z</time>
      </trkpt>
      <trkpt lat="44.71567" lon="4.13945">
        <ele>792.4</ele>
        <time>2022-06-10T11:24:58Z</time>
      </trkpt>
      <trkpt lat="44.71567" lon="4.13946">
        <ele>792.3</ele>
        <time>2022-06-10T11:24:59Z</time>
      </trkpt>
      <trkpt lat="44.71567" lon="4.13946">
        <ele>792.2</ele>
        <time>2022-06-10T11:25:00Z</time>
      </trkpt>
      <trkpt lat="44.71567" lon="4.13947">
        <ele>792.2</ele>
        <time>2022-06-10T11:25:01Z</time>
      </trkpt>
      <trkpt lat="44.71566" lon="4.13947">
        <ele>792.1</ele>
        <time>2022-06-10T11:25:02Z</time>
      </trkpt>
      <trkpt lat="44.71566" lon="4.13946">
        <ele>792.1</ele>
        <time>2022-06-10T11:25:03Z</time>
      </trkpt>
      <trkpt lat="44.71566" lon="4.13946">
        <ele>792</ele>
        <time>2022-06-10T11:25:04Z</time>
      </trkpt>
      <trkpt lat="44.71566" lon="4.13946">
        <ele>792</ele>
        <time>2022-06-10T11:25:05Z</time>
      </trkpt>
      <trkpt lat="44.71566" lon="4.13946">
        <ele>792</ele>
        <time>2022-06-10T11:25:06Z</time>
      </trkpt>
      <trkpt lat="44.71566" lon="4.13946">
        <ele>792</ele>
        <time>2022-06-10T11:25:07Z</time>
      </trkpt>
      <trkpt lat="44.71566" lon="4.13946">
        <ele>791.9</ele>
        <time>2022-06-10T11:25:08Z</time>
      </trkpt>
      <trkpt lat="44.71566" lon="4.13946">
        <ele>791.9</ele>
        <time>2022-06-10T11:25:09Z</time>
      </trkpt>
      <trkpt lat="44.71566" lon="4.13946">
        <ele>791.9</ele>
        <time>2022-06-10T11:25:10Z</time>
      </trkpt>
      <trkpt lat="44.71566" lon="4.13946">
        <ele>791.9</ele>
        <time>2022-06-10T11:25:11Z</time>
      </trkpt>
      <trkpt lat="44.71566" lon="4.13945">
        <ele>791.9</ele>
        <time>2022-06-10T11:25:12Z</time>
      </trkpt>
      <trkpt lat="44.71566" lon="4.13945">
        <ele>791.9</ele>
        <time>2022-06-10T11:25:13Z</time>
      </trkpt>
      <trkpt lat="44.71566" lon="4.13945">
        <ele>791.9</ele>
        <time>2022-06-10T11:25:14Z</time>
      </trkpt>
      <trkpt lat="44.71563" lon="4.13946">
        <ele>791.2</ele>
        <time>2022-06-10T11:25:41Z</time>
      </trkpt>
      <trkpt lat="44.71564" lon="4.13946">
        <ele>791</ele>
        <time>2022-06-10T11:25:42Z</time>
      </trkpt>
      <trkpt lat="44.71563" lon="4.13949">
        <ele>790.6</ele>
        <time>2022-06-10T11:25:43Z</time>
      </trkpt>
      <trkpt lat="44.71563" lon="4.13952">
        <ele>790.2</ele>
        <time>2022-06-10T11:25:45Z</time>
      </trkpt>
      <trkpt lat="44.71562" lon="4.13956">
        <ele>789.4</ele>
        <time>2022-06-10T11:25:46Z</time>
      </trkpt>
      <trkpt lat="44.71561" lon="4.13959">
        <ele>789.1</ele>
        <time>2022-06-10T11:25:47Z</time>
      </trkpt>
      <trkpt lat="44.71561" lon="4.13961">
        <ele>788.7</ele>
        <time>2022-06-10T11:25:48Z</time>
      </trkpt>
      <trkpt lat="44.71562" lon="4.13966">
        <ele>788</ele>
        <time>2022-06-10T11:25:49Z</time>
      </trkpt>
      <trkpt lat="44.71563" lon="4.13971">
        <ele>787.3</ele>
        <time>2022-06-10T11:25:51Z</time>
      </trkpt>
      <trkpt lat="44.71563" lon="4.13973">
        <ele>787.1</ele>
        <time>2022-06-10T11:25:52Z</time>
      </trkpt>
      <trkpt lat="44.71563" lon="4.13977">
        <ele>786.6</ele>
        <time>2022-06-10T11:25:53Z</time>
      </trkpt>
      <trkpt lat="44.71563" lon="4.13981">
        <ele>786</ele>
        <time>2022-06-10T11:25:54Z</time>
      </trkpt>
      <trkpt lat="44.71564" lon="4.13986">
        <ele>785.5</ele>
        <time>2022-06-10T11:25:55Z</time>
      </trkpt>
      <trkpt lat="44.71563" lon="4.13991">
        <ele>784.9</ele>
        <time>2022-06-10T11:25:56Z</time>
      </trkpt>
      <trkpt lat="44.71563" lon="4.13996">
        <ele>784.3</ele>
        <time>2022-06-10T11:25:57Z</time>
      </trkpt>
      <trkpt lat="44.71562" lon="4.14">
        <ele>783.9</ele>
        <time>2022-06-10T11:25:58Z</time>
      </trkpt>
      <trkpt lat="44.71561" lon="4.14004">
        <ele>783.4</ele>
        <time>2022-06-10T11:25:59Z</time>
      </trkpt>
      <trkpt lat="44.71561" lon="4.14008">
        <ele>783</ele>
        <time>2022-06-10T11:26:00Z</time>
      </trkpt>
      <trkpt lat="44.7156" lon="4.1401">
        <ele>782.7</ele>
        <time>2022-06-10T11:26:01Z</time>
      </trkpt>
      <trkpt lat="44.7156" lon="4.14012">
        <ele>782.5</ele>
        <time>2022-06-10T11:26:03Z</time>
      </trkpt>
      <trkpt lat="44.71559" lon="4.14013">
        <ele>782.3</ele>
        <time>2022-06-10T11:26:04Z</time>
      </trkpt>
      <trkpt lat="44.71558" lon="4.14014">
        <ele>782.2</ele>
        <time>2022-06-10T11:26:05Z</time>
      </trkpt>
      <trkpt lat="44.71558" lon="4.14015">
        <ele>782</ele>
        <time>2022-06-10T11:26:06Z</time>
      </trkpt>
      <trkpt lat="44.71558" lon="4.14017">
        <ele>781.8</ele>
        <time>2022-06-10T11:26:07Z</time>
      </trkpt>
      <trkpt lat="44.71558" lon="4.14017">
        <ele>781.7</ele>
        <time>2022-06-10T11:26:08Z</time>
      </trkpt>
      <trkpt lat="44.71559" lon="4.14018">
        <ele>781.6</ele>
        <time>2022-06-10T11:26:09Z</time>
      </trkpt>
      <trkpt lat="44.71559" lon="4.14019">
        <ele>781.5</ele>
        <time>2022-06-10T11:26:10Z</time>
      </trkpt>
      <trkpt lat="44.7156" lon="4.14019">
        <ele>781.4</ele>
        <time>2022-06-10T11:26:11Z</time>
      </trkpt>
      <trkpt lat="44.7156" lon="4.1402">
        <ele>781.3</ele>
        <time>2022-06-10T11:26:12Z</time>
      </trkpt>
      <trkpt lat="44.7156" lon="4.14021">
        <ele>781.2</ele>
        <time>2022-06-10T11:26:13Z</time>
      </trkpt>
      <trkpt lat="44.71561" lon="4.14021">
        <ele>781.1</ele>
        <time>2022-06-10T11:26:14Z</time>
      </trkpt>
      <trkpt lat="44.71561" lon="4.14022">
        <ele>781</ele>
        <time>2022-06-10T11:26:15Z</time>
      </trkpt>
      <trkpt lat="44.71562" lon="4.14023">
        <ele>780.9</ele>
        <time>2022-06-10T11:26:16Z</time>
      </trkpt>
      <trkpt lat="44.71562" lon="4.14024">
        <ele>780.8</ele>
        <time>2022-06-10T11:26:17Z</time>
      </trkpt>
      <trkpt lat="44.71562" lon="4.14024">
        <ele>780.7</ele>
        <time>2022-06-10T11:27:40Z</time>
      </trkpt>
      <trkpt lat="44.71563" lon="4.14025">
        <ele>780.6</ele>
        <time>2022-06-10T11:27:41Z</time>
      </trkpt>
      <trkpt lat="44.71564" lon="4.14031">
        <ele>779.9</ele>
        <time>2022-06-10T11:27:43Z</time>
      </trkpt>
      <trkpt lat="44.71564" lon="4.14035">
        <ele>779.3</ele>
        <time>2022-06-10T11:27:44Z</time>
      </trkpt>
      <trkpt lat="44.71565" lon="4.14039">
        <ele>778.8</ele>
        <time>2022-06-10T11:27:45Z</time>
      </trkpt>
      <trkpt lat="44.71566" lon="4.14045">
        <ele>778.1</ele>
        <time>2022-06-10T11:27:46Z</time>
      </trkpt>
      <trkpt lat="44.71566" lon="4.14046">
        <ele>777.9</ele>
        <time>2022-06-10T11:27:47Z</time>
      </trkpt>
      <trkpt lat="44.71566" lon="4.1405">
        <ele>777.4</ele>
        <time>2022-06-10T11:27:48Z</time>
      </trkpt>
      <trkpt lat="44.71567" lon="4.14054">
        <ele>776.9</ele>
        <time>2022-06-10T11:27:49Z</time>
      </trkpt>
      <trkpt lat="44.71566" lon="4.14066">
        <ele>775.3</ele>
        <time>2022-06-10T11:27:50Z</time>
      </trkpt>
      <trkpt lat="44.71566" lon="4.14072">
        <ele>774.5</ele>
        <time>2022-06-10T11:27:51Z</time>
      </trkpt>
      <trkpt lat="44.71565" lon="4.14079">
        <ele>773.7</ele>
        <time>2022-06-10T11:27:52Z</time>
      </trkpt>
      <trkpt lat="44.71564" lon="4.14085">
        <ele>772.9</ele>
        <time>2022-06-10T11:27:53Z</time>
      </trkpt>
      <trkpt lat="44.71562" lon="4.14091">
        <ele>772.2</ele>
        <time>2022-06-10T11:27:54Z</time>
      </trkpt>
      <trkpt lat="44.71562" lon="4.14095">
        <ele>771.7</ele>
        <time>2022-06-10T11:27:55Z</time>
      </trkpt>
      <trkpt lat="44.7156" lon="4.14101">
        <ele>770.9</ele>
        <time>2022-06-10T11:27:56Z</time>
      </trkpt>
      <trkpt lat="44.71559" lon="4.14109">
        <ele>770</ele>
        <time>2022-06-10T11:27:57Z</time>
      </trkpt>
      <trkpt lat="44.71558" lon="4.14115">
        <ele>769.1</ele>
        <time>2022-06-10T11:27:58Z</time>
      </trkpt>
      <trkpt lat="44.71557" lon="4.14119">
        <ele>769.1</ele>
        <time>2022-06-10T11:27:59Z</time>
      </trkpt>
      <trkpt lat="44.71557" lon="4.14122">
        <ele>769</ele>
        <time>2022-06-10T11:28:00Z</time>
      </trkpt>
      <trkpt lat="44.71559" lon="4.14127">
        <ele>769</ele>
        <time>2022-06-10T11:28:01Z</time>
      </trkpt>
      <trkpt lat="44.71566" lon="4.14133">
        <ele>769.1</ele>
        <time>2022-06-10T11:28:02Z</time>
      </trkpt>
      <trkpt lat="44.71571" lon="4.14137">
        <ele>769.2</ele>
        <time>2022-06-10T11:28:03Z</time>
      </trkpt>
      <trkpt lat="44.71575" lon="4.14141">
        <ele>769.3</ele>
        <time>2022-06-10T11:28:04Z</time>
      </trkpt>
      <trkpt lat="44.7158" lon="4.14145">
        <ele>769.5</ele>
        <time>2022-06-10T11:28:05Z</time>
      </trkpt>
      <trkpt lat="44.71585" lon="4.14149">
        <ele>769.7</ele>
        <time>2022-06-10T11:28:06Z</time>
      </trkpt>
      <trkpt lat="44.7159" lon="4.14153">
        <ele>770</ele>
        <time>2022-06-10T11:28:07Z</time>
      </trkpt>
      <trkpt lat="44.71595" lon="4.14157">
        <ele>770.2</ele>
        <time>2022-06-10T11:28:08Z</time>
      </trkpt>
      <trkpt lat="44.716" lon="4.14161">
        <ele>770.5</ele>
        <time>2022-06-10T11:28:09Z</time>
      </trkpt>
      <trkpt lat="44.71605" lon="4.14165">
        <ele>770.7</ele>
        <time>2022-06-10T11:28:10Z</time>
      </trkpt>
      <trkpt lat="44.7161" lon="4.14167">
        <ele>771</ele>
        <time>2022-06-10T11:28:11Z</time>
      </trkpt>
      <trkpt lat="44.71616" lon="4.14168">
        <ele>771.2</ele>
        <time>2022-06-10T11:28:12Z</time>
      </trkpt>
      <trkpt lat="44.71622" lon="4.14168">
        <ele>771.6</ele>
        <time>2022-06-10T11:28:13Z</time>
      </trkpt>
      <trkpt lat="44.71628" lon="4.1417">
        <ele>774</ele>
        <time>2022-06-10T11:28:14Z</time>
      </trkpt>
      <trkpt lat="44.71633" lon="4.14172">
        <ele>775.9</ele>
        <time>2022-06-10T11:28:15Z</time>
      </trkpt>
      <trkpt lat="44.71639" lon="4.14175">
        <ele>775.9</ele>
        <time>2022-06-10T11:28:16Z</time>
      </trkpt>
      <trkpt lat="44.71644" lon="4.14177">
        <ele>776</ele>
        <time>2022-06-10T11:28:17Z</time>
      </trkpt>
      <trkpt lat="44.71649" lon="4.14178">
        <ele>776</ele>
        <time>2022-06-10T11:28:18Z</time>
      </trkpt>
      <trkpt lat="44.71654" lon="4.14178">
        <ele>775.9</ele>
        <time>2022-06-10T11:28:19Z</time>
      </trkpt>
      <trkpt lat="44.7166" lon="4.14177">
        <ele>775.9</ele>
        <time>2022-06-10T11:28:20Z</time>
      </trkpt>
      <trkpt lat="44.71665" lon="4.14175">
        <ele>775.8</ele>
        <time>2022-06-10T11:28:21Z</time>
      </trkpt>
      <trkpt lat="44.7167" lon="4.14172">
        <ele>775.8</ele>
        <time>2022-06-10T11:28:22Z</time>
      </trkpt>
      <trkpt lat="44.71676" lon="4.14172">
        <ele>775.7</ele>
        <time>2022-06-10T11:28:23Z</time>
      </trkpt>
      <trkpt lat="44.71681" lon="4.14174">
        <ele>775.7</ele>
        <time>2022-06-10T11:28:24Z</time>
      </trkpt>
      <trkpt lat="44.71684" lon="4.14178">
        <ele>775.8</ele>
        <time>2022-06-10T11:28:25Z</time>
      </trkpt>
      <trkpt lat="44.71687" lon="4.14184">
        <ele>775.8</ele>
        <time>2022-06-10T11:28:26Z</time>
      </trkpt>
      <trkpt lat="44.7169" lon="4.1419">
        <ele>775.8</ele>
        <time>2022-06-10T11:28:27Z</time>
      </trkpt>
      <trkpt lat="44.71692" lon="4.14197">
        <ele>775.8</ele>
        <time>2022-06-10T11:28:28Z</time>
      </trkpt>
      <trkpt lat="44.71694" lon="4.14202">
        <ele>775.9</ele>
        <time>2022-06-10T11:28:29Z</time>
      </trkpt>
      <trkpt lat="44.71696" lon="4.14206">
        <ele>775.9</ele>
        <time>2022-06-10T11:28:30Z</time>
      </trkpt>
      <trkpt lat="44.71698" lon="4.14209">
        <ele>775.9</ele>
        <time>2022-06-10T11:28:31Z</time>
      </trkpt>
      <trkpt lat="44.717" lon="4.14212">
        <ele>776</ele>
        <time>2022-06-10T11:28:32Z</time>
      </trkpt>
      <trkpt lat="44.71703" lon="4.14216">
        <ele>776</ele>
        <time>2022-06-10T11:28:33Z</time>
      </trkpt>
      <trkpt lat="44.71706" lon="4.1422">
        <ele>776</ele>
        <time>2022-06-10T11:28:34Z</time>
      </trkpt>
      <trkpt lat="44.71709" lon="4.14224">
        <ele>775.9</ele>
        <time>2022-06-10T11:28:35Z</time>
      </trkpt>
      <trkpt lat="44.71712" lon="4.14227">
        <ele>775.9</ele>
        <time>2022-06-10T11:28:36Z</time>
      </trkpt>
      <trkpt lat="44.71712" lon="4.14236">
        <ele>775.7</ele>
        <time>2022-06-10T11:28:37Z</time>
      </trkpt>
      <trkpt lat="44.71713" lon="4.14245">
        <ele>775.6</ele>
        <time>2022-06-10T11:28:38Z</time>
      </trkpt>
      <trkpt lat="44.71713" lon="4.14253">
        <ele>775.6</ele>
        <time>2022-06-10T11:28:39Z</time>
      </trkpt>
      <trkpt lat="44.71713" lon="4.14261">
        <ele>775.6</ele>
        <time>2022-06-10T11:28:40Z</time>
      </trkpt>
      <trkpt lat="44.71713" lon="4.14268">
        <ele>775.6</ele>
        <time>2022-06-10T11:28:41Z</time>
      </trkpt>
      <trkpt lat="44.71714" lon="4.14275">
        <ele>775.6</ele>
        <time>2022-06-10T11:28:42Z</time>
      </trkpt>
      <trkpt lat="44.71714" lon="4.14282">
        <ele>775.5</ele>
        <time>2022-06-10T11:28:43Z</time>
      </trkpt>
      <trkpt lat="44.71715" lon="4.14289">
        <ele>775.7</ele>
        <time>2022-06-10T11:28:44Z</time>
      </trkpt>
      <trkpt lat="44.71716" lon="4.14294">
        <ele>776</ele>
        <time>2022-06-10T11:28:45Z</time>
      </trkpt>
      <trkpt lat="44.71708" lon="4.14303">
        <ele>776.8</ele>
        <time>2022-06-10T11:28:47Z</time>
      </trkpt>
      <trkpt lat="44.71705" lon="4.14303">
        <ele>777</ele>
        <time>2022-06-10T11:28:48Z</time>
      </trkpt>
      <trkpt lat="44.71702" lon="4.14304">
        <ele>777.2</ele>
        <time>2022-06-10T11:28:49Z</time>
      </trkpt>
      <trkpt lat="44.71699" lon="4.14302">
        <ele>777.4</ele>
        <time>2022-06-10T11:28:51Z</time>
      </trkpt>
      <trkpt lat="44.71698" lon="4.14302">
        <ele>777.4</ele>
        <time>2022-06-10T11:28:52Z</time>
      </trkpt>
      <trkpt lat="44.71695" lon="4.14302">
        <ele>777.5</ele>
        <time>2022-06-10T11:28:53Z</time>
      </trkpt>
      <trkpt lat="44.71693" lon="4.14302">
        <ele>777.6</ele>
        <time>2022-06-10T11:28:54Z</time>
      </trkpt>
      <trkpt lat="44.71691" lon="4.14301">
        <ele>777.7</ele>
        <time>2022-06-10T11:28:55Z</time>
      </trkpt>
      <trkpt lat="44.7169" lon="4.14301">
        <ele>777.7</ele>
        <time>2022-06-10T11:28:56Z</time>
      </trkpt>
      <trkpt lat="44.71686" lon="4.14299">
        <ele>777.9</ele>
        <time>2022-06-10T11:28:57Z</time>
      </trkpt>
      <trkpt lat="44.71685" lon="4.14299">
        <ele>777.9</ele>
        <time>2022-06-10T11:28:58Z</time>
      </trkpt>
      <trkpt lat="44.71684" lon="4.14298">
        <ele>778</ele>
        <time>2022-06-10T11:28:59Z</time>
      </trkpt>
      <trkpt lat="44.71681" lon="4.14297">
        <ele>778.1</ele>
        <time>2022-06-10T11:29:01Z</time>
      </trkpt>
      <trkpt lat="44.71679" lon="4.14297">
        <ele>778.2</ele>
        <time>2022-06-10T11:29:02Z</time>
      </trkpt>
      <trkpt lat="44.71678" lon="4.14297">
        <ele>778.3</ele>
        <time>2022-06-10T11:29:03Z</time>
      </trkpt>
      <trkpt lat="44.71677" lon="4.14296">
        <ele>778.3</ele>
        <time>2022-06-10T11:29:04Z</time>
      </trkpt>
      <trkpt lat="44.71675" lon="4.14296">
        <ele>778.4</ele>
        <time>2022-06-10T11:29:05Z</time>
      </trkpt>
      <trkpt lat="44.71673" lon="4.14295">
        <ele>778.5</ele>
        <time>2022-06-10T11:29:06Z</time>
      </trkpt>
      <trkpt lat="44.71671" lon="4.14294">
        <ele>778.7</ele>
        <time>2022-06-10T11:29:07Z</time>
      </trkpt>
      <trkpt lat="44.7167" lon="4.14294">
        <ele>778.7</ele>
        <time>2022-06-10T11:29:08Z</time>
      </trkpt>
      <trkpt lat="44.71668" lon="4.14294">
        <ele>778.8</ele>
        <time>2022-06-10T11:29:09Z</time>
      </trkpt>
      <trkpt lat="44.71667" lon="4.14294">
        <ele>778.9</ele>
        <time>2022-06-10T11:29:10Z</time>
      </trkpt>
      <trkpt lat="44.71665" lon="4.14293">
        <ele>779</ele>
        <time>2022-06-10T11:29:11Z</time>
      </trkpt>
      <trkpt lat="44.71663" lon="4.14293">
        <ele>779.2</ele>
        <time>2022-06-10T11:29:12Z</time>
      </trkpt>
      <trkpt lat="44.71661" lon="4.14292">
        <ele>779.3</ele>
        <time>2022-06-10T11:29:14Z</time>
      </trkpt>
      <trkpt lat="44.7166" lon="4.14292">
        <ele>779.4</ele>
        <time>2022-06-10T11:29:15Z</time>
      </trkpt>
      <trkpt lat="44.71658" lon="4.14292">
        <ele>779.5</ele>
        <time>2022-06-10T11:29:16Z</time>
      </trkpt>
      <trkpt lat="44.71655" lon="4.14291">
        <ele>779.7</ele>
        <time>2022-06-10T11:29:17Z</time>
      </trkpt>
      <trkpt lat="44.71654" lon="4.14291">
        <ele>779.7</ele>
        <time>2022-06-10T11:29:18Z</time>
      </trkpt>
      <trkpt lat="44.71652" lon="4.14291">
        <ele>779.9</ele>
        <time>2022-06-10T11:29:19Z</time>
      </trkpt>
      <trkpt lat="44.71651" lon="4.14291">
        <ele>779.9</ele>
        <time>2022-06-10T11:29:20Z</time>
      </trkpt>
      <trkpt lat="44.7165" lon="4.14292">
        <ele>780</ele>
        <time>2022-06-10T11:29:21Z</time>
      </trkpt>
      <trkpt lat="44.71648" lon="4.14291">
        <ele>780.1</ele>
        <time>2022-06-10T11:29:22Z</time>
      </trkpt>
      <trkpt lat="44.71647" lon="4.1429">
        <ele>780.1</ele>
        <time>2022-06-10T11:29:23Z</time>
      </trkpt>
      <trkpt lat="44.71646" lon="4.1429">
        <ele>780.2</ele>
        <time>2022-06-10T11:29:24Z</time>
      </trkpt>
      <trkpt lat="44.71644" lon="4.1429">
        <ele>780.3</ele>
        <time>2022-06-10T11:29:25Z</time>
      </trkpt>
      <trkpt lat="44.71643" lon="4.1429">
        <ele>780.3</ele>
        <time>2022-06-10T11:29:26Z</time>
      </trkpt>
      <trkpt lat="44.71641" lon="4.1429">
        <ele>780.4</ele>
        <time>2022-06-10T11:29:27Z</time>
      </trkpt>
      <trkpt lat="44.71639" lon="4.14289">
        <ele>780.5</ele>
        <time>2022-06-10T11:29:28Z</time>
      </trkpt>
      <trkpt lat="44.71638" lon="4.14289">
        <ele>780.5</ele>
        <time>2022-06-10T11:29:29Z</time>
      </trkpt>
      <trkpt lat="44.71636" lon="4.1429">
        <ele>780.6</ele>
        <time>2022-06-10T11:29:30Z</time>
      </trkpt>
      <trkpt lat="44.71635" lon="4.1429">
        <ele>780.6</ele>
        <time>2022-06-10T11:29:31Z</time>
      </trkpt>
      <trkpt lat="44.71633" lon="4.1429">
        <ele>780.7</ele>
        <time>2022-06-10T11:29:32Z</time>
      </trkpt>
      <trkpt lat="44.71632" lon="4.14289">
        <ele>780.8</ele>
        <time>2022-06-10T11:29:33Z</time>
      </trkpt>
      <trkpt lat="44.7163" lon="4.14289">
        <ele>780.8</ele>
        <time>2022-06-10T11:29:34Z</time>
      </trkpt>
      <trkpt lat="44.71628" lon="4.1429">
        <ele>780.9</ele>
        <time>2022-06-10T11:29:35Z</time>
      </trkpt>
      <trkpt lat="44.71627" lon="4.1429">
        <ele>780.9</ele>
        <time>2022-06-10T11:29:36Z</time>
      </trkpt>
      <trkpt lat="44.71623" lon="4.1429">
        <ele>781</ele>
        <time>2022-06-10T11:29:37Z</time>
      </trkpt>
      <trkpt lat="44.71621" lon="4.1429">
        <ele>781.1</ele>
        <time>2022-06-10T11:29:38Z</time>
      </trkpt>
      <trkpt lat="44.7162" lon="4.14291">
        <ele>781.2</ele>
        <time>2022-06-10T11:29:39Z</time>
      </trkpt>
      <trkpt lat="44.71616" lon="4.14292">
        <ele>781.3</ele>
        <time>2022-06-10T11:29:41Z</time>
      </trkpt>
      <trkpt lat="44.71614" lon="4.14293">
        <ele>781.3</ele>
        <time>2022-06-10T11:29:42Z</time>
      </trkpt>
      <trkpt lat="44.71612" lon="4.14295">
        <ele>781.4</ele>
        <time>2022-06-10T11:29:43Z</time>
      </trkpt>
      <trkpt lat="44.71611" lon="4.14295">
        <ele>781.5</ele>
        <time>2022-06-10T11:29:44Z</time>
      </trkpt>
      <trkpt lat="44.71608" lon="4.14297">
        <ele>781.6</ele>
        <time>2022-06-10T11:29:46Z</time>
      </trkpt>
      <trkpt lat="44.71607" lon="4.14298">
        <ele>781.6</ele>
        <time>2022-06-10T11:29:47Z</time>
      </trkpt>
      <trkpt lat="44.71605" lon="4.143">
        <ele>781.7</ele>
        <time>2022-06-10T11:29:48Z</time>
      </trkpt>
      <trkpt lat="44.71604" lon="4.143">
        <ele>781.8</ele>
        <time>2022-06-10T11:29:49Z</time>
      </trkpt>
      <trkpt lat="44.71602" lon="4.14301">
        <ele>781.8</ele>
        <time>2022-06-10T11:29:50Z</time>
      </trkpt>
      <trkpt lat="44.71599" lon="4.14301">
        <ele>781.9</ele>
        <time>2022-06-10T11:29:52Z</time>
      </trkpt>
      <trkpt lat="44.71597" lon="4.14301">
        <ele>782</ele>
        <time>2022-06-10T11:29:53Z</time>
      </trkpt>
      <trkpt lat="44.71596" lon="4.14302">
        <ele>782</ele>
        <time>2022-06-10T11:29:54Z</time>
      </trkpt>
      <trkpt lat="44.71593" lon="4.14302">
        <ele>782.1</ele>
        <time>2022-06-10T11:29:55Z</time>
      </trkpt>
      <trkpt lat="44.71592" lon="4.14302">
        <ele>782.1</ele>
        <time>2022-06-10T11:29:56Z</time>
      </trkpt>
      <trkpt lat="44.71588" lon="4.14302">
        <ele>782.2</ele>
        <time>2022-06-10T11:29:57Z</time>
      </trkpt>
      <trkpt lat="44.71587" lon="4.14302">
        <ele>782.3</ele>
        <time>2022-06-10T11:29:58Z</time>
      </trkpt>
      <trkpt lat="44.71586" lon="4.14303">
        <ele>782.3</ele>
        <time>2022-06-10T11:30:00Z</time>
      </trkpt>
      <trkpt lat="44.71582" lon="4.14303">
        <ele>782.4</ele>
        <time>2022-06-10T11:30:01Z</time>
      </trkpt>
      <trkpt lat="44.7158" lon="4.14302">
        <ele>782.5</ele>
        <time>2022-06-10T11:30:03Z</time>
      </trkpt>
      <trkpt lat="44.71577" lon="4.14303">
        <ele>782.7</ele>
        <time>2022-06-10T11:30:04Z</time>
      </trkpt>
      <trkpt lat="44.71575" lon="4.14303">
        <ele>782.7</ele>
        <time>2022-06-10T11:30:05Z</time>
      </trkpt>
      <trkpt lat="44.71571" lon="4.14304">
        <ele>782.9</ele>
        <time>2022-06-10T11:30:07Z</time>
      </trkpt>
      <trkpt lat="44.71569" lon="4.14304">
        <ele>783</ele>
        <time>2022-06-10T11:30:08Z</time>
      </trkpt>
      <trkpt lat="44.71568" lon="4.14304">
        <ele>783.1</ele>
        <time>2022-06-10T11:30:09Z</time>
      </trkpt>
      <trkpt lat="44.71564" lon="4.14304">
        <ele>783.3</ele>
        <time>2022-06-10T11:30:10Z</time>
      </trkpt>
      <trkpt lat="44.71563" lon="4.14304">
        <ele>783.3</ele>
        <time>2022-06-10T11:30:11Z</time>
      </trkpt>
      <trkpt lat="44.71561" lon="4.14304">
        <ele>783.4</ele>
        <time>2022-06-10T11:30:12Z</time>
      </trkpt>
      <trkpt lat="44.71559" lon="4.14305">
        <ele>783.5</ele>
        <time>2022-06-10T11:30:14Z</time>
      </trkpt>
      <trkpt lat="44.71554" lon="4.14306">
        <ele>783.7</ele>
        <time>2022-06-10T11:30:15Z</time>
      </trkpt>
      <trkpt lat="44.71553" lon="4.14306">
        <ele>783.8</ele>
        <time>2022-06-10T11:30:16Z</time>
      </trkpt>
      <trkpt lat="44.7155" lon="4.14306">
        <ele>783.9</ele>
        <time>2022-06-10T11:30:18Z</time>
      </trkpt>
      <trkpt lat="44.71546" lon="4.14305">
        <ele>784</ele>
        <time>2022-06-10T11:30:19Z</time>
      </trkpt>
      <trkpt lat="44.71544" lon="4.14304">
        <ele>784.1</ele>
        <time>2022-06-10T11:30:20Z</time>
      </trkpt>
      <trkpt lat="44.71539" lon="4.14303">
        <ele>784.2</ele>
        <time>2022-06-10T11:30:22Z</time>
      </trkpt>
      <trkpt lat="44.71535" lon="4.14303">
        <ele>784.3</ele>
        <time>2022-06-10T11:30:23Z</time>
      </trkpt>
      <trkpt lat="44.71533" lon="4.14302">
        <ele>784.3</ele>
        <time>2022-06-10T11:30:24Z</time>
      </trkpt>
      <trkpt lat="44.71528" lon="4.14301">
        <ele>784.3</ele>
        <time>2022-06-10T11:30:26Z</time>
      </trkpt>
      <trkpt lat="44.71525" lon="4.143">
        <ele>784.4</ele>
        <time>2022-06-10T11:30:27Z</time>
      </trkpt>
      <trkpt lat="44.71521" lon="4.14299">
        <ele>784.4</ele>
        <time>2022-06-10T11:30:28Z</time>
      </trkpt>
      <trkpt lat="44.71519" lon="4.14298">
        <ele>784.4</ele>
        <time>2022-06-10T11:30:29Z</time>
      </trkpt>
      <trkpt lat="44.71516" lon="4.14297">
        <ele>784.5</ele>
        <time>2022-06-10T11:30:30Z</time>
      </trkpt>
      <trkpt lat="44.71512" lon="4.14296">
        <ele>784.5</ele>
        <time>2022-06-10T11:30:32Z</time>
      </trkpt>
      <trkpt lat="44.71509" lon="4.14295">
        <ele>784.5</ele>
        <time>2022-06-10T11:30:33Z</time>
      </trkpt>
      <trkpt lat="44.71506" lon="4.14294">
        <ele>784.6</ele>
        <time>2022-06-10T11:30:34Z</time>
      </trkpt>
      <trkpt lat="44.71502" lon="4.14294">
        <ele>784.6</ele>
        <time>2022-06-10T11:30:35Z</time>
      </trkpt>
      <trkpt lat="44.71498" lon="4.14295">
        <ele>784.7</ele>
        <time>2022-06-10T11:30:36Z</time>
      </trkpt>
      <trkpt lat="44.71496" lon="4.14295">
        <ele>784.8</ele>
        <time>2022-06-10T11:30:37Z</time>
      </trkpt>
      <trkpt lat="44.71494" lon="4.14297">
        <ele>784.9</ele>
        <time>2022-06-10T11:30:38Z</time>
      </trkpt>
      <trkpt lat="44.71489" lon="4.14299">
        <ele>785</ele>
        <time>2022-06-10T11:30:40Z</time>
      </trkpt>
      <trkpt lat="44.71487" lon="4.143">
        <ele>785.1</ele>
        <time>2022-06-10T11:30:41Z</time>
      </trkpt>
      <trkpt lat="44.71482" lon="4.14301">
        <ele>785.2</ele>
        <time>2022-06-10T11:30:42Z</time>
      </trkpt>
      <trkpt lat="44.71479" lon="4.14302">
        <ele>785.2</ele>
        <time>2022-06-10T11:30:44Z</time>
      </trkpt>
      <trkpt lat="44.71475" lon="4.14303">
        <ele>785.3</ele>
        <time>2022-06-10T11:30:45Z</time>
      </trkpt>
      <trkpt lat="44.71471" lon="4.14303">
        <ele>785.2</ele>
        <time>2022-06-10T11:30:46Z</time>
      </trkpt>
      <trkpt lat="44.71467" lon="4.14304">
        <ele>785.2</ele>
        <time>2022-06-10T11:30:47Z</time>
      </trkpt>
      <trkpt lat="44.71464" lon="4.14303">
        <ele>785.2</ele>
        <time>2022-06-10T11:30:48Z</time>
      </trkpt>
      <trkpt lat="44.71461" lon="4.14303">
        <ele>785.1</ele>
        <time>2022-06-10T11:30:49Z</time>
      </trkpt>
      <trkpt lat="44.71457" lon="4.14302">
        <ele>785.1</ele>
        <time>2022-06-10T11:30:50Z</time>
      </trkpt>
      <trkpt lat="44.71453" lon="4.14299">
        <ele>785.1</ele>
        <time>2022-06-10T11:30:52Z</time>
      </trkpt>
      <trkpt lat="44.71449" lon="4.1429">
        <ele>785</ele>
        <time>2022-06-10T11:30:54Z</time>
      </trkpt>
      <trkpt lat="44.71443" lon="4.14283">
        <ele>785</ele>
        <time>2022-06-10T11:30:55Z</time>
      </trkpt>
      <trkpt lat="44.71439" lon="4.1428">
        <ele>785</ele>
        <time>2022-06-10T11:30:56Z</time>
      </trkpt>
      <trkpt lat="44.71435" lon="4.14278">
        <ele>785.1</ele>
        <time>2022-06-10T11:30:57Z</time>
      </trkpt>
      <trkpt lat="44.71432" lon="4.14276">
        <ele>785.1</ele>
        <time>2022-06-10T11:30:59Z</time>
      </trkpt>
      <trkpt lat="44.71428" lon="4.14273">
        <ele>785.2</ele>
        <time>2022-06-10T11:31:00Z</time>
      </trkpt>
      <trkpt lat="44.71424" lon="4.14272">
        <ele>785.3</ele>
        <time>2022-06-10T11:31:01Z</time>
      </trkpt>
      <trkpt lat="44.7142" lon="4.14271">
        <ele>785.4</ele>
        <time>2022-06-10T11:31:02Z</time>
      </trkpt>
      <trkpt lat="44.71415" lon="4.14271">
        <ele>785.5</ele>
        <time>2022-06-10T11:31:03Z</time>
      </trkpt>
      <trkpt lat="44.7141" lon="4.14272">
        <ele>785.7</ele>
        <time>2022-06-10T11:31:04Z</time>
      </trkpt>
      <trkpt lat="44.71406" lon="4.14274">
        <ele>785.8</ele>
        <time>2022-06-10T11:31:05Z</time>
      </trkpt>
      <trkpt lat="44.71402" lon="4.14275">
        <ele>785.9</ele>
        <time>2022-06-10T11:31:06Z</time>
      </trkpt>
      <trkpt lat="44.71398" lon="4.14276">
        <ele>786.1</ele>
        <time>2022-06-10T11:31:07Z</time>
      </trkpt>
      <trkpt lat="44.71395" lon="4.14278">
        <ele>786.2</ele>
        <time>2022-06-10T11:31:08Z</time>
      </trkpt>
      <trkpt lat="44.71391" lon="4.14279">
        <ele>786.3</ele>
        <time>2022-06-10T11:31:09Z</time>
      </trkpt>
      <trkpt lat="44.71388" lon="4.1428">
        <ele>786.4</ele>
        <time>2022-06-10T11:31:10Z</time>
      </trkpt>
      <trkpt lat="44.71384" lon="4.14281">
        <ele>786.5</ele>
        <time>2022-06-10T11:31:11Z</time>
      </trkpt>
      <trkpt lat="44.7138" lon="4.14282">
        <ele>786.6</ele>
        <time>2022-06-10T11:31:12Z</time>
      </trkpt>
      <trkpt lat="44.71376" lon="4.14283">
        <ele>786.7</ele>
        <time>2022-06-10T11:31:13Z</time>
      </trkpt>
      <trkpt lat="44.71373" lon="4.14283">
        <ele>786.8</ele>
        <time>2022-06-10T11:31:14Z</time>
      </trkpt>
      <trkpt lat="44.7137" lon="4.14283">
        <ele>786.8</ele>
        <time>2022-06-10T11:31:15Z</time>
      </trkpt>
      <trkpt lat="44.71367" lon="4.14282">
        <ele>786.9</ele>
        <time>2022-06-10T11:31:16Z</time>
      </trkpt>
      <trkpt lat="44.71363" lon="4.1428">
        <ele>787</ele>
        <time>2022-06-10T11:31:17Z</time>
      </trkpt>
      <trkpt lat="44.71361" lon="4.14279">
        <ele>787</ele>
        <time>2022-06-10T11:31:18Z</time>
      </trkpt>
      <trkpt lat="44.71357" lon="4.14277">
        <ele>787</ele>
        <time>2022-06-10T11:31:20Z</time>
      </trkpt>
      <trkpt lat="44.71353" lon="4.14275">
        <ele>787.1</ele>
        <time>2022-06-10T11:31:21Z</time>
      </trkpt>
      <trkpt lat="44.7135" lon="4.14274">
        <ele>787.1</ele>
        <time>2022-06-10T11:31:22Z</time>
      </trkpt>
      <trkpt lat="44.71345" lon="4.14274">
        <ele>787.1</ele>
        <time>2022-06-10T11:31:24Z</time>
      </trkpt>
      <trkpt lat="44.71342" lon="4.14276">
        <ele>787.1</ele>
        <time>2022-06-10T11:31:25Z</time>
      </trkpt>
      <trkpt lat="44.71338" lon="4.14284">
        <ele>787</ele>
        <time>2022-06-10T11:31:27Z</time>
      </trkpt>
      <trkpt lat="44.71339" lon="4.14289">
        <ele>786.9</ele>
        <time>2022-06-10T11:31:28Z</time>
      </trkpt>
      <trkpt lat="44.71343" lon="4.14298">
        <ele>786.7</ele>
        <time>2022-06-10T11:31:30Z</time>
      </trkpt>
      <trkpt lat="44.71345" lon="4.14304">
        <ele>786.5</ele>
        <time>2022-06-10T11:31:31Z</time>
      </trkpt>
      <trkpt lat="44.71346" lon="4.14313">
        <ele>786.3</ele>
        <time>2022-06-10T11:31:32Z</time>
      </trkpt>
      <trkpt lat="44.71346" lon="4.14321">
        <ele>786.2</ele>
        <time>2022-06-10T11:31:33Z</time>
      </trkpt>
      <trkpt lat="44.71346" lon="4.14328">
        <ele>786.1</ele>
        <time>2022-06-10T11:31:34Z</time>
      </trkpt>
      <trkpt lat="44.71347" lon="4.14335">
        <ele>786</ele>
        <time>2022-06-10T11:31:35Z</time>
      </trkpt>
      <trkpt lat="44.71348" lon="4.14342">
        <ele>785.9</ele>
        <time>2022-06-10T11:31:36Z</time>
      </trkpt>
      <trkpt lat="44.71351" lon="4.14349">
        <ele>785.8</ele>
        <time>2022-06-10T11:31:37Z</time>
      </trkpt>
      <trkpt lat="44.71354" lon="4.14356">
        <ele>785.6</ele>
        <time>2022-06-10T11:31:38Z</time>
      </trkpt>
      <trkpt lat="44.71357" lon="4.14363">
        <ele>785.5</ele>
        <time>2022-06-10T11:31:39Z</time>
      </trkpt>
      <trkpt lat="44.71359" lon="4.14369">
        <ele>785.4</ele>
        <time>2022-06-10T11:31:40Z</time>
      </trkpt>
      <trkpt lat="44.71362" lon="4.14376">
        <ele>785.3</ele>
        <time>2022-06-10T11:31:41Z</time>
      </trkpt>
      <trkpt lat="44.71365" lon="4.14382">
        <ele>785.2</ele>
        <time>2022-06-10T11:31:42Z</time>
      </trkpt>
      <trkpt lat="44.71367" lon="4.14388">
        <ele>785.1</ele>
        <time>2022-06-10T11:31:43Z</time>
      </trkpt>
      <trkpt lat="44.7137" lon="4.14394">
        <ele>785.1</ele>
        <time>2022-06-10T11:31:44Z</time>
      </trkpt>
      <trkpt lat="44.71372" lon="4.14401">
        <ele>784.9</ele>
        <time>2022-06-10T11:31:45Z</time>
      </trkpt>
      <trkpt lat="44.71374" lon="4.14408">
        <ele>784.8</ele>
        <time>2022-06-10T11:31:46Z</time>
      </trkpt>
      <trkpt lat="44.71375" lon="4.14416">
        <ele>784.7</ele>
        <time>2022-06-10T11:31:47Z</time>
      </trkpt>
      <trkpt lat="44.71376" lon="4.14423">
        <ele>784.7</ele>
        <time>2022-06-10T11:31:48Z</time>
      </trkpt>
      <trkpt lat="44.71375" lon="4.14431">
        <ele>784.6</ele>
        <time>2022-06-10T11:31:49Z</time>
      </trkpt>
      <trkpt lat="44.71373" lon="4.14438">
        <ele>784.5</ele>
        <time>2022-06-10T11:31:50Z</time>
      </trkpt>
      <trkpt lat="44.71371" lon="4.14445">
        <ele>784.4</ele>
        <time>2022-06-10T11:31:51Z</time>
      </trkpt>
      <trkpt lat="44.71369" lon="4.14452">
        <ele>784.4</ele>
        <time>2022-06-10T11:31:52Z</time>
      </trkpt>
      <trkpt lat="44.71367" lon="4.14459">
        <ele>784.3</ele>
        <time>2022-06-10T11:31:53Z</time>
      </trkpt>
      <trkpt lat="44.71366" lon="4.14466">
        <ele>784.2</ele>
        <time>2022-06-10T11:31:54Z</time>
      </trkpt>
      <trkpt lat="44.71366" lon="4.14473">
        <ele>784.1</ele>
        <time>2022-06-10T11:31:55Z</time>
      </trkpt>
      <trkpt lat="44.71368" lon="4.1448">
        <ele>784</ele>
        <time>2022-06-10T11:31:56Z</time>
      </trkpt>
      <trkpt lat="44.71369" lon="4.14487">
        <ele>783.8</ele>
        <time>2022-06-10T11:31:57Z</time>
      </trkpt>
      <trkpt lat="44.71369" lon="4.14494">
        <ele>783.7</ele>
        <time>2022-06-10T11:31:58Z</time>
      </trkpt>
      <trkpt lat="44.71365" lon="4.145">
        <ele>783.5</ele>
        <time>2022-06-10T11:31:59Z</time>
      </trkpt>
      <trkpt lat="44.7136" lon="4.14504">
        <ele>783.4</ele>
        <time>2022-06-10T11:32:00Z</time>
      </trkpt>
      <trkpt lat="44.71354" lon="4.14506">
        <ele>783.2</ele>
        <time>2022-06-10T11:32:01Z</time>
      </trkpt>
      <trkpt lat="44.7135" lon="4.1451">
        <ele>783</ele>
        <time>2022-06-10T11:32:02Z</time>
      </trkpt>
      <trkpt lat="44.71347" lon="4.14515">
        <ele>782.9</ele>
        <time>2022-06-10T11:32:03Z</time>
      </trkpt>
      <trkpt lat="44.71344" lon="4.14522">
        <ele>782.8</ele>
        <time>2022-06-10T11:32:04Z</time>
      </trkpt>
      <trkpt lat="44.71342" lon="4.14528">
        <ele>782.7</ele>
        <time>2022-06-10T11:32:05Z</time>
      </trkpt>
      <trkpt lat="44.71341" lon="4.14536">
        <ele>782.6</ele>
        <time>2022-06-10T11:32:06Z</time>
      </trkpt>
      <trkpt lat="44.71341" lon="4.14543">
        <ele>782.5</ele>
        <time>2022-06-10T11:32:07Z</time>
      </trkpt>
      <trkpt lat="44.7134" lon="4.14551">
        <ele>782.4</ele>
        <time>2022-06-10T11:32:08Z</time>
      </trkpt>
      <trkpt lat="44.71339" lon="4.14558">
        <ele>782.4</ele>
        <time>2022-06-10T11:32:09Z</time>
      </trkpt>
      <trkpt lat="44.71338" lon="4.14566">
        <ele>782.4</ele>
        <time>2022-06-10T11:32:10Z</time>
      </trkpt>
      <trkpt lat="44.71338" lon="4.14573">
        <ele>782.4</ele>
        <time>2022-06-10T11:32:11Z</time>
      </trkpt>
      <trkpt lat="44.71337" lon="4.1458">
        <ele>782.4</ele>
        <time>2022-06-10T11:32:12Z</time>
      </trkpt>
      <trkpt lat="44.71337" lon="4.14587">
        <ele>782.5</ele>
        <time>2022-06-10T11:32:13Z</time>
      </trkpt>
      <trkpt lat="44.71338" lon="4.14594">
        <ele>782.5</ele>
        <time>2022-06-10T11:32:14Z</time>
      </trkpt>
      <trkpt lat="44.71341" lon="4.14601">
        <ele>782.6</ele>
        <time>2022-06-10T11:32:15Z</time>
      </trkpt>
      <trkpt lat="44.71343" lon="4.14607">
        <ele>782.6</ele>
        <time>2022-06-10T11:32:16Z</time>
      </trkpt>
      <trkpt lat="44.71346" lon="4.14613">
        <ele>782.7</ele>
        <time>2022-06-10T11:32:17Z</time>
      </trkpt>
      <trkpt lat="44.71349" lon="4.14619">
        <ele>782.9</ele>
        <time>2022-06-10T11:32:18Z</time>
      </trkpt>
      <trkpt lat="44.7135" lon="4.14625">
        <ele>783</ele>
        <time>2022-06-10T11:32:19Z</time>
      </trkpt>
      <trkpt lat="44.71351" lon="4.14631">
        <ele>783.1</ele>
        <time>2022-06-10T11:32:20Z</time>
      </trkpt>
      <trkpt lat="44.7135" lon="4.14637">
        <ele>783.2</ele>
        <time>2022-06-10T11:32:21Z</time>
      </trkpt>
      <trkpt lat="44.71348" lon="4.14641">
        <ele>783.2</ele>
        <time>2022-06-10T11:32:22Z</time>
      </trkpt>
      <trkpt lat="44.71344" lon="4.14646">
        <ele>783.3</ele>
        <time>2022-06-10T11:32:23Z</time>
      </trkpt>
      <trkpt lat="44.7134" lon="4.14648">
        <ele>783.3</ele>
        <time>2022-06-10T11:32:24Z</time>
      </trkpt>
      <trkpt lat="44.71336" lon="4.14651">
        <ele>783.2</ele>
        <time>2022-06-10T11:32:25Z</time>
      </trkpt>
      <trkpt lat="44.71332" lon="4.14653">
        <ele>783.2</ele>
        <time>2022-06-10T11:32:26Z</time>
      </trkpt>
      <trkpt lat="44.71329" lon="4.14658">
        <ele>783.2</ele>
        <time>2022-06-10T11:32:27Z</time>
      </trkpt>
      <trkpt lat="44.71328" lon="4.14661">
        <ele>783.2</ele>
        <time>2022-06-10T11:32:28Z</time>
      </trkpt>
      <trkpt lat="44.71324" lon="4.14669">
        <ele>783</ele>
        <time>2022-06-10T11:32:30Z</time>
      </trkpt>
      <trkpt lat="44.71319" lon="4.14676">
        <ele>782.8</ele>
        <time>2022-06-10T11:32:31Z</time>
      </trkpt>
      <trkpt lat="44.71317" lon="4.14683">
        <ele>782.6</ele>
        <time>2022-06-10T11:32:32Z</time>
      </trkpt>
      <trkpt lat="44.71314" lon="4.1469">
        <ele>782.3</ele>
        <time>2022-06-10T11:32:33Z</time>
      </trkpt>
      <trkpt lat="44.71311" lon="4.14697">
        <ele>782</ele>
        <time>2022-06-10T11:32:34Z</time>
      </trkpt>
      <trkpt lat="44.71308" lon="4.14703">
        <ele>781.8</ele>
        <time>2022-06-10T11:32:35Z</time>
      </trkpt>
      <trkpt lat="44.71306" lon="4.1471">
        <ele>781.5</ele>
        <time>2022-06-10T11:32:36Z</time>
      </trkpt>
      <trkpt lat="44.71303" lon="4.14718">
        <ele>781.3</ele>
        <time>2022-06-10T11:32:37Z</time>
      </trkpt>
      <trkpt lat="44.713" lon="4.14725">
        <ele>781</ele>
        <time>2022-06-10T11:32:38Z</time>
      </trkpt>
      <trkpt lat="44.71295" lon="4.14729">
        <ele>780.6</ele>
        <time>2022-06-10T11:32:39Z</time>
      </trkpt>
      <trkpt lat="44.71288" lon="4.14732">
        <ele>780.3</ele>
        <time>2022-06-10T11:32:40Z</time>
      </trkpt>
      <trkpt lat="44.71281" lon="4.14733">
        <ele>779.9</ele>
        <time>2022-06-10T11:32:41Z</time>
      </trkpt>
      <trkpt lat="44.71275" lon="4.14733">
        <ele>779.6</ele>
        <time>2022-06-10T11:32:42Z</time>
      </trkpt>
      <trkpt lat="44.71273" lon="4.14739">
        <ele>779.3</ele>
        <time>2022-06-10T11:32:43Z</time>
      </trkpt>
      <trkpt lat="44.71272" lon="4.14743">
        <ele>779</ele>
        <time>2022-06-10T11:32:44Z</time>
      </trkpt>
      <trkpt lat="44.71272" lon="4.14751">
        <ele>778.6</ele>
        <time>2022-06-10T11:32:45Z</time>
      </trkpt>
      <trkpt lat="44.71273" lon="4.14757">
        <ele>778.2</ele>
        <time>2022-06-10T11:32:46Z</time>
      </trkpt>
      <trkpt lat="44.7128" lon="4.14763">
        <ele>777.5</ele>
        <time>2022-06-10T11:32:47Z</time>
      </trkpt>
      <trkpt lat="44.71286" lon="4.14769">
        <ele>776.8</ele>
        <time>2022-06-10T11:32:49Z</time>
      </trkpt>
      <trkpt lat="44.71292" lon="4.14773">
        <ele>776.3</ele>
        <time>2022-06-10T11:32:50Z</time>
      </trkpt>
      <trkpt lat="44.71299" lon="4.14777">
        <ele>775.8</ele>
        <time>2022-06-10T11:32:51Z</time>
      </trkpt>
      <trkpt lat="44.71305" lon="4.14782">
        <ele>775.3</ele>
        <time>2022-06-10T11:32:52Z</time>
      </trkpt>
      <trkpt lat="44.71311" lon="4.14786">
        <ele>774.8</ele>
        <time>2022-06-10T11:32:53Z</time>
      </trkpt>
      <trkpt lat="44.71318" lon="4.14789">
        <ele>774.3</ele>
        <time>2022-06-10T11:32:54Z</time>
      </trkpt>
      <trkpt lat="44.71325" lon="4.14792">
        <ele>773.8</ele>
        <time>2022-06-10T11:32:55Z</time>
      </trkpt>
      <trkpt lat="44.71332" lon="4.14795">
        <ele>773.3</ele>
        <time>2022-06-10T11:32:56Z</time>
      </trkpt>
      <trkpt lat="44.71339" lon="4.14799">
        <ele>772.8</ele>
        <time>2022-06-10T11:32:57Z</time>
      </trkpt>
      <trkpt lat="44.71346" lon="4.14802">
        <ele>772.3</ele>
        <time>2022-06-10T11:32:58Z</time>
      </trkpt>
      <trkpt lat="44.71352" lon="4.14804">
        <ele>771.8</ele>
        <time>2022-06-10T11:32:59Z</time>
      </trkpt>
      <trkpt lat="44.71359" lon="4.14804">
        <ele>771.7</ele>
        <time>2022-06-10T11:33:00Z</time>
      </trkpt>
      <trkpt lat="44.71365" lon="4.14803">
        <ele>771.7</ele>
        <time>2022-06-10T11:33:01Z</time>
      </trkpt>
      <trkpt lat="44.7137" lon="4.14802">
        <ele>771.6</ele>
        <time>2022-06-10T11:33:02Z</time>
      </trkpt>
      <trkpt lat="44.71375" lon="4.14804">
        <ele>771.5</ele>
        <time>2022-06-10T11:33:03Z</time>
      </trkpt>
      <trkpt lat="44.7138" lon="4.1481">
        <ele>771.4</ele>
        <time>2022-06-10T11:33:04Z</time>
      </trkpt>
      <trkpt lat="44.71383" lon="4.14817">
        <ele>771.2</ele>
        <time>2022-06-10T11:33:05Z</time>
      </trkpt>
      <trkpt lat="44.71385" lon="4.14826">
        <ele>771</ele>
        <time>2022-06-10T11:33:06Z</time>
      </trkpt>
      <trkpt lat="44.71387" lon="4.14836">
        <ele>770.9</ele>
        <time>2022-06-10T11:33:07Z</time>
      </trkpt>
      <trkpt lat="44.71389" lon="4.14844">
        <ele>770.8</ele>
        <time>2022-06-10T11:33:08Z</time>
      </trkpt>
      <trkpt lat="44.71393" lon="4.14852">
        <ele>770.7</ele>
        <time>2022-06-10T11:33:09Z</time>
      </trkpt>
      <trkpt lat="44.71398" lon="4.14858">
        <ele>770.6</ele>
        <time>2022-06-10T11:33:10Z</time>
      </trkpt>
      <trkpt lat="44.71403" lon="4.14865">
        <ele>770.4</ele>
        <time>2022-06-10T11:33:11Z</time>
      </trkpt>
      <trkpt lat="44.71408" lon="4.14871">
        <ele>770.2</ele>
        <time>2022-06-10T11:33:12Z</time>
      </trkpt>
      <trkpt lat="44.71412" lon="4.14878">
        <ele>769.9</ele>
        <time>2022-06-10T11:33:13Z</time>
      </trkpt>
      <trkpt lat="44.71417" lon="4.14886">
        <ele>769.7</ele>
        <time>2022-06-10T11:33:14Z</time>
      </trkpt>
      <trkpt lat="44.71421" lon="4.14895">
        <ele>769.6</ele>
        <time>2022-06-10T11:33:15Z</time>
      </trkpt>
      <trkpt lat="44.71425" lon="4.14903">
        <ele>769.4</ele>
        <time>2022-06-10T11:33:16Z</time>
      </trkpt>
      <trkpt lat="44.71429" lon="4.1491">
        <ele>769.2</ele>
        <time>2022-06-10T11:33:17Z</time>
      </trkpt>
      <trkpt lat="44.71435" lon="4.14915">
        <ele>769.2</ele>
        <time>2022-06-10T11:33:18Z</time>
      </trkpt>
      <trkpt lat="44.71441" lon="4.14919">
        <ele>769.1</ele>
        <time>2022-06-10T11:33:19Z</time>
      </trkpt>
      <trkpt lat="44.71446" lon="4.14924">
        <ele>769.1</ele>
        <time>2022-06-10T11:33:20Z</time>
      </trkpt>
      <trkpt lat="44.7145" lon="4.14932">
        <ele>769</ele>
        <time>2022-06-10T11:33:21Z</time>
      </trkpt>
      <trkpt lat="44.71452" lon="4.14941">
        <ele>768.8</ele>
        <time>2022-06-10T11:33:22Z</time>
      </trkpt>
      <trkpt lat="44.71453" lon="4.1495">
        <ele>768.6</ele>
        <time>2022-06-10T11:33:23Z</time>
      </trkpt>
      <trkpt lat="44.71453" lon="4.14959">
        <ele>768.4</ele>
        <time>2022-06-10T11:33:24Z</time>
      </trkpt>
      <trkpt lat="44.71452" lon="4.14969">
        <ele>768.2</ele>
        <time>2022-06-10T11:33:25Z</time>
      </trkpt>
      <trkpt lat="44.71453" lon="4.14978">
        <ele>768</ele>
        <time>2022-06-10T11:33:26Z</time>
      </trkpt>
      <trkpt lat="44.71455" lon="4.14988">
        <ele>767.8</ele>
        <time>2022-06-10T11:33:27Z</time>
      </trkpt>
      <trkpt lat="44.71459" lon="4.14997">
        <ele>767.8</ele>
        <time>2022-06-10T11:33:28Z</time>
      </trkpt>
      <trkpt lat="44.71462" lon="4.15006">
        <ele>767.7</ele>
        <time>2022-06-10T11:33:29Z</time>
      </trkpt>
      <trkpt lat="44.71468" lon="4.15014">
        <ele>767.7</ele>
        <time>2022-06-10T11:33:30Z</time>
      </trkpt>
      <trkpt lat="44.71473" lon="4.15021">
        <ele>767.7</ele>
        <time>2022-06-10T11:33:31Z</time>
      </trkpt>
      <trkpt lat="44.71478" lon="4.15028">
        <ele>767.7</ele>
        <time>2022-06-10T11:33:32Z</time>
      </trkpt>
      <trkpt lat="44.71484" lon="4.15036">
        <ele>767.6</ele>
        <time>2022-06-10T11:33:33Z</time>
      </trkpt>
      <trkpt lat="44.71489" lon="4.15043">
        <ele>767.6</ele>
        <time>2022-06-10T11:33:34Z</time>
      </trkpt>
      <trkpt lat="44.71493" lon="4.15049">
        <ele>767.5</ele>
        <time>2022-06-10T11:33:35Z</time>
      </trkpt>
      <trkpt lat="44.71498" lon="4.15054">
        <ele>767.4</ele>
        <time>2022-06-10T11:33:36Z</time>
      </trkpt>
      <trkpt lat="44.71503" lon="4.1506">
        <ele>767.3</ele>
        <time>2022-06-10T11:33:37Z</time>
      </trkpt>
      <trkpt lat="44.71507" lon="4.15065">
        <ele>767.1</ele>
        <time>2022-06-10T11:33:38Z</time>
      </trkpt>
      <trkpt lat="44.7151" lon="4.1507">
        <ele>767</ele>
        <time>2022-06-10T11:33:39Z</time>
      </trkpt>
      <trkpt lat="44.71512" lon="4.15074">
        <ele>767</ele>
        <time>2022-06-10T11:33:40Z</time>
      </trkpt>
      <trkpt lat="44.71513" lon="4.15083">
        <ele>766.8</ele>
        <time>2022-06-10T11:33:41Z</time>
      </trkpt>
      <trkpt lat="44.7151" lon="4.1509">
        <ele>766.8</ele>
        <time>2022-06-10T11:33:42Z</time>
      </trkpt>
      <trkpt lat="44.71506" lon="4.15094">
        <ele>766.2</ele>
        <time>2022-06-10T11:33:43Z</time>
      </trkpt>
      <trkpt lat="44.71501" lon="4.15095">
        <ele>765.6</ele>
        <time>2022-06-10T11:33:44Z</time>
      </trkpt>
      <trkpt lat="44.71496" lon="4.15096">
        <ele>764.9</ele>
        <time>2022-06-10T11:33:45Z</time>
      </trkpt>
      <trkpt lat="44.7149" lon="4.15096">
        <ele>764.3</ele>
        <time>2022-06-10T11:33:46Z</time>
      </trkpt>
      <trkpt lat="44.71484" lon="4.15097">
        <ele>763.7</ele>
        <time>2022-06-10T11:33:47Z</time>
      </trkpt>
      <trkpt lat="44.71479" lon="4.151">
        <ele>763.1</ele>
        <time>2022-06-10T11:33:48Z</time>
      </trkpt>
      <trkpt lat="44.71473" lon="4.15106">
        <ele>762.4</ele>
        <time>2022-06-10T11:33:49Z</time>
      </trkpt>
      <trkpt lat="44.71469" lon="4.15114">
        <ele>761.7</ele>
        <time>2022-06-10T11:33:50Z</time>
      </trkpt>
      <trkpt lat="44.71465" lon="4.15121">
        <ele>761</ele>
        <time>2022-06-10T11:33:51Z</time>
      </trkpt>
      <trkpt lat="44.7146" lon="4.15129">
        <ele>760.4</ele>
        <time>2022-06-10T11:33:52Z</time>
      </trkpt>
      <trkpt lat="44.71455" lon="4.15137">
        <ele>759.8</ele>
        <time>2022-06-10T11:33:53Z</time>
      </trkpt>
      <trkpt lat="44.7145" lon="4.15145">
        <ele>759.2</ele>
        <time>2022-06-10T11:33:54Z</time>
      </trkpt>
      <trkpt lat="44.71445" lon="4.15153">
        <ele>758.7</ele>
        <time>2022-06-10T11:33:55Z</time>
      </trkpt>
      <trkpt lat="44.71442" lon="4.15159">
        <ele>758.3</ele>
        <time>2022-06-10T11:33:56Z</time>
      </trkpt>
      <trkpt lat="44.71439" lon="4.15163">
        <ele>758</ele>
        <time>2022-06-10T11:33:57Z</time>
      </trkpt>
      <trkpt lat="44.71437" lon="4.15166">
        <ele>757.7</ele>
        <time>2022-06-10T11:33:58Z</time>
      </trkpt>
      <trkpt lat="44.71435" lon="4.15169">
        <ele>757.5</ele>
        <time>2022-06-10T11:33:59Z</time>
      </trkpt>
      <trkpt lat="44.71433" lon="4.15173">
        <ele>757.1</ele>
        <time>2022-06-10T11:34:00Z</time>
      </trkpt>
      <trkpt lat="44.7143" lon="4.15178">
        <ele>756.8</ele>
        <time>2022-06-10T11:34:01Z</time>
      </trkpt>
      <trkpt lat="44.71427" lon="4.15184">
        <ele>756.3</ele>
        <time>2022-06-10T11:34:02Z</time>
      </trkpt>
      <trkpt lat="44.71423" lon="4.1519">
        <ele>755.8</ele>
        <time>2022-06-10T11:34:03Z</time>
      </trkpt>
      <trkpt lat="44.71418" lon="4.15194">
        <ele>755.2</ele>
        <time>2022-06-10T11:34:04Z</time>
      </trkpt>
      <trkpt lat="44.71413" lon="4.15197">
        <ele>754.6</ele>
        <time>2022-06-10T11:34:05Z</time>
      </trkpt>
      <trkpt lat="44.71408" lon="4.15199">
        <ele>754</ele>
        <time>2022-06-10T11:34:06Z</time>
      </trkpt>
      <trkpt lat="44.71402" lon="4.15201">
        <ele>753.4</ele>
        <time>2022-06-10T11:34:07Z</time>
      </trkpt>
      <trkpt lat="44.71396" lon="4.15203">
        <ele>752.7</ele>
        <time>2022-06-10T11:34:08Z</time>
      </trkpt>
      <trkpt lat="44.7139" lon="4.15205">
        <ele>752.2</ele>
        <time>2022-06-10T11:34:09Z</time>
      </trkpt>
      <trkpt lat="44.71383" lon="4.15207">
        <ele>751.7</ele>
        <time>2022-06-10T11:34:10Z</time>
      </trkpt>
      <trkpt lat="44.71377" lon="4.15209">
        <ele>751.2</ele>
        <time>2022-06-10T11:34:11Z</time>
      </trkpt>
      <trkpt lat="44.71371" lon="4.1521">
        <ele>750.9</ele>
        <time>2022-06-10T11:34:12Z</time>
      </trkpt>
      <trkpt lat="44.71366" lon="4.15213">
        <ele>750.5</ele>
        <time>2022-06-10T11:34:13Z</time>
      </trkpt>
      <trkpt lat="44.71361" lon="4.15215">
        <ele>750.2</ele>
        <time>2022-06-10T11:34:14Z</time>
      </trkpt>
      <trkpt lat="44.71355" lon="4.15218">
        <ele>749.7</ele>
        <time>2022-06-10T11:34:15Z</time>
      </trkpt>
      <trkpt lat="44.71349" lon="4.15218">
        <ele>749.2</ele>
        <time>2022-06-10T11:34:16Z</time>
      </trkpt>
      <trkpt lat="44.71344" lon="4.15215">
        <ele>748.6</ele>
        <time>2022-06-10T11:34:17Z</time>
      </trkpt>
      <trkpt lat="44.71339" lon="4.15214">
        <ele>748.1</ele>
        <time>2022-06-10T11:34:18Z</time>
      </trkpt>
      <trkpt lat="44.71333" lon="4.15214">
        <ele>747.5</ele>
        <time>2022-06-10T11:34:19Z</time>
      </trkpt>
      <trkpt lat="44.71327" lon="4.15215">
        <ele>746.7</ele>
        <time>2022-06-10T11:34:20Z</time>
      </trkpt>
      <trkpt lat="44.71321" lon="4.15217">
        <ele>745.9</ele>
        <time>2022-06-10T11:34:21Z</time>
      </trkpt>
      <trkpt lat="44.71315" lon="4.15218">
        <ele>745.1</ele>
        <time>2022-06-10T11:34:22Z</time>
      </trkpt>
      <trkpt lat="44.7131" lon="4.1522">
        <ele>744.5</ele>
        <time>2022-06-10T11:34:23Z</time>
      </trkpt>
      <trkpt lat="44.71305" lon="4.15222">
        <ele>743.9</ele>
        <time>2022-06-10T11:34:24Z</time>
      </trkpt>
      <trkpt lat="44.713" lon="4.15225">
        <ele>743.4</ele>
        <time>2022-06-10T11:34:25Z</time>
      </trkpt>
      <trkpt lat="44.71296" lon="4.15229">
        <ele>742.8</ele>
        <time>2022-06-10T11:34:26Z</time>
      </trkpt>
      <trkpt lat="44.71293" lon="4.15233">
        <ele>742.3</ele>
        <time>2022-06-10T11:34:27Z</time>
      </trkpt>
      <trkpt lat="44.7129" lon="4.15238">
        <ele>741.7</ele>
        <time>2022-06-10T11:34:28Z</time>
      </trkpt>
      <trkpt lat="44.71287" lon="4.15244">
        <ele>741.1</ele>
        <time>2022-06-10T11:34:29Z</time>
      </trkpt>
      <trkpt lat="44.71286" lon="4.1525">
        <ele>740.5</ele>
        <time>2022-06-10T11:34:30Z</time>
      </trkpt>
      <trkpt lat="44.71285" lon="4.15258">
        <ele>739.8</ele>
        <time>2022-06-10T11:34:31Z</time>
      </trkpt>
      <trkpt lat="44.71286" lon="4.15266">
        <ele>739.1</ele>
        <time>2022-06-10T11:34:32Z</time>
      </trkpt>
      <trkpt lat="44.71287" lon="4.15273">
        <ele>738.4</ele>
        <time>2022-06-10T11:34:33Z</time>
      </trkpt>
      <trkpt lat="44.71288" lon="4.15281">
        <ele>737.7</ele>
        <time>2022-06-10T11:34:34Z</time>
      </trkpt>
      <trkpt lat="44.71289" lon="4.1529">
        <ele>737</ele>
        <time>2022-06-10T11:34:35Z</time>
      </trkpt>
      <trkpt lat="44.7129" lon="4.15299">
        <ele>736.4</ele>
        <time>2022-06-10T11:34:36Z</time>
      </trkpt>
      <trkpt lat="44.71289" lon="4.15309">
        <ele>735.8</ele>
        <time>2022-06-10T11:34:37Z</time>
      </trkpt>
      <trkpt lat="44.71289" lon="4.15319">
        <ele>735.2</ele>
        <time>2022-06-10T11:34:38Z</time>
      </trkpt>
      <trkpt lat="44.71287" lon="4.15329">
        <ele>734.5</ele>
        <time>2022-06-10T11:34:39Z</time>
      </trkpt>
      <trkpt lat="44.71287" lon="4.15339">
        <ele>733.7</ele>
        <time>2022-06-10T11:34:40Z</time>
      </trkpt>
      <trkpt lat="44.71287" lon="4.15347">
        <ele>732.8</ele>
        <time>2022-06-10T11:34:41Z</time>
      </trkpt>
      <trkpt lat="44.71287" lon="4.15355">
        <ele>732</ele>
        <time>2022-06-10T11:34:42Z</time>
      </trkpt>
      <trkpt lat="44.71289" lon="4.15363">
        <ele>731.2</ele>
        <time>2022-06-10T11:34:43Z</time>
      </trkpt>
      <trkpt lat="44.71291" lon="4.1537">
        <ele>730.4</ele>
        <time>2022-06-10T11:34:44Z</time>
      </trkpt>
      <trkpt lat="44.71294" lon="4.15378">
        <ele>729.7</ele>
        <time>2022-06-10T11:34:45Z</time>
      </trkpt>
      <trkpt lat="44.71297" lon="4.15386">
        <ele>729</ele>
        <time>2022-06-10T11:34:46Z</time>
      </trkpt>
      <trkpt lat="44.71301" lon="4.15395">
        <ele>728.3</ele>
        <time>2022-06-10T11:34:47Z</time>
      </trkpt>
      <trkpt lat="44.71305" lon="4.15404">
        <ele>727.6</ele>
        <time>2022-06-10T11:34:48Z</time>
      </trkpt>
      <trkpt lat="44.71309" lon="4.15412">
        <ele>727</ele>
        <time>2022-06-10T11:34:49Z</time>
      </trkpt>
      <trkpt lat="44.71313" lon="4.15419">
        <ele>726.4</ele>
        <time>2022-06-10T11:34:50Z</time>
      </trkpt>
      <trkpt lat="44.71314" lon="4.15426">
        <ele>725.9</ele>
        <time>2022-06-10T11:34:51Z</time>
      </trkpt>
      <trkpt lat="44.71315" lon="4.15433">
        <ele>725.4</ele>
        <time>2022-06-10T11:34:52Z</time>
      </trkpt>
      <trkpt lat="44.71314" lon="4.15441">
        <ele>724.6</ele>
        <time>2022-06-10T11:34:53Z</time>
      </trkpt>
      <trkpt lat="44.71313" lon="4.15449">
        <ele>723.9</ele>
        <time>2022-06-10T11:34:54Z</time>
      </trkpt>
      <trkpt lat="44.71313" lon="4.15458">
        <ele>723.1</ele>
        <time>2022-06-10T11:34:55Z</time>
      </trkpt>
      <trkpt lat="44.71313" lon="4.15468">
        <ele>722.4</ele>
        <time>2022-06-10T11:34:56Z</time>
      </trkpt>
      <trkpt lat="44.71312" lon="4.15477">
        <ele>721.7</ele>
        <time>2022-06-10T11:34:57Z</time>
      </trkpt>
      <trkpt lat="44.71311" lon="4.15485">
        <ele>721.1</ele>
        <time>2022-06-10T11:34:58Z</time>
      </trkpt>
      <trkpt lat="44.7131" lon="4.15493">
        <ele>720.4</ele>
        <time>2022-06-10T11:34:59Z</time>
      </trkpt>
      <trkpt lat="44.71309" lon="4.15499">
        <ele>719.8</ele>
        <time>2022-06-10T11:35:00Z</time>
      </trkpt>
      <trkpt lat="44.71307" lon="4.15506">
        <ele>719.2</ele>
        <time>2022-06-10T11:35:01Z</time>
      </trkpt>
      <trkpt lat="44.71306" lon="4.15513">
        <ele>718.6</ele>
        <time>2022-06-10T11:35:02Z</time>
      </trkpt>
      <trkpt lat="44.71304" lon="4.1552">
        <ele>717.9</ele>
        <time>2022-06-10T11:35:03Z</time>
      </trkpt>
      <trkpt lat="44.71302" lon="4.15526">
        <ele>717.2</ele>
        <time>2022-06-10T11:35:04Z</time>
      </trkpt>
      <trkpt lat="44.71299" lon="4.15533">
        <ele>716.5</ele>
        <time>2022-06-10T11:35:05Z</time>
      </trkpt>
      <trkpt lat="44.71296" lon="4.15541">
        <ele>715.6</ele>
        <time>2022-06-10T11:35:06Z</time>
      </trkpt>
      <trkpt lat="44.71294" lon="4.1555">
        <ele>714.7</ele>
        <time>2022-06-10T11:35:07Z</time>
      </trkpt>
      <trkpt lat="44.71292" lon="4.15559">
        <ele>713.8</ele>
        <time>2022-06-10T11:35:08Z</time>
      </trkpt>
      <trkpt lat="44.71291" lon="4.15568">
        <ele>712.9</ele>
        <time>2022-06-10T11:35:09Z</time>
      </trkpt>
      <trkpt lat="44.71291" lon="4.15577">
        <ele>712.2</ele>
        <time>2022-06-10T11:35:10Z</time>
      </trkpt>
      <trkpt lat="44.71291" lon="4.15588">
        <ele>711.4</ele>
        <time>2022-06-10T11:35:11Z</time>
      </trkpt>
      <trkpt lat="44.71292" lon="4.15599">
        <ele>710.7</ele>
        <time>2022-06-10T11:35:12Z</time>
      </trkpt>
      <trkpt lat="44.71292" lon="4.1561">
        <ele>709.8</ele>
        <time>2022-06-10T11:35:13Z</time>
      </trkpt>
      <trkpt lat="44.71291" lon="4.15623">
        <ele>708.9</ele>
        <time>2022-06-10T11:35:14Z</time>
      </trkpt>
      <trkpt lat="44.71289" lon="4.15636">
        <ele>707.9</ele>
        <time>2022-06-10T11:35:15Z</time>
      </trkpt>
      <trkpt lat="44.71286" lon="4.15648">
        <ele>706.8</ele>
        <time>2022-06-10T11:35:16Z</time>
      </trkpt>
      <trkpt lat="44.71284" lon="4.15659">
        <ele>705.8</ele>
        <time>2022-06-10T11:35:17Z</time>
      </trkpt>
      <trkpt lat="44.71281" lon="4.15667">
        <ele>704.8</ele>
        <time>2022-06-10T11:35:18Z</time>
      </trkpt>
      <trkpt lat="44.71278" lon="4.15673">
        <ele>704.2</ele>
        <time>2022-06-10T11:35:19Z</time>
      </trkpt>
      <trkpt lat="44.71276" lon="4.15678">
        <ele>703.5</ele>
        <time>2022-06-10T11:35:20Z</time>
      </trkpt>
      <trkpt lat="44.71275" lon="4.15686">
        <ele>702.8</ele>
        <time>2022-06-10T11:35:21Z</time>
      </trkpt>
      <trkpt lat="44.71275" lon="4.15693">
        <ele>702.2</ele>
        <time>2022-06-10T11:35:22Z</time>
      </trkpt>
      <trkpt lat="44.71274" lon="4.15701">
        <ele>701.6</ele>
        <time>2022-06-10T11:35:23Z</time>
      </trkpt>
      <trkpt lat="44.71272" lon="4.15708">
        <ele>701</ele>
        <time>2022-06-10T11:35:24Z</time>
      </trkpt>
      <trkpt lat="44.7127" lon="4.15715">
        <ele>700.5</ele>
        <time>2022-06-10T11:35:25Z</time>
      </trkpt>
      <trkpt lat="44.71267" lon="4.15721">
        <ele>700</ele>
        <time>2022-06-10T11:35:26Z</time>
      </trkpt>
      <trkpt lat="44.71264" lon="4.15727">
        <ele>699.6</ele>
        <time>2022-06-10T11:35:27Z</time>
      </trkpt>
      <trkpt lat="44.71261" lon="4.15731">
        <ele>699.2</ele>
        <time>2022-06-10T11:35:28Z</time>
      </trkpt>
      <trkpt lat="44.71259" lon="4.15735">
        <ele>699</ele>
        <time>2022-06-10T11:35:29Z</time>
      </trkpt>
      <trkpt lat="44.71258" lon="4.15736">
        <ele>698.8</ele>
        <time>2022-06-10T11:35:30Z</time>
      </trkpt>
      <trkpt lat="44.71255" lon="4.15738">
        <ele>698.6</ele>
        <time>2022-06-10T11:35:31Z</time>
      </trkpt>
      <trkpt lat="44.71251" lon="4.1574">
        <ele>698.3</ele>
        <time>2022-06-10T11:35:32Z</time>
      </trkpt>
      <trkpt lat="44.71248" lon="4.15745">
        <ele>697.9</ele>
        <time>2022-06-10T11:35:33Z</time>
      </trkpt>
      <trkpt lat="44.71243" lon="4.15751">
        <ele>697.4</ele>
        <time>2022-06-10T11:35:34Z</time>
      </trkpt>
      <trkpt lat="44.71239" lon="4.15758">
        <ele>696.9</ele>
        <time>2022-06-10T11:35:35Z</time>
      </trkpt>
      <trkpt lat="44.71236" lon="4.15764">
        <ele>696.5</ele>
        <time>2022-06-10T11:35:36Z</time>
      </trkpt>
      <trkpt lat="44.71234" lon="4.15769">
        <ele>696.1</ele>
        <time>2022-06-10T11:35:37Z</time>
      </trkpt>
      <trkpt lat="44.71232" lon="4.15773">
        <ele>695.9</ele>
        <time>2022-06-10T11:35:38Z</time>
      </trkpt>
      <trkpt lat="44.71232" lon="4.15775">
        <ele>695.8</ele>
        <time>2022-06-10T11:35:39Z</time>
      </trkpt>
      <trkpt lat="44.71232" lon="4.15776">
        <ele>695.7</ele>
        <time>2022-06-10T11:35:40Z</time>
      </trkpt>
      <trkpt lat="44.71225" lon="4.15787">
        <ele>694.9</ele>
        <time>2022-06-10T11:35:41Z</time>
      </trkpt>
      <trkpt lat="44.7122" lon="4.15791">
        <ele>694.5</ele>
        <time>2022-06-10T11:35:42Z</time>
      </trkpt>
      <trkpt lat="44.71216" lon="4.15796">
        <ele>694.2</ele>
        <time>2022-06-10T11:35:43Z</time>
      </trkpt>
      <trkpt lat="44.71211" lon="4.158">
        <ele>693.9</ele>
        <time>2022-06-10T11:35:44Z</time>
      </trkpt>
      <trkpt lat="44.71206" lon="4.15805">
        <ele>693.5</ele>
        <time>2022-06-10T11:35:45Z</time>
      </trkpt>
      <trkpt lat="44.71203" lon="4.1581">
        <ele>693.2</ele>
        <time>2022-06-10T11:35:46Z</time>
      </trkpt>
      <trkpt lat="44.712" lon="4.15816">
        <ele>692.9</ele>
        <time>2022-06-10T11:35:47Z</time>
      </trkpt>
      <trkpt lat="44.71197" lon="4.15823">
        <ele>692.5</ele>
        <time>2022-06-10T11:35:48Z</time>
      </trkpt>
      <trkpt lat="44.71194" lon="4.1583">
        <ele>692.1</ele>
        <time>2022-06-10T11:35:49Z</time>
      </trkpt>
      <trkpt lat="44.71191" lon="4.15836">
        <ele>691.6</ele>
        <time>2022-06-10T11:35:50Z</time>
      </trkpt>
      <trkpt lat="44.71188" lon="4.15842">
        <ele>691.2</ele>
        <time>2022-06-10T11:35:51Z</time>
      </trkpt>
      <trkpt lat="44.71185" lon="4.15849">
        <ele>690.7</ele>
        <time>2022-06-10T11:35:52Z</time>
      </trkpt>
      <trkpt lat="44.71182" lon="4.15857">
        <ele>690.2</ele>
        <time>2022-06-10T11:35:53Z</time>
      </trkpt>
      <trkpt lat="44.71178" lon="4.15866">
        <ele>689.5</ele>
        <time>2022-06-10T11:35:54Z</time>
      </trkpt>
      <trkpt lat="44.71175" lon="4.15875">
        <ele>688.8</ele>
        <time>2022-06-10T11:35:55Z</time>
      </trkpt>
      <trkpt lat="44.71172" lon="4.15885">
        <ele>688.1</ele>
        <time>2022-06-10T11:35:56Z</time>
      </trkpt>
      <trkpt lat="44.71169" lon="4.15895">
        <ele>687.5</ele>
        <time>2022-06-10T11:35:57Z</time>
      </trkpt>
      <trkpt lat="44.71165" lon="4.15906">
        <ele>686.9</ele>
        <time>2022-06-10T11:35:58Z</time>
      </trkpt>
      <trkpt lat="44.71161" lon="4.15916">
        <ele>686.2</ele>
        <time>2022-06-10T11:35:59Z</time>
      </trkpt>
      <trkpt lat="44.71155" lon="4.15925">
        <ele>685.6</ele>
        <time>2022-06-10T11:36:00Z</time>
      </trkpt>
      <trkpt lat="44.71149" lon="4.15933">
        <ele>684.9</ele>
        <time>2022-06-10T11:36:01Z</time>
      </trkpt>
      <trkpt lat="44.71143" lon="4.15941">
        <ele>684.2</ele>
        <time>2022-06-10T11:36:02Z</time>
      </trkpt>
      <trkpt lat="44.71137" lon="4.15948">
        <ele>683.4</ele>
        <time>2022-06-10T11:36:03Z</time>
      </trkpt>
      <trkpt lat="44.71131" lon="4.15955">
        <ele>682.6</ele>
        <time>2022-06-10T11:36:04Z</time>
      </trkpt>
      <trkpt lat="44.71126" lon="4.15963">
        <ele>681.7</ele>
        <time>2022-06-10T11:36:05Z</time>
      </trkpt>
      <trkpt lat="44.71122" lon="4.1597">
        <ele>680.7</ele>
        <time>2022-06-10T11:36:06Z</time>
      </trkpt>
      <trkpt lat="44.71117" lon="4.15978">
        <ele>679.6</ele>
        <time>2022-06-10T11:36:07Z</time>
      </trkpt>
      <trkpt lat="44.71114" lon="4.15986">
        <ele>678.7</ele>
        <time>2022-06-10T11:36:08Z</time>
      </trkpt>
      <trkpt lat="44.71112" lon="4.15993">
        <ele>678.3</ele>
        <time>2022-06-10T11:36:09Z</time>
      </trkpt>
      <trkpt lat="44.71111" lon="4.15997">
        <ele>678.1</ele>
        <time>2022-06-10T11:36:10Z</time>
      </trkpt>
      <trkpt lat="44.71111" lon="4.15998">
        <ele>678.1</ele>
        <time>2022-06-10T11:36:11Z</time>
      </trkpt>
      <trkpt lat="44.71111" lon="4.15997">
        <ele>678.1</ele>
        <time>2022-06-10T11:36:12Z</time>
      </trkpt>
      <trkpt lat="44.71111" lon="4.15997">
        <ele>678</ele>
        <time>2022-06-10T11:36:13Z</time>
      </trkpt>
      <trkpt lat="44.71111" lon="4.15997">
        <ele>678</ele>
        <time>2022-06-10T11:36:14Z</time>
      </trkpt>
      <trkpt lat="44.71112" lon="4.15996">
        <ele>678</ele>
        <time>2022-06-10T11:36:15Z</time>
      </trkpt>
      <trkpt lat="44.71112" lon="4.15996">
        <ele>678</ele>
        <time>2022-06-10T11:36:16Z</time>
      </trkpt>
      <trkpt lat="44.71112" lon="4.15996">
        <ele>678</ele>
        <time>2022-06-10T11:36:17Z</time>
      </trkpt>
      <trkpt lat="44.71112" lon="4.15996">
        <ele>677.9</ele>
        <time>2022-06-10T11:36:18Z</time>
      </trkpt>
      <trkpt lat="44.71112" lon="4.15995">
        <ele>677.9</ele>
        <time>2022-06-10T11:36:19Z</time>
      </trkpt>
      <trkpt lat="44.71112" lon="4.15995">
        <ele>677.9</ele>
        <time>2022-06-10T11:36:20Z</time>
      </trkpt>
      <trkpt lat="44.71113" lon="4.15995">
        <ele>677.9</ele>
        <time>2022-06-10T11:36:21Z</time>
      </trkpt>
      <trkpt lat="44.71113" lon="4.15994">
        <ele>677.8</ele>
        <time>2022-06-10T11:36:23Z</time>
      </trkpt>
      <trkpt lat="44.71113" lon="4.15994">
        <ele>677.8</ele>
        <time>2022-06-10T11:36:24Z</time>
      </trkpt>
      <trkpt lat="44.71113" lon="4.15994">
        <ele>677.8</ele>
        <time>2022-06-10T11:36:25Z</time>
      </trkpt>
      <trkpt lat="44.71113" lon="4.15993">
        <ele>677.8</ele>
        <time>2022-06-10T11:36:26Z</time>
      </trkpt>
      <trkpt lat="44.71114" lon="4.15993">
        <ele>677.8</ele>
        <time>2022-06-10T11:36:27Z</time>
      </trkpt>
      <trkpt lat="44.71114" lon="4.15993">
        <ele>677.8</ele>
        <time>2022-06-10T11:36:28Z</time>
      </trkpt>
      <trkpt lat="44.71115" lon="4.15991">
        <ele>677.6</ele>
        <time>2022-06-10T11:36:29Z</time>
      </trkpt>
      <trkpt lat="44.71116" lon="4.15989">
        <ele>677.5</ele>
        <time>2022-06-10T11:36:30Z</time>
      </trkpt>
      <trkpt lat="44.71116" lon="4.15988">
        <ele>677.4</ele>
        <time>2022-06-10T11:36:31Z</time>
      </trkpt>
      <trkpt lat="44.71117" lon="4.15987">
        <ele>677.4</ele>
        <time>2022-06-10T11:36:32Z</time>
      </trkpt>
      <trkpt lat="44.71116" lon="4.15987">
        <ele>677.4</ele>
        <time>2022-06-10T11:36:33Z</time>
      </trkpt>
      <trkpt lat="44.71116" lon="4.15987">
        <ele>677.4</ele>
        <time>2022-06-10T11:36:34Z</time>
      </trkpt>
      <trkpt lat="44.71116" lon="4.15987">
        <ele>677.4</ele>
        <time>2022-06-10T11:36:35Z</time>
      </trkpt>
      <trkpt lat="44.71116" lon="4.15987">
        <ele>677.4</ele>
        <time>2022-06-10T11:36:36Z</time>
      </trkpt>
      <trkpt lat="44.71116" lon="4.15987">
        <ele>677.3</ele>
        <time>2022-06-10T11:36:37Z</time>
      </trkpt>
      <trkpt lat="44.71117" lon="4.15987">
        <ele>677.3</ele>
        <time>2022-06-10T11:36:39Z</time>
      </trkpt>
      <trkpt lat="44.71117" lon="4.15987">
        <ele>677.3</ele>
        <time>2022-06-10T11:36:40Z</time>
      </trkpt>
      <trkpt lat="44.71116" lon="4.15988">
        <ele>677.2</ele>
        <time>2022-06-10T11:36:41Z</time>
      </trkpt>
      <trkpt lat="44.71116" lon="4.15989">
        <ele>677.2</ele>
        <time>2022-06-10T11:36:42Z</time>
      </trkpt>
      <trkpt lat="44.71116" lon="4.1599">
        <ele>677.2</ele>
        <time>2022-06-10T11:36:43Z</time>
      </trkpt>
      <trkpt lat="44.71115" lon="4.15991">
        <ele>677.1</ele>
        <time>2022-06-10T11:36:44Z</time>
      </trkpt>
      <trkpt lat="44.71115" lon="4.15992">
        <ele>677.1</ele>
        <time>2022-06-10T11:36:45Z</time>
      </trkpt>
      <trkpt lat="44.71114" lon="4.15992">
        <ele>677</ele>
        <time>2022-06-10T11:36:46Z</time>
      </trkpt>
      <trkpt lat="44.71114" lon="4.15993">
        <ele>677</ele>
        <time>2022-06-10T11:36:47Z</time>
      </trkpt>
      <trkpt lat="44.71114" lon="4.15994">
        <ele>676.9</ele>
        <time>2022-06-10T11:36:48Z</time>
      </trkpt>
      <trkpt lat="44.71113" lon="4.15995">
        <ele>676.9</ele>
        <time>2022-06-10T11:36:49Z</time>
      </trkpt>
      <trkpt lat="44.71113" lon="4.15995">
        <ele>676.9</ele>
        <time>2022-06-10T11:36:50Z</time>
      </trkpt>
      <trkpt lat="44.71113" lon="4.15996">
        <ele>676.8</ele>
        <time>2022-06-10T11:36:51Z</time>
      </trkpt>
      <trkpt lat="44.71113" lon="4.15997">
        <ele>676.8</ele>
        <time>2022-06-10T11:36:53Z</time>
      </trkpt>
      <trkpt lat="44.71113" lon="4.15997">
        <ele>676.8</ele>
        <time>2022-06-10T11:36:54Z</time>
      </trkpt>
      <trkpt lat="44.71112" lon="4.15998">
        <ele>676.7</ele>
        <time>2022-06-10T11:36:55Z</time>
      </trkpt>
      <trkpt lat="44.71112" lon="4.15999">
        <ele>676.7</ele>
        <time>2022-06-10T11:36:56Z</time>
      </trkpt>
      <trkpt lat="44.71112" lon="4.15999">
        <ele>676.7</ele>
        <time>2022-06-10T11:36:57Z</time>
      </trkpt>
      <trkpt lat="44.71112" lon="4.16">
        <ele>676.6</ele>
        <time>2022-06-10T11:36:58Z</time>
      </trkpt>
      <trkpt lat="44.71111" lon="4.16001">
        <ele>676.6</ele>
        <time>2022-06-10T11:36:59Z</time>
      </trkpt>
      <trkpt lat="44.71111" lon="4.16001">
        <ele>676.6</ele>
        <time>2022-06-10T11:37:00Z</time>
      </trkpt>
      <trkpt lat="44.71111" lon="4.16002">
        <ele>676.5</ele>
        <time>2022-06-10T11:37:01Z</time>
      </trkpt>
      <trkpt lat="44.71111" lon="4.16002">
        <ele>676.5</ele>
        <time>2022-06-10T11:43:14Z</time>
      </trkpt>
      <trkpt lat="44.7111" lon="4.16003">
        <ele>676.5</ele>
        <time>2022-06-10T11:43:15Z</time>
      </trkpt>
      <trkpt lat="44.7111" lon="4.16004">
        <ele>676.4</ele>
        <time>2022-06-10T11:43:16Z</time>
      </trkpt>
      <trkpt lat="44.71109" lon="4.16007">
        <ele>676.2</ele>
        <time>2022-06-10T11:43:17Z</time>
      </trkpt>
      <trkpt lat="44.71107" lon="4.16011">
        <ele>676</ele>
        <time>2022-06-10T11:43:18Z</time>
      </trkpt>
      <trkpt lat="44.71107" lon="4.16013">
        <ele>675.9</ele>
        <time>2022-06-10T11:43:19Z</time>
      </trkpt>
      <trkpt lat="44.71107" lon="4.16015">
        <ele>675.8</ele>
        <time>2022-06-10T11:43:20Z</time>
      </trkpt>
      <trkpt lat="44.71106" lon="4.1602">
        <ele>675.6</ele>
        <time>2022-06-10T11:43:21Z</time>
      </trkpt>
      <trkpt lat="44.71105" lon="4.16021">
        <ele>675.5</ele>
        <time>2022-06-10T11:43:22Z</time>
      </trkpt>
      <trkpt lat="44.71104" lon="4.16026">
        <ele>675.3</ele>
        <time>2022-06-10T11:43:23Z</time>
      </trkpt>
      <trkpt lat="44.71103" lon="4.16028">
        <ele>675.2</ele>
        <time>2022-06-10T11:43:24Z</time>
      </trkpt>
      <trkpt lat="44.71102" lon="4.16031">
        <ele>675.1</ele>
        <time>2022-06-10T11:43:26Z</time>
      </trkpt>
      <trkpt lat="44.71101" lon="4.16034">
        <ele>674.9</ele>
        <time>2022-06-10T11:43:27Z</time>
      </trkpt>
      <trkpt lat="44.711" lon="4.16037">
        <ele>674.7</ele>
        <time>2022-06-10T11:43:28Z</time>
      </trkpt>
      <trkpt lat="44.71099" lon="4.16037">
        <ele>674.7</ele>
        <time>2022-06-10T11:43:29Z</time>
      </trkpt>
      <trkpt lat="44.71099" lon="4.16038">
        <ele>674.7</ele>
        <time>2022-06-10T11:43:30Z</time>
      </trkpt>
      <trkpt lat="44.71098" lon="4.16041">
        <ele>674.5</ele>
        <time>2022-06-10T11:43:31Z</time>
      </trkpt>
      <trkpt lat="44.71097" lon="4.16043">
        <ele>674.4</ele>
        <time>2022-06-10T11:43:32Z</time>
      </trkpt>
      <trkpt lat="44.71095" lon="4.16048">
        <ele>674.1</ele>
        <time>2022-06-10T11:43:34Z</time>
      </trkpt>
      <trkpt lat="44.71094" lon="4.1605">
        <ele>674</ele>
        <time>2022-06-10T11:43:35Z</time>
      </trkpt>
      <trkpt lat="44.71091" lon="4.16054">
        <ele>673.8</ele>
        <time>2022-06-10T11:43:36Z</time>
      </trkpt>
      <trkpt lat="44.7109" lon="4.16057">
        <ele>673.6</ele>
        <time>2022-06-10T11:43:37Z</time>
      </trkpt>
      <trkpt lat="44.71088" lon="4.16062">
        <ele>673.3</ele>
        <time>2022-06-10T11:43:38Z</time>
      </trkpt>
      <trkpt lat="44.71087" lon="4.16064">
        <ele>673.2</ele>
        <time>2022-06-10T11:43:39Z</time>
      </trkpt>
      <trkpt lat="44.71085" lon="4.16068">
        <ele>672.9</ele>
        <time>2022-06-10T11:43:41Z</time>
      </trkpt>
      <trkpt lat="44.71083" lon="4.16074">
        <ele>672.6</ele>
        <time>2022-06-10T11:43:42Z</time>
      </trkpt>
      <trkpt lat="44.71081" lon="4.1608">
        <ele>672.3</ele>
        <time>2022-06-10T11:43:44Z</time>
      </trkpt>
      <trkpt lat="44.7108" lon="4.16084">
        <ele>672.1</ele>
        <time>2022-06-10T11:43:45Z</time>
      </trkpt>
      <trkpt lat="44.71078" lon="4.16088">
        <ele>671.9</ele>
        <time>2022-06-10T11:43:46Z</time>
      </trkpt>
      <trkpt lat="44.71077" lon="4.16093">
        <ele>671.6</ele>
        <time>2022-06-10T11:43:47Z</time>
      </trkpt>
      <trkpt lat="44.71075" lon="4.16099">
        <ele>671.4</ele>
        <time>2022-06-10T11:43:48Z</time>
      </trkpt>
      <trkpt lat="44.71072" lon="4.16105">
        <ele>671.1</ele>
        <time>2022-06-10T11:43:49Z</time>
      </trkpt>
      <trkpt lat="44.7107" lon="4.16111">
        <ele>670.9</ele>
        <time>2022-06-10T11:43:50Z</time>
      </trkpt>
      <trkpt lat="44.71065" lon="4.1612">
        <ele>670.4</ele>
        <time>2022-06-10T11:43:51Z</time>
      </trkpt>
      <trkpt lat="44.71062" lon="4.16125">
        <ele>670.1</ele>
        <time>2022-06-10T11:43:53Z</time>
      </trkpt>
      <trkpt lat="44.7106" lon="4.16135">
        <ele>669.6</ele>
        <time>2022-06-10T11:43:54Z</time>
      </trkpt>
      <trkpt lat="44.71055" lon="4.16143">
        <ele>668.9</ele>
        <time>2022-06-10T11:43:56Z</time>
      </trkpt>
      <trkpt lat="44.7105" lon="4.16151">
        <ele>668.4</ele>
        <time>2022-06-10T11:43:58Z</time>
      </trkpt>
      <trkpt lat="44.71046" lon="4.16156">
        <ele>668</ele>
        <time>2022-06-10T11:43:59Z</time>
      </trkpt>
      <trkpt lat="44.71042" lon="4.16162">
        <ele>667.6</ele>
        <time>2022-06-10T11:44:00Z</time>
      </trkpt>
      <trkpt lat="44.71038" lon="4.16168">
        <ele>667.2</ele>
        <time>2022-06-10T11:44:01Z</time>
      </trkpt>
      <trkpt lat="44.71034" lon="4.16174">
        <ele>666.7</ele>
        <time>2022-06-10T11:44:02Z</time>
      </trkpt>
      <trkpt lat="44.71029" lon="4.16181">
        <ele>666.2</ele>
        <time>2022-06-10T11:44:03Z</time>
      </trkpt>
      <trkpt lat="44.71024" lon="4.16188">
        <ele>665.7</ele>
        <time>2022-06-10T11:44:04Z</time>
      </trkpt>
      <trkpt lat="44.71019" lon="4.16195">
        <ele>665.2</ele>
        <time>2022-06-10T11:44:05Z</time>
      </trkpt>
      <trkpt lat="44.71014" lon="4.16202">
        <ele>664.6</ele>
        <time>2022-06-10T11:44:06Z</time>
      </trkpt>
      <trkpt lat="44.71009" lon="4.1621">
        <ele>664</ele>
        <time>2022-06-10T11:44:07Z</time>
      </trkpt>
      <trkpt lat="44.71004" lon="4.16217">
        <ele>663.5</ele>
        <time>2022-06-10T11:44:08Z</time>
      </trkpt>
      <trkpt lat="44.70999" lon="4.16221">
        <ele>663.1</ele>
        <time>2022-06-10T11:44:09Z</time>
      </trkpt>
      <trkpt lat="44.70997" lon="4.16224">
        <ele>662.7</ele>
        <time>2022-06-10T11:44:10Z</time>
      </trkpt>
      <trkpt lat="44.70996" lon="4.16224">
        <ele>662.5</ele>
        <time>2022-06-10T11:44:11Z</time>
      </trkpt>
      <trkpt lat="44.70995" lon="4.16225">
        <ele>662.1</ele>
        <time>2022-06-10T11:44:12Z</time>
      </trkpt>
      <trkpt lat="44.70993" lon="4.16227">
        <ele>661.6</ele>
        <time>2022-06-10T11:44:13Z</time>
      </trkpt>
      <trkpt lat="44.70991" lon="4.16229">
        <ele>660.8</ele>
        <time>2022-06-10T11:44:14Z</time>
      </trkpt>
      <trkpt lat="44.70989" lon="4.16231">
        <ele>660</ele>
        <time>2022-06-10T11:44:15Z</time>
      </trkpt>
      <trkpt lat="44.70986" lon="4.16234">
        <ele>658.9</ele>
        <time>2022-06-10T11:44:16Z</time>
      </trkpt>
      <trkpt lat="44.70983" lon="4.16237">
        <ele>657.9</ele>
        <time>2022-06-10T11:44:17Z</time>
      </trkpt>
      <trkpt lat="44.70979" lon="4.16241">
        <ele>657.8</ele>
        <time>2022-06-10T11:44:18Z</time>
      </trkpt>
      <trkpt lat="44.70975" lon="4.16245">
        <ele>657.7</ele>
        <time>2022-06-10T11:44:19Z</time>
      </trkpt>
      <trkpt lat="44.7097" lon="4.16249">
        <ele>657.5</ele>
        <time>2022-06-10T11:44:20Z</time>
      </trkpt>
      <trkpt lat="44.70965" lon="4.16254">
        <ele>657.4</ele>
        <time>2022-06-10T11:44:21Z</time>
      </trkpt>
      <trkpt lat="44.70961" lon="4.16259">
        <ele>657.3</ele>
        <time>2022-06-10T11:44:22Z</time>
      </trkpt>
      <trkpt lat="44.70956" lon="4.16264">
        <ele>657.2</ele>
        <time>2022-06-10T11:44:23Z</time>
      </trkpt>
      <trkpt lat="44.70952" lon="4.1627">
        <ele>657.1</ele>
        <time>2022-06-10T11:44:24Z</time>
      </trkpt>
      <trkpt lat="44.70948" lon="4.16276">
        <ele>657</ele>
        <time>2022-06-10T11:44:25Z</time>
      </trkpt>
      <trkpt lat="44.70944" lon="4.16281">
        <ele>657</ele>
        <time>2022-06-10T11:44:26Z</time>
      </trkpt>
      <trkpt lat="44.70942" lon="4.16285">
        <ele>656.9</ele>
        <time>2022-06-10T11:44:27Z</time>
      </trkpt>
      <trkpt lat="44.70941" lon="4.16286">
        <ele>656.9</ele>
        <time>2022-06-10T11:44:28Z</time>
      </trkpt>
      <trkpt lat="44.70939" lon="4.16287">
        <ele>656.9</ele>
        <time>2022-06-10T11:44:29Z</time>
      </trkpt>
      <trkpt lat="44.70938" lon="4.1629">
        <ele>656.9</ele>
        <time>2022-06-10T11:44:30Z</time>
      </trkpt>
      <trkpt lat="44.70937" lon="4.16291">
        <ele>656.9</ele>
        <time>2022-06-10T11:44:31Z</time>
      </trkpt>
      <trkpt lat="44.70935" lon="4.16295">
        <ele>656.9</ele>
        <time>2022-06-10T11:44:32Z</time>
      </trkpt>
      <trkpt lat="44.70934" lon="4.16297">
        <ele>656.8</ele>
        <time>2022-06-10T11:44:33Z</time>
      </trkpt>
      <trkpt lat="44.70932" lon="4.16301">
        <ele>656.8</ele>
        <time>2022-06-10T11:44:34Z</time>
      </trkpt>
      <trkpt lat="44.70931" lon="4.16305">
        <ele>656.8</ele>
        <time>2022-06-10T11:44:35Z</time>
      </trkpt>
      <trkpt lat="44.70928" lon="4.16309">
        <ele>656.8</ele>
        <time>2022-06-10T11:44:36Z</time>
      </trkpt>
      <trkpt lat="44.70926" lon="4.16313">
        <ele>656.8</ele>
        <time>2022-06-10T11:44:37Z</time>
      </trkpt>
      <trkpt lat="44.70925" lon="4.16317">
        <ele>656.8</ele>
        <time>2022-06-10T11:44:38Z</time>
      </trkpt>
      <trkpt lat="44.70923" lon="4.16322">
        <ele>656.8</ele>
        <time>2022-06-10T11:44:39Z</time>
      </trkpt>
      <trkpt lat="44.70922" lon="4.16326">
        <ele>656.9</ele>
        <time>2022-06-10T11:44:40Z</time>
      </trkpt>
      <trkpt lat="44.7092" lon="4.16332">
        <ele>656.9</ele>
        <time>2022-06-10T11:44:41Z</time>
      </trkpt>
      <trkpt lat="44.70918" lon="4.16337">
        <ele>657</ele>
        <time>2022-06-10T11:44:42Z</time>
      </trkpt>
      <trkpt lat="44.70917" lon="4.16343">
        <ele>657.1</ele>
        <time>2022-06-10T11:44:43Z</time>
      </trkpt>
      <trkpt lat="44.70916" lon="4.16349">
        <ele>657.1</ele>
        <time>2022-06-10T11:44:44Z</time>
      </trkpt>
      <trkpt lat="44.70915" lon="4.16355">
        <ele>657.2</ele>
        <time>2022-06-10T11:44:45Z</time>
      </trkpt>
      <trkpt lat="44.70913" lon="4.16362">
        <ele>657.3</ele>
        <time>2022-06-10T11:44:46Z</time>
      </trkpt>
      <trkpt lat="44.70912" lon="4.16369">
        <ele>657.3</ele>
        <time>2022-06-10T11:44:47Z</time>
      </trkpt>
      <trkpt lat="44.70911" lon="4.16376">
        <ele>657.4</ele>
        <time>2022-06-10T11:44:48Z</time>
      </trkpt>
      <trkpt lat="44.70909" lon="4.16383">
        <ele>657.5</ele>
        <time>2022-06-10T11:44:49Z</time>
      </trkpt>
      <trkpt lat="44.70908" lon="4.1639">
        <ele>657.6</ele>
        <time>2022-06-10T11:44:50Z</time>
      </trkpt>
      <trkpt lat="44.70906" lon="4.16397">
        <ele>657.6</ele>
        <time>2022-06-10T11:44:51Z</time>
      </trkpt>
      <trkpt lat="44.70905" lon="4.16403">
        <ele>657.7</ele>
        <time>2022-06-10T11:44:52Z</time>
      </trkpt>
      <trkpt lat="44.70903" lon="4.1641">
        <ele>657.7</ele>
        <time>2022-06-10T11:44:53Z</time>
      </trkpt>
      <trkpt lat="44.70901" lon="4.16417">
        <ele>657.7</ele>
        <time>2022-06-10T11:44:54Z</time>
      </trkpt>
      <trkpt lat="44.709" lon="4.16424">
        <ele>657.8</ele>
        <time>2022-06-10T11:44:55Z</time>
      </trkpt>
      <trkpt lat="44.70898" lon="4.16431">
        <ele>657.8</ele>
        <time>2022-06-10T11:44:56Z</time>
      </trkpt>
      <trkpt lat="44.70896" lon="4.16438">
        <ele>657.8</ele>
        <time>2022-06-10T11:44:57Z</time>
      </trkpt>
      <trkpt lat="44.70894" lon="4.16446">
        <ele>657.8</ele>
        <time>2022-06-10T11:44:58Z</time>
      </trkpt>
      <trkpt lat="44.70892" lon="4.16453">
        <ele>657.7</ele>
        <time>2022-06-10T11:44:59Z</time>
      </trkpt>
      <trkpt lat="44.7089" lon="4.16461">
        <ele>657.7</ele>
        <time>2022-06-10T11:45:00Z</time>
      </trkpt>
      <trkpt lat="44.70887" lon="4.16469">
        <ele>657.6</ele>
        <time>2022-06-10T11:45:01Z</time>
      </trkpt>
      <trkpt lat="44.70885" lon="4.16477">
        <ele>657.4</ele>
        <time>2022-06-10T11:45:02Z</time>
      </trkpt>
      <trkpt lat="44.70883" lon="4.16486">
        <ele>657.2</ele>
        <time>2022-06-10T11:45:03Z</time>
      </trkpt>
      <trkpt lat="44.70881" lon="4.16495">
        <ele>656.9</ele>
        <time>2022-06-10T11:45:04Z</time>
      </trkpt>
      <trkpt lat="44.7088" lon="4.16503">
        <ele>656.6</ele>
        <time>2022-06-10T11:45:05Z</time>
      </trkpt>
      <trkpt lat="44.70878" lon="4.16511">
        <ele>656.3</ele>
        <time>2022-06-10T11:45:06Z</time>
      </trkpt>
      <trkpt lat="44.70876" lon="4.16519">
        <ele>656</ele>
        <time>2022-06-10T11:45:07Z</time>
      </trkpt>
      <trkpt lat="44.70873" lon="4.16527">
        <ele>655.6</ele>
        <time>2022-06-10T11:45:08Z</time>
      </trkpt>
      <trkpt lat="44.7087" lon="4.16536">
        <ele>655.2</ele>
        <time>2022-06-10T11:45:09Z</time>
      </trkpt>
      <trkpt lat="44.70868" lon="4.16546">
        <ele>654.8</ele>
        <time>2022-06-10T11:45:10Z</time>
      </trkpt>
      <trkpt lat="44.70867" lon="4.16556">
        <ele>654.5</ele>
        <time>2022-06-10T11:45:11Z</time>
      </trkpt>
      <trkpt lat="44.70866" lon="4.16567">
        <ele>654.1</ele>
        <time>2022-06-10T11:45:12Z</time>
      </trkpt>
      <trkpt lat="44.70866" lon="4.16576">
        <ele>653.7</ele>
        <time>2022-06-10T11:45:13Z</time>
      </trkpt>
      <trkpt lat="44.70867" lon="4.16583">
        <ele>653.4</ele>
        <time>2022-06-10T11:45:14Z</time>
      </trkpt>
      <trkpt lat="44.70868" lon="4.16589">
        <ele>653.1</ele>
        <time>2022-06-10T11:45:15Z</time>
      </trkpt>
      <trkpt lat="44.70869" lon="4.16595">
        <ele>652.9</ele>
        <time>2022-06-10T11:45:16Z</time>
      </trkpt>
      <trkpt lat="44.7087" lon="4.16602">
        <ele>652.6</ele>
        <time>2022-06-10T11:45:17Z</time>
      </trkpt>
      <trkpt lat="44.7087" lon="4.16606">
        <ele>652.5</ele>
        <time>2022-06-10T11:45:18Z</time>
      </trkpt>
      <trkpt lat="44.70871" lon="4.16611">
        <ele>652.3</ele>
        <time>2022-06-10T11:45:19Z</time>
      </trkpt>
      <trkpt lat="44.70871" lon="4.16615">
        <ele>652.1</ele>
        <time>2022-06-10T11:45:20Z</time>
      </trkpt>
      <trkpt lat="44.70872" lon="4.1662">
        <ele>651.9</ele>
        <time>2022-06-10T11:45:21Z</time>
      </trkpt>
      <trkpt lat="44.70873" lon="4.16625">
        <ele>651.7</ele>
        <time>2022-06-10T11:45:22Z</time>
      </trkpt>
      <trkpt lat="44.70873" lon="4.16633">
        <ele>651.4</ele>
        <time>2022-06-10T11:45:23Z</time>
      </trkpt>
      <trkpt lat="44.70874" lon="4.16637">
        <ele>651.2</ele>
        <time>2022-06-10T11:45:24Z</time>
      </trkpt>
      <trkpt lat="44.70874" lon="4.16642">
        <ele>651</ele>
        <time>2022-06-10T11:45:25Z</time>
      </trkpt>
      <trkpt lat="44.70875" lon="4.16648">
        <ele>650.7</ele>
        <time>2022-06-10T11:45:26Z</time>
      </trkpt>
      <trkpt lat="44.70876" lon="4.16652">
        <ele>650.5</ele>
        <time>2022-06-10T11:45:27Z</time>
      </trkpt>
      <trkpt lat="44.70877" lon="4.16656">
        <ele>650.3</ele>
        <time>2022-06-10T11:45:28Z</time>
      </trkpt>
      <trkpt lat="44.70878" lon="4.1666">
        <ele>650.1</ele>
        <time>2022-06-10T11:45:29Z</time>
      </trkpt>
      <trkpt lat="44.70879" lon="4.16663">
        <ele>650</ele>
        <time>2022-06-10T11:45:30Z</time>
      </trkpt>
      <trkpt lat="44.70879" lon="4.16669">
        <ele>649.7</ele>
        <time>2022-06-10T11:45:31Z</time>
      </trkpt>
      <trkpt lat="44.7088" lon="4.16673">
        <ele>649.5</ele>
        <time>2022-06-10T11:45:33Z</time>
      </trkpt>
      <trkpt lat="44.7088" lon="4.16674">
        <ele>649.5</ele>
        <time>2022-06-10T11:45:35Z</time>
      </trkpt>
      <trkpt lat="44.7088" lon="4.16675">
        <ele>649.5</ele>
        <time>2022-06-10T11:45:36Z</time>
      </trkpt>
      <trkpt lat="44.7088" lon="4.16676">
        <ele>649.4</ele>
        <time>2022-06-10T11:45:37Z</time>
      </trkpt>
      <trkpt lat="44.7088" lon="4.16676">
        <ele>649.4</ele>
        <time>2022-06-10T11:45:38Z</time>
      </trkpt>
      <trkpt lat="44.7088" lon="4.16677">
        <ele>649.4</ele>
        <time>2022-06-10T11:45:39Z</time>
      </trkpt>
      <trkpt lat="44.7088" lon="4.16678">
        <ele>649.4</ele>
        <time>2022-06-10T11:45:40Z</time>
      </trkpt>
      <trkpt lat="44.7088" lon="4.16679">
        <ele>649.3</ele>
        <time>2022-06-10T11:45:41Z</time>
      </trkpt>
      <trkpt lat="44.7088" lon="4.16679">
        <ele>649.3</ele>
        <time>2022-06-10T11:45:42Z</time>
      </trkpt>
      <trkpt lat="44.7088" lon="4.1668">
        <ele>649.3</ele>
        <time>2022-06-10T11:45:43Z</time>
      </trkpt>
      <trkpt lat="44.7088" lon="4.16681">
        <ele>649.2</ele>
        <time>2022-06-10T11:45:44Z</time>
      </trkpt>
      <trkpt lat="44.7088" lon="4.16682">
        <ele>649.2</ele>
        <time>2022-06-10T11:45:45Z</time>
      </trkpt>
      <trkpt lat="44.7088" lon="4.16682">
        <ele>649.2</ele>
        <time>2022-06-10T11:45:46Z</time>
      </trkpt>
      <trkpt lat="44.7088" lon="4.16683">
        <ele>649.1</ele>
        <time>2022-06-10T11:45:47Z</time>
      </trkpt>
      <trkpt lat="44.7088" lon="4.16684">
        <ele>649.1</ele>
        <time>2022-06-10T11:46:27Z</time>
      </trkpt>
      <trkpt lat="44.7088" lon="4.16685">
        <ele>649.1</ele>
        <time>2022-06-10T11:46:28Z</time>
      </trkpt>
      <trkpt lat="44.7088" lon="4.16685">
        <ele>649</ele>
        <time>2022-06-10T11:46:29Z</time>
      </trkpt>
      <trkpt lat="44.70881" lon="4.16691">
        <ele>648.8</ele>
        <time>2022-06-10T11:46:30Z</time>
      </trkpt>
      <trkpt lat="44.70881" lon="4.16694">
        <ele>648.7</ele>
        <time>2022-06-10T11:46:31Z</time>
      </trkpt>
      <trkpt lat="44.70882" lon="4.16699">
        <ele>648.5</ele>
        <time>2022-06-10T11:46:32Z</time>
      </trkpt>
      <trkpt lat="44.70883" lon="4.16704">
        <ele>648.3</ele>
        <time>2022-06-10T11:46:33Z</time>
      </trkpt>
      <trkpt lat="44.70884" lon="4.16709">
        <ele>648.2</ele>
        <time>2022-06-10T11:46:34Z</time>
      </trkpt>
      <trkpt lat="44.70884" lon="4.16713">
        <ele>648</ele>
        <time>2022-06-10T11:46:35Z</time>
      </trkpt>
      <trkpt lat="44.70885" lon="4.16718">
        <ele>647.9</ele>
        <time>2022-06-10T11:46:36Z</time>
      </trkpt>
      <trkpt lat="44.70885" lon="4.16722">
        <ele>647.8</ele>
        <time>2022-06-10T11:46:37Z</time>
      </trkpt>
      <trkpt lat="44.70885" lon="4.16727">
        <ele>647.7</ele>
        <time>2022-06-10T11:46:38Z</time>
      </trkpt>
      <trkpt lat="44.70885" lon="4.16733">
        <ele>647.5</ele>
        <time>2022-06-10T11:46:39Z</time>
      </trkpt>
      <trkpt lat="44.70884" lon="4.16735">
        <ele>647.5</ele>
        <time>2022-06-10T11:46:40Z</time>
      </trkpt>
      <trkpt lat="44.70883" lon="4.16739">
        <ele>647.4</ele>
        <time>2022-06-10T11:46:41Z</time>
      </trkpt>
      <trkpt lat="44.70883" lon="4.16744">
        <ele>647.3</ele>
        <time>2022-06-10T11:46:42Z</time>
      </trkpt>
      <trkpt lat="44.70882" lon="4.16749">
        <ele>647</ele>
        <time>2022-06-10T11:46:43Z</time>
      </trkpt>
      <trkpt lat="44.70881" lon="4.16754">
        <ele>646.5</ele>
        <time>2022-06-10T11:46:44Z</time>
      </trkpt>
      <trkpt lat="44.7088" lon="4.16759">
        <ele>645.8</ele>
        <time>2022-06-10T11:46:45Z</time>
      </trkpt>
      <trkpt lat="44.70878" lon="4.16764">
        <ele>645.2</ele>
        <time>2022-06-10T11:46:46Z</time>
      </trkpt>
      <trkpt lat="44.70876" lon="4.16769">
        <ele>644.6</ele>
        <time>2022-06-10T11:46:47Z</time>
      </trkpt>
      <trkpt lat="44.70872" lon="4.16774">
        <ele>643.8</ele>
        <time>2022-06-10T11:46:48Z</time>
      </trkpt>
      <trkpt lat="44.70867" lon="4.16778">
        <ele>643</ele>
        <time>2022-06-10T11:46:49Z</time>
      </trkpt>
      <trkpt lat="44.70861" lon="4.16781">
        <ele>642.1</ele>
        <time>2022-06-10T11:46:50Z</time>
      </trkpt>
      <trkpt lat="44.70855" lon="4.16782">
        <ele>641.3</ele>
        <time>2022-06-10T11:46:51Z</time>
      </trkpt>
      <trkpt lat="44.7085" lon="4.16784">
        <ele>640.5</ele>
        <time>2022-06-10T11:46:52Z</time>
      </trkpt>
      <trkpt lat="44.70845" lon="4.16787">
        <ele>639.7</ele>
        <time>2022-06-10T11:46:53Z</time>
      </trkpt>
      <trkpt lat="44.70842" lon="4.16791">
        <ele>639</ele>
        <time>2022-06-10T11:46:54Z</time>
      </trkpt>
      <trkpt lat="44.70839" lon="4.16794">
        <ele>638.5</ele>
        <time>2022-06-10T11:46:55Z</time>
      </trkpt>
      <trkpt lat="44.70838" lon="4.16796">
        <ele>638.2</ele>
        <time>2022-06-10T11:46:56Z</time>
      </trkpt>
      <trkpt lat="44.70835" lon="4.168">
        <ele>637.6</ele>
        <time>2022-06-10T11:46:57Z</time>
      </trkpt>
      <trkpt lat="44.70833" lon="4.16802">
        <ele>637.3</ele>
        <time>2022-06-10T11:46:58Z</time>
      </trkpt>
      <trkpt lat="44.70831" lon="4.16806">
        <ele>636.7</ele>
        <time>2022-06-10T11:46:59Z</time>
      </trkpt>
      <trkpt lat="44.7083" lon="4.16807">
        <ele>636.5</ele>
        <time>2022-06-10T11:47:00Z</time>
      </trkpt>
      <trkpt lat="44.70828" lon="4.1681">
        <ele>636</ele>
        <time>2022-06-10T11:47:01Z</time>
      </trkpt>
      <trkpt lat="44.70827" lon="4.16811">
        <ele>635.9</ele>
        <time>2022-06-10T11:47:02Z</time>
      </trkpt>
      <trkpt lat="44.70826" lon="4.1681">
        <ele>635.8</ele>
        <time>2022-06-10T11:47:03Z</time>
      </trkpt>
      <trkpt lat="44.70826" lon="4.1681">
        <ele>635.8</ele>
        <time>2022-06-10T11:47:04Z</time>
      </trkpt>
      <trkpt lat="44.70826" lon="4.1681">
        <ele>635.8</ele>
        <time>2022-06-10T11:47:05Z</time>
      </trkpt>
      <trkpt lat="44.70824" lon="4.16811">
        <ele>635.4</ele>
        <time>2022-06-10T11:47:06Z</time>
      </trkpt>
      <trkpt lat="44.70823" lon="4.16813">
        <ele>635.3</ele>
        <time>2022-06-10T11:47:08Z</time>
      </trkpt>
      <trkpt lat="44.70823" lon="4.16815">
        <ele>635</ele>
        <time>2022-06-10T11:47:09Z</time>
      </trkpt>
      <trkpt lat="44.70822" lon="4.16816">
        <ele>634.8</ele>
        <time>2022-06-10T11:47:10Z</time>
      </trkpt>
      <trkpt lat="44.7082" lon="4.16818">
        <ele>634.5</ele>
        <time>2022-06-10T11:47:11Z</time>
      </trkpt>
      <trkpt lat="44.70817" lon="4.16821">
        <ele>634</ele>
        <time>2022-06-10T11:47:12Z</time>
      </trkpt>
      <trkpt lat="44.70817" lon="4.16823">
        <ele>633.8</ele>
        <time>2022-06-10T11:47:13Z</time>
      </trkpt>
      <trkpt lat="44.70814" lon="4.16828">
        <ele>633.2</ele>
        <time>2022-06-10T11:47:14Z</time>
      </trkpt>
      <trkpt lat="44.70814" lon="4.16829">
        <ele>633</ele>
        <time>2022-06-10T11:47:15Z</time>
      </trkpt>
      <trkpt lat="44.70812" lon="4.16833">
        <ele>632.6</ele>
        <time>2022-06-10T11:47:16Z</time>
      </trkpt>
      <trkpt lat="44.70809" lon="4.16836">
        <ele>632.1</ele>
        <time>2022-06-10T11:47:17Z</time>
      </trkpt>
      <trkpt lat="44.70807" lon="4.16841">
        <ele>631.5</ele>
        <time>2022-06-10T11:47:18Z</time>
      </trkpt>
      <trkpt lat="44.70805" lon="4.16845">
        <ele>631</ele>
        <time>2022-06-10T11:47:19Z</time>
      </trkpt>
      <trkpt lat="44.70802" lon="4.1685">
        <ele>630.5</ele>
        <time>2022-06-10T11:47:20Z</time>
      </trkpt>
      <trkpt lat="44.70799" lon="4.16854">
        <ele>630</ele>
        <time>2022-06-10T11:47:21Z</time>
      </trkpt>
      <trkpt lat="44.70796" lon="4.16857">
        <ele>629.6</ele>
        <time>2022-06-10T11:47:22Z</time>
      </trkpt>
      <trkpt lat="44.70793" lon="4.16862">
        <ele>629.1</ele>
        <time>2022-06-10T11:47:23Z</time>
      </trkpt>
      <trkpt lat="44.70785" lon="4.16867">
        <ele>628.6</ele>
        <time>2022-06-10T11:47:24Z</time>
      </trkpt>
      <trkpt lat="44.7078" lon="4.16869">
        <ele>628.5</ele>
        <time>2022-06-10T11:47:26Z</time>
      </trkpt>
      <trkpt lat="44.70775" lon="4.1687">
        <ele>628.4</ele>
        <time>2022-06-10T11:47:27Z</time>
      </trkpt>
      <trkpt lat="44.70771" lon="4.16872">
        <ele>628.3</ele>
        <time>2022-06-10T11:47:28Z</time>
      </trkpt>
      <trkpt lat="44.70766" lon="4.16872">
        <ele>628.2</ele>
        <time>2022-06-10T11:47:29Z</time>
      </trkpt>
      <trkpt lat="44.70762" lon="4.16873">
        <ele>628.1</ele>
        <time>2022-06-10T11:47:30Z</time>
      </trkpt>
      <trkpt lat="44.70756" lon="4.16876">
        <ele>628</ele>
        <time>2022-06-10T11:47:31Z</time>
      </trkpt>
      <trkpt lat="44.70754" lon="4.1688">
        <ele>628</ele>
        <time>2022-06-10T11:47:32Z</time>
      </trkpt>
      <trkpt lat="44.7075" lon="4.16883">
        <ele>627.9</ele>
        <time>2022-06-10T11:47:34Z</time>
      </trkpt>
      <trkpt lat="44.70747" lon="4.16887">
        <ele>627.9</ele>
        <time>2022-06-10T11:47:35Z</time>
      </trkpt>
      <trkpt lat="44.70745" lon="4.1689">
        <ele>627.8</ele>
        <time>2022-06-10T11:47:36Z</time>
      </trkpt>
      <trkpt lat="44.70742" lon="4.16894">
        <ele>627.8</ele>
        <time>2022-06-10T11:47:37Z</time>
      </trkpt>
      <trkpt lat="44.70739" lon="4.16898">
        <ele>627.7</ele>
        <time>2022-06-10T11:47:38Z</time>
      </trkpt>
      <trkpt lat="44.70736" lon="4.169">
        <ele>627.7</ele>
        <time>2022-06-10T11:47:40Z</time>
      </trkpt>
      <trkpt lat="44.70734" lon="4.16903">
        <ele>627.6</ele>
        <time>2022-06-10T11:47:41Z</time>
      </trkpt>
      <trkpt lat="44.70731" lon="4.16906">
        <ele>627.6</ele>
        <time>2022-06-10T11:47:42Z</time>
      </trkpt>
      <trkpt lat="44.70729" lon="4.16909">
        <ele>627.5</ele>
        <time>2022-06-10T11:47:43Z</time>
      </trkpt>
      <trkpt lat="44.70723" lon="4.16914">
        <ele>627.3</ele>
        <time>2022-06-10T11:47:44Z</time>
      </trkpt>
      <trkpt lat="44.7072" lon="4.16917">
        <ele>627.1</ele>
        <time>2022-06-10T11:47:46Z</time>
      </trkpt>
      <trkpt lat="44.70717" lon="4.16921">
        <ele>627</ele>
        <time>2022-06-10T11:47:47Z</time>
      </trkpt>
      <trkpt lat="44.70713" lon="4.16926">
        <ele>626.8</ele>
        <time>2022-06-10T11:47:48Z</time>
      </trkpt>
      <trkpt lat="44.70709" lon="4.16931">
        <ele>626.6</ele>
        <time>2022-06-10T11:47:49Z</time>
      </trkpt>
      <trkpt lat="44.70705" lon="4.16936">
        <ele>626.4</ele>
        <time>2022-06-10T11:47:50Z</time>
      </trkpt>
      <trkpt lat="44.70702" lon="4.1694">
        <ele>626.2</ele>
        <time>2022-06-10T11:47:51Z</time>
      </trkpt>
      <trkpt lat="44.70698" lon="4.16946">
        <ele>625.9</ele>
        <time>2022-06-10T11:47:52Z</time>
      </trkpt>
      <trkpt lat="44.70695" lon="4.16951">
        <ele>625.7</ele>
        <time>2022-06-10T11:47:53Z</time>
      </trkpt>
      <trkpt lat="44.70692" lon="4.16957">
        <ele>625.4</ele>
        <time>2022-06-10T11:47:54Z</time>
      </trkpt>
      <trkpt lat="44.70689" lon="4.16964">
        <ele>625.1</ele>
        <time>2022-06-10T11:47:55Z</time>
      </trkpt>
      <trkpt lat="44.70688" lon="4.16971">
        <ele>624.8</ele>
        <time>2022-06-10T11:47:56Z</time>
      </trkpt>
      <trkpt lat="44.70687" lon="4.16978">
        <ele>624.5</ele>
        <time>2022-06-10T11:47:57Z</time>
      </trkpt>
      <trkpt lat="44.70687" lon="4.16986">
        <ele>624.2</ele>
        <time>2022-06-10T11:47:58Z</time>
      </trkpt>
      <trkpt lat="44.70687" lon="4.16994">
        <ele>623.9</ele>
        <time>2022-06-10T11:47:59Z</time>
      </trkpt>
      <trkpt lat="44.70687" lon="4.17002">
        <ele>623.7</ele>
        <time>2022-06-10T11:48:00Z</time>
      </trkpt>
      <trkpt lat="44.70688" lon="4.17011">
        <ele>623.4</ele>
        <time>2022-06-10T11:48:01Z</time>
      </trkpt>
      <trkpt lat="44.70688" lon="4.17019">
        <ele>623.2</ele>
        <time>2022-06-10T11:48:02Z</time>
      </trkpt>
      <trkpt lat="44.70688" lon="4.17027">
        <ele>622.9</ele>
        <time>2022-06-10T11:48:03Z</time>
      </trkpt>
      <trkpt lat="44.70689" lon="4.17035">
        <ele>622.7</ele>
        <time>2022-06-10T11:48:04Z</time>
      </trkpt>
      <trkpt lat="44.7069" lon="4.17043">
        <ele>622.5</ele>
        <time>2022-06-10T11:48:05Z</time>
      </trkpt>
      <trkpt lat="44.70693" lon="4.1705">
        <ele>622.2</ele>
        <time>2022-06-10T11:48:06Z</time>
      </trkpt>
      <trkpt lat="44.70698" lon="4.17057">
        <ele>622</ele>
        <time>2022-06-10T11:48:07Z</time>
      </trkpt>
      <trkpt lat="44.70702" lon="4.17062">
        <ele>621.8</ele>
        <time>2022-06-10T11:48:08Z</time>
      </trkpt>
      <trkpt lat="44.70707" lon="4.17067">
        <ele>621.7</ele>
        <time>2022-06-10T11:48:09Z</time>
      </trkpt>
      <trkpt lat="44.70712" lon="4.17073">
        <ele>621.6</ele>
        <time>2022-06-10T11:48:10Z</time>
      </trkpt>
      <trkpt lat="44.70715" lon="4.17079">
        <ele>621.4</ele>
        <time>2022-06-10T11:48:11Z</time>
      </trkpt>
      <trkpt lat="44.70718" lon="4.17084">
        <ele>621.2</ele>
        <time>2022-06-10T11:48:12Z</time>
      </trkpt>
      <trkpt lat="44.70721" lon="4.1709">
        <ele>620.9</ele>
        <time>2022-06-10T11:48:13Z</time>
      </trkpt>
      <trkpt lat="44.70723" lon="4.17097">
        <ele>620.6</ele>
        <time>2022-06-10T11:48:14Z</time>
      </trkpt>
      <trkpt lat="44.70725" lon="4.17104">
        <ele>620.3</ele>
        <time>2022-06-10T11:48:15Z</time>
      </trkpt>
      <trkpt lat="44.70727" lon="4.17111">
        <ele>620</ele>
        <time>2022-06-10T11:48:16Z</time>
      </trkpt>
      <trkpt lat="44.70729" lon="4.17119">
        <ele>619.6</ele>
        <time>2022-06-10T11:48:17Z</time>
      </trkpt>
      <trkpt lat="44.70731" lon="4.17127">
        <ele>619.3</ele>
        <time>2022-06-10T11:48:18Z</time>
      </trkpt>
      <trkpt lat="44.70731" lon="4.17136">
        <ele>618.9</ele>
        <time>2022-06-10T11:48:19Z</time>
      </trkpt>
      <trkpt lat="44.70729" lon="4.17145">
        <ele>618.5</ele>
        <time>2022-06-10T11:48:20Z</time>
      </trkpt>
      <trkpt lat="44.70727" lon="4.17155">
        <ele>618.1</ele>
        <time>2022-06-10T11:48:21Z</time>
      </trkpt>
      <trkpt lat="44.70724" lon="4.17164">
        <ele>617.8</ele>
        <time>2022-06-10T11:48:22Z</time>
      </trkpt>
      <trkpt lat="44.70722" lon="4.17173">
        <ele>617.5</ele>
        <time>2022-06-10T11:48:23Z</time>
      </trkpt>
      <trkpt lat="44.70719" lon="4.17182">
        <ele>617.3</ele>
        <time>2022-06-10T11:48:24Z</time>
      </trkpt>
      <trkpt lat="44.70716" lon="4.1719">
        <ele>617.2</ele>
        <time>2022-06-10T11:48:25Z</time>
      </trkpt>
      <trkpt lat="44.70714" lon="4.17199">
        <ele>617.1</ele>
        <time>2022-06-10T11:48:26Z</time>
      </trkpt>
      <trkpt lat="44.70712" lon="4.17206">
        <ele>617</ele>
        <time>2022-06-10T11:48:27Z</time>
      </trkpt>
      <trkpt lat="44.70709" lon="4.17213">
        <ele>616.9</ele>
        <time>2022-06-10T11:48:28Z</time>
      </trkpt>
      <trkpt lat="44.70707" lon="4.17221">
        <ele>616.7</ele>
        <time>2022-06-10T11:48:29Z</time>
      </trkpt>
      <trkpt lat="44.70705" lon="4.17228">
        <ele>616.6</ele>
        <time>2022-06-10T11:48:30Z</time>
      </trkpt>
      <trkpt lat="44.70703" lon="4.17235">
        <ele>616.4</ele>
        <time>2022-06-10T11:48:31Z</time>
      </trkpt>
      <trkpt lat="44.70702" lon="4.17243">
        <ele>616.2</ele>
        <time>2022-06-10T11:48:32Z</time>
      </trkpt>
      <trkpt lat="44.70701" lon="4.17252">
        <ele>616.1</ele>
        <time>2022-06-10T11:48:33Z</time>
      </trkpt>
      <trkpt lat="44.707" lon="4.17259">
        <ele>615.9</ele>
        <time>2022-06-10T11:48:34Z</time>
      </trkpt>
      <trkpt lat="44.70701" lon="4.17268">
        <ele>615.7</ele>
        <time>2022-06-10T11:48:35Z</time>
      </trkpt>
      <trkpt lat="44.70702" lon="4.17276">
        <ele>615.6</ele>
        <time>2022-06-10T11:48:36Z</time>
      </trkpt>
      <trkpt lat="44.70703" lon="4.17283">
        <ele>615.4</ele>
        <time>2022-06-10T11:48:37Z</time>
      </trkpt>
      <trkpt lat="44.70705" lon="4.17291">
        <ele>615.2</ele>
        <time>2022-06-10T11:48:38Z</time>
      </trkpt>
      <trkpt lat="44.70708" lon="4.17299">
        <ele>615</ele>
        <time>2022-06-10T11:48:39Z</time>
      </trkpt>
      <trkpt lat="44.7071" lon="4.17307">
        <ele>614.8</ele>
        <time>2022-06-10T11:48:40Z</time>
      </trkpt>
      <trkpt lat="44.70711" lon="4.17315">
        <ele>614.6</ele>
        <time>2022-06-10T11:48:41Z</time>
      </trkpt>
      <trkpt lat="44.70712" lon="4.17324">
        <ele>614.4</ele>
        <time>2022-06-10T11:48:42Z</time>
      </trkpt>
      <trkpt lat="44.70713" lon="4.17332">
        <ele>614.2</ele>
        <time>2022-06-10T11:48:43Z</time>
      </trkpt>
      <trkpt lat="44.70713" lon="4.17341">
        <ele>614.1</ele>
        <time>2022-06-10T11:48:44Z</time>
      </trkpt>
      <trkpt lat="44.70713" lon="4.17349">
        <ele>613.9</ele>
        <time>2022-06-10T11:48:45Z</time>
      </trkpt>
      <trkpt lat="44.70713" lon="4.17357">
        <ele>613.8</ele>
        <time>2022-06-10T11:48:46Z</time>
      </trkpt>
      <trkpt lat="44.70713" lon="4.17365">
        <ele>613.7</ele>
        <time>2022-06-10T11:48:47Z</time>
      </trkpt>
      <trkpt lat="44.70712" lon="4.17372">
        <ele>613.6</ele>
        <time>2022-06-10T11:48:48Z</time>
      </trkpt>
      <trkpt lat="44.70712" lon="4.1738">
        <ele>613.4</ele>
        <time>2022-06-10T11:48:49Z</time>
      </trkpt>
      <trkpt lat="44.70713" lon="4.17388">
        <ele>613.3</ele>
        <time>2022-06-10T11:48:50Z</time>
      </trkpt>
      <trkpt lat="44.70713" lon="4.17396">
        <ele>613.1</ele>
        <time>2022-06-10T11:48:51Z</time>
      </trkpt>
      <trkpt lat="44.70714" lon="4.17405">
        <ele>613</ele>
        <time>2022-06-10T11:48:52Z</time>
      </trkpt>
      <trkpt lat="44.70715" lon="4.17412">
        <ele>612.8</ele>
        <time>2022-06-10T11:48:53Z</time>
      </trkpt>
      <trkpt lat="44.70715" lon="4.1742">
        <ele>612.7</ele>
        <time>2022-06-10T11:48:54Z</time>
      </trkpt>
      <trkpt lat="44.70716" lon="4.17428">
        <ele>612.5</ele>
        <time>2022-06-10T11:48:55Z</time>
      </trkpt>
      <trkpt lat="44.70716" lon="4.17436">
        <ele>612.2</ele>
        <time>2022-06-10T11:48:56Z</time>
      </trkpt>
      <trkpt lat="44.70717" lon="4.17445">
        <ele>612</ele>
        <time>2022-06-10T11:48:57Z</time>
      </trkpt>
      <trkpt lat="44.70717" lon="4.17453">
        <ele>611.8</ele>
        <time>2022-06-10T11:48:58Z</time>
      </trkpt>
      <trkpt lat="44.70718" lon="4.17462">
        <ele>611.5</ele>
        <time>2022-06-10T11:48:59Z</time>
      </trkpt>
      <trkpt lat="44.70718" lon="4.1747">
        <ele>611.3</ele>
        <time>2022-06-10T11:49:00Z</time>
      </trkpt>
      <trkpt lat="44.70719" lon="4.17479">
        <ele>611.1</ele>
        <time>2022-06-10T11:49:01Z</time>
      </trkpt>
      <trkpt lat="44.70719" lon="4.17488">
        <ele>610.9</ele>
        <time>2022-06-10T11:49:02Z</time>
      </trkpt>
      <trkpt lat="44.70718" lon="4.17496">
        <ele>610.6</ele>
        <time>2022-06-10T11:49:03Z</time>
      </trkpt>
      <trkpt lat="44.70716" lon="4.17504">
        <ele>610.4</ele>
        <time>2022-06-10T11:49:04Z</time>
      </trkpt>
      <trkpt lat="44.70714" lon="4.17512">
        <ele>610.2</ele>
        <time>2022-06-10T11:49:05Z</time>
      </trkpt>
      <trkpt lat="44.70712" lon="4.17519">
        <ele>609.9</ele>
        <time>2022-06-10T11:49:06Z</time>
      </trkpt>
      <trkpt lat="44.7071" lon="4.17527">
        <ele>609.7</ele>
        <time>2022-06-10T11:49:07Z</time>
      </trkpt>
      <trkpt lat="44.70708" lon="4.17534">
        <ele>609.5</ele>
        <time>2022-06-10T11:49:08Z</time>
      </trkpt>
      <trkpt lat="44.70706" lon="4.17541">
        <ele>609.3</ele>
        <time>2022-06-10T11:49:09Z</time>
      </trkpt>
      <trkpt lat="44.70704" lon="4.17548">
        <ele>609</ele>
        <time>2022-06-10T11:49:10Z</time>
      </trkpt>
      <trkpt lat="44.70702" lon="4.17555">
        <ele>608.8</ele>
        <time>2022-06-10T11:49:11Z</time>
      </trkpt>
      <trkpt lat="44.70701" lon="4.17563">
        <ele>608.6</ele>
        <time>2022-06-10T11:49:12Z</time>
      </trkpt>
      <trkpt lat="44.707" lon="4.1757">
        <ele>608.3</ele>
        <time>2022-06-10T11:49:13Z</time>
      </trkpt>
      <trkpt lat="44.70699" lon="4.17578">
        <ele>608</ele>
        <time>2022-06-10T11:49:14Z</time>
      </trkpt>
      <trkpt lat="44.70698" lon="4.17587">
        <ele>607.7</ele>
        <time>2022-06-10T11:49:15Z</time>
      </trkpt>
      <trkpt lat="44.70696" lon="4.17595">
        <ele>607.3</ele>
        <time>2022-06-10T11:49:16Z</time>
      </trkpt>
      <trkpt lat="44.70694" lon="4.17603">
        <ele>606.9</ele>
        <time>2022-06-10T11:49:17Z</time>
      </trkpt>
      <trkpt lat="44.70692" lon="4.17611">
        <ele>606.5</ele>
        <time>2022-06-10T11:49:18Z</time>
      </trkpt>
      <trkpt lat="44.70688" lon="4.1762">
        <ele>606</ele>
        <time>2022-06-10T11:49:19Z</time>
      </trkpt>
      <trkpt lat="44.70685" lon="4.17627">
        <ele>605.6</ele>
        <time>2022-06-10T11:49:20Z</time>
      </trkpt>
      <trkpt lat="44.70681" lon="4.17635">
        <ele>605.1</ele>
        <time>2022-06-10T11:49:21Z</time>
      </trkpt>
      <trkpt lat="44.70676" lon="4.17643">
        <ele>604.6</ele>
        <time>2022-06-10T11:49:22Z</time>
      </trkpt>
      <trkpt lat="44.70671" lon="4.17651">
        <ele>604</ele>
        <time>2022-06-10T11:49:23Z</time>
      </trkpt>
      <trkpt lat="44.70666" lon="4.17659">
        <ele>603.4</ele>
        <time>2022-06-10T11:49:24Z</time>
      </trkpt>
      <trkpt lat="44.70661" lon="4.17668">
        <ele>602.7</ele>
        <time>2022-06-10T11:49:25Z</time>
      </trkpt>
      <trkpt lat="44.70655" lon="4.17677">
        <ele>602.1</ele>
        <time>2022-06-10T11:49:26Z</time>
      </trkpt>
      <trkpt lat="44.70649" lon="4.17685">
        <ele>601.4</ele>
        <time>2022-06-10T11:49:27Z</time>
      </trkpt>
      <trkpt lat="44.70643" lon="4.17693">
        <ele>600.9</ele>
        <time>2022-06-10T11:49:28Z</time>
      </trkpt>
      <trkpt lat="44.70638" lon="4.17703">
        <ele>600.3</ele>
        <time>2022-06-10T11:49:29Z</time>
      </trkpt>
      <trkpt lat="44.70633" lon="4.17712">
        <ele>599.7</ele>
        <time>2022-06-10T11:49:30Z</time>
      </trkpt>
      <trkpt lat="44.70629" lon="4.17722">
        <ele>599.1</ele>
        <time>2022-06-10T11:49:31Z</time>
      </trkpt>
      <trkpt lat="44.70626" lon="4.17732">
        <ele>598.5</ele>
        <time>2022-06-10T11:49:32Z</time>
      </trkpt>
      <trkpt lat="44.70624" lon="4.17744">
        <ele>597.9</ele>
        <time>2022-06-10T11:49:33Z</time>
      </trkpt>
      <trkpt lat="44.70623" lon="4.17755">
        <ele>597.4</ele>
        <time>2022-06-10T11:49:34Z</time>
      </trkpt>
      <trkpt lat="44.70623" lon="4.17766">
        <ele>596.9</ele>
        <time>2022-06-10T11:49:35Z</time>
      </trkpt>
      <trkpt lat="44.70623" lon="4.17777">
        <ele>596.4</ele>
        <time>2022-06-10T11:49:36Z</time>
      </trkpt>
      <trkpt lat="44.70623" lon="4.17787">
        <ele>595.9</ele>
        <time>2022-06-10T11:49:37Z</time>
      </trkpt>
      <trkpt lat="44.70622" lon="4.17795">
        <ele>595.5</ele>
        <time>2022-06-10T11:49:38Z</time>
      </trkpt>
      <trkpt lat="44.70621" lon="4.17804">
        <ele>595.4</ele>
        <time>2022-06-10T11:49:39Z</time>
      </trkpt>
      <trkpt lat="44.70617" lon="4.17812">
        <ele>595.3</ele>
        <time>2022-06-10T11:49:40Z</time>
      </trkpt>
      <trkpt lat="44.70613" lon="4.17819">
        <ele>595.1</ele>
        <time>2022-06-10T11:49:41Z</time>
      </trkpt>
      <trkpt lat="44.70608" lon="4.17825">
        <ele>594.9</ele>
        <time>2022-06-10T11:49:42Z</time>
      </trkpt>
      <trkpt lat="44.70603" lon="4.17829">
        <ele>594.8</ele>
        <time>2022-06-10T11:49:43Z</time>
      </trkpt>
      <trkpt lat="44.70599" lon="4.17835">
        <ele>594.6</ele>
        <time>2022-06-10T11:49:44Z</time>
      </trkpt>
      <trkpt lat="44.70596" lon="4.17842">
        <ele>594.5</ele>
        <time>2022-06-10T11:49:45Z</time>
      </trkpt>
      <trkpt lat="44.70592" lon="4.17849">
        <ele>594.3</ele>
        <time>2022-06-10T11:49:46Z</time>
      </trkpt>
      <trkpt lat="44.70589" lon="4.17856">
        <ele>594.1</ele>
        <time>2022-06-10T11:49:47Z</time>
      </trkpt>
      <trkpt lat="44.70587" lon="4.17864">
        <ele>593.9</ele>
        <time>2022-06-10T11:49:48Z</time>
      </trkpt>
      <trkpt lat="44.70586" lon="4.17872">
        <ele>593.6</ele>
        <time>2022-06-10T11:49:49Z</time>
      </trkpt>
      <trkpt lat="44.70587" lon="4.17881">
        <ele>593.2</ele>
        <time>2022-06-10T11:49:50Z</time>
      </trkpt>
      <trkpt lat="44.70588" lon="4.17891">
        <ele>592.9</ele>
        <time>2022-06-10T11:49:51Z</time>
      </trkpt>
      <trkpt lat="44.70589" lon="4.17901">
        <ele>592.7</ele>
        <time>2022-06-10T11:49:52Z</time>
      </trkpt>
      <trkpt lat="44.70589" lon="4.17911">
        <ele>592.5</ele>
        <time>2022-06-10T11:49:53Z</time>
      </trkpt>
      <trkpt lat="44.7059" lon="4.17919">
        <ele>592.3</ele>
        <time>2022-06-10T11:49:54Z</time>
      </trkpt>
      <trkpt lat="44.7059" lon="4.17925">
        <ele>592.1</ele>
        <time>2022-06-10T11:49:55Z</time>
      </trkpt>
      <trkpt lat="44.70591" lon="4.1793">
        <ele>592</ele>
        <time>2022-06-10T11:49:56Z</time>
      </trkpt>
      <trkpt lat="44.70591" lon="4.17934">
        <ele>591.8</ele>
        <time>2022-06-10T11:49:57Z</time>
      </trkpt>
      <trkpt lat="44.70591" lon="4.17935">
        <ele>591.8</ele>
        <time>2022-06-10T11:49:58Z</time>
      </trkpt>
      <trkpt lat="44.70591" lon="4.1794">
        <ele>591.7</ele>
        <time>2022-06-10T11:49:59Z</time>
      </trkpt>
      <trkpt lat="44.70592" lon="4.17945">
        <ele>591.5</ele>
        <time>2022-06-10T11:50:00Z</time>
      </trkpt>
      <trkpt lat="44.70592" lon="4.17952">
        <ele>591.3</ele>
        <time>2022-06-10T11:50:01Z</time>
      </trkpt>
      <trkpt lat="44.70593" lon="4.1796">
        <ele>591</ele>
        <time>2022-06-10T11:50:02Z</time>
      </trkpt>
      <trkpt lat="44.70593" lon="4.17968">
        <ele>590.7</ele>
        <time>2022-06-10T11:50:03Z</time>
      </trkpt>
      <trkpt lat="44.70593" lon="4.17975">
        <ele>590.5</ele>
        <time>2022-06-10T11:50:04Z</time>
      </trkpt>
      <trkpt lat="44.70594" lon="4.17983">
        <ele>590.3</ele>
        <time>2022-06-10T11:50:05Z</time>
      </trkpt>
      <trkpt lat="44.70595" lon="4.1799">
        <ele>590</ele>
        <time>2022-06-10T11:50:06Z</time>
      </trkpt>
      <trkpt lat="44.70595" lon="4.17998">
        <ele>589.8</ele>
        <time>2022-06-10T11:50:07Z</time>
      </trkpt>
      <trkpt lat="44.70596" lon="4.18007">
        <ele>589.5</ele>
        <time>2022-06-10T11:50:08Z</time>
      </trkpt>
      <trkpt lat="44.70596" lon="4.18016">
        <ele>589.1</ele>
        <time>2022-06-10T11:50:09Z</time>
      </trkpt>
      <trkpt lat="44.70596" lon="4.18024">
        <ele>588.9</ele>
        <time>2022-06-10T11:50:10Z</time>
      </trkpt>
      <trkpt lat="44.70596" lon="4.18033">
        <ele>588.6</ele>
        <time>2022-06-10T11:50:11Z</time>
      </trkpt>
      <trkpt lat="44.70597" lon="4.18042">
        <ele>588.3</ele>
        <time>2022-06-10T11:50:12Z</time>
      </trkpt>
      <trkpt lat="44.70597" lon="4.18051">
        <ele>588</ele>
        <time>2022-06-10T11:50:13Z</time>
      </trkpt>
      <trkpt lat="44.70596" lon="4.18061">
        <ele>587.8</ele>
        <time>2022-06-10T11:50:14Z</time>
      </trkpt>
      <trkpt lat="44.70595" lon="4.18071">
        <ele>587.5</ele>
        <time>2022-06-10T11:50:15Z</time>
      </trkpt>
      <trkpt lat="44.70594" lon="4.18081">
        <ele>587.2</ele>
        <time>2022-06-10T11:50:16Z</time>
      </trkpt>
      <trkpt lat="44.70593" lon="4.18091">
        <ele>586.9</ele>
        <time>2022-06-10T11:50:17Z</time>
      </trkpt>
      <trkpt lat="44.70591" lon="4.18101">
        <ele>586.6</ele>
        <time>2022-06-10T11:50:18Z</time>
      </trkpt>
      <trkpt lat="44.70589" lon="4.18111">
        <ele>586.3</ele>
        <time>2022-06-10T11:50:19Z</time>
      </trkpt>
      <trkpt lat="44.70589" lon="4.18122">
        <ele>586.1</ele>
        <time>2022-06-10T11:50:20Z</time>
      </trkpt>
      <trkpt lat="44.70587" lon="4.18133">
        <ele>585.8</ele>
        <time>2022-06-10T11:50:21Z</time>
      </trkpt>
      <trkpt lat="44.70586" lon="4.18143">
        <ele>585.7</ele>
        <time>2022-06-10T11:50:22Z</time>
      </trkpt>
      <trkpt lat="44.70585" lon="4.18154">
        <ele>585.5</ele>
        <time>2022-06-10T11:50:23Z</time>
      </trkpt>
      <trkpt lat="44.70584" lon="4.18164">
        <ele>585.4</ele>
        <time>2022-06-10T11:50:24Z</time>
      </trkpt>
      <trkpt lat="44.70582" lon="4.18175">
        <ele>585.2</ele>
        <time>2022-06-10T11:50:25Z</time>
      </trkpt>
      <trkpt lat="44.70581" lon="4.18185">
        <ele>585.1</ele>
        <time>2022-06-10T11:50:26Z</time>
      </trkpt>
      <trkpt lat="44.70581" lon="4.18196">
        <ele>584.9</ele>
        <time>2022-06-10T11:50:27Z</time>
      </trkpt>
      <trkpt lat="44.7058" lon="4.18206">
        <ele>584.8</ele>
        <time>2022-06-10T11:50:28Z</time>
      </trkpt>
      <trkpt lat="44.7058" lon="4.18217">
        <ele>584.7</ele>
        <time>2022-06-10T11:50:29Z</time>
      </trkpt>
      <trkpt lat="44.70579" lon="4.18227">
        <ele>584.6</ele>
        <time>2022-06-10T11:50:30Z</time>
      </trkpt>
      <trkpt lat="44.70578" lon="4.18238">
        <ele>584.4</ele>
        <time>2022-06-10T11:50:31Z</time>
      </trkpt>
      <trkpt lat="44.70577" lon="4.18248">
        <ele>584.3</ele>
        <time>2022-06-10T11:50:32Z</time>
      </trkpt>
      <trkpt lat="44.70577" lon="4.18258">
        <ele>584.1</ele>
        <time>2022-06-10T11:50:33Z</time>
      </trkpt>
      <trkpt lat="44.70577" lon="4.18268">
        <ele>583.8</ele>
        <time>2022-06-10T11:50:34Z</time>
      </trkpt>
      <trkpt lat="44.70577" lon="4.18278">
        <ele>583.6</ele>
        <time>2022-06-10T11:50:35Z</time>
      </trkpt>
      <trkpt lat="44.70577" lon="4.18288">
        <ele>583.3</ele>
        <time>2022-06-10T11:50:36Z</time>
      </trkpt>
      <trkpt lat="44.70577" lon="4.18298">
        <ele>583</ele>
        <time>2022-06-10T11:50:37Z</time>
      </trkpt>
      <trkpt lat="44.70577" lon="4.18309">
        <ele>582.7</ele>
        <time>2022-06-10T11:50:38Z</time>
      </trkpt>
      <trkpt lat="44.70577" lon="4.18319">
        <ele>582.4</ele>
        <time>2022-06-10T11:50:39Z</time>
      </trkpt>
      <trkpt lat="44.70576" lon="4.1833">
        <ele>582.1</ele>
        <time>2022-06-10T11:50:40Z</time>
      </trkpt>
      <trkpt lat="44.70576" lon="4.18341">
        <ele>581.7</ele>
        <time>2022-06-10T11:50:41Z</time>
      </trkpt>
      <trkpt lat="44.70576" lon="4.18353">
        <ele>581.4</ele>
        <time>2022-06-10T11:50:42Z</time>
      </trkpt>
      <trkpt lat="44.70576" lon="4.18364">
        <ele>581.1</ele>
        <time>2022-06-10T11:50:43Z</time>
      </trkpt>
      <trkpt lat="44.70576" lon="4.18375">
        <ele>580.8</ele>
        <time>2022-06-10T11:50:44Z</time>
      </trkpt>
      <trkpt lat="44.70576" lon="4.18387">
        <ele>580.5</ele>
        <time>2022-06-10T11:50:45Z</time>
      </trkpt>
      <trkpt lat="44.70576" lon="4.18398">
        <ele>580.2</ele>
        <time>2022-06-10T11:50:46Z</time>
      </trkpt>
      <trkpt lat="44.70575" lon="4.1841">
        <ele>579.8</ele>
        <time>2022-06-10T11:50:47Z</time>
      </trkpt>
      <trkpt lat="44.70574" lon="4.18422">
        <ele>579.5</ele>
        <time>2022-06-10T11:50:48Z</time>
      </trkpt>
      <trkpt lat="44.70573" lon="4.18434">
        <ele>579.2</ele>
        <time>2022-06-10T11:50:49Z</time>
      </trkpt>
      <trkpt lat="44.70572" lon="4.18446">
        <ele>578.8</ele>
        <time>2022-06-10T11:50:50Z</time>
      </trkpt>
      <trkpt lat="44.70571" lon="4.18458">
        <ele>578.6</ele>
        <time>2022-06-10T11:50:51Z</time>
      </trkpt>
      <trkpt lat="44.7057" lon="4.18471">
        <ele>578.3</ele>
        <time>2022-06-10T11:50:52Z</time>
      </trkpt>
      <trkpt lat="44.70569" lon="4.18484">
        <ele>578</ele>
        <time>2022-06-10T11:50:53Z</time>
      </trkpt>
      <trkpt lat="44.70568" lon="4.18497">
        <ele>577.9</ele>
        <time>2022-06-10T11:50:54Z</time>
      </trkpt>
      <trkpt lat="44.70567" lon="4.1851">
        <ele>577.8</ele>
        <time>2022-06-10T11:50:55Z</time>
      </trkpt>
      <trkpt lat="44.70566" lon="4.18522">
        <ele>577.7</ele>
        <time>2022-06-10T11:50:56Z</time>
      </trkpt>
      <trkpt lat="44.70566" lon="4.18535">
        <ele>577.8</ele>
        <time>2022-06-10T11:50:57Z</time>
      </trkpt>
      <trkpt lat="44.70565" lon="4.18548">
        <ele>577.9</ele>
        <time>2022-06-10T11:50:58Z</time>
      </trkpt>
      <trkpt lat="44.70563" lon="4.1856">
        <ele>578.2</ele>
        <time>2022-06-10T11:50:59Z</time>
      </trkpt>
      <trkpt lat="44.70563" lon="4.18572">
        <ele>578.6</ele>
        <time>2022-06-10T11:51:00Z</time>
      </trkpt>
      <trkpt lat="44.70562" lon="4.18583">
        <ele>579</ele>
        <time>2022-06-10T11:51:01Z</time>
      </trkpt>
      <trkpt lat="44.70561" lon="4.18593">
        <ele>579.4</ele>
        <time>2022-06-10T11:51:02Z</time>
      </trkpt>
      <trkpt lat="44.70561" lon="4.18603">
        <ele>579.8</ele>
        <time>2022-06-10T11:51:03Z</time>
      </trkpt>
      <trkpt lat="44.70561" lon="4.18612">
        <ele>580.1</ele>
        <time>2022-06-10T11:51:04Z</time>
      </trkpt>
      <trkpt lat="44.70561" lon="4.18621">
        <ele>580.5</ele>
        <time>2022-06-10T11:51:05Z</time>
      </trkpt>
      <trkpt lat="44.70562" lon="4.18629">
        <ele>580.8</ele>
        <time>2022-06-10T11:51:06Z</time>
      </trkpt>
      <trkpt lat="44.70563" lon="4.18638">
        <ele>581.1</ele>
        <time>2022-06-10T11:51:07Z</time>
      </trkpt>
      <trkpt lat="44.70563" lon="4.18645">
        <ele>581.5</ele>
        <time>2022-06-10T11:51:08Z</time>
      </trkpt>
      <trkpt lat="44.70564" lon="4.18653">
        <ele>581.8</ele>
        <time>2022-06-10T11:51:09Z</time>
      </trkpt>
      <trkpt lat="44.70564" lon="4.18659">
        <ele>582.1</ele>
        <time>2022-06-10T11:51:10Z</time>
      </trkpt>
      <trkpt lat="44.70565" lon="4.18666">
        <ele>582.4</ele>
        <time>2022-06-10T11:51:11Z</time>
      </trkpt>
      <trkpt lat="44.70565" lon="4.18672">
        <ele>582.6</ele>
        <time>2022-06-10T11:51:12Z</time>
      </trkpt>
      <trkpt lat="44.70565" lon="4.18676">
        <ele>582.7</ele>
        <time>2022-06-10T11:51:13Z</time>
      </trkpt>
      <trkpt lat="44.70566" lon="4.1868">
        <ele>582.9</ele>
        <time>2022-06-10T11:51:14Z</time>
      </trkpt>
      <trkpt lat="44.70566" lon="4.18686">
        <ele>583.1</ele>
        <time>2022-06-10T11:51:15Z</time>
      </trkpt>
      <trkpt lat="44.70566" lon="4.1869">
        <ele>583.2</ele>
        <time>2022-06-10T11:51:16Z</time>
      </trkpt>
      <trkpt lat="44.70567" lon="4.18696">
        <ele>583.4</ele>
        <time>2022-06-10T11:51:17Z</time>
      </trkpt>
      <trkpt lat="44.70568" lon="4.187">
        <ele>583.5</ele>
        <time>2022-06-10T11:51:18Z</time>
      </trkpt>
      <trkpt lat="44.70569" lon="4.18704">
        <ele>583.6</ele>
        <time>2022-06-10T11:51:19Z</time>
      </trkpt>
      <trkpt lat="44.70572" lon="4.18706">
        <ele>583.7</ele>
        <time>2022-06-10T11:51:20Z</time>
      </trkpt>
      <trkpt lat="44.70573" lon="4.18708">
        <ele>583.8</ele>
        <time>2022-06-10T11:51:21Z</time>
      </trkpt>
      <trkpt lat="44.70575" lon="4.18712">
        <ele>583.9</ele>
        <time>2022-06-10T11:51:22Z</time>
      </trkpt>
      <trkpt lat="44.70578" lon="4.18715">
        <ele>584</ele>
        <time>2022-06-10T11:51:23Z</time>
      </trkpt>
      <trkpt lat="44.7058" lon="4.18718">
        <ele>584.1</ele>
        <time>2022-06-10T11:51:24Z</time>
      </trkpt>
      <trkpt lat="44.70585" lon="4.1872">
        <ele>584.3</ele>
        <time>2022-06-10T11:51:25Z</time>
      </trkpt>
      <trkpt lat="44.7059" lon="4.18721">
        <ele>584.4</ele>
        <time>2022-06-10T11:51:27Z</time>
      </trkpt>
      <trkpt lat="44.70592" lon="4.18722">
        <ele>584.5</ele>
        <time>2022-06-10T11:51:28Z</time>
      </trkpt>
      <trkpt lat="44.70595" lon="4.18722">
        <ele>584.6</ele>
        <time>2022-06-10T11:51:29Z</time>
      </trkpt>
      <trkpt lat="44.70598" lon="4.18723">
        <ele>584.7</ele>
        <time>2022-06-10T11:51:30Z</time>
      </trkpt>
      <trkpt lat="44.70602" lon="4.18723">
        <ele>584.9</ele>
        <time>2022-06-10T11:51:31Z</time>
      </trkpt>
      <trkpt lat="44.70605" lon="4.18723">
        <ele>585</ele>
        <time>2022-06-10T11:51:32Z</time>
      </trkpt>
      <trkpt lat="44.70607" lon="4.18724">
        <ele>585</ele>
        <time>2022-06-10T11:51:33Z</time>
      </trkpt>
      <trkpt lat="44.70609" lon="4.18726">
        <ele>585.1</ele>
        <time>2022-06-10T11:51:35Z</time>
      </trkpt>
      <trkpt lat="44.70612" lon="4.18728">
        <ele>585.2</ele>
        <time>2022-06-10T11:51:36Z</time>
      </trkpt>
      <trkpt lat="44.70613" lon="4.18729">
        <ele>585.2</ele>
        <time>2022-06-10T11:51:37Z</time>
      </trkpt>
      <trkpt lat="44.70613" lon="4.18734">
        <ele>585.2</ele>
        <time>2022-06-10T11:51:38Z</time>
      </trkpt>
      <trkpt lat="44.70614" lon="4.18736">
        <ele>585.2</ele>
        <time>2022-06-10T11:51:39Z</time>
      </trkpt>
      <trkpt lat="44.70613" lon="4.18744">
        <ele>585.2</ele>
        <time>2022-06-10T11:51:40Z</time>
      </trkpt>
      <trkpt lat="44.70612" lon="4.18748">
        <ele>585.2</ele>
        <time>2022-06-10T11:51:41Z</time>
      </trkpt>
      <trkpt lat="44.7061" lon="4.18753">
        <ele>585.1</ele>
        <time>2022-06-10T11:51:43Z</time>
      </trkpt>
      <trkpt lat="44.70609" lon="4.18758">
        <ele>585</ele>
        <time>2022-06-10T11:51:44Z</time>
      </trkpt>
      <trkpt lat="44.70607" lon="4.18762">
        <ele>585</ele>
        <time>2022-06-10T11:51:45Z</time>
      </trkpt>
      <trkpt lat="44.70605" lon="4.18765">
        <ele>584.9</ele>
        <time>2022-06-10T11:51:46Z</time>
      </trkpt>
      <trkpt lat="44.70603" lon="4.1877">
        <ele>584.9</ele>
        <time>2022-06-10T11:51:47Z</time>
      </trkpt>
      <trkpt lat="44.70601" lon="4.18774">
        <ele>584.9</ele>
        <time>2022-06-10T11:51:48Z</time>
      </trkpt>
      <trkpt lat="44.70598" lon="4.18777">
        <ele>584.8</ele>
        <time>2022-06-10T11:51:49Z</time>
      </trkpt>
      <trkpt lat="44.70596" lon="4.18779">
        <ele>584.8</ele>
        <time>2022-06-10T11:51:50Z</time>
      </trkpt>
      <trkpt lat="44.70594" lon="4.18783">
        <ele>584.8</ele>
        <time>2022-06-10T11:51:51Z</time>
      </trkpt>
      <trkpt lat="44.70592" lon="4.18787">
        <ele>584.8</ele>
        <time>2022-06-10T11:51:52Z</time>
      </trkpt>
      <trkpt lat="44.70589" lon="4.18791">
        <ele>584.8</ele>
        <time>2022-06-10T11:51:53Z</time>
      </trkpt>
      <trkpt lat="44.70586" lon="4.18796">
        <ele>584.8</ele>
        <time>2022-06-10T11:51:54Z</time>
      </trkpt>
      <trkpt lat="44.70583" lon="4.18804">
        <ele>584.7</ele>
        <time>2022-06-10T11:51:56Z</time>
      </trkpt>
      <trkpt lat="44.70582" lon="4.1881">
        <ele>584.7</ele>
        <time>2022-06-10T11:51:57Z</time>
      </trkpt>
      <trkpt lat="44.70582" lon="4.18816">
        <ele>584.7</ele>
        <time>2022-06-10T11:51:58Z</time>
      </trkpt>
      <trkpt lat="44.70581" lon="4.18825">
        <ele>584.6</ele>
        <time>2022-06-10T11:52:00Z</time>
      </trkpt>
      <trkpt lat="44.7058" lon="4.18831">
        <ele>584.6</ele>
        <time>2022-06-10T11:52:01Z</time>
      </trkpt>
      <trkpt lat="44.7058" lon="4.18841">
        <ele>584.5</ele>
        <time>2022-06-10T11:52:02Z</time>
      </trkpt>
      <trkpt lat="44.70579" lon="4.18847">
        <ele>584.5</ele>
        <time>2022-06-10T11:52:03Z</time>
      </trkpt>
      <trkpt lat="44.70579" lon="4.18858">
        <ele>584.4</ele>
        <time>2022-06-10T11:52:05Z</time>
      </trkpt>
      <trkpt lat="44.70579" lon="4.18866">
        <ele>584.3</ele>
        <time>2022-06-10T11:52:06Z</time>
      </trkpt>
      <trkpt lat="44.70578" lon="4.18873">
        <ele>584.1</ele>
        <time>2022-06-10T11:52:07Z</time>
      </trkpt>
      <trkpt lat="44.70578" lon="4.18881">
        <ele>584.1</ele>
        <time>2022-06-10T11:52:08Z</time>
      </trkpt>
      <trkpt lat="44.70577" lon="4.18889">
        <ele>584</ele>
        <time>2022-06-10T11:52:09Z</time>
      </trkpt>
      <trkpt lat="44.70576" lon="4.18896">
        <ele>584</ele>
        <time>2022-06-10T11:52:10Z</time>
      </trkpt>
      <trkpt lat="44.70575" lon="4.18904">
        <ele>584</ele>
        <time>2022-06-10T11:52:11Z</time>
      </trkpt>
      <trkpt lat="44.70574" lon="4.18912">
        <ele>584.1</ele>
        <time>2022-06-10T11:52:12Z</time>
      </trkpt>
      <trkpt lat="44.70573" lon="4.18919">
        <ele>584.3</ele>
        <time>2022-06-10T11:52:13Z</time>
      </trkpt>
      <trkpt lat="44.70572" lon="4.18926">
        <ele>584.5</ele>
        <time>2022-06-10T11:52:14Z</time>
      </trkpt>
      <trkpt lat="44.70572" lon="4.18933">
        <ele>584.6</ele>
        <time>2022-06-10T11:52:15Z</time>
      </trkpt>
      <trkpt lat="44.70573" lon="4.1894">
        <ele>584.8</ele>
        <time>2022-06-10T11:52:16Z</time>
      </trkpt>
      <trkpt lat="44.70574" lon="4.18947">
        <ele>585</ele>
        <time>2022-06-10T11:52:17Z</time>
      </trkpt>
      <trkpt lat="44.70575" lon="4.18954">
        <ele>585.2</ele>
        <time>2022-06-10T11:52:18Z</time>
      </trkpt>
      <trkpt lat="44.70575" lon="4.1896">
        <ele>585.3</ele>
        <time>2022-06-10T11:52:19Z</time>
      </trkpt>
      <trkpt lat="44.70577" lon="4.18967">
        <ele>585.4</ele>
        <time>2022-06-10T11:52:20Z</time>
      </trkpt>
      <trkpt lat="44.70578" lon="4.18974">
        <ele>585.6</ele>
        <time>2022-06-10T11:52:21Z</time>
      </trkpt>
      <trkpt lat="44.70579" lon="4.1898">
        <ele>585.6</ele>
        <time>2022-06-10T11:52:22Z</time>
      </trkpt>
      <trkpt lat="44.70579" lon="4.18987">
        <ele>585.7</ele>
        <time>2022-06-10T11:52:23Z</time>
      </trkpt>
      <trkpt lat="44.70581" lon="4.18993">
        <ele>585.8</ele>
        <time>2022-06-10T11:52:24Z</time>
      </trkpt>
      <trkpt lat="44.70581" lon="4.18999">
        <ele>585.8</ele>
        <time>2022-06-10T11:52:25Z</time>
      </trkpt>
      <trkpt lat="44.70582" lon="4.19004">
        <ele>585.9</ele>
        <time>2022-06-10T11:52:26Z</time>
      </trkpt>
      <trkpt lat="44.70584" lon="4.1901">
        <ele>586</ele>
        <time>2022-06-10T11:52:27Z</time>
      </trkpt>
      <trkpt lat="44.70586" lon="4.19015">
        <ele>586</ele>
        <time>2022-06-10T11:52:28Z</time>
      </trkpt>
      <trkpt lat="44.70588" lon="4.1902">
        <ele>586.1</ele>
        <time>2022-06-10T11:52:29Z</time>
      </trkpt>
      <trkpt lat="44.70591" lon="4.19024">
        <ele>586.2</ele>
        <time>2022-06-10T11:52:30Z</time>
      </trkpt>
      <trkpt lat="44.70594" lon="4.19029">
        <ele>586.2</ele>
        <time>2022-06-10T11:52:31Z</time>
      </trkpt>
      <trkpt lat="44.70595" lon="4.19031">
        <ele>586.3</ele>
        <time>2022-06-10T11:52:32Z</time>
      </trkpt>
      <trkpt lat="44.70599" lon="4.19033">
        <ele>586.3</ele>
        <time>2022-06-10T11:52:33Z</time>
      </trkpt>
      <trkpt lat="44.70608" lon="4.19035">
        <ele>586.4</ele>
        <time>2022-06-10T11:52:34Z</time>
      </trkpt>
      <trkpt lat="44.70613" lon="4.19036">
        <ele>586.5</ele>
        <time>2022-06-10T11:52:36Z</time>
      </trkpt>
      <trkpt lat="44.70617" lon="4.19037">
        <ele>586.6</ele>
        <time>2022-06-10T11:52:37Z</time>
      </trkpt>
      <trkpt lat="44.70621" lon="4.19037">
        <ele>586.6</ele>
        <time>2022-06-10T11:52:38Z</time>
      </trkpt>
      <trkpt lat="44.70625" lon="4.19037">
        <ele>586.7</ele>
        <time>2022-06-10T11:52:39Z</time>
      </trkpt>
      <trkpt lat="44.7063" lon="4.19038">
        <ele>586.8</ele>
        <time>2022-06-10T11:52:40Z</time>
      </trkpt>
      <trkpt lat="44.70634" lon="4.19039">
        <ele>586.8</ele>
        <time>2022-06-10T11:52:42Z</time>
      </trkpt>
      <trkpt lat="44.7064" lon="4.19039">
        <ele>587</ele>
        <time>2022-06-10T11:52:43Z</time>
      </trkpt>
      <trkpt lat="44.70644" lon="4.1904">
        <ele>587.1</ele>
        <time>2022-06-10T11:52:44Z</time>
      </trkpt>
      <trkpt lat="44.70648" lon="4.19041">
        <ele>587.2</ele>
        <time>2022-06-10T11:52:46Z</time>
      </trkpt>
      <trkpt lat="44.70655" lon="4.19042">
        <ele>587.5</ele>
        <time>2022-06-10T11:52:47Z</time>
      </trkpt>
      <trkpt lat="44.70659" lon="4.19044">
        <ele>587.7</ele>
        <time>2022-06-10T11:52:49Z</time>
      </trkpt>
      <trkpt lat="44.70662" lon="4.19045">
        <ele>587.9</ele>
        <time>2022-06-10T11:52:50Z</time>
      </trkpt>
      <trkpt lat="44.70666" lon="4.19049">
        <ele>588.2</ele>
        <time>2022-06-10T11:52:51Z</time>
      </trkpt>
      <trkpt lat="44.70667" lon="4.19055">
        <ele>588.4</ele>
        <time>2022-06-10T11:52:53Z</time>
      </trkpt>
      <trkpt lat="44.70667" lon="4.19059">
        <ele>588.5</ele>
        <time>2022-06-10T11:52:54Z</time>
      </trkpt>
      <trkpt lat="44.70666" lon="4.19063">
        <ele>588.6</ele>
        <time>2022-06-10T11:52:55Z</time>
      </trkpt>
      <trkpt lat="44.70663" lon="4.19068">
        <ele>588.7</ele>
        <time>2022-06-10T11:52:56Z</time>
      </trkpt>
      <trkpt lat="44.70662" lon="4.19072">
        <ele>588.8</ele>
        <time>2022-06-10T11:52:57Z</time>
      </trkpt>
      <trkpt lat="44.70662" lon="4.19078">
        <ele>588.8</ele>
        <time>2022-06-10T11:52:59Z</time>
      </trkpt>
      <trkpt lat="44.70662" lon="4.19081">
        <ele>588.9</ele>
        <time>2022-06-10T11:53:00Z</time>
      </trkpt>
      <trkpt lat="44.70662" lon="4.19083">
        <ele>588.9</ele>
        <time>2022-06-10T11:53:01Z</time>
      </trkpt>
      <trkpt lat="44.70663" lon="4.19089">
        <ele>589</ele>
        <time>2022-06-10T11:53:02Z</time>
      </trkpt>
      <trkpt lat="44.70663" lon="4.1909">
        <ele>589</ele>
        <time>2022-06-10T11:53:03Z</time>
      </trkpt>
      <trkpt lat="44.70663" lon="4.19094">
        <ele>589</ele>
        <time>2022-06-10T11:53:04Z</time>
      </trkpt>
      <trkpt lat="44.70663" lon="4.191">
        <ele>589.1</ele>
        <time>2022-06-10T11:53:06Z</time>
      </trkpt>
      <trkpt lat="44.70664" lon="4.19105">
        <ele>589.1</ele>
        <time>2022-06-10T11:53:07Z</time>
      </trkpt>
      <trkpt lat="44.70664" lon="4.19106">
        <ele>589.2</ele>
        <time>2022-06-10T11:53:08Z</time>
      </trkpt>
      <trkpt lat="44.70666" lon="4.19111">
        <ele>589.2</ele>
        <time>2022-06-10T11:53:09Z</time>
      </trkpt>
      <trkpt lat="44.70667" lon="4.19112">
        <ele>589.2</ele>
        <time>2022-06-10T11:53:10Z</time>
      </trkpt>
      <trkpt lat="44.70668" lon="4.19116">
        <ele>589.3</ele>
        <time>2022-06-10T11:53:11Z</time>
      </trkpt>
      <trkpt lat="44.70669" lon="4.19117">
        <ele>589.3</ele>
        <time>2022-06-10T11:53:12Z</time>
      </trkpt>
      <trkpt lat="44.70671" lon="4.19121">
        <ele>589.4</ele>
        <time>2022-06-10T11:53:13Z</time>
      </trkpt>
      <trkpt lat="44.70672" lon="4.19122">
        <ele>589.4</ele>
        <time>2022-06-10T11:53:14Z</time>
      </trkpt>
      <trkpt lat="44.70674" lon="4.19126">
        <ele>589.5</ele>
        <time>2022-06-10T11:53:15Z</time>
      </trkpt>
      <trkpt lat="44.70675" lon="4.19127">
        <ele>589.5</ele>
        <time>2022-06-10T11:53:16Z</time>
      </trkpt>
      <trkpt lat="44.70676" lon="4.19131">
        <ele>589.5</ele>
        <time>2022-06-10T11:53:17Z</time>
      </trkpt>
      <trkpt lat="44.70678" lon="4.19134">
        <ele>589.6</ele>
        <time>2022-06-10T11:53:19Z</time>
      </trkpt>
      <trkpt lat="44.70679" lon="4.19136">
        <ele>589.6</ele>
        <time>2022-06-10T11:53:20Z</time>
      </trkpt>
      <trkpt lat="44.7068" lon="4.1914">
        <ele>589.7</ele>
        <time>2022-06-10T11:53:21Z</time>
      </trkpt>
      <trkpt lat="44.7068" lon="4.19141">
        <ele>589.7</ele>
        <time>2022-06-10T11:53:22Z</time>
      </trkpt>
      <trkpt lat="44.70682" lon="4.19146">
        <ele>589.8</ele>
        <time>2022-06-10T11:53:23Z</time>
      </trkpt>
      <trkpt lat="44.70683" lon="4.19147">
        <ele>589.8</ele>
        <time>2022-06-10T11:53:24Z</time>
      </trkpt>
      <trkpt lat="44.70683" lon="4.1915">
        <ele>589.8</ele>
        <time>2022-06-10T11:53:25Z</time>
      </trkpt>
      <trkpt lat="44.70685" lon="4.19154">
        <ele>589.9</ele>
        <time>2022-06-10T11:53:27Z</time>
      </trkpt>
      <trkpt lat="44.70685" lon="4.19159">
        <ele>589.9</ele>
        <time>2022-06-10T11:53:28Z</time>
      </trkpt>
      <trkpt lat="44.70686" lon="4.1916">
        <ele>589.9</ele>
        <time>2022-06-10T11:53:29Z</time>
      </trkpt>
      <trkpt lat="44.70687" lon="4.19166">
        <ele>590</ele>
        <time>2022-06-10T11:53:30Z</time>
      </trkpt>
      <trkpt lat="44.70687" lon="4.19168">
        <ele>590</ele>
        <time>2022-06-10T11:53:31Z</time>
      </trkpt>
      <trkpt lat="44.70687" lon="4.19172">
        <ele>590</ele>
        <time>2022-06-10T11:53:32Z</time>
      </trkpt>
      <trkpt lat="44.70686" lon="4.19177">
        <ele>590.1</ele>
        <time>2022-06-10T11:53:33Z</time>
      </trkpt>
      <trkpt lat="44.70685" lon="4.19181">
        <ele>590.1</ele>
        <time>2022-06-10T11:53:34Z</time>
      </trkpt>
      <trkpt lat="44.70685" lon="4.19185">
        <ele>590.2</ele>
        <time>2022-06-10T11:53:35Z</time>
      </trkpt>
      <trkpt lat="44.70684" lon="4.19189">
        <ele>590.2</ele>
        <time>2022-06-10T11:53:36Z</time>
      </trkpt>
      <trkpt lat="44.70682" lon="4.19194">
        <ele>590.3</ele>
        <time>2022-06-10T11:53:37Z</time>
      </trkpt>
      <trkpt lat="44.70682" lon="4.19196">
        <ele>590.3</ele>
        <time>2022-06-10T11:53:38Z</time>
      </trkpt>
      <trkpt lat="44.7068" lon="4.192">
        <ele>590.3</ele>
        <time>2022-06-10T11:53:39Z</time>
      </trkpt>
      <trkpt lat="44.70679" lon="4.19204">
        <ele>590.4</ele>
        <time>2022-06-10T11:53:40Z</time>
      </trkpt>
      <trkpt lat="44.70678" lon="4.19207">
        <ele>590.4</ele>
        <time>2022-06-10T11:53:41Z</time>
      </trkpt>
      <trkpt lat="44.70677" lon="4.19212">
        <ele>590.5</ele>
        <time>2022-06-10T11:53:42Z</time>
      </trkpt>
      <trkpt lat="44.70677" lon="4.19216">
        <ele>590.6</ele>
        <time>2022-06-10T11:53:43Z</time>
      </trkpt>
      <trkpt lat="44.70675" lon="4.19224">
        <ele>590.7</ele>
        <time>2022-06-10T11:53:45Z</time>
      </trkpt>
      <trkpt lat="44.70674" lon="4.19229">
        <ele>590.8</ele>
        <time>2022-06-10T11:53:46Z</time>
      </trkpt>
      <trkpt lat="44.70673" lon="4.19234">
        <ele>590.9</ele>
        <time>2022-06-10T11:53:47Z</time>
      </trkpt>
      <trkpt lat="44.70672" lon="4.19238">
        <ele>591</ele>
        <time>2022-06-10T11:53:48Z</time>
      </trkpt>
      <trkpt lat="44.70672" lon="4.19243">
        <ele>591.1</ele>
        <time>2022-06-10T11:53:49Z</time>
      </trkpt>
      <trkpt lat="44.70671" lon="4.19247">
        <ele>591.2</ele>
        <time>2022-06-10T11:53:50Z</time>
      </trkpt>
      <trkpt lat="44.70671" lon="4.19252">
        <ele>591.3</ele>
        <time>2022-06-10T11:53:51Z</time>
      </trkpt>
      <trkpt lat="44.70671" lon="4.19256">
        <ele>591.4</ele>
        <time>2022-06-10T11:53:52Z</time>
      </trkpt>
      <trkpt lat="44.70671" lon="4.1926">
        <ele>591.6</ele>
        <time>2022-06-10T11:53:53Z</time>
      </trkpt>
      <trkpt lat="44.7067" lon="4.19265">
        <ele>591.8</ele>
        <time>2022-06-10T11:53:54Z</time>
      </trkpt>
      <trkpt lat="44.7067" lon="4.19271">
        <ele>592</ele>
        <time>2022-06-10T11:53:55Z</time>
      </trkpt>
      <trkpt lat="44.7067" lon="4.19275">
        <ele>592.2</ele>
        <time>2022-06-10T11:53:56Z</time>
      </trkpt>
      <trkpt lat="44.70669" lon="4.19283">
        <ele>592.5</ele>
        <time>2022-06-10T11:53:58Z</time>
      </trkpt>
      <trkpt lat="44.70669" lon="4.19286">
        <ele>592.7</ele>
        <time>2022-06-10T11:54:00Z</time>
      </trkpt>
      <trkpt lat="44.70669" lon="4.19292">
        <ele>592.9</ele>
        <time>2022-06-10T11:54:02Z</time>
      </trkpt>
      <trkpt lat="44.70669" lon="4.19294">
        <ele>593</ele>
        <time>2022-06-10T11:54:03Z</time>
      </trkpt>
      <trkpt lat="44.70668" lon="4.19296">
        <ele>593.2</ele>
        <time>2022-06-10T11:54:04Z</time>
      </trkpt>
      <trkpt lat="44.70668" lon="4.19301">
        <ele>593.4</ele>
        <time>2022-06-10T11:54:05Z</time>
      </trkpt>
      <trkpt lat="44.70668" lon="4.19302">
        <ele>593.5</ele>
        <time>2022-06-10T11:54:06Z</time>
      </trkpt>
      <trkpt lat="44.70667" lon="4.19307">
        <ele>593.8</ele>
        <time>2022-06-10T11:54:07Z</time>
      </trkpt>
      <trkpt lat="44.70667" lon="4.19309">
        <ele>593.8</ele>
        <time>2022-06-10T11:54:08Z</time>
      </trkpt>
      <trkpt lat="44.70666" lon="4.19314">
        <ele>594.2</ele>
        <time>2022-06-10T11:54:09Z</time>
      </trkpt>
      <trkpt lat="44.70667" lon="4.19318">
        <ele>594.4</ele>
        <time>2022-06-10T11:54:11Z</time>
      </trkpt>
      <trkpt lat="44.70667" lon="4.1932">
        <ele>594.5</ele>
        <time>2022-06-10T11:54:12Z</time>
      </trkpt>
      <trkpt lat="44.70667" lon="4.19324">
        <ele>594.7</ele>
        <time>2022-06-10T11:54:13Z</time>
      </trkpt>
      <trkpt lat="44.70667" lon="4.19325">
        <ele>594.8</ele>
        <time>2022-06-10T11:54:14Z</time>
      </trkpt>
      <trkpt lat="44.70667" lon="4.19327">
        <ele>595</ele>
        <time>2022-06-10T11:54:15Z</time>
      </trkpt>
      <trkpt lat="44.70667" lon="4.1933">
        <ele>595.1</ele>
        <time>2022-06-10T11:54:16Z</time>
      </trkpt>
      <trkpt lat="44.70667" lon="4.19332">
        <ele>595.2</ele>
        <time>2022-06-10T11:54:17Z</time>
      </trkpt>
      <trkpt lat="44.70668" lon="4.19334">
        <ele>595.4</ele>
        <time>2022-06-10T11:54:18Z</time>
      </trkpt>
      <trkpt lat="44.70668" lon="4.19337">
        <ele>595.5</ele>
        <time>2022-06-10T11:54:19Z</time>
      </trkpt>
      <trkpt lat="44.70668" lon="4.19339">
        <ele>595.7</ele>
        <time>2022-06-10T11:54:20Z</time>
      </trkpt>
      <trkpt lat="44.70668" lon="4.19342">
        <ele>595.8</ele>
        <time>2022-06-10T11:54:21Z</time>
      </trkpt>
      <trkpt lat="44.70668" lon="4.19344">
        <ele>595.9</ele>
        <time>2022-06-10T11:54:22Z</time>
      </trkpt>
      <trkpt lat="44.70668" lon="4.19348">
        <ele>596.1</ele>
        <time>2022-06-10T11:54:23Z</time>
      </trkpt>
      <trkpt lat="44.70668" lon="4.1935">
        <ele>596.2</ele>
        <time>2022-06-10T11:54:24Z</time>
      </trkpt>
      <trkpt lat="44.70668" lon="4.19354">
        <ele>596.4</ele>
        <time>2022-06-10T11:54:25Z</time>
      </trkpt>
      <trkpt lat="44.70668" lon="4.19355">
        <ele>596.5</ele>
        <time>2022-06-10T11:54:26Z</time>
      </trkpt>
      <trkpt lat="44.70668" lon="4.19359">
        <ele>596.7</ele>
        <time>2022-06-10T11:54:27Z</time>
      </trkpt>
      <trkpt lat="44.70668" lon="4.1936">
        <ele>596.7</ele>
        <time>2022-06-10T11:54:28Z</time>
      </trkpt>
      <trkpt lat="44.70668" lon="4.19363">
        <ele>596.9</ele>
        <time>2022-06-10T11:54:29Z</time>
      </trkpt>
      <trkpt lat="44.70668" lon="4.19365">
        <ele>597</ele>
        <time>2022-06-10T11:54:30Z</time>
      </trkpt>
      <trkpt lat="44.70668" lon="4.19367">
        <ele>597.1</ele>
        <time>2022-06-10T11:54:31Z</time>
      </trkpt>
      <trkpt lat="44.70668" lon="4.19369">
        <ele>597.2</ele>
        <time>2022-06-10T11:54:32Z</time>
      </trkpt>
      <trkpt lat="44.70669" lon="4.19374">
        <ele>597.4</ele>
        <time>2022-06-10T11:54:33Z</time>
      </trkpt>
      <trkpt lat="44.70669" lon="4.19375">
        <ele>597.5</ele>
        <time>2022-06-10T11:54:34Z</time>
      </trkpt>
      <trkpt lat="44.70668" lon="4.19379">
        <ele>597.8</ele>
        <time>2022-06-10T11:54:36Z</time>
      </trkpt>
      <trkpt lat="44.70668" lon="4.19381">
        <ele>597.9</ele>
        <time>2022-06-10T11:54:37Z</time>
      </trkpt>
      <trkpt lat="44.70668" lon="4.19385">
        <ele>598.1</ele>
        <time>2022-06-10T11:54:38Z</time>
      </trkpt>
      <trkpt lat="44.70668" lon="4.19386">
        <ele>598.2</ele>
        <time>2022-06-10T11:54:39Z</time>
      </trkpt>
      <trkpt lat="44.70668" lon="4.19389">
        <ele>598.4</ele>
        <time>2022-06-10T11:54:40Z</time>
      </trkpt>
      <trkpt lat="44.70668" lon="4.19392">
        <ele>598.5</ele>
        <time>2022-06-10T11:54:42Z</time>
      </trkpt>
      <trkpt lat="44.70668" lon="4.19394">
        <ele>598.6</ele>
        <time>2022-06-10T11:54:43Z</time>
      </trkpt>
      <trkpt lat="44.70668" lon="4.19396">
        <ele>598.8</ele>
        <time>2022-06-10T11:54:44Z</time>
      </trkpt>
      <trkpt lat="44.70668" lon="4.19398">
        <ele>598.9</ele>
        <time>2022-06-10T11:54:45Z</time>
      </trkpt>
      <trkpt lat="44.70668" lon="4.194">
        <ele>599</ele>
        <time>2022-06-10T11:54:46Z</time>
      </trkpt>
      <trkpt lat="44.70668" lon="4.19402">
        <ele>599.1</ele>
        <time>2022-06-10T11:54:47Z</time>
      </trkpt>
      <trkpt lat="44.70668" lon="4.19404">
        <ele>599.2</ele>
        <time>2022-06-10T11:54:48Z</time>
      </trkpt>
      <trkpt lat="44.70667" lon="4.19408">
        <ele>599.4</ele>
        <time>2022-06-10T11:54:49Z</time>
      </trkpt>
      <trkpt lat="44.70667" lon="4.1941">
        <ele>599.5</ele>
        <time>2022-06-10T11:54:51Z</time>
      </trkpt>
      <trkpt lat="44.70667" lon="4.19414">
        <ele>599.7</ele>
        <time>2022-06-10T11:54:52Z</time>
      </trkpt>
      <trkpt lat="44.70668" lon="4.19417">
        <ele>599.9</ele>
        <time>2022-06-10T11:54:54Z</time>
      </trkpt>
      <trkpt lat="44.70668" lon="4.19419">
        <ele>600</ele>
        <time>2022-06-10T11:54:55Z</time>
      </trkpt>
      <trkpt lat="44.70668" lon="4.19421">
        <ele>600.1</ele>
        <time>2022-06-10T11:54:56Z</time>
      </trkpt>
      <trkpt lat="44.70668" lon="4.19423">
        <ele>600.1</ele>
        <time>2022-06-10T11:54:57Z</time>
      </trkpt>
      <trkpt lat="44.70667" lon="4.19424">
        <ele>600.2</ele>
        <time>2022-06-10T11:54:58Z</time>
      </trkpt>
      <trkpt lat="44.70667" lon="4.19424">
        <ele>600.2</ele>
        <time>2022-06-10T11:54:59Z</time>
      </trkpt>
      <trkpt lat="44.70667" lon="4.19424">
        <ele>600.2</ele>
        <time>2022-06-10T11:55:00Z</time>
      </trkpt>
      <trkpt lat="44.70667" lon="4.19423">
        <ele>600.2</ele>
        <time>2022-06-10T11:55:01Z</time>
      </trkpt>
      <trkpt lat="44.70667" lon="4.19423">
        <ele>600.2</ele>
        <time>2022-06-10T11:55:02Z</time>
      </trkpt>
      <trkpt lat="44.70667" lon="4.19424">
        <ele>600.2</ele>
        <time>2022-06-10T11:55:03Z</time>
      </trkpt>
      <trkpt lat="44.70667" lon="4.19423">
        <ele>600.2</ele>
        <time>2022-06-10T11:55:04Z</time>
      </trkpt>
      <trkpt lat="44.70667" lon="4.19423">
        <ele>600.2</ele>
        <time>2022-06-10T11:55:05Z</time>
      </trkpt>
      <trkpt lat="44.70667" lon="4.19423">
        <ele>600.2</ele>
        <time>2022-06-10T11:55:06Z</time>
      </trkpt>
      <trkpt lat="44.70667" lon="4.19423">
        <ele>600.2</ele>
        <time>2022-06-10T11:55:07Z</time>
      </trkpt>
      <trkpt lat="44.70667" lon="4.19424">
        <ele>600.2</ele>
        <time>2022-06-10T11:55:08Z</time>
      </trkpt>
      <trkpt lat="44.70667" lon="4.19428">
        <ele>600.4</ele>
        <time>2022-06-10T11:56:11Z</time>
      </trkpt>
      <trkpt lat="44.70667" lon="4.1943">
        <ele>600.5</ele>
        <time>2022-06-10T11:56:12Z</time>
      </trkpt>
      <trkpt lat="44.70666" lon="4.19433">
        <ele>600.6</ele>
        <time>2022-06-10T11:56:13Z</time>
      </trkpt>
      <trkpt lat="44.70666" lon="4.19434">
        <ele>600.6</ele>
        <time>2022-06-10T11:56:14Z</time>
      </trkpt>
      <trkpt lat="44.70666" lon="4.19436">
        <ele>600.7</ele>
        <time>2022-06-10T11:56:15Z</time>
      </trkpt>
      <trkpt lat="44.70665" lon="4.19439">
        <ele>600.8</ele>
        <time>2022-06-10T11:56:16Z</time>
      </trkpt>
      <trkpt lat="44.70665" lon="4.19442">
        <ele>600.9</ele>
        <time>2022-06-10T11:56:17Z</time>
      </trkpt>
      <trkpt lat="44.70664" lon="4.19445">
        <ele>601</ele>
        <time>2022-06-10T11:56:18Z</time>
      </trkpt>
      <trkpt lat="44.70664" lon="4.19449">
        <ele>601.2</ele>
        <time>2022-06-10T11:56:20Z</time>
      </trkpt>
      <trkpt lat="44.70663" lon="4.19453">
        <ele>601.3</ele>
        <time>2022-06-10T11:56:21Z</time>
      </trkpt>
      <trkpt lat="44.70662" lon="4.19457">
        <ele>601.4</ele>
        <time>2022-06-10T11:56:22Z</time>
      </trkpt>
      <trkpt lat="44.70661" lon="4.19462">
        <ele>601.7</ele>
        <time>2022-06-10T11:56:24Z</time>
      </trkpt>
      <trkpt lat="44.7066" lon="4.19464">
        <ele>601.7</ele>
        <time>2022-06-10T11:56:25Z</time>
      </trkpt>
      <trkpt lat="44.70659" lon="4.19469">
        <ele>602</ele>
        <time>2022-06-10T11:56:26Z</time>
      </trkpt>
      <trkpt lat="44.70659" lon="4.19472">
        <ele>602.1</ele>
        <time>2022-06-10T11:56:27Z</time>
      </trkpt>
      <trkpt lat="44.70658" lon="4.19477">
        <ele>602.3</ele>
        <time>2022-06-10T11:56:29Z</time>
      </trkpt>
      <trkpt lat="44.70657" lon="4.19478">
        <ele>602.4</ele>
        <time>2022-06-10T11:56:30Z</time>
      </trkpt>
      <trkpt lat="44.70656" lon="4.19481">
        <ele>602.6</ele>
        <time>2022-06-10T11:56:31Z</time>
      </trkpt>
      <trkpt lat="44.70655" lon="4.19484">
        <ele>602.7</ele>
        <time>2022-06-10T11:56:33Z</time>
      </trkpt>
      <trkpt lat="44.70655" lon="4.19486">
        <ele>602.8</ele>
        <time>2022-06-10T11:56:34Z</time>
      </trkpt>
      <trkpt lat="44.70655" lon="4.19488">
        <ele>603</ele>
        <time>2022-06-10T11:56:35Z</time>
      </trkpt>
      <trkpt lat="44.70654" lon="4.19491">
        <ele>603.2</ele>
        <time>2022-06-10T11:56:36Z</time>
      </trkpt>
      <trkpt lat="44.70653" lon="4.19492">
        <ele>603.3</ele>
        <time>2022-06-10T11:56:37Z</time>
      </trkpt>
      <trkpt lat="44.70653" lon="4.19494">
        <ele>603.4</ele>
        <time>2022-06-10T11:56:38Z</time>
      </trkpt>
      <trkpt lat="44.70652" lon="4.19496">
        <ele>603.5</ele>
        <time>2022-06-10T11:56:39Z</time>
      </trkpt>
      <trkpt lat="44.70652" lon="4.19499">
        <ele>603.7</ele>
        <time>2022-06-10T11:56:40Z</time>
      </trkpt>
      <trkpt lat="44.70651" lon="4.19501">
        <ele>603.8</ele>
        <time>2022-06-10T11:56:41Z</time>
      </trkpt>
      <trkpt lat="44.70651" lon="4.19502">
        <ele>604</ele>
        <time>2022-06-10T11:56:42Z</time>
      </trkpt>
      <trkpt lat="44.7065" lon="4.19505">
        <ele>604.1</ele>
        <time>2022-06-10T11:56:43Z</time>
      </trkpt>
      <trkpt lat="44.70649" lon="4.19509">
        <ele>604.4</ele>
        <time>2022-06-10T11:56:44Z</time>
      </trkpt>
      <trkpt lat="44.70648" lon="4.19512">
        <ele>604.6</ele>
        <time>2022-06-10T11:56:46Z</time>
      </trkpt>
      <trkpt lat="44.70648" lon="4.19514">
        <ele>604.7</ele>
        <time>2022-06-10T11:56:47Z</time>
      </trkpt>
      <trkpt lat="44.70647" lon="4.19516">
        <ele>604.9</ele>
        <time>2022-06-10T11:56:48Z</time>
      </trkpt>
      <trkpt lat="44.70647" lon="4.19518">
        <ele>605</ele>
        <time>2022-06-10T11:56:49Z</time>
      </trkpt>
      <trkpt lat="44.70646" lon="4.1952">
        <ele>605.2</ele>
        <time>2022-06-10T11:56:50Z</time>
      </trkpt>
      <trkpt lat="44.70646" lon="4.19523">
        <ele>605.3</ele>
        <time>2022-06-10T11:56:51Z</time>
      </trkpt>
      <trkpt lat="44.70645" lon="4.19526">
        <ele>605.5</ele>
        <time>2022-06-10T11:56:52Z</time>
      </trkpt>
      <trkpt lat="44.70645" lon="4.19529">
        <ele>605.7</ele>
        <time>2022-06-10T11:56:54Z</time>
      </trkpt>
      <trkpt lat="44.70644" lon="4.19532">
        <ele>605.9</ele>
        <time>2022-06-10T11:56:55Z</time>
      </trkpt>
      <trkpt lat="44.70644" lon="4.19534">
        <ele>606</ele>
        <time>2022-06-10T11:56:56Z</time>
      </trkpt>
      <trkpt lat="44.70643" lon="4.19537">
        <ele>606.3</ele>
        <time>2022-06-10T11:56:57Z</time>
      </trkpt>
      <trkpt lat="44.70643" lon="4.19539">
        <ele>606.4</ele>
        <time>2022-06-10T11:56:59Z</time>
      </trkpt>
      <trkpt lat="44.70643" lon="4.19542">
        <ele>606.6</ele>
        <time>2022-06-10T11:57:00Z</time>
      </trkpt>
      <trkpt lat="44.70642" lon="4.19544">
        <ele>606.7</ele>
        <time>2022-06-10T11:57:01Z</time>
      </trkpt>
      <trkpt lat="44.70641" lon="4.19546">
        <ele>606.9</ele>
        <time>2022-06-10T11:57:02Z</time>
      </trkpt>
      <trkpt lat="44.7064" lon="4.19547">
        <ele>607</ele>
        <time>2022-06-10T11:57:03Z</time>
      </trkpt>
      <trkpt lat="44.70638" lon="4.19552">
        <ele>607.3</ele>
        <time>2022-06-10T11:57:04Z</time>
      </trkpt>
      <trkpt lat="44.70638" lon="4.19552">
        <ele>607.4</ele>
        <time>2022-06-10T11:57:05Z</time>
      </trkpt>
      <trkpt lat="44.70637" lon="4.19557">
        <ele>607.7</ele>
        <time>2022-06-10T11:57:07Z</time>
      </trkpt>
      <trkpt lat="44.70636" lon="4.19558">
        <ele>607.8</ele>
        <time>2022-06-10T11:57:08Z</time>
      </trkpt>
      <trkpt lat="44.70636" lon="4.1956">
        <ele>607.9</ele>
        <time>2022-06-10T11:57:09Z</time>
      </trkpt>
      <trkpt lat="44.70635" lon="4.19564">
        <ele>608.2</ele>
        <time>2022-06-10T11:57:10Z</time>
      </trkpt>
      <trkpt lat="44.70634" lon="4.19567">
        <ele>608.4</ele>
        <time>2022-06-10T11:57:12Z</time>
      </trkpt>
      <trkpt lat="44.70633" lon="4.19568">
        <ele>608.5</ele>
        <time>2022-06-10T11:57:13Z</time>
      </trkpt>
      <trkpt lat="44.70633" lon="4.1957">
        <ele>608.6</ele>
        <time>2022-06-10T11:57:14Z</time>
      </trkpt>
      <trkpt lat="44.70632" lon="4.19571">
        <ele>608.7</ele>
        <time>2022-06-10T11:57:15Z</time>
      </trkpt>
      <trkpt lat="44.70632" lon="4.19573">
        <ele>608.8</ele>
        <time>2022-06-10T11:57:16Z</time>
      </trkpt>
      <trkpt lat="44.70631" lon="4.19574">
        <ele>609</ele>
        <time>2022-06-10T11:57:17Z</time>
      </trkpt>
      <trkpt lat="44.7063" lon="4.19576">
        <ele>609.1</ele>
        <time>2022-06-10T11:57:18Z</time>
      </trkpt>
      <trkpt lat="44.70629" lon="4.19577">
        <ele>609.3</ele>
        <time>2022-06-10T11:57:19Z</time>
      </trkpt>
      <trkpt lat="44.70628" lon="4.1958">
        <ele>609.5</ele>
        <time>2022-06-10T11:57:20Z</time>
      </trkpt>
      <trkpt lat="44.70628" lon="4.19581">
        <ele>609.6</ele>
        <time>2022-06-10T11:57:21Z</time>
      </trkpt>
      <trkpt lat="44.70627" lon="4.19582">
        <ele>609.7</ele>
        <time>2022-06-10T11:57:22Z</time>
      </trkpt>
      <trkpt lat="44.70626" lon="4.19585">
        <ele>609.9</ele>
        <time>2022-06-10T11:57:23Z</time>
      </trkpt>
      <trkpt lat="44.70626" lon="4.19586">
        <ele>610</ele>
        <time>2022-06-10T11:57:24Z</time>
      </trkpt>
      <trkpt lat="44.70625" lon="4.19587">
        <ele>610.1</ele>
        <time>2022-06-10T11:57:25Z</time>
      </trkpt>
      <trkpt lat="44.70624" lon="4.19589">
        <ele>610.3</ele>
        <time>2022-06-10T11:57:26Z</time>
      </trkpt>
      <trkpt lat="44.70623" lon="4.1959">
        <ele>610.4</ele>
        <time>2022-06-10T11:57:27Z</time>
      </trkpt>
      <trkpt lat="44.70623" lon="4.19591">
        <ele>610.4</ele>
        <time>2022-06-10T11:57:28Z</time>
      </trkpt>
      <trkpt lat="44.70623" lon="4.19595">
        <ele>610.7</ele>
        <time>2022-06-10T11:57:30Z</time>
      </trkpt>
      <trkpt lat="44.70622" lon="4.19596">
        <ele>610.8</ele>
        <time>2022-06-10T11:57:31Z</time>
      </trkpt>
      <trkpt lat="44.70621" lon="4.19598">
        <ele>611</ele>
        <time>2022-06-10T11:57:32Z</time>
      </trkpt>
      <trkpt lat="44.70621" lon="4.196">
        <ele>611.1</ele>
        <time>2022-06-10T11:57:33Z</time>
      </trkpt>
      <trkpt lat="44.7062" lon="4.19604">
        <ele>611.4</ele>
        <time>2022-06-10T11:57:34Z</time>
      </trkpt>
      <trkpt lat="44.70619" lon="4.19607">
        <ele>611.6</ele>
        <time>2022-06-10T11:57:36Z</time>
      </trkpt>
      <trkpt lat="44.70619" lon="4.19609">
        <ele>611.8</ele>
        <time>2022-06-10T11:57:37Z</time>
      </trkpt>
      <trkpt lat="44.70618" lon="4.19611">
        <ele>611.9</ele>
        <time>2022-06-10T11:57:38Z</time>
      </trkpt>
      <trkpt lat="44.70618" lon="4.19613">
        <ele>612.1</ele>
        <time>2022-06-10T11:57:39Z</time>
      </trkpt>
      <trkpt lat="44.70618" lon="4.19614">
        <ele>612.2</ele>
        <time>2022-06-10T11:57:40Z</time>
      </trkpt>
      <trkpt lat="44.70617" lon="4.19616">
        <ele>612.3</ele>
        <time>2022-06-10T11:57:41Z</time>
      </trkpt>
      <trkpt lat="44.70616" lon="4.19617">
        <ele>612.4</ele>
        <time>2022-06-10T11:57:42Z</time>
      </trkpt>
      <trkpt lat="44.70616" lon="4.19618">
        <ele>612.5</ele>
        <time>2022-06-10T11:57:43Z</time>
      </trkpt>
      <trkpt lat="44.70615" lon="4.19619">
        <ele>612.7</ele>
        <time>2022-06-10T11:57:44Z</time>
      </trkpt>
      <trkpt lat="44.70614" lon="4.1962">
        <ele>612.8</ele>
        <time>2022-06-10T11:57:45Z</time>
      </trkpt>
      <trkpt lat="44.70613" lon="4.19623">
        <ele>613</ele>
        <time>2022-06-10T11:57:46Z</time>
      </trkpt>
      <trkpt lat="44.70612" lon="4.19623">
        <ele>613.1</ele>
        <time>2022-06-10T11:57:47Z</time>
      </trkpt>
      <trkpt lat="44.70612" lon="4.19624">
        <ele>613.1</ele>
        <time>2022-06-10T11:57:48Z</time>
      </trkpt>
      <trkpt lat="44.70611" lon="4.19626">
        <ele>613.3</ele>
        <time>2022-06-10T11:57:49Z</time>
      </trkpt>
      <trkpt lat="44.7061" lon="4.19627">
        <ele>613.4</ele>
        <time>2022-06-10T11:57:50Z</time>
      </trkpt>
      <trkpt lat="44.7061" lon="4.19628">
        <ele>613.5</ele>
        <time>2022-06-10T11:57:51Z</time>
      </trkpt>
      <trkpt lat="44.70609" lon="4.1963">
        <ele>613.6</ele>
        <time>2022-06-10T11:57:52Z</time>
      </trkpt>
      <trkpt lat="44.70608" lon="4.19631">
        <ele>613.8</ele>
        <time>2022-06-10T11:57:53Z</time>
      </trkpt>
      <trkpt lat="44.70607" lon="4.19634">
        <ele>614</ele>
        <time>2022-06-10T11:57:54Z</time>
      </trkpt>
      <trkpt lat="44.70607" lon="4.19635">
        <ele>614</ele>
        <time>2022-06-10T11:57:55Z</time>
      </trkpt>
      <trkpt lat="44.70607" lon="4.19636">
        <ele>614.1</ele>
        <time>2022-06-10T11:57:56Z</time>
      </trkpt>
      <trkpt lat="44.70607" lon="4.19641">
        <ele>614.4</ele>
        <time>2022-06-10T11:57:58Z</time>
      </trkpt>
      <trkpt lat="44.70607" lon="4.19642">
        <ele>614.4</ele>
        <time>2022-06-10T11:57:59Z</time>
      </trkpt>
      <trkpt lat="44.70606" lon="4.19646">
        <ele>614.5</ele>
        <time>2022-06-10T11:58:00Z</time>
      </trkpt>
      <trkpt lat="44.70606" lon="4.19649">
        <ele>614.6</ele>
        <time>2022-06-10T11:58:01Z</time>
      </trkpt>
      <trkpt lat="44.70606" lon="4.19653">
        <ele>614.7</ele>
        <time>2022-06-10T11:58:03Z</time>
      </trkpt>
      <trkpt lat="44.70606" lon="4.19656">
        <ele>614.8</ele>
        <time>2022-06-10T11:58:05Z</time>
      </trkpt>
      <trkpt lat="44.70606" lon="4.19661">
        <ele>614.8</ele>
        <time>2022-06-10T11:58:06Z</time>
      </trkpt>
      <trkpt lat="44.70606" lon="4.19663">
        <ele>614.8</ele>
        <time>2022-06-10T11:58:07Z</time>
      </trkpt>
      <trkpt lat="44.70606" lon="4.19667">
        <ele>614.9</ele>
        <time>2022-06-10T11:58:08Z</time>
      </trkpt>
      <trkpt lat="44.70606" lon="4.19669">
        <ele>614.9</ele>
        <time>2022-06-10T11:58:09Z</time>
      </trkpt>
      <trkpt lat="44.70606" lon="4.19673">
        <ele>614.9</ele>
        <time>2022-06-10T11:58:10Z</time>
      </trkpt>
      <trkpt lat="44.70606" lon="4.19675">
        <ele>614.9</ele>
        <time>2022-06-10T11:58:11Z</time>
      </trkpt>
      <trkpt lat="44.70606" lon="4.19681">
        <ele>614.9</ele>
        <time>2022-06-10T11:58:12Z</time>
      </trkpt>
      <trkpt lat="44.70606" lon="4.19683">
        <ele>614.9</ele>
        <time>2022-06-10T11:58:13Z</time>
      </trkpt>
      <trkpt lat="44.70606" lon="4.19687">
        <ele>614.9</ele>
        <time>2022-06-10T11:58:14Z</time>
      </trkpt>
      <trkpt lat="44.70606" lon="4.19689">
        <ele>614.9</ele>
        <time>2022-06-10T11:58:15Z</time>
      </trkpt>
      <trkpt lat="44.70606" lon="4.19696">
        <ele>614.9</ele>
        <time>2022-06-10T11:58:16Z</time>
      </trkpt>
      <trkpt lat="44.70606" lon="4.197">
        <ele>614.9</ele>
        <time>2022-06-10T11:58:17Z</time>
      </trkpt>
      <trkpt lat="44.70605" lon="4.19704">
        <ele>615</ele>
        <time>2022-06-10T11:58:19Z</time>
      </trkpt>
      <trkpt lat="44.70606" lon="4.19708">
        <ele>615</ele>
        <time>2022-06-10T11:58:20Z</time>
      </trkpt>
      <trkpt lat="44.70606" lon="4.1971">
        <ele>615</ele>
        <time>2022-06-10T11:58:21Z</time>
      </trkpt>
      <trkpt lat="44.70606" lon="4.19714">
        <ele>615.1</ele>
        <time>2022-06-10T11:58:22Z</time>
      </trkpt>
      <trkpt lat="44.70605" lon="4.1972">
        <ele>615.2</ele>
        <time>2022-06-10T11:58:24Z</time>
      </trkpt>
      <trkpt lat="44.70604" lon="4.19724">
        <ele>615.2</ele>
        <time>2022-06-10T11:58:25Z</time>
      </trkpt>
      <trkpt lat="44.70604" lon="4.19725">
        <ele>615.3</ele>
        <time>2022-06-10T11:58:26Z</time>
      </trkpt>
      <trkpt lat="44.70605" lon="4.1973">
        <ele>615.4</ele>
        <time>2022-06-10T11:58:27Z</time>
      </trkpt>
      <trkpt lat="44.70605" lon="4.19731">
        <ele>615.4</ele>
        <time>2022-06-10T11:58:28Z</time>
      </trkpt>
      <trkpt lat="44.70604" lon="4.19737">
        <ele>615.5</ele>
        <time>2022-06-10T11:58:29Z</time>
      </trkpt>
      <trkpt lat="44.70604" lon="4.19739">
        <ele>615.6</ele>
        <time>2022-06-10T11:58:30Z</time>
      </trkpt>
      <trkpt lat="44.70603" lon="4.19745">
        <ele>615.8</ele>
        <time>2022-06-10T11:58:32Z</time>
      </trkpt>
      <trkpt lat="44.70604" lon="4.19751">
        <ele>615.9</ele>
        <time>2022-06-10T11:58:34Z</time>
      </trkpt>
      <trkpt lat="44.70604" lon="4.19758">
        <ele>616.1</ele>
        <time>2022-06-10T11:58:36Z</time>
      </trkpt>
      <trkpt lat="44.70604" lon="4.1976">
        <ele>616.2</ele>
        <time>2022-06-10T11:58:37Z</time>
      </trkpt>
      <trkpt lat="44.70604" lon="4.19763">
        <ele>616.2</ele>
        <time>2022-06-10T11:58:38Z</time>
      </trkpt>
      <trkpt lat="44.70603" lon="4.19769">
        <ele>616.3</ele>
        <time>2022-06-10T11:58:40Z</time>
      </trkpt>
      <trkpt lat="44.70604" lon="4.19776">
        <ele>616.3</ele>
        <time>2022-06-10T11:58:42Z</time>
      </trkpt>
      <trkpt lat="44.70604" lon="4.19778">
        <ele>616.4</ele>
        <time>2022-06-10T11:58:43Z</time>
      </trkpt>
      <trkpt lat="44.70604" lon="4.1978">
        <ele>616.4</ele>
        <time>2022-06-10T11:58:44Z</time>
      </trkpt>
      <trkpt lat="44.70603" lon="4.19785">
        <ele>616.4</ele>
        <time>2022-06-10T11:58:45Z</time>
      </trkpt>
      <trkpt lat="44.70603" lon="4.19788">
        <ele>616.4</ele>
        <time>2022-06-10T11:58:46Z</time>
      </trkpt>
      <trkpt lat="44.70603" lon="4.19793">
        <ele>616.5</ele>
        <time>2022-06-10T11:58:47Z</time>
      </trkpt>
      <trkpt lat="44.70603" lon="4.19798">
        <ele>616.5</ele>
        <time>2022-06-10T11:58:49Z</time>
      </trkpt>
      <trkpt lat="44.70603" lon="4.19802">
        <ele>616.6</ele>
        <time>2022-06-10T11:58:50Z</time>
      </trkpt>
      <trkpt lat="44.70603" lon="4.19807">
        <ele>616.6</ele>
        <time>2022-06-10T11:58:51Z</time>
      </trkpt>
      <trkpt lat="44.70604" lon="4.1981">
        <ele>616.6</ele>
        <time>2022-06-10T11:58:52Z</time>
      </trkpt>
      <trkpt lat="44.70604" lon="4.19814">
        <ele>616.7</ele>
        <time>2022-06-10T11:58:54Z</time>
      </trkpt>
      <trkpt lat="44.70603" lon="4.19816">
        <ele>616.7</ele>
        <time>2022-06-10T11:58:55Z</time>
      </trkpt>
      <trkpt lat="44.70602" lon="4.1982">
        <ele>616.7</ele>
        <time>2022-06-10T11:58:56Z</time>
      </trkpt>
      <trkpt lat="44.70601" lon="4.19826">
        <ele>616.8</ele>
        <time>2022-06-10T11:58:57Z</time>
      </trkpt>
      <trkpt lat="44.70602" lon="4.19833">
        <ele>616.9</ele>
        <time>2022-06-10T11:58:59Z</time>
      </trkpt>
      <trkpt lat="44.70601" lon="4.19836">
        <ele>616.9</ele>
        <time>2022-06-10T11:59:00Z</time>
      </trkpt>
      <trkpt lat="44.70601" lon="4.19839">
        <ele>616.9</ele>
        <time>2022-06-10T11:59:01Z</time>
      </trkpt>
      <trkpt lat="44.70603" lon="4.19847">
        <ele>616.9</ele>
        <time>2022-06-10T11:59:03Z</time>
      </trkpt>
      <trkpt lat="44.70604" lon="4.19852">
        <ele>616.8</ele>
        <time>2022-06-10T11:59:05Z</time>
      </trkpt>
      <trkpt lat="44.70607" lon="4.19855">
        <ele>616.8</ele>
        <time>2022-06-10T11:59:06Z</time>
      </trkpt>
      <trkpt lat="44.7061" lon="4.19857">
        <ele>616.7</ele>
        <time>2022-06-10T11:59:07Z</time>
      </trkpt>
      <trkpt lat="44.70613" lon="4.19859">
        <ele>616.6</ele>
        <time>2022-06-10T11:59:08Z</time>
      </trkpt>
      <trkpt lat="44.70618" lon="4.1986">
        <ele>616.5</ele>
        <time>2022-06-10T11:59:09Z</time>
      </trkpt>
      <trkpt lat="44.70625" lon="4.19862">
        <ele>616.4</ele>
        <time>2022-06-10T11:59:10Z</time>
      </trkpt>
      <trkpt lat="44.70629" lon="4.19863">
        <ele>616.4</ele>
        <time>2022-06-10T11:59:12Z</time>
      </trkpt>
      <trkpt lat="44.70633" lon="4.19863">
        <ele>616.4</ele>
        <time>2022-06-10T11:59:13Z</time>
      </trkpt>
      <trkpt lat="44.70636" lon="4.19864">
        <ele>616.4</ele>
        <time>2022-06-10T11:59:14Z</time>
      </trkpt>
      <trkpt lat="44.70642" lon="4.19865">
        <ele>616.4</ele>
        <time>2022-06-10T11:59:15Z</time>
      </trkpt>
      <trkpt lat="44.70645" lon="4.19866">
        <ele>616.4</ele>
        <time>2022-06-10T11:59:17Z</time>
      </trkpt>
      <trkpt lat="44.70649" lon="4.19868">
        <ele>616.4</ele>
        <time>2022-06-10T11:59:18Z</time>
      </trkpt>
      <trkpt lat="44.70652" lon="4.1987">
        <ele>616.4</ele>
        <time>2022-06-10T11:59:19Z</time>
      </trkpt>
      <trkpt lat="44.70656" lon="4.19873">
        <ele>616.4</ele>
        <time>2022-06-10T11:59:20Z</time>
      </trkpt>
      <trkpt lat="44.70661" lon="4.19877">
        <ele>616.4</ele>
        <time>2022-06-10T11:59:22Z</time>
      </trkpt>
      <trkpt lat="44.70664" lon="4.1988">
        <ele>616.4</ele>
        <time>2022-06-10T11:59:23Z</time>
      </trkpt>
      <trkpt lat="44.70667" lon="4.19883">
        <ele>616.4</ele>
        <time>2022-06-10T11:59:24Z</time>
      </trkpt>
      <trkpt lat="44.70672" lon="4.19888">
        <ele>616.4</ele>
        <time>2022-06-10T11:59:25Z</time>
      </trkpt>
      <trkpt lat="44.70675" lon="4.19891">
        <ele>616.5</ele>
        <time>2022-06-10T11:59:26Z</time>
      </trkpt>
      <trkpt lat="44.70679" lon="4.19894">
        <ele>616.5</ele>
        <time>2022-06-10T11:59:27Z</time>
      </trkpt>
      <trkpt lat="44.70685" lon="4.19898">
        <ele>616.6</ele>
        <time>2022-06-10T11:59:29Z</time>
      </trkpt>
      <trkpt lat="44.70689" lon="4.199">
        <ele>616.8</ele>
        <time>2022-06-10T11:59:30Z</time>
      </trkpt>
      <trkpt lat="44.70693" lon="4.19902">
        <ele>616.9</ele>
        <time>2022-06-10T11:59:32Z</time>
      </trkpt>
      <trkpt lat="44.70697" lon="4.19903">
        <ele>617</ele>
        <time>2022-06-10T11:59:33Z</time>
      </trkpt>
      <trkpt lat="44.707" lon="4.19904">
        <ele>617.2</ele>
        <time>2022-06-10T11:59:34Z</time>
      </trkpt>
      <trkpt lat="44.70703" lon="4.19905">
        <ele>617.3</ele>
        <time>2022-06-10T11:59:35Z</time>
      </trkpt>
      <trkpt lat="44.70706" lon="4.19907">
        <ele>617.5</ele>
        <time>2022-06-10T11:59:37Z</time>
      </trkpt>
      <trkpt lat="44.7071" lon="4.19908">
        <ele>617.6</ele>
        <time>2022-06-10T11:59:38Z</time>
      </trkpt>
      <trkpt lat="44.70715" lon="4.1991">
        <ele>617.8</ele>
        <time>2022-06-10T11:59:40Z</time>
      </trkpt>
      <trkpt lat="44.70719" lon="4.19912">
        <ele>618</ele>
        <time>2022-06-10T11:59:41Z</time>
      </trkpt>
      <trkpt lat="44.70721" lon="4.19915">
        <ele>618.2</ele>
        <time>2022-06-10T11:59:43Z</time>
      </trkpt>
      <trkpt lat="44.70723" lon="4.1992">
        <ele>618.3</ele>
        <time>2022-06-10T11:59:44Z</time>
      </trkpt>
      <trkpt lat="44.70723" lon="4.19922">
        <ele>618.4</ele>
        <time>2022-06-10T11:59:45Z</time>
      </trkpt>
      <trkpt lat="44.70723" lon="4.19926">
        <ele>618.5</ele>
        <time>2022-06-10T11:59:46Z</time>
      </trkpt>
      <trkpt lat="44.70723" lon="4.19928">
        <ele>618.5</ele>
        <time>2022-06-10T11:59:47Z</time>
      </trkpt>
      <trkpt lat="44.70723" lon="4.19932">
        <ele>618.7</ele>
        <time>2022-06-10T11:59:48Z</time>
      </trkpt>
      <trkpt lat="44.70723" lon="4.19934">
        <ele>618.7</ele>
        <time>2022-06-10T11:59:49Z</time>
      </trkpt>
      <trkpt lat="44.70722" lon="4.19939">
        <ele>618.9</ele>
        <time>2022-06-10T11:59:50Z</time>
      </trkpt>
      <trkpt lat="44.70721" lon="4.19945">
        <ele>619</ele>
        <time>2022-06-10T11:59:52Z</time>
      </trkpt>
      <trkpt lat="44.70721" lon="4.19947">
        <ele>619.1</ele>
        <time>2022-06-10T11:59:53Z</time>
      </trkpt>
      <trkpt lat="44.7072" lon="4.19949">
        <ele>619.1</ele>
        <time>2022-06-10T11:59:54Z</time>
      </trkpt>
      <trkpt lat="44.7072" lon="4.19954">
        <ele>619.3</ele>
        <time>2022-06-10T11:59:55Z</time>
      </trkpt>
      <trkpt lat="44.7072" lon="4.19956">
        <ele>619.3</ele>
        <time>2022-06-10T11:59:56Z</time>
      </trkpt>
      <trkpt lat="44.7072" lon="4.1996">
        <ele>619.4</ele>
        <time>2022-06-10T11:59:57Z</time>
      </trkpt>
      <trkpt lat="44.7072" lon="4.19962">
        <ele>619.4</ele>
        <time>2022-06-10T11:59:58Z</time>
      </trkpt>
      <trkpt lat="44.70721" lon="4.19967">
        <ele>619.5</ele>
        <time>2022-06-10T11:59:59Z</time>
      </trkpt>
      <trkpt lat="44.70721" lon="4.19969">
        <ele>619.6</ele>
        <time>2022-06-10T12:00:00Z</time>
      </trkpt>
      <trkpt lat="44.70721" lon="4.19973">
        <ele>619.6</ele>
        <time>2022-06-10T12:00:01Z</time>
      </trkpt>
      <trkpt lat="44.70721" lon="4.19974">
        <ele>619.7</ele>
        <time>2022-06-10T12:00:02Z</time>
      </trkpt>
      <trkpt lat="44.70721" lon="4.19978">
        <ele>619.7</ele>
        <time>2022-06-10T12:00:03Z</time>
      </trkpt>
      <trkpt lat="44.70722" lon="4.19982">
        <ele>619.7</ele>
        <time>2022-06-10T12:00:04Z</time>
      </trkpt>
      <trkpt lat="44.70724" lon="4.19987">
        <ele>619.8</ele>
        <time>2022-06-10T12:00:05Z</time>
      </trkpt>
      <trkpt lat="44.70725" lon="4.19988">
        <ele>619.8</ele>
        <time>2022-06-10T12:00:06Z</time>
      </trkpt>
      <trkpt lat="44.70727" lon="4.19993">
        <ele>619.8</ele>
        <time>2022-06-10T12:00:07Z</time>
      </trkpt>
      <trkpt lat="44.70727" lon="4.19994">
        <ele>619.8</ele>
        <time>2022-06-10T12:00:08Z</time>
      </trkpt>
      <trkpt lat="44.7073" lon="4.19999">
        <ele>619.8</ele>
        <time>2022-06-10T12:00:09Z</time>
      </trkpt>
      <trkpt lat="44.70731" lon="4.20001">
        <ele>619.8</ele>
        <time>2022-06-10T12:00:10Z</time>
      </trkpt>
      <trkpt lat="44.70733" lon="4.20004">
        <ele>619.8</ele>
        <time>2022-06-10T12:00:11Z</time>
      </trkpt>
      <trkpt lat="44.70735" lon="4.20006">
        <ele>619.7</ele>
        <time>2022-06-10T12:00:12Z</time>
      </trkpt>
      <trkpt lat="44.70738" lon="4.20008">
        <ele>619.7</ele>
        <time>2022-06-10T12:00:13Z</time>
      </trkpt>
      <trkpt lat="44.70742" lon="4.20012">
        <ele>619.6</ele>
        <time>2022-06-10T12:00:15Z</time>
      </trkpt>
      <trkpt lat="44.70745" lon="4.20014">
        <ele>619.5</ele>
        <time>2022-06-10T12:00:16Z</time>
      </trkpt>
      <trkpt lat="44.70747" lon="4.20017">
        <ele>619.5</ele>
        <time>2022-06-10T12:00:17Z</time>
      </trkpt>
      <trkpt lat="44.70752" lon="4.20021">
        <ele>619.4</ele>
        <time>2022-06-10T12:00:18Z</time>
      </trkpt>
      <trkpt lat="44.70755" lon="4.20025">
        <ele>619.4</ele>
        <time>2022-06-10T12:00:20Z</time>
      </trkpt>
      <trkpt lat="44.70759" lon="4.20031">
        <ele>619.4</ele>
        <time>2022-06-10T12:00:21Z</time>
      </trkpt>
      <trkpt lat="44.70762" lon="4.20034">
        <ele>619.4</ele>
        <time>2022-06-10T12:00:22Z</time>
      </trkpt>
      <trkpt lat="44.70764" lon="4.20038">
        <ele>619.5</ele>
        <time>2022-06-10T12:00:24Z</time>
      </trkpt>
      <trkpt lat="44.70765" lon="4.20044">
        <ele>619.5</ele>
        <time>2022-06-10T12:00:25Z</time>
      </trkpt>
      <trkpt lat="44.70766" lon="4.20047">
        <ele>619.6</ele>
        <time>2022-06-10T12:00:26Z</time>
      </trkpt>
      <trkpt lat="44.70766" lon="4.20053">
        <ele>619.6</ele>
        <time>2022-06-10T12:00:27Z</time>
      </trkpt>
      <trkpt lat="44.70766" lon="4.20054">
        <ele>619.6</ele>
        <time>2022-06-10T12:00:28Z</time>
      </trkpt>
      <trkpt lat="44.70767" lon="4.2006">
        <ele>619.7</ele>
        <time>2022-06-10T12:00:29Z</time>
      </trkpt>
      <trkpt lat="44.70766" lon="4.20061">
        <ele>619.7</ele>
        <time>2022-06-10T12:00:30Z</time>
      </trkpt>
      <trkpt lat="44.70765" lon="4.20065">
        <ele>619.7</ele>
        <time>2022-06-10T12:00:32Z</time>
      </trkpt>
      <trkpt lat="44.70765" lon="4.2007">
        <ele>619.8</ele>
        <time>2022-06-10T12:00:33Z</time>
      </trkpt>
      <trkpt lat="44.70765" lon="4.20073">
        <ele>619.8</ele>
        <time>2022-06-10T12:00:34Z</time>
      </trkpt>
      <trkpt lat="44.70765" lon="4.20078">
        <ele>619.8</ele>
        <time>2022-06-10T12:00:35Z</time>
      </trkpt>
      <trkpt lat="44.70765" lon="4.20082">
        <ele>619.8</ele>
        <time>2022-06-10T12:00:36Z</time>
      </trkpt>
      <trkpt lat="44.70765" lon="4.20089">
        <ele>619.8</ele>
        <time>2022-06-10T12:00:37Z</time>
      </trkpt>
      <trkpt lat="44.70765" lon="4.20094">
        <ele>619.8</ele>
        <time>2022-06-10T12:00:38Z</time>
      </trkpt>
      <trkpt lat="44.70766" lon="4.20098">
        <ele>619.8</ele>
        <time>2022-06-10T12:00:40Z</time>
      </trkpt>
      <trkpt lat="44.70766" lon="4.20103">
        <ele>619.8</ele>
        <time>2022-06-10T12:00:41Z</time>
      </trkpt>
      <trkpt lat="44.70766" lon="4.20107">
        <ele>619.8</ele>
        <time>2022-06-10T12:00:42Z</time>
      </trkpt>
      <trkpt lat="44.70766" lon="4.20112">
        <ele>619.8</ele>
        <time>2022-06-10T12:00:43Z</time>
      </trkpt>
      <trkpt lat="44.70768" lon="4.20121">
        <ele>619.7</ele>
        <time>2022-06-10T12:00:44Z</time>
      </trkpt>
      <trkpt lat="44.70769" lon="4.20126">
        <ele>619.7</ele>
        <time>2022-06-10T12:00:45Z</time>
      </trkpt>
      <trkpt lat="44.7077" lon="4.20135">
        <ele>619.7</ele>
        <time>2022-06-10T12:00:47Z</time>
      </trkpt>
      <trkpt lat="44.70772" lon="4.20143">
        <ele>619.7</ele>
        <time>2022-06-10T12:00:48Z</time>
      </trkpt>
      <trkpt lat="44.70774" lon="4.20149">
        <ele>619.6</ele>
        <time>2022-06-10T12:00:49Z</time>
      </trkpt>
      <trkpt lat="44.70777" lon="4.20155">
        <ele>619.6</ele>
        <time>2022-06-10T12:00:50Z</time>
      </trkpt>
      <trkpt lat="44.70779" lon="4.20161">
        <ele>619.5</ele>
        <time>2022-06-10T12:00:51Z</time>
      </trkpt>
      <trkpt lat="44.70783" lon="4.20168">
        <ele>619.5</ele>
        <time>2022-06-10T12:00:53Z</time>
      </trkpt>
      <trkpt lat="44.70785" lon="4.20173">
        <ele>619.4</ele>
        <time>2022-06-10T12:00:54Z</time>
      </trkpt>
      <trkpt lat="44.70785" lon="4.20179">
        <ele>619.4</ele>
        <time>2022-06-10T12:00:55Z</time>
      </trkpt>
      <trkpt lat="44.70786" lon="4.20185">
        <ele>619.3</ele>
        <time>2022-06-10T12:00:56Z</time>
      </trkpt>
      <trkpt lat="44.70788" lon="4.20195">
        <ele>619.3</ele>
        <time>2022-06-10T12:00:57Z</time>
      </trkpt>
      <trkpt lat="44.70789" lon="4.20202">
        <ele>619.3</ele>
        <time>2022-06-10T12:00:59Z</time>
      </trkpt>
      <trkpt lat="44.7079" lon="4.20208">
        <ele>619.2</ele>
        <time>2022-06-10T12:01:00Z</time>
      </trkpt>
      <trkpt lat="44.7079" lon="4.20214">
        <ele>619.2</ele>
        <time>2022-06-10T12:01:01Z</time>
      </trkpt>
      <trkpt lat="44.7079" lon="4.20219">
        <ele>619.2</ele>
        <time>2022-06-10T12:01:02Z</time>
      </trkpt>
      <trkpt lat="44.7079" lon="4.20225">
        <ele>619.1</ele>
        <time>2022-06-10T12:01:03Z</time>
      </trkpt>
      <trkpt lat="44.70788" lon="4.20235">
        <ele>619</ele>
        <time>2022-06-10T12:01:04Z</time>
      </trkpt>
      <trkpt lat="44.70788" lon="4.2024">
        <ele>618.9</ele>
        <time>2022-06-10T12:01:05Z</time>
      </trkpt>
      <trkpt lat="44.70788" lon="4.20245">
        <ele>618.8</ele>
        <time>2022-06-10T12:01:06Z</time>
      </trkpt>
      <trkpt lat="44.70789" lon="4.20252">
        <ele>618.6</ele>
        <time>2022-06-10T12:01:08Z</time>
      </trkpt>
      <trkpt lat="44.70791" lon="4.20259">
        <ele>618.4</ele>
        <time>2022-06-10T12:01:09Z</time>
      </trkpt>
      <trkpt lat="44.70797" lon="4.20267">
        <ele>617.9</ele>
        <time>2022-06-10T12:01:11Z</time>
      </trkpt>
      <trkpt lat="44.70802" lon="4.2027">
        <ele>617.7</ele>
        <time>2022-06-10T12:01:12Z</time>
      </trkpt>
      <trkpt lat="44.70807" lon="4.20272">
        <ele>617.4</ele>
        <time>2022-06-10T12:01:13Z</time>
      </trkpt>
      <trkpt lat="44.70812" lon="4.20274">
        <ele>617.2</ele>
        <time>2022-06-10T12:01:14Z</time>
      </trkpt>
      <trkpt lat="44.70817" lon="4.20277">
        <ele>617</ele>
        <time>2022-06-10T12:01:15Z</time>
      </trkpt>
      <trkpt lat="44.70823" lon="4.20279">
        <ele>616.8</ele>
        <time>2022-06-10T12:01:16Z</time>
      </trkpt>
      <trkpt lat="44.70828" lon="4.20281">
        <ele>616.6</ele>
        <time>2022-06-10T12:01:17Z</time>
      </trkpt>
      <trkpt lat="44.70833" lon="4.20282">
        <ele>616.5</ele>
        <time>2022-06-10T12:01:18Z</time>
      </trkpt>
      <trkpt lat="44.70838" lon="4.20284">
        <ele>616.4</ele>
        <time>2022-06-10T12:01:19Z</time>
      </trkpt>
      <trkpt lat="44.70843" lon="4.20285">
        <ele>616.3</ele>
        <time>2022-06-10T12:01:20Z</time>
      </trkpt>
      <trkpt lat="44.70848" lon="4.20287">
        <ele>616.2</ele>
        <time>2022-06-10T12:01:21Z</time>
      </trkpt>
      <trkpt lat="44.70852" lon="4.20291">
        <ele>616.1</ele>
        <time>2022-06-10T12:01:22Z</time>
      </trkpt>
      <trkpt lat="44.70855" lon="4.20298">
        <ele>616</ele>
        <time>2022-06-10T12:01:23Z</time>
      </trkpt>
      <trkpt lat="44.70857" lon="4.20304">
        <ele>615.9</ele>
        <time>2022-06-10T12:01:24Z</time>
      </trkpt>
      <trkpt lat="44.70857" lon="4.20311">
        <ele>615.8</ele>
        <time>2022-06-10T12:01:25Z</time>
      </trkpt>
      <trkpt lat="44.70858" lon="4.20319">
        <ele>615.7</ele>
        <time>2022-06-10T12:01:26Z</time>
      </trkpt>
      <trkpt lat="44.70859" lon="4.20326">
        <ele>615.6</ele>
        <time>2022-06-10T12:01:27Z</time>
      </trkpt>
      <trkpt lat="44.7086" lon="4.20334">
        <ele>615.5</ele>
        <time>2022-06-10T12:01:28Z</time>
      </trkpt>
      <trkpt lat="44.70861" lon="4.20342">
        <ele>615.4</ele>
        <time>2022-06-10T12:01:29Z</time>
      </trkpt>
      <trkpt lat="44.70862" lon="4.2035">
        <ele>615.3</ele>
        <time>2022-06-10T12:01:30Z</time>
      </trkpt>
      <trkpt lat="44.70863" lon="4.20358">
        <ele>615.3</ele>
        <time>2022-06-10T12:01:31Z</time>
      </trkpt>
      <trkpt lat="44.70864" lon="4.20366">
        <ele>615.2</ele>
        <time>2022-06-10T12:01:32Z</time>
      </trkpt>
      <trkpt lat="44.70864" lon="4.20374">
        <ele>615.2</ele>
        <time>2022-06-10T12:01:33Z</time>
      </trkpt>
      <trkpt lat="44.70863" lon="4.20381">
        <ele>615.1</ele>
        <time>2022-06-10T12:01:34Z</time>
      </trkpt>
      <trkpt lat="44.70862" lon="4.20388">
        <ele>615.1</ele>
        <time>2022-06-10T12:01:35Z</time>
      </trkpt>
      <trkpt lat="44.70862" lon="4.20395">
        <ele>615</ele>
        <time>2022-06-10T12:01:36Z</time>
      </trkpt>
      <trkpt lat="44.7086" lon="4.20402">
        <ele>614.9</ele>
        <time>2022-06-10T12:01:37Z</time>
      </trkpt>
      <trkpt lat="44.70859" lon="4.20409">
        <ele>614.9</ele>
        <time>2022-06-10T12:01:38Z</time>
      </trkpt>
      <trkpt lat="44.70858" lon="4.20415">
        <ele>614.9</ele>
        <time>2022-06-10T12:01:39Z</time>
      </trkpt>
      <trkpt lat="44.70857" lon="4.20422">
        <ele>614.9</ele>
        <time>2022-06-10T12:01:40Z</time>
      </trkpt>
      <trkpt lat="44.70856" lon="4.20429">
        <ele>614.9</ele>
        <time>2022-06-10T12:01:41Z</time>
      </trkpt>
      <trkpt lat="44.70855" lon="4.20436">
        <ele>614.9</ele>
        <time>2022-06-10T12:01:42Z</time>
      </trkpt>
      <trkpt lat="44.70854" lon="4.20442">
        <ele>615</ele>
        <time>2022-06-10T12:01:43Z</time>
      </trkpt>
      <trkpt lat="44.70853" lon="4.20448">
        <ele>615</ele>
        <time>2022-06-10T12:01:44Z</time>
      </trkpt>
      <trkpt lat="44.70852" lon="4.20455">
        <ele>615</ele>
        <time>2022-06-10T12:01:45Z</time>
      </trkpt>
      <trkpt lat="44.70851" lon="4.20461">
        <ele>615.1</ele>
        <time>2022-06-10T12:01:46Z</time>
      </trkpt>
      <trkpt lat="44.7085" lon="4.20467">
        <ele>615.2</ele>
        <time>2022-06-10T12:01:47Z</time>
      </trkpt>
      <trkpt lat="44.7085" lon="4.20471">
        <ele>615.2</ele>
        <time>2022-06-10T12:01:48Z</time>
      </trkpt>
      <trkpt lat="44.70849" lon="4.20476">
        <ele>615.3</ele>
        <time>2022-06-10T12:01:49Z</time>
      </trkpt>
      <trkpt lat="44.70848" lon="4.20483">
        <ele>615.4</ele>
        <time>2022-06-10T12:01:50Z</time>
      </trkpt>
      <trkpt lat="44.70848" lon="4.20488">
        <ele>615.5</ele>
        <time>2022-06-10T12:01:51Z</time>
      </trkpt>
      <trkpt lat="44.70847" lon="4.20496">
        <ele>615.6</ele>
        <time>2022-06-10T12:01:52Z</time>
      </trkpt>
      <trkpt lat="44.70846" lon="4.20501">
        <ele>615.8</ele>
        <time>2022-06-10T12:01:53Z</time>
      </trkpt>
      <trkpt lat="44.70846" lon="4.20505">
        <ele>615.8</ele>
        <time>2022-06-10T12:01:54Z</time>
      </trkpt>
      <trkpt lat="44.70849" lon="4.20513">
        <ele>616.1</ele>
        <time>2022-06-10T12:01:55Z</time>
      </trkpt>
      <trkpt lat="44.70852" lon="4.20521">
        <ele>616.4</ele>
        <time>2022-06-10T12:01:56Z</time>
      </trkpt>
      <trkpt lat="44.70856" lon="4.20525">
        <ele>616.6</ele>
        <time>2022-06-10T12:01:58Z</time>
      </trkpt>
      <trkpt lat="44.70861" lon="4.20525">
        <ele>616.9</ele>
        <time>2022-06-10T12:01:59Z</time>
      </trkpt>
      <trkpt lat="44.7087" lon="4.20519">
        <ele>617.4</ele>
        <time>2022-06-10T12:02:00Z</time>
      </trkpt>
      <trkpt lat="44.70873" lon="4.20515">
        <ele>617.7</ele>
        <time>2022-06-10T12:02:02Z</time>
      </trkpt>
      <trkpt lat="44.70876" lon="4.20511">
        <ele>618</ele>
        <time>2022-06-10T12:02:03Z</time>
      </trkpt>
      <trkpt lat="44.70881" lon="4.20505">
        <ele>618.5</ele>
        <time>2022-06-10T12:02:05Z</time>
      </trkpt>
      <trkpt lat="44.70884" lon="4.20503">
        <ele>618.8</ele>
        <time>2022-06-10T12:02:06Z</time>
      </trkpt>
      <trkpt lat="44.70888" lon="4.20499">
        <ele>619.2</ele>
        <time>2022-06-10T12:02:07Z</time>
      </trkpt>
      <trkpt lat="44.70893" lon="4.20496">
        <ele>619.7</ele>
        <time>2022-06-10T12:02:09Z</time>
      </trkpt>
      <trkpt lat="44.70895" lon="4.20494">
        <ele>619.9</ele>
        <time>2022-06-10T12:02:10Z</time>
      </trkpt>
      <trkpt lat="44.70896" lon="4.20493">
        <ele>620</ele>
        <time>2022-06-10T12:02:11Z</time>
      </trkpt>
      <trkpt lat="44.70901" lon="4.2049">
        <ele>620.5</ele>
        <time>2022-06-10T12:02:12Z</time>
      </trkpt>
      <trkpt lat="44.70906" lon="4.20487">
        <ele>621</ele>
        <time>2022-06-10T12:02:14Z</time>
      </trkpt>
      <trkpt lat="44.70909" lon="4.20485">
        <ele>621.3</ele>
        <time>2022-06-10T12:02:15Z</time>
      </trkpt>
      <trkpt lat="44.70912" lon="4.20483">
        <ele>621.8</ele>
        <time>2022-06-10T12:02:16Z</time>
      </trkpt>
      <trkpt lat="44.70914" lon="4.20482">
        <ele>621.9</ele>
        <time>2022-06-10T12:02:17Z</time>
      </trkpt>
      <trkpt lat="44.70917" lon="4.20481">
        <ele>622.3</ele>
        <time>2022-06-10T12:02:18Z</time>
      </trkpt>
      <trkpt lat="44.70918" lon="4.20481">
        <ele>622.4</ele>
        <time>2022-06-10T12:02:19Z</time>
      </trkpt>
      <trkpt lat="44.70922" lon="4.2048">
        <ele>622.8</ele>
        <time>2022-06-10T12:02:20Z</time>
      </trkpt>
      <trkpt lat="44.70923" lon="4.2048">
        <ele>623</ele>
        <time>2022-06-10T12:02:21Z</time>
      </trkpt>
      <trkpt lat="44.70926" lon="4.20479">
        <ele>623.3</ele>
        <time>2022-06-10T12:02:22Z</time>
      </trkpt>
      <trkpt lat="44.70927" lon="4.20479">
        <ele>623.4</ele>
        <time>2022-06-10T12:02:23Z</time>
      </trkpt>
      <trkpt lat="44.70929" lon="4.20479">
        <ele>623.7</ele>
        <time>2022-06-10T12:02:24Z</time>
      </trkpt>
      <trkpt lat="44.7093" lon="4.20478">
        <ele>623.9</ele>
        <time>2022-06-10T12:02:25Z</time>
      </trkpt>
      <trkpt lat="44.70933" lon="4.20478">
        <ele>624.2</ele>
        <time>2022-06-10T12:02:26Z</time>
      </trkpt>
      <trkpt lat="44.70934" lon="4.20478">
        <ele>624.3</ele>
        <time>2022-06-10T12:02:27Z</time>
      </trkpt>
      <trkpt lat="44.70937" lon="4.20477">
        <ele>624.7</ele>
        <time>2022-06-10T12:02:28Z</time>
      </trkpt>
      <trkpt lat="44.70938" lon="4.20477">
        <ele>624.8</ele>
        <time>2022-06-10T12:02:29Z</time>
      </trkpt>
      <trkpt lat="44.70941" lon="4.20478">
        <ele>625.2</ele>
        <time>2022-06-10T12:02:30Z</time>
      </trkpt>
      <trkpt lat="44.70942" lon="4.20478">
        <ele>625.3</ele>
        <time>2022-06-10T12:02:31Z</time>
      </trkpt>
      <trkpt lat="44.70943" lon="4.20478">
        <ele>625.5</ele>
        <time>2022-06-10T12:02:32Z</time>
      </trkpt>
      <trkpt lat="44.70945" lon="4.20479">
        <ele>625.7</ele>
        <time>2022-06-10T12:02:33Z</time>
      </trkpt>
      <trkpt lat="44.70947" lon="4.2048">
        <ele>625.9</ele>
        <time>2022-06-10T12:02:34Z</time>
      </trkpt>
      <trkpt lat="44.70948" lon="4.2048">
        <ele>626.1</ele>
        <time>2022-06-10T12:02:35Z</time>
      </trkpt>
      <trkpt lat="44.7095" lon="4.20481">
        <ele>626.3</ele>
        <time>2022-06-10T12:02:36Z</time>
      </trkpt>
      <trkpt lat="44.70951" lon="4.20482">
        <ele>626.5</ele>
        <time>2022-06-10T12:02:37Z</time>
      </trkpt>
      <trkpt lat="44.70953" lon="4.20483">
        <ele>626.7</ele>
        <time>2022-06-10T12:02:38Z</time>
      </trkpt>
      <trkpt lat="44.70954" lon="4.20484">
        <ele>626.9</ele>
        <time>2022-06-10T12:02:39Z</time>
      </trkpt>
      <trkpt lat="44.70955" lon="4.20486">
        <ele>627.1</ele>
        <time>2022-06-10T12:02:40Z</time>
      </trkpt>
      <trkpt lat="44.70956" lon="4.20487">
        <ele>627.2</ele>
        <time>2022-06-10T12:02:41Z</time>
      </trkpt>
      <trkpt lat="44.70958" lon="4.20489">
        <ele>627.4</ele>
        <time>2022-06-10T12:02:42Z</time>
      </trkpt>
      <trkpt lat="44.70959" lon="4.2049">
        <ele>627.6</ele>
        <time>2022-06-10T12:02:43Z</time>
      </trkpt>
      <trkpt lat="44.7096" lon="4.20492">
        <ele>627.8</ele>
        <time>2022-06-10T12:02:44Z</time>
      </trkpt>
      <trkpt lat="44.70961" lon="4.20493">
        <ele>628</ele>
        <time>2022-06-10T12:02:45Z</time>
      </trkpt>
      <trkpt lat="44.70963" lon="4.20495">
        <ele>628.2</ele>
        <time>2022-06-10T12:02:46Z</time>
      </trkpt>
      <trkpt lat="44.70964" lon="4.20497">
        <ele>628.4</ele>
        <time>2022-06-10T12:02:47Z</time>
      </trkpt>
      <trkpt lat="44.70965" lon="4.20499">
        <ele>628.6</ele>
        <time>2022-06-10T12:02:48Z</time>
      </trkpt>
      <trkpt lat="44.70966" lon="4.205">
        <ele>628.8</ele>
        <time>2022-06-10T12:02:49Z</time>
      </trkpt>
      <trkpt lat="44.70967" lon="4.20502">
        <ele>629</ele>
        <time>2022-06-10T12:02:50Z</time>
      </trkpt>
      <trkpt lat="44.70968" lon="4.20504">
        <ele>629.2</ele>
        <time>2022-06-10T12:02:51Z</time>
      </trkpt>
      <trkpt lat="44.70969" lon="4.20506">
        <ele>629.4</ele>
        <time>2022-06-10T12:02:52Z</time>
      </trkpt>
      <trkpt lat="44.70971" lon="4.20507">
        <ele>629.6</ele>
        <time>2022-06-10T12:02:53Z</time>
      </trkpt>
      <trkpt lat="44.70972" lon="4.20508">
        <ele>629.8</ele>
        <time>2022-06-10T12:02:54Z</time>
      </trkpt>
      <trkpt lat="44.70973" lon="4.2051">
        <ele>629.9</ele>
        <time>2022-06-10T12:02:55Z</time>
      </trkpt>
      <trkpt lat="44.70974" lon="4.20511">
        <ele>630.1</ele>
        <time>2022-06-10T12:02:56Z</time>
      </trkpt>
      <trkpt lat="44.70976" lon="4.20512">
        <ele>630.3</ele>
        <time>2022-06-10T12:02:57Z</time>
      </trkpt>
      <trkpt lat="44.70977" lon="4.20514">
        <ele>630.5</ele>
        <time>2022-06-10T12:02:58Z</time>
      </trkpt>
      <trkpt lat="44.70978" lon="4.20515">
        <ele>630.7</ele>
        <time>2022-06-10T12:02:59Z</time>
      </trkpt>
      <trkpt lat="44.70979" lon="4.20517">
        <ele>630.9</ele>
        <time>2022-06-10T12:03:00Z</time>
      </trkpt>
      <trkpt lat="44.7098" lon="4.20518">
        <ele>631</ele>
        <time>2022-06-10T12:03:01Z</time>
      </trkpt>
      <trkpt lat="44.70982" lon="4.20519">
        <ele>631.3</ele>
        <time>2022-06-10T12:03:02Z</time>
      </trkpt>
      <trkpt lat="44.70983" lon="4.2052">
        <ele>631.4</ele>
        <time>2022-06-10T12:03:03Z</time>
      </trkpt>
      <trkpt lat="44.70984" lon="4.2052">
        <ele>631.5</ele>
        <time>2022-06-10T12:03:04Z</time>
      </trkpt>
      <trkpt lat="44.70985" lon="4.2052">
        <ele>631.7</ele>
        <time>2022-06-10T12:03:05Z</time>
      </trkpt>
      <trkpt lat="44.70986" lon="4.2052">
        <ele>631.8</ele>
        <time>2022-06-10T12:03:06Z</time>
      </trkpt>
      <trkpt lat="44.70988" lon="4.2052">
        <ele>632</ele>
        <time>2022-06-10T12:03:07Z</time>
      </trkpt>
      <trkpt lat="44.7099" lon="4.2052">
        <ele>632.2</ele>
        <time>2022-06-10T12:03:08Z</time>
      </trkpt>
      <trkpt lat="44.70992" lon="4.20519">
        <ele>632.6</ele>
        <time>2022-06-10T12:03:09Z</time>
      </trkpt>
      <trkpt lat="44.70993" lon="4.20518">
        <ele>632.7</ele>
        <time>2022-06-10T12:03:10Z</time>
      </trkpt>
      <trkpt lat="44.70996" lon="4.20516">
        <ele>633</ele>
        <time>2022-06-10T12:03:11Z</time>
      </trkpt>
      <trkpt lat="44.70997" lon="4.20516">
        <ele>633.1</ele>
        <time>2022-06-10T12:03:12Z</time>
      </trkpt>
      <trkpt lat="44.70998" lon="4.20514">
        <ele>633.3</ele>
        <time>2022-06-10T12:03:13Z</time>
      </trkpt>
      <trkpt lat="44.70999" lon="4.20513">
        <ele>633.5</ele>
        <time>2022-06-10T12:03:14Z</time>
      </trkpt>
      <trkpt lat="44.71001" lon="4.2051">
        <ele>633.8</ele>
        <time>2022-06-10T12:03:15Z</time>
      </trkpt>
      <trkpt lat="44.71002" lon="4.20509">
        <ele>633.9</ele>
        <time>2022-06-10T12:03:16Z</time>
      </trkpt>
      <trkpt lat="44.71003" lon="4.20507">
        <ele>634.1</ele>
        <time>2022-06-10T12:03:17Z</time>
      </trkpt>
      <trkpt lat="44.71004" lon="4.20506">
        <ele>634.2</ele>
        <time>2022-06-10T12:03:18Z</time>
      </trkpt>
      <trkpt lat="44.71005" lon="4.20504">
        <ele>634.4</ele>
        <time>2022-06-10T12:03:19Z</time>
      </trkpt>
      <trkpt lat="44.71006" lon="4.20502">
        <ele>634.6</ele>
        <time>2022-06-10T12:03:20Z</time>
      </trkpt>
      <trkpt lat="44.71007" lon="4.20498">
        <ele>634.9</ele>
        <time>2022-06-10T12:03:21Z</time>
      </trkpt>
      <trkpt lat="44.71008" lon="4.20497">
        <ele>635</ele>
        <time>2022-06-10T12:03:22Z</time>
      </trkpt>
      <trkpt lat="44.71008" lon="4.20495">
        <ele>635.2</ele>
        <time>2022-06-10T12:03:23Z</time>
      </trkpt>
      <trkpt lat="44.71009" lon="4.20493">
        <ele>635.3</ele>
        <time>2022-06-10T12:03:24Z</time>
      </trkpt>
      <trkpt lat="44.71008" lon="4.20493">
        <ele>635.4</ele>
        <time>2022-06-10T12:03:25Z</time>
      </trkpt>
      <trkpt lat="44.71009" lon="4.20491">
        <ele>635.6</ele>
        <time>2022-06-10T12:03:26Z</time>
      </trkpt>
      <trkpt lat="44.7101" lon="4.20489">
        <ele>635.8</ele>
        <time>2022-06-10T12:03:27Z</time>
      </trkpt>
      <trkpt lat="44.71012" lon="4.20485">
        <ele>636.1</ele>
        <time>2022-06-10T12:03:28Z</time>
      </trkpt>
      <trkpt lat="44.71012" lon="4.20484">
        <ele>636.2</ele>
        <time>2022-06-10T12:03:29Z</time>
      </trkpt>
      <trkpt lat="44.71014" lon="4.20481">
        <ele>636.5</ele>
        <time>2022-06-10T12:03:30Z</time>
      </trkpt>
      <trkpt lat="44.71015" lon="4.2048">
        <ele>636.6</ele>
        <time>2022-06-10T12:03:31Z</time>
      </trkpt>
      <trkpt lat="44.71015" lon="4.20478">
        <ele>636.7</ele>
        <time>2022-06-10T12:03:32Z</time>
      </trkpt>
      <trkpt lat="44.71017" lon="4.20476">
        <ele>636.9</ele>
        <time>2022-06-10T12:03:33Z</time>
      </trkpt>
      <trkpt lat="44.71018" lon="4.20475">
        <ele>637</ele>
        <time>2022-06-10T12:03:34Z</time>
      </trkpt>
      <trkpt lat="44.71019" lon="4.20473">
        <ele>637.2</ele>
        <time>2022-06-10T12:03:35Z</time>
      </trkpt>
      <trkpt lat="44.7102" lon="4.20471">
        <ele>637.4</ele>
        <time>2022-06-10T12:03:36Z</time>
      </trkpt>
      <trkpt lat="44.71021" lon="4.20469">
        <ele>637.6</ele>
        <time>2022-06-10T12:03:37Z</time>
      </trkpt>
      <trkpt lat="44.71023" lon="4.20467">
        <ele>637.8</ele>
        <time>2022-06-10T12:03:38Z</time>
      </trkpt>
      <trkpt lat="44.71024" lon="4.20466">
        <ele>637.9</ele>
        <time>2022-06-10T12:03:39Z</time>
      </trkpt>
      <trkpt lat="44.71026" lon="4.20464">
        <ele>638.1</ele>
        <time>2022-06-10T12:03:40Z</time>
      </trkpt>
      <trkpt lat="44.7103" lon="4.2046">
        <ele>638.7</ele>
        <time>2022-06-10T12:03:42Z</time>
      </trkpt>
      <trkpt lat="44.71031" lon="4.20458">
        <ele>638.8</ele>
        <time>2022-06-10T12:03:43Z</time>
      </trkpt>
      <trkpt lat="44.71032" lon="4.20457">
        <ele>639</ele>
        <time>2022-06-10T12:03:44Z</time>
      </trkpt>
      <trkpt lat="44.71034" lon="4.20454">
        <ele>639.3</ele>
        <time>2022-06-10T12:03:45Z</time>
      </trkpt>
      <trkpt lat="44.71034" lon="4.20453">
        <ele>639.4</ele>
        <time>2022-06-10T12:03:46Z</time>
      </trkpt>
      <trkpt lat="44.71037" lon="4.2045">
        <ele>639.7</ele>
        <time>2022-06-10T12:03:47Z</time>
      </trkpt>
      <trkpt lat="44.71037" lon="4.20449">
        <ele>639.8</ele>
        <time>2022-06-10T12:03:48Z</time>
      </trkpt>
      <trkpt lat="44.71039" lon="4.20446">
        <ele>640.1</ele>
        <time>2022-06-10T12:03:49Z</time>
      </trkpt>
      <trkpt lat="44.7104" lon="4.20445">
        <ele>640.2</ele>
        <time>2022-06-10T12:03:50Z</time>
      </trkpt>
      <trkpt lat="44.71041" lon="4.20443">
        <ele>640.4</ele>
        <time>2022-06-10T12:03:51Z</time>
      </trkpt>
      <trkpt lat="44.71042" lon="4.20441">
        <ele>640.6</ele>
        <time>2022-06-10T12:03:52Z</time>
      </trkpt>
      <trkpt lat="44.71042" lon="4.20438">
        <ele>640.8</ele>
        <time>2022-06-10T12:03:53Z</time>
      </trkpt>
      <trkpt lat="44.71043" lon="4.20437">
        <ele>640.9</ele>
        <time>2022-06-10T12:03:54Z</time>
      </trkpt>
      <trkpt lat="44.71043" lon="4.20435">
        <ele>641</ele>
        <time>2022-06-10T12:03:55Z</time>
      </trkpt>
      <trkpt lat="44.71043" lon="4.20433">
        <ele>641.2</ele>
        <time>2022-06-10T12:03:56Z</time>
      </trkpt>
      <trkpt lat="44.71044" lon="4.20432">
        <ele>641.3</ele>
        <time>2022-06-10T12:03:57Z</time>
      </trkpt>
      <trkpt lat="44.71045" lon="4.2043">
        <ele>641.5</ele>
        <time>2022-06-10T12:03:58Z</time>
      </trkpt>
      <trkpt lat="44.71046" lon="4.20428">
        <ele>641.7</ele>
        <time>2022-06-10T12:03:59Z</time>
      </trkpt>
      <trkpt lat="44.71048" lon="4.20426">
        <ele>641.8</ele>
        <time>2022-06-10T12:04:00Z</time>
      </trkpt>
      <trkpt lat="44.71049" lon="4.20425">
        <ele>642</ele>
        <time>2022-06-10T12:04:01Z</time>
      </trkpt>
      <trkpt lat="44.7105" lon="4.20423">
        <ele>642.2</ele>
        <time>2022-06-10T12:04:02Z</time>
      </trkpt>
      <trkpt lat="44.71051" lon="4.20421">
        <ele>642.3</ele>
        <time>2022-06-10T12:04:03Z</time>
      </trkpt>
      <trkpt lat="44.71052" lon="4.2042">
        <ele>642.5</ele>
        <time>2022-06-10T12:04:04Z</time>
      </trkpt>
      <trkpt lat="44.71053" lon="4.20419">
        <ele>642.6</ele>
        <time>2022-06-10T12:04:05Z</time>
      </trkpt>
      <trkpt lat="44.71053" lon="4.20418">
        <ele>642.7</ele>
        <time>2022-06-10T12:04:06Z</time>
      </trkpt>
      <trkpt lat="44.71055" lon="4.20416">
        <ele>642.8</ele>
        <time>2022-06-10T12:04:07Z</time>
      </trkpt>
      <trkpt lat="44.71055" lon="4.20415">
        <ele>642.9</ele>
        <time>2022-06-10T12:04:08Z</time>
      </trkpt>
      <trkpt lat="44.71056" lon="4.20413">
        <ele>643.1</ele>
        <time>2022-06-10T12:04:09Z</time>
      </trkpt>
      <trkpt lat="44.71057" lon="4.20412">
        <ele>643.2</ele>
        <time>2022-06-10T12:04:10Z</time>
      </trkpt>
      <trkpt lat="44.7106" lon="4.20409">
        <ele>643.5</ele>
        <time>2022-06-10T12:04:11Z</time>
      </trkpt>
      <trkpt lat="44.7106" lon="4.20408">
        <ele>643.6</ele>
        <time>2022-06-10T12:04:12Z</time>
      </trkpt>
      <trkpt lat="44.71062" lon="4.20405">
        <ele>643.8</ele>
        <time>2022-06-10T12:04:13Z</time>
      </trkpt>
      <trkpt lat="44.71063" lon="4.20404">
        <ele>643.9</ele>
        <time>2022-06-10T12:04:14Z</time>
      </trkpt>
      <trkpt lat="44.71064" lon="4.20403">
        <ele>644</ele>
        <time>2022-06-10T12:04:15Z</time>
      </trkpt>
      <trkpt lat="44.71064" lon="4.20403">
        <ele>644.1</ele>
        <time>2022-06-10T12:04:16Z</time>
      </trkpt>
      <trkpt lat="44.71066" lon="4.20402">
        <ele>644.2</ele>
        <time>2022-06-10T12:04:17Z</time>
      </trkpt>
      <trkpt lat="44.71067" lon="4.204">
        <ele>644.4</ele>
        <time>2022-06-10T12:04:18Z</time>
      </trkpt>
      <trkpt lat="44.71068" lon="4.20399">
        <ele>644.5</ele>
        <time>2022-06-10T12:04:19Z</time>
      </trkpt>
      <trkpt lat="44.71069" lon="4.20398">
        <ele>644.6</ele>
        <time>2022-06-10T12:04:20Z</time>
      </trkpt>
      <trkpt lat="44.71069" lon="4.20396">
        <ele>644.8</ele>
        <time>2022-06-10T12:04:21Z</time>
      </trkpt>
      <trkpt lat="44.7107" lon="4.20395">
        <ele>644.8</ele>
        <time>2022-06-10T12:04:22Z</time>
      </trkpt>
      <trkpt lat="44.7107" lon="4.20394">
        <ele>645</ele>
        <time>2022-06-10T12:04:23Z</time>
      </trkpt>
      <trkpt lat="44.71071" lon="4.20392">
        <ele>645.1</ele>
        <time>2022-06-10T12:04:24Z</time>
      </trkpt>
      <trkpt lat="44.71072" lon="4.2039">
        <ele>645.2</ele>
        <time>2022-06-10T12:04:25Z</time>
      </trkpt>
      <trkpt lat="44.71072" lon="4.20388">
        <ele>645.4</ele>
        <time>2022-06-10T12:04:26Z</time>
      </trkpt>
      <trkpt lat="44.71074" lon="4.20386">
        <ele>645.6</ele>
        <time>2022-06-10T12:04:27Z</time>
      </trkpt>
      <trkpt lat="44.71077" lon="4.20384">
        <ele>645.9</ele>
        <time>2022-06-10T12:04:28Z</time>
      </trkpt>
      <trkpt lat="44.71078" lon="4.20383">
        <ele>646</ele>
        <time>2022-06-10T12:04:29Z</time>
      </trkpt>
      <trkpt lat="44.7108" lon="4.20381">
        <ele>646.3</ele>
        <time>2022-06-10T12:04:30Z</time>
      </trkpt>
      <trkpt lat="44.71081" lon="4.2038">
        <ele>646.5</ele>
        <time>2022-06-10T12:04:31Z</time>
      </trkpt>
      <trkpt lat="44.71083" lon="4.20377">
        <ele>646.8</ele>
        <time>2022-06-10T12:04:32Z</time>
      </trkpt>
      <trkpt lat="44.71083" lon="4.20376">
        <ele>646.9</ele>
        <time>2022-06-10T12:04:33Z</time>
      </trkpt>
      <trkpt lat="44.71085" lon="4.20374">
        <ele>647.2</ele>
        <time>2022-06-10T12:04:34Z</time>
      </trkpt>
      <trkpt lat="44.71086" lon="4.20373">
        <ele>647.3</ele>
        <time>2022-06-10T12:04:35Z</time>
      </trkpt>
      <trkpt lat="44.71089" lon="4.20371">
        <ele>647.6</ele>
        <time>2022-06-10T12:04:36Z</time>
      </trkpt>
      <trkpt lat="44.71089" lon="4.2037">
        <ele>647.7</ele>
        <time>2022-06-10T12:04:37Z</time>
      </trkpt>
      <trkpt lat="44.71091" lon="4.20368">
        <ele>648</ele>
        <time>2022-06-10T12:04:38Z</time>
      </trkpt>
      <trkpt lat="44.71092" lon="4.20367">
        <ele>648.1</ele>
        <time>2022-06-10T12:04:39Z</time>
      </trkpt>
      <trkpt lat="44.71092" lon="4.20366">
        <ele>648.2</ele>
        <time>2022-06-10T12:04:40Z</time>
      </trkpt>
      <trkpt lat="44.71094" lon="4.20363">
        <ele>648.5</ele>
        <time>2022-06-10T12:04:41Z</time>
      </trkpt>
      <trkpt lat="44.71095" lon="4.20362">
        <ele>648.7</ele>
        <time>2022-06-10T12:04:42Z</time>
      </trkpt>
      <trkpt lat="44.71097" lon="4.2036">
        <ele>649</ele>
        <time>2022-06-10T12:04:43Z</time>
      </trkpt>
      <trkpt lat="44.71098" lon="4.2036">
        <ele>649.1</ele>
        <time>2022-06-10T12:04:44Z</time>
      </trkpt>
      <trkpt lat="44.71101" lon="4.20358">
        <ele>649.5</ele>
        <time>2022-06-10T12:04:45Z</time>
      </trkpt>
      <trkpt lat="44.71102" lon="4.20357">
        <ele>649.6</ele>
        <time>2022-06-10T12:04:46Z</time>
      </trkpt>
      <trkpt lat="44.71105" lon="4.20355">
        <ele>650</ele>
        <time>2022-06-10T12:04:47Z</time>
      </trkpt>
      <trkpt lat="44.71106" lon="4.20355">
        <ele>650.1</ele>
        <time>2022-06-10T12:04:48Z</time>
      </trkpt>
      <trkpt lat="44.71108" lon="4.20352">
        <ele>650.4</ele>
        <time>2022-06-10T12:04:49Z</time>
      </trkpt>
      <trkpt lat="44.71109" lon="4.20351">
        <ele>650.5</ele>
        <time>2022-06-10T12:04:50Z</time>
      </trkpt>
      <trkpt lat="44.71111" lon="4.20349">
        <ele>650.8</ele>
        <time>2022-06-10T12:04:51Z</time>
      </trkpt>
      <trkpt lat="44.71112" lon="4.20348">
        <ele>650.9</ele>
        <time>2022-06-10T12:04:52Z</time>
      </trkpt>
      <trkpt lat="44.71113" lon="4.20346">
        <ele>651</ele>
        <time>2022-06-10T12:04:53Z</time>
      </trkpt>
      <trkpt lat="44.71114" lon="4.20344">
        <ele>651.2</ele>
        <time>2022-06-10T12:04:54Z</time>
      </trkpt>
      <trkpt lat="44.71115" lon="4.20342">
        <ele>651.4</ele>
        <time>2022-06-10T12:04:55Z</time>
      </trkpt>
      <trkpt lat="44.71116" lon="4.2034">
        <ele>651.5</ele>
        <time>2022-06-10T12:04:56Z</time>
      </trkpt>
      <trkpt lat="44.71117" lon="4.20338">
        <ele>651.7</ele>
        <time>2022-06-10T12:04:57Z</time>
      </trkpt>
      <trkpt lat="44.71118" lon="4.20336">
        <ele>651.9</ele>
        <time>2022-06-10T12:04:58Z</time>
      </trkpt>
      <trkpt lat="44.71118" lon="4.20334">
        <ele>652.1</ele>
        <time>2022-06-10T12:04:59Z</time>
      </trkpt>
      <trkpt lat="44.71118" lon="4.20331">
        <ele>652.3</ele>
        <time>2022-06-10T12:05:00Z</time>
      </trkpt>
      <trkpt lat="44.71118" lon="4.20327">
        <ele>652.6</ele>
        <time>2022-06-10T12:05:01Z</time>
      </trkpt>
      <trkpt lat="44.71118" lon="4.20325">
        <ele>652.8</ele>
        <time>2022-06-10T12:05:02Z</time>
      </trkpt>
      <trkpt lat="44.71117" lon="4.2032">
        <ele>653.2</ele>
        <time>2022-06-10T12:05:03Z</time>
      </trkpt>
      <trkpt lat="44.71117" lon="4.20318">
        <ele>653.4</ele>
        <time>2022-06-10T12:05:04Z</time>
      </trkpt>
      <trkpt lat="44.71116" lon="4.20314">
        <ele>653.6</ele>
        <time>2022-06-10T12:05:05Z</time>
      </trkpt>
      <trkpt lat="44.71116" lon="4.20313">
        <ele>653.7</ele>
        <time>2022-06-10T12:05:06Z</time>
      </trkpt>
      <trkpt lat="44.71116" lon="4.20308">
        <ele>654</ele>
        <time>2022-06-10T12:05:07Z</time>
      </trkpt>
      <trkpt lat="44.71115" lon="4.20307">
        <ele>654</ele>
        <time>2022-06-10T12:05:08Z</time>
      </trkpt>
      <trkpt lat="44.71116" lon="4.20302">
        <ele>654</ele>
        <time>2022-06-10T12:05:09Z</time>
      </trkpt>
      <trkpt lat="44.71117" lon="4.20296">
        <ele>653.9</ele>
        <time>2022-06-10T12:05:10Z</time>
      </trkpt>
      <trkpt lat="44.7112" lon="4.20287">
        <ele>653.7</ele>
        <time>2022-06-10T12:05:11Z</time>
      </trkpt>
      <trkpt lat="44.71122" lon="4.2028">
        <ele>653.5</ele>
        <time>2022-06-10T12:05:12Z</time>
      </trkpt>
      <trkpt lat="44.71128" lon="4.20275">
        <ele>653.2</ele>
        <time>2022-06-10T12:05:13Z</time>
      </trkpt>
      <trkpt lat="44.71134" lon="4.20272">
        <ele>652.9</ele>
        <time>2022-06-10T12:05:14Z</time>
      </trkpt>
      <trkpt lat="44.7114" lon="4.20271">
        <ele>652.5</ele>
        <time>2022-06-10T12:05:15Z</time>
      </trkpt>
      <trkpt lat="44.71147" lon="4.20273">
        <ele>652</ele>
        <time>2022-06-10T12:05:16Z</time>
      </trkpt>
      <trkpt lat="44.71153" lon="4.20277">
        <ele>651.4</ele>
        <time>2022-06-10T12:05:17Z</time>
      </trkpt>
      <trkpt lat="44.71158" lon="4.20284">
        <ele>650.9</ele>
        <time>2022-06-10T12:05:18Z</time>
      </trkpt>
      <trkpt lat="44.71163" lon="4.20291">
        <ele>650.3</ele>
        <time>2022-06-10T12:05:19Z</time>
      </trkpt>
      <trkpt lat="44.71169" lon="4.20296">
        <ele>649.8</ele>
        <time>2022-06-10T12:05:20Z</time>
      </trkpt>
      <trkpt lat="44.71176" lon="4.20303">
        <ele>649.2</ele>
        <time>2022-06-10T12:05:21Z</time>
      </trkpt>
      <trkpt lat="44.71183" lon="4.2031">
        <ele>648.6</ele>
        <time>2022-06-10T12:05:22Z</time>
      </trkpt>
      <trkpt lat="44.7119" lon="4.20317">
        <ele>648</ele>
        <time>2022-06-10T12:05:23Z</time>
      </trkpt>
      <trkpt lat="44.71197" lon="4.20325">
        <ele>647.5</ele>
        <time>2022-06-10T12:05:24Z</time>
      </trkpt>
      <trkpt lat="44.71204" lon="4.20332">
        <ele>647</ele>
        <time>2022-06-10T12:05:25Z</time>
      </trkpt>
      <trkpt lat="44.71211" lon="4.20341">
        <ele>646.6</ele>
        <time>2022-06-10T12:05:26Z</time>
      </trkpt>
      <trkpt lat="44.71218" lon="4.2035">
        <ele>646.3</ele>
        <time>2022-06-10T12:05:27Z</time>
      </trkpt>
      <trkpt lat="44.71223" lon="4.20361">
        <ele>646.1</ele>
        <time>2022-06-10T12:05:28Z</time>
      </trkpt>
      <trkpt lat="44.71227" lon="4.20372">
        <ele>646</ele>
        <time>2022-06-10T12:05:29Z</time>
      </trkpt>
      <trkpt lat="44.71231" lon="4.20384">
        <ele>645.8</ele>
        <time>2022-06-10T12:05:30Z</time>
      </trkpt>
      <trkpt lat="44.71237" lon="4.20392">
        <ele>645.5</ele>
        <time>2022-06-10T12:05:31Z</time>
      </trkpt>
      <trkpt lat="44.71245" lon="4.20394">
        <ele>645.1</ele>
        <time>2022-06-10T12:05:32Z</time>
      </trkpt>
      <trkpt lat="44.71253" lon="4.20392">
        <ele>644.4</ele>
        <time>2022-06-10T12:05:33Z</time>
      </trkpt>
      <trkpt lat="44.71261" lon="4.20387">
        <ele>643.6</ele>
        <time>2022-06-10T12:05:34Z</time>
      </trkpt>
      <trkpt lat="44.71267" lon="4.20379">
        <ele>642.9</ele>
        <time>2022-06-10T12:05:35Z</time>
      </trkpt>
      <trkpt lat="44.71273" lon="4.20371">
        <ele>642.2</ele>
        <time>2022-06-10T12:05:36Z</time>
      </trkpt>
      <trkpt lat="44.71279" lon="4.20363">
        <ele>641.5</ele>
        <time>2022-06-10T12:05:37Z</time>
      </trkpt>
      <trkpt lat="44.71285" lon="4.20355">
        <ele>640.9</ele>
        <time>2022-06-10T12:05:38Z</time>
      </trkpt>
      <trkpt lat="44.71291" lon="4.20346">
        <ele>640.2</ele>
        <time>2022-06-10T12:05:39Z</time>
      </trkpt>
      <trkpt lat="44.71298" lon="4.20337">
        <ele>639.6</ele>
        <time>2022-06-10T12:05:40Z</time>
      </trkpt>
      <trkpt lat="44.71303" lon="4.20327">
        <ele>639</ele>
        <time>2022-06-10T12:05:41Z</time>
      </trkpt>
      <trkpt lat="44.7131" lon="4.20317">
        <ele>638.4</ele>
        <time>2022-06-10T12:05:42Z</time>
      </trkpt>
      <trkpt lat="44.71316" lon="4.20307">
        <ele>637.8</ele>
        <time>2022-06-10T12:05:43Z</time>
      </trkpt>
      <trkpt lat="44.71323" lon="4.20297">
        <ele>637.3</ele>
        <time>2022-06-10T12:05:44Z</time>
      </trkpt>
      <trkpt lat="44.71328" lon="4.20285">
        <ele>636.7</ele>
        <time>2022-06-10T12:05:45Z</time>
      </trkpt>
      <trkpt lat="44.71333" lon="4.20274">
        <ele>636.2</ele>
        <time>2022-06-10T12:05:46Z</time>
      </trkpt>
      <trkpt lat="44.71338" lon="4.20263">
        <ele>635.7</ele>
        <time>2022-06-10T12:05:47Z</time>
      </trkpt>
      <trkpt lat="44.71345" lon="4.20253">
        <ele>635.2</ele>
        <time>2022-06-10T12:05:48Z</time>
      </trkpt>
      <trkpt lat="44.71354" lon="4.20245">
        <ele>634.5</ele>
        <time>2022-06-10T12:05:49Z</time>
      </trkpt>
      <trkpt lat="44.71365" lon="4.20241">
        <ele>633.8</ele>
        <time>2022-06-10T12:05:50Z</time>
      </trkpt>
      <trkpt lat="44.71375" lon="4.2024">
        <ele>633</ele>
        <time>2022-06-10T12:05:51Z</time>
      </trkpt>
      <trkpt lat="44.71386" lon="4.20243">
        <ele>632.3</ele>
        <time>2022-06-10T12:05:52Z</time>
      </trkpt>
      <trkpt lat="44.71396" lon="4.20249">
        <ele>631.7</ele>
        <time>2022-06-10T12:05:53Z</time>
      </trkpt>
      <trkpt lat="44.71405" lon="4.20256">
        <ele>631.1</ele>
        <time>2022-06-10T12:05:54Z</time>
      </trkpt>
      <trkpt lat="44.71414" lon="4.20264">
        <ele>630.7</ele>
        <time>2022-06-10T12:05:55Z</time>
      </trkpt>
      <trkpt lat="44.71423" lon="4.20271">
        <ele>630.2</ele>
        <time>2022-06-10T12:05:56Z</time>
      </trkpt>
      <trkpt lat="44.71432" lon="4.20274">
        <ele>629.6</ele>
        <time>2022-06-10T12:05:57Z</time>
      </trkpt>
      <trkpt lat="44.71442" lon="4.20271">
        <ele>628.9</ele>
        <time>2022-06-10T12:05:58Z</time>
      </trkpt>
      <trkpt lat="44.7145" lon="4.20265">
        <ele>628</ele>
        <time>2022-06-10T12:05:59Z</time>
      </trkpt>
      <trkpt lat="44.71458" lon="4.20255">
        <ele>627.1</ele>
        <time>2022-06-10T12:06:00Z</time>
      </trkpt>
      <trkpt lat="44.71465" lon="4.20245">
        <ele>626.2</ele>
        <time>2022-06-10T12:06:01Z</time>
      </trkpt>
      <trkpt lat="44.71472" lon="4.20234">
        <ele>625.3</ele>
        <time>2022-06-10T12:06:02Z</time>
      </trkpt>
      <trkpt lat="44.71478" lon="4.20224">
        <ele>624.6</ele>
        <time>2022-06-10T12:06:03Z</time>
      </trkpt>
      <trkpt lat="44.71485" lon="4.20212">
        <ele>623.8</ele>
        <time>2022-06-10T12:06:04Z</time>
      </trkpt>
      <trkpt lat="44.71491" lon="4.20201">
        <ele>623.1</ele>
        <time>2022-06-10T12:06:05Z</time>
      </trkpt>
      <trkpt lat="44.71498" lon="4.2019">
        <ele>622.4</ele>
        <time>2022-06-10T12:06:06Z</time>
      </trkpt>
      <trkpt lat="44.71506" lon="4.2018">
        <ele>621.7</ele>
        <time>2022-06-10T12:06:07Z</time>
      </trkpt>
      <trkpt lat="44.71514" lon="4.20172">
        <ele>620.9</ele>
        <time>2022-06-10T12:06:08Z</time>
      </trkpt>
      <trkpt lat="44.71524" lon="4.20166">
        <ele>620.2</ele>
        <time>2022-06-10T12:06:09Z</time>
      </trkpt>
      <trkpt lat="44.71534" lon="4.20162">
        <ele>619.5</ele>
        <time>2022-06-10T12:06:10Z</time>
      </trkpt>
      <trkpt lat="44.71545" lon="4.20158">
        <ele>618.8</ele>
        <time>2022-06-10T12:06:11Z</time>
      </trkpt>
      <trkpt lat="44.71556" lon="4.20156">
        <ele>618.1</ele>
        <time>2022-06-10T12:06:12Z</time>
      </trkpt>
      <trkpt lat="44.71567" lon="4.20156">
        <ele>617.5</ele>
        <time>2022-06-10T12:06:13Z</time>
      </trkpt>
      <trkpt lat="44.71578" lon="4.20157">
        <ele>616.9</ele>
        <time>2022-06-10T12:06:14Z</time>
      </trkpt>
      <trkpt lat="44.71588" lon="4.20159">
        <ele>615.9</ele>
        <time>2022-06-10T12:06:15Z</time>
      </trkpt>
      <trkpt lat="44.71599" lon="4.20164">
        <ele>614.8</ele>
        <time>2022-06-10T12:06:16Z</time>
      </trkpt>
      <trkpt lat="44.71608" lon="4.20172">
        <ele>613.7</ele>
        <time>2022-06-10T12:06:17Z</time>
      </trkpt>
      <trkpt lat="44.71617" lon="4.20184">
        <ele>612.7</ele>
        <time>2022-06-10T12:06:18Z</time>
      </trkpt>
      <trkpt lat="44.71623" lon="4.20198">
        <ele>611.8</ele>
        <time>2022-06-10T12:06:19Z</time>
      </trkpt>
      <trkpt lat="44.71628" lon="4.20213">
        <ele>610.9</ele>
        <time>2022-06-10T12:06:20Z</time>
      </trkpt>
      <trkpt lat="44.7163" lon="4.2023">
        <ele>610.1</ele>
        <time>2022-06-10T12:06:21Z</time>
      </trkpt>
      <trkpt lat="44.71632" lon="4.20247">
        <ele>609.4</ele>
        <time>2022-06-10T12:06:22Z</time>
      </trkpt>
      <trkpt lat="44.71634" lon="4.20264">
        <ele>608.6</ele>
        <time>2022-06-10T12:06:23Z</time>
      </trkpt>
      <trkpt lat="44.71636" lon="4.2028">
        <ele>607.9</ele>
        <time>2022-06-10T12:06:24Z</time>
      </trkpt>
      <trkpt lat="44.71635" lon="4.20296">
        <ele>607.1</ele>
        <time>2022-06-10T12:06:25Z</time>
      </trkpt>
      <trkpt lat="44.71632" lon="4.20308">
        <ele>606.2</ele>
        <time>2022-06-10T12:06:26Z</time>
      </trkpt>
      <trkpt lat="44.71625" lon="4.20317">
        <ele>605.2</ele>
        <time>2022-06-10T12:06:27Z</time>
      </trkpt>
      <trkpt lat="44.71615" lon="4.20322">
        <ele>604.1</ele>
        <time>2022-06-10T12:06:28Z</time>
      </trkpt>
      <trkpt lat="44.71604" lon="4.20323">
        <ele>603</ele>
        <time>2022-06-10T12:06:29Z</time>
      </trkpt>
      <trkpt lat="44.71593" lon="4.20322">
        <ele>602</ele>
        <time>2022-06-10T12:06:30Z</time>
      </trkpt>
      <trkpt lat="44.71582" lon="4.20319">
        <ele>601</ele>
        <time>2022-06-10T12:06:31Z</time>
      </trkpt>
      <trkpt lat="44.71571" lon="4.20317">
        <ele>600.1</ele>
        <time>2022-06-10T12:06:32Z</time>
      </trkpt>
      <trkpt lat="44.7156" lon="4.20314">
        <ele>599.2</ele>
        <time>2022-06-10T12:06:33Z</time>
      </trkpt>
      <trkpt lat="44.71549" lon="4.20312">
        <ele>598.3</ele>
        <time>2022-06-10T12:06:34Z</time>
      </trkpt>
      <trkpt lat="44.71538" lon="4.20311">
        <ele>597.4</ele>
        <time>2022-06-10T12:06:35Z</time>
      </trkpt>
      <trkpt lat="44.71527" lon="4.20311">
        <ele>596.4</ele>
        <time>2022-06-10T12:06:36Z</time>
      </trkpt>
      <trkpt lat="44.71516" lon="4.20314">
        <ele>595.5</ele>
        <time>2022-06-10T12:06:37Z</time>
      </trkpt>
      <trkpt lat="44.71506" lon="4.20319">
        <ele>594.6</ele>
        <time>2022-06-10T12:06:38Z</time>
      </trkpt>
      <trkpt lat="44.71497" lon="4.20328">
        <ele>593.7</ele>
        <time>2022-06-10T12:06:39Z</time>
      </trkpt>
      <trkpt lat="44.71487" lon="4.20337">
        <ele>592.9</ele>
        <time>2022-06-10T12:06:40Z</time>
      </trkpt>
      <trkpt lat="44.71478" lon="4.20346">
        <ele>592.1</ele>
        <time>2022-06-10T12:06:41Z</time>
      </trkpt>
      <trkpt lat="44.71469" lon="4.20357">
        <ele>591.3</ele>
        <time>2022-06-10T12:06:42Z</time>
      </trkpt>
      <trkpt lat="44.71459" lon="4.20367">
        <ele>590.5</ele>
        <time>2022-06-10T12:06:43Z</time>
      </trkpt>
      <trkpt lat="44.7145" lon="4.20378">
        <ele>589.7</ele>
        <time>2022-06-10T12:06:44Z</time>
      </trkpt>
      <trkpt lat="44.71442" lon="4.20389">
        <ele>588.9</ele>
        <time>2022-06-10T12:06:45Z</time>
      </trkpt>
      <trkpt lat="44.71436" lon="4.20403">
        <ele>588.1</ele>
        <time>2022-06-10T12:06:46Z</time>
      </trkpt>
      <trkpt lat="44.71434" lon="4.20419">
        <ele>587.2</ele>
        <time>2022-06-10T12:06:47Z</time>
      </trkpt>
      <trkpt lat="44.71432" lon="4.20436">
        <ele>586.3</ele>
        <time>2022-06-10T12:06:48Z</time>
      </trkpt>
      <trkpt lat="44.71429" lon="4.20451">
        <ele>585.4</ele>
        <time>2022-06-10T12:06:49Z</time>
      </trkpt>
      <trkpt lat="44.71424" lon="4.20464">
        <ele>584.7</ele>
        <time>2022-06-10T12:06:50Z</time>
      </trkpt>
      <trkpt lat="44.71415" lon="4.20473">
        <ele>584.3</ele>
        <time>2022-06-10T12:06:51Z</time>
      </trkpt>
      <trkpt lat="44.71404" lon="4.20478">
        <ele>583.8</ele>
        <time>2022-06-10T12:06:52Z</time>
      </trkpt>
      <trkpt lat="44.71394" lon="4.20484">
        <ele>583</ele>
        <time>2022-06-10T12:06:53Z</time>
      </trkpt>
      <trkpt lat="44.71384" lon="4.20491">
        <ele>582.2</ele>
        <time>2022-06-10T12:06:54Z</time>
      </trkpt>
      <trkpt lat="44.71374" lon="4.20498">
        <ele>581.4</ele>
        <time>2022-06-10T12:06:55Z</time>
      </trkpt>
      <trkpt lat="44.71366" lon="4.20506">
        <ele>580.7</ele>
        <time>2022-06-10T12:06:56Z</time>
      </trkpt>
      <trkpt lat="44.71358" lon="4.20515">
        <ele>579.9</ele>
        <time>2022-06-10T12:06:57Z</time>
      </trkpt>
      <trkpt lat="44.71351" lon="4.20527">
        <ele>579.2</ele>
        <time>2022-06-10T12:06:58Z</time>
      </trkpt>
      <trkpt lat="44.71344" lon="4.20539">
        <ele>578.4</ele>
        <time>2022-06-10T12:06:59Z</time>
      </trkpt>
      <trkpt lat="44.71337" lon="4.20551">
        <ele>577.7</ele>
        <time>2022-06-10T12:07:00Z</time>
      </trkpt>
      <trkpt lat="44.71331" lon="4.20563">
        <ele>577.2</ele>
        <time>2022-06-10T12:07:01Z</time>
      </trkpt>
      <trkpt lat="44.71324" lon="4.20573">
        <ele>576.8</ele>
        <time>2022-06-10T12:07:02Z</time>
      </trkpt>
      <trkpt lat="44.71319" lon="4.20582">
        <ele>576.5</ele>
        <time>2022-06-10T12:07:03Z</time>
      </trkpt>
      <trkpt lat="44.71314" lon="4.2059">
        <ele>576.2</ele>
        <time>2022-06-10T12:07:04Z</time>
      </trkpt>
      <trkpt lat="44.71311" lon="4.20596">
        <ele>576</ele>
        <time>2022-06-10T12:07:05Z</time>
      </trkpt>
      <trkpt lat="44.71308" lon="4.20601">
        <ele>575.9</ele>
        <time>2022-06-10T12:07:06Z</time>
      </trkpt>
      <trkpt lat="44.71306" lon="4.20605">
        <ele>575.9</ele>
        <time>2022-06-10T12:07:07Z</time>
      </trkpt>
      <trkpt lat="44.71304" lon="4.20607">
        <ele>575.9</ele>
        <time>2022-06-10T12:07:08Z</time>
      </trkpt>
      <trkpt lat="44.71301" lon="4.20612">
        <ele>576</ele>
        <time>2022-06-10T12:07:09Z</time>
      </trkpt>
      <trkpt lat="44.71299" lon="4.20617">
        <ele>576</ele>
        <time>2022-06-10T12:07:10Z</time>
      </trkpt>
      <trkpt lat="44.71297" lon="4.20621">
        <ele>575.8</ele>
        <time>2022-06-10T12:07:11Z</time>
      </trkpt>
      <trkpt lat="44.71294" lon="4.20625">
        <ele>575.6</ele>
        <time>2022-06-10T12:07:12Z</time>
      </trkpt>
      <trkpt lat="44.71292" lon="4.20629">
        <ele>575.4</ele>
        <time>2022-06-10T12:07:13Z</time>
      </trkpt>
      <trkpt lat="44.71292" lon="4.20633">
        <ele>575.2</ele>
        <time>2022-06-10T12:07:14Z</time>
      </trkpt>
      <trkpt lat="44.71287" lon="4.20637">
        <ele>574.9</ele>
        <time>2022-06-10T12:07:15Z</time>
      </trkpt>
      <trkpt lat="44.71279" lon="4.20645">
        <ele>574.2</ele>
        <time>2022-06-10T12:07:16Z</time>
      </trkpt>
      <trkpt lat="44.71274" lon="4.20647">
        <ele>573.9</ele>
        <time>2022-06-10T12:07:18Z</time>
      </trkpt>
      <trkpt lat="44.7127" lon="4.20648">
        <ele>573.7</ele>
        <time>2022-06-10T12:07:19Z</time>
      </trkpt>
      <trkpt lat="44.71265" lon="4.20655">
        <ele>573.4</ele>
        <time>2022-06-10T12:07:20Z</time>
      </trkpt>
      <trkpt lat="44.71261" lon="4.20659">
        <ele>573.1</ele>
        <time>2022-06-10T12:07:21Z</time>
      </trkpt>
      <trkpt lat="44.71257" lon="4.20662">
        <ele>572.9</ele>
        <time>2022-06-10T12:07:22Z</time>
      </trkpt>
      <trkpt lat="44.71252" lon="4.20666">
        <ele>572.7</ele>
        <time>2022-06-10T12:07:23Z</time>
      </trkpt>
      <trkpt lat="44.71247" lon="4.2067">
        <ele>572.6</ele>
        <time>2022-06-10T12:07:24Z</time>
      </trkpt>
      <trkpt lat="44.71242" lon="4.20674">
        <ele>572.6</ele>
        <time>2022-06-10T12:07:25Z</time>
      </trkpt>
      <trkpt lat="44.71237" lon="4.20677">
        <ele>572.6</ele>
        <time>2022-06-10T12:07:26Z</time>
      </trkpt>
      <trkpt lat="44.71232" lon="4.2068">
        <ele>572.5</ele>
        <time>2022-06-10T12:07:27Z</time>
      </trkpt>
      <trkpt lat="44.71228" lon="4.20684">
        <ele>572.6</ele>
        <time>2022-06-10T12:07:28Z</time>
      </trkpt>
      <trkpt lat="44.71223" lon="4.20687">
        <ele>572.6</ele>
        <time>2022-06-10T12:07:29Z</time>
      </trkpt>
      <trkpt lat="44.71219" lon="4.20691">
        <ele>572.7</ele>
        <time>2022-06-10T12:07:30Z</time>
      </trkpt>
      <trkpt lat="44.71215" lon="4.20695">
        <ele>572.7</ele>
        <time>2022-06-10T12:07:31Z</time>
      </trkpt>
      <trkpt lat="44.71212" lon="4.20699">
        <ele>572.8</ele>
        <time>2022-06-10T12:07:32Z</time>
      </trkpt>
      <trkpt lat="44.7121" lon="4.20702">
        <ele>572.9</ele>
        <time>2022-06-10T12:07:33Z</time>
      </trkpt>
      <trkpt lat="44.71207" lon="4.20704">
        <ele>572.9</ele>
        <time>2022-06-10T12:07:34Z</time>
      </trkpt>
      <trkpt lat="44.71203" lon="4.20706">
        <ele>573</ele>
        <time>2022-06-10T12:07:35Z</time>
      </trkpt>
      <trkpt lat="44.71199" lon="4.2071">
        <ele>573.1</ele>
        <time>2022-06-10T12:07:36Z</time>
      </trkpt>
      <trkpt lat="44.71195" lon="4.20712">
        <ele>572.9</ele>
        <time>2022-06-10T12:07:37Z</time>
      </trkpt>
      <trkpt lat="44.71192" lon="4.20714">
        <ele>572.7</ele>
        <time>2022-06-10T12:07:38Z</time>
      </trkpt>
      <trkpt lat="44.71191" lon="4.20714">
        <ele>572.6</ele>
        <time>2022-06-10T12:07:39Z</time>
      </trkpt>
      <trkpt lat="44.71187" lon="4.20715">
        <ele>572.4</ele>
        <time>2022-06-10T12:07:40Z</time>
      </trkpt>
      <trkpt lat="44.71183" lon="4.20718">
        <ele>572.1</ele>
        <time>2022-06-10T12:07:41Z</time>
      </trkpt>
      <trkpt lat="44.71176" lon="4.20722">
        <ele>571.7</ele>
        <time>2022-06-10T12:07:42Z</time>
      </trkpt>
      <trkpt lat="44.71171" lon="4.20724">
        <ele>571.3</ele>
        <time>2022-06-10T12:07:43Z</time>
      </trkpt>
      <trkpt lat="44.71165" lon="4.20725">
        <ele>571</ele>
        <time>2022-06-10T12:07:44Z</time>
      </trkpt>
      <trkpt lat="44.71159" lon="4.20727">
        <ele>570.7</ele>
        <time>2022-06-10T12:07:45Z</time>
      </trkpt>
      <trkpt lat="44.71152" lon="4.20727">
        <ele>570.4</ele>
        <time>2022-06-10T12:07:46Z</time>
      </trkpt>
      <trkpt lat="44.71146" lon="4.20728">
        <ele>570.2</ele>
        <time>2022-06-10T12:07:47Z</time>
      </trkpt>
      <trkpt lat="44.7114" lon="4.20728">
        <ele>570</ele>
        <time>2022-06-10T12:07:48Z</time>
      </trkpt>
      <trkpt lat="44.71135" lon="4.20729">
        <ele>569.7</ele>
        <time>2022-06-10T12:07:49Z</time>
      </trkpt>
      <trkpt lat="44.71129" lon="4.2073">
        <ele>569.6</ele>
        <time>2022-06-10T12:07:50Z</time>
      </trkpt>
      <trkpt lat="44.71124" lon="4.20731">
        <ele>569.4</ele>
        <time>2022-06-10T12:07:51Z</time>
      </trkpt>
      <trkpt lat="44.71119" lon="4.20732">
        <ele>569.2</ele>
        <time>2022-06-10T12:07:52Z</time>
      </trkpt>
      <trkpt lat="44.71114" lon="4.20733">
        <ele>569</ele>
        <time>2022-06-10T12:07:53Z</time>
      </trkpt>
      <trkpt lat="44.71114" lon="4.20735">
        <ele>568.9</ele>
        <time>2022-06-10T12:07:55Z</time>
      </trkpt>
      <trkpt lat="44.71114" lon="4.20734">
        <ele>568.9</ele>
        <time>2022-06-10T12:07:56Z</time>
      </trkpt>
      <trkpt lat="44.71113" lon="4.20731">
        <ele>568.8</ele>
        <time>2022-06-10T12:07:57Z</time>
      </trkpt>
      <trkpt lat="44.71113" lon="4.2073">
        <ele>568.7</ele>
        <time>2022-06-10T12:07:59Z</time>
      </trkpt>
      <trkpt lat="44.71113" lon="4.2073">
        <ele>568.7</ele>
        <time>2022-06-10T12:08:00Z</time>
      </trkpt>
      <trkpt lat="44.71114" lon="4.2073">
        <ele>568.7</ele>
        <time>2022-06-10T12:08:02Z</time>
      </trkpt>
      <trkpt lat="44.71114" lon="4.20731">
        <ele>568.7</ele>
        <time>2022-06-10T12:08:03Z</time>
      </trkpt>
      <trkpt lat="44.71114" lon="4.20731">
        <ele>568.7</ele>
        <time>2022-06-10T12:08:04Z</time>
      </trkpt>
      <trkpt lat="44.71114" lon="4.20731">
        <ele>568.7</ele>
        <time>2022-06-10T12:08:05Z</time>
      </trkpt>
      <trkpt lat="44.71107" lon="4.20734">
        <ele>568.3</ele>
        <time>2022-06-10T12:08:22Z</time>
      </trkpt>
      <trkpt lat="44.71104" lon="4.20736">
        <ele>568.1</ele>
        <time>2022-06-10T12:08:24Z</time>
      </trkpt>
      <trkpt lat="44.71101" lon="4.20737">
        <ele>568</ele>
        <time>2022-06-10T12:08:25Z</time>
      </trkpt>
      <trkpt lat="44.71098" lon="4.20738">
        <ele>567.8</ele>
        <time>2022-06-10T12:08:26Z</time>
      </trkpt>
      <trkpt lat="44.71095" lon="4.2074">
        <ele>567.7</ele>
        <time>2022-06-10T12:08:27Z</time>
      </trkpt>
      <trkpt lat="44.71092" lon="4.20742">
        <ele>567.3</ele>
        <time>2022-06-10T12:08:28Z</time>
      </trkpt>
      <trkpt lat="44.71086" lon="4.20746">
        <ele>566.8</ele>
        <time>2022-06-10T12:08:29Z</time>
      </trkpt>
      <trkpt lat="44.71082" lon="4.20749">
        <ele>566.5</ele>
        <time>2022-06-10T12:08:30Z</time>
      </trkpt>
      <trkpt lat="44.71078" lon="4.20753">
        <ele>566.2</ele>
        <time>2022-06-10T12:08:32Z</time>
      </trkpt>
      <trkpt lat="44.71075" lon="4.20758">
        <ele>565.9</ele>
        <time>2022-06-10T12:08:33Z</time>
      </trkpt>
      <trkpt lat="44.71071" lon="4.20762">
        <ele>565.5</ele>
        <time>2022-06-10T12:08:34Z</time>
      </trkpt>
      <trkpt lat="44.71067" lon="4.20767">
        <ele>565.1</ele>
        <time>2022-06-10T12:08:35Z</time>
      </trkpt>
      <trkpt lat="44.71063" lon="4.20771">
        <ele>564.7</ele>
        <time>2022-06-10T12:08:36Z</time>
      </trkpt>
      <trkpt lat="44.71059" lon="4.20777">
        <ele>564.3</ele>
        <time>2022-06-10T12:08:37Z</time>
      </trkpt>
      <trkpt lat="44.71056" lon="4.20783">
        <ele>563.9</ele>
        <time>2022-06-10T12:08:38Z</time>
      </trkpt>
      <trkpt lat="44.71051" lon="4.20789">
        <ele>563.4</ele>
        <time>2022-06-10T12:08:39Z</time>
      </trkpt>
      <trkpt lat="44.71047" lon="4.20795">
        <ele>562.9</ele>
        <time>2022-06-10T12:08:40Z</time>
      </trkpt>
      <trkpt lat="44.71043" lon="4.20801">
        <ele>562.4</ele>
        <time>2022-06-10T12:08:41Z</time>
      </trkpt>
      <trkpt lat="44.71038" lon="4.20807">
        <ele>561.9</ele>
        <time>2022-06-10T12:08:42Z</time>
      </trkpt>
      <trkpt lat="44.71034" lon="4.20815">
        <ele>561.3</ele>
        <time>2022-06-10T12:08:43Z</time>
      </trkpt>
      <trkpt lat="44.71029" lon="4.20822">
        <ele>560.7</ele>
        <time>2022-06-10T12:08:44Z</time>
      </trkpt>
      <trkpt lat="44.71025" lon="4.2083">
        <ele>560.1</ele>
        <time>2022-06-10T12:08:45Z</time>
      </trkpt>
      <trkpt lat="44.7102" lon="4.20838">
        <ele>559.5</ele>
        <time>2022-06-10T12:08:46Z</time>
      </trkpt>
      <trkpt lat="44.71016" lon="4.20846">
        <ele>558.9</ele>
        <time>2022-06-10T12:08:47Z</time>
      </trkpt>
      <trkpt lat="44.71012" lon="4.20853">
        <ele>558.4</ele>
        <time>2022-06-10T12:08:48Z</time>
      </trkpt>
      <trkpt lat="44.71008" lon="4.2086">
        <ele>557.9</ele>
        <time>2022-06-10T12:08:49Z</time>
      </trkpt>
      <trkpt lat="44.71005" lon="4.20867">
        <ele>557.4</ele>
        <time>2022-06-10T12:08:50Z</time>
      </trkpt>
      <trkpt lat="44.71004" lon="4.20875">
        <ele>556.9</ele>
        <time>2022-06-10T12:08:51Z</time>
      </trkpt>
      <trkpt lat="44.71002" lon="4.20883">
        <ele>556.3</ele>
        <time>2022-06-10T12:08:52Z</time>
      </trkpt>
      <trkpt lat="44.71001" lon="4.20891">
        <ele>555.8</ele>
        <time>2022-06-10T12:08:53Z</time>
      </trkpt>
      <trkpt lat="44.70999" lon="4.20899">
        <ele>555.3</ele>
        <time>2022-06-10T12:08:54Z</time>
      </trkpt>
      <trkpt lat="44.70996" lon="4.20906">
        <ele>554.8</ele>
        <time>2022-06-10T12:08:55Z</time>
      </trkpt>
      <trkpt lat="44.70992" lon="4.20912">
        <ele>554.4</ele>
        <time>2022-06-10T12:08:56Z</time>
      </trkpt>
      <trkpt lat="44.70987" lon="4.20918">
        <ele>553.9</ele>
        <time>2022-06-10T12:08:57Z</time>
      </trkpt>
      <trkpt lat="44.70982" lon="4.20924">
        <ele>553.3</ele>
        <time>2022-06-10T12:08:58Z</time>
      </trkpt>
      <trkpt lat="44.70977" lon="4.20929">
        <ele>552.8</ele>
        <time>2022-06-10T12:08:59Z</time>
      </trkpt>
      <trkpt lat="44.70973" lon="4.20933">
        <ele>552.4</ele>
        <time>2022-06-10T12:09:00Z</time>
      </trkpt>
      <trkpt lat="44.70969" lon="4.20936">
        <ele>552.1</ele>
        <time>2022-06-10T12:09:01Z</time>
      </trkpt>
      <trkpt lat="44.70968" lon="4.20937">
        <ele>552</ele>
        <time>2022-06-10T12:09:02Z</time>
      </trkpt>
      <trkpt lat="44.70967" lon="4.20937">
        <ele>551.9</ele>
        <time>2022-06-10T12:09:03Z</time>
      </trkpt>
      <trkpt lat="44.70966" lon="4.20938">
        <ele>551.9</ele>
        <time>2022-06-10T12:09:04Z</time>
      </trkpt>
      <trkpt lat="44.70966" lon="4.20938">
        <ele>551.8</ele>
        <time>2022-06-10T12:09:05Z</time>
      </trkpt>
      <trkpt lat="44.70966" lon="4.20938">
        <ele>551.8</ele>
        <time>2022-06-10T12:09:06Z</time>
      </trkpt>
      <trkpt lat="44.70966" lon="4.20937">
        <ele>551.8</ele>
        <time>2022-06-10T12:09:07Z</time>
      </trkpt>
      <trkpt lat="44.70966" lon="4.20937">
        <ele>551.8</ele>
        <time>2022-06-10T12:09:08Z</time>
      </trkpt>
      <trkpt lat="44.70966" lon="4.20937">
        <ele>551.8</ele>
        <time>2022-06-10T12:09:09Z</time>
      </trkpt>
      <trkpt lat="44.70966" lon="4.20937">
        <ele>551.7</ele>
        <time>2022-06-10T12:09:10Z</time>
      </trkpt>
      <trkpt lat="44.70967" lon="4.20937">
        <ele>551.7</ele>
        <time>2022-06-10T12:09:11Z</time>
      </trkpt>
      <trkpt lat="44.70967" lon="4.20937">
        <ele>551.7</ele>
        <time>2022-06-10T12:09:12Z</time>
      </trkpt>
      <trkpt lat="44.70967" lon="4.20937">
        <ele>551.7</ele>
        <time>2022-06-10T12:09:13Z</time>
      </trkpt>
      <trkpt lat="44.70967" lon="4.20937">
        <ele>551.7</ele>
        <time>2022-06-10T12:09:14Z</time>
      </trkpt>
      <trkpt lat="44.70967" lon="4.20937">
        <ele>551.7</ele>
        <time>2022-06-10T12:09:15Z</time>
      </trkpt>
      <trkpt lat="44.70967" lon="4.20937">
        <ele>551.7</ele>
        <time>2022-06-10T12:09:16Z</time>
      </trkpt>
      <trkpt lat="44.70967" lon="4.20937">
        <ele>551.7</ele>
        <time>2022-06-10T12:09:17Z</time>
      </trkpt>
      <trkpt lat="44.70967" lon="4.20937">
        <ele>551.7</ele>
        <time>2022-06-10T12:09:18Z</time>
      </trkpt>
      <trkpt lat="44.70967" lon="4.20936">
        <ele>551.7</ele>
        <time>2022-06-10T12:09:19Z</time>
      </trkpt>
      <trkpt lat="44.70964" lon="4.20942">
        <ele>551.4</ele>
        <time>2022-06-10T12:09:37Z</time>
      </trkpt>
      <trkpt lat="44.70958" lon="4.20947">
        <ele>550.9</ele>
        <time>2022-06-10T12:09:39Z</time>
      </trkpt>
      <trkpt lat="44.70954" lon="4.20951">
        <ele>550.5</ele>
        <time>2022-06-10T12:09:40Z</time>
      </trkpt>
      <trkpt lat="44.70949" lon="4.20956">
        <ele>550.1</ele>
        <time>2022-06-10T12:09:41Z</time>
      </trkpt>
      <trkpt lat="44.70946" lon="4.2096">
        <ele>549.8</ele>
        <time>2022-06-10T12:09:42Z</time>
      </trkpt>
      <trkpt lat="44.70942" lon="4.20965">
        <ele>549.4</ele>
        <time>2022-06-10T12:09:43Z</time>
      </trkpt>
      <trkpt lat="44.70937" lon="4.2097">
        <ele>549</ele>
        <time>2022-06-10T12:09:44Z</time>
      </trkpt>
      <trkpt lat="44.70933" lon="4.20975">
        <ele>548.6</ele>
        <time>2022-06-10T12:09:45Z</time>
      </trkpt>
      <trkpt lat="44.70928" lon="4.20981">
        <ele>548.1</ele>
        <time>2022-06-10T12:09:46Z</time>
      </trkpt>
      <trkpt lat="44.70923" lon="4.20987">
        <ele>547.6</ele>
        <time>2022-06-10T12:09:47Z</time>
      </trkpt>
      <trkpt lat="44.70918" lon="4.20993">
        <ele>547.1</ele>
        <time>2022-06-10T12:09:48Z</time>
      </trkpt>
      <trkpt lat="44.70913" lon="4.21">
        <ele>546.7</ele>
        <time>2022-06-10T12:09:49Z</time>
      </trkpt>
      <trkpt lat="44.70908" lon="4.21008">
        <ele>546.1</ele>
        <time>2022-06-10T12:09:50Z</time>
      </trkpt>
      <trkpt lat="44.70904" lon="4.21014">
        <ele>545.7</ele>
        <time>2022-06-10T12:09:51Z</time>
      </trkpt>
      <trkpt lat="44.709" lon="4.21023">
        <ele>545.2</ele>
        <time>2022-06-10T12:09:52Z</time>
      </trkpt>
      <trkpt lat="44.70895" lon="4.21032">
        <ele>544.7</ele>
        <time>2022-06-10T12:09:53Z</time>
      </trkpt>
      <trkpt lat="44.70891" lon="4.21041">
        <ele>544.2</ele>
        <time>2022-06-10T12:09:54Z</time>
      </trkpt>
      <trkpt lat="44.70886" lon="4.21051">
        <ele>543.7</ele>
        <time>2022-06-10T12:09:55Z</time>
      </trkpt>
      <trkpt lat="44.70881" lon="4.21061">
        <ele>543.1</ele>
        <time>2022-06-10T12:09:56Z</time>
      </trkpt>
      <trkpt lat="44.70877" lon="4.21073">
        <ele>542.6</ele>
        <time>2022-06-10T12:09:57Z</time>
      </trkpt>
      <trkpt lat="44.70872" lon="4.21085">
        <ele>542</ele>
        <time>2022-06-10T12:09:58Z</time>
      </trkpt>
      <trkpt lat="44.70867" lon="4.21097">
        <ele>541.5</ele>
        <time>2022-06-10T12:09:59Z</time>
      </trkpt>
      <trkpt lat="44.70862" lon="4.21108">
        <ele>541</ele>
        <time>2022-06-10T12:10:00Z</time>
      </trkpt>
      <trkpt lat="44.70858" lon="4.21121">
        <ele>540.5</ele>
        <time>2022-06-10T12:10:01Z</time>
      </trkpt>
      <trkpt lat="44.70853" lon="4.21133">
        <ele>540</ele>
        <time>2022-06-10T12:10:02Z</time>
      </trkpt>
      <trkpt lat="44.70849" lon="4.21145">
        <ele>539.6</ele>
        <time>2022-06-10T12:10:03Z</time>
      </trkpt>
      <trkpt lat="44.70844" lon="4.21157">
        <ele>539.2</ele>
        <time>2022-06-10T12:10:04Z</time>
      </trkpt>
      <trkpt lat="44.70839" lon="4.21168">
        <ele>538.7</ele>
        <time>2022-06-10T12:10:05Z</time>
      </trkpt>
      <trkpt lat="44.70833" lon="4.21179">
        <ele>538.3</ele>
        <time>2022-06-10T12:10:06Z</time>
      </trkpt>
      <trkpt lat="44.70826" lon="4.2119">
        <ele>537.9</ele>
        <time>2022-06-10T12:10:07Z</time>
      </trkpt>
      <trkpt lat="44.70819" lon="4.21199">
        <ele>537.5</ele>
        <time>2022-06-10T12:10:08Z</time>
      </trkpt>
      <trkpt lat="44.70812" lon="4.21209">
        <ele>537.1</ele>
        <time>2022-06-10T12:10:09Z</time>
      </trkpt>
      <trkpt lat="44.70805" lon="4.21217">
        <ele>536.7</ele>
        <time>2022-06-10T12:10:10Z</time>
      </trkpt>
      <trkpt lat="44.70798" lon="4.21227">
        <ele>536.1</ele>
        <time>2022-06-10T12:10:11Z</time>
      </trkpt>
      <trkpt lat="44.70792" lon="4.21236">
        <ele>535.5</ele>
        <time>2022-06-10T12:10:12Z</time>
      </trkpt>
      <trkpt lat="44.70785" lon="4.21245">
        <ele>535</ele>
        <time>2022-06-10T12:10:13Z</time>
      </trkpt>
      <trkpt lat="44.70778" lon="4.21254">
        <ele>534.4</ele>
        <time>2022-06-10T12:10:14Z</time>
      </trkpt>
      <trkpt lat="44.70772" lon="4.21263">
        <ele>533.8</ele>
        <time>2022-06-10T12:10:15Z</time>
      </trkpt>
      <trkpt lat="44.70765" lon="4.21272">
        <ele>533.2</ele>
        <time>2022-06-10T12:10:16Z</time>
      </trkpt>
      <trkpt lat="44.70759" lon="4.21282">
        <ele>532.7</ele>
        <time>2022-06-10T12:10:17Z</time>
      </trkpt>
      <trkpt lat="44.70753" lon="4.21291">
        <ele>532.1</ele>
        <time>2022-06-10T12:10:18Z</time>
      </trkpt>
      <trkpt lat="44.70747" lon="4.21301">
        <ele>531.6</ele>
        <time>2022-06-10T12:10:19Z</time>
      </trkpt>
      <trkpt lat="44.70741" lon="4.2131">
        <ele>531</ele>
        <time>2022-06-10T12:10:20Z</time>
      </trkpt>
      <trkpt lat="44.70735" lon="4.2132">
        <ele>530.5</ele>
        <time>2022-06-10T12:10:21Z</time>
      </trkpt>
      <trkpt lat="44.7073" lon="4.2133">
        <ele>529.9</ele>
        <time>2022-06-10T12:10:22Z</time>
      </trkpt>
      <trkpt lat="44.70723" lon="4.21339">
        <ele>529.3</ele>
        <time>2022-06-10T12:10:23Z</time>
      </trkpt>
      <trkpt lat="44.70717" lon="4.21349">
        <ele>528.7</ele>
        <time>2022-06-10T12:10:24Z</time>
      </trkpt>
      <trkpt lat="44.70711" lon="4.21358">
        <ele>528.2</ele>
        <time>2022-06-10T12:10:25Z</time>
      </trkpt>
      <trkpt lat="44.70705" lon="4.21368">
        <ele>527.7</ele>
        <time>2022-06-10T12:10:26Z</time>
      </trkpt>
      <trkpt lat="44.70698" lon="4.21377">
        <ele>527.2</ele>
        <time>2022-06-10T12:10:27Z</time>
      </trkpt>
      <trkpt lat="44.70692" lon="4.21387">
        <ele>526.7</ele>
        <time>2022-06-10T12:10:28Z</time>
      </trkpt>
      <trkpt lat="44.70686" lon="4.21396">
        <ele>526.3</ele>
        <time>2022-06-10T12:10:29Z</time>
      </trkpt>
      <trkpt lat="44.7068" lon="4.21405">
        <ele>525.8</ele>
        <time>2022-06-10T12:10:30Z</time>
      </trkpt>
      <trkpt lat="44.70675" lon="4.21414">
        <ele>525.4</ele>
        <time>2022-06-10T12:10:31Z</time>
      </trkpt>
      <trkpt lat="44.70669" lon="4.21423">
        <ele>524.9</ele>
        <time>2022-06-10T12:10:32Z</time>
      </trkpt>
      <trkpt lat="44.70664" lon="4.21432">
        <ele>524.5</ele>
        <time>2022-06-10T12:10:33Z</time>
      </trkpt>
      <trkpt lat="44.70658" lon="4.21441">
        <ele>524.1</ele>
        <time>2022-06-10T12:10:34Z</time>
      </trkpt>
      <trkpt lat="44.70653" lon="4.21449">
        <ele>523.7</ele>
        <time>2022-06-10T12:10:35Z</time>
      </trkpt>
      <trkpt lat="44.70647" lon="4.21458">
        <ele>523.2</ele>
        <time>2022-06-10T12:10:36Z</time>
      </trkpt>
      <trkpt lat="44.70641" lon="4.21467">
        <ele>522.8</ele>
        <time>2022-06-10T12:10:37Z</time>
      </trkpt>
      <trkpt lat="44.70635" lon="4.21477">
        <ele>522.4</ele>
        <time>2022-06-10T12:10:38Z</time>
      </trkpt>
      <trkpt lat="44.70629" lon="4.21486">
        <ele>522</ele>
        <time>2022-06-10T12:10:39Z</time>
      </trkpt>
      <trkpt lat="44.70623" lon="4.21496">
        <ele>521.5</ele>
        <time>2022-06-10T12:10:40Z</time>
      </trkpt>
      <trkpt lat="44.70617" lon="4.21506">
        <ele>521.1</ele>
        <time>2022-06-10T12:10:41Z</time>
      </trkpt>
      <trkpt lat="44.70611" lon="4.21516">
        <ele>520.7</ele>
        <time>2022-06-10T12:10:42Z</time>
      </trkpt>
      <trkpt lat="44.70605" lon="4.21527">
        <ele>520.3</ele>
        <time>2022-06-10T12:10:43Z</time>
      </trkpt>
      <trkpt lat="44.70599" lon="4.21537">
        <ele>519.9</ele>
        <time>2022-06-10T12:10:44Z</time>
      </trkpt>
      <trkpt lat="44.70593" lon="4.21547">
        <ele>519.5</ele>
        <time>2022-06-10T12:10:45Z</time>
      </trkpt>
      <trkpt lat="44.70586" lon="4.21556">
        <ele>519.2</ele>
        <time>2022-06-10T12:10:46Z</time>
      </trkpt>
      <trkpt lat="44.7058" lon="4.21566">
        <ele>518.9</ele>
        <time>2022-06-10T12:10:47Z</time>
      </trkpt>
      <trkpt lat="44.70573" lon="4.21576">
        <ele>518.6</ele>
        <time>2022-06-10T12:10:48Z</time>
      </trkpt>
      <trkpt lat="44.70567" lon="4.21586">
        <ele>518.4</ele>
        <time>2022-06-10T12:10:49Z</time>
      </trkpt>
      <trkpt lat="44.70561" lon="4.21596">
        <ele>518.2</ele>
        <time>2022-06-10T12:10:50Z</time>
      </trkpt>
      <trkpt lat="44.70555" lon="4.21605">
        <ele>518</ele>
        <time>2022-06-10T12:10:51Z</time>
      </trkpt>
      <trkpt lat="44.70549" lon="4.21615">
        <ele>517.8</ele>
        <time>2022-06-10T12:10:52Z</time>
      </trkpt>
      <trkpt lat="44.70542" lon="4.21624">
        <ele>517.6</ele>
        <time>2022-06-10T12:10:53Z</time>
      </trkpt>
      <trkpt lat="44.70534" lon="4.2163">
        <ele>517.5</ele>
        <time>2022-06-10T12:10:54Z</time>
      </trkpt>
      <trkpt lat="44.70525" lon="4.21633">
        <ele>517.4</ele>
        <time>2022-06-10T12:10:55Z</time>
      </trkpt>
      <trkpt lat="44.70516" lon="4.21635">
        <ele>517.3</ele>
        <time>2022-06-10T12:10:56Z</time>
      </trkpt>
      <trkpt lat="44.70507" lon="4.21636">
        <ele>517.3</ele>
        <time>2022-06-10T12:10:57Z</time>
      </trkpt>
      <trkpt lat="44.70498" lon="4.21637">
        <ele>517.2</ele>
        <time>2022-06-10T12:10:58Z</time>
      </trkpt>
      <trkpt lat="44.7049" lon="4.21639">
        <ele>517.2</ele>
        <time>2022-06-10T12:10:59Z</time>
      </trkpt>
      <trkpt lat="44.70482" lon="4.21641">
        <ele>517.2</ele>
        <time>2022-06-10T12:11:00Z</time>
      </trkpt>
      <trkpt lat="44.70474" lon="4.21642">
        <ele>517.2</ele>
        <time>2022-06-10T12:11:01Z</time>
      </trkpt>
      <trkpt lat="44.70467" lon="4.21643">
        <ele>517.2</ele>
        <time>2022-06-10T12:11:02Z</time>
      </trkpt>
      <trkpt lat="44.70459" lon="4.21645">
        <ele>517.2</ele>
        <time>2022-06-10T12:11:03Z</time>
      </trkpt>
      <trkpt lat="44.70453" lon="4.21647">
        <ele>517.2</ele>
        <time>2022-06-10T12:11:04Z</time>
      </trkpt>
      <trkpt lat="44.70446" lon="4.21648">
        <ele>517.2</ele>
        <time>2022-06-10T12:11:05Z</time>
      </trkpt>
      <trkpt lat="44.70439" lon="4.21649">
        <ele>517.1</ele>
        <time>2022-06-10T12:11:06Z</time>
      </trkpt>
      <trkpt lat="44.70433" lon="4.2165">
        <ele>517.1</ele>
        <time>2022-06-10T12:11:07Z</time>
      </trkpt>
      <trkpt lat="44.70427" lon="4.21652">
        <ele>517.1</ele>
        <time>2022-06-10T12:11:08Z</time>
      </trkpt>
      <trkpt lat="44.70421" lon="4.21654">
        <ele>517.1</ele>
        <time>2022-06-10T12:11:09Z</time>
      </trkpt>
      <trkpt lat="44.70415" lon="4.21656">
        <ele>517.1</ele>
        <time>2022-06-10T12:11:10Z</time>
      </trkpt>
      <trkpt lat="44.70409" lon="4.2166">
        <ele>517.1</ele>
        <time>2022-06-10T12:11:11Z</time>
      </trkpt>
      <trkpt lat="44.70404" lon="4.21664">
        <ele>517.1</ele>
        <time>2022-06-10T12:11:12Z</time>
      </trkpt>
      <trkpt lat="44.704" lon="4.21669">
        <ele>517.1</ele>
        <time>2022-06-10T12:11:13Z</time>
      </trkpt>
      <trkpt lat="44.70396" lon="4.21675">
        <ele>517.2</ele>
        <time>2022-06-10T12:11:14Z</time>
      </trkpt>
      <trkpt lat="44.70393" lon="4.2168">
        <ele>517.2</ele>
        <time>2022-06-10T12:11:15Z</time>
      </trkpt>
      <trkpt lat="44.7039" lon="4.21686">
        <ele>517.3</ele>
        <time>2022-06-10T12:11:16Z</time>
      </trkpt>
      <trkpt lat="44.70388" lon="4.21693">
        <ele>517.4</ele>
        <time>2022-06-10T12:11:17Z</time>
      </trkpt>
      <trkpt lat="44.70386" lon="4.21699">
        <ele>517.5</ele>
        <time>2022-06-10T12:11:18Z</time>
      </trkpt>
      <trkpt lat="44.70384" lon="4.21705">
        <ele>517.6</ele>
        <time>2022-06-10T12:11:19Z</time>
      </trkpt>
      <trkpt lat="44.70383" lon="4.21711">
        <ele>517.7</ele>
        <time>2022-06-10T12:11:20Z</time>
      </trkpt>
      <trkpt lat="44.70382" lon="4.21718">
        <ele>517.8</ele>
        <time>2022-06-10T12:11:21Z</time>
      </trkpt>
      <trkpt lat="44.70382" lon="4.21722">
        <ele>517.8</ele>
        <time>2022-06-10T12:11:22Z</time>
      </trkpt>
      <trkpt lat="44.70381" lon="4.21727">
        <ele>517.9</ele>
        <time>2022-06-10T12:11:23Z</time>
      </trkpt>
      <trkpt lat="44.70381" lon="4.21733">
        <ele>518</ele>
        <time>2022-06-10T12:11:24Z</time>
      </trkpt>
      <trkpt lat="44.7038" lon="4.21738">
        <ele>518.1</ele>
        <time>2022-06-10T12:11:25Z</time>
      </trkpt>
      <trkpt lat="44.7038" lon="4.21744">
        <ele>518.2</ele>
        <time>2022-06-10T12:11:26Z</time>
      </trkpt>
      <trkpt lat="44.70379" lon="4.2175">
        <ele>518.3</ele>
        <time>2022-06-10T12:11:27Z</time>
      </trkpt>
      <trkpt lat="44.70379" lon="4.21754">
        <ele>518.4</ele>
        <time>2022-06-10T12:11:28Z</time>
      </trkpt>
      <trkpt lat="44.7038" lon="4.21758">
        <ele>518.5</ele>
        <time>2022-06-10T12:11:29Z</time>
      </trkpt>
      <trkpt lat="44.70379" lon="4.21763">
        <ele>518.6</ele>
        <time>2022-06-10T12:11:30Z</time>
      </trkpt>
      <trkpt lat="44.70378" lon="4.21768">
        <ele>518.8</ele>
        <time>2022-06-10T12:11:31Z</time>
      </trkpt>
      <trkpt lat="44.70377" lon="4.21773">
        <ele>518.9</ele>
        <time>2022-06-10T12:11:32Z</time>
      </trkpt>
      <trkpt lat="44.70376" lon="4.21777">
        <ele>519</ele>
        <time>2022-06-10T12:11:33Z</time>
      </trkpt>
      <trkpt lat="44.70376" lon="4.21782">
        <ele>519.1</ele>
        <time>2022-06-10T12:11:34Z</time>
      </trkpt>
      <trkpt lat="44.70375" lon="4.21786">
        <ele>519.2</ele>
        <time>2022-06-10T12:11:35Z</time>
      </trkpt>
      <trkpt lat="44.70375" lon="4.21793">
        <ele>519.4</ele>
        <time>2022-06-10T12:11:36Z</time>
      </trkpt>
      <trkpt lat="44.70375" lon="4.21798">
        <ele>519.5</ele>
        <time>2022-06-10T12:11:37Z</time>
      </trkpt>
      <trkpt lat="44.70374" lon="4.21802">
        <ele>519.6</ele>
        <time>2022-06-10T12:11:38Z</time>
      </trkpt>
      <trkpt lat="44.70374" lon="4.21806">
        <ele>519.7</ele>
        <time>2022-06-10T12:11:40Z</time>
      </trkpt>
      <trkpt lat="44.70373" lon="4.2181">
        <ele>519.8</ele>
        <time>2022-06-10T12:11:41Z</time>
      </trkpt>
      <trkpt lat="44.70374" lon="4.21814">
        <ele>519.9</ele>
        <time>2022-06-10T12:11:42Z</time>
      </trkpt>
      <trkpt lat="44.70372" lon="4.2182">
        <ele>520</ele>
        <time>2022-06-10T12:11:43Z</time>
      </trkpt>
      <trkpt lat="44.70372" lon="4.21826">
        <ele>520.1</ele>
        <time>2022-06-10T12:11:45Z</time>
      </trkpt>
      <trkpt lat="44.70371" lon="4.21831">
        <ele>520.2</ele>
        <time>2022-06-10T12:11:46Z</time>
      </trkpt>
      <trkpt lat="44.7037" lon="4.21834">
        <ele>520.3</ele>
        <time>2022-06-10T12:11:47Z</time>
      </trkpt>
      <trkpt lat="44.70369" lon="4.21839">
        <ele>520.4</ele>
        <time>2022-06-10T12:11:48Z</time>
      </trkpt>
      <trkpt lat="44.70368" lon="4.21843">
        <ele>520.5</ele>
        <time>2022-06-10T12:11:49Z</time>
      </trkpt>
      <trkpt lat="44.70367" lon="4.21847">
        <ele>520.6</ele>
        <time>2022-06-10T12:11:50Z</time>
      </trkpt>
      <trkpt lat="44.70366" lon="4.21851">
        <ele>520.7</ele>
        <time>2022-06-10T12:11:51Z</time>
      </trkpt>
      <trkpt lat="44.70364" lon="4.21858">
        <ele>521</ele>
        <time>2022-06-10T12:11:53Z</time>
      </trkpt>
      <trkpt lat="44.70363" lon="4.21862">
        <ele>521.1</ele>
        <time>2022-06-10T12:11:54Z</time>
      </trkpt>
      <trkpt lat="44.70361" lon="4.21867">
        <ele>521.2</ele>
        <time>2022-06-10T12:11:55Z</time>
      </trkpt>
      <trkpt lat="44.70361" lon="4.21869">
        <ele>521.2</ele>
        <time>2022-06-10T12:11:56Z</time>
      </trkpt>
      <trkpt lat="44.70359" lon="4.21874">
        <ele>521.4</ele>
        <time>2022-06-10T12:11:57Z</time>
      </trkpt>
      <trkpt lat="44.70359" lon="4.21875">
        <ele>521.4</ele>
        <time>2022-06-10T12:11:58Z</time>
      </trkpt>
      <trkpt lat="44.70357" lon="4.2188">
        <ele>521.6</ele>
        <time>2022-06-10T12:11:59Z</time>
      </trkpt>
      <trkpt lat="44.70356" lon="4.21881">
        <ele>521.6</ele>
        <time>2022-06-10T12:12:00Z</time>
      </trkpt>
      <trkpt lat="44.70354" lon="4.21886">
        <ele>521.8</ele>
        <time>2022-06-10T12:12:01Z</time>
      </trkpt>
      <trkpt lat="44.70354" lon="4.21887">
        <ele>521.8</ele>
        <time>2022-06-10T12:12:02Z</time>
      </trkpt>
      <trkpt lat="44.70352" lon="4.21892">
        <ele>521.9</ele>
        <time>2022-06-10T12:12:03Z</time>
      </trkpt>
      <trkpt lat="44.70352" lon="4.21894">
        <ele>522</ele>
        <time>2022-06-10T12:12:04Z</time>
      </trkpt>
      <trkpt lat="44.7035" lon="4.21898">
        <ele>522.1</ele>
        <time>2022-06-10T12:12:05Z</time>
      </trkpt>
      <trkpt lat="44.70349" lon="4.21901">
        <ele>522.2</ele>
        <time>2022-06-10T12:12:06Z</time>
      </trkpt>
      <trkpt lat="44.70347" lon="4.21904">
        <ele>522.2</ele>
        <time>2022-06-10T12:12:07Z</time>
      </trkpt>
      <trkpt lat="44.70345" lon="4.21908">
        <ele>522.3</ele>
        <time>2022-06-10T12:12:08Z</time>
      </trkpt>
      <trkpt lat="44.70345" lon="4.2191">
        <ele>522.4</ele>
        <time>2022-06-10T12:12:09Z</time>
      </trkpt>
      <trkpt lat="44.70344" lon="4.21915">
        <ele>522.5</ele>
        <time>2022-06-10T12:12:10Z</time>
      </trkpt>
      <trkpt lat="44.70343" lon="4.21916">
        <ele>522.5</ele>
        <time>2022-06-10T12:12:11Z</time>
      </trkpt>
      <trkpt lat="44.70343" lon="4.2192">
        <ele>522.6</ele>
        <time>2022-06-10T12:12:12Z</time>
      </trkpt>
      <trkpt lat="44.70341" lon="4.21925">
        <ele>522.7</ele>
        <time>2022-06-10T12:12:13Z</time>
      </trkpt>
      <trkpt lat="44.70341" lon="4.21927">
        <ele>522.8</ele>
        <time>2022-06-10T12:12:14Z</time>
      </trkpt>
      <trkpt lat="44.70339" lon="4.21932">
        <ele>522.9</ele>
        <time>2022-06-10T12:12:15Z</time>
      </trkpt>
      <trkpt lat="44.70339" lon="4.21933">
        <ele>522.9</ele>
        <time>2022-06-10T12:12:16Z</time>
      </trkpt>
      <trkpt lat="44.70338" lon="4.21937">
        <ele>523</ele>
        <time>2022-06-10T12:12:17Z</time>
      </trkpt>
      <trkpt lat="44.70337" lon="4.21941">
        <ele>523.2</ele>
        <time>2022-06-10T12:12:18Z</time>
      </trkpt>
      <trkpt lat="44.70336" lon="4.21943">
        <ele>523.2</ele>
        <time>2022-06-10T12:12:19Z</time>
      </trkpt>
      <trkpt lat="44.70335" lon="4.21948">
        <ele>523.3</ele>
        <time>2022-06-10T12:12:20Z</time>
      </trkpt>
      <trkpt lat="44.70334" lon="4.21949">
        <ele>523.4</ele>
        <time>2022-06-10T12:12:21Z</time>
      </trkpt>
      <trkpt lat="44.70333" lon="4.21954">
        <ele>523.5</ele>
        <time>2022-06-10T12:12:22Z</time>
      </trkpt>
      <trkpt lat="44.70332" lon="4.21956">
        <ele>523.5</ele>
        <time>2022-06-10T12:12:23Z</time>
      </trkpt>
      <trkpt lat="44.7033" lon="4.21961">
        <ele>523.7</ele>
        <time>2022-06-10T12:12:25Z</time>
      </trkpt>
      <trkpt lat="44.70329" lon="4.21966">
        <ele>523.8</ele>
        <time>2022-06-10T12:12:26Z</time>
      </trkpt>
      <trkpt lat="44.70329" lon="4.21968">
        <ele>523.9</ele>
        <time>2022-06-10T12:12:27Z</time>
      </trkpt>
      <trkpt lat="44.70327" lon="4.21972">
        <ele>524</ele>
        <time>2022-06-10T12:12:28Z</time>
      </trkpt>
      <trkpt lat="44.70327" lon="4.21974">
        <ele>524</ele>
        <time>2022-06-10T12:12:29Z</time>
      </trkpt>
      <trkpt lat="44.70326" lon="4.21979">
        <ele>524.2</ele>
        <time>2022-06-10T12:12:30Z</time>
      </trkpt>
      <trkpt lat="44.70326" lon="4.21981">
        <ele>524.2</ele>
        <time>2022-06-10T12:12:31Z</time>
      </trkpt>
      <trkpt lat="44.70325" lon="4.21986">
        <ele>524.3</ele>
        <time>2022-06-10T12:12:32Z</time>
      </trkpt>
      <trkpt lat="44.70324" lon="4.21988">
        <ele>524.4</ele>
        <time>2022-06-10T12:12:33Z</time>
      </trkpt>
      <trkpt lat="44.70324" lon="4.21993">
        <ele>524.5</ele>
        <time>2022-06-10T12:12:34Z</time>
      </trkpt>
      <trkpt lat="44.70323" lon="4.21995">
        <ele>524.5</ele>
        <time>2022-06-10T12:12:35Z</time>
      </trkpt>
      <trkpt lat="44.70323" lon="4.21999">
        <ele>524.6</ele>
        <time>2022-06-10T12:12:36Z</time>
      </trkpt>
      <trkpt lat="44.70323" lon="4.22004">
        <ele>524.7</ele>
        <time>2022-06-10T12:12:37Z</time>
      </trkpt>
      <trkpt lat="44.70322" lon="4.22006">
        <ele>524.7</ele>
        <time>2022-06-10T12:12:38Z</time>
      </trkpt>
      <trkpt lat="44.70323" lon="4.22011">
        <ele>524.8</ele>
        <time>2022-06-10T12:12:39Z</time>
      </trkpt>
      <trkpt lat="44.70323" lon="4.22014">
        <ele>524.8</ele>
        <time>2022-06-10T12:12:40Z</time>
      </trkpt>
      <trkpt lat="44.70323" lon="4.22018">
        <ele>524.8</ele>
        <time>2022-06-10T12:12:41Z</time>
      </trkpt>
      <trkpt lat="44.70323" lon="4.22023">
        <ele>524.8</ele>
        <time>2022-06-10T12:12:43Z</time>
      </trkpt>
      <trkpt lat="44.70324" lon="4.22027">
        <ele>524.8</ele>
        <time>2022-06-10T12:12:44Z</time>
      </trkpt>
      <trkpt lat="44.70324" lon="4.22031">
        <ele>524.8</ele>
        <time>2022-06-10T12:12:45Z</time>
      </trkpt>
      <trkpt lat="44.70325" lon="4.22035">
        <ele>524.8</ele>
        <time>2022-06-10T12:12:46Z</time>
      </trkpt>
      <trkpt lat="44.70326" lon="4.22049">
        <ele>524.6</ele>
        <time>2022-06-10T12:12:48Z</time>
      </trkpt>
      <trkpt lat="44.70327" lon="4.22054">
        <ele>524.5</ele>
        <time>2022-06-10T12:12:50Z</time>
      </trkpt>
      <trkpt lat="44.70327" lon="4.22059">
        <ele>524.4</ele>
        <time>2022-06-10T12:12:51Z</time>
      </trkpt>
      <trkpt lat="44.70327" lon="4.22064">
        <ele>524.3</ele>
        <time>2022-06-10T12:12:52Z</time>
      </trkpt>
      <trkpt lat="44.70327" lon="4.22071">
        <ele>524.1</ele>
        <time>2022-06-10T12:12:53Z</time>
      </trkpt>
      <trkpt lat="44.70326" lon="4.22079">
        <ele>523.8</ele>
        <time>2022-06-10T12:12:54Z</time>
      </trkpt>
      <trkpt lat="44.70325" lon="4.22086">
        <ele>523.5</ele>
        <time>2022-06-10T12:12:55Z</time>
      </trkpt>
      <trkpt lat="44.70324" lon="4.22094">
        <ele>523.2</ele>
        <time>2022-06-10T12:12:56Z</time>
      </trkpt>
      <trkpt lat="44.70322" lon="4.22101">
        <ele>523</ele>
        <time>2022-06-10T12:12:57Z</time>
      </trkpt>
      <trkpt lat="44.7032" lon="4.22109">
        <ele>522.8</ele>
        <time>2022-06-10T12:12:58Z</time>
      </trkpt>
      <trkpt lat="44.70318" lon="4.22116">
        <ele>522.6</ele>
        <time>2022-06-10T12:12:59Z</time>
      </trkpt>
      <trkpt lat="44.70315" lon="4.22124">
        <ele>522.2</ele>
        <time>2022-06-10T12:13:00Z</time>
      </trkpt>
      <trkpt lat="44.70312" lon="4.22131">
        <ele>521.9</ele>
        <time>2022-06-10T12:13:01Z</time>
      </trkpt>
      <trkpt lat="44.70309" lon="4.22139">
        <ele>521.6</ele>
        <time>2022-06-10T12:13:02Z</time>
      </trkpt>
      <trkpt lat="44.70306" lon="4.22147">
        <ele>521.3</ele>
        <time>2022-06-10T12:13:03Z</time>
      </trkpt>
      <trkpt lat="44.70302" lon="4.22155">
        <ele>521</ele>
        <time>2022-06-10T12:13:04Z</time>
      </trkpt>
      <trkpt lat="44.70299" lon="4.22163">
        <ele>520.6</ele>
        <time>2022-06-10T12:13:05Z</time>
      </trkpt>
      <trkpt lat="44.70296" lon="4.22172">
        <ele>520.2</ele>
        <time>2022-06-10T12:13:06Z</time>
      </trkpt>
      <trkpt lat="44.70292" lon="4.22181">
        <ele>519.8</ele>
        <time>2022-06-10T12:13:07Z</time>
      </trkpt>
      <trkpt lat="44.70288" lon="4.22189">
        <ele>519.4</ele>
        <time>2022-06-10T12:13:08Z</time>
      </trkpt>
      <trkpt lat="44.70285" lon="4.22196">
        <ele>519.1</ele>
        <time>2022-06-10T12:13:09Z</time>
      </trkpt>
      <trkpt lat="44.70282" lon="4.22203">
        <ele>518.8</ele>
        <time>2022-06-10T12:13:10Z</time>
      </trkpt>
      <trkpt lat="44.7028" lon="4.22208">
        <ele>518.5</ele>
        <time>2022-06-10T12:13:11Z</time>
      </trkpt>
      <trkpt lat="44.70279" lon="4.2221">
        <ele>518.4</ele>
        <time>2022-06-10T12:13:12Z</time>
      </trkpt>
      <trkpt lat="44.70278" lon="4.22212">
        <ele>518.3</ele>
        <time>2022-06-10T12:13:13Z</time>
      </trkpt>
      <trkpt lat="44.70278" lon="4.22212">
        <ele>518.3</ele>
        <time>2022-06-10T12:13:14Z</time>
      </trkpt>
      <trkpt lat="44.70277" lon="4.22212">
        <ele>518.3</ele>
        <time>2022-06-10T12:13:15Z</time>
      </trkpt>
      <trkpt lat="44.70278" lon="4.22212">
        <ele>518.3</ele>
        <time>2022-06-10T12:13:16Z</time>
      </trkpt>
      <trkpt lat="44.70277" lon="4.22212">
        <ele>518.3</ele>
        <time>2022-06-10T12:13:17Z</time>
      </trkpt>
      <trkpt lat="44.70277" lon="4.22212">
        <ele>518.3</ele>
        <time>2022-06-10T12:13:18Z</time>
      </trkpt>
      <trkpt lat="44.70277" lon="4.22212">
        <ele>518.3</ele>
        <time>2022-06-10T12:13:19Z</time>
      </trkpt>
      <trkpt lat="44.70277" lon="4.22212">
        <ele>518.3</ele>
        <time>2022-06-10T12:13:20Z</time>
      </trkpt>
      <trkpt lat="44.70277" lon="4.22212">
        <ele>518.3</ele>
        <time>2022-06-10T12:13:21Z</time>
      </trkpt>
      <trkpt lat="44.70277" lon="4.22212">
        <ele>518.3</ele>
        <time>2022-06-10T12:13:22Z</time>
      </trkpt>
      <trkpt lat="44.70277" lon="4.22212">
        <ele>518.3</ele>
        <time>2022-06-10T12:13:23Z</time>
      </trkpt>
      <trkpt lat="44.70277" lon="4.22212">
        <ele>518.3</ele>
        <time>2022-06-10T12:13:24Z</time>
      </trkpt>
      <trkpt lat="44.70277" lon="4.22212">
        <ele>518.3</ele>
        <time>2022-06-10T12:13:25Z</time>
      </trkpt>
      <trkpt lat="44.70271" lon="4.22222">
        <ele>517.8</ele>
        <time>2022-06-10T12:15:23Z</time>
      </trkpt>
      <trkpt lat="44.7027" lon="4.22226">
        <ele>517.6</ele>
        <time>2022-06-10T12:15:24Z</time>
      </trkpt>
      <trkpt lat="44.70268" lon="4.22232">
        <ele>517.3</ele>
        <time>2022-06-10T12:15:25Z</time>
      </trkpt>
      <trkpt lat="44.70266" lon="4.22241">
        <ele>517</ele>
        <time>2022-06-10T12:15:26Z</time>
      </trkpt>
      <trkpt lat="44.70261" lon="4.22251">
        <ele>516.6</ele>
        <time>2022-06-10T12:15:28Z</time>
      </trkpt>
      <trkpt lat="44.70258" lon="4.22257">
        <ele>516.4</ele>
        <time>2022-06-10T12:15:29Z</time>
      </trkpt>
      <trkpt lat="44.70256" lon="4.22264">
        <ele>516.2</ele>
        <time>2022-06-10T12:15:30Z</time>
      </trkpt>
      <trkpt lat="44.70254" lon="4.22271">
        <ele>516</ele>
        <time>2022-06-10T12:15:31Z</time>
      </trkpt>
      <trkpt lat="44.70251" lon="4.22278">
        <ele>515.7</ele>
        <time>2022-06-10T12:15:32Z</time>
      </trkpt>
      <trkpt lat="44.70248" lon="4.22285">
        <ele>515.5</ele>
        <time>2022-06-10T12:15:33Z</time>
      </trkpt>
      <trkpt lat="44.70245" lon="4.22292">
        <ele>515.1</ele>
        <time>2022-06-10T12:15:34Z</time>
      </trkpt>
      <trkpt lat="44.70243" lon="4.223">
        <ele>514.8</ele>
        <time>2022-06-10T12:15:35Z</time>
      </trkpt>
      <trkpt lat="44.70239" lon="4.22309">
        <ele>514.4</ele>
        <time>2022-06-10T12:15:36Z</time>
      </trkpt>
      <trkpt lat="44.70236" lon="4.22319">
        <ele>513.9</ele>
        <time>2022-06-10T12:15:37Z</time>
      </trkpt>
      <trkpt lat="44.70232" lon="4.22329">
        <ele>513.4</ele>
        <time>2022-06-10T12:15:38Z</time>
      </trkpt>
      <trkpt lat="44.70229" lon="4.22339">
        <ele>512.9</ele>
        <time>2022-06-10T12:15:39Z</time>
      </trkpt>
      <trkpt lat="44.70226" lon="4.22349">
        <ele>512.5</ele>
        <time>2022-06-10T12:15:40Z</time>
      </trkpt>
      <trkpt lat="44.70222" lon="4.22359">
        <ele>512.1</ele>
        <time>2022-06-10T12:15:41Z</time>
      </trkpt>
      <trkpt lat="44.70219" lon="4.22369">
        <ele>511.6</ele>
        <time>2022-06-10T12:15:42Z</time>
      </trkpt>
      <trkpt lat="44.70216" lon="4.22381">
        <ele>511.1</ele>
        <time>2022-06-10T12:15:43Z</time>
      </trkpt>
      <trkpt lat="44.70212" lon="4.22392">
        <ele>510.6</ele>
        <time>2022-06-10T12:15:44Z</time>
      </trkpt>
      <trkpt lat="44.70209" lon="4.22403">
        <ele>510.2</ele>
        <time>2022-06-10T12:15:45Z</time>
      </trkpt>
      <trkpt lat="44.70205" lon="4.22414">
        <ele>509.7</ele>
        <time>2022-06-10T12:15:46Z</time>
      </trkpt>
      <trkpt lat="44.70202" lon="4.22427">
        <ele>509.1</ele>
        <time>2022-06-10T12:15:47Z</time>
      </trkpt>
      <trkpt lat="44.70198" lon="4.22439">
        <ele>508.6</ele>
        <time>2022-06-10T12:15:48Z</time>
      </trkpt>
      <trkpt lat="44.70194" lon="4.2245">
        <ele>508.2</ele>
        <time>2022-06-10T12:15:49Z</time>
      </trkpt>
      <trkpt lat="44.70191" lon="4.22462">
        <ele>507.8</ele>
        <time>2022-06-10T12:15:50Z</time>
      </trkpt>
      <trkpt lat="44.70187" lon="4.22474">
        <ele>507.4</ele>
        <time>2022-06-10T12:15:51Z</time>
      </trkpt>
      <trkpt lat="44.70183" lon="4.22485">
        <ele>507</ele>
        <time>2022-06-10T12:15:52Z</time>
      </trkpt>
      <trkpt lat="44.70179" lon="4.22497">
        <ele>506.7</ele>
        <time>2022-06-10T12:15:53Z</time>
      </trkpt>
      <trkpt lat="44.70175" lon="4.22509">
        <ele>506.4</ele>
        <time>2022-06-10T12:15:54Z</time>
      </trkpt>
      <trkpt lat="44.7017" lon="4.2252">
        <ele>506.1</ele>
        <time>2022-06-10T12:15:55Z</time>
      </trkpt>
      <trkpt lat="44.70166" lon="4.22531">
        <ele>505.8</ele>
        <time>2022-06-10T12:15:56Z</time>
      </trkpt>
      <trkpt lat="44.70162" lon="4.22543">
        <ele>505.6</ele>
        <time>2022-06-10T12:15:57Z</time>
      </trkpt>
      <trkpt lat="44.70158" lon="4.22553">
        <ele>505.3</ele>
        <time>2022-06-10T12:15:58Z</time>
      </trkpt>
      <trkpt lat="44.70154" lon="4.22564">
        <ele>505.1</ele>
        <time>2022-06-10T12:15:59Z</time>
      </trkpt>
      <trkpt lat="44.70149" lon="4.22574">
        <ele>504.8</ele>
        <time>2022-06-10T12:16:00Z</time>
      </trkpt>
      <trkpt lat="44.70145" lon="4.22584">
        <ele>504.5</ele>
        <time>2022-06-10T12:16:01Z</time>
      </trkpt>
      <trkpt lat="44.70141" lon="4.22593">
        <ele>504.3</ele>
        <time>2022-06-10T12:16:02Z</time>
      </trkpt>
      <trkpt lat="44.70137" lon="4.22603">
        <ele>504.1</ele>
        <time>2022-06-10T12:16:03Z</time>
      </trkpt>
      <trkpt lat="44.70134" lon="4.22614">
        <ele>503.8</ele>
        <time>2022-06-10T12:16:04Z</time>
      </trkpt>
      <trkpt lat="44.7013" lon="4.22623">
        <ele>503.6</ele>
        <time>2022-06-10T12:16:05Z</time>
      </trkpt>
      <trkpt lat="44.70127" lon="4.22633">
        <ele>503.4</ele>
        <time>2022-06-10T12:16:06Z</time>
      </trkpt>
      <trkpt lat="44.70124" lon="4.22644">
        <ele>503.2</ele>
        <time>2022-06-10T12:16:07Z</time>
      </trkpt>
      <trkpt lat="44.70122" lon="4.22654">
        <ele>503</ele>
        <time>2022-06-10T12:16:08Z</time>
      </trkpt>
      <trkpt lat="44.7012" lon="4.22665">
        <ele>502.7</ele>
        <time>2022-06-10T12:16:09Z</time>
      </trkpt>
      <trkpt lat="44.70119" lon="4.22675">
        <ele>502.5</ele>
        <time>2022-06-10T12:16:10Z</time>
      </trkpt>
      <trkpt lat="44.70117" lon="4.22686">
        <ele>502.2</ele>
        <time>2022-06-10T12:16:11Z</time>
      </trkpt>
      <trkpt lat="44.70115" lon="4.22697">
        <ele>501.9</ele>
        <time>2022-06-10T12:16:12Z</time>
      </trkpt>
      <trkpt lat="44.70114" lon="4.22709">
        <ele>501.7</ele>
        <time>2022-06-10T12:16:13Z</time>
      </trkpt>
      <trkpt lat="44.70112" lon="4.2272">
        <ele>501.4</ele>
        <time>2022-06-10T12:16:14Z</time>
      </trkpt>
      <trkpt lat="44.70111" lon="4.22732">
        <ele>501.2</ele>
        <time>2022-06-10T12:16:15Z</time>
      </trkpt>
      <trkpt lat="44.70109" lon="4.22743">
        <ele>500.9</ele>
        <time>2022-06-10T12:16:16Z</time>
      </trkpt>
      <trkpt lat="44.70108" lon="4.22755">
        <ele>500.6</ele>
        <time>2022-06-10T12:16:17Z</time>
      </trkpt>
      <trkpt lat="44.70107" lon="4.22767">
        <ele>500.3</ele>
        <time>2022-06-10T12:16:18Z</time>
      </trkpt>
      <trkpt lat="44.70107" lon="4.22778">
        <ele>500</ele>
        <time>2022-06-10T12:16:19Z</time>
      </trkpt>
      <trkpt lat="44.70109" lon="4.22789">
        <ele>499.8</ele>
        <time>2022-06-10T12:16:20Z</time>
      </trkpt>
      <trkpt lat="44.70111" lon="4.22799">
        <ele>499.6</ele>
        <time>2022-06-10T12:16:21Z</time>
      </trkpt>
      <trkpt lat="44.70112" lon="4.22809">
        <ele>499.4</ele>
        <time>2022-06-10T12:16:22Z</time>
      </trkpt>
      <trkpt lat="44.70112" lon="4.2282">
        <ele>499.2</ele>
        <time>2022-06-10T12:16:23Z</time>
      </trkpt>
      <trkpt lat="44.70112" lon="4.22831">
        <ele>499</ele>
        <time>2022-06-10T12:16:24Z</time>
      </trkpt>
      <trkpt lat="44.70113" lon="4.22841">
        <ele>498.7</ele>
        <time>2022-06-10T12:16:25Z</time>
      </trkpt>
      <trkpt lat="44.70114" lon="4.22852">
        <ele>498.5</ele>
        <time>2022-06-10T12:16:26Z</time>
      </trkpt>
      <trkpt lat="44.70114" lon="4.22862">
        <ele>498.4</ele>
        <time>2022-06-10T12:16:27Z</time>
      </trkpt>
      <trkpt lat="44.70115" lon="4.22873">
        <ele>498.2</ele>
        <time>2022-06-10T12:16:28Z</time>
      </trkpt>
      <trkpt lat="44.70115" lon="4.22884">
        <ele>498</ele>
        <time>2022-06-10T12:16:29Z</time>
      </trkpt>
      <trkpt lat="44.70114" lon="4.22895">
        <ele>497.9</ele>
        <time>2022-06-10T12:16:30Z</time>
      </trkpt>
      <trkpt lat="44.70111" lon="4.22905">
        <ele>497.7</ele>
        <time>2022-06-10T12:16:31Z</time>
      </trkpt>
      <trkpt lat="44.70107" lon="4.22915">
        <ele>497.6</ele>
        <time>2022-06-10T12:16:32Z</time>
      </trkpt>
      <trkpt lat="44.70102" lon="4.22924">
        <ele>497.4</ele>
        <time>2022-06-10T12:16:33Z</time>
      </trkpt>
      <trkpt lat="44.70097" lon="4.22932">
        <ele>497.3</ele>
        <time>2022-06-10T12:16:34Z</time>
      </trkpt>
      <trkpt lat="44.70091" lon="4.22939">
        <ele>497.1</ele>
        <time>2022-06-10T12:16:35Z</time>
      </trkpt>
      <trkpt lat="44.70086" lon="4.22948">
        <ele>497</ele>
        <time>2022-06-10T12:16:36Z</time>
      </trkpt>
      <trkpt lat="44.70081" lon="4.22956">
        <ele>496.8</ele>
        <time>2022-06-10T12:16:37Z</time>
      </trkpt>
      <trkpt lat="44.70075" lon="4.22964">
        <ele>496.7</ele>
        <time>2022-06-10T12:16:38Z</time>
      </trkpt>
      <trkpt lat="44.70071" lon="4.22973">
        <ele>496.6</ele>
        <time>2022-06-10T12:16:39Z</time>
      </trkpt>
      <trkpt lat="44.70066" lon="4.22981">
        <ele>496.4</ele>
        <time>2022-06-10T12:16:40Z</time>
      </trkpt>
      <trkpt lat="44.70062" lon="4.2299">
        <ele>496.4</ele>
        <time>2022-06-10T12:16:41Z</time>
      </trkpt>
      <trkpt lat="44.70058" lon="4.23">
        <ele>496.2</ele>
        <time>2022-06-10T12:16:42Z</time>
      </trkpt>
      <trkpt lat="44.70055" lon="4.23009">
        <ele>495.9</ele>
        <time>2022-06-10T12:16:43Z</time>
      </trkpt>
      <trkpt lat="44.70053" lon="4.23019">
        <ele>495.6</ele>
        <time>2022-06-10T12:16:44Z</time>
      </trkpt>
      <trkpt lat="44.70051" lon="4.2303">
        <ele>495.3</ele>
        <time>2022-06-10T12:16:45Z</time>
      </trkpt>
      <trkpt lat="44.70049" lon="4.2304">
        <ele>495</ele>
        <time>2022-06-10T12:16:46Z</time>
      </trkpt>
      <trkpt lat="44.70048" lon="4.23051">
        <ele>494.6</ele>
        <time>2022-06-10T12:16:47Z</time>
      </trkpt>
      <trkpt lat="44.70047" lon="4.23062">
        <ele>494.3</ele>
        <time>2022-06-10T12:16:48Z</time>
      </trkpt>
      <trkpt lat="44.70046" lon="4.23073">
        <ele>494</ele>
        <time>2022-06-10T12:16:49Z</time>
      </trkpt>
      <trkpt lat="44.70044" lon="4.23084">
        <ele>493.7</ele>
        <time>2022-06-10T12:16:50Z</time>
      </trkpt>
      <trkpt lat="44.70043" lon="4.23094">
        <ele>493.5</ele>
        <time>2022-06-10T12:16:51Z</time>
      </trkpt>
      <trkpt lat="44.70042" lon="4.23105">
        <ele>493.2</ele>
        <time>2022-06-10T12:16:52Z</time>
      </trkpt>
      <trkpt lat="44.7004" lon="4.23117">
        <ele>492.9</ele>
        <time>2022-06-10T12:16:53Z</time>
      </trkpt>
      <trkpt lat="44.7004" lon="4.23128">
        <ele>492.6</ele>
        <time>2022-06-10T12:16:54Z</time>
      </trkpt>
      <trkpt lat="44.70038" lon="4.23139">
        <ele>492.3</ele>
        <time>2022-06-10T12:16:55Z</time>
      </trkpt>
      <trkpt lat="44.70036" lon="4.23151">
        <ele>492</ele>
        <time>2022-06-10T12:16:56Z</time>
      </trkpt>
      <trkpt lat="44.70035" lon="4.23162">
        <ele>491.7</ele>
        <time>2022-06-10T12:16:57Z</time>
      </trkpt>
      <trkpt lat="44.70033" lon="4.23173">
        <ele>491.3</ele>
        <time>2022-06-10T12:16:58Z</time>
      </trkpt>
      <trkpt lat="44.70032" lon="4.23185">
        <ele>491</ele>
        <time>2022-06-10T12:16:59Z</time>
      </trkpt>
      <trkpt lat="44.7003" lon="4.23197">
        <ele>490.7</ele>
        <time>2022-06-10T12:17:00Z</time>
      </trkpt>
      <trkpt lat="44.70027" lon="4.23208">
        <ele>490.3</ele>
        <time>2022-06-10T12:17:01Z</time>
      </trkpt>
      <trkpt lat="44.70024" lon="4.23219">
        <ele>489.9</ele>
        <time>2022-06-10T12:17:02Z</time>
      </trkpt>
      <trkpt lat="44.70021" lon="4.2323">
        <ele>489.6</ele>
        <time>2022-06-10T12:17:03Z</time>
      </trkpt>
      <trkpt lat="44.70018" lon="4.23242">
        <ele>489.2</ele>
        <time>2022-06-10T12:17:04Z</time>
      </trkpt>
      <trkpt lat="44.70015" lon="4.23254">
        <ele>488.9</ele>
        <time>2022-06-10T12:17:05Z</time>
      </trkpt>
      <trkpt lat="44.70012" lon="4.23265">
        <ele>488.5</ele>
        <time>2022-06-10T12:17:06Z</time>
      </trkpt>
      <trkpt lat="44.70009" lon="4.23277">
        <ele>488.2</ele>
        <time>2022-06-10T12:17:07Z</time>
      </trkpt>
      <trkpt lat="44.70007" lon="4.23289">
        <ele>487.9</ele>
        <time>2022-06-10T12:17:08Z</time>
      </trkpt>
      <trkpt lat="44.70005" lon="4.23301">
        <ele>487.6</ele>
        <time>2022-06-10T12:17:09Z</time>
      </trkpt>
      <trkpt lat="44.70003" lon="4.23313">
        <ele>487.3</ele>
        <time>2022-06-10T12:17:10Z</time>
      </trkpt>
      <trkpt lat="44.70001" lon="4.23324">
        <ele>487.1</ele>
        <time>2022-06-10T12:17:11Z</time>
      </trkpt>
      <trkpt lat="44.7" lon="4.23336">
        <ele>486.9</ele>
        <time>2022-06-10T12:17:12Z</time>
      </trkpt>
      <trkpt lat="44.7" lon="4.23347">
        <ele>486.6</ele>
        <time>2022-06-10T12:17:13Z</time>
      </trkpt>
      <trkpt lat="44.7" lon="4.23358">
        <ele>486.4</ele>
        <time>2022-06-10T12:17:14Z</time>
      </trkpt>
      <trkpt lat="44.7" lon="4.23369">
        <ele>486.2</ele>
        <time>2022-06-10T12:17:15Z</time>
      </trkpt>
      <trkpt lat="44.69999" lon="4.23381">
        <ele>486</ele>
        <time>2022-06-10T12:17:16Z</time>
      </trkpt>
      <trkpt lat="44.69999" lon="4.23393">
        <ele>485.8</ele>
        <time>2022-06-10T12:17:17Z</time>
      </trkpt>
      <trkpt lat="44.69998" lon="4.23404">
        <ele>485.5</ele>
        <time>2022-06-10T12:17:18Z</time>
      </trkpt>
      <trkpt lat="44.69998" lon="4.23416">
        <ele>485.2</ele>
        <time>2022-06-10T12:17:19Z</time>
      </trkpt>
      <trkpt lat="44.69998" lon="4.23427">
        <ele>484.9</ele>
        <time>2022-06-10T12:17:20Z</time>
      </trkpt>
      <trkpt lat="44.69997" lon="4.23438">
        <ele>484.6</ele>
        <time>2022-06-10T12:17:21Z</time>
      </trkpt>
      <trkpt lat="44.69995" lon="4.23449">
        <ele>484.2</ele>
        <time>2022-06-10T12:17:22Z</time>
      </trkpt>
      <trkpt lat="44.69993" lon="4.2346">
        <ele>483.7</ele>
        <time>2022-06-10T12:17:23Z</time>
      </trkpt>
      <trkpt lat="44.69991" lon="4.2347">
        <ele>483.3</ele>
        <time>2022-06-10T12:17:24Z</time>
      </trkpt>
      <trkpt lat="44.69989" lon="4.23481">
        <ele>482.8</ele>
        <time>2022-06-10T12:17:25Z</time>
      </trkpt>
      <trkpt lat="44.69986" lon="4.23492">
        <ele>482.3</ele>
        <time>2022-06-10T12:17:26Z</time>
      </trkpt>
      <trkpt lat="44.69982" lon="4.23501">
        <ele>481.8</ele>
        <time>2022-06-10T12:17:27Z</time>
      </trkpt>
      <trkpt lat="44.69977" lon="4.23511">
        <ele>481.3</ele>
        <time>2022-06-10T12:17:28Z</time>
      </trkpt>
      <trkpt lat="44.69973" lon="4.2352">
        <ele>480.9</ele>
        <time>2022-06-10T12:17:29Z</time>
      </trkpt>
      <trkpt lat="44.69969" lon="4.23531">
        <ele>480.5</ele>
        <time>2022-06-10T12:17:30Z</time>
      </trkpt>
      <trkpt lat="44.69964" lon="4.23541">
        <ele>480</ele>
        <time>2022-06-10T12:17:31Z</time>
      </trkpt>
      <trkpt lat="44.69959" lon="4.23551">
        <ele>479.6</ele>
        <time>2022-06-10T12:17:32Z</time>
      </trkpt>
      <trkpt lat="44.69953" lon="4.23561">
        <ele>479.2</ele>
        <time>2022-06-10T12:17:33Z</time>
      </trkpt>
      <trkpt lat="44.69948" lon="4.23572">
        <ele>478.7</ele>
        <time>2022-06-10T12:17:34Z</time>
      </trkpt>
      <trkpt lat="44.69944" lon="4.23583">
        <ele>478.3</ele>
        <time>2022-06-10T12:17:35Z</time>
      </trkpt>
      <trkpt lat="44.6994" lon="4.23595">
        <ele>477.8</ele>
        <time>2022-06-10T12:17:36Z</time>
      </trkpt>
      <trkpt lat="44.69936" lon="4.23607">
        <ele>477.4</ele>
        <time>2022-06-10T12:17:37Z</time>
      </trkpt>
      <trkpt lat="44.69932" lon="4.23618">
        <ele>476.9</ele>
        <time>2022-06-10T12:17:38Z</time>
      </trkpt>
      <trkpt lat="44.69929" lon="4.2363">
        <ele>476.5</ele>
        <time>2022-06-10T12:17:39Z</time>
      </trkpt>
      <trkpt lat="44.69926" lon="4.23643">
        <ele>476</ele>
        <time>2022-06-10T12:17:40Z</time>
      </trkpt>
      <trkpt lat="44.69925" lon="4.23655">
        <ele>475.6</ele>
        <time>2022-06-10T12:17:41Z</time>
      </trkpt>
      <trkpt lat="44.69923" lon="4.23668">
        <ele>475.2</ele>
        <time>2022-06-10T12:17:42Z</time>
      </trkpt>
      <trkpt lat="44.69921" lon="4.23681">
        <ele>474.8</ele>
        <time>2022-06-10T12:17:43Z</time>
      </trkpt>
      <trkpt lat="44.69919" lon="4.23694">
        <ele>474.4</ele>
        <time>2022-06-10T12:17:44Z</time>
      </trkpt>
      <trkpt lat="44.69918" lon="4.23707">
        <ele>474</ele>
        <time>2022-06-10T12:17:45Z</time>
      </trkpt>
      <trkpt lat="44.69916" lon="4.23719">
        <ele>473.6</ele>
        <time>2022-06-10T12:17:46Z</time>
      </trkpt>
      <trkpt lat="44.69914" lon="4.23731">
        <ele>473.1</ele>
        <time>2022-06-10T12:17:47Z</time>
      </trkpt>
      <trkpt lat="44.69913" lon="4.23743">
        <ele>472.6</ele>
        <time>2022-06-10T12:17:48Z</time>
      </trkpt>
      <trkpt lat="44.69911" lon="4.23756">
        <ele>472.1</ele>
        <time>2022-06-10T12:17:49Z</time>
      </trkpt>
      <trkpt lat="44.69909" lon="4.23769">
        <ele>471.6</ele>
        <time>2022-06-10T12:17:50Z</time>
      </trkpt>
      <trkpt lat="44.69906" lon="4.23782">
        <ele>471</ele>
        <time>2022-06-10T12:17:51Z</time>
      </trkpt>
      <trkpt lat="44.69903" lon="4.23795">
        <ele>470.5</ele>
        <time>2022-06-10T12:17:52Z</time>
      </trkpt>
      <trkpt lat="44.699" lon="4.23808">
        <ele>470.1</ele>
        <time>2022-06-10T12:17:53Z</time>
      </trkpt>
      <trkpt lat="44.69898" lon="4.23822">
        <ele>469.7</ele>
        <time>2022-06-10T12:17:54Z</time>
      </trkpt>
      <trkpt lat="44.69895" lon="4.23835">
        <ele>469.4</ele>
        <time>2022-06-10T12:17:55Z</time>
      </trkpt>
      <trkpt lat="44.69892" lon="4.23849">
        <ele>469</ele>
        <time>2022-06-10T12:17:56Z</time>
      </trkpt>
      <trkpt lat="44.69889" lon="4.23863">
        <ele>468.6</ele>
        <time>2022-06-10T12:17:57Z</time>
      </trkpt>
      <trkpt lat="44.69886" lon="4.23877">
        <ele>468.2</ele>
        <time>2022-06-10T12:17:58Z</time>
      </trkpt>
      <trkpt lat="44.69883" lon="4.23891">
        <ele>467.8</ele>
        <time>2022-06-10T12:17:59Z</time>
      </trkpt>
      <trkpt lat="44.69879" lon="4.23905">
        <ele>467.4</ele>
        <time>2022-06-10T12:18:00Z</time>
      </trkpt>
      <trkpt lat="44.69874" lon="4.23918">
        <ele>467</ele>
        <time>2022-06-10T12:18:01Z</time>
      </trkpt>
      <trkpt lat="44.69868" lon="4.2393">
        <ele>466.7</ele>
        <time>2022-06-10T12:18:02Z</time>
      </trkpt>
      <trkpt lat="44.69862" lon="4.23941">
        <ele>466.7</ele>
        <time>2022-06-10T12:18:03Z</time>
      </trkpt>
      <trkpt lat="44.69856" lon="4.23953">
        <ele>466.6</ele>
        <time>2022-06-10T12:18:04Z</time>
      </trkpt>
      <trkpt lat="44.69851" lon="4.23965">
        <ele>466.4</ele>
        <time>2022-06-10T12:18:05Z</time>
      </trkpt>
      <trkpt lat="44.69847" lon="4.23977">
        <ele>466.1</ele>
        <time>2022-06-10T12:18:06Z</time>
      </trkpt>
      <trkpt lat="44.69844" lon="4.2399">
        <ele>465.8</ele>
        <time>2022-06-10T12:18:07Z</time>
      </trkpt>
      <trkpt lat="44.69841" lon="4.24003">
        <ele>465.6</ele>
        <time>2022-06-10T12:18:08Z</time>
      </trkpt>
      <trkpt lat="44.6984" lon="4.24016">
        <ele>465.5</ele>
        <time>2022-06-10T12:18:09Z</time>
      </trkpt>
      <trkpt lat="44.69838" lon="4.24029">
        <ele>465.4</ele>
        <time>2022-06-10T12:18:10Z</time>
      </trkpt>
      <trkpt lat="44.69836" lon="4.24042">
        <ele>465.3</ele>
        <time>2022-06-10T12:18:11Z</time>
      </trkpt>
      <trkpt lat="44.69835" lon="4.24055">
        <ele>465.2</ele>
        <time>2022-06-10T12:18:12Z</time>
      </trkpt>
      <trkpt lat="44.69833" lon="4.24068">
        <ele>465.1</ele>
        <time>2022-06-10T12:18:13Z</time>
      </trkpt>
      <trkpt lat="44.6983" lon="4.2408">
        <ele>465.1</ele>
        <time>2022-06-10T12:18:14Z</time>
      </trkpt>
      <trkpt lat="44.69827" lon="4.24092">
        <ele>465</ele>
        <time>2022-06-10T12:18:15Z</time>
      </trkpt>
      <trkpt lat="44.69822" lon="4.24103">
        <ele>464.9</ele>
        <time>2022-06-10T12:18:16Z</time>
      </trkpt>
      <trkpt lat="44.69816" lon="4.24114">
        <ele>464.8</ele>
        <time>2022-06-10T12:18:17Z</time>
      </trkpt>
      <trkpt lat="44.6981" lon="4.24123">
        <ele>464.7</ele>
        <time>2022-06-10T12:18:18Z</time>
      </trkpt>
      <trkpt lat="44.69804" lon="4.24132">
        <ele>464.6</ele>
        <time>2022-06-10T12:18:19Z</time>
      </trkpt>
      <trkpt lat="44.69798" lon="4.2414">
        <ele>464.5</ele>
        <time>2022-06-10T12:18:20Z</time>
      </trkpt>
      <trkpt lat="44.69792" lon="4.24148">
        <ele>464.4</ele>
        <time>2022-06-10T12:18:21Z</time>
      </trkpt>
      <trkpt lat="44.69787" lon="4.24156">
        <ele>464.3</ele>
        <time>2022-06-10T12:18:22Z</time>
      </trkpt>
      <trkpt lat="44.69781" lon="4.24164">
        <ele>464.3</ele>
        <time>2022-06-10T12:18:23Z</time>
      </trkpt>
      <trkpt lat="44.69776" lon="4.24173">
        <ele>464.2</ele>
        <time>2022-06-10T12:18:24Z</time>
      </trkpt>
      <trkpt lat="44.6977" lon="4.24182">
        <ele>464.1</ele>
        <time>2022-06-10T12:18:25Z</time>
      </trkpt>
      <trkpt lat="44.69764" lon="4.2419">
        <ele>464.1</ele>
        <time>2022-06-10T12:18:26Z</time>
      </trkpt>
      <trkpt lat="44.69759" lon="4.24198">
        <ele>464.1</ele>
        <time>2022-06-10T12:18:27Z</time>
      </trkpt>
      <trkpt lat="44.69755" lon="4.24207">
        <ele>464.1</ele>
        <time>2022-06-10T12:18:28Z</time>
      </trkpt>
      <trkpt lat="44.6975" lon="4.24217">
        <ele>464</ele>
        <time>2022-06-10T12:18:29Z</time>
      </trkpt>
      <trkpt lat="44.69746" lon="4.24227">
        <ele>464</ele>
        <time>2022-06-10T12:18:30Z</time>
      </trkpt>
      <trkpt lat="44.69742" lon="4.24237">
        <ele>464</ele>
        <time>2022-06-10T12:18:31Z</time>
      </trkpt>
      <trkpt lat="44.69739" lon="4.24247">
        <ele>464</ele>
        <time>2022-06-10T12:18:32Z</time>
      </trkpt>
      <trkpt lat="44.69736" lon="4.24256">
        <ele>463.9</ele>
        <time>2022-06-10T12:18:33Z</time>
      </trkpt>
      <trkpt lat="44.69732" lon="4.24266">
        <ele>463.8</ele>
        <time>2022-06-10T12:18:34Z</time>
      </trkpt>
      <trkpt lat="44.69729" lon="4.24275">
        <ele>463.8</ele>
        <time>2022-06-10T12:18:35Z</time>
      </trkpt>
      <trkpt lat="44.69726" lon="4.24285">
        <ele>463.7</ele>
        <time>2022-06-10T12:18:36Z</time>
      </trkpt>
      <trkpt lat="44.69723" lon="4.24295">
        <ele>463.6</ele>
        <time>2022-06-10T12:18:37Z</time>
      </trkpt>
      <trkpt lat="44.69721" lon="4.24305">
        <ele>463.6</ele>
        <time>2022-06-10T12:18:38Z</time>
      </trkpt>
      <trkpt lat="44.69718" lon="4.24314">
        <ele>463.5</ele>
        <time>2022-06-10T12:18:39Z</time>
      </trkpt>
      <trkpt lat="44.69715" lon="4.24323">
        <ele>463.4</ele>
        <time>2022-06-10T12:18:40Z</time>
      </trkpt>
      <trkpt lat="44.69713" lon="4.24333">
        <ele>463.4</ele>
        <time>2022-06-10T12:18:41Z</time>
      </trkpt>
      <trkpt lat="44.69711" lon="4.24341">
        <ele>463.3</ele>
        <time>2022-06-10T12:18:42Z</time>
      </trkpt>
      <trkpt lat="44.69708" lon="4.2435">
        <ele>463.2</ele>
        <time>2022-06-10T12:18:43Z</time>
      </trkpt>
      <trkpt lat="44.69706" lon="4.24359">
        <ele>463.2</ele>
        <time>2022-06-10T12:18:44Z</time>
      </trkpt>
      <trkpt lat="44.69703" lon="4.24367">
        <ele>463.1</ele>
        <time>2022-06-10T12:18:45Z</time>
      </trkpt>
      <trkpt lat="44.69701" lon="4.24375">
        <ele>463</ele>
        <time>2022-06-10T12:18:46Z</time>
      </trkpt>
      <trkpt lat="44.69699" lon="4.24383">
        <ele>463</ele>
        <time>2022-06-10T12:18:47Z</time>
      </trkpt>
      <trkpt lat="44.69697" lon="4.24391">
        <ele>462.9</ele>
        <time>2022-06-10T12:18:48Z</time>
      </trkpt>
      <trkpt lat="44.69695" lon="4.24399">
        <ele>462.8</ele>
        <time>2022-06-10T12:18:49Z</time>
      </trkpt>
      <trkpt lat="44.69692" lon="4.24407">
        <ele>462.8</ele>
        <time>2022-06-10T12:18:50Z</time>
      </trkpt>
      <trkpt lat="44.6969" lon="4.24415">
        <ele>462.7</ele>
        <time>2022-06-10T12:18:51Z</time>
      </trkpt>
      <trkpt lat="44.69688" lon="4.24423">
        <ele>462.7</ele>
        <time>2022-06-10T12:18:52Z</time>
      </trkpt>
      <trkpt lat="44.69686" lon="4.2443">
        <ele>462.6</ele>
        <time>2022-06-10T12:18:53Z</time>
      </trkpt>
      <trkpt lat="44.69684" lon="4.24438">
        <ele>462.6</ele>
        <time>2022-06-10T12:18:54Z</time>
      </trkpt>
      <trkpt lat="44.69682" lon="4.24446">
        <ele>462.5</ele>
        <time>2022-06-10T12:18:55Z</time>
      </trkpt>
      <trkpt lat="44.6968" lon="4.24453">
        <ele>462.4</ele>
        <time>2022-06-10T12:18:56Z</time>
      </trkpt>
      <trkpt lat="44.69679" lon="4.2446">
        <ele>462.4</ele>
        <time>2022-06-10T12:18:57Z</time>
      </trkpt>
      <trkpt lat="44.69677" lon="4.24467">
        <ele>462.4</ele>
        <time>2022-06-10T12:18:58Z</time>
      </trkpt>
      <trkpt lat="44.69675" lon="4.24474">
        <ele>462.3</ele>
        <time>2022-06-10T12:18:59Z</time>
      </trkpt>
      <trkpt lat="44.69673" lon="4.24481">
        <ele>462.3</ele>
        <time>2022-06-10T12:19:00Z</time>
      </trkpt>
      <trkpt lat="44.69671" lon="4.24488">
        <ele>462.2</ele>
        <time>2022-06-10T12:19:01Z</time>
      </trkpt>
      <trkpt lat="44.69669" lon="4.24495">
        <ele>462.1</ele>
        <time>2022-06-10T12:19:02Z</time>
      </trkpt>
      <trkpt lat="44.69667" lon="4.24501">
        <ele>462</ele>
        <time>2022-06-10T12:19:03Z</time>
      </trkpt>
      <trkpt lat="44.69665" lon="4.24508">
        <ele>461.9</ele>
        <time>2022-06-10T12:19:04Z</time>
      </trkpt>
      <trkpt lat="44.69662" lon="4.24515">
        <ele>461.8</ele>
        <time>2022-06-10T12:19:05Z</time>
      </trkpt>
      <trkpt lat="44.6966" lon="4.24521">
        <ele>461.7</ele>
        <time>2022-06-10T12:19:06Z</time>
      </trkpt>
      <trkpt lat="44.69658" lon="4.24527">
        <ele>461.6</ele>
        <time>2022-06-10T12:19:07Z</time>
      </trkpt>
      <trkpt lat="44.69655" lon="4.24533">
        <ele>461.5</ele>
        <time>2022-06-10T12:19:08Z</time>
      </trkpt>
      <trkpt lat="44.69653" lon="4.24539">
        <ele>461.4</ele>
        <time>2022-06-10T12:19:09Z</time>
      </trkpt>
      <trkpt lat="44.6965" lon="4.24545">
        <ele>461.3</ele>
        <time>2022-06-10T12:19:10Z</time>
      </trkpt>
      <trkpt lat="44.69646" lon="4.24551">
        <ele>461.1</ele>
        <time>2022-06-10T12:19:11Z</time>
      </trkpt>
      <trkpt lat="44.69642" lon="4.24556">
        <ele>461</ele>
        <time>2022-06-10T12:19:12Z</time>
      </trkpt>
      <trkpt lat="44.69639" lon="4.24562">
        <ele>460.8</ele>
        <time>2022-06-10T12:19:13Z</time>
      </trkpt>
      <trkpt lat="44.69635" lon="4.24568">
        <ele>460.6</ele>
        <time>2022-06-10T12:19:14Z</time>
      </trkpt>
      <trkpt lat="44.69631" lon="4.24574">
        <ele>460.4</ele>
        <time>2022-06-10T12:19:15Z</time>
      </trkpt>
      <trkpt lat="44.69628" lon="4.24579">
        <ele>460.2</ele>
        <time>2022-06-10T12:19:16Z</time>
      </trkpt>
      <trkpt lat="44.69624" lon="4.24585">
        <ele>460</ele>
        <time>2022-06-10T12:19:17Z</time>
      </trkpt>
      <trkpt lat="44.6962" lon="4.24591">
        <ele>459.8</ele>
        <time>2022-06-10T12:19:18Z</time>
      </trkpt>
      <trkpt lat="44.69617" lon="4.24597">
        <ele>459.6</ele>
        <time>2022-06-10T12:19:19Z</time>
      </trkpt>
      <trkpt lat="44.69613" lon="4.24603">
        <ele>459.3</ele>
        <time>2022-06-10T12:19:20Z</time>
      </trkpt>
      <trkpt lat="44.69609" lon="4.24609">
        <ele>459</ele>
        <time>2022-06-10T12:19:21Z</time>
      </trkpt>
      <trkpt lat="44.69605" lon="4.24616">
        <ele>458.6</ele>
        <time>2022-06-10T12:19:22Z</time>
      </trkpt>
      <trkpt lat="44.69602" lon="4.24623">
        <ele>458.3</ele>
        <time>2022-06-10T12:19:23Z</time>
      </trkpt>
      <trkpt lat="44.69598" lon="4.24631">
        <ele>458</ele>
        <time>2022-06-10T12:19:24Z</time>
      </trkpt>
      <trkpt lat="44.69594" lon="4.24639">
        <ele>457.6</ele>
        <time>2022-06-10T12:19:25Z</time>
      </trkpt>
      <trkpt lat="44.6959" lon="4.24647">
        <ele>457.3</ele>
        <time>2022-06-10T12:19:26Z</time>
      </trkpt>
      <trkpt lat="44.69586" lon="4.24655">
        <ele>457.2</ele>
        <time>2022-06-10T12:19:27Z</time>
      </trkpt>
      <trkpt lat="44.69582" lon="4.24664">
        <ele>457.1</ele>
        <time>2022-06-10T12:19:28Z</time>
      </trkpt>
      <trkpt lat="44.69577" lon="4.24673">
        <ele>456.9</ele>
        <time>2022-06-10T12:19:29Z</time>
      </trkpt>
      <trkpt lat="44.69573" lon="4.24681">
        <ele>456.8</ele>
        <time>2022-06-10T12:19:30Z</time>
      </trkpt>
      <trkpt lat="44.69569" lon="4.2469">
        <ele>456.6</ele>
        <time>2022-06-10T12:19:31Z</time>
      </trkpt>
      <trkpt lat="44.69564" lon="4.247">
        <ele>456</ele>
        <time>2022-06-10T12:19:32Z</time>
      </trkpt>
      <trkpt lat="44.6956" lon="4.24708">
        <ele>455.5</ele>
        <time>2022-06-10T12:19:33Z</time>
      </trkpt>
      <trkpt lat="44.69556" lon="4.24717">
        <ele>455</ele>
        <time>2022-06-10T12:19:34Z</time>
      </trkpt>
      <trkpt lat="44.69551" lon="4.24726">
        <ele>454.4</ele>
        <time>2022-06-10T12:19:35Z</time>
      </trkpt>
      <trkpt lat="44.69546" lon="4.24734">
        <ele>453.9</ele>
        <time>2022-06-10T12:19:36Z</time>
      </trkpt>
      <trkpt lat="44.69542" lon="4.24742">
        <ele>453.5</ele>
        <time>2022-06-10T12:19:37Z</time>
      </trkpt>
      <trkpt lat="44.69536" lon="4.2475">
        <ele>453</ele>
        <time>2022-06-10T12:19:38Z</time>
      </trkpt>
      <trkpt lat="44.6953" lon="4.24758">
        <ele>452.5</ele>
        <time>2022-06-10T12:19:39Z</time>
      </trkpt>
      <trkpt lat="44.69524" lon="4.24766">
        <ele>452.4</ele>
        <time>2022-06-10T12:19:40Z</time>
      </trkpt>
      <trkpt lat="44.69519" lon="4.24773">
        <ele>452.4</ele>
        <time>2022-06-10T12:19:41Z</time>
      </trkpt>
      <trkpt lat="44.69513" lon="4.24782">
        <ele>452.3</ele>
        <time>2022-06-10T12:19:42Z</time>
      </trkpt>
      <trkpt lat="44.69509" lon="4.2479">
        <ele>452.1</ele>
        <time>2022-06-10T12:19:43Z</time>
      </trkpt>
      <trkpt lat="44.69505" lon="4.24799">
        <ele>451.8</ele>
        <time>2022-06-10T12:19:44Z</time>
      </trkpt>
      <trkpt lat="44.69501" lon="4.24809">
        <ele>451.5</ele>
        <time>2022-06-10T12:19:45Z</time>
      </trkpt>
      <trkpt lat="44.69497" lon="4.24819">
        <ele>451.1</ele>
        <time>2022-06-10T12:19:46Z</time>
      </trkpt>
      <trkpt lat="44.69493" lon="4.24829">
        <ele>450.8</ele>
        <time>2022-06-10T12:19:47Z</time>
      </trkpt>
      <trkpt lat="44.69489" lon="4.2484">
        <ele>450.4</ele>
        <time>2022-06-10T12:19:48Z</time>
      </trkpt>
      <trkpt lat="44.69485" lon="4.2485">
        <ele>450.1</ele>
        <time>2022-06-10T12:19:49Z</time>
      </trkpt>
      <trkpt lat="44.69481" lon="4.24861">
        <ele>449.7</ele>
        <time>2022-06-10T12:19:50Z</time>
      </trkpt>
      <trkpt lat="44.69477" lon="4.24872">
        <ele>449.3</ele>
        <time>2022-06-10T12:19:51Z</time>
      </trkpt>
      <trkpt lat="44.69473" lon="4.24883">
        <ele>448.9</ele>
        <time>2022-06-10T12:19:52Z</time>
      </trkpt>
      <trkpt lat="44.69469" lon="4.24894">
        <ele>448.6</ele>
        <time>2022-06-10T12:19:53Z</time>
      </trkpt>
      <trkpt lat="44.69465" lon="4.24905">
        <ele>448.2</ele>
        <time>2022-06-10T12:19:54Z</time>
      </trkpt>
      <trkpt lat="44.69461" lon="4.24916">
        <ele>447.8</ele>
        <time>2022-06-10T12:19:55Z</time>
      </trkpt>
      <trkpt lat="44.69457" lon="4.24928">
        <ele>447.4</ele>
        <time>2022-06-10T12:19:56Z</time>
      </trkpt>
      <trkpt lat="44.69452" lon="4.24939">
        <ele>447</ele>
        <time>2022-06-10T12:19:57Z</time>
      </trkpt>
      <trkpt lat="44.69449" lon="4.24952">
        <ele>446.6</ele>
        <time>2022-06-10T12:19:58Z</time>
      </trkpt>
      <trkpt lat="44.69446" lon="4.24964">
        <ele>446.3</ele>
        <time>2022-06-10T12:19:59Z</time>
      </trkpt>
      <trkpt lat="44.69444" lon="4.24977">
        <ele>445.9</ele>
        <time>2022-06-10T12:20:00Z</time>
      </trkpt>
      <trkpt lat="44.69442" lon="4.24991">
        <ele>445.6</ele>
        <time>2022-06-10T12:20:01Z</time>
      </trkpt>
      <trkpt lat="44.6944" lon="4.25003">
        <ele>445.3</ele>
        <time>2022-06-10T12:20:02Z</time>
      </trkpt>
      <trkpt lat="44.69438" lon="4.25016">
        <ele>445.2</ele>
        <time>2022-06-10T12:20:03Z</time>
      </trkpt>
      <trkpt lat="44.69436" lon="4.25029">
        <ele>445</ele>
        <time>2022-06-10T12:20:04Z</time>
      </trkpt>
      <trkpt lat="44.69434" lon="4.25042">
        <ele>444.9</ele>
        <time>2022-06-10T12:20:05Z</time>
      </trkpt>
      <trkpt lat="44.69432" lon="4.25055">
        <ele>444.7</ele>
        <time>2022-06-10T12:20:06Z</time>
      </trkpt>
      <trkpt lat="44.6943" lon="4.25068">
        <ele>444.5</ele>
        <time>2022-06-10T12:20:07Z</time>
      </trkpt>
      <trkpt lat="44.69428" lon="4.2508">
        <ele>444.4</ele>
        <time>2022-06-10T12:20:08Z</time>
      </trkpt>
      <trkpt lat="44.69425" lon="4.25093">
        <ele>444.3</ele>
        <time>2022-06-10T12:20:09Z</time>
      </trkpt>
      <trkpt lat="44.69421" lon="4.25106">
        <ele>444.1</ele>
        <time>2022-06-10T12:20:10Z</time>
      </trkpt>
      <trkpt lat="44.69416" lon="4.25117">
        <ele>443.8</ele>
        <time>2022-06-10T12:20:11Z</time>
      </trkpt>
      <trkpt lat="44.69411" lon="4.25128">
        <ele>443.5</ele>
        <time>2022-06-10T12:20:12Z</time>
      </trkpt>
      <trkpt lat="44.69405" lon="4.25138">
        <ele>443.3</ele>
        <time>2022-06-10T12:20:13Z</time>
      </trkpt>
      <trkpt lat="44.69398" lon="4.25147">
        <ele>443.1</ele>
        <time>2022-06-10T12:20:14Z</time>
      </trkpt>
      <trkpt lat="44.69391" lon="4.25156">
        <ele>442.8</ele>
        <time>2022-06-10T12:20:15Z</time>
      </trkpt>
      <trkpt lat="44.69385" lon="4.25165">
        <ele>442.6</ele>
        <time>2022-06-10T12:20:16Z</time>
      </trkpt>
      <trkpt lat="44.69379" lon="4.25174">
        <ele>442.4</ele>
        <time>2022-06-10T12:20:17Z</time>
      </trkpt>
      <trkpt lat="44.69372" lon="4.25183">
        <ele>442.2</ele>
        <time>2022-06-10T12:20:18Z</time>
      </trkpt>
      <trkpt lat="44.69366" lon="4.25192">
        <ele>441.9</ele>
        <time>2022-06-10T12:20:19Z</time>
      </trkpt>
      <trkpt lat="44.6936" lon="4.25201">
        <ele>441.6</ele>
        <time>2022-06-10T12:20:20Z</time>
      </trkpt>
      <trkpt lat="44.69353" lon="4.2521">
        <ele>441.4</ele>
        <time>2022-06-10T12:20:21Z</time>
      </trkpt>
      <trkpt lat="44.69346" lon="4.25219">
        <ele>441</ele>
        <time>2022-06-10T12:20:22Z</time>
      </trkpt>
      <trkpt lat="44.6934" lon="4.25228">
        <ele>440.7</ele>
        <time>2022-06-10T12:20:23Z</time>
      </trkpt>
      <trkpt lat="44.69334" lon="4.25238">
        <ele>440.4</ele>
        <time>2022-06-10T12:20:24Z</time>
      </trkpt>
      <trkpt lat="44.69328" lon="4.25247">
        <ele>440</ele>
        <time>2022-06-10T12:20:25Z</time>
      </trkpt>
      <trkpt lat="44.69322" lon="4.25257">
        <ele>439.7</ele>
        <time>2022-06-10T12:20:26Z</time>
      </trkpt>
      <trkpt lat="44.69317" lon="4.25268">
        <ele>439.3</ele>
        <time>2022-06-10T12:20:27Z</time>
      </trkpt>
      <trkpt lat="44.69313" lon="4.25281">
        <ele>438.8</ele>
        <time>2022-06-10T12:20:28Z</time>
      </trkpt>
      <trkpt lat="44.6931" lon="4.25294">
        <ele>438.4</ele>
        <time>2022-06-10T12:20:29Z</time>
      </trkpt>
      <trkpt lat="44.69308" lon="4.25307">
        <ele>437.9</ele>
        <time>2022-06-10T12:20:30Z</time>
      </trkpt>
      <trkpt lat="44.69305" lon="4.25321">
        <ele>437.4</ele>
        <time>2022-06-10T12:20:31Z</time>
      </trkpt>
      <trkpt lat="44.69303" lon="4.25334">
        <ele>436.9</ele>
        <time>2022-06-10T12:20:32Z</time>
      </trkpt>
      <trkpt lat="44.693" lon="4.25347">
        <ele>436.5</ele>
        <time>2022-06-10T12:20:33Z</time>
      </trkpt>
      <trkpt lat="44.69298" lon="4.25361">
        <ele>435.9</ele>
        <time>2022-06-10T12:20:34Z</time>
      </trkpt>
      <trkpt lat="44.69295" lon="4.25375">
        <ele>435.4</ele>
        <time>2022-06-10T12:20:35Z</time>
      </trkpt>
      <trkpt lat="44.69293" lon="4.2539">
        <ele>434.9</ele>
        <time>2022-06-10T12:20:36Z</time>
      </trkpt>
      <trkpt lat="44.6929" lon="4.25404">
        <ele>434.4</ele>
        <time>2022-06-10T12:20:37Z</time>
      </trkpt>
      <trkpt lat="44.69288" lon="4.25419">
        <ele>433.9</ele>
        <time>2022-06-10T12:20:38Z</time>
      </trkpt>
      <trkpt lat="44.69285" lon="4.25433">
        <ele>433.4</ele>
        <time>2022-06-10T12:20:39Z</time>
      </trkpt>
      <trkpt lat="44.69282" lon="4.25447">
        <ele>433</ele>
        <time>2022-06-10T12:20:40Z</time>
      </trkpt>
      <trkpt lat="44.6928" lon="4.25462">
        <ele>432.6</ele>
        <time>2022-06-10T12:20:41Z</time>
      </trkpt>
      <trkpt lat="44.69277" lon="4.25476">
        <ele>432.2</ele>
        <time>2022-06-10T12:20:42Z</time>
      </trkpt>
      <trkpt lat="44.69275" lon="4.25491">
        <ele>431.9</ele>
        <time>2022-06-10T12:20:43Z</time>
      </trkpt>
      <trkpt lat="44.69272" lon="4.25505">
        <ele>431.6</ele>
        <time>2022-06-10T12:20:44Z</time>
      </trkpt>
      <trkpt lat="44.6927" lon="4.25519">
        <ele>431.3</ele>
        <time>2022-06-10T12:20:45Z</time>
      </trkpt>
      <trkpt lat="44.69268" lon="4.25531">
        <ele>431.1</ele>
        <time>2022-06-10T12:20:46Z</time>
      </trkpt>
      <trkpt lat="44.69266" lon="4.25542">
        <ele>430.9</ele>
        <time>2022-06-10T12:20:47Z</time>
      </trkpt>
      <trkpt lat="44.69264" lon="4.2555">
        <ele>430.8</ele>
        <time>2022-06-10T12:20:48Z</time>
      </trkpt>
      <trkpt lat="44.69263" lon="4.25555">
        <ele>430.7</ele>
        <time>2022-06-10T12:20:49Z</time>
      </trkpt>
      <trkpt lat="44.69261" lon="4.25559">
        <ele>430.6</ele>
        <time>2022-06-10T12:20:50Z</time>
      </trkpt>
      <trkpt lat="44.69261" lon="4.2556">
        <ele>430.6</ele>
        <time>2022-06-10T12:20:51Z</time>
      </trkpt>
      <trkpt lat="44.6926" lon="4.25564">
        <ele>430.5</ele>
        <time>2022-06-10T12:20:52Z</time>
      </trkpt>
      <trkpt lat="44.6926" lon="4.25565">
        <ele>430.5</ele>
        <time>2022-06-10T12:20:53Z</time>
      </trkpt>
      <trkpt lat="44.6926" lon="4.25567">
        <ele>430.4</ele>
        <time>2022-06-10T12:20:54Z</time>
      </trkpt>
      <trkpt lat="44.6926" lon="4.25567">
        <ele>430.4</ele>
        <time>2022-06-10T12:20:55Z</time>
      </trkpt>
      <trkpt lat="44.6926" lon="4.25568">
        <ele>430.4</ele>
        <time>2022-06-10T12:20:56Z</time>
      </trkpt>
      <trkpt lat="44.6926" lon="4.25568">
        <ele>430.4</ele>
        <time>2022-06-10T12:20:57Z</time>
      </trkpt>
      <trkpt lat="44.6926" lon="4.25569">
        <ele>430.4</ele>
        <time>2022-06-10T12:20:58Z</time>
      </trkpt>
      <trkpt lat="44.6926" lon="4.25569">
        <ele>430.4</ele>
        <time>2022-06-10T12:20:59Z</time>
      </trkpt>
      <trkpt lat="44.6926" lon="4.2557">
        <ele>430.4</ele>
        <time>2022-06-10T12:21:00Z</time>
      </trkpt>
      <trkpt lat="44.6926" lon="4.2557">
        <ele>430.4</ele>
        <time>2022-06-10T12:21:01Z</time>
      </trkpt>
      <trkpt lat="44.6926" lon="4.25571">
        <ele>430.4</ele>
        <time>2022-06-10T12:21:02Z</time>
      </trkpt>
      <trkpt lat="44.6926" lon="4.25571">
        <ele>430.3</ele>
        <time>2022-06-10T12:21:03Z</time>
      </trkpt>
      <trkpt lat="44.6926" lon="4.25572">
        <ele>430.3</ele>
        <time>2022-06-10T12:21:04Z</time>
      </trkpt>
      <trkpt lat="44.6926" lon="4.25572">
        <ele>430.3</ele>
        <time>2022-06-10T12:21:06Z</time>
      </trkpt>
      <trkpt lat="44.6926" lon="4.25573">
        <ele>430.3</ele>
        <time>2022-06-10T12:22:15Z</time>
      </trkpt>
      <trkpt lat="44.6926" lon="4.25573">
        <ele>430.3</ele>
        <time>2022-06-10T12:22:16Z</time>
      </trkpt>
      <trkpt lat="44.6926" lon="4.25574">
        <ele>430.3</ele>
        <time>2022-06-10T12:22:17Z</time>
      </trkpt>
      <trkpt lat="44.6926" lon="4.25574">
        <ele>430.3</ele>
        <time>2022-06-10T12:22:18Z</time>
      </trkpt>
      <trkpt lat="44.6926" lon="4.25575">
        <ele>430.3</ele>
        <time>2022-06-10T12:22:19Z</time>
      </trkpt>
      <trkpt lat="44.69259" lon="4.25579">
        <ele>430.2</ele>
        <time>2022-06-10T12:22:20Z</time>
      </trkpt>
      <trkpt lat="44.69258" lon="4.25583">
        <ele>430.1</ele>
        <time>2022-06-10T12:22:21Z</time>
      </trkpt>
      <trkpt lat="44.69257" lon="4.25588">
        <ele>430</ele>
        <time>2022-06-10T12:22:22Z</time>
      </trkpt>
      <trkpt lat="44.69256" lon="4.25593">
        <ele>430</ele>
        <time>2022-06-10T12:22:23Z</time>
      </trkpt>
      <trkpt lat="44.69255" lon="4.25598">
        <ele>429.9</ele>
        <time>2022-06-10T12:22:24Z</time>
      </trkpt>
      <trkpt lat="44.69253" lon="4.25608">
        <ele>429.7</ele>
        <time>2022-06-10T12:22:25Z</time>
      </trkpt>
      <trkpt lat="44.69252" lon="4.25613">
        <ele>429.5</ele>
        <time>2022-06-10T12:22:26Z</time>
      </trkpt>
      <trkpt lat="44.69251" lon="4.25622">
        <ele>429.2</ele>
        <time>2022-06-10T12:22:28Z</time>
      </trkpt>
      <trkpt lat="44.6925" lon="4.25629">
        <ele>429</ele>
        <time>2022-06-10T12:22:29Z</time>
      </trkpt>
      <trkpt lat="44.69248" lon="4.25636">
        <ele>428.8</ele>
        <time>2022-06-10T12:22:30Z</time>
      </trkpt>
      <trkpt lat="44.69246" lon="4.25642">
        <ele>428.6</ele>
        <time>2022-06-10T12:22:31Z</time>
      </trkpt>
      <trkpt lat="44.69245" lon="4.2565">
        <ele>428.4</ele>
        <time>2022-06-10T12:22:32Z</time>
      </trkpt>
      <trkpt lat="44.69244" lon="4.25657">
        <ele>428.2</ele>
        <time>2022-06-10T12:22:33Z</time>
      </trkpt>
      <trkpt lat="44.69242" lon="4.25665">
        <ele>428</ele>
        <time>2022-06-10T12:22:34Z</time>
      </trkpt>
      <trkpt lat="44.6924" lon="4.25674">
        <ele>427.8</ele>
        <time>2022-06-10T12:22:35Z</time>
      </trkpt>
      <trkpt lat="44.69238" lon="4.25682">
        <ele>427.6</ele>
        <time>2022-06-10T12:22:36Z</time>
      </trkpt>
      <trkpt lat="44.69237" lon="4.25691">
        <ele>427.4</ele>
        <time>2022-06-10T12:22:37Z</time>
      </trkpt>
      <trkpt lat="44.69235" lon="4.257">
        <ele>427.2</ele>
        <time>2022-06-10T12:22:38Z</time>
      </trkpt>
      <trkpt lat="44.69233" lon="4.25709">
        <ele>427</ele>
        <time>2022-06-10T12:22:39Z</time>
      </trkpt>
      <trkpt lat="44.69231" lon="4.25718">
        <ele>426.8</ele>
        <time>2022-06-10T12:22:40Z</time>
      </trkpt>
      <trkpt lat="44.6923" lon="4.25728">
        <ele>426.6</ele>
        <time>2022-06-10T12:22:41Z</time>
      </trkpt>
      <trkpt lat="44.69228" lon="4.25738">
        <ele>426.3</ele>
        <time>2022-06-10T12:22:42Z</time>
      </trkpt>
      <trkpt lat="44.69226" lon="4.25747">
        <ele>426.1</ele>
        <time>2022-06-10T12:22:43Z</time>
      </trkpt>
      <trkpt lat="44.69224" lon="4.25757">
        <ele>425.9</ele>
        <time>2022-06-10T12:22:44Z</time>
      </trkpt>
      <trkpt lat="44.69222" lon="4.25767">
        <ele>425.6</ele>
        <time>2022-06-10T12:22:45Z</time>
      </trkpt>
      <trkpt lat="44.6922" lon="4.25777">
        <ele>425.4</ele>
        <time>2022-06-10T12:22:46Z</time>
      </trkpt>
      <trkpt lat="44.69218" lon="4.25787">
        <ele>425.1</ele>
        <time>2022-06-10T12:22:47Z</time>
      </trkpt>
      <trkpt lat="44.69216" lon="4.25797">
        <ele>424.7</ele>
        <time>2022-06-10T12:22:48Z</time>
      </trkpt>
      <trkpt lat="44.69214" lon="4.25808">
        <ele>424.4</ele>
        <time>2022-06-10T12:22:49Z</time>
      </trkpt>
      <trkpt lat="44.69212" lon="4.25819">
        <ele>424.1</ele>
        <time>2022-06-10T12:22:50Z</time>
      </trkpt>
      <trkpt lat="44.6921" lon="4.2583">
        <ele>423.8</ele>
        <time>2022-06-10T12:22:51Z</time>
      </trkpt>
      <trkpt lat="44.69208" lon="4.25841">
        <ele>423.5</ele>
        <time>2022-06-10T12:22:52Z</time>
      </trkpt>
      <trkpt lat="44.69206" lon="4.25852">
        <ele>423.2</ele>
        <time>2022-06-10T12:22:53Z</time>
      </trkpt>
      <trkpt lat="44.69204" lon="4.25864">
        <ele>422.9</ele>
        <time>2022-06-10T12:22:54Z</time>
      </trkpt>
      <trkpt lat="44.69201" lon="4.25876">
        <ele>422.5</ele>
        <time>2022-06-10T12:22:55Z</time>
      </trkpt>
      <trkpt lat="44.69198" lon="4.25888">
        <ele>422.2</ele>
        <time>2022-06-10T12:22:56Z</time>
      </trkpt>
      <trkpt lat="44.69195" lon="4.259">
        <ele>422</ele>
        <time>2022-06-10T12:22:57Z</time>
      </trkpt>
      <trkpt lat="44.69193" lon="4.25912">
        <ele>421.8</ele>
        <time>2022-06-10T12:22:58Z</time>
      </trkpt>
      <trkpt lat="44.69191" lon="4.25924">
        <ele>421.5</ele>
        <time>2022-06-10T12:22:59Z</time>
      </trkpt>
      <trkpt lat="44.69189" lon="4.25937">
        <ele>421.3</ele>
        <time>2022-06-10T12:23:00Z</time>
      </trkpt>
      <trkpt lat="44.69187" lon="4.2595">
        <ele>421.1</ele>
        <time>2022-06-10T12:23:01Z</time>
      </trkpt>
      <trkpt lat="44.69185" lon="4.25963">
        <ele>420.9</ele>
        <time>2022-06-10T12:23:02Z</time>
      </trkpt>
      <trkpt lat="44.69182" lon="4.25976">
        <ele>420.7</ele>
        <time>2022-06-10T12:23:03Z</time>
      </trkpt>
      <trkpt lat="44.6918" lon="4.25988">
        <ele>420.6</ele>
        <time>2022-06-10T12:23:04Z</time>
      </trkpt>
      <trkpt lat="44.69177" lon="4.26">
        <ele>420.5</ele>
        <time>2022-06-10T12:23:05Z</time>
      </trkpt>
      <trkpt lat="44.69175" lon="4.26012">
        <ele>420.5</ele>
        <time>2022-06-10T12:23:06Z</time>
      </trkpt>
      <trkpt lat="44.69172" lon="4.26024">
        <ele>420.4</ele>
        <time>2022-06-10T12:23:07Z</time>
      </trkpt>
      <trkpt lat="44.6917" lon="4.26035">
        <ele>420.4</ele>
        <time>2022-06-10T12:23:08Z</time>
      </trkpt>
      <trkpt lat="44.69168" lon="4.26046">
        <ele>420.4</ele>
        <time>2022-06-10T12:23:09Z</time>
      </trkpt>
      <trkpt lat="44.69166" lon="4.26057">
        <ele>420.3</ele>
        <time>2022-06-10T12:23:10Z</time>
      </trkpt>
      <trkpt lat="44.69163" lon="4.26068">
        <ele>420.3</ele>
        <time>2022-06-10T12:23:11Z</time>
      </trkpt>
      <trkpt lat="44.69161" lon="4.26078">
        <ele>420.2</ele>
        <time>2022-06-10T12:23:12Z</time>
      </trkpt>
      <trkpt lat="44.69159" lon="4.26088">
        <ele>420.2</ele>
        <time>2022-06-10T12:23:13Z</time>
      </trkpt>
      <trkpt lat="44.69157" lon="4.26098">
        <ele>420.1</ele>
        <time>2022-06-10T12:23:14Z</time>
      </trkpt>
      <trkpt lat="44.69155" lon="4.26108">
        <ele>420</ele>
        <time>2022-06-10T12:23:15Z</time>
      </trkpt>
      <trkpt lat="44.69153" lon="4.26118">
        <ele>419.9</ele>
        <time>2022-06-10T12:23:16Z</time>
      </trkpt>
      <trkpt lat="44.69152" lon="4.26128">
        <ele>419.9</ele>
        <time>2022-06-10T12:23:17Z</time>
      </trkpt>
      <trkpt lat="44.6915" lon="4.26138">
        <ele>419.8</ele>
        <time>2022-06-10T12:23:18Z</time>
      </trkpt>
      <trkpt lat="44.69148" lon="4.26147">
        <ele>419.7</ele>
        <time>2022-06-10T12:23:19Z</time>
      </trkpt>
      <trkpt lat="44.69146" lon="4.26157">
        <ele>419.6</ele>
        <time>2022-06-10T12:23:20Z</time>
      </trkpt>
      <trkpt lat="44.69144" lon="4.26166">
        <ele>419.5</ele>
        <time>2022-06-10T12:23:21Z</time>
      </trkpt>
      <trkpt lat="44.69142" lon="4.26176">
        <ele>419.4</ele>
        <time>2022-06-10T12:23:22Z</time>
      </trkpt>
      <trkpt lat="44.6914" lon="4.26186">
        <ele>419.3</ele>
        <time>2022-06-10T12:23:23Z</time>
      </trkpt>
      <trkpt lat="44.69138" lon="4.26196">
        <ele>419.2</ele>
        <time>2022-06-10T12:23:24Z</time>
      </trkpt>
      <trkpt lat="44.69137" lon="4.26205">
        <ele>419.1</ele>
        <time>2022-06-10T12:23:25Z</time>
      </trkpt>
      <trkpt lat="44.69135" lon="4.26215">
        <ele>419</ele>
        <time>2022-06-10T12:23:26Z</time>
      </trkpt>
      <trkpt lat="44.69133" lon="4.26225">
        <ele>418.8</ele>
        <time>2022-06-10T12:23:27Z</time>
      </trkpt>
      <trkpt lat="44.69131" lon="4.26234">
        <ele>418.7</ele>
        <time>2022-06-10T12:23:28Z</time>
      </trkpt>
      <trkpt lat="44.6913" lon="4.26243">
        <ele>418.5</ele>
        <time>2022-06-10T12:23:29Z</time>
      </trkpt>
      <trkpt lat="44.69128" lon="4.26253">
        <ele>418.4</ele>
        <time>2022-06-10T12:23:30Z</time>
      </trkpt>
      <trkpt lat="44.69126" lon="4.26262">
        <ele>418.3</ele>
        <time>2022-06-10T12:23:31Z</time>
      </trkpt>
      <trkpt lat="44.69124" lon="4.26272">
        <ele>418.1</ele>
        <time>2022-06-10T12:23:32Z</time>
      </trkpt>
      <trkpt lat="44.69123" lon="4.26281">
        <ele>418</ele>
        <time>2022-06-10T12:23:33Z</time>
      </trkpt>
      <trkpt lat="44.69121" lon="4.26291">
        <ele>417.8</ele>
        <time>2022-06-10T12:23:34Z</time>
      </trkpt>
      <trkpt lat="44.69118" lon="4.26301">
        <ele>417.7</ele>
        <time>2022-06-10T12:23:35Z</time>
      </trkpt>
      <trkpt lat="44.69117" lon="4.26311">
        <ele>417.6</ele>
        <time>2022-06-10T12:23:36Z</time>
      </trkpt>
      <trkpt lat="44.69115" lon="4.2632">
        <ele>417.4</ele>
        <time>2022-06-10T12:23:37Z</time>
      </trkpt>
      <trkpt lat="44.69113" lon="4.26331">
        <ele>417.3</ele>
        <time>2022-06-10T12:23:38Z</time>
      </trkpt>
      <trkpt lat="44.69111" lon="4.26341">
        <ele>417.2</ele>
        <time>2022-06-10T12:23:39Z</time>
      </trkpt>
      <trkpt lat="44.69109" lon="4.26351">
        <ele>417</ele>
        <time>2022-06-10T12:23:40Z</time>
      </trkpt>
      <trkpt lat="44.69107" lon="4.26361">
        <ele>416.8</ele>
        <time>2022-06-10T12:23:41Z</time>
      </trkpt>
      <trkpt lat="44.69105" lon="4.26371">
        <ele>416.7</ele>
        <time>2022-06-10T12:23:42Z</time>
      </trkpt>
      <trkpt lat="44.69103" lon="4.26381">
        <ele>416.5</ele>
        <time>2022-06-10T12:23:43Z</time>
      </trkpt>
      <trkpt lat="44.69101" lon="4.26391">
        <ele>416.2</ele>
        <time>2022-06-10T12:23:44Z</time>
      </trkpt>
      <trkpt lat="44.691" lon="4.264">
        <ele>416</ele>
        <time>2022-06-10T12:23:45Z</time>
      </trkpt>
      <trkpt lat="44.69098" lon="4.2641">
        <ele>415.7</ele>
        <time>2022-06-10T12:23:46Z</time>
      </trkpt>
      <trkpt lat="44.69097" lon="4.26421">
        <ele>415.3</ele>
        <time>2022-06-10T12:23:47Z</time>
      </trkpt>
      <trkpt lat="44.69097" lon="4.26432">
        <ele>415</ele>
        <time>2022-06-10T12:23:48Z</time>
      </trkpt>
      <trkpt lat="44.69097" lon="4.26443">
        <ele>414.6</ele>
        <time>2022-06-10T12:23:49Z</time>
      </trkpt>
      <trkpt lat="44.69097" lon="4.26455">
        <ele>414.1</ele>
        <time>2022-06-10T12:23:50Z</time>
      </trkpt>
      <trkpt lat="44.69098" lon="4.26466">
        <ele>413.7</ele>
        <time>2022-06-10T12:23:51Z</time>
      </trkpt>
      <trkpt lat="44.691" lon="4.26477">
        <ele>413.2</ele>
        <time>2022-06-10T12:23:52Z</time>
      </trkpt>
      <trkpt lat="44.69101" lon="4.26488">
        <ele>412.7</ele>
        <time>2022-06-10T12:23:53Z</time>
      </trkpt>
      <trkpt lat="44.69103" lon="4.265">
        <ele>412.3</ele>
        <time>2022-06-10T12:23:54Z</time>
      </trkpt>
      <trkpt lat="44.69104" lon="4.26511">
        <ele>411.8</ele>
        <time>2022-06-10T12:23:55Z</time>
      </trkpt>
      <trkpt lat="44.69106" lon="4.26523">
        <ele>411.3</ele>
        <time>2022-06-10T12:23:56Z</time>
      </trkpt>
      <trkpt lat="44.69107" lon="4.26535">
        <ele>410.8</ele>
        <time>2022-06-10T12:23:57Z</time>
      </trkpt>
      <trkpt lat="44.69108" lon="4.26547">
        <ele>410.3</ele>
        <time>2022-06-10T12:23:58Z</time>
      </trkpt>
      <trkpt lat="44.6911" lon="4.26559">
        <ele>409.8</ele>
        <time>2022-06-10T12:23:59Z</time>
      </trkpt>
      <trkpt lat="44.69111" lon="4.26571">
        <ele>409.3</ele>
        <time>2022-06-10T12:24:00Z</time>
      </trkpt>
      <trkpt lat="44.69113" lon="4.26584">
        <ele>408.8</ele>
        <time>2022-06-10T12:24:01Z</time>
      </trkpt>
      <trkpt lat="44.69115" lon="4.26598">
        <ele>408.3</ele>
        <time>2022-06-10T12:24:02Z</time>
      </trkpt>
      <trkpt lat="44.69116" lon="4.26611">
        <ele>407.8</ele>
        <time>2022-06-10T12:24:03Z</time>
      </trkpt>
      <trkpt lat="44.69117" lon="4.26624">
        <ele>407.2</ele>
        <time>2022-06-10T12:24:04Z</time>
      </trkpt>
      <trkpt lat="44.69117" lon="4.26638">
        <ele>406.6</ele>
        <time>2022-06-10T12:24:05Z</time>
      </trkpt>
      <trkpt lat="44.69116" lon="4.26652">
        <ele>405.9</ele>
        <time>2022-06-10T12:24:06Z</time>
      </trkpt>
      <trkpt lat="44.69113" lon="4.26665">
        <ele>405.3</ele>
        <time>2022-06-10T12:24:07Z</time>
      </trkpt>
      <trkpt lat="44.69109" lon="4.26678">
        <ele>404.8</ele>
        <time>2022-06-10T12:24:08Z</time>
      </trkpt>
      <trkpt lat="44.69104" lon="4.26691">
        <ele>404.3</ele>
        <time>2022-06-10T12:24:09Z</time>
      </trkpt>
      <trkpt lat="44.69098" lon="4.26702">
        <ele>403.8</ele>
        <time>2022-06-10T12:24:10Z</time>
      </trkpt>
      <trkpt lat="44.69092" lon="4.26713">
        <ele>403.3</ele>
        <time>2022-06-10T12:24:11Z</time>
      </trkpt>
      <trkpt lat="44.69086" lon="4.26725">
        <ele>402.8</ele>
        <time>2022-06-10T12:24:12Z</time>
      </trkpt>
      <trkpt lat="44.69079" lon="4.26736">
        <ele>402.3</ele>
        <time>2022-06-10T12:24:13Z</time>
      </trkpt>
      <trkpt lat="44.69073" lon="4.26747">
        <ele>401.8</ele>
        <time>2022-06-10T12:24:14Z</time>
      </trkpt>
      <trkpt lat="44.69066" lon="4.26759">
        <ele>401.3</ele>
        <time>2022-06-10T12:24:15Z</time>
      </trkpt>
      <trkpt lat="44.6906" lon="4.2677">
        <ele>401.1</ele>
        <time>2022-06-10T12:24:16Z</time>
      </trkpt>
      <trkpt lat="44.69053" lon="4.26782">
        <ele>400.7</ele>
        <time>2022-06-10T12:24:17Z</time>
      </trkpt>
      <trkpt lat="44.69047" lon="4.26794">
        <ele>400.1</ele>
        <time>2022-06-10T12:24:18Z</time>
      </trkpt>
      <trkpt lat="44.6904" lon="4.26807">
        <ele>399.4</ele>
        <time>2022-06-10T12:24:19Z</time>
      </trkpt>
      <trkpt lat="44.69033" lon="4.26819">
        <ele>398.8</ele>
        <time>2022-06-10T12:24:20Z</time>
      </trkpt>
      <trkpt lat="44.69027" lon="4.26831">
        <ele>398.2</ele>
        <time>2022-06-10T12:24:21Z</time>
      </trkpt>
      <trkpt lat="44.6902" lon="4.26843">
        <ele>397.5</ele>
        <time>2022-06-10T12:24:22Z</time>
      </trkpt>
      <trkpt lat="44.69014" lon="4.26856">
        <ele>396.8</ele>
        <time>2022-06-10T12:24:23Z</time>
      </trkpt>
      <trkpt lat="44.69007" lon="4.26868">
        <ele>396.1</ele>
        <time>2022-06-10T12:24:24Z</time>
      </trkpt>
      <trkpt lat="44.68999" lon="4.2688">
        <ele>395.3</ele>
        <time>2022-06-10T12:24:25Z</time>
      </trkpt>
      <trkpt lat="44.68992" lon="4.26893">
        <ele>394.6</ele>
        <time>2022-06-10T12:24:26Z</time>
      </trkpt>
      <trkpt lat="44.68985" lon="4.26906">
        <ele>393.8</ele>
        <time>2022-06-10T12:24:27Z</time>
      </trkpt>
      <trkpt lat="44.68978" lon="4.26919">
        <ele>393.1</ele>
        <time>2022-06-10T12:24:28Z</time>
      </trkpt>
      <trkpt lat="44.6897" lon="4.26932">
        <ele>392.3</ele>
        <time>2022-06-10T12:24:29Z</time>
      </trkpt>
      <trkpt lat="44.68963" lon="4.26945">
        <ele>391.6</ele>
        <time>2022-06-10T12:24:30Z</time>
      </trkpt>
      <trkpt lat="44.68955" lon="4.26959">
        <ele>390.8</ele>
        <time>2022-06-10T12:24:31Z</time>
      </trkpt>
      <trkpt lat="44.68947" lon="4.26972">
        <ele>390</ele>
        <time>2022-06-10T12:24:32Z</time>
      </trkpt>
      <trkpt lat="44.6894" lon="4.26986">
        <ele>389.3</ele>
        <time>2022-06-10T12:24:33Z</time>
      </trkpt>
      <trkpt lat="44.68932" lon="4.26999">
        <ele>388.5</ele>
        <time>2022-06-10T12:24:34Z</time>
      </trkpt>
      <trkpt lat="44.68925" lon="4.27013">
        <ele>387.8</ele>
        <time>2022-06-10T12:24:35Z</time>
      </trkpt>
      <trkpt lat="44.68917" lon="4.27026">
        <ele>387</ele>
        <time>2022-06-10T12:24:36Z</time>
      </trkpt>
      <trkpt lat="44.6891" lon="4.2704">
        <ele>386.2</ele>
        <time>2022-06-10T12:24:37Z</time>
      </trkpt>
      <trkpt lat="44.68902" lon="4.27053">
        <ele>385.4</ele>
        <time>2022-06-10T12:24:38Z</time>
      </trkpt>
      <trkpt lat="44.68894" lon="4.27066">
        <ele>384.6</ele>
        <time>2022-06-10T12:24:39Z</time>
      </trkpt>
      <trkpt lat="44.68887" lon="4.27081">
        <ele>383.8</ele>
        <time>2022-06-10T12:24:40Z</time>
      </trkpt>
      <trkpt lat="44.68881" lon="4.27096">
        <ele>383.1</ele>
        <time>2022-06-10T12:24:41Z</time>
      </trkpt>
      <trkpt lat="44.68875" lon="4.27112">
        <ele>382.5</ele>
        <time>2022-06-10T12:24:42Z</time>
      </trkpt>
      <trkpt lat="44.68869" lon="4.27128">
        <ele>381.8</ele>
        <time>2022-06-10T12:24:43Z</time>
      </trkpt>
      <trkpt lat="44.68864" lon="4.27144">
        <ele>381.1</ele>
        <time>2022-06-10T12:24:44Z</time>
      </trkpt>
      <trkpt lat="44.68861" lon="4.2716">
        <ele>380.4</ele>
        <time>2022-06-10T12:24:45Z</time>
      </trkpt>
      <trkpt lat="44.68857" lon="4.27177">
        <ele>379.6</ele>
        <time>2022-06-10T12:24:46Z</time>
      </trkpt>
      <trkpt lat="44.68853" lon="4.27194">
        <ele>378.9</ele>
        <time>2022-06-10T12:24:47Z</time>
      </trkpt>
      <trkpt lat="44.6885" lon="4.27211">
        <ele>378.2</ele>
        <time>2022-06-10T12:24:48Z</time>
      </trkpt>
      <trkpt lat="44.68846" lon="4.27228">
        <ele>377.5</ele>
        <time>2022-06-10T12:24:49Z</time>
      </trkpt>
      <trkpt lat="44.68843" lon="4.27245">
        <ele>376.9</ele>
        <time>2022-06-10T12:24:50Z</time>
      </trkpt>
      <trkpt lat="44.68839" lon="4.27261">
        <ele>376.3</ele>
        <time>2022-06-10T12:24:51Z</time>
      </trkpt>
      <trkpt lat="44.68836" lon="4.27278">
        <ele>375.8</ele>
        <time>2022-06-10T12:24:52Z</time>
      </trkpt>
      <trkpt lat="44.68832" lon="4.27295">
        <ele>375.3</ele>
        <time>2022-06-10T12:24:53Z</time>
      </trkpt>
      <trkpt lat="44.68829" lon="4.2731">
        <ele>374.9</ele>
        <time>2022-06-10T12:24:54Z</time>
      </trkpt>
      <trkpt lat="44.68825" lon="4.27327">
        <ele>374.6</ele>
        <time>2022-06-10T12:24:55Z</time>
      </trkpt>
      <trkpt lat="44.68821" lon="4.27342">
        <ele>374.2</ele>
        <time>2022-06-10T12:24:56Z</time>
      </trkpt>
      <trkpt lat="44.68817" lon="4.27358">
        <ele>373.9</ele>
        <time>2022-06-10T12:24:57Z</time>
      </trkpt>
      <trkpt lat="44.68813" lon="4.27373">
        <ele>373.6</ele>
        <time>2022-06-10T12:24:58Z</time>
      </trkpt>
      <trkpt lat="44.68808" lon="4.27388">
        <ele>373.4</ele>
        <time>2022-06-10T12:24:59Z</time>
      </trkpt>
      <trkpt lat="44.68803" lon="4.27402">
        <ele>373.1</ele>
        <time>2022-06-10T12:25:00Z</time>
      </trkpt>
      <trkpt lat="44.68797" lon="4.27415">
        <ele>372.9</ele>
        <time>2022-06-10T12:25:01Z</time>
      </trkpt>
      <trkpt lat="44.68792" lon="4.27429">
        <ele>372.6</ele>
        <time>2022-06-10T12:25:02Z</time>
      </trkpt>
      <trkpt lat="44.68787" lon="4.27442">
        <ele>372.4</ele>
        <time>2022-06-10T12:25:03Z</time>
      </trkpt>
      <trkpt lat="44.68781" lon="4.27455">
        <ele>372.1</ele>
        <time>2022-06-10T12:25:04Z</time>
      </trkpt>
      <trkpt lat="44.68776" lon="4.27468">
        <ele>371.9</ele>
        <time>2022-06-10T12:25:05Z</time>
      </trkpt>
      <trkpt lat="44.68771" lon="4.27481">
        <ele>371.7</ele>
        <time>2022-06-10T12:25:06Z</time>
      </trkpt>
      <trkpt lat="44.68765" lon="4.27494">
        <ele>371.5</ele>
        <time>2022-06-10T12:25:07Z</time>
      </trkpt>
      <trkpt lat="44.6876" lon="4.27506">
        <ele>371.3</ele>
        <time>2022-06-10T12:25:08Z</time>
      </trkpt>
      <trkpt lat="44.68755" lon="4.27519">
        <ele>371.1</ele>
        <time>2022-06-10T12:25:09Z</time>
      </trkpt>
      <trkpt lat="44.68749" lon="4.27531">
        <ele>370.9</ele>
        <time>2022-06-10T12:25:10Z</time>
      </trkpt>
      <trkpt lat="44.68744" lon="4.27544">
        <ele>370.6</ele>
        <time>2022-06-10T12:25:11Z</time>
      </trkpt>
      <trkpt lat="44.68738" lon="4.27556">
        <ele>370.2</ele>
        <time>2022-06-10T12:25:12Z</time>
      </trkpt>
      <trkpt lat="44.68733" lon="4.27568">
        <ele>369.9</ele>
        <time>2022-06-10T12:25:13Z</time>
      </trkpt>
      <trkpt lat="44.68728" lon="4.27581">
        <ele>369.6</ele>
        <time>2022-06-10T12:25:14Z</time>
      </trkpt>
      <trkpt lat="44.68723" lon="4.27594">
        <ele>369.3</ele>
        <time>2022-06-10T12:25:15Z</time>
      </trkpt>
      <trkpt lat="44.68719" lon="4.27607">
        <ele>369</ele>
        <time>2022-06-10T12:25:16Z</time>
      </trkpt>
      <trkpt lat="44.68715" lon="4.27621">
        <ele>368.7</ele>
        <time>2022-06-10T12:25:17Z</time>
      </trkpt>
      <trkpt lat="44.68712" lon="4.27634">
        <ele>368.4</ele>
        <time>2022-06-10T12:25:18Z</time>
      </trkpt>
      <trkpt lat="44.6871" lon="4.27647">
        <ele>368.2</ele>
        <time>2022-06-10T12:25:19Z</time>
      </trkpt>
      <trkpt lat="44.68708" lon="4.27661">
        <ele>367.9</ele>
        <time>2022-06-10T12:25:20Z</time>
      </trkpt>
      <trkpt lat="44.68707" lon="4.27674">
        <ele>367.6</ele>
        <time>2022-06-10T12:25:21Z</time>
      </trkpt>
      <trkpt lat="44.68706" lon="4.27688">
        <ele>367.4</ele>
        <time>2022-06-10T12:25:22Z</time>
      </trkpt>
      <trkpt lat="44.68705" lon="4.27701">
        <ele>367.1</ele>
        <time>2022-06-10T12:25:23Z</time>
      </trkpt>
      <trkpt lat="44.68705" lon="4.27715">
        <ele>366.9</ele>
        <time>2022-06-10T12:25:24Z</time>
      </trkpt>
      <trkpt lat="44.68705" lon="4.27728">
        <ele>366.6</ele>
        <time>2022-06-10T12:25:25Z</time>
      </trkpt>
      <trkpt lat="44.68705" lon="4.27741">
        <ele>366.4</ele>
        <time>2022-06-10T12:25:26Z</time>
      </trkpt>
      <trkpt lat="44.68704" lon="4.27754">
        <ele>366.1</ele>
        <time>2022-06-10T12:25:27Z</time>
      </trkpt>
      <trkpt lat="44.68703" lon="4.27768">
        <ele>365.9</ele>
        <time>2022-06-10T12:25:28Z</time>
      </trkpt>
      <trkpt lat="44.68703" lon="4.27781">
        <ele>365.6</ele>
        <time>2022-06-10T12:25:29Z</time>
      </trkpt>
      <trkpt lat="44.68702" lon="4.27793">
        <ele>365.3</ele>
        <time>2022-06-10T12:25:30Z</time>
      </trkpt>
      <trkpt lat="44.68701" lon="4.27806">
        <ele>365</ele>
        <time>2022-06-10T12:25:31Z</time>
      </trkpt>
      <trkpt lat="44.68701" lon="4.27819">
        <ele>364.7</ele>
        <time>2022-06-10T12:25:32Z</time>
      </trkpt>
      <trkpt lat="44.68701" lon="4.27831">
        <ele>364.4</ele>
        <time>2022-06-10T12:25:33Z</time>
      </trkpt>
      <trkpt lat="44.68703" lon="4.27843">
        <ele>364.1</ele>
        <time>2022-06-10T12:25:34Z</time>
      </trkpt>
      <trkpt lat="44.68706" lon="4.27855">
        <ele>363.7</ele>
        <time>2022-06-10T12:25:35Z</time>
      </trkpt>
      <trkpt lat="44.68711" lon="4.27867">
        <ele>363.4</ele>
        <time>2022-06-10T12:25:36Z</time>
      </trkpt>
      <trkpt lat="44.68717" lon="4.27878">
        <ele>362.9</ele>
        <time>2022-06-10T12:25:37Z</time>
      </trkpt>
      <trkpt lat="44.68723" lon="4.27889">
        <ele>362.5</ele>
        <time>2022-06-10T12:25:38Z</time>
      </trkpt>
      <trkpt lat="44.68728" lon="4.279">
        <ele>362</ele>
        <time>2022-06-10T12:25:39Z</time>
      </trkpt>
      <trkpt lat="44.68735" lon="4.27912">
        <ele>361.6</ele>
        <time>2022-06-10T12:25:40Z</time>
      </trkpt>
      <trkpt lat="44.68741" lon="4.27924">
        <ele>361.1</ele>
        <time>2022-06-10T12:25:41Z</time>
      </trkpt>
      <trkpt lat="44.68747" lon="4.27936">
        <ele>360.7</ele>
        <time>2022-06-10T12:25:42Z</time>
      </trkpt>
      <trkpt lat="44.68752" lon="4.27948">
        <ele>360.2</ele>
        <time>2022-06-10T12:25:43Z</time>
      </trkpt>
      <trkpt lat="44.68756" lon="4.27962">
        <ele>359.7</ele>
        <time>2022-06-10T12:25:44Z</time>
      </trkpt>
      <trkpt lat="44.6876" lon="4.27976">
        <ele>359.3</ele>
        <time>2022-06-10T12:25:45Z</time>
      </trkpt>
      <trkpt lat="44.68763" lon="4.2799">
        <ele>358.8</ele>
        <time>2022-06-10T12:25:46Z</time>
      </trkpt>
      <trkpt lat="44.68767" lon="4.28004">
        <ele>358.3</ele>
        <time>2022-06-10T12:25:47Z</time>
      </trkpt>
      <trkpt lat="44.68769" lon="4.28019">
        <ele>357.8</ele>
        <time>2022-06-10T12:25:48Z</time>
      </trkpt>
      <trkpt lat="44.68771" lon="4.28034">
        <ele>357.3</ele>
        <time>2022-06-10T12:25:49Z</time>
      </trkpt>
      <trkpt lat="44.68772" lon="4.28049">
        <ele>356.8</ele>
        <time>2022-06-10T12:25:50Z</time>
      </trkpt>
      <trkpt lat="44.68772" lon="4.28064">
        <ele>356.4</ele>
        <time>2022-06-10T12:25:51Z</time>
      </trkpt>
      <trkpt lat="44.68771" lon="4.28079">
        <ele>355.9</ele>
        <time>2022-06-10T12:25:52Z</time>
      </trkpt>
      <trkpt lat="44.6877" lon="4.28094">
        <ele>355.4</ele>
        <time>2022-06-10T12:25:53Z</time>
      </trkpt>
      <trkpt lat="44.68768" lon="4.28109">
        <ele>355</ele>
        <time>2022-06-10T12:25:54Z</time>
      </trkpt>
      <trkpt lat="44.68766" lon="4.28124">
        <ele>354.5</ele>
        <time>2022-06-10T12:25:55Z</time>
      </trkpt>
      <trkpt lat="44.68765" lon="4.2814">
        <ele>354.1</ele>
        <time>2022-06-10T12:25:56Z</time>
      </trkpt>
      <trkpt lat="44.68763" lon="4.28156">
        <ele>353.7</ele>
        <time>2022-06-10T12:25:57Z</time>
      </trkpt>
      <trkpt lat="44.68761" lon="4.28171">
        <ele>353.3</ele>
        <time>2022-06-10T12:25:58Z</time>
      </trkpt>
      <trkpt lat="44.68759" lon="4.28186">
        <ele>352.9</ele>
        <time>2022-06-10T12:25:59Z</time>
      </trkpt>
      <trkpt lat="44.68758" lon="4.28201">
        <ele>352.6</ele>
        <time>2022-06-10T12:26:00Z</time>
      </trkpt>
      <trkpt lat="44.68756" lon="4.28216">
        <ele>352.2</ele>
        <time>2022-06-10T12:26:01Z</time>
      </trkpt>
      <trkpt lat="44.68753" lon="4.28231">
        <ele>351.8</ele>
        <time>2022-06-10T12:26:02Z</time>
      </trkpt>
      <trkpt lat="44.68748" lon="4.28246">
        <ele>351.5</ele>
        <time>2022-06-10T12:26:03Z</time>
      </trkpt>
      <trkpt lat="44.68744" lon="4.28259">
        <ele>351.3</ele>
        <time>2022-06-10T12:26:04Z</time>
      </trkpt>
      <trkpt lat="44.68738" lon="4.28272">
        <ele>351.1</ele>
        <time>2022-06-10T12:26:05Z</time>
      </trkpt>
      <trkpt lat="44.68732" lon="4.28284">
        <ele>350.9</ele>
        <time>2022-06-10T12:26:06Z</time>
      </trkpt>
      <trkpt lat="44.68725" lon="4.28295">
        <ele>350.8</ele>
        <time>2022-06-10T12:26:07Z</time>
      </trkpt>
      <trkpt lat="44.68719" lon="4.28306">
        <ele>350.7</ele>
        <time>2022-06-10T12:26:08Z</time>
      </trkpt>
      <trkpt lat="44.68712" lon="4.28315">
        <ele>350.7</ele>
        <time>2022-06-10T12:26:09Z</time>
      </trkpt>
      <trkpt lat="44.68704" lon="4.28323">
        <ele>350.4</ele>
        <time>2022-06-10T12:26:10Z</time>
      </trkpt>
      <trkpt lat="44.68695" lon="4.28328">
        <ele>350.1</ele>
        <time>2022-06-10T12:26:11Z</time>
      </trkpt>
      <trkpt lat="44.68685" lon="4.28331">
        <ele>349.8</ele>
        <time>2022-06-10T12:26:12Z</time>
      </trkpt>
      <trkpt lat="44.68675" lon="4.28332">
        <ele>349.5</ele>
        <time>2022-06-10T12:26:13Z</time>
      </trkpt>
      <trkpt lat="44.68666" lon="4.28331">
        <ele>349.3</ele>
        <time>2022-06-10T12:26:14Z</time>
      </trkpt>
      <trkpt lat="44.68657" lon="4.28328">
        <ele>349.1</ele>
        <time>2022-06-10T12:26:15Z</time>
      </trkpt>
      <trkpt lat="44.68649" lon="4.28325">
        <ele>348.9</ele>
        <time>2022-06-10T12:26:16Z</time>
      </trkpt>
      <trkpt lat="44.6864" lon="4.28322">
        <ele>348.7</ele>
        <time>2022-06-10T12:26:17Z</time>
      </trkpt>
      <trkpt lat="44.68632" lon="4.2832">
        <ele>348.5</ele>
        <time>2022-06-10T12:26:18Z</time>
      </trkpt>
      <trkpt lat="44.68623" lon="4.28317">
        <ele>348.2</ele>
        <time>2022-06-10T12:26:19Z</time>
      </trkpt>
      <trkpt lat="44.68614" lon="4.28315">
        <ele>348.1</ele>
        <time>2022-06-10T12:26:20Z</time>
      </trkpt>
      <trkpt lat="44.68606" lon="4.28313">
        <ele>347.9</ele>
        <time>2022-06-10T12:26:21Z</time>
      </trkpt>
      <trkpt lat="44.68598" lon="4.28311">
        <ele>347.7</ele>
        <time>2022-06-10T12:26:22Z</time>
      </trkpt>
      <trkpt lat="44.6859" lon="4.2831">
        <ele>347.5</ele>
        <time>2022-06-10T12:26:23Z</time>
      </trkpt>
      <trkpt lat="44.68582" lon="4.28307">
        <ele>347.3</ele>
        <time>2022-06-10T12:26:24Z</time>
      </trkpt>
      <trkpt lat="44.68573" lon="4.28305">
        <ele>347.1</ele>
        <time>2022-06-10T12:26:25Z</time>
      </trkpt>
      <trkpt lat="44.68565" lon="4.28302">
        <ele>346.9</ele>
        <time>2022-06-10T12:26:26Z</time>
      </trkpt>
      <trkpt lat="44.68557" lon="4.283">
        <ele>346.7</ele>
        <time>2022-06-10T12:26:27Z</time>
      </trkpt>
      <trkpt lat="44.68548" lon="4.28298">
        <ele>346.5</ele>
        <time>2022-06-10T12:26:28Z</time>
      </trkpt>
      <trkpt lat="44.6854" lon="4.28296">
        <ele>346.3</ele>
        <time>2022-06-10T12:26:29Z</time>
      </trkpt>
      <trkpt lat="44.68532" lon="4.28293">
        <ele>346.2</ele>
        <time>2022-06-10T12:26:30Z</time>
      </trkpt>
      <trkpt lat="44.68524" lon="4.28289">
        <ele>346</ele>
        <time>2022-06-10T12:26:31Z</time>
      </trkpt>
      <trkpt lat="44.68516" lon="4.28285">
        <ele>345.8</ele>
        <time>2022-06-10T12:26:32Z</time>
      </trkpt>
      <trkpt lat="44.68508" lon="4.28281">
        <ele>345.6</ele>
        <time>2022-06-10T12:26:33Z</time>
      </trkpt>
      <trkpt lat="44.68502" lon="4.28275">
        <ele>345.4</ele>
        <time>2022-06-10T12:26:34Z</time>
      </trkpt>
      <trkpt lat="44.68495" lon="4.2827">
        <ele>345.3</ele>
        <time>2022-06-10T12:26:35Z</time>
      </trkpt>
      <trkpt lat="44.68489" lon="4.28264">
        <ele>345.1</ele>
        <time>2022-06-10T12:26:36Z</time>
      </trkpt>
      <trkpt lat="44.68482" lon="4.28259">
        <ele>345</ele>
        <time>2022-06-10T12:26:37Z</time>
      </trkpt>
      <trkpt lat="44.68477" lon="4.28255">
        <ele>344.8</ele>
        <time>2022-06-10T12:26:38Z</time>
      </trkpt>
      <trkpt lat="44.68471" lon="4.28251">
        <ele>344.7</ele>
        <time>2022-06-10T12:26:39Z</time>
      </trkpt>
      <trkpt lat="44.68465" lon="4.28247">
        <ele>344.5</ele>
        <time>2022-06-10T12:26:40Z</time>
      </trkpt>
      <trkpt lat="44.68458" lon="4.28244">
        <ele>344.3</ele>
        <time>2022-06-10T12:26:41Z</time>
      </trkpt>
      <trkpt lat="44.68452" lon="4.2824">
        <ele>344.1</ele>
        <time>2022-06-10T12:26:42Z</time>
      </trkpt>
      <trkpt lat="44.68445" lon="4.28237">
        <ele>343.9</ele>
        <time>2022-06-10T12:26:43Z</time>
      </trkpt>
      <trkpt lat="44.68438" lon="4.28234">
        <ele>343.6</ele>
        <time>2022-06-10T12:26:44Z</time>
      </trkpt>
      <trkpt lat="44.68431" lon="4.28231">
        <ele>343.4</ele>
        <time>2022-06-10T12:26:45Z</time>
      </trkpt>
      <trkpt lat="44.68424" lon="4.28229">
        <ele>343.2</ele>
        <time>2022-06-10T12:26:46Z</time>
      </trkpt>
      <trkpt lat="44.68417" lon="4.28226">
        <ele>342.9</ele>
        <time>2022-06-10T12:26:47Z</time>
      </trkpt>
      <trkpt lat="44.6841" lon="4.28224">
        <ele>342.7</ele>
        <time>2022-06-10T12:26:48Z</time>
      </trkpt>
      <trkpt lat="44.68402" lon="4.28221">
        <ele>342.5</ele>
        <time>2022-06-10T12:26:49Z</time>
      </trkpt>
      <trkpt lat="44.68395" lon="4.28219">
        <ele>342.3</ele>
        <time>2022-06-10T12:26:50Z</time>
      </trkpt>
      <trkpt lat="44.68387" lon="4.28217">
        <ele>342.2</ele>
        <time>2022-06-10T12:26:51Z</time>
      </trkpt>
      <trkpt lat="44.6838" lon="4.28214">
        <ele>342</ele>
        <time>2022-06-10T12:26:52Z</time>
      </trkpt>
      <trkpt lat="44.68372" lon="4.28211">
        <ele>341.9</ele>
        <time>2022-06-10T12:26:53Z</time>
      </trkpt>
      <trkpt lat="44.68365" lon="4.28209">
        <ele>341.7</ele>
        <time>2022-06-10T12:26:54Z</time>
      </trkpt>
      <trkpt lat="44.68358" lon="4.28206">
        <ele>341.5</ele>
        <time>2022-06-10T12:26:55Z</time>
      </trkpt>
      <trkpt lat="44.68351" lon="4.28203">
        <ele>341.3</ele>
        <time>2022-06-10T12:26:56Z</time>
      </trkpt>
      <trkpt lat="44.68344" lon="4.282">
        <ele>341.1</ele>
        <time>2022-06-10T12:26:57Z</time>
      </trkpt>
      <trkpt lat="44.68337" lon="4.28198">
        <ele>340.9</ele>
        <time>2022-06-10T12:26:58Z</time>
      </trkpt>
      <trkpt lat="44.6833" lon="4.28195">
        <ele>340.8</ele>
        <time>2022-06-10T12:26:59Z</time>
      </trkpt>
      <trkpt lat="44.68323" lon="4.28192">
        <ele>340.6</ele>
        <time>2022-06-10T12:27:00Z</time>
      </trkpt>
      <trkpt lat="44.68316" lon="4.28189">
        <ele>340.4</ele>
        <time>2022-06-10T12:27:01Z</time>
      </trkpt>
      <trkpt lat="44.68309" lon="4.28186">
        <ele>340.2</ele>
        <time>2022-06-10T12:27:02Z</time>
      </trkpt>
      <trkpt lat="44.68302" lon="4.28183">
        <ele>340</ele>
        <time>2022-06-10T12:27:03Z</time>
      </trkpt>
      <trkpt lat="44.68295" lon="4.28181">
        <ele>339.8</ele>
        <time>2022-06-10T12:27:04Z</time>
      </trkpt>
      <trkpt lat="44.68288" lon="4.28178">
        <ele>339.6</ele>
        <time>2022-06-10T12:27:05Z</time>
      </trkpt>
      <trkpt lat="44.68281" lon="4.28175">
        <ele>339.4</ele>
        <time>2022-06-10T12:27:06Z</time>
      </trkpt>
      <trkpt lat="44.68273" lon="4.28173">
        <ele>339.2</ele>
        <time>2022-06-10T12:27:07Z</time>
      </trkpt>
      <trkpt lat="44.68266" lon="4.28172">
        <ele>339</ele>
        <time>2022-06-10T12:27:08Z</time>
      </trkpt>
      <trkpt lat="44.68259" lon="4.28172">
        <ele>338.9</ele>
        <time>2022-06-10T12:27:09Z</time>
      </trkpt>
      <trkpt lat="44.68252" lon="4.28173">
        <ele>338.8</ele>
        <time>2022-06-10T12:27:10Z</time>
      </trkpt>
      <trkpt lat="44.68245" lon="4.28176">
        <ele>338.6</ele>
        <time>2022-06-10T12:27:11Z</time>
      </trkpt>
      <trkpt lat="44.68238" lon="4.28181">
        <ele>338.5</ele>
        <time>2022-06-10T12:27:12Z</time>
      </trkpt>
      <trkpt lat="44.68232" lon="4.28187">
        <ele>338.4</ele>
        <time>2022-06-10T12:27:13Z</time>
      </trkpt>
      <trkpt lat="44.68227" lon="4.28193">
        <ele>338.3</ele>
        <time>2022-06-10T12:27:14Z</time>
      </trkpt>
      <trkpt lat="44.68222" lon="4.28201">
        <ele>338.2</ele>
        <time>2022-06-10T12:27:15Z</time>
      </trkpt>
      <trkpt lat="44.68217" lon="4.28209">
        <ele>338.1</ele>
        <time>2022-06-10T12:27:16Z</time>
      </trkpt>
      <trkpt lat="44.68214" lon="4.28218">
        <ele>338</ele>
        <time>2022-06-10T12:27:17Z</time>
      </trkpt>
      <trkpt lat="44.68211" lon="4.28228">
        <ele>337.9</ele>
        <time>2022-06-10T12:27:18Z</time>
      </trkpt>
      <trkpt lat="44.68209" lon="4.28237">
        <ele>337.8</ele>
        <time>2022-06-10T12:27:19Z</time>
      </trkpt>
      <trkpt lat="44.68207" lon="4.28247">
        <ele>337.7</ele>
        <time>2022-06-10T12:27:20Z</time>
      </trkpt>
      <trkpt lat="44.68204" lon="4.28257">
        <ele>337.7</ele>
        <time>2022-06-10T12:27:21Z</time>
      </trkpt>
      <trkpt lat="44.68201" lon="4.28267">
        <ele>337.6</ele>
        <time>2022-06-10T12:27:22Z</time>
      </trkpt>
      <trkpt lat="44.68199" lon="4.28277">
        <ele>337.5</ele>
        <time>2022-06-10T12:27:23Z</time>
      </trkpt>
      <trkpt lat="44.68196" lon="4.28287">
        <ele>337.5</ele>
        <time>2022-06-10T12:27:24Z</time>
      </trkpt>
      <trkpt lat="44.68192" lon="4.28296">
        <ele>337.5</ele>
        <time>2022-06-10T12:27:25Z</time>
      </trkpt>
      <trkpt lat="44.68188" lon="4.28305">
        <ele>337.4</ele>
        <time>2022-06-10T12:27:26Z</time>
      </trkpt>
      <trkpt lat="44.68181" lon="4.28312">
        <ele>337.4</ele>
        <time>2022-06-10T12:27:27Z</time>
      </trkpt>
      <trkpt lat="44.68174" lon="4.28317">
        <ele>337.3</ele>
        <time>2022-06-10T12:27:28Z</time>
      </trkpt>
      <trkpt lat="44.68167" lon="4.28321">
        <ele>337.3</ele>
        <time>2022-06-10T12:27:29Z</time>
      </trkpt>
      <trkpt lat="44.68159" lon="4.28322">
        <ele>337.3</ele>
        <time>2022-06-10T12:27:30Z</time>
      </trkpt>
      <trkpt lat="44.68152" lon="4.28324">
        <ele>337.3</ele>
        <time>2022-06-10T12:27:31Z</time>
      </trkpt>
      <trkpt lat="44.68144" lon="4.28325">
        <ele>337.3</ele>
        <time>2022-06-10T12:27:32Z</time>
      </trkpt>
      <trkpt lat="44.68136" lon="4.28326">
        <ele>337.2</ele>
        <time>2022-06-10T12:27:33Z</time>
      </trkpt>
      <trkpt lat="44.68129" lon="4.28327">
        <ele>337.2</ele>
        <time>2022-06-10T12:27:34Z</time>
      </trkpt>
      <trkpt lat="44.68122" lon="4.28328">
        <ele>337.2</ele>
        <time>2022-06-10T12:27:35Z</time>
      </trkpt>
      <trkpt lat="44.68115" lon="4.28329">
        <ele>337.1</ele>
        <time>2022-06-10T12:27:36Z</time>
      </trkpt>
      <trkpt lat="44.68108" lon="4.2833">
        <ele>337.1</ele>
        <time>2022-06-10T12:27:37Z</time>
      </trkpt>
      <trkpt lat="44.68101" lon="4.28331">
        <ele>337.1</ele>
        <time>2022-06-10T12:27:38Z</time>
      </trkpt>
      <trkpt lat="44.68093" lon="4.28331">
        <ele>337</ele>
        <time>2022-06-10T12:27:39Z</time>
      </trkpt>
      <trkpt lat="44.68087" lon="4.28333">
        <ele>337</ele>
        <time>2022-06-10T12:27:40Z</time>
      </trkpt>
      <trkpt lat="44.6808" lon="4.28333">
        <ele>337</ele>
        <time>2022-06-10T12:27:41Z</time>
      </trkpt>
      <trkpt lat="44.68073" lon="4.28334">
        <ele>336.9</ele>
        <time>2022-06-10T12:27:42Z</time>
      </trkpt>
      <trkpt lat="44.68066" lon="4.28336">
        <ele>336.9</ele>
        <time>2022-06-10T12:27:43Z</time>
      </trkpt>
      <trkpt lat="44.68059" lon="4.28337">
        <ele>336.8</ele>
        <time>2022-06-10T12:27:44Z</time>
      </trkpt>
      <trkpt lat="44.68052" lon="4.28338">
        <ele>336.7</ele>
        <time>2022-06-10T12:27:45Z</time>
      </trkpt>
      <trkpt lat="44.68045" lon="4.28339">
        <ele>336.6</ele>
        <time>2022-06-10T12:27:46Z</time>
      </trkpt>
      <trkpt lat="44.68038" lon="4.2834">
        <ele>336.4</ele>
        <time>2022-06-10T12:27:47Z</time>
      </trkpt>
      <trkpt lat="44.68031" lon="4.28341">
        <ele>336.3</ele>
        <time>2022-06-10T12:27:48Z</time>
      </trkpt>
      <trkpt lat="44.68025" lon="4.28341">
        <ele>336.2</ele>
        <time>2022-06-10T12:27:49Z</time>
      </trkpt>
      <trkpt lat="44.68018" lon="4.28343">
        <ele>336</ele>
        <time>2022-06-10T12:27:50Z</time>
      </trkpt>
      <trkpt lat="44.68011" lon="4.28344">
        <ele>335.9</ele>
        <time>2022-06-10T12:27:51Z</time>
      </trkpt>
      <trkpt lat="44.68003" lon="4.28345">
        <ele>335.8</ele>
        <time>2022-06-10T12:27:52Z</time>
      </trkpt>
      <trkpt lat="44.67996" lon="4.28346">
        <ele>335.6</ele>
        <time>2022-06-10T12:27:53Z</time>
      </trkpt>
      <trkpt lat="44.67988" lon="4.28348">
        <ele>335.5</ele>
        <time>2022-06-10T12:27:54Z</time>
      </trkpt>
      <trkpt lat="44.67981" lon="4.28349">
        <ele>335.3</ele>
        <time>2022-06-10T12:27:55Z</time>
      </trkpt>
      <trkpt lat="44.67973" lon="4.28351">
        <ele>335.2</ele>
        <time>2022-06-10T12:27:56Z</time>
      </trkpt>
      <trkpt lat="44.67965" lon="4.28352">
        <ele>335</ele>
        <time>2022-06-10T12:27:57Z</time>
      </trkpt>
      <trkpt lat="44.67956" lon="4.28353">
        <ele>334.9</ele>
        <time>2022-06-10T12:27:58Z</time>
      </trkpt>
      <trkpt lat="44.67948" lon="4.28354">
        <ele>334.8</ele>
        <time>2022-06-10T12:27:59Z</time>
      </trkpt>
      <trkpt lat="44.6794" lon="4.28354">
        <ele>334.6</ele>
        <time>2022-06-10T12:28:00Z</time>
      </trkpt>
      <trkpt lat="44.67932" lon="4.28355">
        <ele>334.5</ele>
        <time>2022-06-10T12:28:01Z</time>
      </trkpt>
      <trkpt lat="44.67924" lon="4.28356">
        <ele>334.3</ele>
        <time>2022-06-10T12:28:02Z</time>
      </trkpt>
      <trkpt lat="44.67916" lon="4.28357">
        <ele>334.1</ele>
        <time>2022-06-10T12:28:03Z</time>
      </trkpt>
      <trkpt lat="44.67908" lon="4.28359">
        <ele>334</ele>
        <time>2022-06-10T12:28:04Z</time>
      </trkpt>
      <trkpt lat="44.679" lon="4.2836">
        <ele>333.8</ele>
        <time>2022-06-10T12:28:05Z</time>
      </trkpt>
      <trkpt lat="44.67892" lon="4.28361">
        <ele>333.6</ele>
        <time>2022-06-10T12:28:06Z</time>
      </trkpt>
      <trkpt lat="44.67883" lon="4.28362">
        <ele>333.5</ele>
        <time>2022-06-10T12:28:07Z</time>
      </trkpt>
      <trkpt lat="44.67875" lon="4.28363">
        <ele>333.3</ele>
        <time>2022-06-10T12:28:08Z</time>
      </trkpt>
      <trkpt lat="44.67867" lon="4.28365">
        <ele>333.2</ele>
        <time>2022-06-10T12:28:09Z</time>
      </trkpt>
      <trkpt lat="44.67859" lon="4.28366">
        <ele>333</ele>
        <time>2022-06-10T12:28:10Z</time>
      </trkpt>
      <trkpt lat="44.67851" lon="4.28367">
        <ele>332.9</ele>
        <time>2022-06-10T12:28:11Z</time>
      </trkpt>
      <trkpt lat="44.67843" lon="4.28368">
        <ele>332.8</ele>
        <time>2022-06-10T12:28:12Z</time>
      </trkpt>
      <trkpt lat="44.67835" lon="4.2837">
        <ele>332.6</ele>
        <time>2022-06-10T12:28:13Z</time>
      </trkpt>
      <trkpt lat="44.67827" lon="4.28371">
        <ele>332.5</ele>
        <time>2022-06-10T12:28:14Z</time>
      </trkpt>
      <trkpt lat="44.67819" lon="4.28372">
        <ele>332.3</ele>
        <time>2022-06-10T12:28:15Z</time>
      </trkpt>
      <trkpt lat="44.67811" lon="4.28374">
        <ele>332.2</ele>
        <time>2022-06-10T12:28:16Z</time>
      </trkpt>
      <trkpt lat="44.67803" lon="4.28375">
        <ele>332</ele>
        <time>2022-06-10T12:28:17Z</time>
      </trkpt>
      <trkpt lat="44.67795" lon="4.28377">
        <ele>332</ele>
        <time>2022-06-10T12:28:18Z</time>
      </trkpt>
      <trkpt lat="44.67787" lon="4.28378">
        <ele>331.9</ele>
        <time>2022-06-10T12:28:19Z</time>
      </trkpt>
      <trkpt lat="44.67779" lon="4.2838">
        <ele>331.7</ele>
        <time>2022-06-10T12:28:20Z</time>
      </trkpt>
      <trkpt lat="44.67772" lon="4.28383">
        <ele>331.6</ele>
        <time>2022-06-10T12:28:21Z</time>
      </trkpt>
      <trkpt lat="44.67764" lon="4.28385">
        <ele>331.4</ele>
        <time>2022-06-10T12:28:22Z</time>
      </trkpt>
      <trkpt lat="44.67756" lon="4.28387">
        <ele>331.2</ele>
        <time>2022-06-10T12:28:23Z</time>
      </trkpt>
      <trkpt lat="44.67749" lon="4.28389">
        <ele>331.1</ele>
        <time>2022-06-10T12:28:24Z</time>
      </trkpt>
      <trkpt lat="44.67741" lon="4.28391">
        <ele>330.9</ele>
        <time>2022-06-10T12:28:25Z</time>
      </trkpt>
      <trkpt lat="44.67733" lon="4.28393">
        <ele>330.8</ele>
        <time>2022-06-10T12:28:26Z</time>
      </trkpt>
      <trkpt lat="44.67725" lon="4.28394">
        <ele>330.6</ele>
        <time>2022-06-10T12:28:27Z</time>
      </trkpt>
      <trkpt lat="44.67717" lon="4.28396">
        <ele>330.5</ele>
        <time>2022-06-10T12:28:28Z</time>
      </trkpt>
      <trkpt lat="44.6771" lon="4.284">
        <ele>330.4</ele>
        <time>2022-06-10T12:28:29Z</time>
      </trkpt>
      <trkpt lat="44.67704" lon="4.28404">
        <ele>330.3</ele>
        <time>2022-06-10T12:28:30Z</time>
      </trkpt>
      <trkpt lat="44.67697" lon="4.2841">
        <ele>330.2</ele>
        <time>2022-06-10T12:28:31Z</time>
      </trkpt>
      <trkpt lat="44.67692" lon="4.28417">
        <ele>330.1</ele>
        <time>2022-06-10T12:28:32Z</time>
      </trkpt>
      <trkpt lat="44.67688" lon="4.28425">
        <ele>330</ele>
        <time>2022-06-10T12:28:33Z</time>
      </trkpt>
      <trkpt lat="44.67685" lon="4.28433">
        <ele>329.9</ele>
        <time>2022-06-10T12:28:34Z</time>
      </trkpt>
      <trkpt lat="44.67683" lon="4.28442">
        <ele>329.7</ele>
        <time>2022-06-10T12:28:35Z</time>
      </trkpt>
      <trkpt lat="44.6768" lon="4.28452">
        <ele>329.6</ele>
        <time>2022-06-10T12:28:36Z</time>
      </trkpt>
      <trkpt lat="44.67678" lon="4.28462">
        <ele>329.4</ele>
        <time>2022-06-10T12:28:37Z</time>
      </trkpt>
      <trkpt lat="44.67677" lon="4.28472">
        <ele>329.3</ele>
        <time>2022-06-10T12:28:38Z</time>
      </trkpt>
      <trkpt lat="44.67675" lon="4.28483">
        <ele>329.1</ele>
        <time>2022-06-10T12:28:39Z</time>
      </trkpt>
      <trkpt lat="44.67673" lon="4.28493">
        <ele>329</ele>
        <time>2022-06-10T12:28:40Z</time>
      </trkpt>
      <trkpt lat="44.67672" lon="4.28504">
        <ele>328.8</ele>
        <time>2022-06-10T12:28:41Z</time>
      </trkpt>
      <trkpt lat="44.6767" lon="4.28515">
        <ele>328.7</ele>
        <time>2022-06-10T12:28:42Z</time>
      </trkpt>
      <trkpt lat="44.67669" lon="4.28526">
        <ele>328.6</ele>
        <time>2022-06-10T12:28:43Z</time>
      </trkpt>
      <trkpt lat="44.67668" lon="4.28537">
        <ele>328.5</ele>
        <time>2022-06-10T12:28:44Z</time>
      </trkpt>
      <trkpt lat="44.67666" lon="4.28548">
        <ele>328.4</ele>
        <time>2022-06-10T12:28:45Z</time>
      </trkpt>
      <trkpt lat="44.67663" lon="4.28559">
        <ele>328.3</ele>
        <time>2022-06-10T12:28:46Z</time>
      </trkpt>
      <trkpt lat="44.6766" lon="4.2857">
        <ele>328.2</ele>
        <time>2022-06-10T12:28:47Z</time>
      </trkpt>
      <trkpt lat="44.67657" lon="4.28581">
        <ele>328.1</ele>
        <time>2022-06-10T12:28:48Z</time>
      </trkpt>
      <trkpt lat="44.67652" lon="4.28592">
        <ele>327.9</ele>
        <time>2022-06-10T12:28:49Z</time>
      </trkpt>
      <trkpt lat="44.67647" lon="4.28601">
        <ele>327.8</ele>
        <time>2022-06-10T12:28:50Z</time>
      </trkpt>
      <trkpt lat="44.67641" lon="4.28609">
        <ele>327.7</ele>
        <time>2022-06-10T12:28:51Z</time>
      </trkpt>
      <trkpt lat="44.67634" lon="4.28616">
        <ele>327.5</ele>
        <time>2022-06-10T12:28:52Z</time>
      </trkpt>
      <trkpt lat="44.67627" lon="4.28622">
        <ele>327.4</ele>
        <time>2022-06-10T12:28:53Z</time>
      </trkpt>
      <trkpt lat="44.67621" lon="4.28629">
        <ele>327.3</ele>
        <time>2022-06-10T12:28:54Z</time>
      </trkpt>
      <trkpt lat="44.67613" lon="4.28634">
        <ele>327.1</ele>
        <time>2022-06-10T12:28:55Z</time>
      </trkpt>
      <trkpt lat="44.67606" lon="4.28638">
        <ele>327</ele>
        <time>2022-06-10T12:28:56Z</time>
      </trkpt>
      <trkpt lat="44.67598" lon="4.2864">
        <ele>326.9</ele>
        <time>2022-06-10T12:28:57Z</time>
      </trkpt>
      <trkpt lat="44.67589" lon="4.28641">
        <ele>326.8</ele>
        <time>2022-06-10T12:28:58Z</time>
      </trkpt>
      <trkpt lat="44.67581" lon="4.2864">
        <ele>326.6</ele>
        <time>2022-06-10T12:28:59Z</time>
      </trkpt>
      <trkpt lat="44.67573" lon="4.28638">
        <ele>326.5</ele>
        <time>2022-06-10T12:29:00Z</time>
      </trkpt>
      <trkpt lat="44.67565" lon="4.28635">
        <ele>326.4</ele>
        <time>2022-06-10T12:29:01Z</time>
      </trkpt>
      <trkpt lat="44.67558" lon="4.28632">
        <ele>326.2</ele>
        <time>2022-06-10T12:29:02Z</time>
      </trkpt>
      <trkpt lat="44.67551" lon="4.28628">
        <ele>326.1</ele>
        <time>2022-06-10T12:29:03Z</time>
      </trkpt>
      <trkpt lat="44.67544" lon="4.28624">
        <ele>326</ele>
        <time>2022-06-10T12:29:04Z</time>
      </trkpt>
      <trkpt lat="44.67538" lon="4.28619">
        <ele>326</ele>
        <time>2022-06-10T12:29:05Z</time>
      </trkpt>
      <trkpt lat="44.67532" lon="4.28613">
        <ele>325.9</ele>
        <time>2022-06-10T12:29:06Z</time>
      </trkpt>
      <trkpt lat="44.67527" lon="4.28607">
        <ele>325.8</ele>
        <time>2022-06-10T12:29:07Z</time>
      </trkpt>
      <trkpt lat="44.67522" lon="4.28602">
        <ele>325.8</ele>
        <time>2022-06-10T12:29:08Z</time>
      </trkpt>
      <trkpt lat="44.67517" lon="4.28596">
        <ele>325.7</ele>
        <time>2022-06-10T12:29:09Z</time>
      </trkpt>
      <trkpt lat="44.67512" lon="4.2859">
        <ele>325.7</ele>
        <time>2022-06-10T12:29:10Z</time>
      </trkpt>
      <trkpt lat="44.67507" lon="4.28585">
        <ele>325.7</ele>
        <time>2022-06-10T12:29:11Z</time>
      </trkpt>
      <trkpt lat="44.67502" lon="4.28579">
        <ele>325.6</ele>
        <time>2022-06-10T12:29:12Z</time>
      </trkpt>
      <trkpt lat="44.67497" lon="4.28574">
        <ele>325.6</ele>
        <time>2022-06-10T12:29:13Z</time>
      </trkpt>
      <trkpt lat="44.67492" lon="4.28569">
        <ele>325.6</ele>
        <time>2022-06-10T12:29:14Z</time>
      </trkpt>
      <trkpt lat="44.67487" lon="4.28564">
        <ele>325.5</ele>
        <time>2022-06-10T12:29:15Z</time>
      </trkpt>
      <trkpt lat="44.67482" lon="4.28558">
        <ele>325.5</ele>
        <time>2022-06-10T12:29:16Z</time>
      </trkpt>
      <trkpt lat="44.67477" lon="4.28553">
        <ele>325.5</ele>
        <time>2022-06-10T12:29:17Z</time>
      </trkpt>
      <trkpt lat="44.67473" lon="4.28548">
        <ele>325.5</ele>
        <time>2022-06-10T12:29:18Z</time>
      </trkpt>
      <trkpt lat="44.67469" lon="4.28543">
        <ele>325.6</ele>
        <time>2022-06-10T12:29:19Z</time>
      </trkpt>
      <trkpt lat="44.67464" lon="4.28538">
        <ele>325.6</ele>
        <time>2022-06-10T12:29:20Z</time>
      </trkpt>
      <trkpt lat="44.6746" lon="4.28533">
        <ele>325.6</ele>
        <time>2022-06-10T12:29:21Z</time>
      </trkpt>
      <trkpt lat="44.67455" lon="4.28527">
        <ele>325.5</ele>
        <time>2022-06-10T12:29:22Z</time>
      </trkpt>
      <trkpt lat="44.67451" lon="4.28522">
        <ele>325.5</ele>
        <time>2022-06-10T12:29:23Z</time>
      </trkpt>
      <trkpt lat="44.67446" lon="4.28517">
        <ele>325.5</ele>
        <time>2022-06-10T12:29:24Z</time>
      </trkpt>
      <trkpt lat="44.67442" lon="4.28512">
        <ele>325.5</ele>
        <time>2022-06-10T12:29:25Z</time>
      </trkpt>
      <trkpt lat="44.67437" lon="4.28506">
        <ele>325.5</ele>
        <time>2022-06-10T12:29:26Z</time>
      </trkpt>
      <trkpt lat="44.67432" lon="4.285">
        <ele>325.5</ele>
        <time>2022-06-10T12:29:27Z</time>
      </trkpt>
      <trkpt lat="44.67427" lon="4.28495">
        <ele>325.4</ele>
        <time>2022-06-10T12:29:28Z</time>
      </trkpt>
      <trkpt lat="44.67422" lon="4.28489">
        <ele>325.4</ele>
        <time>2022-06-10T12:29:29Z</time>
      </trkpt>
      <trkpt lat="44.67417" lon="4.28483">
        <ele>325.3</ele>
        <time>2022-06-10T12:29:30Z</time>
      </trkpt>
      <trkpt lat="44.67412" lon="4.28478">
        <ele>325.2</ele>
        <time>2022-06-10T12:29:31Z</time>
      </trkpt>
      <trkpt lat="44.67406" lon="4.28472">
        <ele>325.1</ele>
        <time>2022-06-10T12:29:32Z</time>
      </trkpt>
      <trkpt lat="44.674" lon="4.28467">
        <ele>325</ele>
        <time>2022-06-10T12:29:33Z</time>
      </trkpt>
      <trkpt lat="44.67394" lon="4.28463">
        <ele>324.9</ele>
        <time>2022-06-10T12:29:34Z</time>
      </trkpt>
      <trkpt lat="44.67388" lon="4.2846">
        <ele>324.8</ele>
        <time>2022-06-10T12:29:35Z</time>
      </trkpt>
      <trkpt lat="44.67381" lon="4.28457">
        <ele>324.7</ele>
        <time>2022-06-10T12:29:36Z</time>
      </trkpt>
      <trkpt lat="44.67375" lon="4.28454">
        <ele>324.7</ele>
        <time>2022-06-10T12:29:37Z</time>
      </trkpt>
      <trkpt lat="44.67368" lon="4.28451">
        <ele>324.6</ele>
        <time>2022-06-10T12:29:38Z</time>
      </trkpt>
      <trkpt lat="44.67361" lon="4.28449">
        <ele>324.5</ele>
        <time>2022-06-10T12:29:39Z</time>
      </trkpt>
      <trkpt lat="44.67354" lon="4.28446">
        <ele>324.4</ele>
        <time>2022-06-10T12:29:40Z</time>
      </trkpt>
      <trkpt lat="44.67347" lon="4.28444">
        <ele>324.3</ele>
        <time>2022-06-10T12:29:41Z</time>
      </trkpt>
      <trkpt lat="44.6734" lon="4.28441">
        <ele>324.2</ele>
        <time>2022-06-10T12:29:42Z</time>
      </trkpt>
      <trkpt lat="44.67333" lon="4.28439">
        <ele>324.1</ele>
        <time>2022-06-10T12:29:43Z</time>
      </trkpt>
      <trkpt lat="44.67326" lon="4.28437">
        <ele>324</ele>
        <time>2022-06-10T12:29:44Z</time>
      </trkpt>
      <trkpt lat="44.67319" lon="4.28436">
        <ele>323.9</ele>
        <time>2022-06-10T12:29:45Z</time>
      </trkpt>
      <trkpt lat="44.67311" lon="4.28436">
        <ele>323.8</ele>
        <time>2022-06-10T12:29:46Z</time>
      </trkpt>
      <trkpt lat="44.67304" lon="4.28436">
        <ele>323.7</ele>
        <time>2022-06-10T12:29:47Z</time>
      </trkpt>
      <trkpt lat="44.67296" lon="4.28437">
        <ele>323.5</ele>
        <time>2022-06-10T12:29:48Z</time>
      </trkpt>
      <trkpt lat="44.67289" lon="4.28438">
        <ele>323.3</ele>
        <time>2022-06-10T12:29:49Z</time>
      </trkpt>
      <trkpt lat="44.67281" lon="4.28438">
        <ele>323.1</ele>
        <time>2022-06-10T12:29:50Z</time>
      </trkpt>
      <trkpt lat="44.67274" lon="4.28439">
        <ele>322.9</ele>
        <time>2022-06-10T12:29:51Z</time>
      </trkpt>
      <trkpt lat="44.67267" lon="4.2844">
        <ele>322.7</ele>
        <time>2022-06-10T12:29:52Z</time>
      </trkpt>
      <trkpt lat="44.67259" lon="4.28441">
        <ele>322.5</ele>
        <time>2022-06-10T12:29:53Z</time>
      </trkpt>
      <trkpt lat="44.67252" lon="4.28442">
        <ele>322.4</ele>
        <time>2022-06-10T12:29:54Z</time>
      </trkpt>
      <trkpt lat="44.67244" lon="4.28443">
        <ele>322.2</ele>
        <time>2022-06-10T12:29:55Z</time>
      </trkpt>
      <trkpt lat="44.67236" lon="4.28443">
        <ele>322</ele>
        <time>2022-06-10T12:29:56Z</time>
      </trkpt>
      <trkpt lat="44.67228" lon="4.28444">
        <ele>321.8</ele>
        <time>2022-06-10T12:29:57Z</time>
      </trkpt>
      <trkpt lat="44.67221" lon="4.28445">
        <ele>321.6</ele>
        <time>2022-06-10T12:29:58Z</time>
      </trkpt>
      <trkpt lat="44.67213" lon="4.28446">
        <ele>321.5</ele>
        <time>2022-06-10T12:29:59Z</time>
      </trkpt>
      <trkpt lat="44.67205" lon="4.28449">
        <ele>321.3</ele>
        <time>2022-06-10T12:30:00Z</time>
      </trkpt>
      <trkpt lat="44.67198" lon="4.28453">
        <ele>321.1</ele>
        <time>2022-06-10T12:30:01Z</time>
      </trkpt>
      <trkpt lat="44.6719" lon="4.28456">
        <ele>320.9</ele>
        <time>2022-06-10T12:30:02Z</time>
      </trkpt>
      <trkpt lat="44.67182" lon="4.2846">
        <ele>320.6</ele>
        <time>2022-06-10T12:30:03Z</time>
      </trkpt>
      <trkpt lat="44.67175" lon="4.28465">
        <ele>320.4</ele>
        <time>2022-06-10T12:30:04Z</time>
      </trkpt>
      <trkpt lat="44.67168" lon="4.28471">
        <ele>320.2</ele>
        <time>2022-06-10T12:30:05Z</time>
      </trkpt>
      <trkpt lat="44.67161" lon="4.28478">
        <ele>320.1</ele>
        <time>2022-06-10T12:30:06Z</time>
      </trkpt>
      <trkpt lat="44.67154" lon="4.28485">
        <ele>319.9</ele>
        <time>2022-06-10T12:30:07Z</time>
      </trkpt>
      <trkpt lat="44.67148" lon="4.28492">
        <ele>319.8</ele>
        <time>2022-06-10T12:30:08Z</time>
      </trkpt>
      <trkpt lat="44.67141" lon="4.285">
        <ele>319.7</ele>
        <time>2022-06-10T12:30:09Z</time>
      </trkpt>
      <trkpt lat="44.67136" lon="4.28507">
        <ele>319.6</ele>
        <time>2022-06-10T12:30:10Z</time>
      </trkpt>
      <trkpt lat="44.67132" lon="4.28516">
        <ele>319.5</ele>
        <time>2022-06-10T12:30:11Z</time>
      </trkpt>
      <trkpt lat="44.67127" lon="4.28524">
        <ele>319.3</ele>
        <time>2022-06-10T12:30:12Z</time>
      </trkpt>
      <trkpt lat="44.67123" lon="4.28533">
        <ele>319.2</ele>
        <time>2022-06-10T12:30:13Z</time>
      </trkpt>
      <trkpt lat="44.67118" lon="4.28542">
        <ele>319</ele>
        <time>2022-06-10T12:30:14Z</time>
      </trkpt>
      <trkpt lat="44.67114" lon="4.2855">
        <ele>318.9</ele>
        <time>2022-06-10T12:30:15Z</time>
      </trkpt>
      <trkpt lat="44.6711" lon="4.28559">
        <ele>318.7</ele>
        <time>2022-06-10T12:30:16Z</time>
      </trkpt>
      <trkpt lat="44.67107" lon="4.28569">
        <ele>318.6</ele>
        <time>2022-06-10T12:30:17Z</time>
      </trkpt>
      <trkpt lat="44.67104" lon="4.28579">
        <ele>318.5</ele>
        <time>2022-06-10T12:30:18Z</time>
      </trkpt>
      <trkpt lat="44.67101" lon="4.2859">
        <ele>318.3</ele>
        <time>2022-06-10T12:30:19Z</time>
      </trkpt>
      <trkpt lat="44.67098" lon="4.286">
        <ele>318.2</ele>
        <time>2022-06-10T12:30:20Z</time>
      </trkpt>
      <trkpt lat="44.67095" lon="4.2861">
        <ele>318</ele>
        <time>2022-06-10T12:30:21Z</time>
      </trkpt>
      <trkpt lat="44.67092" lon="4.2862">
        <ele>317.9</ele>
        <time>2022-06-10T12:30:22Z</time>
      </trkpt>
      <trkpt lat="44.6709" lon="4.2863">
        <ele>317.8</ele>
        <time>2022-06-10T12:30:23Z</time>
      </trkpt>
      <trkpt lat="44.67088" lon="4.2864">
        <ele>317.7</ele>
        <time>2022-06-10T12:30:24Z</time>
      </trkpt>
      <trkpt lat="44.67087" lon="4.2865">
        <ele>317.6</ele>
        <time>2022-06-10T12:30:25Z</time>
      </trkpt>
      <trkpt lat="44.67086" lon="4.28659">
        <ele>317.5</ele>
        <time>2022-06-10T12:30:26Z</time>
      </trkpt>
      <trkpt lat="44.67086" lon="4.28669">
        <ele>317.4</ele>
        <time>2022-06-10T12:30:27Z</time>
      </trkpt>
      <trkpt lat="44.67088" lon="4.28679">
        <ele>317.3</ele>
        <time>2022-06-10T12:30:28Z</time>
      </trkpt>
      <trkpt lat="44.67091" lon="4.2869">
        <ele>317.1</ele>
        <time>2022-06-10T12:30:29Z</time>
      </trkpt>
      <trkpt lat="44.67095" lon="4.28699">
        <ele>317</ele>
        <time>2022-06-10T12:30:30Z</time>
      </trkpt>
      <trkpt lat="44.67099" lon="4.28707">
        <ele>316.9</ele>
        <time>2022-06-10T12:30:31Z</time>
      </trkpt>
      <trkpt lat="44.67104" lon="4.28716">
        <ele>316.9</ele>
        <time>2022-06-10T12:30:32Z</time>
      </trkpt>
      <trkpt lat="44.67108" lon="4.28724">
        <ele>316.8</ele>
        <time>2022-06-10T12:30:33Z</time>
      </trkpt>
      <trkpt lat="44.67112" lon="4.28734">
        <ele>316.7</ele>
        <time>2022-06-10T12:30:34Z</time>
      </trkpt>
      <trkpt lat="44.67114" lon="4.28744">
        <ele>316.7</ele>
        <time>2022-06-10T12:30:35Z</time>
      </trkpt>
      <trkpt lat="44.67115" lon="4.28755">
        <ele>316.6</ele>
        <time>2022-06-10T12:30:36Z</time>
      </trkpt>
      <trkpt lat="44.67115" lon="4.28767">
        <ele>316.5</ele>
        <time>2022-06-10T12:30:37Z</time>
      </trkpt>
      <trkpt lat="44.67113" lon="4.28778">
        <ele>316.5</ele>
        <time>2022-06-10T12:30:38Z</time>
      </trkpt>
      <trkpt lat="44.67109" lon="4.28788">
        <ele>316.4</ele>
        <time>2022-06-10T12:30:39Z</time>
      </trkpt>
      <trkpt lat="44.67102" lon="4.28796">
        <ele>316.2</ele>
        <time>2022-06-10T12:30:40Z</time>
      </trkpt>
      <trkpt lat="44.67094" lon="4.28802">
        <ele>316.1</ele>
        <time>2022-06-10T12:30:41Z</time>
      </trkpt>
      <trkpt lat="44.67085" lon="4.28807">
        <ele>315.9</ele>
        <time>2022-06-10T12:30:42Z</time>
      </trkpt>
      <trkpt lat="44.67077" lon="4.28811">
        <ele>315.8</ele>
        <time>2022-06-10T12:30:43Z</time>
      </trkpt>
      <trkpt lat="44.67069" lon="4.28814">
        <ele>315.7</ele>
        <time>2022-06-10T12:30:44Z</time>
      </trkpt>
      <trkpt lat="44.6706" lon="4.28818">
        <ele>315.6</ele>
        <time>2022-06-10T12:30:45Z</time>
      </trkpt>
      <trkpt lat="44.67051" lon="4.28821">
        <ele>315.5</ele>
        <time>2022-06-10T12:30:46Z</time>
      </trkpt>
      <trkpt lat="44.67042" lon="4.28824">
        <ele>315.5</ele>
        <time>2022-06-10T12:30:47Z</time>
      </trkpt>
      <trkpt lat="44.67033" lon="4.28827">
        <ele>315.4</ele>
        <time>2022-06-10T12:30:48Z</time>
      </trkpt>
      <trkpt lat="44.67024" lon="4.28829">
        <ele>315.4</ele>
        <time>2022-06-10T12:30:49Z</time>
      </trkpt>
      <trkpt lat="44.67015" lon="4.28831">
        <ele>315.4</ele>
        <time>2022-06-10T12:30:50Z</time>
      </trkpt>
      <trkpt lat="44.67006" lon="4.28832">
        <ele>315.2</ele>
        <time>2022-06-10T12:30:51Z</time>
      </trkpt>
      <trkpt lat="44.66996" lon="4.28833">
        <ele>315</ele>
        <time>2022-06-10T12:30:52Z</time>
      </trkpt>
      <trkpt lat="44.66988" lon="4.28833">
        <ele>314.8</ele>
        <time>2022-06-10T12:30:53Z</time>
      </trkpt>
      <trkpt lat="44.66979" lon="4.28833">
        <ele>314.6</ele>
        <time>2022-06-10T12:30:54Z</time>
      </trkpt>
      <trkpt lat="44.6697" lon="4.28834">
        <ele>314.4</ele>
        <time>2022-06-10T12:30:55Z</time>
      </trkpt>
      <trkpt lat="44.66961" lon="4.28834">
        <ele>314.2</ele>
        <time>2022-06-10T12:30:56Z</time>
      </trkpt>
      <trkpt lat="44.66953" lon="4.2883">
        <ele>314</ele>
        <time>2022-06-10T12:30:57Z</time>
      </trkpt>
      <trkpt lat="44.66946" lon="4.28823">
        <ele>313.8</ele>
        <time>2022-06-10T12:30:58Z</time>
      </trkpt>
      <trkpt lat="44.6694" lon="4.28813">
        <ele>313.6</ele>
        <time>2022-06-10T12:30:59Z</time>
      </trkpt>
      <trkpt lat="44.66936" lon="4.28802">
        <ele>313.4</ele>
        <time>2022-06-10T12:31:00Z</time>
      </trkpt>
      <trkpt lat="44.66933" lon="4.28792">
        <ele>313.3</ele>
        <time>2022-06-10T12:31:01Z</time>
      </trkpt>
      <trkpt lat="44.66929" lon="4.28782">
        <ele>313.2</ele>
        <time>2022-06-10T12:31:02Z</time>
      </trkpt>
      <trkpt lat="44.66927" lon="4.28771">
        <ele>313.1</ele>
        <time>2022-06-10T12:31:03Z</time>
      </trkpt>
      <trkpt lat="44.66924" lon="4.28761">
        <ele>313</ele>
        <time>2022-06-10T12:31:04Z</time>
      </trkpt>
      <trkpt lat="44.66921" lon="4.28752">
        <ele>313</ele>
        <time>2022-06-10T12:31:05Z</time>
      </trkpt>
      <trkpt lat="44.66918" lon="4.28742">
        <ele>313</ele>
        <time>2022-06-10T12:31:06Z</time>
      </trkpt>
      <trkpt lat="44.66915" lon="4.28734">
        <ele>313</ele>
        <time>2022-06-10T12:31:07Z</time>
      </trkpt>
      <trkpt lat="44.66913" lon="4.28725">
        <ele>313</ele>
        <time>2022-06-10T12:31:08Z</time>
      </trkpt>
      <trkpt lat="44.6691" lon="4.28716">
        <ele>313.1</ele>
        <time>2022-06-10T12:31:09Z</time>
      </trkpt>
      <trkpt lat="44.66908" lon="4.28708">
        <ele>313.1</ele>
        <time>2022-06-10T12:31:10Z</time>
      </trkpt>
      <trkpt lat="44.66905" lon="4.287">
        <ele>313.1</ele>
        <time>2022-06-10T12:31:11Z</time>
      </trkpt>
      <trkpt lat="44.66903" lon="4.28692">
        <ele>313.2</ele>
        <time>2022-06-10T12:31:12Z</time>
      </trkpt>
      <trkpt lat="44.669" lon="4.28685">
        <ele>313.2</ele>
        <time>2022-06-10T12:31:13Z</time>
      </trkpt>
      <trkpt lat="44.66898" lon="4.28678">
        <ele>313.3</ele>
        <time>2022-06-10T12:31:14Z</time>
      </trkpt>
      <trkpt lat="44.66896" lon="4.2867">
        <ele>313.3</ele>
        <time>2022-06-10T12:31:15Z</time>
      </trkpt>
      <trkpt lat="44.66894" lon="4.28664">
        <ele>313.4</ele>
        <time>2022-06-10T12:31:16Z</time>
      </trkpt>
      <trkpt lat="44.66892" lon="4.28657">
        <ele>313.5</ele>
        <time>2022-06-10T12:31:17Z</time>
      </trkpt>
      <trkpt lat="44.66889" lon="4.2865">
        <ele>313.7</ele>
        <time>2022-06-10T12:31:18Z</time>
      </trkpt>
      <trkpt lat="44.66887" lon="4.28644">
        <ele>313.8</ele>
        <time>2022-06-10T12:31:19Z</time>
      </trkpt>
      <trkpt lat="44.66885" lon="4.28638">
        <ele>314</ele>
        <time>2022-06-10T12:31:20Z</time>
      </trkpt>
      <trkpt lat="44.66883" lon="4.28631">
        <ele>314.2</ele>
        <time>2022-06-10T12:31:21Z</time>
      </trkpt>
      <trkpt lat="44.66881" lon="4.28625">
        <ele>314.4</ele>
        <time>2022-06-10T12:31:22Z</time>
      </trkpt>
      <trkpt lat="44.66879" lon="4.28619">
        <ele>314.6</ele>
        <time>2022-06-10T12:31:23Z</time>
      </trkpt>
      <trkpt lat="44.66878" lon="4.28613">
        <ele>314.8</ele>
        <time>2022-06-10T12:31:24Z</time>
      </trkpt>
      <trkpt lat="44.66878" lon="4.28608">
        <ele>315.1</ele>
        <time>2022-06-10T12:31:25Z</time>
      </trkpt>
      <trkpt lat="44.66878" lon="4.28605">
        <ele>315.2</ele>
        <time>2022-06-10T12:31:26Z</time>
      </trkpt>
      <trkpt lat="44.66877" lon="4.28599">
        <ele>315.4</ele>
        <time>2022-06-10T12:31:27Z</time>
      </trkpt>
      <trkpt lat="44.66877" lon="4.28594">
        <ele>315.6</ele>
        <time>2022-06-10T12:31:28Z</time>
      </trkpt>
      <trkpt lat="44.66876" lon="4.28587">
        <ele>316</ele>
        <time>2022-06-10T12:31:29Z</time>
      </trkpt>
      <trkpt lat="44.66875" lon="4.28585">
        <ele>316.1</ele>
        <time>2022-06-10T12:31:30Z</time>
      </trkpt>
      <trkpt lat="44.66873" lon="4.28579">
        <ele>316.3</ele>
        <time>2022-06-10T12:31:31Z</time>
      </trkpt>
      <trkpt lat="44.66871" lon="4.28576">
        <ele>316.4</ele>
        <time>2022-06-10T12:31:32Z</time>
      </trkpt>
      <trkpt lat="44.66866" lon="4.28573">
        <ele>316.5</ele>
        <time>2022-06-10T12:31:34Z</time>
      </trkpt>
      <trkpt lat="44.66861" lon="4.28573">
        <ele>316.4</ele>
        <time>2022-06-10T12:31:35Z</time>
      </trkpt>
      <trkpt lat="44.66856" lon="4.28574">
        <ele>316.4</ele>
        <time>2022-06-10T12:31:36Z</time>
      </trkpt>
      <trkpt lat="44.66851" lon="4.28579">
        <ele>316.4</ele>
        <time>2022-06-10T12:31:38Z</time>
      </trkpt>
      <trkpt lat="44.66847" lon="4.28581">
        <ele>316.4</ele>
        <time>2022-06-10T12:31:39Z</time>
      </trkpt>
      <trkpt lat="44.66841" lon="4.28584">
        <ele>316.4</ele>
        <time>2022-06-10T12:31:40Z</time>
      </trkpt>
      <trkpt lat="44.66836" lon="4.28586">
        <ele>316.4</ele>
        <time>2022-06-10T12:31:41Z</time>
      </trkpt>
      <trkpt lat="44.66832" lon="4.28589">
        <ele>316.4</ele>
        <time>2022-06-10T12:31:42Z</time>
      </trkpt>
      <trkpt lat="44.66827" lon="4.28591">
        <ele>316.4</ele>
        <time>2022-06-10T12:31:44Z</time>
      </trkpt>
      <trkpt lat="44.66824" lon="4.28592">
        <ele>316.4</ele>
        <time>2022-06-10T12:31:45Z</time>
      </trkpt>
      <trkpt lat="44.66819" lon="4.28594">
        <ele>316.4</ele>
        <time>2022-06-10T12:31:46Z</time>
      </trkpt>
      <trkpt lat="44.66816" lon="4.28596">
        <ele>316.4</ele>
        <time>2022-06-10T12:31:47Z</time>
      </trkpt>
      <trkpt lat="44.66811" lon="4.28598">
        <ele>316.4</ele>
        <time>2022-06-10T12:31:48Z</time>
      </trkpt>
      <trkpt lat="44.66803" lon="4.28602">
        <ele>316.3</ele>
        <time>2022-06-10T12:31:50Z</time>
      </trkpt>
      <trkpt lat="44.66797" lon="4.28608">
        <ele>316.2</ele>
        <time>2022-06-10T12:31:51Z</time>
      </trkpt>
      <trkpt lat="44.66792" lon="4.28611">
        <ele>316.2</ele>
        <time>2022-06-10T12:31:52Z</time>
      </trkpt>
      <trkpt lat="44.66788" lon="4.28614">
        <ele>316.1</ele>
        <time>2022-06-10T12:31:53Z</time>
      </trkpt>
      <trkpt lat="44.66783" lon="4.28618">
        <ele>316</ele>
        <time>2022-06-10T12:31:54Z</time>
      </trkpt>
      <trkpt lat="44.6678" lon="4.28623">
        <ele>315.9</ele>
        <time>2022-06-10T12:31:55Z</time>
      </trkpt>
      <trkpt lat="44.66777" lon="4.28627">
        <ele>315.9</ele>
        <time>2022-06-10T12:31:56Z</time>
      </trkpt>
      <trkpt lat="44.66775" lon="4.28633">
        <ele>315.8</ele>
        <time>2022-06-10T12:31:57Z</time>
      </trkpt>
      <trkpt lat="44.66772" lon="4.28639">
        <ele>315.7</ele>
        <time>2022-06-10T12:31:58Z</time>
      </trkpt>
      <trkpt lat="44.66771" lon="4.28647">
        <ele>315.6</ele>
        <time>2022-06-10T12:31:59Z</time>
      </trkpt>
      <trkpt lat="44.66771" lon="4.28655">
        <ele>315.4</ele>
        <time>2022-06-10T12:32:00Z</time>
      </trkpt>
      <trkpt lat="44.6677" lon="4.28663">
        <ele>315.2</ele>
        <time>2022-06-10T12:32:01Z</time>
      </trkpt>
      <trkpt lat="44.66771" lon="4.2867">
        <ele>315</ele>
        <time>2022-06-10T12:32:02Z</time>
      </trkpt>
      <trkpt lat="44.66772" lon="4.28677">
        <ele>314.8</ele>
        <time>2022-06-10T12:32:03Z</time>
      </trkpt>
      <trkpt lat="44.66774" lon="4.28684">
        <ele>314.5</ele>
        <time>2022-06-10T12:32:04Z</time>
      </trkpt>
      <trkpt lat="44.66777" lon="4.2869">
        <ele>314.3</ele>
        <time>2022-06-10T12:32:05Z</time>
      </trkpt>
      <trkpt lat="44.6678" lon="4.28696">
        <ele>314.1</ele>
        <time>2022-06-10T12:32:06Z</time>
      </trkpt>
      <trkpt lat="44.66784" lon="4.28702">
        <ele>313.9</ele>
        <time>2022-06-10T12:32:07Z</time>
      </trkpt>
      <trkpt lat="44.66788" lon="4.28709">
        <ele>313.7</ele>
        <time>2022-06-10T12:32:08Z</time>
      </trkpt>
      <trkpt lat="44.66794" lon="4.28715">
        <ele>313.5</ele>
        <time>2022-06-10T12:32:09Z</time>
      </trkpt>
      <trkpt lat="44.66799" lon="4.28722">
        <ele>313.2</ele>
        <time>2022-06-10T12:32:10Z</time>
      </trkpt>
      <trkpt lat="44.66804" lon="4.28729">
        <ele>313</ele>
        <time>2022-06-10T12:32:11Z</time>
      </trkpt>
      <trkpt lat="44.66808" lon="4.28737">
        <ele>312.8</ele>
        <time>2022-06-10T12:32:12Z</time>
      </trkpt>
      <trkpt lat="44.66812" lon="4.28746">
        <ele>312.6</ele>
        <time>2022-06-10T12:32:13Z</time>
      </trkpt>
      <trkpt lat="44.66816" lon="4.28755">
        <ele>312.3</ele>
        <time>2022-06-10T12:32:14Z</time>
      </trkpt>
      <trkpt lat="44.66818" lon="4.28766">
        <ele>312</ele>
        <time>2022-06-10T12:32:15Z</time>
      </trkpt>
      <trkpt lat="44.6682" lon="4.28777">
        <ele>311.7</ele>
        <time>2022-06-10T12:32:16Z</time>
      </trkpt>
      <trkpt lat="44.66822" lon="4.28788">
        <ele>311.3</ele>
        <time>2022-06-10T12:32:17Z</time>
      </trkpt>
      <trkpt lat="44.66824" lon="4.28798">
        <ele>311</ele>
        <time>2022-06-10T12:32:18Z</time>
      </trkpt>
      <trkpt lat="44.66825" lon="4.28809">
        <ele>310.6</ele>
        <time>2022-06-10T12:32:19Z</time>
      </trkpt>
      <trkpt lat="44.66827" lon="4.2882">
        <ele>310.3</ele>
        <time>2022-06-10T12:32:20Z</time>
      </trkpt>
      <trkpt lat="44.66829" lon="4.28831">
        <ele>309.9</ele>
        <time>2022-06-10T12:32:21Z</time>
      </trkpt>
      <trkpt lat="44.66831" lon="4.28843">
        <ele>309.6</ele>
        <time>2022-06-10T12:32:22Z</time>
      </trkpt>
      <trkpt lat="44.66833" lon="4.28855">
        <ele>309.2</ele>
        <time>2022-06-10T12:32:23Z</time>
      </trkpt>
      <trkpt lat="44.66835" lon="4.28868">
        <ele>308.9</ele>
        <time>2022-06-10T12:32:24Z</time>
      </trkpt>
      <trkpt lat="44.66834" lon="4.28881">
        <ele>308.7</ele>
        <time>2022-06-10T12:32:25Z</time>
      </trkpt>
      <trkpt lat="44.66833" lon="4.28893">
        <ele>308.5</ele>
        <time>2022-06-10T12:32:26Z</time>
      </trkpt>
      <trkpt lat="44.6683" lon="4.28906">
        <ele>308.3</ele>
        <time>2022-06-10T12:32:27Z</time>
      </trkpt>
      <trkpt lat="44.66826" lon="4.28917">
        <ele>308</ele>
        <time>2022-06-10T12:32:28Z</time>
      </trkpt>
      <trkpt lat="44.66822" lon="4.28928">
        <ele>307.9</ele>
        <time>2022-06-10T12:32:29Z</time>
      </trkpt>
      <trkpt lat="44.66815" lon="4.28936">
        <ele>307.8</ele>
        <time>2022-06-10T12:32:30Z</time>
      </trkpt>
      <trkpt lat="44.66808" lon="4.28943">
        <ele>307.8</ele>
        <time>2022-06-10T12:32:31Z</time>
      </trkpt>
      <trkpt lat="44.668" lon="4.28948">
        <ele>307.8</ele>
        <time>2022-06-10T12:32:32Z</time>
      </trkpt>
      <trkpt lat="44.66791" lon="4.28952">
        <ele>307.8</ele>
        <time>2022-06-10T12:32:33Z</time>
      </trkpt>
      <trkpt lat="44.66783" lon="4.28955">
        <ele>307.8</ele>
        <time>2022-06-10T12:32:34Z</time>
      </trkpt>
      <trkpt lat="44.66776" lon="4.28956">
        <ele>307.8</ele>
        <time>2022-06-10T12:32:35Z</time>
      </trkpt>
      <trkpt lat="44.66767" lon="4.28956">
        <ele>307.8</ele>
        <time>2022-06-10T12:32:36Z</time>
      </trkpt>
      <trkpt lat="44.66759" lon="4.28955">
        <ele>307.9</ele>
        <time>2022-06-10T12:32:37Z</time>
      </trkpt>
      <trkpt lat="44.66751" lon="4.28955">
        <ele>307.9</ele>
        <time>2022-06-10T12:32:38Z</time>
      </trkpt>
      <trkpt lat="44.66743" lon="4.28954">
        <ele>308</ele>
        <time>2022-06-10T12:32:39Z</time>
      </trkpt>
      <trkpt lat="44.66736" lon="4.28953">
        <ele>308</ele>
        <time>2022-06-10T12:32:40Z</time>
      </trkpt>
      <trkpt lat="44.66728" lon="4.28952">
        <ele>308.1</ele>
        <time>2022-06-10T12:32:41Z</time>
      </trkpt>
      <trkpt lat="44.66721" lon="4.28952">
        <ele>308.2</ele>
        <time>2022-06-10T12:32:42Z</time>
      </trkpt>
      <trkpt lat="44.66713" lon="4.28952">
        <ele>308.3</ele>
        <time>2022-06-10T12:32:43Z</time>
      </trkpt>
      <trkpt lat="44.66706" lon="4.28952">
        <ele>308.4</ele>
        <time>2022-06-10T12:32:44Z</time>
      </trkpt>
      <trkpt lat="44.66699" lon="4.28951">
        <ele>308.5</ele>
        <time>2022-06-10T12:32:45Z</time>
      </trkpt>
      <trkpt lat="44.66692" lon="4.28951">
        <ele>308.7</ele>
        <time>2022-06-10T12:32:46Z</time>
      </trkpt>
      <trkpt lat="44.66685" lon="4.28951">
        <ele>308.8</ele>
        <time>2022-06-10T12:32:47Z</time>
      </trkpt>
      <trkpt lat="44.66679" lon="4.2895">
        <ele>308.9</ele>
        <time>2022-06-10T12:32:48Z</time>
      </trkpt>
      <trkpt lat="44.66672" lon="4.2895">
        <ele>309</ele>
        <time>2022-06-10T12:32:49Z</time>
      </trkpt>
      <trkpt lat="44.66665" lon="4.28949">
        <ele>309</ele>
        <time>2022-06-10T12:32:50Z</time>
      </trkpt>
      <trkpt lat="44.66659" lon="4.28949">
        <ele>309.1</ele>
        <time>2022-06-10T12:32:51Z</time>
      </trkpt>
      <trkpt lat="44.66652" lon="4.28948">
        <ele>309.2</ele>
        <time>2022-06-10T12:32:52Z</time>
      </trkpt>
      <trkpt lat="44.66646" lon="4.28947">
        <ele>309.2</ele>
        <time>2022-06-10T12:32:53Z</time>
      </trkpt>
      <trkpt lat="44.6664" lon="4.28947">
        <ele>309.3</ele>
        <time>2022-06-10T12:32:54Z</time>
      </trkpt>
      <trkpt lat="44.66634" lon="4.28947">
        <ele>309.3</ele>
        <time>2022-06-10T12:32:55Z</time>
      </trkpt>
      <trkpt lat="44.66627" lon="4.28946">
        <ele>309.3</ele>
        <time>2022-06-10T12:32:56Z</time>
      </trkpt>
      <trkpt lat="44.6662" lon="4.28944">
        <ele>309.2</ele>
        <time>2022-06-10T12:32:57Z</time>
      </trkpt>
      <trkpt lat="44.66614" lon="4.28942">
        <ele>309.1</ele>
        <time>2022-06-10T12:32:58Z</time>
      </trkpt>
      <trkpt lat="44.66607" lon="4.2894">
        <ele>309</ele>
        <time>2022-06-10T12:32:59Z</time>
      </trkpt>
      <trkpt lat="44.66601" lon="4.28936">
        <ele>308.9</ele>
        <time>2022-06-10T12:33:00Z</time>
      </trkpt>
      <trkpt lat="44.66595" lon="4.28933">
        <ele>308.8</ele>
        <time>2022-06-10T12:33:01Z</time>
      </trkpt>
      <trkpt lat="44.66589" lon="4.2893">
        <ele>308.7</ele>
        <time>2022-06-10T12:33:02Z</time>
      </trkpt>
      <trkpt lat="44.66582" lon="4.28927">
        <ele>308.6</ele>
        <time>2022-06-10T12:33:03Z</time>
      </trkpt>
      <trkpt lat="44.66576" lon="4.28924">
        <ele>308.6</ele>
        <time>2022-06-10T12:33:04Z</time>
      </trkpt>
      <trkpt lat="44.6657" lon="4.28921">
        <ele>308.5</ele>
        <time>2022-06-10T12:33:05Z</time>
      </trkpt>
      <trkpt lat="44.66563" lon="4.28918">
        <ele>308.4</ele>
        <time>2022-06-10T12:33:06Z</time>
      </trkpt>
      <trkpt lat="44.66558" lon="4.28915">
        <ele>308.4</ele>
        <time>2022-06-10T12:33:07Z</time>
      </trkpt>
      <trkpt lat="44.66551" lon="4.28912">
        <ele>308.3</ele>
        <time>2022-06-10T12:33:08Z</time>
      </trkpt>
      <trkpt lat="44.66545" lon="4.2891">
        <ele>308.2</ele>
        <time>2022-06-10T12:33:09Z</time>
      </trkpt>
      <trkpt lat="44.66539" lon="4.28907">
        <ele>308.2</ele>
        <time>2022-06-10T12:33:10Z</time>
      </trkpt>
      <trkpt lat="44.66533" lon="4.28904">
        <ele>308.1</ele>
        <time>2022-06-10T12:33:11Z</time>
      </trkpt>
      <trkpt lat="44.66526" lon="4.28902">
        <ele>308</ele>
        <time>2022-06-10T12:33:12Z</time>
      </trkpt>
      <trkpt lat="44.66521" lon="4.28899">
        <ele>307.9</ele>
        <time>2022-06-10T12:33:13Z</time>
      </trkpt>
      <trkpt lat="44.66514" lon="4.28897">
        <ele>307.9</ele>
        <time>2022-06-10T12:33:14Z</time>
      </trkpt>
      <trkpt lat="44.66508" lon="4.28896">
        <ele>307.8</ele>
        <time>2022-06-10T12:33:15Z</time>
      </trkpt>
      <trkpt lat="44.66502" lon="4.28897">
        <ele>307.7</ele>
        <time>2022-06-10T12:33:16Z</time>
      </trkpt>
      <trkpt lat="44.66496" lon="4.28897">
        <ele>307.6</ele>
        <time>2022-06-10T12:33:17Z</time>
      </trkpt>
      <trkpt lat="44.6649" lon="4.28897">
        <ele>307.5</ele>
        <time>2022-06-10T12:33:18Z</time>
      </trkpt>
      <trkpt lat="44.66484" lon="4.28896">
        <ele>307.4</ele>
        <time>2022-06-10T12:33:19Z</time>
      </trkpt>
      <trkpt lat="44.66479" lon="4.28897">
        <ele>307.3</ele>
        <time>2022-06-10T12:33:20Z</time>
      </trkpt>
      <trkpt lat="44.66473" lon="4.28897">
        <ele>307.2</ele>
        <time>2022-06-10T12:33:21Z</time>
      </trkpt>
      <trkpt lat="44.66467" lon="4.28897">
        <ele>307.1</ele>
        <time>2022-06-10T12:33:22Z</time>
      </trkpt>
      <trkpt lat="44.66461" lon="4.28898">
        <ele>307</ele>
        <time>2022-06-10T12:33:23Z</time>
      </trkpt>
      <trkpt lat="44.66455" lon="4.28899">
        <ele>306.9</ele>
        <time>2022-06-10T12:33:24Z</time>
      </trkpt>
      <trkpt lat="44.66449" lon="4.289">
        <ele>306.8</ele>
        <time>2022-06-10T12:33:25Z</time>
      </trkpt>
      <trkpt lat="44.66443" lon="4.28902">
        <ele>306.7</ele>
        <time>2022-06-10T12:33:26Z</time>
      </trkpt>
      <trkpt lat="44.66437" lon="4.28904">
        <ele>306.7</ele>
        <time>2022-06-10T12:33:27Z</time>
      </trkpt>
      <trkpt lat="44.66431" lon="4.28906">
        <ele>306.6</ele>
        <time>2022-06-10T12:33:28Z</time>
      </trkpt>
      <trkpt lat="44.66425" lon="4.2891">
        <ele>306.5</ele>
        <time>2022-06-10T12:33:29Z</time>
      </trkpt>
      <trkpt lat="44.6642" lon="4.28914">
        <ele>306.4</ele>
        <time>2022-06-10T12:33:30Z</time>
      </trkpt>
      <trkpt lat="44.66414" lon="4.28919">
        <ele>306.2</ele>
        <time>2022-06-10T12:33:31Z</time>
      </trkpt>
      <trkpt lat="44.66408" lon="4.28924">
        <ele>306.1</ele>
        <time>2022-06-10T12:33:32Z</time>
      </trkpt>
      <trkpt lat="44.66403" lon="4.28929">
        <ele>306</ele>
        <time>2022-06-10T12:33:33Z</time>
      </trkpt>
      <trkpt lat="44.66398" lon="4.28935">
        <ele>305.9</ele>
        <time>2022-06-10T12:33:34Z</time>
      </trkpt>
      <trkpt lat="44.66393" lon="4.28941">
        <ele>305.8</ele>
        <time>2022-06-10T12:33:35Z</time>
      </trkpt>
      <trkpt lat="44.66388" lon="4.28947">
        <ele>305.8</ele>
        <time>2022-06-10T12:33:36Z</time>
      </trkpt>
      <trkpt lat="44.66384" lon="4.28953">
        <ele>305.7</ele>
        <time>2022-06-10T12:33:37Z</time>
      </trkpt>
      <trkpt lat="44.66379" lon="4.2896">
        <ele>305.7</ele>
        <time>2022-06-10T12:33:38Z</time>
      </trkpt>
      <trkpt lat="44.66375" lon="4.28967">
        <ele>305.7</ele>
        <time>2022-06-10T12:33:39Z</time>
      </trkpt>
      <trkpt lat="44.66372" lon="4.28975">
        <ele>305.7</ele>
        <time>2022-06-10T12:33:40Z</time>
      </trkpt>
      <trkpt lat="44.66369" lon="4.28982">
        <ele>305.6</ele>
        <time>2022-06-10T12:33:41Z</time>
      </trkpt>
      <trkpt lat="44.66366" lon="4.28991">
        <ele>305.5</ele>
        <time>2022-06-10T12:33:42Z</time>
      </trkpt>
      <trkpt lat="44.66362" lon="4.29">
        <ele>305.5</ele>
        <time>2022-06-10T12:33:43Z</time>
      </trkpt>
      <trkpt lat="44.66358" lon="4.29008">
        <ele>305.4</ele>
        <time>2022-06-10T12:33:44Z</time>
      </trkpt>
      <trkpt lat="44.66355" lon="4.29018">
        <ele>305.3</ele>
        <time>2022-06-10T12:33:45Z</time>
      </trkpt>
      <trkpt lat="44.66353" lon="4.29027">
        <ele>305.2</ele>
        <time>2022-06-10T12:33:46Z</time>
      </trkpt>
      <trkpt lat="44.6635" lon="4.29037">
        <ele>305</ele>
        <time>2022-06-10T12:33:47Z</time>
      </trkpt>
      <trkpt lat="44.66348" lon="4.29048">
        <ele>304.9</ele>
        <time>2022-06-10T12:33:48Z</time>
      </trkpt>
      <trkpt lat="44.66347" lon="4.29057">
        <ele>304.8</ele>
        <time>2022-06-10T12:33:49Z</time>
      </trkpt>
      <trkpt lat="44.66345" lon="4.29068">
        <ele>304.8</ele>
        <time>2022-06-10T12:33:50Z</time>
      </trkpt>
      <trkpt lat="44.66344" lon="4.29078">
        <ele>304.7</ele>
        <time>2022-06-10T12:33:51Z</time>
      </trkpt>
      <trkpt lat="44.66343" lon="4.29089">
        <ele>304.7</ele>
        <time>2022-06-10T12:33:52Z</time>
      </trkpt>
      <trkpt lat="44.66342" lon="4.291">
        <ele>304.6</ele>
        <time>2022-06-10T12:33:53Z</time>
      </trkpt>
      <trkpt lat="44.66342" lon="4.29111">
        <ele>304.6</ele>
        <time>2022-06-10T12:33:54Z</time>
      </trkpt>
      <trkpt lat="44.6634" lon="4.29123">
        <ele>304.6</ele>
        <time>2022-06-10T12:33:55Z</time>
      </trkpt>
      <trkpt lat="44.66339" lon="4.29133">
        <ele>304.6</ele>
        <time>2022-06-10T12:33:56Z</time>
      </trkpt>
      <trkpt lat="44.66338" lon="4.29144">
        <ele>304.6</ele>
        <time>2022-06-10T12:33:57Z</time>
      </trkpt>
      <trkpt lat="44.66337" lon="4.29154">
        <ele>304.6</ele>
        <time>2022-06-10T12:33:58Z</time>
      </trkpt>
      <trkpt lat="44.66335" lon="4.29165">
        <ele>304.6</ele>
        <time>2022-06-10T12:33:59Z</time>
      </trkpt>
      <trkpt lat="44.66334" lon="4.29176">
        <ele>304.5</ele>
        <time>2022-06-10T12:34:00Z</time>
      </trkpt>
      <trkpt lat="44.66332" lon="4.29187">
        <ele>304.5</ele>
        <time>2022-06-10T12:34:01Z</time>
      </trkpt>
      <trkpt lat="44.6633" lon="4.29198">
        <ele>304.5</ele>
        <time>2022-06-10T12:34:02Z</time>
      </trkpt>
      <trkpt lat="44.66329" lon="4.2921">
        <ele>304.4</ele>
        <time>2022-06-10T12:34:03Z</time>
      </trkpt>
      <trkpt lat="44.66328" lon="4.29221">
        <ele>304.4</ele>
        <time>2022-06-10T12:34:04Z</time>
      </trkpt>
      <trkpt lat="44.66326" lon="4.29232">
        <ele>304.3</ele>
        <time>2022-06-10T12:34:05Z</time>
      </trkpt>
      <trkpt lat="44.66325" lon="4.29243">
        <ele>304.2</ele>
        <time>2022-06-10T12:34:06Z</time>
      </trkpt>
      <trkpt lat="44.66324" lon="4.29253">
        <ele>304.1</ele>
        <time>2022-06-10T12:34:07Z</time>
      </trkpt>
      <trkpt lat="44.66323" lon="4.29263">
        <ele>304.1</ele>
        <time>2022-06-10T12:34:08Z</time>
      </trkpt>
      <trkpt lat="44.66322" lon="4.29274">
        <ele>304</ele>
        <time>2022-06-10T12:34:09Z</time>
      </trkpt>
      <trkpt lat="44.66322" lon="4.29283">
        <ele>304</ele>
        <time>2022-06-10T12:34:10Z</time>
      </trkpt>
      <trkpt lat="44.66321" lon="4.29293">
        <ele>303.9</ele>
        <time>2022-06-10T12:34:11Z</time>
      </trkpt>
      <trkpt lat="44.66321" lon="4.29303">
        <ele>303.9</ele>
        <time>2022-06-10T12:34:12Z</time>
      </trkpt>
      <trkpt lat="44.66321" lon="4.29313">
        <ele>303.9</ele>
        <time>2022-06-10T12:34:13Z</time>
      </trkpt>
      <trkpt lat="44.66321" lon="4.29322">
        <ele>303.9</ele>
        <time>2022-06-10T12:34:14Z</time>
      </trkpt>
      <trkpt lat="44.66322" lon="4.29331">
        <ele>303.9</ele>
        <time>2022-06-10T12:34:15Z</time>
      </trkpt>
      <trkpt lat="44.66322" lon="4.29341">
        <ele>303.9</ele>
        <time>2022-06-10T12:34:16Z</time>
      </trkpt>
      <trkpt lat="44.66325" lon="4.2935">
        <ele>303.8</ele>
        <time>2022-06-10T12:34:17Z</time>
      </trkpt>
      <trkpt lat="44.66329" lon="4.29358">
        <ele>303.8</ele>
        <time>2022-06-10T12:34:18Z</time>
      </trkpt>
      <trkpt lat="44.66334" lon="4.29365">
        <ele>303.8</ele>
        <time>2022-06-10T12:34:19Z</time>
      </trkpt>
      <trkpt lat="44.66339" lon="4.29372">
        <ele>303.7</ele>
        <time>2022-06-10T12:34:20Z</time>
      </trkpt>
      <trkpt lat="44.66345" lon="4.29379">
        <ele>303.7</ele>
        <time>2022-06-10T12:34:21Z</time>
      </trkpt>
      <trkpt lat="44.6635" lon="4.29386">
        <ele>303.6</ele>
        <time>2022-06-10T12:34:22Z</time>
      </trkpt>
      <trkpt lat="44.66354" lon="4.29395">
        <ele>303.6</ele>
        <time>2022-06-10T12:34:23Z</time>
      </trkpt>
      <trkpt lat="44.66357" lon="4.29404">
        <ele>303.5</ele>
        <time>2022-06-10T12:34:24Z</time>
      </trkpt>
      <trkpt lat="44.66359" lon="4.29414">
        <ele>303.4</ele>
        <time>2022-06-10T12:34:25Z</time>
      </trkpt>
      <trkpt lat="44.6636" lon="4.29425">
        <ele>303.3</ele>
        <time>2022-06-10T12:34:26Z</time>
      </trkpt>
      <trkpt lat="44.6636" lon="4.29435">
        <ele>303.2</ele>
        <time>2022-06-10T12:34:27Z</time>
      </trkpt>
      <trkpt lat="44.66359" lon="4.29446">
        <ele>303.1</ele>
        <time>2022-06-10T12:34:28Z</time>
      </trkpt>
      <trkpt lat="44.66358" lon="4.29456">
        <ele>303.1</ele>
        <time>2022-06-10T12:34:29Z</time>
      </trkpt>
      <trkpt lat="44.66358" lon="4.29467">
        <ele>303</ele>
        <time>2022-06-10T12:34:30Z</time>
      </trkpt>
      <trkpt lat="44.66358" lon="4.29477">
        <ele>302.9</ele>
        <time>2022-06-10T12:34:31Z</time>
      </trkpt>
      <trkpt lat="44.66357" lon="4.29488">
        <ele>302.8</ele>
        <time>2022-06-10T12:34:32Z</time>
      </trkpt>
      <trkpt lat="44.66356" lon="4.29499">
        <ele>302.7</ele>
        <time>2022-06-10T12:34:33Z</time>
      </trkpt>
      <trkpt lat="44.66356" lon="4.2951">
        <ele>302.6</ele>
        <time>2022-06-10T12:34:34Z</time>
      </trkpt>
      <trkpt lat="44.66355" lon="4.29521">
        <ele>302.5</ele>
        <time>2022-06-10T12:34:35Z</time>
      </trkpt>
      <trkpt lat="44.66354" lon="4.29532">
        <ele>302.4</ele>
        <time>2022-06-10T12:34:36Z</time>
      </trkpt>
      <trkpt lat="44.66353" lon="4.29543">
        <ele>302.3</ele>
        <time>2022-06-10T12:34:37Z</time>
      </trkpt>
      <trkpt lat="44.66352" lon="4.29554">
        <ele>302.1</ele>
        <time>2022-06-10T12:34:38Z</time>
      </trkpt>
      <trkpt lat="44.6635" lon="4.29565">
        <ele>302</ele>
        <time>2022-06-10T12:34:39Z</time>
      </trkpt>
      <trkpt lat="44.66347" lon="4.29576">
        <ele>301.9</ele>
        <time>2022-06-10T12:34:40Z</time>
      </trkpt>
      <trkpt lat="44.66344" lon="4.29587">
        <ele>301.8</ele>
        <time>2022-06-10T12:34:41Z</time>
      </trkpt>
      <trkpt lat="44.6634" lon="4.29596">
        <ele>301.7</ele>
        <time>2022-06-10T12:34:42Z</time>
      </trkpt>
      <trkpt lat="44.66334" lon="4.29605">
        <ele>301.6</ele>
        <time>2022-06-10T12:34:43Z</time>
      </trkpt>
      <trkpt lat="44.66327" lon="4.29612">
        <ele>301.5</ele>
        <time>2022-06-10T12:34:44Z</time>
      </trkpt>
      <trkpt lat="44.66319" lon="4.29619">
        <ele>301.3</ele>
        <time>2022-06-10T12:34:45Z</time>
      </trkpt>
      <trkpt lat="44.66311" lon="4.29625">
        <ele>301.2</ele>
        <time>2022-06-10T12:34:46Z</time>
      </trkpt>
      <trkpt lat="44.66304" lon="4.29631">
        <ele>301</ele>
        <time>2022-06-10T12:34:47Z</time>
      </trkpt>
      <trkpt lat="44.66296" lon="4.29635">
        <ele>300.8</ele>
        <time>2022-06-10T12:34:48Z</time>
      </trkpt>
      <trkpt lat="44.66288" lon="4.29638">
        <ele>300.6</ele>
        <time>2022-06-10T12:34:49Z</time>
      </trkpt>
      <trkpt lat="44.66279" lon="4.2964">
        <ele>300.3</ele>
        <time>2022-06-10T12:34:50Z</time>
      </trkpt>
      <trkpt lat="44.66271" lon="4.29641">
        <ele>300.1</ele>
        <time>2022-06-10T12:34:51Z</time>
      </trkpt>
      <trkpt lat="44.66262" lon="4.29642">
        <ele>299.8</ele>
        <time>2022-06-10T12:34:52Z</time>
      </trkpt>
      <trkpt lat="44.66254" lon="4.29643">
        <ele>299.6</ele>
        <time>2022-06-10T12:34:53Z</time>
      </trkpt>
      <trkpt lat="44.66245" lon="4.29644">
        <ele>299.4</ele>
        <time>2022-06-10T12:34:54Z</time>
      </trkpt>
      <trkpt lat="44.66236" lon="4.29645">
        <ele>299.2</ele>
        <time>2022-06-10T12:34:55Z</time>
      </trkpt>
      <trkpt lat="44.66228" lon="4.29646">
        <ele>299</ele>
        <time>2022-06-10T12:34:56Z</time>
      </trkpt>
      <trkpt lat="44.66219" lon="4.29648">
        <ele>298.8</ele>
        <time>2022-06-10T12:34:57Z</time>
      </trkpt>
      <trkpt lat="44.66211" lon="4.29649">
        <ele>298.7</ele>
        <time>2022-06-10T12:34:58Z</time>
      </trkpt>
      <trkpt lat="44.66202" lon="4.2965">
        <ele>298.6</ele>
        <time>2022-06-10T12:34:59Z</time>
      </trkpt>
      <trkpt lat="44.66193" lon="4.29651">
        <ele>298.5</ele>
        <time>2022-06-10T12:35:00Z</time>
      </trkpt>
      <trkpt lat="44.66184" lon="4.29652">
        <ele>298.4</ele>
        <time>2022-06-10T12:35:01Z</time>
      </trkpt>
      <trkpt lat="44.66175" lon="4.29653">
        <ele>298.3</ele>
        <time>2022-06-10T12:35:02Z</time>
      </trkpt>
      <trkpt lat="44.66166" lon="4.29655">
        <ele>298.2</ele>
        <time>2022-06-10T12:35:03Z</time>
      </trkpt>
      <trkpt lat="44.66158" lon="4.29656">
        <ele>298.1</ele>
        <time>2022-06-10T12:35:04Z</time>
      </trkpt>
      <trkpt lat="44.66149" lon="4.29657">
        <ele>297.9</ele>
        <time>2022-06-10T12:35:05Z</time>
      </trkpt>
      <trkpt lat="44.66139" lon="4.29659">
        <ele>297.8</ele>
        <time>2022-06-10T12:35:06Z</time>
      </trkpt>
      <trkpt lat="44.6613" lon="4.2966">
        <ele>297.6</ele>
        <time>2022-06-10T12:35:07Z</time>
      </trkpt>
      <trkpt lat="44.66121" lon="4.29661">
        <ele>297.4</ele>
        <time>2022-06-10T12:35:08Z</time>
      </trkpt>
      <trkpt lat="44.66111" lon="4.29662">
        <ele>297.3</ele>
        <time>2022-06-10T12:35:09Z</time>
      </trkpt>
      <trkpt lat="44.66102" lon="4.29664">
        <ele>297.1</ele>
        <time>2022-06-10T12:35:10Z</time>
      </trkpt>
      <trkpt lat="44.66093" lon="4.29665">
        <ele>297</ele>
        <time>2022-06-10T12:35:11Z</time>
      </trkpt>
      <trkpt lat="44.66084" lon="4.29666">
        <ele>296.8</ele>
        <time>2022-06-10T12:35:12Z</time>
      </trkpt>
      <trkpt lat="44.66075" lon="4.29667">
        <ele>296.7</ele>
        <time>2022-06-10T12:35:13Z</time>
      </trkpt>
      <trkpt lat="44.66066" lon="4.29669">
        <ele>296.5</ele>
        <time>2022-06-10T12:35:14Z</time>
      </trkpt>
      <trkpt lat="44.66057" lon="4.2967">
        <ele>296.4</ele>
        <time>2022-06-10T12:35:15Z</time>
      </trkpt>
      <trkpt lat="44.66049" lon="4.29671">
        <ele>296.3</ele>
        <time>2022-06-10T12:35:16Z</time>
      </trkpt>
      <trkpt lat="44.6604" lon="4.29673">
        <ele>296.1</ele>
        <time>2022-06-10T12:35:17Z</time>
      </trkpt>
      <trkpt lat="44.66031" lon="4.29674">
        <ele>295.9</ele>
        <time>2022-06-10T12:35:18Z</time>
      </trkpt>
      <trkpt lat="44.66023" lon="4.29675">
        <ele>295.7</ele>
        <time>2022-06-10T12:35:19Z</time>
      </trkpt>
      <trkpt lat="44.66014" lon="4.29676">
        <ele>295.5</ele>
        <time>2022-06-10T12:35:20Z</time>
      </trkpt>
      <trkpt lat="44.66006" lon="4.29678">
        <ele>295.4</ele>
        <time>2022-06-10T12:35:21Z</time>
      </trkpt>
      <trkpt lat="44.65997" lon="4.2968">
        <ele>295.3</ele>
        <time>2022-06-10T12:35:22Z</time>
      </trkpt>
      <trkpt lat="44.65988" lon="4.2968">
        <ele>295.1</ele>
        <time>2022-06-10T12:35:23Z</time>
      </trkpt>
      <trkpt lat="44.65979" lon="4.29681">
        <ele>295</ele>
        <time>2022-06-10T12:35:24Z</time>
      </trkpt>
      <trkpt lat="44.65971" lon="4.29683">
        <ele>294.8</ele>
        <time>2022-06-10T12:35:25Z</time>
      </trkpt>
      <trkpt lat="44.65962" lon="4.29684">
        <ele>294.6</ele>
        <time>2022-06-10T12:35:26Z</time>
      </trkpt>
      <trkpt lat="44.65954" lon="4.29685">
        <ele>294.4</ele>
        <time>2022-06-10T12:35:27Z</time>
      </trkpt>
      <trkpt lat="44.65946" lon="4.29686">
        <ele>294.3</ele>
        <time>2022-06-10T12:35:28Z</time>
      </trkpt>
      <trkpt lat="44.65937" lon="4.29687">
        <ele>294.2</ele>
        <time>2022-06-10T12:35:29Z</time>
      </trkpt>
      <trkpt lat="44.65928" lon="4.29688">
        <ele>294.1</ele>
        <time>2022-06-10T12:35:30Z</time>
      </trkpt>
      <trkpt lat="44.6592" lon="4.29689">
        <ele>294</ele>
        <time>2022-06-10T12:35:31Z</time>
      </trkpt>
      <trkpt lat="44.65912" lon="4.2969">
        <ele>293.9</ele>
        <time>2022-06-10T12:35:32Z</time>
      </trkpt>
      <trkpt lat="44.65904" lon="4.29692">
        <ele>293.8</ele>
        <time>2022-06-10T12:35:33Z</time>
      </trkpt>
      <trkpt lat="44.65896" lon="4.29692">
        <ele>293.8</ele>
        <time>2022-06-10T12:35:34Z</time>
      </trkpt>
      <trkpt lat="44.65889" lon="4.29693">
        <ele>293.9</ele>
        <time>2022-06-10T12:35:35Z</time>
      </trkpt>
      <trkpt lat="44.65881" lon="4.29694">
        <ele>294</ele>
        <time>2022-06-10T12:35:36Z</time>
      </trkpt>
      <trkpt lat="44.65874" lon="4.29694">
        <ele>294.1</ele>
        <time>2022-06-10T12:35:37Z</time>
      </trkpt>
      <trkpt lat="44.65867" lon="4.29695">
        <ele>294.2</ele>
        <time>2022-06-10T12:35:38Z</time>
      </trkpt>
      <trkpt lat="44.6586" lon="4.29695">
        <ele>294.3</ele>
        <time>2022-06-10T12:35:39Z</time>
      </trkpt>
      <trkpt lat="44.65854" lon="4.29695">
        <ele>294.5</ele>
        <time>2022-06-10T12:35:40Z</time>
      </trkpt>
      <trkpt lat="44.65848" lon="4.29696">
        <ele>294.5</ele>
        <time>2022-06-10T12:35:41Z</time>
      </trkpt>
      <trkpt lat="44.65842" lon="4.29697">
        <ele>294.5</ele>
        <time>2022-06-10T12:35:42Z</time>
      </trkpt>
      <trkpt lat="44.65836" lon="4.29697">
        <ele>294.5</ele>
        <time>2022-06-10T12:35:43Z</time>
      </trkpt>
      <trkpt lat="44.65829" lon="4.29698">
        <ele>294.6</ele>
        <time>2022-06-10T12:35:44Z</time>
      </trkpt>
      <trkpt lat="44.65823" lon="4.29699">
        <ele>294.6</ele>
        <time>2022-06-10T12:35:45Z</time>
      </trkpt>
      <trkpt lat="44.65817" lon="4.297">
        <ele>294.5</ele>
        <time>2022-06-10T12:35:46Z</time>
      </trkpt>
      <trkpt lat="44.65811" lon="4.29702">
        <ele>294.5</ele>
        <time>2022-06-10T12:35:47Z</time>
      </trkpt>
      <trkpt lat="44.65804" lon="4.29704">
        <ele>294.5</ele>
        <time>2022-06-10T12:35:48Z</time>
      </trkpt>
      <trkpt lat="44.65797" lon="4.29705">
        <ele>294.5</ele>
        <time>2022-06-10T12:35:49Z</time>
      </trkpt>
      <trkpt lat="44.65791" lon="4.29707">
        <ele>294.5</ele>
        <time>2022-06-10T12:35:50Z</time>
      </trkpt>
      <trkpt lat="44.65784" lon="4.2971">
        <ele>294.4</ele>
        <time>2022-06-10T12:35:51Z</time>
      </trkpt>
      <trkpt lat="44.65778" lon="4.29714">
        <ele>294.4</ele>
        <time>2022-06-10T12:35:52Z</time>
      </trkpt>
      <trkpt lat="44.65771" lon="4.29717">
        <ele>294.4</ele>
        <time>2022-06-10T12:35:53Z</time>
      </trkpt>
      <trkpt lat="44.65765" lon="4.29722">
        <ele>294.4</ele>
        <time>2022-06-10T12:35:54Z</time>
      </trkpt>
      <trkpt lat="44.65759" lon="4.29726">
        <ele>294.4</ele>
        <time>2022-06-10T12:35:55Z</time>
      </trkpt>
      <trkpt lat="44.65753" lon="4.29731">
        <ele>294.4</ele>
        <time>2022-06-10T12:35:56Z</time>
      </trkpt>
      <trkpt lat="44.65747" lon="4.29737">
        <ele>294.4</ele>
        <time>2022-06-10T12:35:57Z</time>
      </trkpt>
      <trkpt lat="44.65741" lon="4.29743">
        <ele>294.4</ele>
        <time>2022-06-10T12:35:58Z</time>
      </trkpt>
      <trkpt lat="44.65736" lon="4.2975">
        <ele>294.3</ele>
        <time>2022-06-10T12:35:59Z</time>
      </trkpt>
      <trkpt lat="44.65731" lon="4.29757">
        <ele>294.3</ele>
        <time>2022-06-10T12:36:00Z</time>
      </trkpt>
      <trkpt lat="44.65726" lon="4.29765">
        <ele>294.2</ele>
        <time>2022-06-10T12:36:01Z</time>
      </trkpt>
      <trkpt lat="44.65721" lon="4.29773">
        <ele>294.2</ele>
        <time>2022-06-10T12:36:02Z</time>
      </trkpt>
      <trkpt lat="44.65717" lon="4.2978">
        <ele>294.1</ele>
        <time>2022-06-10T12:36:03Z</time>
      </trkpt>
      <trkpt lat="44.65713" lon="4.29789">
        <ele>294</ele>
        <time>2022-06-10T12:36:04Z</time>
      </trkpt>
      <trkpt lat="44.65709" lon="4.29798">
        <ele>293.9</ele>
        <time>2022-06-10T12:36:05Z</time>
      </trkpt>
      <trkpt lat="44.65706" lon="4.29807">
        <ele>293.7</ele>
        <time>2022-06-10T12:36:06Z</time>
      </trkpt>
      <trkpt lat="44.65704" lon="4.29816">
        <ele>293.5</ele>
        <time>2022-06-10T12:36:07Z</time>
      </trkpt>
      <trkpt lat="44.65702" lon="4.29825">
        <ele>293.4</ele>
        <time>2022-06-10T12:36:08Z</time>
      </trkpt>
      <trkpt lat="44.657" lon="4.29836">
        <ele>293.2</ele>
        <time>2022-06-10T12:36:09Z</time>
      </trkpt>
      <trkpt lat="44.65697" lon="4.29847">
        <ele>292.9</ele>
        <time>2022-06-10T12:36:10Z</time>
      </trkpt>
      <trkpt lat="44.65695" lon="4.29858">
        <ele>292.7</ele>
        <time>2022-06-10T12:36:11Z</time>
      </trkpt>
      <trkpt lat="44.65692" lon="4.29869">
        <ele>292.6</ele>
        <time>2022-06-10T12:36:12Z</time>
      </trkpt>
      <trkpt lat="44.65691" lon="4.2988">
        <ele>292.4</ele>
        <time>2022-06-10T12:36:13Z</time>
      </trkpt>
      <trkpt lat="44.65689" lon="4.29891">
        <ele>292.3</ele>
        <time>2022-06-10T12:36:14Z</time>
      </trkpt>
      <trkpt lat="44.65689" lon="4.29902">
        <ele>292.2</ele>
        <time>2022-06-10T12:36:15Z</time>
      </trkpt>
      <trkpt lat="44.65689" lon="4.29912">
        <ele>292.2</ele>
        <time>2022-06-10T12:36:16Z</time>
      </trkpt>
      <trkpt lat="44.65689" lon="4.29924">
        <ele>292.1</ele>
        <time>2022-06-10T12:36:17Z</time>
      </trkpt>
      <trkpt lat="44.65688" lon="4.29936">
        <ele>292</ele>
        <time>2022-06-10T12:36:18Z</time>
      </trkpt>
      <trkpt lat="44.65688" lon="4.29948">
        <ele>291.9</ele>
        <time>2022-06-10T12:36:19Z</time>
      </trkpt>
      <trkpt lat="44.65688" lon="4.2996">
        <ele>291.9</ele>
        <time>2022-06-10T12:36:20Z</time>
      </trkpt>
      <trkpt lat="44.65687" lon="4.29971">
        <ele>291.8</ele>
        <time>2022-06-10T12:36:21Z</time>
      </trkpt>
      <trkpt lat="44.65686" lon="4.29983">
        <ele>291.7</ele>
        <time>2022-06-10T12:36:22Z</time>
      </trkpt>
      <trkpt lat="44.65684" lon="4.29995">
        <ele>291.7</ele>
        <time>2022-06-10T12:36:23Z</time>
      </trkpt>
      <trkpt lat="44.65682" lon="4.30006">
        <ele>291.6</ele>
        <time>2022-06-10T12:36:24Z</time>
      </trkpt>
      <trkpt lat="44.65679" lon="4.30018">
        <ele>291.6</ele>
        <time>2022-06-10T12:36:25Z</time>
      </trkpt>
      <trkpt lat="44.65676" lon="4.30029">
        <ele>291.6</ele>
        <time>2022-06-10T12:36:26Z</time>
      </trkpt>
      <trkpt lat="44.65673" lon="4.30039">
        <ele>291.6</ele>
        <time>2022-06-10T12:36:27Z</time>
      </trkpt>
      <trkpt lat="44.6567" lon="4.3005">
        <ele>291.6</ele>
        <time>2022-06-10T12:36:28Z</time>
      </trkpt>
      <trkpt lat="44.65666" lon="4.3006">
        <ele>291.5</ele>
        <time>2022-06-10T12:36:29Z</time>
      </trkpt>
      <trkpt lat="44.65662" lon="4.3007">
        <ele>291.5</ele>
        <time>2022-06-10T12:36:30Z</time>
      </trkpt>
      <trkpt lat="44.65659" lon="4.3008">
        <ele>291.4</ele>
        <time>2022-06-10T12:36:31Z</time>
      </trkpt>
      <trkpt lat="44.65655" lon="4.3009">
        <ele>291.4</ele>
        <time>2022-06-10T12:36:32Z</time>
      </trkpt>
      <trkpt lat="44.65652" lon="4.301">
        <ele>291.4</ele>
        <time>2022-06-10T12:36:33Z</time>
      </trkpt>
      <trkpt lat="44.65648" lon="4.3011">
        <ele>291.3</ele>
        <time>2022-06-10T12:36:34Z</time>
      </trkpt>
      <trkpt lat="44.65644" lon="4.30119">
        <ele>291.3</ele>
        <time>2022-06-10T12:36:35Z</time>
      </trkpt>
      <trkpt lat="44.65641" lon="4.30128">
        <ele>291.2</ele>
        <time>2022-06-10T12:36:36Z</time>
      </trkpt>
      <trkpt lat="44.65637" lon="4.30138">
        <ele>291.2</ele>
        <time>2022-06-10T12:36:37Z</time>
      </trkpt>
      <trkpt lat="44.65633" lon="4.30148">
        <ele>291.1</ele>
        <time>2022-06-10T12:36:38Z</time>
      </trkpt>
      <trkpt lat="44.65629" lon="4.30158">
        <ele>291.1</ele>
        <time>2022-06-10T12:36:39Z</time>
      </trkpt>
      <trkpt lat="44.65625" lon="4.30168">
        <ele>291.1</ele>
        <time>2022-06-10T12:36:40Z</time>
      </trkpt>
      <trkpt lat="44.65621" lon="4.30179">
        <ele>291.1</ele>
        <time>2022-06-10T12:36:41Z</time>
      </trkpt>
      <trkpt lat="44.65618" lon="4.30189">
        <ele>291.1</ele>
        <time>2022-06-10T12:36:42Z</time>
      </trkpt>
      <trkpt lat="44.65614" lon="4.30199">
        <ele>291.1</ele>
        <time>2022-06-10T12:36:43Z</time>
      </trkpt>
      <trkpt lat="44.6561" lon="4.30209">
        <ele>291.1</ele>
        <time>2022-06-10T12:36:44Z</time>
      </trkpt>
      <trkpt lat="44.65606" lon="4.30219">
        <ele>291.1</ele>
        <time>2022-06-10T12:36:45Z</time>
      </trkpt>
      <trkpt lat="44.65602" lon="4.3023">
        <ele>291.1</ele>
        <time>2022-06-10T12:36:46Z</time>
      </trkpt>
      <trkpt lat="44.65599" lon="4.3024">
        <ele>291.1</ele>
        <time>2022-06-10T12:36:47Z</time>
      </trkpt>
      <trkpt lat="44.65596" lon="4.3025">
        <ele>291.1</ele>
        <time>2022-06-10T12:36:48Z</time>
      </trkpt>
      <trkpt lat="44.65593" lon="4.30261">
        <ele>291</ele>
        <time>2022-06-10T12:36:49Z</time>
      </trkpt>
      <trkpt lat="44.6559" lon="4.30272">
        <ele>290.9</ele>
        <time>2022-06-10T12:36:50Z</time>
      </trkpt>
      <trkpt lat="44.65588" lon="4.30283">
        <ele>290.9</ele>
        <time>2022-06-10T12:36:51Z</time>
      </trkpt>
      <trkpt lat="44.65587" lon="4.30294">
        <ele>290.8</ele>
        <time>2022-06-10T12:36:52Z</time>
      </trkpt>
      <trkpt lat="44.65585" lon="4.30306">
        <ele>290.7</ele>
        <time>2022-06-10T12:36:53Z</time>
      </trkpt>
      <trkpt lat="44.65584" lon="4.30317">
        <ele>290.5</ele>
        <time>2022-06-10T12:36:54Z</time>
      </trkpt>
      <trkpt lat="44.65584" lon="4.30329">
        <ele>290.4</ele>
        <time>2022-06-10T12:36:55Z</time>
      </trkpt>
      <trkpt lat="44.65583" lon="4.30341">
        <ele>290.3</ele>
        <time>2022-06-10T12:36:56Z</time>
      </trkpt>
      <trkpt lat="44.65584" lon="4.30353">
        <ele>290.3</ele>
        <time>2022-06-10T12:36:57Z</time>
      </trkpt>
      <trkpt lat="44.65584" lon="4.30365">
        <ele>290.2</ele>
        <time>2022-06-10T12:36:58Z</time>
      </trkpt>
      <trkpt lat="44.65585" lon="4.30376">
        <ele>290.2</ele>
        <time>2022-06-10T12:36:59Z</time>
      </trkpt>
      <trkpt lat="44.65586" lon="4.30387">
        <ele>290.1</ele>
        <time>2022-06-10T12:37:00Z</time>
      </trkpt>
      <trkpt lat="44.65588" lon="4.30398">
        <ele>290</ele>
        <time>2022-06-10T12:37:01Z</time>
      </trkpt>
      <trkpt lat="44.6559" lon="4.30409">
        <ele>289.9</ele>
        <time>2022-06-10T12:37:02Z</time>
      </trkpt>
      <trkpt lat="44.65593" lon="4.3042">
        <ele>289.8</ele>
        <time>2022-06-10T12:37:03Z</time>
      </trkpt>
      <trkpt lat="44.65596" lon="4.3043">
        <ele>289.8</ele>
        <time>2022-06-10T12:37:04Z</time>
      </trkpt>
      <trkpt lat="44.65599" lon="4.3044">
        <ele>289.7</ele>
        <time>2022-06-10T12:37:05Z</time>
      </trkpt>
      <trkpt lat="44.65603" lon="4.30451">
        <ele>289.6</ele>
        <time>2022-06-10T12:37:06Z</time>
      </trkpt>
      <trkpt lat="44.65607" lon="4.30461">
        <ele>289.6</ele>
        <time>2022-06-10T12:37:07Z</time>
      </trkpt>
      <trkpt lat="44.65611" lon="4.3047">
        <ele>289.5</ele>
        <time>2022-06-10T12:37:08Z</time>
      </trkpt>
      <trkpt lat="44.65615" lon="4.30479">
        <ele>289.4</ele>
        <time>2022-06-10T12:37:09Z</time>
      </trkpt>
      <trkpt lat="44.6562" lon="4.30488">
        <ele>289.3</ele>
        <time>2022-06-10T12:37:10Z</time>
      </trkpt>
      <trkpt lat="44.65624" lon="4.30497">
        <ele>289.3</ele>
        <time>2022-06-10T12:37:11Z</time>
      </trkpt>
      <trkpt lat="44.65629" lon="4.30505">
        <ele>289.2</ele>
        <time>2022-06-10T12:37:12Z</time>
      </trkpt>
      <trkpt lat="44.65634" lon="4.30513">
        <ele>289.2</ele>
        <time>2022-06-10T12:37:13Z</time>
      </trkpt>
      <trkpt lat="44.65639" lon="4.3052">
        <ele>289.1</ele>
        <time>2022-06-10T12:37:14Z</time>
      </trkpt>
      <trkpt lat="44.65668" lon="4.30561">
        <ele>288.7</ele>
        <time>2022-06-10T12:37:21Z</time>
      </trkpt>
      <trkpt lat="44.65676" lon="4.30569">
        <ele>288.6</ele>
        <time>2022-06-10T12:37:22Z</time>
      </trkpt>
      <trkpt lat="44.6568" lon="4.30572">
        <ele>288.6</ele>
        <time>2022-06-10T12:37:23Z</time>
      </trkpt>
      <trkpt lat="44.65686" lon="4.30576">
        <ele>288.5</ele>
        <time>2022-06-10T12:37:24Z</time>
      </trkpt>
      <trkpt lat="44.6569" lon="4.30579">
        <ele>288.4</ele>
        <time>2022-06-10T12:37:25Z</time>
      </trkpt>
      <trkpt lat="44.65694" lon="4.30583">
        <ele>288.3</ele>
        <time>2022-06-10T12:37:26Z</time>
      </trkpt>
      <trkpt lat="44.65699" lon="4.30586">
        <ele>288.2</ele>
        <time>2022-06-10T12:37:27Z</time>
      </trkpt>
      <trkpt lat="44.65704" lon="4.3059">
        <ele>288.1</ele>
        <time>2022-06-10T12:37:28Z</time>
      </trkpt>
      <trkpt lat="44.65709" lon="4.30594">
        <ele>287.9</ele>
        <time>2022-06-10T12:37:29Z</time>
      </trkpt>
      <trkpt lat="44.65715" lon="4.30598">
        <ele>287.7</ele>
        <time>2022-06-10T12:37:30Z</time>
      </trkpt>
      <trkpt lat="44.6572" lon="4.30602">
        <ele>287.6</ele>
        <time>2022-06-10T12:37:31Z</time>
      </trkpt>
      <trkpt lat="44.65726" lon="4.30606">
        <ele>287.4</ele>
        <time>2022-06-10T12:37:32Z</time>
      </trkpt>
      <trkpt lat="44.65731" lon="4.3061">
        <ele>287.3</ele>
        <time>2022-06-10T12:37:33Z</time>
      </trkpt>
      <trkpt lat="44.65737" lon="4.30615">
        <ele>287.2</ele>
        <time>2022-06-10T12:37:34Z</time>
      </trkpt>
      <trkpt lat="44.65742" lon="4.30619">
        <ele>287.1</ele>
        <time>2022-06-10T12:37:35Z</time>
      </trkpt>
      <trkpt lat="44.65747" lon="4.30624">
        <ele>287</ele>
        <time>2022-06-10T12:37:36Z</time>
      </trkpt>
      <trkpt lat="44.65751" lon="4.30629">
        <ele>286.9</ele>
        <time>2022-06-10T12:37:37Z</time>
      </trkpt>
      <trkpt lat="44.65756" lon="4.30633">
        <ele>286.8</ele>
        <time>2022-06-10T12:37:38Z</time>
      </trkpt>
      <trkpt lat="44.6576" lon="4.30638">
        <ele>286.7</ele>
        <time>2022-06-10T12:37:39Z</time>
      </trkpt>
      <trkpt lat="44.65764" lon="4.30643">
        <ele>286.6</ele>
        <time>2022-06-10T12:37:40Z</time>
      </trkpt>
      <trkpt lat="44.65768" lon="4.30649">
        <ele>286.6</ele>
        <time>2022-06-10T12:37:41Z</time>
      </trkpt>
      <trkpt lat="44.65772" lon="4.30654">
        <ele>286.5</ele>
        <time>2022-06-10T12:37:42Z</time>
      </trkpt>
      <trkpt lat="44.65776" lon="4.30661">
        <ele>286.4</ele>
        <time>2022-06-10T12:37:43Z</time>
      </trkpt>
      <trkpt lat="44.65781" lon="4.30667">
        <ele>286.3</ele>
        <time>2022-06-10T12:37:44Z</time>
      </trkpt>
      <trkpt lat="44.65785" lon="4.30673">
        <ele>286.3</ele>
        <time>2022-06-10T12:37:45Z</time>
      </trkpt>
      <trkpt lat="44.65789" lon="4.30679">
        <ele>286.2</ele>
        <time>2022-06-10T12:37:46Z</time>
      </trkpt>
      <trkpt lat="44.65793" lon="4.30687">
        <ele>286.2</ele>
        <time>2022-06-10T12:37:47Z</time>
      </trkpt>
      <trkpt lat="44.65797" lon="4.30694">
        <ele>286.2</ele>
        <time>2022-06-10T12:37:48Z</time>
      </trkpt>
      <trkpt lat="44.65801" lon="4.30701">
        <ele>286.2</ele>
        <time>2022-06-10T12:37:49Z</time>
      </trkpt>
      <trkpt lat="44.65805" lon="4.30709">
        <ele>286.2</ele>
        <time>2022-06-10T12:37:50Z</time>
      </trkpt>
      <trkpt lat="44.65809" lon="4.30717">
        <ele>286.3</ele>
        <time>2022-06-10T12:37:51Z</time>
      </trkpt>
      <trkpt lat="44.65812" lon="4.30725">
        <ele>286.3</ele>
        <time>2022-06-10T12:37:52Z</time>
      </trkpt>
      <trkpt lat="44.65815" lon="4.30734">
        <ele>286.3</ele>
        <time>2022-06-10T12:37:53Z</time>
      </trkpt>
      <trkpt lat="44.65819" lon="4.30742">
        <ele>286.4</ele>
        <time>2022-06-10T12:37:54Z</time>
      </trkpt>
      <trkpt lat="44.65822" lon="4.30749">
        <ele>286.4</ele>
        <time>2022-06-10T12:37:55Z</time>
      </trkpt>
      <trkpt lat="44.65825" lon="4.30757">
        <ele>286.4</ele>
        <time>2022-06-10T12:37:56Z</time>
      </trkpt>
      <trkpt lat="44.65828" lon="4.30766">
        <ele>286.5</ele>
        <time>2022-06-10T12:37:57Z</time>
      </trkpt>
      <trkpt lat="44.6583" lon="4.30774">
        <ele>286.5</ele>
        <time>2022-06-10T12:37:58Z</time>
      </trkpt>
      <trkpt lat="44.65833" lon="4.30782">
        <ele>286.5</ele>
        <time>2022-06-10T12:37:59Z</time>
      </trkpt>
      <trkpt lat="44.65835" lon="4.3079">
        <ele>286.6</ele>
        <time>2022-06-10T12:38:00Z</time>
      </trkpt>
      <trkpt lat="44.65837" lon="4.30798">
        <ele>286.6</ele>
        <time>2022-06-10T12:38:01Z</time>
      </trkpt>
      <trkpt lat="44.65839" lon="4.30806">
        <ele>286.7</ele>
        <time>2022-06-10T12:38:02Z</time>
      </trkpt>
      <trkpt lat="44.65841" lon="4.30814">
        <ele>286.7</ele>
        <time>2022-06-10T12:38:03Z</time>
      </trkpt>
      <trkpt lat="44.65843" lon="4.30822">
        <ele>286.8</ele>
        <time>2022-06-10T12:38:04Z</time>
      </trkpt>
      <trkpt lat="44.65844" lon="4.3083">
        <ele>286.8</ele>
        <time>2022-06-10T12:38:05Z</time>
      </trkpt>
      <trkpt lat="44.65846" lon="4.30839">
        <ele>286.8</ele>
        <time>2022-06-10T12:38:06Z</time>
      </trkpt>
      <trkpt lat="44.65847" lon="4.30847">
        <ele>286.8</ele>
        <time>2022-06-10T12:38:07Z</time>
      </trkpt>
      <trkpt lat="44.65848" lon="4.30855">
        <ele>286.9</ele>
        <time>2022-06-10T12:38:08Z</time>
      </trkpt>
      <trkpt lat="44.65849" lon="4.30863">
        <ele>286.8</ele>
        <time>2022-06-10T12:38:09Z</time>
      </trkpt>
      <trkpt lat="44.6585" lon="4.30872">
        <ele>286.8</ele>
        <time>2022-06-10T12:38:10Z</time>
      </trkpt>
      <trkpt lat="44.65851" lon="4.3088">
        <ele>286.8</ele>
        <time>2022-06-10T12:38:11Z</time>
      </trkpt>
      <trkpt lat="44.65852" lon="4.30889">
        <ele>286.8</ele>
        <time>2022-06-10T12:38:12Z</time>
      </trkpt>
      <trkpt lat="44.65853" lon="4.30898">
        <ele>286.7</ele>
        <time>2022-06-10T12:38:13Z</time>
      </trkpt>
      <trkpt lat="44.65854" lon="4.30908">
        <ele>286.6</ele>
        <time>2022-06-10T12:38:14Z</time>
      </trkpt>
      <trkpt lat="44.65855" lon="4.30917">
        <ele>286.5</ele>
        <time>2022-06-10T12:38:15Z</time>
      </trkpt>
      <trkpt lat="44.65856" lon="4.30926">
        <ele>286.5</ele>
        <time>2022-06-10T12:38:16Z</time>
      </trkpt>
      <trkpt lat="44.65857" lon="4.30935">
        <ele>286.4</ele>
        <time>2022-06-10T12:38:17Z</time>
      </trkpt>
      <trkpt lat="44.65857" lon="4.30944">
        <ele>286.4</ele>
        <time>2022-06-10T12:38:18Z</time>
      </trkpt>
      <trkpt lat="44.65858" lon="4.30953">
        <ele>286.4</ele>
        <time>2022-06-10T12:38:19Z</time>
      </trkpt>
      <trkpt lat="44.65859" lon="4.30963">
        <ele>286.3</ele>
        <time>2022-06-10T12:38:20Z</time>
      </trkpt>
      <trkpt lat="44.65859" lon="4.30973">
        <ele>286.3</ele>
        <time>2022-06-10T12:38:21Z</time>
      </trkpt>
      <trkpt lat="44.6586" lon="4.30983">
        <ele>286.2</ele>
        <time>2022-06-10T12:38:22Z</time>
      </trkpt>
      <trkpt lat="44.6586" lon="4.30992">
        <ele>286.1</ele>
        <time>2022-06-10T12:38:23Z</time>
      </trkpt>
      <trkpt lat="44.6586" lon="4.31003">
        <ele>286</ele>
        <time>2022-06-10T12:38:24Z</time>
      </trkpt>
      <trkpt lat="44.6586" lon="4.31013">
        <ele>285.8</ele>
        <time>2022-06-10T12:38:25Z</time>
      </trkpt>
      <trkpt lat="44.6586" lon="4.31024">
        <ele>285.6</ele>
        <time>2022-06-10T12:38:26Z</time>
      </trkpt>
      <trkpt lat="44.65859" lon="4.31035">
        <ele>285.5</ele>
        <time>2022-06-10T12:38:27Z</time>
      </trkpt>
      <trkpt lat="44.65858" lon="4.31046">
        <ele>285.3</ele>
        <time>2022-06-10T12:38:28Z</time>
      </trkpt>
      <trkpt lat="44.65857" lon="4.31058">
        <ele>285.2</ele>
        <time>2022-06-10T12:38:29Z</time>
      </trkpt>
      <trkpt lat="44.65855" lon="4.31069">
        <ele>285</ele>
        <time>2022-06-10T12:38:30Z</time>
      </trkpt>
      <trkpt lat="44.65854" lon="4.3108">
        <ele>284.9</ele>
        <time>2022-06-10T12:38:31Z</time>
      </trkpt>
      <trkpt lat="44.65852" lon="4.3109">
        <ele>284.7</ele>
        <time>2022-06-10T12:38:32Z</time>
      </trkpt>
      <trkpt lat="44.6585" lon="4.31101">
        <ele>284.5</ele>
        <time>2022-06-10T12:38:33Z</time>
      </trkpt>
      <trkpt lat="44.65848" lon="4.31112">
        <ele>284.4</ele>
        <time>2022-06-10T12:38:34Z</time>
      </trkpt>
      <trkpt lat="44.65846" lon="4.31123">
        <ele>284.2</ele>
        <time>2022-06-10T12:38:35Z</time>
      </trkpt>
      <trkpt lat="44.65845" lon="4.31134">
        <ele>284</ele>
        <time>2022-06-10T12:38:36Z</time>
      </trkpt>
      <trkpt lat="44.65843" lon="4.31145">
        <ele>283.8</ele>
        <time>2022-06-10T12:38:37Z</time>
      </trkpt>
      <trkpt lat="44.65841" lon="4.31156">
        <ele>283.7</ele>
        <time>2022-06-10T12:38:38Z</time>
      </trkpt>
      <trkpt lat="44.65839" lon="4.31167">
        <ele>283.5</ele>
        <time>2022-06-10T12:38:39Z</time>
      </trkpt>
      <trkpt lat="44.65838" lon="4.31178">
        <ele>283.4</ele>
        <time>2022-06-10T12:38:40Z</time>
      </trkpt>
      <trkpt lat="44.65836" lon="4.31189">
        <ele>283.3</ele>
        <time>2022-06-10T12:38:41Z</time>
      </trkpt>
      <trkpt lat="44.65834" lon="4.31201">
        <ele>283.2</ele>
        <time>2022-06-10T12:38:42Z</time>
      </trkpt>
      <trkpt lat="44.65833" lon="4.31212">
        <ele>283.1</ele>
        <time>2022-06-10T12:38:43Z</time>
      </trkpt>
      <trkpt lat="44.65831" lon="4.31224">
        <ele>283</ele>
        <time>2022-06-10T12:38:44Z</time>
      </trkpt>
      <trkpt lat="44.65829" lon="4.31235">
        <ele>282.9</ele>
        <time>2022-06-10T12:38:45Z</time>
      </trkpt>
      <trkpt lat="44.65826" lon="4.31246">
        <ele>282.8</ele>
        <time>2022-06-10T12:38:46Z</time>
      </trkpt>
      <trkpt lat="44.65824" lon="4.31257">
        <ele>282.8</ele>
        <time>2022-06-10T12:38:47Z</time>
      </trkpt>
      <trkpt lat="44.65822" lon="4.31268">
        <ele>282.7</ele>
        <time>2022-06-10T12:38:48Z</time>
      </trkpt>
      <trkpt lat="44.6582" lon="4.31279">
        <ele>282.6</ele>
        <time>2022-06-10T12:38:49Z</time>
      </trkpt>
      <trkpt lat="44.65818" lon="4.31291">
        <ele>282.5</ele>
        <time>2022-06-10T12:38:50Z</time>
      </trkpt>
      <trkpt lat="44.65816" lon="4.31302">
        <ele>282.4</ele>
        <time>2022-06-10T12:38:51Z</time>
      </trkpt>
      <trkpt lat="44.65814" lon="4.31313">
        <ele>282.3</ele>
        <time>2022-06-10T12:38:52Z</time>
      </trkpt>
      <trkpt lat="44.65812" lon="4.31324">
        <ele>282.2</ele>
        <time>2022-06-10T12:38:53Z</time>
      </trkpt>
      <trkpt lat="44.6581" lon="4.31335">
        <ele>282.1</ele>
        <time>2022-06-10T12:38:54Z</time>
      </trkpt>
      <trkpt lat="44.65808" lon="4.31346">
        <ele>282.1</ele>
        <time>2022-06-10T12:38:55Z</time>
      </trkpt>
      <trkpt lat="44.65806" lon="4.31357">
        <ele>282</ele>
        <time>2022-06-10T12:38:56Z</time>
      </trkpt>
      <trkpt lat="44.65804" lon="4.31368">
        <ele>282</ele>
        <time>2022-06-10T12:38:57Z</time>
      </trkpt>
      <trkpt lat="44.65802" lon="4.31379">
        <ele>282</ele>
        <time>2022-06-10T12:38:58Z</time>
      </trkpt>
      <trkpt lat="44.658" lon="4.31391">
        <ele>281.9</ele>
        <time>2022-06-10T12:38:59Z</time>
      </trkpt>
      <trkpt lat="44.65798" lon="4.31403">
        <ele>281.9</ele>
        <time>2022-06-10T12:39:00Z</time>
      </trkpt>
      <trkpt lat="44.65796" lon="4.31414">
        <ele>281.9</ele>
        <time>2022-06-10T12:39:01Z</time>
      </trkpt>
      <trkpt lat="44.65794" lon="4.31425">
        <ele>281.8</ele>
        <time>2022-06-10T12:39:02Z</time>
      </trkpt>
      <trkpt lat="44.65792" lon="4.31436">
        <ele>281.8</ele>
        <time>2022-06-10T12:39:03Z</time>
      </trkpt>
      <trkpt lat="44.65789" lon="4.31448">
        <ele>281.7</ele>
        <time>2022-06-10T12:39:04Z</time>
      </trkpt>
      <trkpt lat="44.65786" lon="4.31459">
        <ele>281.6</ele>
        <time>2022-06-10T12:39:05Z</time>
      </trkpt>
      <trkpt lat="44.65783" lon="4.31469">
        <ele>281.4</ele>
        <time>2022-06-10T12:39:06Z</time>
      </trkpt>
      <trkpt lat="44.65779" lon="4.31479">
        <ele>281.2</ele>
        <time>2022-06-10T12:39:07Z</time>
      </trkpt>
      <trkpt lat="44.65775" lon="4.31489">
        <ele>281.1</ele>
        <time>2022-06-10T12:39:08Z</time>
      </trkpt>
      <trkpt lat="44.6577" lon="4.31499">
        <ele>280.9</ele>
        <time>2022-06-10T12:39:09Z</time>
      </trkpt>
      <trkpt lat="44.65764" lon="4.31508">
        <ele>280.8</ele>
        <time>2022-06-10T12:39:10Z</time>
      </trkpt>
      <trkpt lat="44.65758" lon="4.31516">
        <ele>280.7</ele>
        <time>2022-06-10T12:39:11Z</time>
      </trkpt>
      <trkpt lat="44.65752" lon="4.31525">
        <ele>280.6</ele>
        <time>2022-06-10T12:39:12Z</time>
      </trkpt>
      <trkpt lat="44.65745" lon="4.31534">
        <ele>280.4</ele>
        <time>2022-06-10T12:39:13Z</time>
      </trkpt>
      <trkpt lat="44.65739" lon="4.31542">
        <ele>280.3</ele>
        <time>2022-06-10T12:39:14Z</time>
      </trkpt>
      <trkpt lat="44.65733" lon="4.31551">
        <ele>280.1</ele>
        <time>2022-06-10T12:39:15Z</time>
      </trkpt>
      <trkpt lat="44.65726" lon="4.3156">
        <ele>279.8</ele>
        <time>2022-06-10T12:39:16Z</time>
      </trkpt>
      <trkpt lat="44.65719" lon="4.31569">
        <ele>279.6</ele>
        <time>2022-06-10T12:39:17Z</time>
      </trkpt>
      <trkpt lat="44.65713" lon="4.31577">
        <ele>279.4</ele>
        <time>2022-06-10T12:39:18Z</time>
      </trkpt>
      <trkpt lat="44.65707" lon="4.31586">
        <ele>279.1</ele>
        <time>2022-06-10T12:39:19Z</time>
      </trkpt>
      <trkpt lat="44.65701" lon="4.31595">
        <ele>278.9</ele>
        <time>2022-06-10T12:39:20Z</time>
      </trkpt>
      <trkpt lat="44.65694" lon="4.31603">
        <ele>278.7</ele>
        <time>2022-06-10T12:39:21Z</time>
      </trkpt>
      <trkpt lat="44.65688" lon="4.31612">
        <ele>278.4</ele>
        <time>2022-06-10T12:39:22Z</time>
      </trkpt>
      <trkpt lat="44.65682" lon="4.3162">
        <ele>278.3</ele>
        <time>2022-06-10T12:39:23Z</time>
      </trkpt>
      <trkpt lat="44.65675" lon="4.31629">
        <ele>278.1</ele>
        <time>2022-06-10T12:39:24Z</time>
      </trkpt>
      <trkpt lat="44.65669" lon="4.31639">
        <ele>277.9</ele>
        <time>2022-06-10T12:39:25Z</time>
      </trkpt>
      <trkpt lat="44.65662" lon="4.31648">
        <ele>277.7</ele>
        <time>2022-06-10T12:39:26Z</time>
      </trkpt>
      <trkpt lat="44.65656" lon="4.31658">
        <ele>277.6</ele>
        <time>2022-06-10T12:39:27Z</time>
      </trkpt>
      <trkpt lat="44.6565" lon="4.31667">
        <ele>277.4</ele>
        <time>2022-06-10T12:39:28Z</time>
      </trkpt>
      <trkpt lat="44.65644" lon="4.31676">
        <ele>277.3</ele>
        <time>2022-06-10T12:39:29Z</time>
      </trkpt>
      <trkpt lat="44.65637" lon="4.31685">
        <ele>277.1</ele>
        <time>2022-06-10T12:39:30Z</time>
      </trkpt>
      <trkpt lat="44.65631" lon="4.31694">
        <ele>277</ele>
        <time>2022-06-10T12:39:31Z</time>
      </trkpt>
      <trkpt lat="44.65625" lon="4.31703">
        <ele>276.9</ele>
        <time>2022-06-10T12:39:32Z</time>
      </trkpt>
      <trkpt lat="44.65618" lon="4.31711">
        <ele>276.8</ele>
        <time>2022-06-10T12:39:33Z</time>
      </trkpt>
      <trkpt lat="44.65612" lon="4.31719">
        <ele>276.7</ele>
        <time>2022-06-10T12:39:34Z</time>
      </trkpt>
      <trkpt lat="44.65605" lon="4.31727">
        <ele>276.6</ele>
        <time>2022-06-10T12:39:35Z</time>
      </trkpt>
      <trkpt lat="44.65599" lon="4.31734">
        <ele>276.5</ele>
        <time>2022-06-10T12:39:36Z</time>
      </trkpt>
      <trkpt lat="44.65592" lon="4.31741">
        <ele>276.4</ele>
        <time>2022-06-10T12:39:37Z</time>
      </trkpt>
      <trkpt lat="44.65585" lon="4.31747">
        <ele>276.3</ele>
        <time>2022-06-10T12:39:38Z</time>
      </trkpt>
      <trkpt lat="44.65578" lon="4.31753">
        <ele>276.2</ele>
        <time>2022-06-10T12:39:39Z</time>
      </trkpt>
      <trkpt lat="44.65571" lon="4.31759">
        <ele>276.1</ele>
        <time>2022-06-10T12:39:40Z</time>
      </trkpt>
      <trkpt lat="44.65564" lon="4.31765">
        <ele>276</ele>
        <time>2022-06-10T12:39:41Z</time>
      </trkpt>
      <trkpt lat="44.65557" lon="4.31772">
        <ele>276</ele>
        <time>2022-06-10T12:39:42Z</time>
      </trkpt>
      <trkpt lat="44.65551" lon="4.31778">
        <ele>275.9</ele>
        <time>2022-06-10T12:39:43Z</time>
      </trkpt>
      <trkpt lat="44.65544" lon="4.31784">
        <ele>275.9</ele>
        <time>2022-06-10T12:39:44Z</time>
      </trkpt>
      <trkpt lat="44.65538" lon="4.3179">
        <ele>275.9</ele>
        <time>2022-06-10T12:39:45Z</time>
      </trkpt>
      <trkpt lat="44.65531" lon="4.31796">
        <ele>275.9</ele>
        <time>2022-06-10T12:39:46Z</time>
      </trkpt>
      <trkpt lat="44.65525" lon="4.31802">
        <ele>275.8</ele>
        <time>2022-06-10T12:39:47Z</time>
      </trkpt>
      <trkpt lat="44.65518" lon="4.31808">
        <ele>275.8</ele>
        <time>2022-06-10T12:39:48Z</time>
      </trkpt>
      <trkpt lat="44.65512" lon="4.31815">
        <ele>275.8</ele>
        <time>2022-06-10T12:39:49Z</time>
      </trkpt>
      <trkpt lat="44.65505" lon="4.31821">
        <ele>275.8</ele>
        <time>2022-06-10T12:39:50Z</time>
      </trkpt>
      <trkpt lat="44.65498" lon="4.31827">
        <ele>275.7</ele>
        <time>2022-06-10T12:39:51Z</time>
      </trkpt>
      <trkpt lat="44.65492" lon="4.31833">
        <ele>275.7</ele>
        <time>2022-06-10T12:39:52Z</time>
      </trkpt>
      <trkpt lat="44.65485" lon="4.31839">
        <ele>275.7</ele>
        <time>2022-06-10T12:39:53Z</time>
      </trkpt>
      <trkpt lat="44.65478" lon="4.31844">
        <ele>275.7</ele>
        <time>2022-06-10T12:39:54Z</time>
      </trkpt>
      <trkpt lat="44.65472" lon="4.3185">
        <ele>275.7</ele>
        <time>2022-06-10T12:39:55Z</time>
      </trkpt>
      <trkpt lat="44.65466" lon="4.31855">
        <ele>275.6</ele>
        <time>2022-06-10T12:39:56Z</time>
      </trkpt>
      <trkpt lat="44.65459" lon="4.31859">
        <ele>275.6</ele>
        <time>2022-06-10T12:39:57Z</time>
      </trkpt>
      <trkpt lat="44.65454" lon="4.31864">
        <ele>275.6</ele>
        <time>2022-06-10T12:39:58Z</time>
      </trkpt>
      <trkpt lat="44.65448" lon="4.31869">
        <ele>275.5</ele>
        <time>2022-06-10T12:39:59Z</time>
      </trkpt>
      <trkpt lat="44.65442" lon="4.31874">
        <ele>275.5</ele>
        <time>2022-06-10T12:40:00Z</time>
      </trkpt>
      <trkpt lat="44.65437" lon="4.31879">
        <ele>275.5</ele>
        <time>2022-06-10T12:40:01Z</time>
      </trkpt>
      <trkpt lat="44.65431" lon="4.31884">
        <ele>275.4</ele>
        <time>2022-06-10T12:40:02Z</time>
      </trkpt>
      <trkpt lat="44.65424" lon="4.31889">
        <ele>275.4</ele>
        <time>2022-06-10T12:40:03Z</time>
      </trkpt>
      <trkpt lat="44.65418" lon="4.31894">
        <ele>275.3</ele>
        <time>2022-06-10T12:40:04Z</time>
      </trkpt>
      <trkpt lat="44.65413" lon="4.31899">
        <ele>275.3</ele>
        <time>2022-06-10T12:40:05Z</time>
      </trkpt>
      <trkpt lat="44.65408" lon="4.31904">
        <ele>275.2</ele>
        <time>2022-06-10T12:40:06Z</time>
      </trkpt>
      <trkpt lat="44.65403" lon="4.31909">
        <ele>275.2</ele>
        <time>2022-06-10T12:40:07Z</time>
      </trkpt>
      <trkpt lat="44.65398" lon="4.31913">
        <ele>275.1</ele>
        <time>2022-06-10T12:40:08Z</time>
      </trkpt>
      <trkpt lat="44.65393" lon="4.31919">
        <ele>275</ele>
        <time>2022-06-10T12:40:09Z</time>
      </trkpt>
      <trkpt lat="44.65388" lon="4.31924">
        <ele>275</ele>
        <time>2022-06-10T12:40:10Z</time>
      </trkpt>
      <trkpt lat="44.65382" lon="4.31929">
        <ele>274.9</ele>
        <time>2022-06-10T12:40:11Z</time>
      </trkpt>
      <trkpt lat="44.65377" lon="4.31933">
        <ele>274.9</ele>
        <time>2022-06-10T12:40:12Z</time>
      </trkpt>
      <trkpt lat="44.65371" lon="4.31938">
        <ele>274.8</ele>
        <time>2022-06-10T12:40:13Z</time>
      </trkpt>
      <trkpt lat="44.65365" lon="4.31943">
        <ele>274.7</ele>
        <time>2022-06-10T12:40:14Z</time>
      </trkpt>
      <trkpt lat="44.65359" lon="4.31948">
        <ele>274.7</ele>
        <time>2022-06-10T12:40:15Z</time>
      </trkpt>
      <trkpt lat="44.65354" lon="4.31953">
        <ele>274.6</ele>
        <time>2022-06-10T12:40:16Z</time>
      </trkpt>
      <trkpt lat="44.65347" lon="4.31958">
        <ele>274.5</ele>
        <time>2022-06-10T12:40:17Z</time>
      </trkpt>
      <trkpt lat="44.65341" lon="4.31963">
        <ele>274.5</ele>
        <time>2022-06-10T12:40:18Z</time>
      </trkpt>
      <trkpt lat="44.65335" lon="4.31968">
        <ele>274.4</ele>
        <time>2022-06-10T12:40:19Z</time>
      </trkpt>
      <trkpt lat="44.65329" lon="4.31973">
        <ele>274.3</ele>
        <time>2022-06-10T12:40:20Z</time>
      </trkpt>
      <trkpt lat="44.65323" lon="4.31978">
        <ele>274.1</ele>
        <time>2022-06-10T12:40:21Z</time>
      </trkpt>
      <trkpt lat="44.65318" lon="4.31983">
        <ele>274</ele>
        <time>2022-06-10T12:40:22Z</time>
      </trkpt>
      <trkpt lat="44.65312" lon="4.31989">
        <ele>273.9</ele>
        <time>2022-06-10T12:40:23Z</time>
      </trkpt>
      <trkpt lat="44.65306" lon="4.31994">
        <ele>273.8</ele>
        <time>2022-06-10T12:40:24Z</time>
      </trkpt>
      <trkpt lat="44.653" lon="4.31999">
        <ele>273.7</ele>
        <time>2022-06-10T12:40:25Z</time>
      </trkpt>
      <trkpt lat="44.65294" lon="4.32003">
        <ele>273.5</ele>
        <time>2022-06-10T12:40:26Z</time>
      </trkpt>
      <trkpt lat="44.65288" lon="4.32008">
        <ele>273.4</ele>
        <time>2022-06-10T12:40:27Z</time>
      </trkpt>
      <trkpt lat="44.65282" lon="4.32014">
        <ele>273.3</ele>
        <time>2022-06-10T12:40:28Z</time>
      </trkpt>
      <trkpt lat="44.65276" lon="4.3202">
        <ele>273.2</ele>
        <time>2022-06-10T12:40:29Z</time>
      </trkpt>
      <trkpt lat="44.6527" lon="4.32025">
        <ele>273</ele>
        <time>2022-06-10T12:40:30Z</time>
      </trkpt>
      <trkpt lat="44.65263" lon="4.3203">
        <ele>272.9</ele>
        <time>2022-06-10T12:40:31Z</time>
      </trkpt>
      <trkpt lat="44.65257" lon="4.32036">
        <ele>272.7</ele>
        <time>2022-06-10T12:40:32Z</time>
      </trkpt>
      <trkpt lat="44.65251" lon="4.32042">
        <ele>272.6</ele>
        <time>2022-06-10T12:40:33Z</time>
      </trkpt>
      <trkpt lat="44.65245" lon="4.32047">
        <ele>272.5</ele>
        <time>2022-06-10T12:40:34Z</time>
      </trkpt>
      <trkpt lat="44.65239" lon="4.32053">
        <ele>272.3</ele>
        <time>2022-06-10T12:40:35Z</time>
      </trkpt>
      <trkpt lat="44.65233" lon="4.32059">
        <ele>272.2</ele>
        <time>2022-06-10T12:40:36Z</time>
      </trkpt>
      <trkpt lat="44.65226" lon="4.32065">
        <ele>272</ele>
        <time>2022-06-10T12:40:37Z</time>
      </trkpt>
      <trkpt lat="44.6522" lon="4.32071">
        <ele>271.9</ele>
        <time>2022-06-10T12:40:38Z</time>
      </trkpt>
      <trkpt lat="44.65213" lon="4.32077">
        <ele>271.8</ele>
        <time>2022-06-10T12:40:39Z</time>
      </trkpt>
      <trkpt lat="44.65206" lon="4.32083">
        <ele>271.7</ele>
        <time>2022-06-10T12:40:40Z</time>
      </trkpt>
      <trkpt lat="44.65199" lon="4.32089">
        <ele>271.6</ele>
        <time>2022-06-10T12:40:41Z</time>
      </trkpt>
      <trkpt lat="44.65192" lon="4.32094">
        <ele>271.5</ele>
        <time>2022-06-10T12:40:42Z</time>
      </trkpt>
      <trkpt lat="44.65186" lon="4.32099">
        <ele>271.5</ele>
        <time>2022-06-10T12:40:43Z</time>
      </trkpt>
      <trkpt lat="44.65179" lon="4.32105">
        <ele>271.4</ele>
        <time>2022-06-10T12:40:44Z</time>
      </trkpt>
      <trkpt lat="44.65173" lon="4.3211">
        <ele>271.3</ele>
        <time>2022-06-10T12:40:45Z</time>
      </trkpt>
      <trkpt lat="44.65167" lon="4.32116">
        <ele>271.3</ele>
        <time>2022-06-10T12:40:46Z</time>
      </trkpt>
      <trkpt lat="44.65161" lon="4.32121">
        <ele>271.2</ele>
        <time>2022-06-10T12:40:47Z</time>
      </trkpt>
      <trkpt lat="44.65154" lon="4.32126">
        <ele>271.2</ele>
        <time>2022-06-10T12:40:48Z</time>
      </trkpt>
      <trkpt lat="44.65148" lon="4.32131">
        <ele>271.2</ele>
        <time>2022-06-10T12:40:49Z</time>
      </trkpt>
      <trkpt lat="44.65142" lon="4.32137">
        <ele>271.1</ele>
        <time>2022-06-10T12:40:50Z</time>
      </trkpt>
      <trkpt lat="44.65135" lon="4.32142">
        <ele>271</ele>
        <time>2022-06-10T12:40:51Z</time>
      </trkpt>
      <trkpt lat="44.65128" lon="4.32146">
        <ele>270.9</ele>
        <time>2022-06-10T12:40:52Z</time>
      </trkpt>
      <trkpt lat="44.65122" lon="4.32151">
        <ele>270.9</ele>
        <time>2022-06-10T12:40:53Z</time>
      </trkpt>
      <trkpt lat="44.65116" lon="4.32157">
        <ele>270.7</ele>
        <time>2022-06-10T12:40:54Z</time>
      </trkpt>
      <trkpt lat="44.6511" lon="4.32163">
        <ele>270.6</ele>
        <time>2022-06-10T12:40:55Z</time>
      </trkpt>
      <trkpt lat="44.65105" lon="4.32169">
        <ele>270.4</ele>
        <time>2022-06-10T12:40:56Z</time>
      </trkpt>
      <trkpt lat="44.65098" lon="4.32175">
        <ele>270.3</ele>
        <time>2022-06-10T12:40:57Z</time>
      </trkpt>
      <trkpt lat="44.65091" lon="4.32181">
        <ele>270.1</ele>
        <time>2022-06-10T12:40:58Z</time>
      </trkpt>
      <trkpt lat="44.65085" lon="4.32186">
        <ele>270</ele>
        <time>2022-06-10T12:40:59Z</time>
      </trkpt>
      <trkpt lat="44.65079" lon="4.32191">
        <ele>269.9</ele>
        <time>2022-06-10T12:41:00Z</time>
      </trkpt>
      <trkpt lat="44.65073" lon="4.32196">
        <ele>269.8</ele>
        <time>2022-06-10T12:41:01Z</time>
      </trkpt>
      <trkpt lat="44.65067" lon="4.32201">
        <ele>269.8</ele>
        <time>2022-06-10T12:41:02Z</time>
      </trkpt>
      <trkpt lat="44.65062" lon="4.32206">
        <ele>269.7</ele>
        <time>2022-06-10T12:41:03Z</time>
      </trkpt>
      <trkpt lat="44.65056" lon="4.32211">
        <ele>269.7</ele>
        <time>2022-06-10T12:41:04Z</time>
      </trkpt>
      <trkpt lat="44.65049" lon="4.32216">
        <ele>269.6</ele>
        <time>2022-06-10T12:41:05Z</time>
      </trkpt>
      <trkpt lat="44.65043" lon="4.32221">
        <ele>269.6</ele>
        <time>2022-06-10T12:41:06Z</time>
      </trkpt>
      <trkpt lat="44.65037" lon="4.32226">
        <ele>269.5</ele>
        <time>2022-06-10T12:41:07Z</time>
      </trkpt>
      <trkpt lat="44.65031" lon="4.32231">
        <ele>269.5</ele>
        <time>2022-06-10T12:41:08Z</time>
      </trkpt>
      <trkpt lat="44.65025" lon="4.32237">
        <ele>269.5</ele>
        <time>2022-06-10T12:41:09Z</time>
      </trkpt>
      <trkpt lat="44.6502" lon="4.32242">
        <ele>269.5</ele>
        <time>2022-06-10T12:41:10Z</time>
      </trkpt>
      <trkpt lat="44.65014" lon="4.32247">
        <ele>269.5</ele>
        <time>2022-06-10T12:41:11Z</time>
      </trkpt>
      <trkpt lat="44.65009" lon="4.32252">
        <ele>269.5</ele>
        <time>2022-06-10T12:41:12Z</time>
      </trkpt>
      <trkpt lat="44.65003" lon="4.32258">
        <ele>269.5</ele>
        <time>2022-06-10T12:41:13Z</time>
      </trkpt>
      <trkpt lat="44.64997" lon="4.32263">
        <ele>269.5</ele>
        <time>2022-06-10T12:41:14Z</time>
      </trkpt>
      <trkpt lat="44.64991" lon="4.32268">
        <ele>269.5</ele>
        <time>2022-06-10T12:41:15Z</time>
      </trkpt>
      <trkpt lat="44.64986" lon="4.32273">
        <ele>269.4</ele>
        <time>2022-06-10T12:41:16Z</time>
      </trkpt>
      <trkpt lat="44.6498" lon="4.32278">
        <ele>269.4</ele>
        <time>2022-06-10T12:41:17Z</time>
      </trkpt>
      <trkpt lat="44.64974" lon="4.32283">
        <ele>269.4</ele>
        <time>2022-06-10T12:41:18Z</time>
      </trkpt>
      <trkpt lat="44.64968" lon="4.32288">
        <ele>269.3</ele>
        <time>2022-06-10T12:41:19Z</time>
      </trkpt>
      <trkpt lat="44.64962" lon="4.32293">
        <ele>269.3</ele>
        <time>2022-06-10T12:41:20Z</time>
      </trkpt>
      <trkpt lat="44.64956" lon="4.32298">
        <ele>269.3</ele>
        <time>2022-06-10T12:41:21Z</time>
      </trkpt>
      <trkpt lat="44.6495" lon="4.32303">
        <ele>269.2</ele>
        <time>2022-06-10T12:41:22Z</time>
      </trkpt>
      <trkpt lat="44.64945" lon="4.32308">
        <ele>269.2</ele>
        <time>2022-06-10T12:41:23Z</time>
      </trkpt>
      <trkpt lat="44.64939" lon="4.32313">
        <ele>269.1</ele>
        <time>2022-06-10T12:41:24Z</time>
      </trkpt>
      <trkpt lat="44.64934" lon="4.32318">
        <ele>269</ele>
        <time>2022-06-10T12:41:25Z</time>
      </trkpt>
      <trkpt lat="44.64928" lon="4.32324">
        <ele>268.9</ele>
        <time>2022-06-10T12:41:26Z</time>
      </trkpt>
      <trkpt lat="44.64922" lon="4.3233">
        <ele>268.8</ele>
        <time>2022-06-10T12:41:27Z</time>
      </trkpt>
      <trkpt lat="44.64916" lon="4.32335">
        <ele>268.7</ele>
        <time>2022-06-10T12:41:28Z</time>
      </trkpt>
      <trkpt lat="44.64911" lon="4.32341">
        <ele>268.6</ele>
        <time>2022-06-10T12:41:29Z</time>
      </trkpt>
      <trkpt lat="44.64905" lon="4.32346">
        <ele>268.5</ele>
        <time>2022-06-10T12:41:30Z</time>
      </trkpt>
      <trkpt lat="44.649" lon="4.32352">
        <ele>268.5</ele>
        <time>2022-06-10T12:41:31Z</time>
      </trkpt>
      <trkpt lat="44.64894" lon="4.32357">
        <ele>268.4</ele>
        <time>2022-06-10T12:41:32Z</time>
      </trkpt>
      <trkpt lat="44.64888" lon="4.32363">
        <ele>268.4</ele>
        <time>2022-06-10T12:41:33Z</time>
      </trkpt>
      <trkpt lat="44.64882" lon="4.32368">
        <ele>268.3</ele>
        <time>2022-06-10T12:41:34Z</time>
      </trkpt>
      <trkpt lat="44.64876" lon="4.32373">
        <ele>268.3</ele>
        <time>2022-06-10T12:41:35Z</time>
      </trkpt>
      <trkpt lat="44.6487" lon="4.32377">
        <ele>268.2</ele>
        <time>2022-06-10T12:41:36Z</time>
      </trkpt>
      <trkpt lat="44.64864" lon="4.32382">
        <ele>268.2</ele>
        <time>2022-06-10T12:41:37Z</time>
      </trkpt>
      <trkpt lat="44.64859" lon="4.32387">
        <ele>268.2</ele>
        <time>2022-06-10T12:41:38Z</time>
      </trkpt>
      <trkpt lat="44.64853" lon="4.32392">
        <ele>268.1</ele>
        <time>2022-06-10T12:41:39Z</time>
      </trkpt>
      <trkpt lat="44.64847" lon="4.32397">
        <ele>268.1</ele>
        <time>2022-06-10T12:41:40Z</time>
      </trkpt>
      <trkpt lat="44.6484" lon="4.32403">
        <ele>268</ele>
        <time>2022-06-10T12:41:41Z</time>
      </trkpt>
      <trkpt lat="44.64835" lon="4.32408">
        <ele>268</ele>
        <time>2022-06-10T12:41:42Z</time>
      </trkpt>
      <trkpt lat="44.64829" lon="4.32413">
        <ele>267.9</ele>
        <time>2022-06-10T12:41:43Z</time>
      </trkpt>
      <trkpt lat="44.64823" lon="4.32418">
        <ele>267.9</ele>
        <time>2022-06-10T12:41:44Z</time>
      </trkpt>
      <trkpt lat="44.64818" lon="4.32423">
        <ele>267.9</ele>
        <time>2022-06-10T12:41:45Z</time>
      </trkpt>
      <trkpt lat="44.64812" lon="4.32429">
        <ele>267.8</ele>
        <time>2022-06-10T12:41:46Z</time>
      </trkpt>
      <trkpt lat="44.64806" lon="4.32434">
        <ele>267.8</ele>
        <time>2022-06-10T12:41:47Z</time>
      </trkpt>
      <trkpt lat="44.648" lon="4.32439">
        <ele>267.7</ele>
        <time>2022-06-10T12:41:48Z</time>
      </trkpt>
      <trkpt lat="44.64794" lon="4.32444">
        <ele>267.7</ele>
        <time>2022-06-10T12:41:49Z</time>
      </trkpt>
      <trkpt lat="44.64788" lon="4.32449">
        <ele>267.6</ele>
        <time>2022-06-10T12:41:50Z</time>
      </trkpt>
      <trkpt lat="44.64782" lon="4.32454">
        <ele>267.5</ele>
        <time>2022-06-10T12:41:51Z</time>
      </trkpt>
      <trkpt lat="44.64776" lon="4.3246">
        <ele>267.4</ele>
        <time>2022-06-10T12:41:52Z</time>
      </trkpt>
      <trkpt lat="44.6477" lon="4.32466">
        <ele>267.3</ele>
        <time>2022-06-10T12:41:53Z</time>
      </trkpt>
      <trkpt lat="44.64765" lon="4.32473">
        <ele>267.2</ele>
        <time>2022-06-10T12:41:54Z</time>
      </trkpt>
      <trkpt lat="44.64759" lon="4.3248">
        <ele>267.2</ele>
        <time>2022-06-10T12:41:55Z</time>
      </trkpt>
      <trkpt lat="44.64754" lon="4.32486">
        <ele>267.1</ele>
        <time>2022-06-10T12:41:56Z</time>
      </trkpt>
      <trkpt lat="44.64748" lon="4.32492">
        <ele>267</ele>
        <time>2022-06-10T12:41:57Z</time>
      </trkpt>
      <trkpt lat="44.64742" lon="4.32497">
        <ele>266.9</ele>
        <time>2022-06-10T12:41:58Z</time>
      </trkpt>
      <trkpt lat="44.64737" lon="4.32504">
        <ele>266.8</ele>
        <time>2022-06-10T12:41:59Z</time>
      </trkpt>
      <trkpt lat="44.6473" lon="4.3251">
        <ele>266.7</ele>
        <time>2022-06-10T12:42:00Z</time>
      </trkpt>
      <trkpt lat="44.64725" lon="4.32518">
        <ele>266.6</ele>
        <time>2022-06-10T12:42:01Z</time>
      </trkpt>
      <trkpt lat="44.6472" lon="4.32525">
        <ele>266.5</ele>
        <time>2022-06-10T12:42:02Z</time>
      </trkpt>
      <trkpt lat="44.64714" lon="4.32532">
        <ele>266.4</ele>
        <time>2022-06-10T12:42:03Z</time>
      </trkpt>
      <trkpt lat="44.64708" lon="4.32539">
        <ele>266.3</ele>
        <time>2022-06-10T12:42:04Z</time>
      </trkpt>
      <trkpt lat="44.64703" lon="4.32545">
        <ele>266.2</ele>
        <time>2022-06-10T12:42:05Z</time>
      </trkpt>
      <trkpt lat="44.64697" lon="4.32552">
        <ele>266.1</ele>
        <time>2022-06-10T12:42:06Z</time>
      </trkpt>
      <trkpt lat="44.64692" lon="4.32558">
        <ele>266.1</ele>
        <time>2022-06-10T12:42:07Z</time>
      </trkpt>
      <trkpt lat="44.64687" lon="4.32566">
        <ele>266</ele>
        <time>2022-06-10T12:42:08Z</time>
      </trkpt>
      <trkpt lat="44.64682" lon="4.32573">
        <ele>266</ele>
        <time>2022-06-10T12:42:09Z</time>
      </trkpt>
      <trkpt lat="44.64677" lon="4.3258">
        <ele>265.9</ele>
        <time>2022-06-10T12:42:10Z</time>
      </trkpt>
      <trkpt lat="44.64673" lon="4.32587">
        <ele>265.8</ele>
        <time>2022-06-10T12:42:11Z</time>
      </trkpt>
      <trkpt lat="44.64668" lon="4.32593">
        <ele>265.8</ele>
        <time>2022-06-10T12:42:12Z</time>
      </trkpt>
      <trkpt lat="44.64665" lon="4.32597">
        <ele>265.8</ele>
        <time>2022-06-10T12:42:13Z</time>
      </trkpt>
      <trkpt lat="44.64662" lon="4.32601">
        <ele>265.7</ele>
        <time>2022-06-10T12:42:14Z</time>
      </trkpt>
      <trkpt lat="44.6466" lon="4.32602">
        <ele>265.7</ele>
        <time>2022-06-10T12:42:15Z</time>
      </trkpt>
      <trkpt lat="44.6466" lon="4.32603">
        <ele>265.7</ele>
        <time>2022-06-10T12:42:16Z</time>
      </trkpt>
      <trkpt lat="44.6466" lon="4.32603">
        <ele>265.7</ele>
        <time>2022-06-10T12:42:17Z</time>
      </trkpt>
      <trkpt lat="44.6466" lon="4.32603">
        <ele>265.7</ele>
        <time>2022-06-10T12:42:18Z</time>
      </trkpt>
      <trkpt lat="44.64661" lon="4.32603">
        <ele>265.7</ele>
        <time>2022-06-10T12:42:19Z</time>
      </trkpt>
      <trkpt lat="44.64661" lon="4.32603">
        <ele>265.7</ele>
        <time>2022-06-10T12:42:20Z</time>
      </trkpt>
      <trkpt lat="44.64661" lon="4.32603">
        <ele>265.7</ele>
        <time>2022-06-10T12:42:21Z</time>
      </trkpt>
      <trkpt lat="44.64661" lon="4.32603">
        <ele>265.7</ele>
        <time>2022-06-10T12:42:22Z</time>
      </trkpt>
      <trkpt lat="44.64661" lon="4.32603">
        <ele>265.7</ele>
        <time>2022-06-10T12:42:23Z</time>
      </trkpt>
      <trkpt lat="44.64661" lon="4.32603">
        <ele>265.7</ele>
        <time>2022-06-10T12:42:24Z</time>
      </trkpt>
      <trkpt lat="44.64661" lon="4.32602">
        <ele>265.7</ele>
        <time>2022-06-10T12:42:25Z</time>
      </trkpt>
      <trkpt lat="44.64661" lon="4.32602">
        <ele>265.7</ele>
        <time>2022-06-10T12:42:26Z</time>
      </trkpt>
      <trkpt lat="44.64661" lon="4.32602">
        <ele>265.7</ele>
        <time>2022-06-10T12:42:27Z</time>
      </trkpt>
      <trkpt lat="44.64661" lon="4.32602">
        <ele>265.7</ele>
        <time>2022-06-10T12:42:28Z</time>
      </trkpt>
      <trkpt lat="44.64661" lon="4.32602">
        <ele>265.7</ele>
        <time>2022-06-10T12:42:29Z</time>
      </trkpt>
      <trkpt lat="44.64661" lon="4.32602">
        <ele>265.7</ele>
        <time>2022-06-10T12:42:30Z</time>
      </trkpt>
      <trkpt lat="44.64662" lon="4.32606">
        <ele>265.7</ele>
        <time>2022-06-10T12:46:40Z</time>
      </trkpt>
      <trkpt lat="44.64662" lon="4.32607">
        <ele>265.6</ele>
        <time>2022-06-10T12:46:41Z</time>
      </trkpt>
      <trkpt lat="44.64662" lon="4.32609">
        <ele>265.6</ele>
        <time>2022-06-10T12:46:42Z</time>
      </trkpt>
      <trkpt lat="44.6466" lon="4.3261">
        <ele>265.6</ele>
        <time>2022-06-10T12:46:43Z</time>
      </trkpt>
      <trkpt lat="44.64659" lon="4.32612">
        <ele>265.6</ele>
        <time>2022-06-10T12:46:44Z</time>
      </trkpt>
      <trkpt lat="44.64657" lon="4.32615">
        <ele>265.6</ele>
        <time>2022-06-10T12:46:45Z</time>
      </trkpt>
      <trkpt lat="44.64655" lon="4.32618">
        <ele>265.6</ele>
        <time>2022-06-10T12:46:47Z</time>
      </trkpt>
      <trkpt lat="44.64652" lon="4.32623">
        <ele>265.5</ele>
        <time>2022-06-10T12:46:48Z</time>
      </trkpt>
      <trkpt lat="44.64649" lon="4.32627">
        <ele>265.5</ele>
        <time>2022-06-10T12:46:50Z</time>
      </trkpt>
      <trkpt lat="44.64646" lon="4.32627">
        <ele>265.5</ele>
        <time>2022-06-10T12:46:51Z</time>
      </trkpt>
      <trkpt lat="44.64643" lon="4.3263">
        <ele>265.5</ele>
        <time>2022-06-10T12:46:53Z</time>
      </trkpt>
      <trkpt lat="44.64642" lon="4.32631">
        <ele>265.5</ele>
        <time>2022-06-10T12:46:54Z</time>
      </trkpt>
      <trkpt lat="44.6464" lon="4.32632">
        <ele>265.5</ele>
        <time>2022-06-10T12:46:55Z</time>
      </trkpt>
      <trkpt lat="44.64638" lon="4.32636">
        <ele>265.4</ele>
        <time>2022-06-10T12:46:56Z</time>
      </trkpt>
      <trkpt lat="44.64633" lon="4.32641">
        <ele>265.4</ele>
        <time>2022-06-10T12:46:57Z</time>
      </trkpt>
      <trkpt lat="44.6463" lon="4.32644">
        <ele>265.4</ele>
        <time>2022-06-10T12:46:59Z</time>
      </trkpt>
      <trkpt lat="44.64627" lon="4.32648">
        <ele>265.4</ele>
        <time>2022-06-10T12:47:00Z</time>
      </trkpt>
      <trkpt lat="44.64624" lon="4.32652">
        <ele>265.3</ele>
        <time>2022-06-10T12:47:01Z</time>
      </trkpt>
      <trkpt lat="44.64621" lon="4.32656">
        <ele>265.3</ele>
        <time>2022-06-10T12:47:02Z</time>
      </trkpt>
      <trkpt lat="44.64618" lon="4.3266">
        <ele>265.3</ele>
        <time>2022-06-10T12:47:03Z</time>
      </trkpt>
      <trkpt lat="44.64615" lon="4.32664">
        <ele>265.3</ele>
        <time>2022-06-10T12:47:04Z</time>
      </trkpt>
      <trkpt lat="44.64611" lon="4.32669">
        <ele>265.2</ele>
        <time>2022-06-10T12:47:05Z</time>
      </trkpt>
      <trkpt lat="44.64609" lon="4.32672">
        <ele>265.2</ele>
        <time>2022-06-10T12:47:06Z</time>
      </trkpt>
      <trkpt lat="44.64607" lon="4.3267">
        <ele>265.2</ele>
        <time>2022-06-10T12:47:07Z</time>
      </trkpt>
      <trkpt lat="44.64606" lon="4.32669">
        <ele>265.2</ele>
        <time>2022-06-10T12:47:09Z</time>
      </trkpt>
      <trkpt lat="44.64606" lon="4.32668">
        <ele>265.2</ele>
        <time>2022-06-10T12:47:10Z</time>
      </trkpt>
      <trkpt lat="44.64606" lon="4.32668">
        <ele>265.2</ele>
        <time>2022-06-10T12:47:11Z</time>
      </trkpt>
      <trkpt lat="44.64606" lon="4.32667">
        <ele>265.2</ele>
        <time>2022-06-10T12:47:12Z</time>
      </trkpt>
      <trkpt lat="44.64607" lon="4.32667">
        <ele>265.2</ele>
        <time>2022-06-10T12:47:13Z</time>
      </trkpt>
      <trkpt lat="44.64607" lon="4.32667">
        <ele>265.2</ele>
        <time>2022-06-10T12:47:14Z</time>
      </trkpt>
      <trkpt lat="44.64608" lon="4.32667">
        <ele>265.2</ele>
        <time>2022-06-10T12:47:15Z</time>
      </trkpt>
      <trkpt lat="44.64608" lon="4.32667">
        <ele>265.2</ele>
        <time>2022-06-10T12:47:16Z</time>
      </trkpt>
      <trkpt lat="44.64606" lon="4.32666">
        <ele>265.2</ele>
        <time>2022-06-10T12:47:17Z</time>
      </trkpt>
      <trkpt lat="44.64605" lon="4.32666">
        <ele>265.2</ele>
        <time>2022-06-10T12:47:19Z</time>
      </trkpt>
      <trkpt lat="44.64604" lon="4.32664">
        <ele>265.2</ele>
        <time>2022-06-10T12:47:20Z</time>
      </trkpt>
      <trkpt lat="44.64603" lon="4.32663">
        <ele>265.2</ele>
        <time>2022-06-10T12:47:21Z</time>
      </trkpt>
      <trkpt lat="44.64603" lon="4.32663">
        <ele>265.2</ele>
        <time>2022-06-10T12:47:22Z</time>
      </trkpt>
      <trkpt lat="44.64603" lon="4.32662">
        <ele>265.2</ele>
        <time>2022-06-10T12:47:23Z</time>
      </trkpt>
      <trkpt lat="44.64603" lon="4.32661">
        <ele>265.2</ele>
        <time>2022-06-10T12:47:24Z</time>
      </trkpt>
      <trkpt lat="44.64602" lon="4.3266">
        <ele>265.2</ele>
        <time>2022-06-10T12:47:25Z</time>
      </trkpt>
      <trkpt lat="44.64602" lon="4.32659">
        <ele>265.2</ele>
        <time>2022-06-10T12:47:26Z</time>
      </trkpt>
      <trkpt lat="44.64603" lon="4.32658">
        <ele>265.2</ele>
        <time>2022-06-10T12:47:27Z</time>
      </trkpt>
      <trkpt lat="44.64603" lon="4.32658">
        <ele>265.2</ele>
        <time>2022-06-10T12:47:28Z</time>
      </trkpt>
      <trkpt lat="44.64603" lon="4.32658">
        <ele>265.2</ele>
        <time>2022-06-10T12:47:29Z</time>
      </trkpt>
      <trkpt lat="44.64603" lon="4.32659">
        <ele>265.2</ele>
        <time>2022-06-10T12:47:30Z</time>
      </trkpt>
      <trkpt lat="44.64603" lon="4.32659">
        <ele>265.2</ele>
        <time>2022-06-10T12:47:31Z</time>
      </trkpt>
      <trkpt lat="44.64603" lon="4.32659">
        <ele>265.2</ele>
        <time>2022-06-10T12:47:32Z</time>
      </trkpt>
      <trkpt lat="44.64603" lon="4.32659">
        <ele>265.2</ele>
        <time>2022-06-10T12:47:33Z</time>
      </trkpt>
      <trkpt lat="44.64603" lon="4.32659">
        <ele>265.2</ele>
        <time>2022-06-10T12:47:34Z</time>
      </trkpt>
      <trkpt lat="44.64603" lon="4.3266">
        <ele>265.2</ele>
        <time>2022-06-10T12:47:35Z</time>
      </trkpt>
      <trkpt lat="44.64603" lon="4.3266">
        <ele>265.2</ele>
        <time>2022-06-10T12:48:19Z</time>
      </trkpt>
      <trkpt lat="44.64603" lon="4.3266">
        <ele>265.2</ele>
        <time>2022-06-10T12:48:20Z</time>
      </trkpt>
      <trkpt lat="44.64604" lon="4.3266">
        <ele>265.2</ele>
        <time>2022-06-10T12:48:21Z</time>
      </trkpt>
      <trkpt lat="44.64604" lon="4.3266">
        <ele>265.2</ele>
        <time>2022-06-10T12:48:22Z</time>
      </trkpt>
      <trkpt lat="44.64604" lon="4.32661">
        <ele>265.2</ele>
        <time>2022-06-10T12:48:24Z</time>
      </trkpt>
      <trkpt lat="44.64604" lon="4.32661">
        <ele>265.2</ele>
        <time>2022-06-10T12:48:25Z</time>
      </trkpt>
      <trkpt lat="44.64604" lon="4.32661">
        <ele>265.2</ele>
        <time>2022-06-10T12:48:26Z</time>
      </trkpt>
      <trkpt lat="44.64603" lon="4.32663">
        <ele>265.2</ele>
        <time>2022-06-10T12:48:27Z</time>
      </trkpt>
      <trkpt lat="44.64602" lon="4.32663">
        <ele>265.1</ele>
        <time>2022-06-10T12:48:29Z</time>
      </trkpt>
      <trkpt lat="44.64601" lon="4.32664">
        <ele>265.1</ele>
        <time>2022-06-10T12:48:30Z</time>
      </trkpt>
      <trkpt lat="44.64599" lon="4.32666">
        <ele>265.1</ele>
        <time>2022-06-10T12:48:31Z</time>
      </trkpt>
      <trkpt lat="44.64598" lon="4.32666">
        <ele>265.1</ele>
        <time>2022-06-10T12:48:33Z</time>
      </trkpt>
      <trkpt lat="44.64597" lon="4.32667">
        <ele>265.1</ele>
        <time>2022-06-10T12:48:34Z</time>
      </trkpt>
      <trkpt lat="44.64596" lon="4.32668">
        <ele>265.1</ele>
        <time>2022-06-10T12:48:35Z</time>
      </trkpt>
      <trkpt lat="44.64595" lon="4.32669">
        <ele>265.1</ele>
        <time>2022-06-10T12:48:36Z</time>
      </trkpt>
      <trkpt lat="44.64595" lon="4.32669">
        <ele>265.1</ele>
        <time>2022-06-10T12:48:37Z</time>
      </trkpt>
      <trkpt lat="44.64594" lon="4.32669">
        <ele>265.1</ele>
        <time>2022-06-10T12:48:38Z</time>
      </trkpt>
      <trkpt lat="44.64593" lon="4.32669">
        <ele>265.1</ele>
        <time>2022-06-10T12:48:39Z</time>
      </trkpt>
      <trkpt lat="44.64593" lon="4.32669">
        <ele>265.1</ele>
        <time>2022-06-10T12:48:41Z</time>
      </trkpt>
      <trkpt lat="44.64593" lon="4.32669">
        <ele>265.1</ele>
        <time>2022-06-10T12:48:42Z</time>
      </trkpt>
      <trkpt lat="44.64593" lon="4.32669">
        <ele>265.1</ele>
        <time>2022-06-10T12:48:43Z</time>
      </trkpt>
      <trkpt lat="44.64593" lon="4.32669">
        <ele>265.1</ele>
        <time>2022-06-10T12:48:44Z</time>
      </trkpt>
      <trkpt lat="44.64593" lon="4.32669">
        <ele>265.1</ele>
        <time>2022-06-10T12:48:45Z</time>
      </trkpt>
      <trkpt lat="44.64593" lon="4.32669">
        <ele>265.1</ele>
        <time>2022-06-10T12:48:46Z</time>
      </trkpt>
      <trkpt lat="44.64593" lon="4.32669">
        <ele>265.1</ele>
        <time>2022-06-10T12:48:47Z</time>
      </trkpt>
      <trkpt lat="44.64593" lon="4.32669">
        <ele>265.1</ele>
        <time>2022-06-10T12:48:48Z</time>
      </trkpt>
      <trkpt lat="44.64593" lon="4.32669">
        <ele>265.1</ele>
        <time>2022-06-10T12:48:49Z</time>
      </trkpt>
      <trkpt lat="44.64593" lon="4.32669">
        <ele>265.1</ele>
        <time>2022-06-10T12:48:50Z</time>
      </trkpt>
      <trkpt lat="44.64593" lon="4.32669">
        <ele>265.1</ele>
        <time>2022-06-10T12:48:51Z</time>
      </trkpt>
      <trkpt lat="44.64593" lon="4.32669">
        <ele>265.1</ele>
        <time>2022-06-10T12:48:52Z</time>
      </trkpt>
      <trkpt lat="44.64593" lon="4.32669">
        <ele>265.1</ele>
        <time>2022-06-10T12:48:53Z</time>
      </trkpt>
      <trkpt lat="44.64593" lon="4.32669">
        <ele>265.1</ele>
        <time>2022-06-10T12:48:54Z</time>
      </trkpt>
      <trkpt lat="44.64593" lon="4.32669">
        <ele>265.1</ele>
        <time>2022-06-10T12:48:55Z</time>
      </trkpt>
      <trkpt lat="44.64593" lon="4.32669">
        <ele>265.1</ele>
        <time>2022-06-10T12:48:56Z</time>
      </trkpt>
      <trkpt lat="44.64599" lon="4.32668">
        <ele>265.1</ele>
        <time>2022-06-10T12:49:31Z</time>
      </trkpt>
      <trkpt lat="44.64601" lon="4.32667">
        <ele>265.1</ele>
        <time>2022-06-10T12:49:32Z</time>
      </trkpt>
      <trkpt lat="44.64602" lon="4.32667">
        <ele>265.1</ele>
        <time>2022-06-10T12:49:33Z</time>
      </trkpt>
      <trkpt lat="44.64603" lon="4.32667">
        <ele>265.1</ele>
        <time>2022-06-10T12:49:34Z</time>
      </trkpt>
      <trkpt lat="44.64603" lon="4.32667">
        <ele>265.1</ele>
        <time>2022-06-10T12:49:35Z</time>
      </trkpt>
      <trkpt lat="44.64603" lon="4.32667">
        <ele>265.1</ele>
        <time>2022-06-10T12:49:36Z</time>
      </trkpt>
      <trkpt lat="44.64603" lon="4.32667">
        <ele>265.1</ele>
        <time>2022-06-10T12:49:37Z</time>
      </trkpt>
      <trkpt lat="44.64603" lon="4.32667">
        <ele>265.1</ele>
        <time>2022-06-10T12:49:38Z</time>
      </trkpt>
      <trkpt lat="44.64602" lon="4.32667">
        <ele>265.1</ele>
        <time>2022-06-10T12:49:39Z</time>
      </trkpt>
      <trkpt lat="44.64602" lon="4.32667">
        <ele>265.1</ele>
        <time>2022-06-10T12:49:40Z</time>
      </trkpt>
      <trkpt lat="44.64602" lon="4.32667">
        <ele>265.1</ele>
        <time>2022-06-10T12:49:41Z</time>
      </trkpt>
      <trkpt lat="44.64602" lon="4.32667">
        <ele>265.1</ele>
        <time>2022-06-10T12:49:42Z</time>
      </trkpt>
      <trkpt lat="44.64602" lon="4.32667">
        <ele>265.1</ele>
        <time>2022-06-10T12:49:43Z</time>
      </trkpt>
      <trkpt lat="44.64602" lon="4.32667">
        <ele>265.1</ele>
        <time>2022-06-10T12:49:44Z</time>
      </trkpt>
      <trkpt lat="44.64602" lon="4.32667">
        <ele>265.1</ele>
        <time>2022-06-10T12:49:45Z</time>
      </trkpt>
      <trkpt lat="44.64602" lon="4.32667">
        <ele>265.1</ele>
        <time>2022-06-10T12:49:46Z</time>
      </trkpt>
      <trkpt lat="44.64601" lon="4.32662">
        <ele>265.1</ele>
        <time>2022-06-10T12:50:19Z</time>
      </trkpt>
      <trkpt lat="44.64601" lon="4.3266">
        <ele>265.1</ele>
        <time>2022-06-10T12:50:21Z</time>
      </trkpt>
      <trkpt lat="44.64602" lon="4.32659">
        <ele>265.1</ele>
        <time>2022-06-10T12:50:22Z</time>
      </trkpt>
      <trkpt lat="44.64602" lon="4.32659">
        <ele>265.1</ele>
        <time>2022-06-10T12:50:23Z</time>
      </trkpt>
      <trkpt lat="44.64602" lon="4.32658">
        <ele>265.1</ele>
        <time>2022-06-10T12:50:25Z</time>
      </trkpt>
      <trkpt lat="44.64603" lon="4.32658">
        <ele>265.1</ele>
        <time>2022-06-10T12:50:26Z</time>
      </trkpt>
      <trkpt lat="44.64603" lon="4.32658">
        <ele>265.1</ele>
        <time>2022-06-10T12:50:27Z</time>
      </trkpt>
      <trkpt lat="44.64603" lon="4.32658">
        <ele>265.1</ele>
        <time>2022-06-10T12:50:28Z</time>
      </trkpt>
      <trkpt lat="44.64603" lon="4.32658">
        <ele>265.1</ele>
        <time>2022-06-10T12:50:29Z</time>
      </trkpt>
      <trkpt lat="44.64603" lon="4.32658">
        <ele>265.1</ele>
        <time>2022-06-10T12:50:30Z</time>
      </trkpt>
      <trkpt lat="44.64603" lon="4.32658">
        <ele>265.1</ele>
        <time>2022-06-10T12:50:31Z</time>
      </trkpt>
      <trkpt lat="44.64603" lon="4.32658">
        <ele>265.1</ele>
        <time>2022-06-10T12:50:32Z</time>
      </trkpt>
      <trkpt lat="44.64603" lon="4.32658">
        <ele>265.1</ele>
        <time>2022-06-10T12:50:33Z</time>
      </trkpt>
      <trkpt lat="44.64603" lon="4.32658">
        <ele>265.1</ele>
        <time>2022-06-10T12:50:34Z</time>
      </trkpt>
      <trkpt lat="44.64603" lon="4.32658">
        <ele>265.1</ele>
        <time>2022-06-10T12:50:35Z</time>
      </trkpt>
      <trkpt lat="44.64603" lon="4.32658">
        <ele>265.1</ele>
        <time>2022-06-10T12:50:36Z</time>
      </trkpt>
      <trkpt lat="44.64605" lon="4.32659">
        <ele>265.1</ele>
        <time>2022-06-10T13:02:48Z</time>
      </trkpt>
      <trkpt lat="44.64605" lon="4.32659">
        <ele>265.1</ele>
        <time>2022-06-10T13:02:49Z</time>
      </trkpt>
      <trkpt lat="44.64605" lon="4.32659">
        <ele>265.1</ele>
        <time>2022-06-10T13:02:50Z</time>
      </trkpt>
      <trkpt lat="44.64606" lon="4.32659">
        <ele>265.1</ele>
        <time>2022-06-10T13:02:51Z</time>
      </trkpt>
      <trkpt lat="44.64606" lon="4.32659">
        <ele>265.1</ele>
        <time>2022-06-10T13:02:52Z</time>
      </trkpt>
      <trkpt lat="44.64606" lon="4.32658">
        <ele>265.1</ele>
        <time>2022-06-10T13:02:53Z</time>
      </trkpt>
      <trkpt lat="44.64607" lon="4.32657">
        <ele>265.1</ele>
        <time>2022-06-10T13:02:54Z</time>
      </trkpt>
      <trkpt lat="44.64607" lon="4.32657">
        <ele>265.1</ele>
        <time>2022-06-10T13:02:55Z</time>
      </trkpt>
      <trkpt lat="44.64607" lon="4.32657">
        <ele>265.1</ele>
        <time>2022-06-10T13:02:56Z</time>
      </trkpt>
      <trkpt lat="44.64607" lon="4.32657">
        <ele>265.1</ele>
        <time>2022-06-10T13:02:57Z</time>
      </trkpt>
      <trkpt lat="44.64607" lon="4.32657">
        <ele>265.1</ele>
        <time>2022-06-10T13:02:58Z</time>
      </trkpt>
      <trkpt lat="44.64607" lon="4.32657">
        <ele>265.1</ele>
        <time>2022-06-10T13:02:59Z</time>
      </trkpt>
      <trkpt lat="44.64607" lon="4.32657">
        <ele>265.1</ele>
        <time>2022-06-10T13:03:00Z</time>
      </trkpt>
      <trkpt lat="44.64606" lon="4.32657">
        <ele>265.1</ele>
        <time>2022-06-10T13:03:01Z</time>
      </trkpt>
      <trkpt lat="44.64606" lon="4.32657">
        <ele>265.1</ele>
        <time>2022-06-10T13:03:02Z</time>
      </trkpt>
      <trkpt lat="44.64606" lon="4.32657">
        <ele>265.1</ele>
        <time>2022-06-10T13:03:03Z</time>
      </trkpt>
      <trkpt lat="44.64606" lon="4.32657">
        <ele>265.1</ele>
        <time>2022-06-10T13:03:04Z</time>
      </trkpt>
      <trkpt lat="44.64609" lon="4.32654">
        <ele>265.1</ele>
        <time>2022-06-10T13:04:27Z</time>
      </trkpt>
      <trkpt lat="44.64609" lon="4.32654">
        <ele>265.1</ele>
        <time>2022-06-10T13:04:28Z</time>
      </trkpt>
      <trkpt lat="44.64609" lon="4.32654">
        <ele>265.1</ele>
        <time>2022-06-10T13:04:29Z</time>
      </trkpt>
      <trkpt lat="44.64608" lon="4.32654">
        <ele>265.1</ele>
        <time>2022-06-10T13:04:30Z</time>
      </trkpt>
      <trkpt lat="44.64608" lon="4.32655">
        <ele>265.1</ele>
        <time>2022-06-10T13:04:31Z</time>
      </trkpt>
      <trkpt lat="44.64609" lon="4.32655">
        <ele>265</ele>
        <time>2022-06-10T13:04:32Z</time>
      </trkpt>
      <trkpt lat="44.64609" lon="4.32655">
        <ele>265</ele>
        <time>2022-06-10T13:04:33Z</time>
      </trkpt>
      <trkpt lat="44.64609" lon="4.32655">
        <ele>265</ele>
        <time>2022-06-10T13:04:34Z</time>
      </trkpt>
      <trkpt lat="44.64609" lon="4.32655">
        <ele>265</ele>
        <time>2022-06-10T13:04:35Z</time>
      </trkpt>
      <trkpt lat="44.6461" lon="4.32656">
        <ele>265</ele>
        <time>2022-06-10T13:04:36Z</time>
      </trkpt>
      <trkpt lat="44.64611" lon="4.32657">
        <ele>265</ele>
        <time>2022-06-10T13:04:37Z</time>
      </trkpt>
      <trkpt lat="44.64611" lon="4.32659">
        <ele>265</ele>
        <time>2022-06-10T13:04:38Z</time>
      </trkpt>
      <trkpt lat="44.64612" lon="4.32661">
        <ele>265</ele>
        <time>2022-06-10T13:04:39Z</time>
      </trkpt>
      <trkpt lat="44.64613" lon="4.32665">
        <ele>265</ele>
        <time>2022-06-10T13:04:40Z</time>
      </trkpt>
      <trkpt lat="44.64613" lon="4.32667">
        <ele>265</ele>
        <time>2022-06-10T13:04:41Z</time>
      </trkpt>
      <trkpt lat="44.64613" lon="4.32669">
        <ele>265</ele>
        <time>2022-06-10T13:04:43Z</time>
      </trkpt>
      <trkpt lat="44.64612" lon="4.32671">
        <ele>265</ele>
        <time>2022-06-10T13:04:44Z</time>
      </trkpt>
      <trkpt lat="44.64609" lon="4.32675">
        <ele>265</ele>
        <time>2022-06-10T13:04:46Z</time>
      </trkpt>
      <trkpt lat="44.64607" lon="4.32678">
        <ele>265</ele>
        <time>2022-06-10T13:04:48Z</time>
      </trkpt>
      <trkpt lat="44.64605" lon="4.3268">
        <ele>265</ele>
        <time>2022-06-10T13:04:49Z</time>
      </trkpt>
      <trkpt lat="44.64602" lon="4.32684">
        <ele>265</ele>
        <time>2022-06-10T13:04:50Z</time>
      </trkpt>
      <trkpt lat="44.646" lon="4.32688">
        <ele>265</ele>
        <time>2022-06-10T13:04:51Z</time>
      </trkpt>
      <trkpt lat="44.64596" lon="4.32694">
        <ele>265</ele>
        <time>2022-06-10T13:04:52Z</time>
      </trkpt>
      <trkpt lat="44.64592" lon="4.32699">
        <ele>265</ele>
        <time>2022-06-10T13:04:54Z</time>
      </trkpt>
      <trkpt lat="44.64588" lon="4.32704">
        <ele>265</ele>
        <time>2022-06-10T13:04:55Z</time>
      </trkpt>
      <trkpt lat="44.64585" lon="4.32708">
        <ele>264.9</ele>
        <time>2022-06-10T13:04:56Z</time>
      </trkpt>
      <trkpt lat="44.64582" lon="4.32712">
        <ele>264.9</ele>
        <time>2022-06-10T13:04:57Z</time>
      </trkpt>
      <trkpt lat="44.64578" lon="4.32717">
        <ele>264.9</ele>
        <time>2022-06-10T13:04:58Z</time>
      </trkpt>
      <trkpt lat="44.64575" lon="4.32725">
        <ele>264.8</ele>
        <time>2022-06-10T13:04:59Z</time>
      </trkpt>
      <trkpt lat="44.64571" lon="4.3273">
        <ele>264.8</ele>
        <time>2022-06-10T13:05:00Z</time>
      </trkpt>
      <trkpt lat="44.64568" lon="4.32735">
        <ele>264.8</ele>
        <time>2022-06-10T13:05:01Z</time>
      </trkpt>
      <trkpt lat="44.64565" lon="4.3274">
        <ele>264.7</ele>
        <time>2022-06-10T13:05:02Z</time>
      </trkpt>
      <trkpt lat="44.64562" lon="4.32745">
        <ele>264.7</ele>
        <time>2022-06-10T13:05:03Z</time>
      </trkpt>
      <trkpt lat="44.64558" lon="4.3275">
        <ele>264.7</ele>
        <time>2022-06-10T13:05:04Z</time>
      </trkpt>
      <trkpt lat="44.64555" lon="4.32754">
        <ele>264.7</ele>
        <time>2022-06-10T13:05:05Z</time>
      </trkpt>
      <trkpt lat="44.64551" lon="4.3276">
        <ele>264.7</ele>
        <time>2022-06-10T13:05:06Z</time>
      </trkpt>
      <trkpt lat="44.64548" lon="4.32765">
        <ele>264.6</ele>
        <time>2022-06-10T13:05:07Z</time>
      </trkpt>
      <trkpt lat="44.64544" lon="4.32771">
        <ele>264.6</ele>
        <time>2022-06-10T13:05:08Z</time>
      </trkpt>
      <trkpt lat="44.6454" lon="4.32776">
        <ele>264.6</ele>
        <time>2022-06-10T13:05:09Z</time>
      </trkpt>
      <trkpt lat="44.64537" lon="4.32782">
        <ele>264.6</ele>
        <time>2022-06-10T13:05:10Z</time>
      </trkpt>
      <trkpt lat="44.64534" lon="4.32788">
        <ele>264.6</ele>
        <time>2022-06-10T13:05:11Z</time>
      </trkpt>
      <trkpt lat="44.6453" lon="4.32794">
        <ele>264.6</ele>
        <time>2022-06-10T13:05:12Z</time>
      </trkpt>
      <trkpt lat="44.64526" lon="4.32799">
        <ele>264.6</ele>
        <time>2022-06-10T13:05:13Z</time>
      </trkpt>
      <trkpt lat="44.64522" lon="4.32804">
        <ele>264.6</ele>
        <time>2022-06-10T13:05:14Z</time>
      </trkpt>
      <trkpt lat="44.64519" lon="4.3281">
        <ele>264.6</ele>
        <time>2022-06-10T13:05:15Z</time>
      </trkpt>
      <trkpt lat="44.64515" lon="4.32817">
        <ele>264.7</ele>
        <time>2022-06-10T13:05:16Z</time>
      </trkpt>
      <trkpt lat="44.64511" lon="4.32823">
        <ele>264.6</ele>
        <time>2022-06-10T13:05:17Z</time>
      </trkpt>
      <trkpt lat="44.64508" lon="4.32829">
        <ele>264.6</ele>
        <time>2022-06-10T13:05:18Z</time>
      </trkpt>
      <trkpt lat="44.64505" lon="4.32833">
        <ele>264.6</ele>
        <time>2022-06-10T13:05:19Z</time>
      </trkpt>
      <trkpt lat="44.64501" lon="4.32838">
        <ele>264.6</ele>
        <time>2022-06-10T13:05:20Z</time>
      </trkpt>
      <trkpt lat="44.64498" lon="4.32844">
        <ele>264.6</ele>
        <time>2022-06-10T13:05:21Z</time>
      </trkpt>
      <trkpt lat="44.64495" lon="4.32849">
        <ele>264.5</ele>
        <time>2022-06-10T13:05:22Z</time>
      </trkpt>
      <trkpt lat="44.64491" lon="4.32854">
        <ele>264.5</ele>
        <time>2022-06-10T13:05:23Z</time>
      </trkpt>
      <trkpt lat="44.64487" lon="4.32859">
        <ele>264.5</ele>
        <time>2022-06-10T13:05:24Z</time>
      </trkpt>
      <trkpt lat="44.64484" lon="4.32863">
        <ele>264.6</ele>
        <time>2022-06-10T13:05:25Z</time>
      </trkpt>
      <trkpt lat="44.64481" lon="4.32867">
        <ele>264.6</ele>
        <time>2022-06-10T13:05:26Z</time>
      </trkpt>
      <trkpt lat="44.64477" lon="4.32872">
        <ele>264.6</ele>
        <time>2022-06-10T13:05:27Z</time>
      </trkpt>
      <trkpt lat="44.64475" lon="4.32876">
        <ele>264.6</ele>
        <time>2022-06-10T13:05:28Z</time>
      </trkpt>
      <trkpt lat="44.64471" lon="4.3288">
        <ele>264.6</ele>
        <time>2022-06-10T13:05:29Z</time>
      </trkpt>
      <trkpt lat="44.64468" lon="4.32885">
        <ele>264.6</ele>
        <time>2022-06-10T13:05:30Z</time>
      </trkpt>
      <trkpt lat="44.64465" lon="4.32889">
        <ele>264.6</ele>
        <time>2022-06-10T13:05:31Z</time>
      </trkpt>
      <trkpt lat="44.64463" lon="4.32892">
        <ele>264.6</ele>
        <time>2022-06-10T13:05:32Z</time>
      </trkpt>
      <trkpt lat="44.64461" lon="4.32896">
        <ele>264.6</ele>
        <time>2022-06-10T13:05:33Z</time>
      </trkpt>
      <trkpt lat="44.64457" lon="4.32902">
        <ele>264.7</ele>
        <time>2022-06-10T13:05:34Z</time>
      </trkpt>
      <trkpt lat="44.64454" lon="4.32906">
        <ele>264.8</ele>
        <time>2022-06-10T13:05:35Z</time>
      </trkpt>
      <trkpt lat="44.64451" lon="4.3291">
        <ele>264.8</ele>
        <time>2022-06-10T13:05:36Z</time>
      </trkpt>
      <trkpt lat="44.64448" lon="4.32915">
        <ele>264.9</ele>
        <time>2022-06-10T13:05:37Z</time>
      </trkpt>
      <trkpt lat="44.64445" lon="4.3292">
        <ele>265</ele>
        <time>2022-06-10T13:05:38Z</time>
      </trkpt>
      <trkpt lat="44.64443" lon="4.32922">
        <ele>265.1</ele>
        <time>2022-06-10T13:05:39Z</time>
      </trkpt>
      <trkpt lat="44.6444" lon="4.32926">
        <ele>265.2</ele>
        <time>2022-06-10T13:05:40Z</time>
      </trkpt>
      <trkpt lat="44.64437" lon="4.32931">
        <ele>265.3</ele>
        <time>2022-06-10T13:05:41Z</time>
      </trkpt>
      <trkpt lat="44.64432" lon="4.3294">
        <ele>265.4</ele>
        <time>2022-06-10T13:05:42Z</time>
      </trkpt>
      <trkpt lat="44.64428" lon="4.32945">
        <ele>265.5</ele>
        <time>2022-06-10T13:05:44Z</time>
      </trkpt>
      <trkpt lat="44.64423" lon="4.32949">
        <ele>265.6</ele>
        <time>2022-06-10T13:05:45Z</time>
      </trkpt>
      <trkpt lat="44.64419" lon="4.32952">
        <ele>265.7</ele>
        <time>2022-06-10T13:05:46Z</time>
      </trkpt>
      <trkpt lat="44.64415" lon="4.32955">
        <ele>265.8</ele>
        <time>2022-06-10T13:05:47Z</time>
      </trkpt>
      <trkpt lat="44.64412" lon="4.32956">
        <ele>265.9</ele>
        <time>2022-06-10T13:05:48Z</time>
      </trkpt>
      <trkpt lat="44.6441" lon="4.32957">
        <ele>265.9</ele>
        <time>2022-06-10T13:05:49Z</time>
      </trkpt>
      <trkpt lat="44.64405" lon="4.32956">
        <ele>266</ele>
        <time>2022-06-10T13:05:50Z</time>
      </trkpt>
      <trkpt lat="44.64399" lon="4.32953">
        <ele>266.2</ele>
        <time>2022-06-10T13:05:51Z</time>
      </trkpt>
      <trkpt lat="44.64395" lon="4.32952">
        <ele>266.3</ele>
        <time>2022-06-10T13:05:52Z</time>
      </trkpt>
      <trkpt lat="44.6439" lon="4.32953">
        <ele>266.4</ele>
        <time>2022-06-10T13:05:53Z</time>
      </trkpt>
      <trkpt lat="44.64386" lon="4.32956">
        <ele>266.5</ele>
        <time>2022-06-10T13:05:54Z</time>
      </trkpt>
      <trkpt lat="44.64383" lon="4.3296">
        <ele>266.6</ele>
        <time>2022-06-10T13:05:55Z</time>
      </trkpt>
      <trkpt lat="44.6438" lon="4.32967">
        <ele>266.6</ele>
        <time>2022-06-10T13:05:56Z</time>
      </trkpt>
      <trkpt lat="44.6438" lon="4.32979">
        <ele>266.6</ele>
        <time>2022-06-10T13:05:58Z</time>
      </trkpt>
      <trkpt lat="44.6438" lon="4.3299">
        <ele>266.5</ele>
        <time>2022-06-10T13:05:59Z</time>
      </trkpt>
      <trkpt lat="44.64378" lon="4.33001">
        <ele>266.5</ele>
        <time>2022-06-10T13:06:01Z</time>
      </trkpt>
      <trkpt lat="44.64373" lon="4.33011">
        <ele>266.4</ele>
        <time>2022-06-10T13:06:03Z</time>
      </trkpt>
      <trkpt lat="44.6437" lon="4.33019">
        <ele>266.4</ele>
        <time>2022-06-10T13:06:04Z</time>
      </trkpt>
      <trkpt lat="44.64368" lon="4.33024">
        <ele>266.4</ele>
        <time>2022-06-10T13:06:06Z</time>
      </trkpt>
      <trkpt lat="44.64365" lon="4.33029">
        <ele>266.4</ele>
        <time>2022-06-10T13:06:07Z</time>
      </trkpt>
      <trkpt lat="44.64363" lon="4.33033">
        <ele>266.4</ele>
        <time>2022-06-10T13:06:08Z</time>
      </trkpt>
      <trkpt lat="44.6436" lon="4.33037">
        <ele>266.4</ele>
        <time>2022-06-10T13:06:09Z</time>
      </trkpt>
      <trkpt lat="44.64357" lon="4.33041">
        <ele>266.4</ele>
        <time>2022-06-10T13:06:10Z</time>
      </trkpt>
      <trkpt lat="44.64351" lon="4.33049">
        <ele>266.5</ele>
        <time>2022-06-10T13:06:12Z</time>
      </trkpt>
      <trkpt lat="44.64346" lon="4.33056">
        <ele>266.5</ele>
        <time>2022-06-10T13:06:14Z</time>
      </trkpt>
      <trkpt lat="44.64342" lon="4.33063">
        <ele>266.6</ele>
        <time>2022-06-10T13:06:15Z</time>
      </trkpt>
      <trkpt lat="44.64338" lon="4.33068">
        <ele>266.6</ele>
        <time>2022-06-10T13:06:17Z</time>
      </trkpt>
      <trkpt lat="44.64335" lon="4.33072">
        <ele>266.6</ele>
        <time>2022-06-10T13:06:18Z</time>
      </trkpt>
      <trkpt lat="44.64333" lon="4.33076">
        <ele>266.6</ele>
        <time>2022-06-10T13:06:19Z</time>
      </trkpt>
      <trkpt lat="44.6433" lon="4.33079">
        <ele>266.7</ele>
        <time>2022-06-10T13:06:20Z</time>
      </trkpt>
      <trkpt lat="44.64327" lon="4.33084">
        <ele>266.7</ele>
        <time>2022-06-10T13:06:21Z</time>
      </trkpt>
      <trkpt lat="44.64324" lon="4.33087">
        <ele>266.8</ele>
        <time>2022-06-10T13:06:22Z</time>
      </trkpt>
      <trkpt lat="44.64322" lon="4.33091">
        <ele>266.8</ele>
        <time>2022-06-10T13:06:23Z</time>
      </trkpt>
      <trkpt lat="44.64319" lon="4.33095">
        <ele>266.8</ele>
        <time>2022-06-10T13:06:24Z</time>
      </trkpt>
      <trkpt lat="44.64317" lon="4.33098">
        <ele>266.9</ele>
        <time>2022-06-10T13:06:25Z</time>
      </trkpt>
      <trkpt lat="44.64312" lon="4.33105">
        <ele>266.9</ele>
        <time>2022-06-10T13:06:26Z</time>
      </trkpt>
      <trkpt lat="44.64309" lon="4.33109">
        <ele>267</ele>
        <time>2022-06-10T13:06:28Z</time>
      </trkpt>
      <trkpt lat="44.64307" lon="4.33113">
        <ele>267</ele>
        <time>2022-06-10T13:06:29Z</time>
      </trkpt>
      <trkpt lat="44.64304" lon="4.33117">
        <ele>267.1</ele>
        <time>2022-06-10T13:06:30Z</time>
      </trkpt>
      <trkpt lat="44.64301" lon="4.33121">
        <ele>267.1</ele>
        <time>2022-06-10T13:06:31Z</time>
      </trkpt>
      <trkpt lat="44.64299" lon="4.33125">
        <ele>267.1</ele>
        <time>2022-06-10T13:06:32Z</time>
      </trkpt>
      <trkpt lat="44.64296" lon="4.33129">
        <ele>267.2</ele>
        <time>2022-06-10T13:06:33Z</time>
      </trkpt>
      <trkpt lat="44.64294" lon="4.33134">
        <ele>267.2</ele>
        <time>2022-06-10T13:06:34Z</time>
      </trkpt>
      <trkpt lat="44.64292" lon="4.33138">
        <ele>267.2</ele>
        <time>2022-06-10T13:06:35Z</time>
      </trkpt>
      <trkpt lat="44.64287" lon="4.33146">
        <ele>267.3</ele>
        <time>2022-06-10T13:06:36Z</time>
      </trkpt>
      <trkpt lat="44.64285" lon="4.33151">
        <ele>267.3</ele>
        <time>2022-06-10T13:06:38Z</time>
      </trkpt>
      <trkpt lat="44.64283" lon="4.33155">
        <ele>267.3</ele>
        <time>2022-06-10T13:06:39Z</time>
      </trkpt>
      <trkpt lat="44.64281" lon="4.33161">
        <ele>267.4</ele>
        <time>2022-06-10T13:06:40Z</time>
      </trkpt>
      <trkpt lat="44.64279" lon="4.33166">
        <ele>267.4</ele>
        <time>2022-06-10T13:06:41Z</time>
      </trkpt>
      <trkpt lat="44.64277" lon="4.33171">
        <ele>267.4</ele>
        <time>2022-06-10T13:06:42Z</time>
      </trkpt>
      <trkpt lat="44.64275" lon="4.33179">
        <ele>267.5</ele>
        <time>2022-06-10T13:06:43Z</time>
      </trkpt>
      <trkpt lat="44.64274" lon="4.33184">
        <ele>267.5</ele>
        <time>2022-06-10T13:06:44Z</time>
      </trkpt>
      <trkpt lat="44.64271" lon="4.33191">
        <ele>267.5</ele>
        <time>2022-06-10T13:06:45Z</time>
      </trkpt>
      <trkpt lat="44.6427" lon="4.33197">
        <ele>267.5</ele>
        <time>2022-06-10T13:06:46Z</time>
      </trkpt>
      <trkpt lat="44.64268" lon="4.33204">
        <ele>267.6</ele>
        <time>2022-06-10T13:06:48Z</time>
      </trkpt>
      <trkpt lat="44.64266" lon="4.33209">
        <ele>267.6</ele>
        <time>2022-06-10T13:06:49Z</time>
      </trkpt>
      <trkpt lat="44.64264" lon="4.33214">
        <ele>267.6</ele>
        <time>2022-06-10T13:06:50Z</time>
      </trkpt>
      <trkpt lat="44.64261" lon="4.33223">
        <ele>267.6</ele>
        <time>2022-06-10T13:06:51Z</time>
      </trkpt>
      <trkpt lat="44.6426" lon="4.3323">
        <ele>267.6</ele>
        <time>2022-06-10T13:06:52Z</time>
      </trkpt>
      <trkpt lat="44.64259" lon="4.33236">
        <ele>267.6</ele>
        <time>2022-06-10T13:06:53Z</time>
      </trkpt>
      <trkpt lat="44.64258" lon="4.33242">
        <ele>267.6</ele>
        <time>2022-06-10T13:06:54Z</time>
      </trkpt>
      <trkpt lat="44.64257" lon="4.33248">
        <ele>267.6</ele>
        <time>2022-06-10T13:06:55Z</time>
      </trkpt>
      <trkpt lat="44.64256" lon="4.33256">
        <ele>267.5</ele>
        <time>2022-06-10T13:06:56Z</time>
      </trkpt>
      <trkpt lat="44.64256" lon="4.33263">
        <ele>267.5</ele>
        <time>2022-06-10T13:06:57Z</time>
      </trkpt>
      <trkpt lat="44.64256" lon="4.33271">
        <ele>267.4</ele>
        <time>2022-06-10T13:06:58Z</time>
      </trkpt>
      <trkpt lat="44.64256" lon="4.33278">
        <ele>267.3</ele>
        <time>2022-06-10T13:06:59Z</time>
      </trkpt>
      <trkpt lat="44.64255" lon="4.33286">
        <ele>267.2</ele>
        <time>2022-06-10T13:07:00Z</time>
      </trkpt>
      <trkpt lat="44.64256" lon="4.33293">
        <ele>267.1</ele>
        <time>2022-06-10T13:07:01Z</time>
      </trkpt>
      <trkpt lat="44.64255" lon="4.333">
        <ele>267</ele>
        <time>2022-06-10T13:07:02Z</time>
      </trkpt>
      <trkpt lat="44.64255" lon="4.33308">
        <ele>267</ele>
        <time>2022-06-10T13:07:03Z</time>
      </trkpt>
      <trkpt lat="44.64255" lon="4.33316">
        <ele>266.9</ele>
        <time>2022-06-10T13:07:04Z</time>
      </trkpt>
      <trkpt lat="44.64255" lon="4.33325">
        <ele>266.8</ele>
        <time>2022-06-10T13:07:05Z</time>
      </trkpt>
      <trkpt lat="44.64255" lon="4.33333">
        <ele>266.7</ele>
        <time>2022-06-10T13:07:06Z</time>
      </trkpt>
      <trkpt lat="44.64255" lon="4.33342">
        <ele>266.6</ele>
        <time>2022-06-10T13:07:07Z</time>
      </trkpt>
      <trkpt lat="44.64255" lon="4.3335">
        <ele>266.5</ele>
        <time>2022-06-10T13:07:08Z</time>
      </trkpt>
      <trkpt lat="44.64255" lon="4.33358">
        <ele>266.4</ele>
        <time>2022-06-10T13:07:09Z</time>
      </trkpt>
      <trkpt lat="44.64255" lon="4.33367">
        <ele>266.3</ele>
        <time>2022-06-10T13:07:10Z</time>
      </trkpt>
      <trkpt lat="44.64254" lon="4.33375">
        <ele>266.2</ele>
        <time>2022-06-10T13:07:11Z</time>
      </trkpt>
      <trkpt lat="44.64254" lon="4.33384">
        <ele>266.1</ele>
        <time>2022-06-10T13:07:12Z</time>
      </trkpt>
      <trkpt lat="44.64253" lon="4.33392">
        <ele>266</ele>
        <time>2022-06-10T13:07:13Z</time>
      </trkpt>
      <trkpt lat="44.64252" lon="4.334">
        <ele>265.9</ele>
        <time>2022-06-10T13:07:14Z</time>
      </trkpt>
      <trkpt lat="44.64251" lon="4.33408">
        <ele>265.7</ele>
        <time>2022-06-10T13:07:15Z</time>
      </trkpt>
      <trkpt lat="44.6425" lon="4.33417">
        <ele>265.6</ele>
        <time>2022-06-10T13:07:16Z</time>
      </trkpt>
      <trkpt lat="44.6425" lon="4.33426">
        <ele>265.5</ele>
        <time>2022-06-10T13:07:17Z</time>
      </trkpt>
      <trkpt lat="44.64249" lon="4.33435">
        <ele>265.4</ele>
        <time>2022-06-10T13:07:18Z</time>
      </trkpt>
      <trkpt lat="44.64248" lon="4.33443">
        <ele>265.2</ele>
        <time>2022-06-10T13:07:19Z</time>
      </trkpt>
      <trkpt lat="44.64247" lon="4.33452">
        <ele>265.1</ele>
        <time>2022-06-10T13:07:20Z</time>
      </trkpt>
      <trkpt lat="44.64246" lon="4.33461">
        <ele>265</ele>
        <time>2022-06-10T13:07:21Z</time>
      </trkpt>
      <trkpt lat="44.64244" lon="4.33469">
        <ele>264.9</ele>
        <time>2022-06-10T13:07:22Z</time>
      </trkpt>
      <trkpt lat="44.64243" lon="4.33477">
        <ele>264.8</ele>
        <time>2022-06-10T13:07:23Z</time>
      </trkpt>
      <trkpt lat="44.64241" lon="4.33486">
        <ele>264.7</ele>
        <time>2022-06-10T13:07:24Z</time>
      </trkpt>
      <trkpt lat="44.6424" lon="4.33494">
        <ele>264.5</ele>
        <time>2022-06-10T13:07:25Z</time>
      </trkpt>
      <trkpt lat="44.64239" lon="4.33503">
        <ele>264.4</ele>
        <time>2022-06-10T13:07:26Z</time>
      </trkpt>
      <trkpt lat="44.64237" lon="4.33511">
        <ele>264.2</ele>
        <time>2022-06-10T13:07:27Z</time>
      </trkpt>
      <trkpt lat="44.64236" lon="4.33521">
        <ele>264.1</ele>
        <time>2022-06-10T13:07:28Z</time>
      </trkpt>
      <trkpt lat="44.64234" lon="4.33529">
        <ele>263.9</ele>
        <time>2022-06-10T13:07:29Z</time>
      </trkpt>
      <trkpt lat="44.64232" lon="4.33538">
        <ele>263.7</ele>
        <time>2022-06-10T13:07:30Z</time>
      </trkpt>
      <trkpt lat="44.6423" lon="4.33548">
        <ele>263.5</ele>
        <time>2022-06-10T13:07:31Z</time>
      </trkpt>
      <trkpt lat="44.64229" lon="4.33558">
        <ele>263.4</ele>
        <time>2022-06-10T13:07:32Z</time>
      </trkpt>
      <trkpt lat="44.64227" lon="4.33568">
        <ele>263.2</ele>
        <time>2022-06-10T13:07:33Z</time>
      </trkpt>
      <trkpt lat="44.64225" lon="4.33579">
        <ele>263</ele>
        <time>2022-06-10T13:07:34Z</time>
      </trkpt>
      <trkpt lat="44.64223" lon="4.33589">
        <ele>262.9</ele>
        <time>2022-06-10T13:07:35Z</time>
      </trkpt>
      <trkpt lat="44.6422" lon="4.33599">
        <ele>262.8</ele>
        <time>2022-06-10T13:07:36Z</time>
      </trkpt>
      <trkpt lat="44.64217" lon="4.33608">
        <ele>262.6</ele>
        <time>2022-06-10T13:07:37Z</time>
      </trkpt>
      <trkpt lat="44.64213" lon="4.33618">
        <ele>262.5</ele>
        <time>2022-06-10T13:07:38Z</time>
      </trkpt>
      <trkpt lat="44.64209" lon="4.33627">
        <ele>262.4</ele>
        <time>2022-06-10T13:07:39Z</time>
      </trkpt>
      <trkpt lat="44.64205" lon="4.33635">
        <ele>262.3</ele>
        <time>2022-06-10T13:07:40Z</time>
      </trkpt>
      <trkpt lat="44.64201" lon="4.33644">
        <ele>262.1</ele>
        <time>2022-06-10T13:07:41Z</time>
      </trkpt>
      <trkpt lat="44.64197" lon="4.33653">
        <ele>262</ele>
        <time>2022-06-10T13:07:42Z</time>
      </trkpt>
      <trkpt lat="44.64194" lon="4.33662">
        <ele>261.9</ele>
        <time>2022-06-10T13:07:43Z</time>
      </trkpt>
      <trkpt lat="44.6419" lon="4.33671">
        <ele>261.8</ele>
        <time>2022-06-10T13:07:44Z</time>
      </trkpt>
      <trkpt lat="44.64187" lon="4.3368">
        <ele>261.7</ele>
        <time>2022-06-10T13:07:45Z</time>
      </trkpt>
      <trkpt lat="44.64183" lon="4.33689">
        <ele>261.7</ele>
        <time>2022-06-10T13:07:46Z</time>
      </trkpt>
      <trkpt lat="44.64179" lon="4.33699">
        <ele>261.6</ele>
        <time>2022-06-10T13:07:47Z</time>
      </trkpt>
      <trkpt lat="44.64175" lon="4.33708">
        <ele>261.6</ele>
        <time>2022-06-10T13:07:48Z</time>
      </trkpt>
      <trkpt lat="44.64171" lon="4.33717">
        <ele>261.5</ele>
        <time>2022-06-10T13:07:49Z</time>
      </trkpt>
      <trkpt lat="44.64167" lon="4.33726">
        <ele>261.5</ele>
        <time>2022-06-10T13:07:50Z</time>
      </trkpt>
      <trkpt lat="44.64163" lon="4.33734">
        <ele>261.4</ele>
        <time>2022-06-10T13:07:51Z</time>
      </trkpt>
      <trkpt lat="44.64159" lon="4.33743">
        <ele>261.4</ele>
        <time>2022-06-10T13:07:52Z</time>
      </trkpt>
      <trkpt lat="44.64155" lon="4.33751">
        <ele>261.5</ele>
        <time>2022-06-10T13:07:53Z</time>
      </trkpt>
      <trkpt lat="44.6415" lon="4.33759">
        <ele>261.6</ele>
        <time>2022-06-10T13:07:54Z</time>
      </trkpt>
      <trkpt lat="44.64145" lon="4.33768">
        <ele>261.7</ele>
        <time>2022-06-10T13:07:55Z</time>
      </trkpt>
      <trkpt lat="44.64141" lon="4.33776">
        <ele>261.8</ele>
        <time>2022-06-10T13:07:56Z</time>
      </trkpt>
      <trkpt lat="44.64137" lon="4.33785">
        <ele>261.7</ele>
        <time>2022-06-10T13:07:57Z</time>
      </trkpt>
      <trkpt lat="44.64133" lon="4.33795">
        <ele>261.7</ele>
        <time>2022-06-10T13:07:58Z</time>
      </trkpt>
      <trkpt lat="44.64131" lon="4.33804">
        <ele>261.6</ele>
        <time>2022-06-10T13:07:59Z</time>
      </trkpt>
      <trkpt lat="44.64128" lon="4.33814">
        <ele>261.5</ele>
        <time>2022-06-10T13:08:00Z</time>
      </trkpt>
      <trkpt lat="44.64125" lon="4.33823">
        <ele>261.5</ele>
        <time>2022-06-10T13:08:01Z</time>
      </trkpt>
      <trkpt lat="44.64123" lon="4.33831">
        <ele>261.4</ele>
        <time>2022-06-10T13:08:02Z</time>
      </trkpt>
      <trkpt lat="44.64121" lon="4.3384">
        <ele>261.2</ele>
        <time>2022-06-10T13:08:03Z</time>
      </trkpt>
      <trkpt lat="44.64119" lon="4.33849">
        <ele>261.1</ele>
        <time>2022-06-10T13:08:04Z</time>
      </trkpt>
      <trkpt lat="44.64118" lon="4.33859">
        <ele>260.9</ele>
        <time>2022-06-10T13:08:05Z</time>
      </trkpt>
      <trkpt lat="44.64116" lon="4.33868">
        <ele>260.8</ele>
        <time>2022-06-10T13:08:06Z</time>
      </trkpt>
      <trkpt lat="44.64115" lon="4.33878">
        <ele>260.6</ele>
        <time>2022-06-10T13:08:07Z</time>
      </trkpt>
      <trkpt lat="44.64114" lon="4.33887">
        <ele>260.4</ele>
        <time>2022-06-10T13:08:08Z</time>
      </trkpt>
      <trkpt lat="44.64113" lon="4.33897">
        <ele>260.2</ele>
        <time>2022-06-10T13:08:09Z</time>
      </trkpt>
      <trkpt lat="44.64113" lon="4.33907">
        <ele>260</ele>
        <time>2022-06-10T13:08:10Z</time>
      </trkpt>
      <trkpt lat="44.64114" lon="4.33917">
        <ele>259.8</ele>
        <time>2022-06-10T13:08:11Z</time>
      </trkpt>
      <trkpt lat="44.64114" lon="4.33928">
        <ele>259.5</ele>
        <time>2022-06-10T13:08:12Z</time>
      </trkpt>
      <trkpt lat="44.64114" lon="4.33939">
        <ele>259.1</ele>
        <time>2022-06-10T13:08:13Z</time>
      </trkpt>
      <trkpt lat="44.64114" lon="4.33951">
        <ele>258.8</ele>
        <time>2022-06-10T13:08:14Z</time>
      </trkpt>
      <trkpt lat="44.64115" lon="4.33962">
        <ele>258.4</ele>
        <time>2022-06-10T13:08:15Z</time>
      </trkpt>
      <trkpt lat="44.64115" lon="4.33974">
        <ele>258.2</ele>
        <time>2022-06-10T13:08:16Z</time>
      </trkpt>
      <trkpt lat="44.64116" lon="4.33985">
        <ele>258.1</ele>
        <time>2022-06-10T13:08:17Z</time>
      </trkpt>
      <trkpt lat="44.64116" lon="4.33996">
        <ele>257.9</ele>
        <time>2022-06-10T13:08:18Z</time>
      </trkpt>
      <trkpt lat="44.64116" lon="4.34008">
        <ele>257.8</ele>
        <time>2022-06-10T13:08:19Z</time>
      </trkpt>
      <trkpt lat="44.64117" lon="4.34019">
        <ele>257.7</ele>
        <time>2022-06-10T13:08:20Z</time>
      </trkpt>
      <trkpt lat="44.64118" lon="4.34031">
        <ele>257.5</ele>
        <time>2022-06-10T13:08:21Z</time>
      </trkpt>
      <trkpt lat="44.64119" lon="4.34041">
        <ele>257.4</ele>
        <time>2022-06-10T13:08:22Z</time>
      </trkpt>
      <trkpt lat="44.6412" lon="4.34052">
        <ele>257.3</ele>
        <time>2022-06-10T13:08:23Z</time>
      </trkpt>
      <trkpt lat="44.6412" lon="4.34063">
        <ele>257.2</ele>
        <time>2022-06-10T13:08:24Z</time>
      </trkpt>
      <trkpt lat="44.64121" lon="4.34073">
        <ele>257.1</ele>
        <time>2022-06-10T13:08:25Z</time>
      </trkpt>
      <trkpt lat="44.64122" lon="4.34084">
        <ele>257</ele>
        <time>2022-06-10T13:08:26Z</time>
      </trkpt>
      <trkpt lat="44.64124" lon="4.34094">
        <ele>256.9</ele>
        <time>2022-06-10T13:08:27Z</time>
      </trkpt>
      <trkpt lat="44.64126" lon="4.34105">
        <ele>256.8</ele>
        <time>2022-06-10T13:08:28Z</time>
      </trkpt>
      <trkpt lat="44.64128" lon="4.34115">
        <ele>256.8</ele>
        <time>2022-06-10T13:08:29Z</time>
      </trkpt>
      <trkpt lat="44.6413" lon="4.34125">
        <ele>256.7</ele>
        <time>2022-06-10T13:08:30Z</time>
      </trkpt>
      <trkpt lat="44.64133" lon="4.34135">
        <ele>256.6</ele>
        <time>2022-06-10T13:08:31Z</time>
      </trkpt>
      <trkpt lat="44.64136" lon="4.34146">
        <ele>256.6</ele>
        <time>2022-06-10T13:08:32Z</time>
      </trkpt>
      <trkpt lat="44.64139" lon="4.34156">
        <ele>256.5</ele>
        <time>2022-06-10T13:08:33Z</time>
      </trkpt>
      <trkpt lat="44.64142" lon="4.34167">
        <ele>256.4</ele>
        <time>2022-06-10T13:08:34Z</time>
      </trkpt>
      <trkpt lat="44.64146" lon="4.34176">
        <ele>256.3</ele>
        <time>2022-06-10T13:08:35Z</time>
      </trkpt>
      <trkpt lat="44.6415" lon="4.34186">
        <ele>256.3</ele>
        <time>2022-06-10T13:08:36Z</time>
      </trkpt>
      <trkpt lat="44.64154" lon="4.34196">
        <ele>256.2</ele>
        <time>2022-06-10T13:08:37Z</time>
      </trkpt>
      <trkpt lat="44.64159" lon="4.34205">
        <ele>256.2</ele>
        <time>2022-06-10T13:08:38Z</time>
      </trkpt>
      <trkpt lat="44.64163" lon="4.34214">
        <ele>256.1</ele>
        <time>2022-06-10T13:08:39Z</time>
      </trkpt>
      <trkpt lat="44.64167" lon="4.34223">
        <ele>256</ele>
        <time>2022-06-10T13:08:40Z</time>
      </trkpt>
      <trkpt lat="44.64172" lon="4.34232">
        <ele>255.9</ele>
        <time>2022-06-10T13:08:41Z</time>
      </trkpt>
      <trkpt lat="44.64177" lon="4.3424">
        <ele>255.9</ele>
        <time>2022-06-10T13:08:42Z</time>
      </trkpt>
      <trkpt lat="44.64183" lon="4.34249">
        <ele>255.8</ele>
        <time>2022-06-10T13:08:43Z</time>
      </trkpt>
      <trkpt lat="44.64188" lon="4.34257">
        <ele>255.7</ele>
        <time>2022-06-10T13:08:44Z</time>
      </trkpt>
      <trkpt lat="44.64194" lon="4.34265">
        <ele>255.6</ele>
        <time>2022-06-10T13:08:45Z</time>
      </trkpt>
      <trkpt lat="44.64199" lon="4.34274">
        <ele>255.6</ele>
        <time>2022-06-10T13:08:46Z</time>
      </trkpt>
      <trkpt lat="44.64204" lon="4.34282">
        <ele>255.5</ele>
        <time>2022-06-10T13:08:47Z</time>
      </trkpt>
      <trkpt lat="44.64209" lon="4.34291">
        <ele>255.5</ele>
        <time>2022-06-10T13:08:48Z</time>
      </trkpt>
      <trkpt lat="44.64214" lon="4.34299">
        <ele>255.4</ele>
        <time>2022-06-10T13:08:49Z</time>
      </trkpt>
      <trkpt lat="44.64219" lon="4.34306">
        <ele>255.3</ele>
        <time>2022-06-10T13:08:50Z</time>
      </trkpt>
      <trkpt lat="44.64224" lon="4.34314">
        <ele>255.3</ele>
        <time>2022-06-10T13:08:51Z</time>
      </trkpt>
      <trkpt lat="44.64228" lon="4.34322">
        <ele>255.2</ele>
        <time>2022-06-10T13:08:52Z</time>
      </trkpt>
      <trkpt lat="44.64233" lon="4.3433">
        <ele>255.1</ele>
        <time>2022-06-10T13:08:53Z</time>
      </trkpt>
      <trkpt lat="44.64238" lon="4.34338">
        <ele>255.1</ele>
        <time>2022-06-10T13:08:54Z</time>
      </trkpt>
      <trkpt lat="44.64242" lon="4.34347">
        <ele>255</ele>
        <time>2022-06-10T13:08:55Z</time>
      </trkpt>
      <trkpt lat="44.64246" lon="4.34355">
        <ele>255</ele>
        <time>2022-06-10T13:08:56Z</time>
      </trkpt>
      <trkpt lat="44.6425" lon="4.34364">
        <ele>254.9</ele>
        <time>2022-06-10T13:08:57Z</time>
      </trkpt>
      <trkpt lat="44.64254" lon="4.34374">
        <ele>254.9</ele>
        <time>2022-06-10T13:08:58Z</time>
      </trkpt>
      <trkpt lat="44.64257" lon="4.34383">
        <ele>254.8</ele>
        <time>2022-06-10T13:08:59Z</time>
      </trkpt>
      <trkpt lat="44.64259" lon="4.34393">
        <ele>254.8</ele>
        <time>2022-06-10T13:09:00Z</time>
      </trkpt>
      <trkpt lat="44.64262" lon="4.34402">
        <ele>254.8</ele>
        <time>2022-06-10T13:09:01Z</time>
      </trkpt>
      <trkpt lat="44.64265" lon="4.34411">
        <ele>254.7</ele>
        <time>2022-06-10T13:09:02Z</time>
      </trkpt>
      <trkpt lat="44.64269" lon="4.34418">
        <ele>254.7</ele>
        <time>2022-06-10T13:09:03Z</time>
      </trkpt>
      <trkpt lat="44.64272" lon="4.34426">
        <ele>254.7</ele>
        <time>2022-06-10T13:09:04Z</time>
      </trkpt>
      <trkpt lat="44.64275" lon="4.34434">
        <ele>254.7</ele>
        <time>2022-06-10T13:09:05Z</time>
      </trkpt>
      <trkpt lat="44.64278" lon="4.34442">
        <ele>254.7</ele>
        <time>2022-06-10T13:09:06Z</time>
      </trkpt>
      <trkpt lat="44.64281" lon="4.3445">
        <ele>254.7</ele>
        <time>2022-06-10T13:09:07Z</time>
      </trkpt>
      <trkpt lat="44.64284" lon="4.34458">
        <ele>254.7</ele>
        <time>2022-06-10T13:09:08Z</time>
      </trkpt>
      <trkpt lat="44.64286" lon="4.34465">
        <ele>254.7</ele>
        <time>2022-06-10T13:09:09Z</time>
      </trkpt>
      <trkpt lat="44.64289" lon="4.34472">
        <ele>254.6</ele>
        <time>2022-06-10T13:09:10Z</time>
      </trkpt>
      <trkpt lat="44.64292" lon="4.34479">
        <ele>254.6</ele>
        <time>2022-06-10T13:09:11Z</time>
      </trkpt>
      <trkpt lat="44.64295" lon="4.34485">
        <ele>254.6</ele>
        <time>2022-06-10T13:09:12Z</time>
      </trkpt>
      <trkpt lat="44.64298" lon="4.34491">
        <ele>254.5</ele>
        <time>2022-06-10T13:09:13Z</time>
      </trkpt>
      <trkpt lat="44.64301" lon="4.34497">
        <ele>254.5</ele>
        <time>2022-06-10T13:09:14Z</time>
      </trkpt>
      <trkpt lat="44.64304" lon="4.34503">
        <ele>254.4</ele>
        <time>2022-06-10T13:09:15Z</time>
      </trkpt>
      <trkpt lat="44.64308" lon="4.34508">
        <ele>254.4</ele>
        <time>2022-06-10T13:09:16Z</time>
      </trkpt>
      <trkpt lat="44.64311" lon="4.34513">
        <ele>254.3</ele>
        <time>2022-06-10T13:09:17Z</time>
      </trkpt>
      <trkpt lat="44.64315" lon="4.34518">
        <ele>254.2</ele>
        <time>2022-06-10T13:09:18Z</time>
      </trkpt>
      <trkpt lat="44.64318" lon="4.34523">
        <ele>254.2</ele>
        <time>2022-06-10T13:09:19Z</time>
      </trkpt>
      <trkpt lat="44.64322" lon="4.34527">
        <ele>254.1</ele>
        <time>2022-06-10T13:09:20Z</time>
      </trkpt>
      <trkpt lat="44.64325" lon="4.34532">
        <ele>254</ele>
        <time>2022-06-10T13:09:21Z</time>
      </trkpt>
      <trkpt lat="44.64329" lon="4.34537">
        <ele>254</ele>
        <time>2022-06-10T13:09:22Z</time>
      </trkpt>
      <trkpt lat="44.64332" lon="4.34543">
        <ele>254</ele>
        <time>2022-06-10T13:09:23Z</time>
      </trkpt>
      <trkpt lat="44.64336" lon="4.34548">
        <ele>253.9</ele>
        <time>2022-06-10T13:09:24Z</time>
      </trkpt>
      <trkpt lat="44.64339" lon="4.34553">
        <ele>253.9</ele>
        <time>2022-06-10T13:09:25Z</time>
      </trkpt>
      <trkpt lat="44.64343" lon="4.34558">
        <ele>253.8</ele>
        <time>2022-06-10T13:09:26Z</time>
      </trkpt>
      <trkpt lat="44.64346" lon="4.34562">
        <ele>253.7</ele>
        <time>2022-06-10T13:09:27Z</time>
      </trkpt>
      <trkpt lat="44.6435" lon="4.34568">
        <ele>253.7</ele>
        <time>2022-06-10T13:09:28Z</time>
      </trkpt>
      <trkpt lat="44.64354" lon="4.34573">
        <ele>253.7</ele>
        <time>2022-06-10T13:09:29Z</time>
      </trkpt>
      <trkpt lat="44.64357" lon="4.34578">
        <ele>253.6</ele>
        <time>2022-06-10T13:09:30Z</time>
      </trkpt>
      <trkpt lat="44.6436" lon="4.34584">
        <ele>253.6</ele>
        <time>2022-06-10T13:09:31Z</time>
      </trkpt>
      <trkpt lat="44.64363" lon="4.3459">
        <ele>253.6</ele>
        <time>2022-06-10T13:09:32Z</time>
      </trkpt>
      <trkpt lat="44.64366" lon="4.34595">
        <ele>253.5</ele>
        <time>2022-06-10T13:09:33Z</time>
      </trkpt>
      <trkpt lat="44.64369" lon="4.34601">
        <ele>253.5</ele>
        <time>2022-06-10T13:09:34Z</time>
      </trkpt>
      <trkpt lat="44.64373" lon="4.34607">
        <ele>253.5</ele>
        <time>2022-06-10T13:09:35Z</time>
      </trkpt>
      <trkpt lat="44.64376" lon="4.34613">
        <ele>253.4</ele>
        <time>2022-06-10T13:09:36Z</time>
      </trkpt>
      <trkpt lat="44.64379" lon="4.3462">
        <ele>253.4</ele>
        <time>2022-06-10T13:09:37Z</time>
      </trkpt>
      <trkpt lat="44.64383" lon="4.34626">
        <ele>253.4</ele>
        <time>2022-06-10T13:09:38Z</time>
      </trkpt>
      <trkpt lat="44.64386" lon="4.34633">
        <ele>253.3</ele>
        <time>2022-06-10T13:09:39Z</time>
      </trkpt>
      <trkpt lat="44.6439" lon="4.34639">
        <ele>253.3</ele>
        <time>2022-06-10T13:09:40Z</time>
      </trkpt>
      <trkpt lat="44.64393" lon="4.34646">
        <ele>253.2</ele>
        <time>2022-06-10T13:09:41Z</time>
      </trkpt>
      <trkpt lat="44.64396" lon="4.34653">
        <ele>253.2</ele>
        <time>2022-06-10T13:09:42Z</time>
      </trkpt>
      <trkpt lat="44.64399" lon="4.3466">
        <ele>253.2</ele>
        <time>2022-06-10T13:09:43Z</time>
      </trkpt>
      <trkpt lat="44.64403" lon="4.34667">
        <ele>253.1</ele>
        <time>2022-06-10T13:09:44Z</time>
      </trkpt>
      <trkpt lat="44.64407" lon="4.34674">
        <ele>253.1</ele>
        <time>2022-06-10T13:09:45Z</time>
      </trkpt>
      <trkpt lat="44.6441" lon="4.3468">
        <ele>253.1</ele>
        <time>2022-06-10T13:09:46Z</time>
      </trkpt>
      <trkpt lat="44.64413" lon="4.34687">
        <ele>253</ele>
        <time>2022-06-10T13:09:47Z</time>
      </trkpt>
      <trkpt lat="44.64417" lon="4.34694">
        <ele>253</ele>
        <time>2022-06-10T13:09:48Z</time>
      </trkpt>
      <trkpt lat="44.64421" lon="4.34701">
        <ele>253</ele>
        <time>2022-06-10T13:09:49Z</time>
      </trkpt>
      <trkpt lat="44.64425" lon="4.34709">
        <ele>252.9</ele>
        <time>2022-06-10T13:09:50Z</time>
      </trkpt>
      <trkpt lat="44.64428" lon="4.34716">
        <ele>252.9</ele>
        <time>2022-06-10T13:09:51Z</time>
      </trkpt>
      <trkpt lat="44.64432" lon="4.34724">
        <ele>252.9</ele>
        <time>2022-06-10T13:09:52Z</time>
      </trkpt>
      <trkpt lat="44.64435" lon="4.34731">
        <ele>252.9</ele>
        <time>2022-06-10T13:09:53Z</time>
      </trkpt>
      <trkpt lat="44.64438" lon="4.34739">
        <ele>252.8</ele>
        <time>2022-06-10T13:09:54Z</time>
      </trkpt>
      <trkpt lat="44.64441" lon="4.34747">
        <ele>252.8</ele>
        <time>2022-06-10T13:09:55Z</time>
      </trkpt>
      <trkpt lat="44.64444" lon="4.34755">
        <ele>252.8</ele>
        <time>2022-06-10T13:09:56Z</time>
      </trkpt>
      <trkpt lat="44.64447" lon="4.34762">
        <ele>252.7</ele>
        <time>2022-06-10T13:09:57Z</time>
      </trkpt>
      <trkpt lat="44.6445" lon="4.3477">
        <ele>252.7</ele>
        <time>2022-06-10T13:09:58Z</time>
      </trkpt>
      <trkpt lat="44.64453" lon="4.34778">
        <ele>252.7</ele>
        <time>2022-06-10T13:09:59Z</time>
      </trkpt>
      <trkpt lat="44.64456" lon="4.34787">
        <ele>252.7</ele>
        <time>2022-06-10T13:10:00Z</time>
      </trkpt>
      <trkpt lat="44.6446" lon="4.34795">
        <ele>252.6</ele>
        <time>2022-06-10T13:10:01Z</time>
      </trkpt>
      <trkpt lat="44.64463" lon="4.34803">
        <ele>252.6</ele>
        <time>2022-06-10T13:10:02Z</time>
      </trkpt>
      <trkpt lat="44.64466" lon="4.34811">
        <ele>252.6</ele>
        <time>2022-06-10T13:10:03Z</time>
      </trkpt>
      <trkpt lat="44.6447" lon="4.34819">
        <ele>252.6</ele>
        <time>2022-06-10T13:10:04Z</time>
      </trkpt>
      <trkpt lat="44.64473" lon="4.34827">
        <ele>252.6</ele>
        <time>2022-06-10T13:10:05Z</time>
      </trkpt>
      <trkpt lat="44.64477" lon="4.34834">
        <ele>252.5</ele>
        <time>2022-06-10T13:10:06Z</time>
      </trkpt>
      <trkpt lat="44.64481" lon="4.34843">
        <ele>252.5</ele>
        <time>2022-06-10T13:10:07Z</time>
      </trkpt>
      <trkpt lat="44.64484" lon="4.34851">
        <ele>252.5</ele>
        <time>2022-06-10T13:10:08Z</time>
      </trkpt>
      <trkpt lat="44.64486" lon="4.3486">
        <ele>252.5</ele>
        <time>2022-06-10T13:10:09Z</time>
      </trkpt>
      <trkpt lat="44.64488" lon="4.34869">
        <ele>252.4</ele>
        <time>2022-06-10T13:10:10Z</time>
      </trkpt>
      <trkpt lat="44.6449" lon="4.34878">
        <ele>252.4</ele>
        <time>2022-06-10T13:10:11Z</time>
      </trkpt>
      <trkpt lat="44.6449" lon="4.34887">
        <ele>252.4</ele>
        <time>2022-06-10T13:10:12Z</time>
      </trkpt>
      <trkpt lat="44.6449" lon="4.34896">
        <ele>252.3</ele>
        <time>2022-06-10T13:10:13Z</time>
      </trkpt>
      <trkpt lat="44.6449" lon="4.34905">
        <ele>252.3</ele>
        <time>2022-06-10T13:10:14Z</time>
      </trkpt>
      <trkpt lat="44.64491" lon="4.34914">
        <ele>252.2</ele>
        <time>2022-06-10T13:10:15Z</time>
      </trkpt>
      <trkpt lat="44.64491" lon="4.34923">
        <ele>252.2</ele>
        <time>2022-06-10T13:10:16Z</time>
      </trkpt>
      <trkpt lat="44.64492" lon="4.34932">
        <ele>252.2</ele>
        <time>2022-06-10T13:10:17Z</time>
      </trkpt>
      <trkpt lat="44.64493" lon="4.34941">
        <ele>252.1</ele>
        <time>2022-06-10T13:10:18Z</time>
      </trkpt>
      <trkpt lat="44.64493" lon="4.3495">
        <ele>252.1</ele>
        <time>2022-06-10T13:10:19Z</time>
      </trkpt>
      <trkpt lat="44.64493" lon="4.3496">
        <ele>252.1</ele>
        <time>2022-06-10T13:10:20Z</time>
      </trkpt>
      <trkpt lat="44.64493" lon="4.34968">
        <ele>252.1</ele>
        <time>2022-06-10T13:10:21Z</time>
      </trkpt>
      <trkpt lat="44.64493" lon="4.34977">
        <ele>252</ele>
        <time>2022-06-10T13:10:22Z</time>
      </trkpt>
      <trkpt lat="44.64493" lon="4.34987">
        <ele>252</ele>
        <time>2022-06-10T13:10:23Z</time>
      </trkpt>
      <trkpt lat="44.64494" lon="4.34995">
        <ele>252</ele>
        <time>2022-06-10T13:10:24Z</time>
      </trkpt>
      <trkpt lat="44.64495" lon="4.35004">
        <ele>252</ele>
        <time>2022-06-10T13:10:25Z</time>
      </trkpt>
      <trkpt lat="44.64496" lon="4.35012">
        <ele>252</ele>
        <time>2022-06-10T13:10:26Z</time>
      </trkpt>
      <trkpt lat="44.64496" lon="4.3502">
        <ele>252</ele>
        <time>2022-06-10T13:10:27Z</time>
      </trkpt>
      <trkpt lat="44.64497" lon="4.35029">
        <ele>251.9</ele>
        <time>2022-06-10T13:10:28Z</time>
      </trkpt>
      <trkpt lat="44.64498" lon="4.35037">
        <ele>251.9</ele>
        <time>2022-06-10T13:10:29Z</time>
      </trkpt>
      <trkpt lat="44.64498" lon="4.35046">
        <ele>251.9</ele>
        <time>2022-06-10T13:10:30Z</time>
      </trkpt>
      <trkpt lat="44.64498" lon="4.35054">
        <ele>251.9</ele>
        <time>2022-06-10T13:10:31Z</time>
      </trkpt>
      <trkpt lat="44.64498" lon="4.35062">
        <ele>251.8</ele>
        <time>2022-06-10T13:10:32Z</time>
      </trkpt>
      <trkpt lat="44.64498" lon="4.35071">
        <ele>251.8</ele>
        <time>2022-06-10T13:10:33Z</time>
      </trkpt>
      <trkpt lat="44.64498" lon="4.35079">
        <ele>251.7</ele>
        <time>2022-06-10T13:10:34Z</time>
      </trkpt>
      <trkpt lat="44.64498" lon="4.35088">
        <ele>251.7</ele>
        <time>2022-06-10T13:10:35Z</time>
      </trkpt>
      <trkpt lat="44.64499" lon="4.35097">
        <ele>251.7</ele>
        <time>2022-06-10T13:10:36Z</time>
      </trkpt>
      <trkpt lat="44.64499" lon="4.35105">
        <ele>251.6</ele>
        <time>2022-06-10T13:10:37Z</time>
      </trkpt>
      <trkpt lat="44.64499" lon="4.35114">
        <ele>251.6</ele>
        <time>2022-06-10T13:10:38Z</time>
      </trkpt>
      <trkpt lat="44.64499" lon="4.35122">
        <ele>251.6</ele>
        <time>2022-06-10T13:10:39Z</time>
      </trkpt>
      <trkpt lat="44.64499" lon="4.3513">
        <ele>251.5</ele>
        <time>2022-06-10T13:10:40Z</time>
      </trkpt>
      <trkpt lat="44.64499" lon="4.35139">
        <ele>251.5</ele>
        <time>2022-06-10T13:10:41Z</time>
      </trkpt>
      <trkpt lat="44.645" lon="4.35147">
        <ele>251.5</ele>
        <time>2022-06-10T13:10:42Z</time>
      </trkpt>
      <trkpt lat="44.64499" lon="4.35155">
        <ele>251.5</ele>
        <time>2022-06-10T13:10:43Z</time>
      </trkpt>
      <trkpt lat="44.64499" lon="4.35164">
        <ele>251.4</ele>
        <time>2022-06-10T13:10:44Z</time>
      </trkpt>
      <trkpt lat="44.64498" lon="4.35172">
        <ele>251.4</ele>
        <time>2022-06-10T13:10:45Z</time>
      </trkpt>
      <trkpt lat="44.64498" lon="4.35181">
        <ele>251.3</ele>
        <time>2022-06-10T13:10:46Z</time>
      </trkpt>
      <trkpt lat="44.64499" lon="4.3519">
        <ele>251.3</ele>
        <time>2022-06-10T13:10:47Z</time>
      </trkpt>
      <trkpt lat="44.64499" lon="4.35199">
        <ele>251.2</ele>
        <time>2022-06-10T13:10:48Z</time>
      </trkpt>
      <trkpt lat="44.64499" lon="4.35208">
        <ele>251.2</ele>
        <time>2022-06-10T13:10:49Z</time>
      </trkpt>
      <trkpt lat="44.64499" lon="4.35216">
        <ele>251.1</ele>
        <time>2022-06-10T13:10:50Z</time>
      </trkpt>
      <trkpt lat="44.64499" lon="4.35225">
        <ele>251.1</ele>
        <time>2022-06-10T13:10:51Z</time>
      </trkpt>
      <trkpt lat="44.64499" lon="4.35233">
        <ele>251.1</ele>
        <time>2022-06-10T13:10:52Z</time>
      </trkpt>
      <trkpt lat="44.64499" lon="4.35241">
        <ele>251</ele>
        <time>2022-06-10T13:10:53Z</time>
      </trkpt>
      <trkpt lat="44.64499" lon="4.3525">
        <ele>251</ele>
        <time>2022-06-10T13:10:54Z</time>
      </trkpt>
      <trkpt lat="44.645" lon="4.35259">
        <ele>251</ele>
        <time>2022-06-10T13:10:55Z</time>
      </trkpt>
      <trkpt lat="44.645" lon="4.35268">
        <ele>250.9</ele>
        <time>2022-06-10T13:10:56Z</time>
      </trkpt>
      <trkpt lat="44.645" lon="4.35276">
        <ele>250.9</ele>
        <time>2022-06-10T13:10:57Z</time>
      </trkpt>
      <trkpt lat="44.64501" lon="4.35284">
        <ele>250.9</ele>
        <time>2022-06-10T13:10:58Z</time>
      </trkpt>
      <trkpt lat="44.64502" lon="4.35291">
        <ele>250.9</ele>
        <time>2022-06-10T13:10:59Z</time>
      </trkpt>
      <trkpt lat="44.64503" lon="4.35299">
        <ele>250.9</ele>
        <time>2022-06-10T13:11:00Z</time>
      </trkpt>
      <trkpt lat="44.64504" lon="4.35306">
        <ele>250.9</ele>
        <time>2022-06-10T13:11:01Z</time>
      </trkpt>
      <trkpt lat="44.64505" lon="4.35314">
        <ele>250.8</ele>
        <time>2022-06-10T13:11:02Z</time>
      </trkpt>
      <trkpt lat="44.64506" lon="4.35322">
        <ele>250.8</ele>
        <time>2022-06-10T13:11:03Z</time>
      </trkpt>
      <trkpt lat="44.64508" lon="4.35329">
        <ele>250.8</ele>
        <time>2022-06-10T13:11:04Z</time>
      </trkpt>
      <trkpt lat="44.6451" lon="4.35337">
        <ele>250.8</ele>
        <time>2022-06-10T13:11:05Z</time>
      </trkpt>
      <trkpt lat="44.64513" lon="4.35344">
        <ele>250.7</ele>
        <time>2022-06-10T13:11:06Z</time>
      </trkpt>
      <trkpt lat="44.64515" lon="4.35351">
        <ele>250.7</ele>
        <time>2022-06-10T13:11:07Z</time>
      </trkpt>
      <trkpt lat="44.64517" lon="4.35359">
        <ele>250.6</ele>
        <time>2022-06-10T13:11:08Z</time>
      </trkpt>
      <trkpt lat="44.6452" lon="4.35366">
        <ele>250.6</ele>
        <time>2022-06-10T13:11:09Z</time>
      </trkpt>
      <trkpt lat="44.64523" lon="4.35372">
        <ele>250.5</ele>
        <time>2022-06-10T13:11:10Z</time>
      </trkpt>
      <trkpt lat="44.64527" lon="4.35379">
        <ele>250.4</ele>
        <time>2022-06-10T13:11:11Z</time>
      </trkpt>
      <trkpt lat="44.64531" lon="4.35385">
        <ele>250.3</ele>
        <time>2022-06-10T13:11:12Z</time>
      </trkpt>
      <trkpt lat="44.64535" lon="4.35391">
        <ele>250.3</ele>
        <time>2022-06-10T13:11:13Z</time>
      </trkpt>
      <trkpt lat="44.64539" lon="4.35396">
        <ele>250.2</ele>
        <time>2022-06-10T13:11:14Z</time>
      </trkpt>
      <trkpt lat="44.64544" lon="4.354">
        <ele>250.1</ele>
        <time>2022-06-10T13:11:15Z</time>
      </trkpt>
      <trkpt lat="44.64549" lon="4.35404">
        <ele>250.1</ele>
        <time>2022-06-10T13:11:16Z</time>
      </trkpt>
      <trkpt lat="44.64555" lon="4.35407">
        <ele>250</ele>
        <time>2022-06-10T13:11:17Z</time>
      </trkpt>
      <trkpt lat="44.6456" lon="4.35411">
        <ele>249.9</ele>
        <time>2022-06-10T13:11:18Z</time>
      </trkpt>
      <trkpt lat="44.64566" lon="4.35414">
        <ele>249.8</ele>
        <time>2022-06-10T13:11:19Z</time>
      </trkpt>
      <trkpt lat="44.64572" lon="4.35418">
        <ele>249.7</ele>
        <time>2022-06-10T13:11:20Z</time>
      </trkpt>
      <trkpt lat="44.64578" lon="4.35421">
        <ele>249.7</ele>
        <time>2022-06-10T13:11:21Z</time>
      </trkpt>
      <trkpt lat="44.64583" lon="4.35425">
        <ele>249.6</ele>
        <time>2022-06-10T13:11:22Z</time>
      </trkpt>
      <trkpt lat="44.64589" lon="4.35428">
        <ele>249.5</ele>
        <time>2022-06-10T13:11:23Z</time>
      </trkpt>
      <trkpt lat="44.64595" lon="4.35431">
        <ele>249.4</ele>
        <time>2022-06-10T13:11:24Z</time>
      </trkpt>
      <trkpt lat="44.64601" lon="4.35433">
        <ele>249.3</ele>
        <time>2022-06-10T13:11:25Z</time>
      </trkpt>
      <trkpt lat="44.64606" lon="4.35436">
        <ele>249.2</ele>
        <time>2022-06-10T13:11:26Z</time>
      </trkpt>
      <trkpt lat="44.64611" lon="4.35439">
        <ele>249.2</ele>
        <time>2022-06-10T13:11:27Z</time>
      </trkpt>
      <trkpt lat="44.64616" lon="4.35442">
        <ele>249.2</ele>
        <time>2022-06-10T13:11:28Z</time>
      </trkpt>
      <trkpt lat="44.64622" lon="4.35445">
        <ele>249.1</ele>
        <time>2022-06-10T13:11:29Z</time>
      </trkpt>
      <trkpt lat="44.64626" lon="4.35447">
        <ele>249.1</ele>
        <time>2022-06-10T13:11:30Z</time>
      </trkpt>
      <trkpt lat="44.64631" lon="4.3545">
        <ele>249.1</ele>
        <time>2022-06-10T13:11:31Z</time>
      </trkpt>
      <trkpt lat="44.64636" lon="4.35453">
        <ele>249.1</ele>
        <time>2022-06-10T13:11:32Z</time>
      </trkpt>
      <trkpt lat="44.64641" lon="4.35455">
        <ele>249.1</ele>
        <time>2022-06-10T13:11:33Z</time>
      </trkpt>
      <trkpt lat="44.64646" lon="4.35457">
        <ele>249</ele>
        <time>2022-06-10T13:11:34Z</time>
      </trkpt>
      <trkpt lat="44.64651" lon="4.3546">
        <ele>249</ele>
        <time>2022-06-10T13:11:35Z</time>
      </trkpt>
      <trkpt lat="44.64656" lon="4.35463">
        <ele>249</ele>
        <time>2022-06-10T13:11:36Z</time>
      </trkpt>
      <trkpt lat="44.64661" lon="4.35466">
        <ele>248.9</ele>
        <time>2022-06-10T13:11:37Z</time>
      </trkpt>
      <trkpt lat="44.64666" lon="4.35468">
        <ele>248.9</ele>
        <time>2022-06-10T13:11:38Z</time>
      </trkpt>
      <trkpt lat="44.64671" lon="4.35472">
        <ele>248.9</ele>
        <time>2022-06-10T13:11:39Z</time>
      </trkpt>
      <trkpt lat="44.64676" lon="4.35475">
        <ele>248.9</ele>
        <time>2022-06-10T13:11:40Z</time>
      </trkpt>
      <trkpt lat="44.64681" lon="4.35478">
        <ele>248.9</ele>
        <time>2022-06-10T13:11:41Z</time>
      </trkpt>
      <trkpt lat="44.64685" lon="4.35482">
        <ele>248.9</ele>
        <time>2022-06-10T13:11:42Z</time>
      </trkpt>
      <trkpt lat="44.64689" lon="4.35485">
        <ele>248.8</ele>
        <time>2022-06-10T13:11:43Z</time>
      </trkpt>
      <trkpt lat="44.64693" lon="4.35489">
        <ele>248.8</ele>
        <time>2022-06-10T13:11:44Z</time>
      </trkpt>
      <trkpt lat="44.64697" lon="4.35493">
        <ele>248.9</ele>
        <time>2022-06-10T13:11:45Z</time>
      </trkpt>
      <trkpt lat="44.64701" lon="4.35498">
        <ele>248.9</ele>
        <time>2022-06-10T13:11:46Z</time>
      </trkpt>
      <trkpt lat="44.64705" lon="4.35503">
        <ele>248.9</ele>
        <time>2022-06-10T13:11:47Z</time>
      </trkpt>
      <trkpt lat="44.64708" lon="4.35507">
        <ele>249</ele>
        <time>2022-06-10T13:11:48Z</time>
      </trkpt>
      <trkpt lat="44.6471" lon="4.35512">
        <ele>249</ele>
        <time>2022-06-10T13:11:49Z</time>
      </trkpt>
      <trkpt lat="44.64713" lon="4.35517">
        <ele>249</ele>
        <time>2022-06-10T13:11:50Z</time>
      </trkpt>
      <trkpt lat="44.64714" lon="4.3552">
        <ele>249</ele>
        <time>2022-06-10T13:11:51Z</time>
      </trkpt>
      <trkpt lat="44.64717" lon="4.35525">
        <ele>249</ele>
        <time>2022-06-10T13:11:52Z</time>
      </trkpt>
      <trkpt lat="44.64719" lon="4.35528">
        <ele>249</ele>
        <time>2022-06-10T13:11:53Z</time>
      </trkpt>
      <trkpt lat="44.64722" lon="4.3553">
        <ele>249</ele>
        <time>2022-06-10T13:11:54Z</time>
      </trkpt>
      <trkpt lat="44.64726" lon="4.35531">
        <ele>249</ele>
        <time>2022-06-10T13:11:55Z</time>
      </trkpt>
      <trkpt lat="44.64731" lon="4.3553">
        <ele>249</ele>
        <time>2022-06-10T13:11:56Z</time>
      </trkpt>
      <trkpt lat="44.64737" lon="4.35526">
        <ele>249</ele>
        <time>2022-06-10T13:11:57Z</time>
      </trkpt>
      <trkpt lat="44.64742" lon="4.35522">
        <ele>249</ele>
        <time>2022-06-10T13:11:58Z</time>
      </trkpt>
      <trkpt lat="44.64747" lon="4.35518">
        <ele>249</ele>
        <time>2022-06-10T13:11:59Z</time>
      </trkpt>
      <trkpt lat="44.64753" lon="4.35517">
        <ele>249</ele>
        <time>2022-06-10T13:12:00Z</time>
      </trkpt>
      <trkpt lat="44.64759" lon="4.35518">
        <ele>249</ele>
        <time>2022-06-10T13:12:01Z</time>
      </trkpt>
      <trkpt lat="44.64764" lon="4.3552">
        <ele>248.9</ele>
        <time>2022-06-10T13:12:02Z</time>
      </trkpt>
      <trkpt lat="44.64769" lon="4.35522">
        <ele>248.9</ele>
        <time>2022-06-10T13:12:03Z</time>
      </trkpt>
      <trkpt lat="44.64775" lon="4.35525">
        <ele>248.9</ele>
        <time>2022-06-10T13:12:04Z</time>
      </trkpt>
      <trkpt lat="44.6478" lon="4.35528">
        <ele>248.9</ele>
        <time>2022-06-10T13:12:05Z</time>
      </trkpt>
      <trkpt lat="44.64785" lon="4.35531">
        <ele>248.9</ele>
        <time>2022-06-10T13:12:06Z</time>
      </trkpt>
      <trkpt lat="44.6479" lon="4.35535">
        <ele>248.8</ele>
        <time>2022-06-10T13:12:07Z</time>
      </trkpt>
      <trkpt lat="44.64794" lon="4.35539">
        <ele>248.8</ele>
        <time>2022-06-10T13:12:08Z</time>
      </trkpt>
      <trkpt lat="44.64798" lon="4.35545">
        <ele>248.8</ele>
        <time>2022-06-10T13:12:09Z</time>
      </trkpt>
      <trkpt lat="44.64802" lon="4.3555">
        <ele>248.8</ele>
        <time>2022-06-10T13:12:10Z</time>
      </trkpt>
      <trkpt lat="44.64805" lon="4.35556">
        <ele>248.8</ele>
        <time>2022-06-10T13:12:11Z</time>
      </trkpt>
      <trkpt lat="44.64808" lon="4.35562">
        <ele>248.9</ele>
        <time>2022-06-10T13:12:12Z</time>
      </trkpt>
      <trkpt lat="44.64811" lon="4.35569">
        <ele>248.9</ele>
        <time>2022-06-10T13:12:13Z</time>
      </trkpt>
      <trkpt lat="44.64812" lon="4.35576">
        <ele>248.9</ele>
        <time>2022-06-10T13:12:14Z</time>
      </trkpt>
      <trkpt lat="44.64813" lon="4.35583">
        <ele>249</ele>
        <time>2022-06-10T13:12:15Z</time>
      </trkpt>
      <trkpt lat="44.64813" lon="4.3559">
        <ele>249</ele>
        <time>2022-06-10T13:12:16Z</time>
      </trkpt>
      <trkpt lat="44.64813" lon="4.35597">
        <ele>249</ele>
        <time>2022-06-10T13:12:17Z</time>
      </trkpt>
      <trkpt lat="44.64811" lon="4.35603">
        <ele>249</ele>
        <time>2022-06-10T13:12:18Z</time>
      </trkpt>
      <trkpt lat="44.6481" lon="4.35609">
        <ele>249</ele>
        <time>2022-06-10T13:12:19Z</time>
      </trkpt>
      <trkpt lat="44.64809" lon="4.35614">
        <ele>249</ele>
        <time>2022-06-10T13:12:20Z</time>
      </trkpt>
      <trkpt lat="44.64807" lon="4.35618">
        <ele>249</ele>
        <time>2022-06-10T13:12:21Z</time>
      </trkpt>
      <trkpt lat="44.64806" lon="4.35619">
        <ele>248.9</ele>
        <time>2022-06-10T13:12:22Z</time>
      </trkpt>
      <trkpt lat="44.64805" lon="4.35621">
        <ele>248.9</ele>
        <time>2022-06-10T13:12:23Z</time>
      </trkpt>
      <trkpt lat="44.64805" lon="4.35622">
        <ele>248.9</ele>
        <time>2022-06-10T13:12:24Z</time>
      </trkpt>
      <trkpt lat="44.64805" lon="4.35623">
        <ele>248.9</ele>
        <time>2022-06-10T13:12:25Z</time>
      </trkpt>
      <trkpt lat="44.64805" lon="4.35623">
        <ele>248.9</ele>
        <time>2022-06-10T13:12:26Z</time>
      </trkpt>
      <trkpt lat="44.64805" lon="4.35624">
        <ele>248.9</ele>
        <time>2022-06-10T13:12:27Z</time>
      </trkpt>
      <trkpt lat="44.64805" lon="4.35624">
        <ele>248.9</ele>
        <time>2022-06-10T13:12:28Z</time>
      </trkpt>
      <trkpt lat="44.64805" lon="4.35625">
        <ele>248.9</ele>
        <time>2022-06-10T13:12:29Z</time>
      </trkpt>
      <trkpt lat="44.64804" lon="4.35625">
        <ele>248.9</ele>
        <time>2022-06-10T13:12:30Z</time>
      </trkpt>
      <trkpt lat="44.64804" lon="4.35625">
        <ele>248.9</ele>
        <time>2022-06-10T13:12:31Z</time>
      </trkpt>
      <trkpt lat="44.64804" lon="4.35626">
        <ele>248.9</ele>
        <time>2022-06-10T13:12:32Z</time>
      </trkpt>
      <trkpt lat="44.64804" lon="4.35626">
        <ele>248.9</ele>
        <time>2022-06-10T13:12:33Z</time>
      </trkpt>
      <trkpt lat="44.64804" lon="4.35627">
        <ele>248.9</ele>
        <time>2022-06-10T13:12:34Z</time>
      </trkpt>
      <trkpt lat="44.64803" lon="4.35627">
        <ele>248.9</ele>
        <time>2022-06-10T13:12:35Z</time>
      </trkpt>
      <trkpt lat="44.64803" lon="4.35627">
        <ele>248.9</ele>
        <time>2022-06-10T13:12:36Z</time>
      </trkpt>
      <trkpt lat="44.64803" lon="4.35628">
        <ele>248.9</ele>
        <time>2022-06-10T13:12:37Z</time>
      </trkpt>
      <trkpt lat="44.64803" lon="4.35628">
        <ele>248.9</ele>
        <time>2022-06-10T13:12:38Z</time>
      </trkpt>
      <trkpt lat="44.64803" lon="4.35628">
        <ele>248.9</ele>
        <time>2022-06-10T13:12:39Z</time>
      </trkpt>
      <trkpt lat="44.64801" lon="4.35632">
        <ele>248.9</ele>
        <time>2022-06-10T13:12:40Z</time>
      </trkpt>
      <trkpt lat="44.648" lon="4.35633">
        <ele>248.8</ele>
        <time>2022-06-10T13:12:41Z</time>
      </trkpt>
      <trkpt lat="44.64797" lon="4.35638">
        <ele>248.8</ele>
        <time>2022-06-10T13:12:42Z</time>
      </trkpt>
      <trkpt lat="44.64794" lon="4.35644">
        <ele>248.7</ele>
        <time>2022-06-10T13:12:44Z</time>
      </trkpt>
      <trkpt lat="44.64789" lon="4.35649">
        <ele>248.7</ele>
        <time>2022-06-10T13:12:45Z</time>
      </trkpt>
      <trkpt lat="44.64785" lon="4.35657">
        <ele>248.6</ele>
        <time>2022-06-10T13:12:47Z</time>
      </trkpt>
      <trkpt lat="44.64778" lon="4.35672">
        <ele>248.4</ele>
        <time>2022-06-10T13:12:49Z</time>
      </trkpt>
      <trkpt lat="44.64775" lon="4.35677">
        <ele>248.4</ele>
        <time>2022-06-10T13:12:50Z</time>
      </trkpt>
      <trkpt lat="44.64772" lon="4.35681">
        <ele>248.4</ele>
        <time>2022-06-10T13:12:51Z</time>
      </trkpt>
      <trkpt lat="44.64769" lon="4.35687">
        <ele>248.3</ele>
        <time>2022-06-10T13:12:52Z</time>
      </trkpt>
      <trkpt lat="44.64766" lon="4.35693">
        <ele>248.3</ele>
        <time>2022-06-10T13:12:53Z</time>
      </trkpt>
      <trkpt lat="44.64762" lon="4.35699">
        <ele>248.3</ele>
        <time>2022-06-10T13:12:54Z</time>
      </trkpt>
      <trkpt lat="44.64758" lon="4.35703">
        <ele>248.3</ele>
        <time>2022-06-10T13:12:55Z</time>
      </trkpt>
      <trkpt lat="44.64754" lon="4.35708">
        <ele>248.3</ele>
        <time>2022-06-10T13:12:56Z</time>
      </trkpt>
      <trkpt lat="44.6475" lon="4.35713">
        <ele>248.3</ele>
        <time>2022-06-10T13:12:57Z</time>
      </trkpt>
      <trkpt lat="44.64747" lon="4.35718">
        <ele>248.2</ele>
        <time>2022-06-10T13:12:58Z</time>
      </trkpt>
      <trkpt lat="44.64743" lon="4.35723">
        <ele>248.2</ele>
        <time>2022-06-10T13:12:59Z</time>
      </trkpt>
      <trkpt lat="44.6474" lon="4.35729">
        <ele>248.1</ele>
        <time>2022-06-10T13:13:00Z</time>
      </trkpt>
      <trkpt lat="44.64736" lon="4.35735">
        <ele>248.1</ele>
        <time>2022-06-10T13:13:01Z</time>
      </trkpt>
      <trkpt lat="44.64733" lon="4.35741">
        <ele>248</ele>
        <time>2022-06-10T13:13:02Z</time>
      </trkpt>
      <trkpt lat="44.64729" lon="4.35747">
        <ele>247.9</ele>
        <time>2022-06-10T13:13:03Z</time>
      </trkpt>
      <trkpt lat="44.64726" lon="4.35753">
        <ele>247.9</ele>
        <time>2022-06-10T13:13:04Z</time>
      </trkpt>
      <trkpt lat="44.64725" lon="4.35761">
        <ele>247.8</ele>
        <time>2022-06-10T13:13:05Z</time>
      </trkpt>
      <trkpt lat="44.64725" lon="4.35769">
        <ele>247.7</ele>
        <time>2022-06-10T13:13:06Z</time>
      </trkpt>
      <trkpt lat="44.64723" lon="4.35776">
        <ele>247.7</ele>
        <time>2022-06-10T13:13:07Z</time>
      </trkpt>
      <trkpt lat="44.64719" lon="4.35781">
        <ele>247.6</ele>
        <time>2022-06-10T13:13:08Z</time>
      </trkpt>
      <trkpt lat="44.64716" lon="4.35787">
        <ele>247.5</ele>
        <time>2022-06-10T13:13:09Z</time>
      </trkpt>
      <trkpt lat="44.64713" lon="4.35793">
        <ele>247.4</ele>
        <time>2022-06-10T13:13:10Z</time>
      </trkpt>
      <trkpt lat="44.64711" lon="4.358">
        <ele>247.3</ele>
        <time>2022-06-10T13:13:11Z</time>
      </trkpt>
      <trkpt lat="44.64708" lon="4.35807">
        <ele>247.2</ele>
        <time>2022-06-10T13:13:12Z</time>
      </trkpt>
      <trkpt lat="44.64706" lon="4.35814">
        <ele>247.1</ele>
        <time>2022-06-10T13:13:13Z</time>
      </trkpt>
      <trkpt lat="44.64704" lon="4.35821">
        <ele>247</ele>
        <time>2022-06-10T13:13:14Z</time>
      </trkpt>
      <trkpt lat="44.64702" lon="4.35829">
        <ele>246.9</ele>
        <time>2022-06-10T13:13:15Z</time>
      </trkpt>
      <trkpt lat="44.647" lon="4.35836">
        <ele>246.8</ele>
        <time>2022-06-10T13:13:16Z</time>
      </trkpt>
      <trkpt lat="44.64698" lon="4.35843">
        <ele>246.7</ele>
        <time>2022-06-10T13:13:17Z</time>
      </trkpt>
      <trkpt lat="44.64697" lon="4.35851">
        <ele>246.7</ele>
        <time>2022-06-10T13:13:18Z</time>
      </trkpt>
      <trkpt lat="44.64695" lon="4.35859">
        <ele>246.6</ele>
        <time>2022-06-10T13:13:19Z</time>
      </trkpt>
      <trkpt lat="44.64694" lon="4.35867">
        <ele>246.5</ele>
        <time>2022-06-10T13:13:20Z</time>
      </trkpt>
      <trkpt lat="44.64693" lon="4.35875">
        <ele>246.4</ele>
        <time>2022-06-10T13:13:21Z</time>
      </trkpt>
      <trkpt lat="44.64692" lon="4.35883">
        <ele>246.3</ele>
        <time>2022-06-10T13:13:22Z</time>
      </trkpt>
      <trkpt lat="44.64692" lon="4.35891">
        <ele>246.2</ele>
        <time>2022-06-10T13:13:23Z</time>
      </trkpt>
      <trkpt lat="44.64691" lon="4.35899">
        <ele>246.1</ele>
        <time>2022-06-10T13:13:24Z</time>
      </trkpt>
      <trkpt lat="44.64691" lon="4.35908">
        <ele>246.1</ele>
        <time>2022-06-10T13:13:25Z</time>
      </trkpt>
      <trkpt lat="44.6469" lon="4.35916">
        <ele>246</ele>
        <time>2022-06-10T13:13:26Z</time>
      </trkpt>
      <trkpt lat="44.6469" lon="4.35924">
        <ele>245.9</ele>
        <time>2022-06-10T13:13:27Z</time>
      </trkpt>
      <trkpt lat="44.6469" lon="4.35931">
        <ele>245.8</ele>
        <time>2022-06-10T13:13:28Z</time>
      </trkpt>
      <trkpt lat="44.6469" lon="4.35939">
        <ele>245.8</ele>
        <time>2022-06-10T13:13:29Z</time>
      </trkpt>
      <trkpt lat="44.64689" lon="4.35947">
        <ele>245.7</ele>
        <time>2022-06-10T13:13:30Z</time>
      </trkpt>
      <trkpt lat="44.6469" lon="4.35955">
        <ele>245.6</ele>
        <time>2022-06-10T13:13:31Z</time>
      </trkpt>
      <trkpt lat="44.6469" lon="4.35963">
        <ele>245.6</ele>
        <time>2022-06-10T13:13:32Z</time>
      </trkpt>
      <trkpt lat="44.64691" lon="4.35971">
        <ele>245.5</ele>
        <time>2022-06-10T13:13:33Z</time>
      </trkpt>
      <trkpt lat="44.64691" lon="4.3598">
        <ele>245.4</ele>
        <time>2022-06-10T13:13:34Z</time>
      </trkpt>
      <trkpt lat="44.64693" lon="4.35988">
        <ele>245.3</ele>
        <time>2022-06-10T13:13:35Z</time>
      </trkpt>
      <trkpt lat="44.64693" lon="4.35997">
        <ele>245.2</ele>
        <time>2022-06-10T13:13:36Z</time>
      </trkpt>
      <trkpt lat="44.64694" lon="4.36006">
        <ele>245.2</ele>
        <time>2022-06-10T13:13:37Z</time>
      </trkpt>
      <trkpt lat="44.64696" lon="4.36014">
        <ele>245.1</ele>
        <time>2022-06-10T13:13:38Z</time>
      </trkpt>
      <trkpt lat="44.64697" lon="4.36022">
        <ele>244.9</ele>
        <time>2022-06-10T13:13:39Z</time>
      </trkpt>
      <trkpt lat="44.647" lon="4.36031">
        <ele>244.8</ele>
        <time>2022-06-10T13:13:40Z</time>
      </trkpt>
      <trkpt lat="44.64702" lon="4.36039">
        <ele>244.7</ele>
        <time>2022-06-10T13:13:41Z</time>
      </trkpt>
      <trkpt lat="44.64705" lon="4.36047">
        <ele>244.6</ele>
        <time>2022-06-10T13:13:42Z</time>
      </trkpt>
      <trkpt lat="44.64709" lon="4.36054">
        <ele>244.5</ele>
        <time>2022-06-10T13:13:43Z</time>
      </trkpt>
      <trkpt lat="44.64713" lon="4.36061">
        <ele>244.4</ele>
        <time>2022-06-10T13:13:44Z</time>
      </trkpt>
      <trkpt lat="44.64717" lon="4.36067">
        <ele>244.3</ele>
        <time>2022-06-10T13:13:45Z</time>
      </trkpt>
      <trkpt lat="44.64721" lon="4.36075">
        <ele>244.2</ele>
        <time>2022-06-10T13:13:46Z</time>
      </trkpt>
      <trkpt lat="44.64726" lon="4.36081">
        <ele>244.1</ele>
        <time>2022-06-10T13:13:47Z</time>
      </trkpt>
      <trkpt lat="44.64731" lon="4.36088">
        <ele>244.1</ele>
        <time>2022-06-10T13:13:48Z</time>
      </trkpt>
      <trkpt lat="44.64735" lon="4.36095">
        <ele>244</ele>
        <time>2022-06-10T13:13:49Z</time>
      </trkpt>
      <trkpt lat="44.6474" lon="4.36102">
        <ele>243.9</ele>
        <time>2022-06-10T13:13:50Z</time>
      </trkpt>
      <trkpt lat="44.64745" lon="4.36108">
        <ele>243.9</ele>
        <time>2022-06-10T13:13:51Z</time>
      </trkpt>
      <trkpt lat="44.6475" lon="4.36115">
        <ele>243.8</ele>
        <time>2022-06-10T13:13:52Z</time>
      </trkpt>
      <trkpt lat="44.64755" lon="4.36121">
        <ele>243.8</ele>
        <time>2022-06-10T13:13:53Z</time>
      </trkpt>
      <trkpt lat="44.6476" lon="4.36128">
        <ele>243.8</ele>
        <time>2022-06-10T13:13:54Z</time>
      </trkpt>
      <trkpt lat="44.64765" lon="4.36134">
        <ele>243.8</ele>
        <time>2022-06-10T13:13:55Z</time>
      </trkpt>
      <trkpt lat="44.6477" lon="4.3614">
        <ele>243.7</ele>
        <time>2022-06-10T13:13:56Z</time>
      </trkpt>
      <trkpt lat="44.64776" lon="4.36147">
        <ele>243.7</ele>
        <time>2022-06-10T13:13:57Z</time>
      </trkpt>
      <trkpt lat="44.64781" lon="4.36153">
        <ele>243.7</ele>
        <time>2022-06-10T13:13:58Z</time>
      </trkpt>
      <trkpt lat="44.64785" lon="4.36159">
        <ele>243.7</ele>
        <time>2022-06-10T13:13:59Z</time>
      </trkpt>
      <trkpt lat="44.6479" lon="4.36165">
        <ele>243.6</ele>
        <time>2022-06-10T13:14:00Z</time>
      </trkpt>
      <trkpt lat="44.64794" lon="4.36171">
        <ele>243.6</ele>
        <time>2022-06-10T13:14:01Z</time>
      </trkpt>
      <trkpt lat="44.64799" lon="4.36177">
        <ele>243.6</ele>
        <time>2022-06-10T13:14:02Z</time>
      </trkpt>
      <trkpt lat="44.64804" lon="4.36183">
        <ele>243.6</ele>
        <time>2022-06-10T13:14:03Z</time>
      </trkpt>
      <trkpt lat="44.64808" lon="4.36189">
        <ele>243.6</ele>
        <time>2022-06-10T13:14:04Z</time>
      </trkpt>
      <trkpt lat="44.64813" lon="4.36196">
        <ele>243.6</ele>
        <time>2022-06-10T13:14:05Z</time>
      </trkpt>
      <trkpt lat="44.64817" lon="4.36202">
        <ele>243.6</ele>
        <time>2022-06-10T13:14:06Z</time>
      </trkpt>
      <trkpt lat="44.64821" lon="4.36208">
        <ele>243.5</ele>
        <time>2022-06-10T13:14:07Z</time>
      </trkpt>
      <trkpt lat="44.64826" lon="4.36214">
        <ele>243.5</ele>
        <time>2022-06-10T13:14:08Z</time>
      </trkpt>
      <trkpt lat="44.64829" lon="4.3622">
        <ele>243.5</ele>
        <time>2022-06-10T13:14:09Z</time>
      </trkpt>
      <trkpt lat="44.64834" lon="4.36226">
        <ele>243.4</ele>
        <time>2022-06-10T13:14:10Z</time>
      </trkpt>
      <trkpt lat="44.64838" lon="4.36232">
        <ele>243.4</ele>
        <time>2022-06-10T13:14:11Z</time>
      </trkpt>
      <trkpt lat="44.64843" lon="4.36237">
        <ele>243.4</ele>
        <time>2022-06-10T13:14:12Z</time>
      </trkpt>
      <trkpt lat="44.64847" lon="4.36243">
        <ele>243.3</ele>
        <time>2022-06-10T13:14:13Z</time>
      </trkpt>
      <trkpt lat="44.64852" lon="4.36248">
        <ele>243.3</ele>
        <time>2022-06-10T13:14:14Z</time>
      </trkpt>
      <trkpt lat="44.64856" lon="4.36254">
        <ele>243.3</ele>
        <time>2022-06-10T13:14:15Z</time>
      </trkpt>
      <trkpt lat="44.64859" lon="4.3626">
        <ele>243.3</ele>
        <time>2022-06-10T13:14:16Z</time>
      </trkpt>
      <trkpt lat="44.64862" lon="4.36266">
        <ele>243.3</ele>
        <time>2022-06-10T13:14:17Z</time>
      </trkpt>
      <trkpt lat="44.64867" lon="4.36273">
        <ele>243.2</ele>
        <time>2022-06-10T13:14:18Z</time>
      </trkpt>
      <trkpt lat="44.6487" lon="4.36279">
        <ele>243.2</ele>
        <time>2022-06-10T13:14:19Z</time>
      </trkpt>
      <trkpt lat="44.64875" lon="4.36285">
        <ele>243.2</ele>
        <time>2022-06-10T13:14:20Z</time>
      </trkpt>
      <trkpt lat="44.6488" lon="4.36291">
        <ele>243.1</ele>
        <time>2022-06-10T13:14:21Z</time>
      </trkpt>
      <trkpt lat="44.64885" lon="4.36297">
        <ele>243.1</ele>
        <time>2022-06-10T13:14:22Z</time>
      </trkpt>
      <trkpt lat="44.6489" lon="4.36302">
        <ele>243</ele>
        <time>2022-06-10T13:14:23Z</time>
      </trkpt>
      <trkpt lat="44.64894" lon="4.36309">
        <ele>243</ele>
        <time>2022-06-10T13:14:24Z</time>
      </trkpt>
      <trkpt lat="44.64898" lon="4.36316">
        <ele>242.9</ele>
        <time>2022-06-10T13:14:25Z</time>
      </trkpt>
      <trkpt lat="44.64902" lon="4.36322">
        <ele>242.9</ele>
        <time>2022-06-10T13:14:26Z</time>
      </trkpt>
      <trkpt lat="44.64906" lon="4.36329">
        <ele>242.8</ele>
        <time>2022-06-10T13:14:27Z</time>
      </trkpt>
      <trkpt lat="44.6491" lon="4.36336">
        <ele>242.8</ele>
        <time>2022-06-10T13:14:28Z</time>
      </trkpt>
      <trkpt lat="44.64914" lon="4.36344">
        <ele>242.8</ele>
        <time>2022-06-10T13:14:29Z</time>
      </trkpt>
      <trkpt lat="44.64918" lon="4.36351">
        <ele>242.7</ele>
        <time>2022-06-10T13:14:30Z</time>
      </trkpt>
      <trkpt lat="44.64922" lon="4.36358">
        <ele>242.7</ele>
        <time>2022-06-10T13:14:31Z</time>
      </trkpt>
      <trkpt lat="44.64925" lon="4.36365">
        <ele>242.7</ele>
        <time>2022-06-10T13:14:32Z</time>
      </trkpt>
      <trkpt lat="44.64928" lon="4.36372">
        <ele>242.7</ele>
        <time>2022-06-10T13:14:33Z</time>
      </trkpt>
      <trkpt lat="44.64932" lon="4.36379">
        <ele>242.7</ele>
        <time>2022-06-10T13:14:34Z</time>
      </trkpt>
      <trkpt lat="44.64935" lon="4.36385">
        <ele>242.7</ele>
        <time>2022-06-10T13:14:35Z</time>
      </trkpt>
      <trkpt lat="44.64939" lon="4.36391">
        <ele>242.7</ele>
        <time>2022-06-10T13:14:36Z</time>
      </trkpt>
      <trkpt lat="44.64942" lon="4.36397">
        <ele>242.7</ele>
        <time>2022-06-10T13:14:37Z</time>
      </trkpt>
      <trkpt lat="44.64943" lon="4.36404">
        <ele>242.7</ele>
        <time>2022-06-10T13:14:38Z</time>
      </trkpt>
      <trkpt lat="44.64944" lon="4.36411">
        <ele>242.6</ele>
        <time>2022-06-10T13:14:39Z</time>
      </trkpt>
      <trkpt lat="44.64947" lon="4.36418">
        <ele>242.6</ele>
        <time>2022-06-10T13:14:40Z</time>
      </trkpt>
      <trkpt lat="44.6495" lon="4.36424">
        <ele>242.6</ele>
        <time>2022-06-10T13:14:41Z</time>
      </trkpt>
      <trkpt lat="44.64953" lon="4.36429">
        <ele>242.6</ele>
        <time>2022-06-10T13:14:42Z</time>
      </trkpt>
      <trkpt lat="44.64956" lon="4.36435">
        <ele>242.5</ele>
        <time>2022-06-10T13:14:43Z</time>
      </trkpt>
      <trkpt lat="44.6496" lon="4.36441">
        <ele>242.5</ele>
        <time>2022-06-10T13:14:44Z</time>
      </trkpt>
      <trkpt lat="44.64963" lon="4.36448">
        <ele>242.5</ele>
        <time>2022-06-10T13:14:45Z</time>
      </trkpt>
      <trkpt lat="44.64966" lon="4.36454">
        <ele>242.4</ele>
        <time>2022-06-10T13:14:46Z</time>
      </trkpt>
      <trkpt lat="44.6497" lon="4.36461">
        <ele>242.4</ele>
        <time>2022-06-10T13:14:47Z</time>
      </trkpt>
      <trkpt lat="44.64974" lon="4.36468">
        <ele>242.4</ele>
        <time>2022-06-10T13:14:48Z</time>
      </trkpt>
      <trkpt lat="44.64977" lon="4.36474">
        <ele>242.3</ele>
        <time>2022-06-10T13:14:49Z</time>
      </trkpt>
      <trkpt lat="44.64981" lon="4.36481">
        <ele>242.3</ele>
        <time>2022-06-10T13:14:50Z</time>
      </trkpt>
      <trkpt lat="44.64984" lon="4.36487">
        <ele>242.3</ele>
        <time>2022-06-10T13:14:51Z</time>
      </trkpt>
      <trkpt lat="44.64988" lon="4.36494">
        <ele>242.2</ele>
        <time>2022-06-10T13:14:52Z</time>
      </trkpt>
      <trkpt lat="44.64991" lon="4.36501">
        <ele>242.2</ele>
        <time>2022-06-10T13:14:53Z</time>
      </trkpt>
      <trkpt lat="44.64994" lon="4.36508">
        <ele>242.2</ele>
        <time>2022-06-10T13:14:54Z</time>
      </trkpt>
      <trkpt lat="44.64997" lon="4.36515">
        <ele>242.2</ele>
        <time>2022-06-10T13:14:55Z</time>
      </trkpt>
      <trkpt lat="44.65" lon="4.36521">
        <ele>242.2</ele>
        <time>2022-06-10T13:14:56Z</time>
      </trkpt>
      <trkpt lat="44.65004" lon="4.36528">
        <ele>242.3</ele>
        <time>2022-06-10T13:14:57Z</time>
      </trkpt>
      <trkpt lat="44.65007" lon="4.36534">
        <ele>242.3</ele>
        <time>2022-06-10T13:14:58Z</time>
      </trkpt>
      <trkpt lat="44.65011" lon="4.36541">
        <ele>242.4</ele>
        <time>2022-06-10T13:14:59Z</time>
      </trkpt>
      <trkpt lat="44.65013" lon="4.36548">
        <ele>242.5</ele>
        <time>2022-06-10T13:15:00Z</time>
      </trkpt>
      <trkpt lat="44.65016" lon="4.36554">
        <ele>242.6</ele>
        <time>2022-06-10T13:15:01Z</time>
      </trkpt>
      <trkpt lat="44.65019" lon="4.36561">
        <ele>242.6</ele>
        <time>2022-06-10T13:15:02Z</time>
      </trkpt>
      <trkpt lat="44.65021" lon="4.36568">
        <ele>242.7</ele>
        <time>2022-06-10T13:15:03Z</time>
      </trkpt>
      <trkpt lat="44.65023" lon="4.36575">
        <ele>242.7</ele>
        <time>2022-06-10T13:15:04Z</time>
      </trkpt>
      <trkpt lat="44.65024" lon="4.36583">
        <ele>242.8</ele>
        <time>2022-06-10T13:15:05Z</time>
      </trkpt>
      <trkpt lat="44.65025" lon="4.36589">
        <ele>242.9</ele>
        <time>2022-06-10T13:15:06Z</time>
      </trkpt>
      <trkpt lat="44.65025" lon="4.36594">
        <ele>243</ele>
        <time>2022-06-10T13:15:07Z</time>
      </trkpt>
      <trkpt lat="44.65025" lon="4.36596">
        <ele>243</ele>
        <time>2022-06-10T13:15:08Z</time>
      </trkpt>
      <trkpt lat="44.65025" lon="4.36599">
        <ele>243</ele>
        <time>2022-06-10T13:15:09Z</time>
      </trkpt>
      <trkpt lat="44.65024" lon="4.36602">
        <ele>243.1</ele>
        <time>2022-06-10T13:15:10Z</time>
      </trkpt>
      <trkpt lat="44.65023" lon="4.36606">
        <ele>243.1</ele>
        <time>2022-06-10T13:15:11Z</time>
      </trkpt>
      <trkpt lat="44.65022" lon="4.3661">
        <ele>243</ele>
        <time>2022-06-10T13:15:12Z</time>
      </trkpt>
      <trkpt lat="44.65021" lon="4.36612">
        <ele>243</ele>
        <time>2022-06-10T13:15:13Z</time>
      </trkpt>
      <trkpt lat="44.65019" lon="4.36615">
        <ele>243</ele>
        <time>2022-06-10T13:15:14Z</time>
      </trkpt>
      <trkpt lat="44.65016" lon="4.36617">
        <ele>243</ele>
        <time>2022-06-10T13:15:15Z</time>
      </trkpt>
      <trkpt lat="44.65012" lon="4.36625">
        <ele>242.9</ele>
        <time>2022-06-10T13:15:16Z</time>
      </trkpt>
      <trkpt lat="44.65008" lon="4.3663">
        <ele>242.9</ele>
        <time>2022-06-10T13:15:18Z</time>
      </trkpt>
      <trkpt lat="44.65004" lon="4.36635">
        <ele>242.9</ele>
        <time>2022-06-10T13:15:19Z</time>
      </trkpt>
      <trkpt lat="44.65" lon="4.36639">
        <ele>242.9</ele>
        <time>2022-06-10T13:15:20Z</time>
      </trkpt>
      <trkpt lat="44.64997" lon="4.36637">
        <ele>242.9</ele>
        <time>2022-06-10T13:15:21Z</time>
      </trkpt>
      <trkpt lat="44.64987" lon="4.36646">
        <ele>242.9</ele>
        <time>2022-06-10T13:15:23Z</time>
      </trkpt>
      <trkpt lat="44.64983" lon="4.36649">
        <ele>242.9</ele>
        <time>2022-06-10T13:15:24Z</time>
      </trkpt>
      <trkpt lat="44.64976" lon="4.36654">
        <ele>243</ele>
        <time>2022-06-10T13:15:25Z</time>
      </trkpt>
      <trkpt lat="44.6497" lon="4.36657">
        <ele>243.1</ele>
        <time>2022-06-10T13:15:27Z</time>
      </trkpt>
      <trkpt lat="44.64968" lon="4.3666">
        <ele>243.1</ele>
        <time>2022-06-10T13:15:28Z</time>
      </trkpt>
      <trkpt lat="44.6496" lon="4.36662">
        <ele>243.2</ele>
        <time>2022-06-10T13:15:30Z</time>
      </trkpt>
      <trkpt lat="44.64954" lon="4.36664">
        <ele>243.3</ele>
        <time>2022-06-10T13:15:31Z</time>
      </trkpt>
      <trkpt lat="44.64945" lon="4.36665">
        <ele>243.4</ele>
        <time>2022-06-10T13:15:32Z</time>
      </trkpt>
      <trkpt lat="44.64941" lon="4.36667">
        <ele>243.5</ele>
        <time>2022-06-10T13:15:33Z</time>
      </trkpt>
      <trkpt lat="44.64936" lon="4.36669">
        <ele>243.5</ele>
        <time>2022-06-10T13:15:34Z</time>
      </trkpt>
      <trkpt lat="44.6493" lon="4.36674">
        <ele>243.6</ele>
        <time>2022-06-10T13:15:36Z</time>
      </trkpt>
      <trkpt lat="44.64923" lon="4.36678">
        <ele>243.7</ele>
        <time>2022-06-10T13:15:37Z</time>
      </trkpt>
      <trkpt lat="44.64916" lon="4.36681">
        <ele>243.8</ele>
        <time>2022-06-10T13:15:40Z</time>
      </trkpt>
      <trkpt lat="44.64912" lon="4.36684">
        <ele>243.9</ele>
        <time>2022-06-10T13:15:41Z</time>
      </trkpt>
      <trkpt lat="44.64904" lon="4.36686">
        <ele>244</ele>
        <time>2022-06-10T13:15:42Z</time>
      </trkpt>
      <trkpt lat="44.64899" lon="4.36687">
        <ele>244.1</ele>
        <time>2022-06-10T13:15:44Z</time>
      </trkpt>
      <trkpt lat="44.64894" lon="4.3669">
        <ele>244.1</ele>
        <time>2022-06-10T13:15:45Z</time>
      </trkpt>
      <trkpt lat="44.64889" lon="4.36691">
        <ele>244.2</ele>
        <time>2022-06-10T13:15:46Z</time>
      </trkpt>
      <trkpt lat="44.64887" lon="4.36693">
        <ele>244.2</ele>
        <time>2022-06-10T13:15:47Z</time>
      </trkpt>
      <trkpt lat="44.64882" lon="4.36695">
        <ele>244.3</ele>
        <time>2022-06-10T13:15:48Z</time>
      </trkpt>
      <trkpt lat="44.64877" lon="4.36696">
        <ele>244.4</ele>
        <time>2022-06-10T13:15:49Z</time>
      </trkpt>
      <trkpt lat="44.64872" lon="4.36698">
        <ele>244.4</ele>
        <time>2022-06-10T13:15:50Z</time>
      </trkpt>
      <trkpt lat="44.6487" lon="4.36701">
        <ele>244.4</ele>
        <time>2022-06-10T13:15:51Z</time>
      </trkpt>
      <trkpt lat="44.64866" lon="4.36705">
        <ele>244.5</ele>
        <time>2022-06-10T13:15:52Z</time>
      </trkpt>
      <trkpt lat="44.64862" lon="4.36707">
        <ele>244.6</ele>
        <time>2022-06-10T13:15:53Z</time>
      </trkpt>
      <trkpt lat="44.64855" lon="4.3671">
        <ele>244.6</ele>
        <time>2022-06-10T13:15:54Z</time>
      </trkpt>
      <trkpt lat="44.64851" lon="4.36712">
        <ele>244.7</ele>
        <time>2022-06-10T13:15:56Z</time>
      </trkpt>
      <trkpt lat="44.64847" lon="4.36714">
        <ele>244.7</ele>
        <time>2022-06-10T13:15:57Z</time>
      </trkpt>
      <trkpt lat="44.64843" lon="4.36715">
        <ele>244.8</ele>
        <time>2022-06-10T13:15:58Z</time>
      </trkpt>
      <trkpt lat="44.64838" lon="4.36717">
        <ele>244.8</ele>
        <time>2022-06-10T13:15:59Z</time>
      </trkpt>
      <trkpt lat="44.64831" lon="4.36721">
        <ele>244.9</ele>
        <time>2022-06-10T13:16:00Z</time>
      </trkpt>
      <trkpt lat="44.64826" lon="4.36723">
        <ele>244.9</ele>
        <time>2022-06-10T13:16:02Z</time>
      </trkpt>
      <trkpt lat="44.6482" lon="4.36726">
        <ele>245</ele>
        <time>2022-06-10T13:16:03Z</time>
      </trkpt>
      <trkpt lat="44.64809" lon="4.36729">
        <ele>245</ele>
        <time>2022-06-10T13:16:05Z</time>
      </trkpt>
      <trkpt lat="44.64804" lon="4.36731">
        <ele>245.1</ele>
        <time>2022-06-10T13:16:06Z</time>
      </trkpt>
      <trkpt lat="44.64799" lon="4.36733">
        <ele>245.1</ele>
        <time>2022-06-10T13:16:07Z</time>
      </trkpt>
      <trkpt lat="44.64795" lon="4.36735">
        <ele>245.1</ele>
        <time>2022-06-10T13:16:08Z</time>
      </trkpt>
      <trkpt lat="44.6479" lon="4.36737">
        <ele>245.2</ele>
        <time>2022-06-10T13:16:09Z</time>
      </trkpt>
      <trkpt lat="44.64788" lon="4.36738">
        <ele>245.2</ele>
        <time>2022-06-10T13:16:10Z</time>
      </trkpt>
      <trkpt lat="44.64784" lon="4.3674">
        <ele>245.2</ele>
        <time>2022-06-10T13:16:11Z</time>
      </trkpt>
      <trkpt lat="44.64778" lon="4.36742">
        <ele>245.2</ele>
        <time>2022-06-10T13:16:12Z</time>
      </trkpt>
      <trkpt lat="44.64773" lon="4.36745">
        <ele>245.3</ele>
        <time>2022-06-10T13:16:13Z</time>
      </trkpt>
      <trkpt lat="44.64768" lon="4.36747">
        <ele>245.3</ele>
        <time>2022-06-10T13:16:14Z</time>
      </trkpt>
      <trkpt lat="44.64763" lon="4.36749">
        <ele>245.3</ele>
        <time>2022-06-10T13:16:15Z</time>
      </trkpt>
      <trkpt lat="44.64758" lon="4.36751">
        <ele>245.3</ele>
        <time>2022-06-10T13:16:16Z</time>
      </trkpt>
      <trkpt lat="44.64753" lon="4.36754">
        <ele>245.3</ele>
        <time>2022-06-10T13:16:17Z</time>
      </trkpt>
      <trkpt lat="44.64749" lon="4.36755">
        <ele>245.3</ele>
        <time>2022-06-10T13:16:18Z</time>
      </trkpt>
      <trkpt lat="44.64744" lon="4.36757">
        <ele>245.3</ele>
        <time>2022-06-10T13:16:19Z</time>
      </trkpt>
      <trkpt lat="44.64738" lon="4.36759">
        <ele>245.4</ele>
        <time>2022-06-10T13:16:20Z</time>
      </trkpt>
      <trkpt lat="44.64733" lon="4.36762">
        <ele>245.4</ele>
        <time>2022-06-10T13:16:21Z</time>
      </trkpt>
      <trkpt lat="44.64728" lon="4.36764">
        <ele>245.4</ele>
        <time>2022-06-10T13:16:22Z</time>
      </trkpt>
      <trkpt lat="44.64724" lon="4.36767">
        <ele>245.4</ele>
        <time>2022-06-10T13:16:23Z</time>
      </trkpt>
      <trkpt lat="44.6472" lon="4.3677">
        <ele>245.5</ele>
        <time>2022-06-10T13:16:24Z</time>
      </trkpt>
      <trkpt lat="44.64716" lon="4.36772">
        <ele>245.5</ele>
        <time>2022-06-10T13:16:25Z</time>
      </trkpt>
      <trkpt lat="44.64712" lon="4.36772">
        <ele>245.5</ele>
        <time>2022-06-10T13:16:26Z</time>
      </trkpt>
      <trkpt lat="44.64709" lon="4.36772">
        <ele>245.5</ele>
        <time>2022-06-10T13:16:27Z</time>
      </trkpt>
      <trkpt lat="44.64704" lon="4.36775">
        <ele>245.5</ele>
        <time>2022-06-10T13:16:28Z</time>
      </trkpt>
      <trkpt lat="44.64699" lon="4.36778">
        <ele>245.6</ele>
        <time>2022-06-10T13:16:29Z</time>
      </trkpt>
      <trkpt lat="44.64695" lon="4.3678">
        <ele>245.6</ele>
        <time>2022-06-10T13:16:30Z</time>
      </trkpt>
      <trkpt lat="44.64693" lon="4.36782">
        <ele>245.6</ele>
        <time>2022-06-10T13:16:31Z</time>
      </trkpt>
      <trkpt lat="44.64687" lon="4.36786">
        <ele>245.6</ele>
        <time>2022-06-10T13:16:32Z</time>
      </trkpt>
      <trkpt lat="44.64683" lon="4.3679">
        <ele>245.6</ele>
        <time>2022-06-10T13:16:33Z</time>
      </trkpt>
      <trkpt lat="44.64679" lon="4.36794">
        <ele>245.6</ele>
        <time>2022-06-10T13:16:34Z</time>
      </trkpt>
      <trkpt lat="44.64675" lon="4.36799">
        <ele>245.7</ele>
        <time>2022-06-10T13:16:35Z</time>
      </trkpt>
      <trkpt lat="44.64672" lon="4.36804">
        <ele>245.7</ele>
        <time>2022-06-10T13:16:36Z</time>
      </trkpt>
      <trkpt lat="44.64668" lon="4.36808">
        <ele>245.7</ele>
        <time>2022-06-10T13:16:37Z</time>
      </trkpt>
      <trkpt lat="44.64664" lon="4.36813">
        <ele>245.8</ele>
        <time>2022-06-10T13:16:38Z</time>
      </trkpt>
      <trkpt lat="44.64661" lon="4.36818">
        <ele>245.8</ele>
        <time>2022-06-10T13:16:39Z</time>
      </trkpt>
      <trkpt lat="44.64658" lon="4.36823">
        <ele>245.8</ele>
        <time>2022-06-10T13:16:40Z</time>
      </trkpt>
      <trkpt lat="44.64655" lon="4.36829">
        <ele>245.9</ele>
        <time>2022-06-10T13:16:41Z</time>
      </trkpt>
      <trkpt lat="44.64652" lon="4.36834">
        <ele>246</ele>
        <time>2022-06-10T13:16:42Z</time>
      </trkpt>
      <trkpt lat="44.6465" lon="4.3684">
        <ele>246</ele>
        <time>2022-06-10T13:16:43Z</time>
      </trkpt>
      <trkpt lat="44.64648" lon="4.36846">
        <ele>246.1</ele>
        <time>2022-06-10T13:16:44Z</time>
      </trkpt>
      <trkpt lat="44.64645" lon="4.36852">
        <ele>246.1</ele>
        <time>2022-06-10T13:16:45Z</time>
      </trkpt>
      <trkpt lat="44.64642" lon="4.36857">
        <ele>246.2</ele>
        <time>2022-06-10T13:16:46Z</time>
      </trkpt>
      <trkpt lat="44.64639" lon="4.36863">
        <ele>246.2</ele>
        <time>2022-06-10T13:16:47Z</time>
      </trkpt>
      <trkpt lat="44.64637" lon="4.36869">
        <ele>246.3</ele>
        <time>2022-06-10T13:16:48Z</time>
      </trkpt>
      <trkpt lat="44.64634" lon="4.36874">
        <ele>246.3</ele>
        <time>2022-06-10T13:16:49Z</time>
      </trkpt>
      <trkpt lat="44.64633" lon="4.36876">
        <ele>246.3</ele>
        <time>2022-06-10T13:16:50Z</time>
      </trkpt>
      <trkpt lat="44.64629" lon="4.36879">
        <ele>246.4</ele>
        <time>2022-06-10T13:16:51Z</time>
      </trkpt>
      <trkpt lat="44.64626" lon="4.36883">
        <ele>246.5</ele>
        <time>2022-06-10T13:16:52Z</time>
      </trkpt>
      <trkpt lat="44.64622" lon="4.36886">
        <ele>246.6</ele>
        <time>2022-06-10T13:16:53Z</time>
      </trkpt>
      <trkpt lat="44.64619" lon="4.36888">
        <ele>246.7</ele>
        <time>2022-06-10T13:16:54Z</time>
      </trkpt>
      <trkpt lat="44.64617" lon="4.36884">
        <ele>246.8</ele>
        <time>2022-06-10T13:16:55Z</time>
      </trkpt>
      <trkpt lat="44.64611" lon="4.36888">
        <ele>246.9</ele>
        <time>2022-06-10T13:16:56Z</time>
      </trkpt>
      <trkpt lat="44.64606" lon="4.36894">
        <ele>247.1</ele>
        <time>2022-06-10T13:16:57Z</time>
      </trkpt>
      <trkpt lat="44.64598" lon="4.369">
        <ele>247.4</ele>
        <time>2022-06-10T13:16:58Z</time>
      </trkpt>
      <trkpt lat="44.64593" lon="4.36903">
        <ele>247.5</ele>
        <time>2022-06-10T13:17:00Z</time>
      </trkpt>
      <trkpt lat="44.6459" lon="4.36906">
        <ele>247.7</ele>
        <time>2022-06-10T13:17:01Z</time>
      </trkpt>
      <trkpt lat="44.64585" lon="4.36908">
        <ele>247.8</ele>
        <time>2022-06-10T13:17:02Z</time>
      </trkpt>
      <trkpt lat="44.64581" lon="4.36911">
        <ele>248</ele>
        <time>2022-06-10T13:17:03Z</time>
      </trkpt>
      <trkpt lat="44.64578" lon="4.36913">
        <ele>248</ele>
        <time>2022-06-10T13:17:04Z</time>
      </trkpt>
      <trkpt lat="44.64576" lon="4.36914">
        <ele>248.1</ele>
        <time>2022-06-10T13:17:05Z</time>
      </trkpt>
      <trkpt lat="44.6457" lon="4.36918">
        <ele>248.3</ele>
        <time>2022-06-10T13:17:06Z</time>
      </trkpt>
      <trkpt lat="44.64565" lon="4.36919">
        <ele>248.5</ele>
        <time>2022-06-10T13:17:08Z</time>
      </trkpt>
      <trkpt lat="44.64562" lon="4.3692">
        <ele>248.6</ele>
        <time>2022-06-10T13:17:09Z</time>
      </trkpt>
      <trkpt lat="44.64558" lon="4.36921">
        <ele>248.7</ele>
        <time>2022-06-10T13:17:10Z</time>
      </trkpt>
      <trkpt lat="44.6455" lon="4.36922">
        <ele>249</ele>
        <time>2022-06-10T13:17:11Z</time>
      </trkpt>
      <trkpt lat="44.64544" lon="4.36921">
        <ele>249.1</ele>
        <time>2022-06-10T13:17:13Z</time>
      </trkpt>
      <trkpt lat="44.6454" lon="4.3692">
        <ele>249.2</ele>
        <time>2022-06-10T13:17:15Z</time>
      </trkpt>
      <trkpt lat="44.64536" lon="4.36918">
        <ele>249.3</ele>
        <time>2022-06-10T13:17:16Z</time>
      </trkpt>
      <trkpt lat="44.64533" lon="4.36915">
        <ele>249.4</ele>
        <time>2022-06-10T13:17:17Z</time>
      </trkpt>
      <trkpt lat="44.64532" lon="4.36911">
        <ele>249.4</ele>
        <time>2022-06-10T13:17:19Z</time>
      </trkpt>
      <trkpt lat="44.6453" lon="4.36904">
        <ele>249.6</ele>
        <time>2022-06-10T13:17:20Z</time>
      </trkpt>
      <trkpt lat="44.64529" lon="4.36897">
        <ele>249.7</ele>
        <time>2022-06-10T13:17:22Z</time>
      </trkpt>
      <trkpt lat="44.64528" lon="4.36893">
        <ele>249.7</ele>
        <time>2022-06-10T13:17:23Z</time>
      </trkpt>
      <trkpt lat="44.64527" lon="4.36889">
        <ele>249.8</ele>
        <time>2022-06-10T13:17:24Z</time>
      </trkpt>
      <trkpt lat="44.64524" lon="4.36883">
        <ele>249.9</ele>
        <time>2022-06-10T13:17:26Z</time>
      </trkpt>
      <trkpt lat="44.64521" lon="4.36882">
        <ele>250</ele>
        <time>2022-06-10T13:17:27Z</time>
      </trkpt>
      <trkpt lat="44.64514" lon="4.3688">
        <ele>250.1</ele>
        <time>2022-06-10T13:17:29Z</time>
      </trkpt>
      <trkpt lat="44.64511" lon="4.36881">
        <ele>250.2</ele>
        <time>2022-06-10T13:17:30Z</time>
      </trkpt>
      <trkpt lat="44.64507" lon="4.36883">
        <ele>250.3</ele>
        <time>2022-06-10T13:17:31Z</time>
      </trkpt>
      <trkpt lat="44.645" lon="4.36887">
        <ele>250.5</ele>
        <time>2022-06-10T13:17:32Z</time>
      </trkpt>
      <trkpt lat="44.64497" lon="4.3689">
        <ele>250.6</ele>
        <time>2022-06-10T13:17:33Z</time>
      </trkpt>
      <trkpt lat="44.64495" lon="4.36895">
        <ele>250.7</ele>
        <time>2022-06-10T13:17:35Z</time>
      </trkpt>
      <trkpt lat="44.64493" lon="4.36899">
        <ele>250.9</ele>
        <time>2022-06-10T13:17:36Z</time>
      </trkpt>
      <trkpt lat="44.64493" lon="4.36905">
        <ele>251</ele>
        <time>2022-06-10T13:17:37Z</time>
      </trkpt>
      <trkpt lat="44.64491" lon="4.36915">
        <ele>251.2</ele>
        <time>2022-06-10T13:17:38Z</time>
      </trkpt>
      <trkpt lat="44.64491" lon="4.3692">
        <ele>251.4</ele>
        <time>2022-06-10T13:17:40Z</time>
      </trkpt>
      <trkpt lat="44.64489" lon="4.3693">
        <ele>251.6</ele>
        <time>2022-06-10T13:17:42Z</time>
      </trkpt>
      <trkpt lat="44.64486" lon="4.36933">
        <ele>251.7</ele>
        <time>2022-06-10T13:17:43Z</time>
      </trkpt>
      <trkpt lat="44.64482" lon="4.36934">
        <ele>251.8</ele>
        <time>2022-06-10T13:17:44Z</time>
      </trkpt>
      <trkpt lat="44.64479" lon="4.36935">
        <ele>251.9</ele>
        <time>2022-06-10T13:17:45Z</time>
      </trkpt>
      <trkpt lat="44.64475" lon="4.36935">
        <ele>251.9</ele>
        <time>2022-06-10T13:17:46Z</time>
      </trkpt>
      <trkpt lat="44.64472" lon="4.36935">
        <ele>252</ele>
        <time>2022-06-10T13:17:47Z</time>
      </trkpt>
      <trkpt lat="44.64469" lon="4.36935">
        <ele>252.1</ele>
        <time>2022-06-10T13:17:48Z</time>
      </trkpt>
      <trkpt lat="44.64466" lon="4.36934">
        <ele>252.2</ele>
        <time>2022-06-10T13:17:49Z</time>
      </trkpt>
      <trkpt lat="44.64463" lon="4.36934">
        <ele>252.3</ele>
        <time>2022-06-10T13:17:50Z</time>
      </trkpt>
      <trkpt lat="44.64462" lon="4.36934">
        <ele>252.3</ele>
        <time>2022-06-10T13:17:51Z</time>
      </trkpt>
      <trkpt lat="44.64459" lon="4.36933">
        <ele>252.4</ele>
        <time>2022-06-10T13:17:52Z</time>
      </trkpt>
      <trkpt lat="44.64455" lon="4.36931">
        <ele>252.5</ele>
        <time>2022-06-10T13:17:53Z</time>
      </trkpt>
      <trkpt lat="44.64453" lon="4.3693">
        <ele>252.6</ele>
        <time>2022-06-10T13:17:54Z</time>
      </trkpt>
      <trkpt lat="44.6445" lon="4.3693">
        <ele>252.8</ele>
        <time>2022-06-10T13:17:55Z</time>
      </trkpt>
      <trkpt lat="44.64446" lon="4.3693">
        <ele>253</ele>
        <time>2022-06-10T13:17:57Z</time>
      </trkpt>
      <trkpt lat="44.64441" lon="4.36929">
        <ele>253.2</ele>
        <time>2022-06-10T13:17:58Z</time>
      </trkpt>
      <trkpt lat="44.64438" lon="4.36928">
        <ele>253.4</ele>
        <time>2022-06-10T13:17:59Z</time>
      </trkpt>
      <trkpt lat="44.64436" lon="4.36928">
        <ele>253.5</ele>
        <time>2022-06-10T13:18:00Z</time>
      </trkpt>
      <trkpt lat="44.64433" lon="4.36927">
        <ele>253.7</ele>
        <time>2022-06-10T13:18:01Z</time>
      </trkpt>
      <trkpt lat="44.64428" lon="4.36926">
        <ele>254</ele>
        <time>2022-06-10T13:18:03Z</time>
      </trkpt>
      <trkpt lat="44.64426" lon="4.36926">
        <ele>254.2</ele>
        <time>2022-06-10T13:18:05Z</time>
      </trkpt>
      <trkpt lat="44.64422" lon="4.36926">
        <ele>254.4</ele>
        <time>2022-06-10T13:18:06Z</time>
      </trkpt>
      <trkpt lat="44.64421" lon="4.36925">
        <ele>254.4</ele>
        <time>2022-06-10T13:18:07Z</time>
      </trkpt>
      <trkpt lat="44.64418" lon="4.36925">
        <ele>254.6</ele>
        <time>2022-06-10T13:18:08Z</time>
      </trkpt>
      <trkpt lat="44.64417" lon="4.36925">
        <ele>254.7</ele>
        <time>2022-06-10T13:18:09Z</time>
      </trkpt>
      <trkpt lat="44.64412" lon="4.36923">
        <ele>255</ele>
        <time>2022-06-10T13:18:11Z</time>
      </trkpt>
      <trkpt lat="44.64409" lon="4.36922">
        <ele>255.2</ele>
        <time>2022-06-10T13:18:12Z</time>
      </trkpt>
      <trkpt lat="44.64407" lon="4.36922">
        <ele>255.3</ele>
        <time>2022-06-10T13:18:13Z</time>
      </trkpt>
      <trkpt lat="44.64404" lon="4.36921">
        <ele>255.5</ele>
        <time>2022-06-10T13:18:14Z</time>
      </trkpt>
      <trkpt lat="44.64403" lon="4.36921">
        <ele>255.5</ele>
        <time>2022-06-10T13:18:15Z</time>
      </trkpt>
      <trkpt lat="44.644" lon="4.3692">
        <ele>255.7</ele>
        <time>2022-06-10T13:18:16Z</time>
      </trkpt>
      <trkpt lat="44.64399" lon="4.3692">
        <ele>255.8</ele>
        <time>2022-06-10T13:18:17Z</time>
      </trkpt>
      <trkpt lat="44.64396" lon="4.36919">
        <ele>256</ele>
        <time>2022-06-10T13:18:18Z</time>
      </trkpt>
      <trkpt lat="44.64394" lon="4.36919">
        <ele>256</ele>
        <time>2022-06-10T13:18:19Z</time>
      </trkpt>
      <trkpt lat="44.6439" lon="4.36919">
        <ele>256.2</ele>
        <time>2022-06-10T13:18:20Z</time>
      </trkpt>
      <trkpt lat="44.64388" lon="4.36918">
        <ele>256.3</ele>
        <time>2022-06-10T13:18:21Z</time>
      </trkpt>
      <trkpt lat="44.64385" lon="4.36918">
        <ele>256.4</ele>
        <time>2022-06-10T13:18:23Z</time>
      </trkpt>
      <trkpt lat="44.64382" lon="4.36917">
        <ele>256.5</ele>
        <time>2022-06-10T13:18:24Z</time>
      </trkpt>
      <trkpt lat="44.64381" lon="4.36917">
        <ele>256.5</ele>
        <time>2022-06-10T13:18:25Z</time>
      </trkpt>
      <trkpt lat="44.64377" lon="4.36915">
        <ele>256.7</ele>
        <time>2022-06-10T13:18:26Z</time>
      </trkpt>
      <trkpt lat="44.64376" lon="4.36915">
        <ele>256.7</ele>
        <time>2022-06-10T13:18:27Z</time>
      </trkpt>
      <trkpt lat="44.64373" lon="4.36915">
        <ele>256.8</ele>
        <time>2022-06-10T13:18:28Z</time>
      </trkpt>
      <trkpt lat="44.6437" lon="4.36915">
        <ele>256.9</ele>
        <time>2022-06-10T13:18:29Z</time>
      </trkpt>
      <trkpt lat="44.64367" lon="4.36914">
        <ele>257.1</ele>
        <time>2022-06-10T13:18:30Z</time>
      </trkpt>
      <trkpt lat="44.64366" lon="4.36914">
        <ele>257.1</ele>
        <time>2022-06-10T13:18:31Z</time>
      </trkpt>
      <trkpt lat="44.64362" lon="4.36912">
        <ele>257.2</ele>
        <time>2022-06-10T13:18:32Z</time>
      </trkpt>
      <trkpt lat="44.64361" lon="4.36911">
        <ele>257.3</ele>
        <time>2022-06-10T13:18:33Z</time>
      </trkpt>
      <trkpt lat="44.64358" lon="4.3691">
        <ele>257.4</ele>
        <time>2022-06-10T13:18:34Z</time>
      </trkpt>
      <trkpt lat="44.64357" lon="4.36909">
        <ele>257.4</ele>
        <time>2022-06-10T13:18:35Z</time>
      </trkpt>
      <trkpt lat="44.64353" lon="4.36906">
        <ele>257.6</ele>
        <time>2022-06-10T13:18:36Z</time>
      </trkpt>
      <trkpt lat="44.64352" lon="4.36905">
        <ele>257.6</ele>
        <time>2022-06-10T13:18:37Z</time>
      </trkpt>
      <trkpt lat="44.6435" lon="4.36902">
        <ele>257.7</ele>
        <time>2022-06-10T13:18:38Z</time>
      </trkpt>
      <trkpt lat="44.64346" lon="4.36898">
        <ele>257.9</ele>
        <time>2022-06-10T13:18:39Z</time>
      </trkpt>
      <trkpt lat="44.64343" lon="4.36895">
        <ele>258</ele>
        <time>2022-06-10T13:18:40Z</time>
      </trkpt>
      <trkpt lat="44.6434" lon="4.36892">
        <ele>258.2</ele>
        <time>2022-06-10T13:18:42Z</time>
      </trkpt>
      <trkpt lat="44.64337" lon="4.3689">
        <ele>258.3</ele>
        <time>2022-06-10T13:18:43Z</time>
      </trkpt>
      <trkpt lat="44.64335" lon="4.36888">
        <ele>258.4</ele>
        <time>2022-06-10T13:18:44Z</time>
      </trkpt>
      <trkpt lat="44.64332" lon="4.36885">
        <ele>258.5</ele>
        <time>2022-06-10T13:18:45Z</time>
      </trkpt>
      <trkpt lat="44.6433" lon="4.36883">
        <ele>258.6</ele>
        <time>2022-06-10T13:18:46Z</time>
      </trkpt>
      <trkpt lat="44.64327" lon="4.36881">
        <ele>258.7</ele>
        <time>2022-06-10T13:18:47Z</time>
      </trkpt>
      <trkpt lat="44.64325" lon="4.36879">
        <ele>258.8</ele>
        <time>2022-06-10T13:18:48Z</time>
      </trkpt>
      <trkpt lat="44.64321" lon="4.36877">
        <ele>259</ele>
        <time>2022-06-10T13:18:49Z</time>
      </trkpt>
      <trkpt lat="44.64319" lon="4.36877">
        <ele>259</ele>
        <time>2022-06-10T13:18:50Z</time>
      </trkpt>
      <trkpt lat="44.64316" lon="4.36876">
        <ele>259.1</ele>
        <time>2022-06-10T13:18:51Z</time>
      </trkpt>
      <trkpt lat="44.64313" lon="4.36876">
        <ele>259.2</ele>
        <time>2022-06-10T13:18:52Z</time>
      </trkpt>
      <trkpt lat="44.64308" lon="4.36875">
        <ele>259.3</ele>
        <time>2022-06-10T13:18:53Z</time>
      </trkpt>
      <trkpt lat="44.64304" lon="4.36876">
        <ele>259.4</ele>
        <time>2022-06-10T13:18:54Z</time>
      </trkpt>
      <trkpt lat="44.643" lon="4.36877">
        <ele>259.5</ele>
        <time>2022-06-10T13:18:56Z</time>
      </trkpt>
      <trkpt lat="44.64297" lon="4.36879">
        <ele>259.6</ele>
        <time>2022-06-10T13:18:57Z</time>
      </trkpt>
      <trkpt lat="44.64292" lon="4.3688">
        <ele>259.8</ele>
        <time>2022-06-10T13:18:58Z</time>
      </trkpt>
      <trkpt lat="44.64289" lon="4.36882">
        <ele>259.8</ele>
        <time>2022-06-10T13:18:59Z</time>
      </trkpt>
      <trkpt lat="44.64285" lon="4.36883">
        <ele>259.9</ele>
        <time>2022-06-10T13:19:00Z</time>
      </trkpt>
      <trkpt lat="44.64282" lon="4.36885">
        <ele>260</ele>
        <time>2022-06-10T13:19:01Z</time>
      </trkpt>
      <trkpt lat="44.64274" lon="4.36889">
        <ele>260.2</ele>
        <time>2022-06-10T13:19:03Z</time>
      </trkpt>
      <trkpt lat="44.6427" lon="4.36891">
        <ele>260.3</ele>
        <time>2022-06-10T13:19:05Z</time>
      </trkpt>
      <trkpt lat="44.64267" lon="4.36892">
        <ele>260.4</ele>
        <time>2022-06-10T13:19:06Z</time>
      </trkpt>
      <trkpt lat="44.64264" lon="4.36893">
        <ele>260.5</ele>
        <time>2022-06-10T13:19:07Z</time>
      </trkpt>
      <trkpt lat="44.64261" lon="4.36894">
        <ele>260.6</ele>
        <time>2022-06-10T13:19:08Z</time>
      </trkpt>
      <trkpt lat="44.64257" lon="4.36896">
        <ele>260.7</ele>
        <time>2022-06-10T13:19:09Z</time>
      </trkpt>
      <trkpt lat="44.64253" lon="4.36898">
        <ele>260.8</ele>
        <time>2022-06-10T13:19:10Z</time>
      </trkpt>
      <trkpt lat="44.6425" lon="4.369">
        <ele>261</ele>
        <time>2022-06-10T13:19:11Z</time>
      </trkpt>
      <trkpt lat="44.64245" lon="4.36902">
        <ele>261.1</ele>
        <time>2022-06-10T13:19:12Z</time>
      </trkpt>
      <trkpt lat="44.64241" lon="4.36904">
        <ele>261.2</ele>
        <time>2022-06-10T13:19:14Z</time>
      </trkpt>
      <trkpt lat="44.64236" lon="4.36907">
        <ele>261.4</ele>
        <time>2022-06-10T13:19:15Z</time>
      </trkpt>
      <trkpt lat="44.64231" lon="4.36909">
        <ele>261.5</ele>
        <time>2022-06-10T13:19:17Z</time>
      </trkpt>
      <trkpt lat="44.64228" lon="4.36911">
        <ele>261.6</ele>
        <time>2022-06-10T13:19:18Z</time>
      </trkpt>
      <trkpt lat="44.64224" lon="4.36913">
        <ele>261.7</ele>
        <time>2022-06-10T13:19:19Z</time>
      </trkpt>
      <trkpt lat="44.64221" lon="4.36914">
        <ele>261.9</ele>
        <time>2022-06-10T13:19:20Z</time>
      </trkpt>
      <trkpt lat="44.64217" lon="4.36915">
        <ele>262</ele>
        <time>2022-06-10T13:19:21Z</time>
      </trkpt>
      <trkpt lat="44.64213" lon="4.36916">
        <ele>262.1</ele>
        <time>2022-06-10T13:19:22Z</time>
      </trkpt>
      <trkpt lat="44.6421" lon="4.36917">
        <ele>262.2</ele>
        <time>2022-06-10T13:19:23Z</time>
      </trkpt>
      <trkpt lat="44.64207" lon="4.36918">
        <ele>262.2</ele>
        <time>2022-06-10T13:19:24Z</time>
      </trkpt>
      <trkpt lat="44.64201" lon="4.36921">
        <ele>262.4</ele>
        <time>2022-06-10T13:19:25Z</time>
      </trkpt>
      <trkpt lat="44.64197" lon="4.36922">
        <ele>262.5</ele>
        <time>2022-06-10T13:19:27Z</time>
      </trkpt>
      <trkpt lat="44.64191" lon="4.36926">
        <ele>262.7</ele>
        <time>2022-06-10T13:19:28Z</time>
      </trkpt>
      <trkpt lat="44.64188" lon="4.36926">
        <ele>262.8</ele>
        <time>2022-06-10T13:19:29Z</time>
      </trkpt>
      <trkpt lat="44.64181" lon="4.36929">
        <ele>263</ele>
        <time>2022-06-10T13:19:31Z</time>
      </trkpt>
      <trkpt lat="44.64177" lon="4.36931">
        <ele>263.1</ele>
        <time>2022-06-10T13:19:33Z</time>
      </trkpt>
      <trkpt lat="44.64174" lon="4.36932">
        <ele>263.2</ele>
        <time>2022-06-10T13:19:34Z</time>
      </trkpt>
      <trkpt lat="44.64171" lon="4.36933">
        <ele>263.3</ele>
        <time>2022-06-10T13:19:35Z</time>
      </trkpt>
      <trkpt lat="44.64167" lon="4.36934">
        <ele>263.4</ele>
        <time>2022-06-10T13:19:36Z</time>
      </trkpt>
      <trkpt lat="44.64164" lon="4.36936">
        <ele>263.5</ele>
        <time>2022-06-10T13:19:37Z</time>
      </trkpt>
      <trkpt lat="44.6416" lon="4.36937">
        <ele>263.6</ele>
        <time>2022-06-10T13:19:38Z</time>
      </trkpt>
      <trkpt lat="44.64156" lon="4.36938">
        <ele>263.7</ele>
        <time>2022-06-10T13:19:39Z</time>
      </trkpt>
      <trkpt lat="44.64153" lon="4.36939">
        <ele>263.8</ele>
        <time>2022-06-10T13:19:40Z</time>
      </trkpt>
      <trkpt lat="44.64147" lon="4.36941">
        <ele>263.9</ele>
        <time>2022-06-10T13:19:41Z</time>
      </trkpt>
      <trkpt lat="44.64142" lon="4.36943">
        <ele>264</ele>
        <time>2022-06-10T13:19:43Z</time>
      </trkpt>
      <trkpt lat="44.64139" lon="4.36944">
        <ele>264</ele>
        <time>2022-06-10T13:19:44Z</time>
      </trkpt>
      <trkpt lat="44.64134" lon="4.36946">
        <ele>264.1</ele>
        <time>2022-06-10T13:19:45Z</time>
      </trkpt>
      <trkpt lat="44.6413" lon="4.36948">
        <ele>264.1</ele>
        <time>2022-06-10T13:19:46Z</time>
      </trkpt>
      <trkpt lat="44.64126" lon="4.36949">
        <ele>264.2</ele>
        <time>2022-06-10T13:19:47Z</time>
      </trkpt>
      <trkpt lat="44.64121" lon="4.36951">
        <ele>264.3</ele>
        <time>2022-06-10T13:19:49Z</time>
      </trkpt>
      <trkpt lat="44.64118" lon="4.36952">
        <ele>264.3</ele>
        <time>2022-06-10T13:19:50Z</time>
      </trkpt>
      <trkpt lat="44.64115" lon="4.36954">
        <ele>264.4</ele>
        <time>2022-06-10T13:19:51Z</time>
      </trkpt>
      <trkpt lat="44.64111" lon="4.36956">
        <ele>264.4</ele>
        <time>2022-06-10T13:19:52Z</time>
      </trkpt>
      <trkpt lat="44.64104" lon="4.3696">
        <ele>264.6</ele>
        <time>2022-06-10T13:19:53Z</time>
      </trkpt>
      <trkpt lat="44.64101" lon="4.36963">
        <ele>264.7</ele>
        <time>2022-06-10T13:19:55Z</time>
      </trkpt>
      <trkpt lat="44.64097" lon="4.36966">
        <ele>264.8</ele>
        <time>2022-06-10T13:19:56Z</time>
      </trkpt>
      <trkpt lat="44.64093" lon="4.36968">
        <ele>264.9</ele>
        <time>2022-06-10T13:19:57Z</time>
      </trkpt>
      <trkpt lat="44.6409" lon="4.36971">
        <ele>265</ele>
        <time>2022-06-10T13:19:58Z</time>
      </trkpt>
      <trkpt lat="44.64086" lon="4.36974">
        <ele>265.1</ele>
        <time>2022-06-10T13:19:59Z</time>
      </trkpt>
      <trkpt lat="44.64083" lon="4.36979">
        <ele>265.3</ele>
        <time>2022-06-10T13:20:00Z</time>
      </trkpt>
      <trkpt lat="44.6408" lon="4.36983">
        <ele>265.4</ele>
        <time>2022-06-10T13:20:01Z</time>
      </trkpt>
      <trkpt lat="44.64077" lon="4.36987">
        <ele>265.5</ele>
        <time>2022-06-10T13:20:02Z</time>
      </trkpt>
      <trkpt lat="44.64074" lon="4.36991">
        <ele>265.7</ele>
        <time>2022-06-10T13:20:04Z</time>
      </trkpt>
      <trkpt lat="44.64069" lon="4.36998">
        <ele>265.9</ele>
        <time>2022-06-10T13:20:05Z</time>
      </trkpt>
      <trkpt lat="44.64065" lon="4.37002">
        <ele>266</ele>
        <time>2022-06-10T13:20:07Z</time>
      </trkpt>
      <trkpt lat="44.64063" lon="4.37004">
        <ele>266.1</ele>
        <time>2022-06-10T13:20:08Z</time>
      </trkpt>
      <trkpt lat="44.64061" lon="4.37007">
        <ele>266.2</ele>
        <time>2022-06-10T13:20:09Z</time>
      </trkpt>
      <trkpt lat="44.64057" lon="4.37011">
        <ele>266.3</ele>
        <time>2022-06-10T13:20:10Z</time>
      </trkpt>
      <trkpt lat="44.64055" lon="4.37014">
        <ele>266.5</ele>
        <time>2022-06-10T13:20:11Z</time>
      </trkpt>
      <trkpt lat="44.64052" lon="4.37018">
        <ele>266.6</ele>
        <time>2022-06-10T13:20:12Z</time>
      </trkpt>
      <trkpt lat="44.64047" lon="4.37025">
        <ele>266.8</ele>
        <time>2022-06-10T13:20:13Z</time>
      </trkpt>
      <trkpt lat="44.64043" lon="4.37029">
        <ele>267</ele>
        <time>2022-06-10T13:20:15Z</time>
      </trkpt>
      <trkpt lat="44.64039" lon="4.37034">
        <ele>267.1</ele>
        <time>2022-06-10T13:20:16Z</time>
      </trkpt>
      <trkpt lat="44.64037" lon="4.37037">
        <ele>267.2</ele>
        <time>2022-06-10T13:20:17Z</time>
      </trkpt>
      <trkpt lat="44.64033" lon="4.37042">
        <ele>267.4</ele>
        <time>2022-06-10T13:20:19Z</time>
      </trkpt>
      <trkpt lat="44.64031" lon="4.37046">
        <ele>267.5</ele>
        <time>2022-06-10T13:20:20Z</time>
      </trkpt>
      <trkpt lat="44.64027" lon="4.37052">
        <ele>267.7</ele>
        <time>2022-06-10T13:20:21Z</time>
      </trkpt>
      <trkpt lat="44.64023" lon="4.37057">
        <ele>267.8</ele>
        <time>2022-06-10T13:20:23Z</time>
      </trkpt>
      <trkpt lat="44.6402" lon="4.3706">
        <ele>267.9</ele>
        <time>2022-06-10T13:20:24Z</time>
      </trkpt>
      <trkpt lat="44.64017" lon="4.37064">
        <ele>268</ele>
        <time>2022-06-10T13:20:25Z</time>
      </trkpt>
      <trkpt lat="44.64014" lon="4.37068">
        <ele>268.1</ele>
        <time>2022-06-10T13:20:26Z</time>
      </trkpt>
      <trkpt lat="44.64011" lon="4.37072">
        <ele>268.2</ele>
        <time>2022-06-10T13:20:27Z</time>
      </trkpt>
      <trkpt lat="44.64008" lon="4.37076">
        <ele>268.3</ele>
        <time>2022-06-10T13:20:29Z</time>
      </trkpt>
      <trkpt lat="44.64006" lon="4.3708">
        <ele>268.4</ele>
        <time>2022-06-10T13:20:30Z</time>
      </trkpt>
      <trkpt lat="44.64004" lon="4.37083">
        <ele>268.4</ele>
        <time>2022-06-10T13:20:31Z</time>
      </trkpt>
      <trkpt lat="44.63999" lon="4.37088">
        <ele>268.6</ele>
        <time>2022-06-10T13:20:32Z</time>
      </trkpt>
      <trkpt lat="44.63994" lon="4.37093">
        <ele>268.7</ele>
        <time>2022-06-10T13:20:34Z</time>
      </trkpt>
      <trkpt lat="44.63992" lon="4.37097">
        <ele>268.8</ele>
        <time>2022-06-10T13:20:36Z</time>
      </trkpt>
      <trkpt lat="44.63987" lon="4.37101">
        <ele>269</ele>
        <time>2022-06-10T13:20:37Z</time>
      </trkpt>
      <trkpt lat="44.63984" lon="4.37105">
        <ele>269</ele>
        <time>2022-06-10T13:20:39Z</time>
      </trkpt>
      <trkpt lat="44.6398" lon="4.37111">
        <ele>269.2</ele>
        <time>2022-06-10T13:20:41Z</time>
      </trkpt>
      <trkpt lat="44.63977" lon="4.37115">
        <ele>269.3</ele>
        <time>2022-06-10T13:20:42Z</time>
      </trkpt>
      <trkpt lat="44.63973" lon="4.37118">
        <ele>269.5</ele>
        <time>2022-06-10T13:20:43Z</time>
      </trkpt>
      <trkpt lat="44.6397" lon="4.37122">
        <ele>269.6</ele>
        <time>2022-06-10T13:20:44Z</time>
      </trkpt>
      <trkpt lat="44.63966" lon="4.37126">
        <ele>269.7</ele>
        <time>2022-06-10T13:20:46Z</time>
      </trkpt>
      <trkpt lat="44.63964" lon="4.37128">
        <ele>269.8</ele>
        <time>2022-06-10T13:20:47Z</time>
      </trkpt>
      <trkpt lat="44.63961" lon="4.37132">
        <ele>269.9</ele>
        <time>2022-06-10T13:20:48Z</time>
      </trkpt>
      <trkpt lat="44.63956" lon="4.37137">
        <ele>270.1</ele>
        <time>2022-06-10T13:20:49Z</time>
      </trkpt>
      <trkpt lat="44.63954" lon="4.3714">
        <ele>270.2</ele>
        <time>2022-06-10T13:20:50Z</time>
      </trkpt>
      <trkpt lat="44.6395" lon="4.37143">
        <ele>270.3</ele>
        <time>2022-06-10T13:20:51Z</time>
      </trkpt>
      <trkpt lat="44.63947" lon="4.37146">
        <ele>270.4</ele>
        <time>2022-06-10T13:20:53Z</time>
      </trkpt>
      <trkpt lat="44.63945" lon="4.3715">
        <ele>270.5</ele>
        <time>2022-06-10T13:20:54Z</time>
      </trkpt>
      <trkpt lat="44.63942" lon="4.37153">
        <ele>270.6</ele>
        <time>2022-06-10T13:20:55Z</time>
      </trkpt>
      <trkpt lat="44.63939" lon="4.37156">
        <ele>270.7</ele>
        <time>2022-06-10T13:20:56Z</time>
      </trkpt>
      <trkpt lat="44.63937" lon="4.37159">
        <ele>270.7</ele>
        <time>2022-06-10T13:20:57Z</time>
      </trkpt>
      <trkpt lat="44.63935" lon="4.37162">
        <ele>270.8</ele>
        <time>2022-06-10T13:20:58Z</time>
      </trkpt>
      <trkpt lat="44.63932" lon="4.37167">
        <ele>270.9</ele>
        <time>2022-06-10T13:20:59Z</time>
      </trkpt>
      <trkpt lat="44.63927" lon="4.37173">
        <ele>271.1</ele>
        <time>2022-06-10T13:21:00Z</time>
      </trkpt>
      <trkpt lat="44.63924" lon="4.37178">
        <ele>271.2</ele>
        <time>2022-06-10T13:21:02Z</time>
      </trkpt>
      <trkpt lat="44.63922" lon="4.37181">
        <ele>271.3</ele>
        <time>2022-06-10T13:21:03Z</time>
      </trkpt>
      <trkpt lat="44.63919" lon="4.37184">
        <ele>271.4</ele>
        <time>2022-06-10T13:21:04Z</time>
      </trkpt>
      <trkpt lat="44.63917" lon="4.37187">
        <ele>271.4</ele>
        <time>2022-06-10T13:21:05Z</time>
      </trkpt>
      <trkpt lat="44.63914" lon="4.37191">
        <ele>271.5</ele>
        <time>2022-06-10T13:21:06Z</time>
      </trkpt>
      <trkpt lat="44.63911" lon="4.37194">
        <ele>271.6</ele>
        <time>2022-06-10T13:21:07Z</time>
      </trkpt>
      <trkpt lat="44.63908" lon="4.37197">
        <ele>271.7</ele>
        <time>2022-06-10T13:21:08Z</time>
      </trkpt>
      <trkpt lat="44.63905" lon="4.37201">
        <ele>271.7</ele>
        <time>2022-06-10T13:21:09Z</time>
      </trkpt>
      <trkpt lat="44.63901" lon="4.37204">
        <ele>271.8</ele>
        <time>2022-06-10T13:21:10Z</time>
      </trkpt>
      <trkpt lat="44.63898" lon="4.37207">
        <ele>271.8</ele>
        <time>2022-06-10T13:21:11Z</time>
      </trkpt>
      <trkpt lat="44.63895" lon="4.37211">
        <ele>271.9</ele>
        <time>2022-06-10T13:21:12Z</time>
      </trkpt>
      <trkpt lat="44.63892" lon="4.37214">
        <ele>271.9</ele>
        <time>2022-06-10T13:21:13Z</time>
      </trkpt>
      <trkpt lat="44.63889" lon="4.37219">
        <ele>272</ele>
        <time>2022-06-10T13:21:14Z</time>
      </trkpt>
      <trkpt lat="44.63886" lon="4.37222">
        <ele>272</ele>
        <time>2022-06-10T13:21:15Z</time>
      </trkpt>
      <trkpt lat="44.63882" lon="4.37226">
        <ele>272.1</ele>
        <time>2022-06-10T13:21:16Z</time>
      </trkpt>
      <trkpt lat="44.63877" lon="4.37233">
        <ele>272.1</ele>
        <time>2022-06-10T13:21:17Z</time>
      </trkpt>
      <trkpt lat="44.63872" lon="4.37238">
        <ele>272.1</ele>
        <time>2022-06-10T13:21:18Z</time>
      </trkpt>
      <trkpt lat="44.63866" lon="4.37244">
        <ele>272</ele>
        <time>2022-06-10T13:21:20Z</time>
      </trkpt>
      <trkpt lat="44.63862" lon="4.37248">
        <ele>272</ele>
        <time>2022-06-10T13:21:21Z</time>
      </trkpt>
      <trkpt lat="44.63859" lon="4.37253">
        <ele>272</ele>
        <time>2022-06-10T13:21:22Z</time>
      </trkpt>
      <trkpt lat="44.63855" lon="4.37258">
        <ele>272</ele>
        <time>2022-06-10T13:21:23Z</time>
      </trkpt>
      <trkpt lat="44.63851" lon="4.37263">
        <ele>271.9</ele>
        <time>2022-06-10T13:21:24Z</time>
      </trkpt>
      <trkpt lat="44.63847" lon="4.37268">
        <ele>271.9</ele>
        <time>2022-06-10T13:21:25Z</time>
      </trkpt>
      <trkpt lat="44.63843" lon="4.37273">
        <ele>271.8</ele>
        <time>2022-06-10T13:21:26Z</time>
      </trkpt>
      <trkpt lat="44.63839" lon="4.37276">
        <ele>271.7</ele>
        <time>2022-06-10T13:21:27Z</time>
      </trkpt>
      <trkpt lat="44.63835" lon="4.37281">
        <ele>271.6</ele>
        <time>2022-06-10T13:21:28Z</time>
      </trkpt>
      <trkpt lat="44.63831" lon="4.37286">
        <ele>271.4</ele>
        <time>2022-06-10T13:21:29Z</time>
      </trkpt>
      <trkpt lat="44.63827" lon="4.37291">
        <ele>271.2</ele>
        <time>2022-06-10T13:21:30Z</time>
      </trkpt>
      <trkpt lat="44.63822" lon="4.37297">
        <ele>271</ele>
        <time>2022-06-10T13:21:31Z</time>
      </trkpt>
      <trkpt lat="44.63817" lon="4.37303">
        <ele>270.8</ele>
        <time>2022-06-10T13:21:32Z</time>
      </trkpt>
      <trkpt lat="44.63813" lon="4.3731">
        <ele>270.6</ele>
        <time>2022-06-10T13:21:33Z</time>
      </trkpt>
      <trkpt lat="44.63808" lon="4.37316">
        <ele>270.4</ele>
        <time>2022-06-10T13:21:34Z</time>
      </trkpt>
      <trkpt lat="44.63803" lon="4.37322">
        <ele>270.2</ele>
        <time>2022-06-10T13:21:35Z</time>
      </trkpt>
      <trkpt lat="44.63799" lon="4.37329">
        <ele>270.1</ele>
        <time>2022-06-10T13:21:36Z</time>
      </trkpt>
      <trkpt lat="44.63794" lon="4.37336">
        <ele>269.9</ele>
        <time>2022-06-10T13:21:37Z</time>
      </trkpt>
      <trkpt lat="44.6379" lon="4.37342">
        <ele>269.8</ele>
        <time>2022-06-10T13:21:38Z</time>
      </trkpt>
      <trkpt lat="44.63785" lon="4.37349">
        <ele>269.7</ele>
        <time>2022-06-10T13:21:39Z</time>
      </trkpt>
      <trkpt lat="44.63781" lon="4.37357">
        <ele>269.6</ele>
        <time>2022-06-10T13:21:40Z</time>
      </trkpt>
      <trkpt lat="44.63777" lon="4.37364">
        <ele>269.4</ele>
        <time>2022-06-10T13:21:41Z</time>
      </trkpt>
      <trkpt lat="44.63772" lon="4.37372">
        <ele>269.3</ele>
        <time>2022-06-10T13:21:42Z</time>
      </trkpt>
      <trkpt lat="44.63768" lon="4.37379">
        <ele>269.3</ele>
        <time>2022-06-10T13:21:43Z</time>
      </trkpt>
      <trkpt lat="44.63764" lon="4.37387">
        <ele>269.2</ele>
        <time>2022-06-10T13:21:44Z</time>
      </trkpt>
      <trkpt lat="44.6376" lon="4.37394">
        <ele>269.2</ele>
        <time>2022-06-10T13:21:45Z</time>
      </trkpt>
      <trkpt lat="44.63755" lon="4.37401">
        <ele>269.1</ele>
        <time>2022-06-10T13:21:46Z</time>
      </trkpt>
      <trkpt lat="44.6375" lon="4.37407">
        <ele>269.1</ele>
        <time>2022-06-10T13:21:47Z</time>
      </trkpt>
      <trkpt lat="44.63746" lon="4.37413">
        <ele>269.1</ele>
        <time>2022-06-10T13:21:48Z</time>
      </trkpt>
      <trkpt lat="44.63741" lon="4.37419">
        <ele>269.1</ele>
        <time>2022-06-10T13:21:49Z</time>
      </trkpt>
      <trkpt lat="44.63737" lon="4.37425">
        <ele>269.1</ele>
        <time>2022-06-10T13:21:50Z</time>
      </trkpt>
      <trkpt lat="44.63733" lon="4.37431">
        <ele>269.1</ele>
        <time>2022-06-10T13:21:51Z</time>
      </trkpt>
      <trkpt lat="44.63729" lon="4.37438">
        <ele>269</ele>
        <time>2022-06-10T13:21:52Z</time>
      </trkpt>
      <trkpt lat="44.63725" lon="4.37444">
        <ele>269</ele>
        <time>2022-06-10T13:21:53Z</time>
      </trkpt>
      <trkpt lat="44.63721" lon="4.37452">
        <ele>269</ele>
        <time>2022-06-10T13:21:54Z</time>
      </trkpt>
      <trkpt lat="44.63717" lon="4.37459">
        <ele>269</ele>
        <time>2022-06-10T13:21:55Z</time>
      </trkpt>
      <trkpt lat="44.63714" lon="4.37465">
        <ele>269</ele>
        <time>2022-06-10T13:21:56Z</time>
      </trkpt>
      <trkpt lat="44.63709" lon="4.37471">
        <ele>269.1</ele>
        <time>2022-06-10T13:21:57Z</time>
      </trkpt>
      <trkpt lat="44.63705" lon="4.37477">
        <ele>269.1</ele>
        <time>2022-06-10T13:21:58Z</time>
      </trkpt>
      <trkpt lat="44.63701" lon="4.37484">
        <ele>269.1</ele>
        <time>2022-06-10T13:21:59Z</time>
      </trkpt>
      <trkpt lat="44.63698" lon="4.3749">
        <ele>269.1</ele>
        <time>2022-06-10T13:22:00Z</time>
      </trkpt>
      <trkpt lat="44.63695" lon="4.37496">
        <ele>269.2</ele>
        <time>2022-06-10T13:22:01Z</time>
      </trkpt>
      <trkpt lat="44.63692" lon="4.37502">
        <ele>269.2</ele>
        <time>2022-06-10T13:22:02Z</time>
      </trkpt>
      <trkpt lat="44.6369" lon="4.37507">
        <ele>269.3</ele>
        <time>2022-06-10T13:22:03Z</time>
      </trkpt>
      <trkpt lat="44.63689" lon="4.37514">
        <ele>269.3</ele>
        <time>2022-06-10T13:22:04Z</time>
      </trkpt>
      <trkpt lat="44.63689" lon="4.3752">
        <ele>269.4</ele>
        <time>2022-06-10T13:22:05Z</time>
      </trkpt>
      <trkpt lat="44.63689" lon="4.37527">
        <ele>269.4</ele>
        <time>2022-06-10T13:22:06Z</time>
      </trkpt>
      <trkpt lat="44.63689" lon="4.37533">
        <ele>269.5</ele>
        <time>2022-06-10T13:22:07Z</time>
      </trkpt>
      <trkpt lat="44.63689" lon="4.3754">
        <ele>269.5</ele>
        <time>2022-06-10T13:22:08Z</time>
      </trkpt>
      <trkpt lat="44.63689" lon="4.37546">
        <ele>269.5</ele>
        <time>2022-06-10T13:22:09Z</time>
      </trkpt>
      <trkpt lat="44.6369" lon="4.37554">
        <ele>269.6</ele>
        <time>2022-06-10T13:22:10Z</time>
      </trkpt>
      <trkpt lat="44.6369" lon="4.3756">
        <ele>269.6</ele>
        <time>2022-06-10T13:22:11Z</time>
      </trkpt>
      <trkpt lat="44.6369" lon="4.37566">
        <ele>269.7</ele>
        <time>2022-06-10T13:22:12Z</time>
      </trkpt>
      <trkpt lat="44.6369" lon="4.37573">
        <ele>269.7</ele>
        <time>2022-06-10T13:22:13Z</time>
      </trkpt>
      <trkpt lat="44.6369" lon="4.37577">
        <ele>269.8</ele>
        <time>2022-06-10T13:22:14Z</time>
      </trkpt>
      <trkpt lat="44.6369" lon="4.37583">
        <ele>269.8</ele>
        <time>2022-06-10T13:22:15Z</time>
      </trkpt>
      <trkpt lat="44.63689" lon="4.37585">
        <ele>269.8</ele>
        <time>2022-06-10T13:22:16Z</time>
      </trkpt>
      <trkpt lat="44.6369" lon="4.37589">
        <ele>269.9</ele>
        <time>2022-06-10T13:22:17Z</time>
      </trkpt>
      <trkpt lat="44.6369" lon="4.3759">
        <ele>269.9</ele>
        <time>2022-06-10T13:22:18Z</time>
      </trkpt>
      <trkpt lat="44.63689" lon="4.3759">
        <ele>269.9</ele>
        <time>2022-06-10T13:22:19Z</time>
      </trkpt>
      <trkpt lat="44.63689" lon="4.3759">
        <ele>269.9</ele>
        <time>2022-06-10T13:22:20Z</time>
      </trkpt>
      <trkpt lat="44.63689" lon="4.3759">
        <ele>269.9</ele>
        <time>2022-06-10T13:22:21Z</time>
      </trkpt>
      <trkpt lat="44.63689" lon="4.3759">
        <ele>269.9</ele>
        <time>2022-06-10T13:22:22Z</time>
      </trkpt>
      <trkpt lat="44.63689" lon="4.3759">
        <ele>269.9</ele>
        <time>2022-06-10T13:22:23Z</time>
      </trkpt>
      <trkpt lat="44.63688" lon="4.37589">
        <ele>269.9</ele>
        <time>2022-06-10T13:22:24Z</time>
      </trkpt>
      <trkpt lat="44.63688" lon="4.37589">
        <ele>269.9</ele>
        <time>2022-06-10T13:22:25Z</time>
      </trkpt>
      <trkpt lat="44.63688" lon="4.37589">
        <ele>269.9</ele>
        <time>2022-06-10T13:22:26Z</time>
      </trkpt>
      <trkpt lat="44.63688" lon="4.37589">
        <ele>269.9</ele>
        <time>2022-06-10T13:22:27Z</time>
      </trkpt>
      <trkpt lat="44.63688" lon="4.37589">
        <ele>269.9</ele>
        <time>2022-06-10T13:22:28Z</time>
      </trkpt>
      <trkpt lat="44.63688" lon="4.37589">
        <ele>269.9</ele>
        <time>2022-06-10T13:22:29Z</time>
      </trkpt>
      <trkpt lat="44.63693" lon="4.37588">
        <ele>270</ele>
        <time>2022-06-10T13:22:45Z</time>
      </trkpt>
      <trkpt lat="44.63694" lon="4.37588">
        <ele>270</ele>
        <time>2022-06-10T13:22:46Z</time>
      </trkpt>
      <trkpt lat="44.63695" lon="4.37586">
        <ele>270</ele>
        <time>2022-06-10T13:22:47Z</time>
      </trkpt>
      <trkpt lat="44.63695" lon="4.3758">
        <ele>270</ele>
        <time>2022-06-10T13:22:48Z</time>
      </trkpt>
      <trkpt lat="44.63697" lon="4.37577">
        <ele>270.1</ele>
        <time>2022-06-10T13:22:50Z</time>
      </trkpt>
      <trkpt lat="44.637" lon="4.37575">
        <ele>270</ele>
        <time>2022-06-10T13:22:51Z</time>
      </trkpt>
      <trkpt lat="44.63699" lon="4.37565">
        <ele>269.9</ele>
        <time>2022-06-10T13:22:53Z</time>
      </trkpt>
      <trkpt lat="44.63699" lon="4.37561">
        <ele>269.9</ele>
        <time>2022-06-10T13:22:54Z</time>
      </trkpt>
      <trkpt lat="44.63697" lon="4.37552">
        <ele>269.8</ele>
        <time>2022-06-10T13:22:56Z</time>
      </trkpt>
      <trkpt lat="44.63697" lon="4.37547">
        <ele>269.7</ele>
        <time>2022-06-10T13:22:57Z</time>
      </trkpt>
      <trkpt lat="44.63697" lon="4.37541">
        <ele>269.6</ele>
        <time>2022-06-10T13:22:58Z</time>
      </trkpt>
      <trkpt lat="44.63695" lon="4.37535">
        <ele>269.5</ele>
        <time>2022-06-10T13:22:59Z</time>
      </trkpt>
      <trkpt lat="44.63694" lon="4.37527">
        <ele>269.5</ele>
        <time>2022-06-10T13:23:01Z</time>
      </trkpt>
      <trkpt lat="44.63694" lon="4.37518">
        <ele>269.4</ele>
        <time>2022-06-10T13:23:02Z</time>
      </trkpt>
      <trkpt lat="44.63694" lon="4.37512">
        <ele>269.3</ele>
        <time>2022-06-10T13:23:03Z</time>
      </trkpt>
      <trkpt lat="44.63694" lon="4.37506">
        <ele>269.3</ele>
        <time>2022-06-10T13:23:04Z</time>
      </trkpt>
      <trkpt lat="44.63695" lon="4.375">
        <ele>269.2</ele>
        <time>2022-06-10T13:23:05Z</time>
      </trkpt>
      <trkpt lat="44.63699" lon="4.37493">
        <ele>269.2</ele>
        <time>2022-06-10T13:23:06Z</time>
      </trkpt>
      <trkpt lat="44.63704" lon="4.37483">
        <ele>269.1</ele>
        <time>2022-06-10T13:23:08Z</time>
      </trkpt>
      <trkpt lat="44.63708" lon="4.37477">
        <ele>269.1</ele>
        <time>2022-06-10T13:23:09Z</time>
      </trkpt>
      <trkpt lat="44.63711" lon="4.37471">
        <ele>269.1</ele>
        <time>2022-06-10T13:23:10Z</time>
      </trkpt>
      <trkpt lat="44.63715" lon="4.37465">
        <ele>269</ele>
        <time>2022-06-10T13:23:11Z</time>
      </trkpt>
      <trkpt lat="44.63718" lon="4.37459">
        <ele>269</ele>
        <time>2022-06-10T13:23:12Z</time>
      </trkpt>
      <trkpt lat="44.6372" lon="4.37454">
        <ele>269</ele>
        <time>2022-06-10T13:23:13Z</time>
      </trkpt>
      <trkpt lat="44.63724" lon="4.37449">
        <ele>269</ele>
        <time>2022-06-10T13:23:14Z</time>
      </trkpt>
      <trkpt lat="44.63727" lon="4.37444">
        <ele>269</ele>
        <time>2022-06-10T13:23:15Z</time>
      </trkpt>
      <trkpt lat="44.6373" lon="4.37439">
        <ele>269</ele>
        <time>2022-06-10T13:23:16Z</time>
      </trkpt>
      <trkpt lat="44.63734" lon="4.37435">
        <ele>269</ele>
        <time>2022-06-10T13:23:17Z</time>
      </trkpt>
      <trkpt lat="44.63738" lon="4.37431">
        <ele>269.1</ele>
        <time>2022-06-10T13:23:18Z</time>
      </trkpt>
      <trkpt lat="44.63742" lon="4.37427">
        <ele>269.1</ele>
        <time>2022-06-10T13:23:19Z</time>
      </trkpt>
      <trkpt lat="44.63745" lon="4.37425">
        <ele>269.1</ele>
        <time>2022-06-10T13:23:20Z</time>
      </trkpt>
      <trkpt lat="44.63748" lon="4.37425">
        <ele>269.1</ele>
        <time>2022-06-10T13:23:21Z</time>
      </trkpt>
      <trkpt lat="44.6375" lon="4.37428">
        <ele>269.1</ele>
        <time>2022-06-10T13:23:22Z</time>
      </trkpt>
      <trkpt lat="44.63752" lon="4.37431">
        <ele>269.1</ele>
        <time>2022-06-10T13:23:23Z</time>
      </trkpt>
      <trkpt lat="44.63754" lon="4.37434">
        <ele>269.2</ele>
        <time>2022-06-10T13:23:24Z</time>
      </trkpt>
      <trkpt lat="44.63757" lon="4.37436">
        <ele>269.2</ele>
        <time>2022-06-10T13:23:25Z</time>
      </trkpt>
      <trkpt lat="44.63758" lon="4.37435">
        <ele>269.2</ele>
        <time>2022-06-10T13:23:26Z</time>
      </trkpt>
      <trkpt lat="44.63761" lon="4.37439">
        <ele>269.3</ele>
        <time>2022-06-10T13:23:27Z</time>
      </trkpt>
      <trkpt lat="44.63764" lon="4.37443">
        <ele>269.4</ele>
        <time>2022-06-10T13:23:28Z</time>
      </trkpt>
      <trkpt lat="44.63766" lon="4.37447">
        <ele>269.4</ele>
        <time>2022-06-10T13:23:29Z</time>
      </trkpt>
      <trkpt lat="44.63768" lon="4.37451">
        <ele>269.5</ele>
        <time>2022-06-10T13:23:30Z</time>
      </trkpt>
      <trkpt lat="44.63769" lon="4.37455">
        <ele>269.6</ele>
        <time>2022-06-10T13:23:31Z</time>
      </trkpt>
      <trkpt lat="44.63771" lon="4.3746">
        <ele>269.7</ele>
        <time>2022-06-10T13:23:32Z</time>
      </trkpt>
      <trkpt lat="44.63772" lon="4.37465">
        <ele>269.8</ele>
        <time>2022-06-10T13:23:33Z</time>
      </trkpt>
      <trkpt lat="44.63773" lon="4.37469">
        <ele>269.8</ele>
        <time>2022-06-10T13:23:34Z</time>
      </trkpt>
      <trkpt lat="44.63774" lon="4.37474">
        <ele>269.9</ele>
        <time>2022-06-10T13:23:35Z</time>
      </trkpt>
      <trkpt lat="44.63776" lon="4.37478">
        <ele>270</ele>
        <time>2022-06-10T13:23:36Z</time>
      </trkpt>
      <trkpt lat="44.63777" lon="4.37485">
        <ele>270.1</ele>
        <time>2022-06-10T13:23:37Z</time>
      </trkpt>
      <trkpt lat="44.63777" lon="4.3749">
        <ele>270.2</ele>
        <time>2022-06-10T13:23:38Z</time>
      </trkpt>
      <trkpt lat="44.63778" lon="4.37495">
        <ele>270.3</ele>
        <time>2022-06-10T13:23:39Z</time>
      </trkpt>
      <trkpt lat="44.63779" lon="4.37502">
        <ele>270.3</ele>
        <time>2022-06-10T13:23:41Z</time>
      </trkpt>
      <trkpt lat="44.6378" lon="4.37505">
        <ele>270.4</ele>
        <time>2022-06-10T13:23:42Z</time>
      </trkpt>
      <trkpt lat="44.63781" lon="4.37511">
        <ele>270.5</ele>
        <time>2022-06-10T13:23:43Z</time>
      </trkpt>
      <trkpt lat="44.63781" lon="4.37516">
        <ele>270.5</ele>
        <time>2022-06-10T13:23:44Z</time>
      </trkpt>
      <trkpt lat="44.63782" lon="4.37521">
        <ele>270.6</ele>
        <time>2022-06-10T13:23:45Z</time>
      </trkpt>
      <trkpt lat="44.63782" lon="4.37527">
        <ele>270.6</ele>
        <time>2022-06-10T13:23:47Z</time>
      </trkpt>
      <trkpt lat="44.63782" lon="4.37533">
        <ele>270.7</ele>
        <time>2022-06-10T13:23:48Z</time>
      </trkpt>
      <trkpt lat="44.63783" lon="4.37538">
        <ele>270.7</ele>
        <time>2022-06-10T13:23:49Z</time>
      </trkpt>
      <trkpt lat="44.63783" lon="4.37544">
        <ele>270.7</ele>
        <time>2022-06-10T13:23:50Z</time>
      </trkpt>
      <trkpt lat="44.63782" lon="4.3755">
        <ele>270.6</ele>
        <time>2022-06-10T13:23:52Z</time>
      </trkpt>
      <trkpt lat="44.63781" lon="4.37561">
        <ele>270.5</ele>
        <time>2022-06-10T13:23:54Z</time>
      </trkpt>
      <trkpt lat="44.63778" lon="4.37565">
        <ele>270.3</ele>
        <time>2022-06-10T13:23:55Z</time>
      </trkpt>
      <trkpt lat="44.63772" lon="4.37567">
        <ele>267.7</ele>
        <time>2022-06-10T13:23:56Z</time>
      </trkpt>
      <trkpt lat="44.63769" lon="4.37571">
        <ele>267.2</ele>
        <time>2022-06-10T13:23:57Z</time>
      </trkpt>
      <trkpt lat="44.63765" lon="4.37575">
        <ele>266.7</ele>
        <time>2022-06-10T13:23:58Z</time>
      </trkpt>
      <trkpt lat="44.63762" lon="4.37583">
        <ele>266.1</ele>
        <time>2022-06-10T13:23:59Z</time>
      </trkpt>
      <trkpt lat="44.63759" lon="4.37591">
        <ele>265.4</ele>
        <time>2022-06-10T13:24:00Z</time>
      </trkpt>
      <trkpt lat="44.63755" lon="4.37601">
        <ele>264.5</ele>
        <time>2022-06-10T13:24:01Z</time>
      </trkpt>
      <trkpt lat="44.63751" lon="4.37612">
        <ele>263.6</ele>
        <time>2022-06-10T13:24:02Z</time>
      </trkpt>
      <trkpt lat="44.63746" lon="4.37623">
        <ele>262.8</ele>
        <time>2022-06-10T13:24:03Z</time>
      </trkpt>
      <trkpt lat="44.6374" lon="4.37635">
        <ele>262.2</ele>
        <time>2022-06-10T13:24:04Z</time>
      </trkpt>
      <trkpt lat="44.63734" lon="4.37648">
        <ele>261.9</ele>
        <time>2022-06-10T13:24:05Z</time>
      </trkpt>
      <trkpt lat="44.63728" lon="4.37662">
        <ele>261.7</ele>
        <time>2022-06-10T13:24:06Z</time>
      </trkpt>
      <trkpt lat="44.63724" lon="4.37673">
        <ele>261.6</ele>
        <time>2022-06-10T13:24:07Z</time>
      </trkpt>
      <trkpt lat="44.63719" lon="4.37686">
        <ele>261.5</ele>
        <time>2022-06-10T13:24:08Z</time>
      </trkpt>
      <trkpt lat="44.63714" lon="4.37698">
        <ele>261.5</ele>
        <time>2022-06-10T13:24:09Z</time>
      </trkpt>
      <trkpt lat="44.63709" lon="4.37709">
        <ele>261.5</ele>
        <time>2022-06-10T13:24:10Z</time>
      </trkpt>
      <trkpt lat="44.63706" lon="4.3772">
        <ele>261.4</ele>
        <time>2022-06-10T13:24:11Z</time>
      </trkpt>
      <trkpt lat="44.63701" lon="4.37729">
        <ele>261.3</ele>
        <time>2022-06-10T13:24:12Z</time>
      </trkpt>
      <trkpt lat="44.63696" lon="4.37738">
        <ele>261.1</ele>
        <time>2022-06-10T13:24:13Z</time>
      </trkpt>
      <trkpt lat="44.63692" lon="4.37748">
        <ele>261</ele>
        <time>2022-06-10T13:24:14Z</time>
      </trkpt>
      <trkpt lat="44.63688" lon="4.37757">
        <ele>260.9</ele>
        <time>2022-06-10T13:24:15Z</time>
      </trkpt>
      <trkpt lat="44.63682" lon="4.37766">
        <ele>260.7</ele>
        <time>2022-06-10T13:24:16Z</time>
      </trkpt>
      <trkpt lat="44.63677" lon="4.37776">
        <ele>260.6</ele>
        <time>2022-06-10T13:24:17Z</time>
      </trkpt>
      <trkpt lat="44.63672" lon="4.37784">
        <ele>260.5</ele>
        <time>2022-06-10T13:24:18Z</time>
      </trkpt>
      <trkpt lat="44.63667" lon="4.37792">
        <ele>260.4</ele>
        <time>2022-06-10T13:24:19Z</time>
      </trkpt>
      <trkpt lat="44.63661" lon="4.37798">
        <ele>260.2</ele>
        <time>2022-06-10T13:24:20Z</time>
      </trkpt>
      <trkpt lat="44.63656" lon="4.37805">
        <ele>260.1</ele>
        <time>2022-06-10T13:24:21Z</time>
      </trkpt>
      <trkpt lat="44.6365" lon="4.37812">
        <ele>260</ele>
        <time>2022-06-10T13:24:22Z</time>
      </trkpt>
      <trkpt lat="44.63646" lon="4.37821">
        <ele>259.9</ele>
        <time>2022-06-10T13:24:23Z</time>
      </trkpt>
      <trkpt lat="44.63641" lon="4.37829">
        <ele>259.7</ele>
        <time>2022-06-10T13:24:24Z</time>
      </trkpt>
      <trkpt lat="44.63636" lon="4.37835">
        <ele>259.6</ele>
        <time>2022-06-10T13:24:25Z</time>
      </trkpt>
      <trkpt lat="44.6363" lon="4.37841">
        <ele>259.5</ele>
        <time>2022-06-10T13:24:26Z</time>
      </trkpt>
      <trkpt lat="44.63624" lon="4.37847">
        <ele>259.3</ele>
        <time>2022-06-10T13:24:27Z</time>
      </trkpt>
      <trkpt lat="44.63619" lon="4.37855">
        <ele>259.2</ele>
        <time>2022-06-10T13:24:28Z</time>
      </trkpt>
      <trkpt lat="44.63614" lon="4.37862">
        <ele>259</ele>
        <time>2022-06-10T13:24:29Z</time>
      </trkpt>
      <trkpt lat="44.63608" lon="4.37868">
        <ele>258.9</ele>
        <time>2022-06-10T13:24:30Z</time>
      </trkpt>
      <trkpt lat="44.63604" lon="4.37876">
        <ele>258.7</ele>
        <time>2022-06-10T13:24:31Z</time>
      </trkpt>
      <trkpt lat="44.63599" lon="4.37884">
        <ele>258.6</ele>
        <time>2022-06-10T13:24:32Z</time>
      </trkpt>
      <trkpt lat="44.63595" lon="4.37891">
        <ele>258.4</ele>
        <time>2022-06-10T13:24:33Z</time>
      </trkpt>
      <trkpt lat="44.6359" lon="4.37898">
        <ele>258.3</ele>
        <time>2022-06-10T13:24:34Z</time>
      </trkpt>
      <trkpt lat="44.63586" lon="4.37904">
        <ele>258.2</ele>
        <time>2022-06-10T13:24:35Z</time>
      </trkpt>
      <trkpt lat="44.63581" lon="4.3791">
        <ele>258.1</ele>
        <time>2022-06-10T13:24:36Z</time>
      </trkpt>
      <trkpt lat="44.63577" lon="4.37916">
        <ele>258</ele>
        <time>2022-06-10T13:24:37Z</time>
      </trkpt>
      <trkpt lat="44.63572" lon="4.37924">
        <ele>257.9</ele>
        <time>2022-06-10T13:24:38Z</time>
      </trkpt>
      <trkpt lat="44.63567" lon="4.37931">
        <ele>257.8</ele>
        <time>2022-06-10T13:24:39Z</time>
      </trkpt>
      <trkpt lat="44.63562" lon="4.37937">
        <ele>257.7</ele>
        <time>2022-06-10T13:24:40Z</time>
      </trkpt>
      <trkpt lat="44.63557" lon="4.37944">
        <ele>257.6</ele>
        <time>2022-06-10T13:24:41Z</time>
      </trkpt>
      <trkpt lat="44.63551" lon="4.37951">
        <ele>257.5</ele>
        <time>2022-06-10T13:24:42Z</time>
      </trkpt>
      <trkpt lat="44.63546" lon="4.37958">
        <ele>257.5</ele>
        <time>2022-06-10T13:24:43Z</time>
      </trkpt>
      <trkpt lat="44.63541" lon="4.37965">
        <ele>257.4</ele>
        <time>2022-06-10T13:24:44Z</time>
      </trkpt>
      <trkpt lat="44.63536" lon="4.37972">
        <ele>257.3</ele>
        <time>2022-06-10T13:24:45Z</time>
      </trkpt>
      <trkpt lat="44.63531" lon="4.37979">
        <ele>257.2</ele>
        <time>2022-06-10T13:24:46Z</time>
      </trkpt>
      <trkpt lat="44.63524" lon="4.37986">
        <ele>257.1</ele>
        <time>2022-06-10T13:24:47Z</time>
      </trkpt>
      <trkpt lat="44.63519" lon="4.37991">
        <ele>257</ele>
        <time>2022-06-10T13:24:48Z</time>
      </trkpt>
      <trkpt lat="44.63513" lon="4.37997">
        <ele>257</ele>
        <time>2022-06-10T13:24:49Z</time>
      </trkpt>
      <trkpt lat="44.63507" lon="4.38003">
        <ele>256.9</ele>
        <time>2022-06-10T13:24:50Z</time>
      </trkpt>
      <trkpt lat="44.63502" lon="4.3801">
        <ele>256.8</ele>
        <time>2022-06-10T13:24:51Z</time>
      </trkpt>
      <trkpt lat="44.63496" lon="4.38016">
        <ele>256.6</ele>
        <time>2022-06-10T13:24:52Z</time>
      </trkpt>
      <trkpt lat="44.6349" lon="4.38022">
        <ele>256.5</ele>
        <time>2022-06-10T13:24:53Z</time>
      </trkpt>
      <trkpt lat="44.63484" lon="4.38027">
        <ele>256.3</ele>
        <time>2022-06-10T13:24:54Z</time>
      </trkpt>
      <trkpt lat="44.63478" lon="4.38032">
        <ele>256.2</ele>
        <time>2022-06-10T13:24:55Z</time>
      </trkpt>
      <trkpt lat="44.63474" lon="4.38037">
        <ele>256.1</ele>
        <time>2022-06-10T13:24:56Z</time>
      </trkpt>
      <trkpt lat="44.63468" lon="4.38041">
        <ele>256</ele>
        <time>2022-06-10T13:24:57Z</time>
      </trkpt>
      <trkpt lat="44.63462" lon="4.38046">
        <ele>255.9</ele>
        <time>2022-06-10T13:24:58Z</time>
      </trkpt>
      <trkpt lat="44.63456" lon="4.38051">
        <ele>255.8</ele>
        <time>2022-06-10T13:24:59Z</time>
      </trkpt>
      <trkpt lat="44.6345" lon="4.38058">
        <ele>255.7</ele>
        <time>2022-06-10T13:25:00Z</time>
      </trkpt>
      <trkpt lat="44.63444" lon="4.38063">
        <ele>255.6</ele>
        <time>2022-06-10T13:25:01Z</time>
      </trkpt>
      <trkpt lat="44.63439" lon="4.38067">
        <ele>255.6</ele>
        <time>2022-06-10T13:25:02Z</time>
      </trkpt>
      <trkpt lat="44.63433" lon="4.38069">
        <ele>255.5</ele>
        <time>2022-06-10T13:25:03Z</time>
      </trkpt>
      <trkpt lat="44.63428" lon="4.38071">
        <ele>255.4</ele>
        <time>2022-06-10T13:25:04Z</time>
      </trkpt>
      <trkpt lat="44.63422" lon="4.38074">
        <ele>255.4</ele>
        <time>2022-06-10T13:25:05Z</time>
      </trkpt>
      <trkpt lat="44.63415" lon="4.38077">
        <ele>255.3</ele>
        <time>2022-06-10T13:25:06Z</time>
      </trkpt>
      <trkpt lat="44.63408" lon="4.3808">
        <ele>255.1</ele>
        <time>2022-06-10T13:25:07Z</time>
      </trkpt>
      <trkpt lat="44.63402" lon="4.38082">
        <ele>255</ele>
        <time>2022-06-10T13:25:08Z</time>
      </trkpt>
      <trkpt lat="44.63396" lon="4.38083">
        <ele>254.9</ele>
        <time>2022-06-10T13:25:09Z</time>
      </trkpt>
      <trkpt lat="44.63389" lon="4.38085">
        <ele>254.7</ele>
        <time>2022-06-10T13:25:10Z</time>
      </trkpt>
      <trkpt lat="44.63381" lon="4.38087">
        <ele>254.6</ele>
        <time>2022-06-10T13:25:11Z</time>
      </trkpt>
      <trkpt lat="44.63374" lon="4.38089">
        <ele>254.5</ele>
        <time>2022-06-10T13:25:12Z</time>
      </trkpt>
      <trkpt lat="44.63367" lon="4.38092">
        <ele>254.3</ele>
        <time>2022-06-10T13:25:13Z</time>
      </trkpt>
      <trkpt lat="44.6336" lon="4.38093">
        <ele>254.2</ele>
        <time>2022-06-10T13:25:14Z</time>
      </trkpt>
      <trkpt lat="44.63355" lon="4.38095">
        <ele>254.1</ele>
        <time>2022-06-10T13:25:15Z</time>
      </trkpt>
      <trkpt lat="44.63347" lon="4.38095">
        <ele>253.9</ele>
        <time>2022-06-10T13:25:16Z</time>
      </trkpt>
      <trkpt lat="44.63341" lon="4.38096">
        <ele>253.8</ele>
        <time>2022-06-10T13:25:17Z</time>
      </trkpt>
      <trkpt lat="44.63334" lon="4.38097">
        <ele>253.6</ele>
        <time>2022-06-10T13:25:18Z</time>
      </trkpt>
      <trkpt lat="44.63327" lon="4.38099">
        <ele>253.5</ele>
        <time>2022-06-10T13:25:19Z</time>
      </trkpt>
      <trkpt lat="44.6332" lon="4.38101">
        <ele>253.4</ele>
        <time>2022-06-10T13:25:20Z</time>
      </trkpt>
      <trkpt lat="44.63313" lon="4.38102">
        <ele>253.2</ele>
        <time>2022-06-10T13:25:21Z</time>
      </trkpt>
      <trkpt lat="44.63306" lon="4.38104">
        <ele>253.1</ele>
        <time>2022-06-10T13:25:22Z</time>
      </trkpt>
      <trkpt lat="44.63299" lon="4.38106">
        <ele>253</ele>
        <time>2022-06-10T13:25:23Z</time>
      </trkpt>
      <trkpt lat="44.63292" lon="4.38108">
        <ele>252.9</ele>
        <time>2022-06-10T13:25:24Z</time>
      </trkpt>
      <trkpt lat="44.63285" lon="4.38109">
        <ele>252.8</ele>
        <time>2022-06-10T13:25:25Z</time>
      </trkpt>
      <trkpt lat="44.63278" lon="4.38111">
        <ele>252.6</ele>
        <time>2022-06-10T13:25:26Z</time>
      </trkpt>
      <trkpt lat="44.63271" lon="4.38114">
        <ele>252.5</ele>
        <time>2022-06-10T13:25:27Z</time>
      </trkpt>
      <trkpt lat="44.63264" lon="4.38116">
        <ele>252.4</ele>
        <time>2022-06-10T13:25:28Z</time>
      </trkpt>
      <trkpt lat="44.63258" lon="4.38118">
        <ele>252.3</ele>
        <time>2022-06-10T13:25:29Z</time>
      </trkpt>
      <trkpt lat="44.63251" lon="4.38121">
        <ele>252.2</ele>
        <time>2022-06-10T13:25:30Z</time>
      </trkpt>
      <trkpt lat="44.63244" lon="4.38124">
        <ele>252.1</ele>
        <time>2022-06-10T13:25:31Z</time>
      </trkpt>
      <trkpt lat="44.63237" lon="4.38127">
        <ele>252</ele>
        <time>2022-06-10T13:25:32Z</time>
      </trkpt>
      <trkpt lat="44.6323" lon="4.3813">
        <ele>252</ele>
        <time>2022-06-10T13:25:33Z</time>
      </trkpt>
      <trkpt lat="44.63223" lon="4.38133">
        <ele>251.9</ele>
        <time>2022-06-10T13:25:34Z</time>
      </trkpt>
      <trkpt lat="44.63217" lon="4.38136">
        <ele>251.8</ele>
        <time>2022-06-10T13:25:35Z</time>
      </trkpt>
      <trkpt lat="44.63211" lon="4.3814">
        <ele>251.6</ele>
        <time>2022-06-10T13:25:36Z</time>
      </trkpt>
      <trkpt lat="44.63204" lon="4.38144">
        <ele>251.5</ele>
        <time>2022-06-10T13:25:37Z</time>
      </trkpt>
      <trkpt lat="44.63197" lon="4.38147">
        <ele>251.3</ele>
        <time>2022-06-10T13:25:38Z</time>
      </trkpt>
      <trkpt lat="44.63191" lon="4.3815">
        <ele>251.2</ele>
        <time>2022-06-10T13:25:39Z</time>
      </trkpt>
      <trkpt lat="44.63184" lon="4.38154">
        <ele>251.1</ele>
        <time>2022-06-10T13:25:40Z</time>
      </trkpt>
      <trkpt lat="44.63177" lon="4.38158">
        <ele>250.9</ele>
        <time>2022-06-10T13:25:41Z</time>
      </trkpt>
      <trkpt lat="44.63171" lon="4.38161">
        <ele>250.8</ele>
        <time>2022-06-10T13:25:42Z</time>
      </trkpt>
      <trkpt lat="44.63165" lon="4.38165">
        <ele>250.7</ele>
        <time>2022-06-10T13:25:43Z</time>
      </trkpt>
      <trkpt lat="44.63159" lon="4.38169">
        <ele>250.6</ele>
        <time>2022-06-10T13:25:44Z</time>
      </trkpt>
      <trkpt lat="44.63153" lon="4.38171">
        <ele>250.5</ele>
        <time>2022-06-10T13:25:45Z</time>
      </trkpt>
      <trkpt lat="44.63146" lon="4.38173">
        <ele>250.4</ele>
        <time>2022-06-10T13:25:46Z</time>
      </trkpt>
      <trkpt lat="44.6314" lon="4.38176">
        <ele>250.3</ele>
        <time>2022-06-10T13:25:47Z</time>
      </trkpt>
      <trkpt lat="44.63134" lon="4.3818">
        <ele>250.1</ele>
        <time>2022-06-10T13:25:48Z</time>
      </trkpt>
      <trkpt lat="44.63128" lon="4.38183">
        <ele>250</ele>
        <time>2022-06-10T13:25:49Z</time>
      </trkpt>
      <trkpt lat="44.63122" lon="4.38185">
        <ele>249.9</ele>
        <time>2022-06-10T13:25:50Z</time>
      </trkpt>
      <trkpt lat="44.63116" lon="4.38188">
        <ele>249.8</ele>
        <time>2022-06-10T13:25:51Z</time>
      </trkpt>
      <trkpt lat="44.6311" lon="4.3819">
        <ele>249.7</ele>
        <time>2022-06-10T13:25:52Z</time>
      </trkpt>
      <trkpt lat="44.63104" lon="4.38193">
        <ele>249.6</ele>
        <time>2022-06-10T13:25:53Z</time>
      </trkpt>
      <trkpt lat="44.63098" lon="4.38195">
        <ele>249.5</ele>
        <time>2022-06-10T13:25:54Z</time>
      </trkpt>
      <trkpt lat="44.63093" lon="4.38196">
        <ele>249.4</ele>
        <time>2022-06-10T13:25:55Z</time>
      </trkpt>
      <trkpt lat="44.63087" lon="4.38197">
        <ele>249.3</ele>
        <time>2022-06-10T13:25:56Z</time>
      </trkpt>
      <trkpt lat="44.6308" lon="4.38198">
        <ele>249.2</ele>
        <time>2022-06-10T13:25:57Z</time>
      </trkpt>
      <trkpt lat="44.63074" lon="4.382">
        <ele>249.1</ele>
        <time>2022-06-10T13:25:58Z</time>
      </trkpt>
      <trkpt lat="44.63069" lon="4.38201">
        <ele>249</ele>
        <time>2022-06-10T13:25:59Z</time>
      </trkpt>
      <trkpt lat="44.63063" lon="4.38202">
        <ele>249</ele>
        <time>2022-06-10T13:26:00Z</time>
      </trkpt>
      <trkpt lat="44.63059" lon="4.38203">
        <ele>248.9</ele>
        <time>2022-06-10T13:26:01Z</time>
      </trkpt>
      <trkpt lat="44.63055" lon="4.38205">
        <ele>248.9</ele>
        <time>2022-06-10T13:26:02Z</time>
      </trkpt>
      <trkpt lat="44.63051" lon="4.38206">
        <ele>248.8</ele>
        <time>2022-06-10T13:26:03Z</time>
      </trkpt>
      <trkpt lat="44.63049" lon="4.38206">
        <ele>248.8</ele>
        <time>2022-06-10T13:26:04Z</time>
      </trkpt>
      <trkpt lat="44.63045" lon="4.38206">
        <ele>248.7</ele>
        <time>2022-06-10T13:26:05Z</time>
      </trkpt>
      <trkpt lat="44.63042" lon="4.38208">
        <ele>248.7</ele>
        <time>2022-06-10T13:26:06Z</time>
      </trkpt>
      <trkpt lat="44.63038" lon="4.38209">
        <ele>248.6</ele>
        <time>2022-06-10T13:26:07Z</time>
      </trkpt>
      <trkpt lat="44.63035" lon="4.38209">
        <ele>248.5</ele>
        <time>2022-06-10T13:26:08Z</time>
      </trkpt>
      <trkpt lat="44.63032" lon="4.38209">
        <ele>248.5</ele>
        <time>2022-06-10T13:26:09Z</time>
      </trkpt>
      <trkpt lat="44.63022" lon="4.38213">
        <ele>248.3</ele>
        <time>2022-06-10T13:26:11Z</time>
      </trkpt>
      <trkpt lat="44.63016" lon="4.38213">
        <ele>248.3</ele>
        <time>2022-06-10T13:26:12Z</time>
      </trkpt>
      <trkpt lat="44.63011" lon="4.38215">
        <ele>248.2</ele>
        <time>2022-06-10T13:26:13Z</time>
      </trkpt>
      <trkpt lat="44.63006" lon="4.38216">
        <ele>248.2</ele>
        <time>2022-06-10T13:26:14Z</time>
      </trkpt>
      <trkpt lat="44.63001" lon="4.38217">
        <ele>248.1</ele>
        <time>2022-06-10T13:26:15Z</time>
      </trkpt>
      <trkpt lat="44.62996" lon="4.38217">
        <ele>248.1</ele>
        <time>2022-06-10T13:26:16Z</time>
      </trkpt>
      <trkpt lat="44.62991" lon="4.38218">
        <ele>248</ele>
        <time>2022-06-10T13:26:17Z</time>
      </trkpt>
      <trkpt lat="44.62986" lon="4.38219">
        <ele>248</ele>
        <time>2022-06-10T13:26:18Z</time>
      </trkpt>
      <trkpt lat="44.62981" lon="4.3822">
        <ele>247.9</ele>
        <time>2022-06-10T13:26:19Z</time>
      </trkpt>
      <trkpt lat="44.62978" lon="4.38221">
        <ele>247.9</ele>
        <time>2022-06-10T13:26:20Z</time>
      </trkpt>
      <trkpt lat="44.62976" lon="4.38222">
        <ele>247.9</ele>
        <time>2022-06-10T13:26:21Z</time>
      </trkpt>
      <trkpt lat="44.62975" lon="4.38222">
        <ele>247.9</ele>
        <time>2022-06-10T13:26:22Z</time>
      </trkpt>
      <trkpt lat="44.62976" lon="4.38222">
        <ele>247.9</ele>
        <time>2022-06-10T13:26:23Z</time>
      </trkpt>
      <trkpt lat="44.62978" lon="4.38222">
        <ele>247.9</ele>
        <time>2022-06-10T13:26:24Z</time>
      </trkpt>
      <trkpt lat="44.62979" lon="4.38222">
        <ele>247.9</ele>
        <time>2022-06-10T13:26:25Z</time>
      </trkpt>
      <trkpt lat="44.62979" lon="4.38222">
        <ele>247.9</ele>
        <time>2022-06-10T13:26:26Z</time>
      </trkpt>
      <trkpt lat="44.62978" lon="4.38222">
        <ele>247.9</ele>
        <time>2022-06-10T13:26:28Z</time>
      </trkpt>
      <trkpt lat="44.62977" lon="4.38221">
        <ele>247.8</ele>
        <time>2022-06-10T13:26:29Z</time>
      </trkpt>
      <trkpt lat="44.62976" lon="4.38221">
        <ele>247.8</ele>
        <time>2022-06-10T13:26:30Z</time>
      </trkpt>
      <trkpt lat="44.62976" lon="4.38221">
        <ele>247.8</ele>
        <time>2022-06-10T13:26:31Z</time>
      </trkpt>
      <trkpt lat="44.62975" lon="4.38221">
        <ele>247.8</ele>
        <time>2022-06-10T13:26:32Z</time>
      </trkpt>
      <trkpt lat="44.62974" lon="4.38221">
        <ele>247.8</ele>
        <time>2022-06-10T13:26:33Z</time>
      </trkpt>
      <trkpt lat="44.62974" lon="4.3822">
        <ele>247.8</ele>
        <time>2022-06-10T13:27:18Z</time>
      </trkpt>
      <trkpt lat="44.62973" lon="4.3822">
        <ele>247.8</ele>
        <time>2022-06-10T13:27:19Z</time>
      </trkpt>
      <trkpt lat="44.62972" lon="4.3822">
        <ele>247.8</ele>
        <time>2022-06-10T13:27:20Z</time>
      </trkpt>
      <trkpt lat="44.6297" lon="4.38221">
        <ele>247.8</ele>
        <time>2022-06-10T13:27:21Z</time>
      </trkpt>
      <trkpt lat="44.62967" lon="4.38222">
        <ele>247.7</ele>
        <time>2022-06-10T13:27:22Z</time>
      </trkpt>
      <trkpt lat="44.62964" lon="4.38223">
        <ele>247.7</ele>
        <time>2022-06-10T13:27:23Z</time>
      </trkpt>
      <trkpt lat="44.6296" lon="4.38224">
        <ele>247.6</ele>
        <time>2022-06-10T13:27:24Z</time>
      </trkpt>
      <trkpt lat="44.62956" lon="4.38226">
        <ele>247.6</ele>
        <time>2022-06-10T13:27:25Z</time>
      </trkpt>
      <trkpt lat="44.62954" lon="4.38226">
        <ele>247.6</ele>
        <time>2022-06-10T13:27:26Z</time>
      </trkpt>
      <trkpt lat="44.62952" lon="4.38227">
        <ele>247.5</ele>
        <time>2022-06-10T13:27:27Z</time>
      </trkpt>
      <trkpt lat="44.62949" lon="4.38228">
        <ele>247.5</ele>
        <time>2022-06-10T13:27:28Z</time>
      </trkpt>
      <trkpt lat="44.62945" lon="4.38229">
        <ele>247.4</ele>
        <time>2022-06-10T13:27:29Z</time>
      </trkpt>
      <trkpt lat="44.62941" lon="4.3823">
        <ele>247.4</ele>
        <time>2022-06-10T13:27:30Z</time>
      </trkpt>
      <trkpt lat="44.62939" lon="4.3823">
        <ele>247.4</ele>
        <time>2022-06-10T13:27:31Z</time>
      </trkpt>
      <trkpt lat="44.62936" lon="4.38231">
        <ele>247.3</ele>
        <time>2022-06-10T13:27:32Z</time>
      </trkpt>
      <trkpt lat="44.62931" lon="4.38232">
        <ele>247.2</ele>
        <time>2022-06-10T13:27:33Z</time>
      </trkpt>
      <trkpt lat="44.62926" lon="4.38234">
        <ele>247.1</ele>
        <time>2022-06-10T13:27:34Z</time>
      </trkpt>
      <trkpt lat="44.62918" lon="4.38237">
        <ele>246.9</ele>
        <time>2022-06-10T13:27:35Z</time>
      </trkpt>
      <trkpt lat="44.62915" lon="4.38238">
        <ele>246.9</ele>
        <time>2022-06-10T13:27:36Z</time>
      </trkpt>
      <trkpt lat="44.62911" lon="4.38237">
        <ele>246.8</ele>
        <time>2022-06-10T13:27:37Z</time>
      </trkpt>
      <trkpt lat="44.62907" lon="4.38238">
        <ele>246.7</ele>
        <time>2022-06-10T13:27:38Z</time>
      </trkpt>
      <trkpt lat="44.62899" lon="4.38243">
        <ele>246.5</ele>
        <time>2022-06-10T13:27:39Z</time>
      </trkpt>
      <trkpt lat="44.62892" lon="4.38245">
        <ele>246.4</ele>
        <time>2022-06-10T13:27:40Z</time>
      </trkpt>
      <trkpt lat="44.62885" lon="4.38247">
        <ele>246.2</ele>
        <time>2022-06-10T13:27:41Z</time>
      </trkpt>
      <trkpt lat="44.62878" lon="4.38249">
        <ele>246.1</ele>
        <time>2022-06-10T13:27:42Z</time>
      </trkpt>
      <trkpt lat="44.62872" lon="4.38252">
        <ele>246</ele>
        <time>2022-06-10T13:27:43Z</time>
      </trkpt>
      <trkpt lat="44.62866" lon="4.38257">
        <ele>245.9</ele>
        <time>2022-06-10T13:27:44Z</time>
      </trkpt>
      <trkpt lat="44.62861" lon="4.3826">
        <ele>245.8</ele>
        <time>2022-06-10T13:27:45Z</time>
      </trkpt>
      <trkpt lat="44.62856" lon="4.38262">
        <ele>245.7</ele>
        <time>2022-06-10T13:27:46Z</time>
      </trkpt>
      <trkpt lat="44.62849" lon="4.38265">
        <ele>245.6</ele>
        <time>2022-06-10T13:27:47Z</time>
      </trkpt>
      <trkpt lat="44.62843" lon="4.38268">
        <ele>245.6</ele>
        <time>2022-06-10T13:27:48Z</time>
      </trkpt>
      <trkpt lat="44.62838" lon="4.38271">
        <ele>245.5</ele>
        <time>2022-06-10T13:27:49Z</time>
      </trkpt>
      <trkpt lat="44.62832" lon="4.38275">
        <ele>245.4</ele>
        <time>2022-06-10T13:27:50Z</time>
      </trkpt>
      <trkpt lat="44.62826" lon="4.38278">
        <ele>245.3</ele>
        <time>2022-06-10T13:27:51Z</time>
      </trkpt>
      <trkpt lat="44.6282" lon="4.38281">
        <ele>245.1</ele>
        <time>2022-06-10T13:27:52Z</time>
      </trkpt>
      <trkpt lat="44.62814" lon="4.38284">
        <ele>244.9</ele>
        <time>2022-06-10T13:27:53Z</time>
      </trkpt>
      <trkpt lat="44.62808" lon="4.38288">
        <ele>244.8</ele>
        <time>2022-06-10T13:27:54Z</time>
      </trkpt>
      <trkpt lat="44.62802" lon="4.38291">
        <ele>244.6</ele>
        <time>2022-06-10T13:27:55Z</time>
      </trkpt>
      <trkpt lat="44.62796" lon="4.38294">
        <ele>244.5</ele>
        <time>2022-06-10T13:27:56Z</time>
      </trkpt>
      <trkpt lat="44.6279" lon="4.38299">
        <ele>244.3</ele>
        <time>2022-06-10T13:27:57Z</time>
      </trkpt>
      <trkpt lat="44.62783" lon="4.38302">
        <ele>244.2</ele>
        <time>2022-06-10T13:27:58Z</time>
      </trkpt>
      <trkpt lat="44.62777" lon="4.38305">
        <ele>244.1</ele>
        <time>2022-06-10T13:27:59Z</time>
      </trkpt>
      <trkpt lat="44.6277" lon="4.38308">
        <ele>244</ele>
        <time>2022-06-10T13:28:00Z</time>
      </trkpt>
      <trkpt lat="44.62764" lon="4.38311">
        <ele>243.9</ele>
        <time>2022-06-10T13:28:01Z</time>
      </trkpt>
      <trkpt lat="44.62758" lon="4.38314">
        <ele>243.8</ele>
        <time>2022-06-10T13:28:02Z</time>
      </trkpt>
      <trkpt lat="44.62752" lon="4.38317">
        <ele>243.7</ele>
        <time>2022-06-10T13:28:03Z</time>
      </trkpt>
      <trkpt lat="44.62746" lon="4.3832">
        <ele>243.6</ele>
        <time>2022-06-10T13:28:04Z</time>
      </trkpt>
      <trkpt lat="44.6274" lon="4.38324">
        <ele>243.5</ele>
        <time>2022-06-10T13:28:05Z</time>
      </trkpt>
      <trkpt lat="44.62734" lon="4.38328">
        <ele>243.4</ele>
        <time>2022-06-10T13:28:06Z</time>
      </trkpt>
      <trkpt lat="44.62728" lon="4.38331">
        <ele>243.3</ele>
        <time>2022-06-10T13:28:07Z</time>
      </trkpt>
      <trkpt lat="44.62722" lon="4.38335">
        <ele>243.1</ele>
        <time>2022-06-10T13:28:08Z</time>
      </trkpt>
      <trkpt lat="44.62716" lon="4.38339">
        <ele>243</ele>
        <time>2022-06-10T13:28:09Z</time>
      </trkpt>
      <trkpt lat="44.62711" lon="4.38342">
        <ele>242.9</ele>
        <time>2022-06-10T13:28:10Z</time>
      </trkpt>
      <trkpt lat="44.62706" lon="4.38346">
        <ele>242.8</ele>
        <time>2022-06-10T13:28:11Z</time>
      </trkpt>
      <trkpt lat="44.62701" lon="4.3835">
        <ele>242.7</ele>
        <time>2022-06-10T13:28:12Z</time>
      </trkpt>
      <trkpt lat="44.62696" lon="4.38355">
        <ele>242.6</ele>
        <time>2022-06-10T13:28:13Z</time>
      </trkpt>
      <trkpt lat="44.62692" lon="4.38359">
        <ele>242.5</ele>
        <time>2022-06-10T13:28:14Z</time>
      </trkpt>
      <trkpt lat="44.62687" lon="4.38365">
        <ele>242.4</ele>
        <time>2022-06-10T13:28:15Z</time>
      </trkpt>
      <trkpt lat="44.62681" lon="4.3837">
        <ele>242.3</ele>
        <time>2022-06-10T13:28:16Z</time>
      </trkpt>
      <trkpt lat="44.62676" lon="4.38376">
        <ele>242.2</ele>
        <time>2022-06-10T13:28:17Z</time>
      </trkpt>
      <trkpt lat="44.62671" lon="4.38381">
        <ele>242.1</ele>
        <time>2022-06-10T13:28:18Z</time>
      </trkpt>
      <trkpt lat="44.62665" lon="4.38386">
        <ele>242</ele>
        <time>2022-06-10T13:28:19Z</time>
      </trkpt>
      <trkpt lat="44.62659" lon="4.38388">
        <ele>241.9</ele>
        <time>2022-06-10T13:28:20Z</time>
      </trkpt>
      <trkpt lat="44.62654" lon="4.38391">
        <ele>241.8</ele>
        <time>2022-06-10T13:28:21Z</time>
      </trkpt>
      <trkpt lat="44.62649" lon="4.38395">
        <ele>241.7</ele>
        <time>2022-06-10T13:28:22Z</time>
      </trkpt>
      <trkpt lat="44.62644" lon="4.384">
        <ele>241.6</ele>
        <time>2022-06-10T13:28:23Z</time>
      </trkpt>
      <trkpt lat="44.6264" lon="4.38405">
        <ele>241.6</ele>
        <time>2022-06-10T13:28:24Z</time>
      </trkpt>
      <trkpt lat="44.62635" lon="4.3841">
        <ele>241.5</ele>
        <time>2022-06-10T13:28:25Z</time>
      </trkpt>
      <trkpt lat="44.62629" lon="4.38415">
        <ele>241.4</ele>
        <time>2022-06-10T13:28:26Z</time>
      </trkpt>
      <trkpt lat="44.62625" lon="4.3842">
        <ele>241.3</ele>
        <time>2022-06-10T13:28:27Z</time>
      </trkpt>
      <trkpt lat="44.6262" lon="4.38425">
        <ele>241.2</ele>
        <time>2022-06-10T13:28:28Z</time>
      </trkpt>
      <trkpt lat="44.62613" lon="4.38429">
        <ele>241.1</ele>
        <time>2022-06-10T13:28:29Z</time>
      </trkpt>
      <trkpt lat="44.62608" lon="4.38433">
        <ele>241</ele>
        <time>2022-06-10T13:28:30Z</time>
      </trkpt>
      <trkpt lat="44.62602" lon="4.38438">
        <ele>241</ele>
        <time>2022-06-10T13:28:31Z</time>
      </trkpt>
      <trkpt lat="44.62596" lon="4.38442">
        <ele>240.9</ele>
        <time>2022-06-10T13:28:32Z</time>
      </trkpt>
      <trkpt lat="44.62591" lon="4.38447">
        <ele>240.8</ele>
        <time>2022-06-10T13:28:33Z</time>
      </trkpt>
      <trkpt lat="44.62586" lon="4.38452">
        <ele>240.6</ele>
        <time>2022-06-10T13:28:34Z</time>
      </trkpt>
      <trkpt lat="44.62581" lon="4.38457">
        <ele>240.5</ele>
        <time>2022-06-10T13:28:35Z</time>
      </trkpt>
      <trkpt lat="44.62576" lon="4.38462">
        <ele>240.3</ele>
        <time>2022-06-10T13:28:36Z</time>
      </trkpt>
      <trkpt lat="44.62572" lon="4.38468">
        <ele>240.2</ele>
        <time>2022-06-10T13:28:37Z</time>
      </trkpt>
      <trkpt lat="44.62567" lon="4.38475">
        <ele>240</ele>
        <time>2022-06-10T13:28:38Z</time>
      </trkpt>
      <trkpt lat="44.62562" lon="4.3848">
        <ele>239.9</ele>
        <time>2022-06-10T13:28:39Z</time>
      </trkpt>
      <trkpt lat="44.62558" lon="4.38484">
        <ele>239.8</ele>
        <time>2022-06-10T13:28:40Z</time>
      </trkpt>
      <trkpt lat="44.62555" lon="4.38488">
        <ele>239.8</ele>
        <time>2022-06-10T13:28:41Z</time>
      </trkpt>
      <trkpt lat="44.6255" lon="4.3849">
        <ele>239.7</ele>
        <time>2022-06-10T13:28:42Z</time>
      </trkpt>
      <trkpt lat="44.62548" lon="4.38491">
        <ele>239.7</ele>
        <time>2022-06-10T13:28:43Z</time>
      </trkpt>
      <trkpt lat="44.62544" lon="4.38492">
        <ele>239.6</ele>
        <time>2022-06-10T13:28:44Z</time>
      </trkpt>
      <trkpt lat="44.62541" lon="4.38494">
        <ele>239.6</ele>
        <time>2022-06-10T13:28:45Z</time>
      </trkpt>
      <trkpt lat="44.62538" lon="4.38496">
        <ele>239.5</ele>
        <time>2022-06-10T13:28:46Z</time>
      </trkpt>
      <trkpt lat="44.62535" lon="4.385">
        <ele>239.4</ele>
        <time>2022-06-10T13:28:47Z</time>
      </trkpt>
      <trkpt lat="44.62532" lon="4.38503">
        <ele>239.4</ele>
        <time>2022-06-10T13:28:48Z</time>
      </trkpt>
      <trkpt lat="44.62528" lon="4.38505">
        <ele>239.3</ele>
        <time>2022-06-10T13:28:49Z</time>
      </trkpt>
      <trkpt lat="44.62524" lon="4.38512">
        <ele>239.2</ele>
        <time>2022-06-10T13:28:50Z</time>
      </trkpt>
      <trkpt lat="44.62521" lon="4.38519">
        <ele>239.1</ele>
        <time>2022-06-10T13:28:52Z</time>
      </trkpt>
      <trkpt lat="44.62517" lon="4.38524">
        <ele>239</ele>
        <time>2022-06-10T13:28:53Z</time>
      </trkpt>
      <trkpt lat="44.62513" lon="4.38531">
        <ele>238.9</ele>
        <time>2022-06-10T13:28:54Z</time>
      </trkpt>
      <trkpt lat="44.62509" lon="4.38536">
        <ele>238.8</ele>
        <time>2022-06-10T13:28:55Z</time>
      </trkpt>
      <trkpt lat="44.62505" lon="4.38541">
        <ele>238.7</ele>
        <time>2022-06-10T13:28:56Z</time>
      </trkpt>
      <trkpt lat="44.62501" lon="4.38545">
        <ele>238.6</ele>
        <time>2022-06-10T13:28:57Z</time>
      </trkpt>
      <trkpt lat="44.62497" lon="4.38549">
        <ele>238.4</ele>
        <time>2022-06-10T13:28:58Z</time>
      </trkpt>
      <trkpt lat="44.62492" lon="4.38554">
        <ele>238.3</ele>
        <time>2022-06-10T13:28:59Z</time>
      </trkpt>
      <trkpt lat="44.62489" lon="4.38559">
        <ele>238.2</ele>
        <time>2022-06-10T13:29:00Z</time>
      </trkpt>
      <trkpt lat="44.62485" lon="4.38563">
        <ele>238</ele>
        <time>2022-06-10T13:29:01Z</time>
      </trkpt>
      <trkpt lat="44.62482" lon="4.38569">
        <ele>237.9</ele>
        <time>2022-06-10T13:29:02Z</time>
      </trkpt>
      <trkpt lat="44.62478" lon="4.38574">
        <ele>237.7</ele>
        <time>2022-06-10T13:29:03Z</time>
      </trkpt>
      <trkpt lat="44.62475" lon="4.38581">
        <ele>237.4</ele>
        <time>2022-06-10T13:29:04Z</time>
      </trkpt>
      <trkpt lat="44.62473" lon="4.38586">
        <ele>237.1</ele>
        <time>2022-06-10T13:29:05Z</time>
      </trkpt>
      <trkpt lat="44.6247" lon="4.38589">
        <ele>236.9</ele>
        <time>2022-06-10T13:29:06Z</time>
      </trkpt>
      <trkpt lat="44.62469" lon="4.3859">
        <ele>236.8</ele>
        <time>2022-06-10T13:29:07Z</time>
      </trkpt>
      <trkpt lat="44.62468" lon="4.38591">
        <ele>236.7</ele>
        <time>2022-06-10T13:29:08Z</time>
      </trkpt>
      <trkpt lat="44.62468" lon="4.38591">
        <ele>236.6</ele>
        <time>2022-06-10T13:29:09Z</time>
      </trkpt>
      <trkpt lat="44.62468" lon="4.38591">
        <ele>236.6</ele>
        <time>2022-06-10T13:29:10Z</time>
      </trkpt>
      <trkpt lat="44.62468" lon="4.38591">
        <ele>236.6</ele>
        <time>2022-06-10T13:29:11Z</time>
      </trkpt>
      <trkpt lat="44.62468" lon="4.38591">
        <ele>236.6</ele>
        <time>2022-06-10T13:29:12Z</time>
      </trkpt>
      <trkpt lat="44.62468" lon="4.38591">
        <ele>236.6</ele>
        <time>2022-06-10T13:29:13Z</time>
      </trkpt>
      <trkpt lat="44.62468" lon="4.38591">
        <ele>236.6</ele>
        <time>2022-06-10T13:29:14Z</time>
      </trkpt>
      <trkpt lat="44.62469" lon="4.38591">
        <ele>236.6</ele>
        <time>2022-06-10T13:29:15Z</time>
      </trkpt>
      <trkpt lat="44.62469" lon="4.38591">
        <ele>236.6</ele>
        <time>2022-06-10T13:29:16Z</time>
      </trkpt>
      <trkpt lat="44.62469" lon="4.38591">
        <ele>236.6</ele>
        <time>2022-06-10T13:29:17Z</time>
      </trkpt>
      <trkpt lat="44.62469" lon="4.38591">
        <ele>236.6</ele>
        <time>2022-06-10T13:29:18Z</time>
      </trkpt>
      <trkpt lat="44.62469" lon="4.38591">
        <ele>236.5</ele>
        <time>2022-06-10T13:29:19Z</time>
      </trkpt>
      <trkpt lat="44.62469" lon="4.38591">
        <ele>236.5</ele>
        <time>2022-06-10T13:29:20Z</time>
      </trkpt>
      <trkpt lat="44.62468" lon="4.38596">
        <ele>236.2</ele>
        <time>2022-06-10T13:33:07Z</time>
      </trkpt>
      <trkpt lat="44.62467" lon="4.386">
        <ele>236</ele>
        <time>2022-06-10T13:33:08Z</time>
      </trkpt>
      <trkpt lat="44.62466" lon="4.38604">
        <ele>235.7</ele>
        <time>2022-06-10T13:33:09Z</time>
      </trkpt>
      <trkpt lat="44.62465" lon="4.38608">
        <ele>235.4</ele>
        <time>2022-06-10T13:33:10Z</time>
      </trkpt>
      <trkpt lat="44.62465" lon="4.38612">
        <ele>235.2</ele>
        <time>2022-06-10T13:33:11Z</time>
      </trkpt>
      <trkpt lat="44.62466" lon="4.38618">
        <ele>234.8</ele>
        <time>2022-06-10T13:33:12Z</time>
      </trkpt>
      <trkpt lat="44.62466" lon="4.38623">
        <ele>234.4</ele>
        <time>2022-06-10T13:33:13Z</time>
      </trkpt>
      <trkpt lat="44.62469" lon="4.38632">
        <ele>233.8</ele>
        <time>2022-06-10T13:33:15Z</time>
      </trkpt>
      <trkpt lat="44.62476" lon="4.38641">
        <ele>233.1</ele>
        <time>2022-06-10T13:33:17Z</time>
      </trkpt>
      <trkpt lat="44.62481" lon="4.38646">
        <ele>232.7</ele>
        <time>2022-06-10T13:33:18Z</time>
      </trkpt>
      <trkpt lat="44.62485" lon="4.38649">
        <ele>232.4</ele>
        <time>2022-06-10T13:33:19Z</time>
      </trkpt>
      <trkpt lat="44.62491" lon="4.3865">
        <ele>232</ele>
        <time>2022-06-10T13:33:20Z</time>
      </trkpt>
      <trkpt lat="44.62498" lon="4.38651">
        <ele>231.7</ele>
        <time>2022-06-10T13:33:21Z</time>
      </trkpt>
      <trkpt lat="44.62503" lon="4.38652">
        <ele>231.4</ele>
        <time>2022-06-10T13:33:22Z</time>
      </trkpt>
      <trkpt lat="44.6251" lon="4.38649">
        <ele>231.1</ele>
        <time>2022-06-10T13:33:23Z</time>
      </trkpt>
      <trkpt lat="44.62517" lon="4.38647">
        <ele>230.8</ele>
        <time>2022-06-10T13:33:24Z</time>
      </trkpt>
      <trkpt lat="44.62523" lon="4.38647">
        <ele>230.5</ele>
        <time>2022-06-10T13:33:25Z</time>
      </trkpt>
      <trkpt lat="44.62529" lon="4.38649">
        <ele>230.2</ele>
        <time>2022-06-10T13:33:26Z</time>
      </trkpt>
      <trkpt lat="44.62535" lon="4.3865">
        <ele>229.9</ele>
        <time>2022-06-10T13:33:27Z</time>
      </trkpt>
      <trkpt lat="44.62541" lon="4.38651">
        <ele>229.6</ele>
        <time>2022-06-10T13:33:28Z</time>
      </trkpt>
      <trkpt lat="44.62547" lon="4.38651">
        <ele>229.3</ele>
        <time>2022-06-10T13:33:29Z</time>
      </trkpt>
      <trkpt lat="44.62554" lon="4.38651">
        <ele>229</ele>
        <time>2022-06-10T13:33:30Z</time>
      </trkpt>
      <trkpt lat="44.6256" lon="4.38652">
        <ele>228.8</ele>
        <time>2022-06-10T13:33:31Z</time>
      </trkpt>
      <trkpt lat="44.62566" lon="4.38653">
        <ele>228.6</ele>
        <time>2022-06-10T13:33:32Z</time>
      </trkpt>
      <trkpt lat="44.62573" lon="4.38654">
        <ele>228.4</ele>
        <time>2022-06-10T13:33:33Z</time>
      </trkpt>
      <trkpt lat="44.62579" lon="4.38658">
        <ele>228.2</ele>
        <time>2022-06-10T13:33:34Z</time>
      </trkpt>
      <trkpt lat="44.62585" lon="4.38663">
        <ele>228</ele>
        <time>2022-06-10T13:33:35Z</time>
      </trkpt>
      <trkpt lat="44.62591" lon="4.38667">
        <ele>227.9</ele>
        <time>2022-06-10T13:33:36Z</time>
      </trkpt>
      <trkpt lat="44.62597" lon="4.3867">
        <ele>227.8</ele>
        <time>2022-06-10T13:33:37Z</time>
      </trkpt>
      <trkpt lat="44.62602" lon="4.38673">
        <ele>227.7</ele>
        <time>2022-06-10T13:33:38Z</time>
      </trkpt>
      <trkpt lat="44.62608" lon="4.38676">
        <ele>227.6</ele>
        <time>2022-06-10T13:33:39Z</time>
      </trkpt>
      <trkpt lat="44.62614" lon="4.38679">
        <ele>227.5</ele>
        <time>2022-06-10T13:33:40Z</time>
      </trkpt>
      <trkpt lat="44.6262" lon="4.38682">
        <ele>227.4</ele>
        <time>2022-06-10T13:33:41Z</time>
      </trkpt>
      <trkpt lat="44.62625" lon="4.38686">
        <ele>227.3</ele>
        <time>2022-06-10T13:33:42Z</time>
      </trkpt>
      <trkpt lat="44.6263" lon="4.3869">
        <ele>227.2</ele>
        <time>2022-06-10T13:33:43Z</time>
      </trkpt>
      <trkpt lat="44.62636" lon="4.38692">
        <ele>227.2</ele>
        <time>2022-06-10T13:33:44Z</time>
      </trkpt>
      <trkpt lat="44.62641" lon="4.38695">
        <ele>227.1</ele>
        <time>2022-06-10T13:33:45Z</time>
      </trkpt>
      <trkpt lat="44.62647" lon="4.38699">
        <ele>227</ele>
        <time>2022-06-10T13:33:46Z</time>
      </trkpt>
      <trkpt lat="44.62652" lon="4.38702">
        <ele>227</ele>
        <time>2022-06-10T13:33:47Z</time>
      </trkpt>
      <trkpt lat="44.62657" lon="4.38706">
        <ele>227</ele>
        <time>2022-06-10T13:33:48Z</time>
      </trkpt>
      <trkpt lat="44.62663" lon="4.38709">
        <ele>226.9</ele>
        <time>2022-06-10T13:33:49Z</time>
      </trkpt>
      <trkpt lat="44.62668" lon="4.38711">
        <ele>226.9</ele>
        <time>2022-06-10T13:33:50Z</time>
      </trkpt>
      <trkpt lat="44.62674" lon="4.38712">
        <ele>226.9</ele>
        <time>2022-06-10T13:33:51Z</time>
      </trkpt>
      <trkpt lat="44.62679" lon="4.38713">
        <ele>226.9</ele>
        <time>2022-06-10T13:33:52Z</time>
      </trkpt>
      <trkpt lat="44.62685" lon="4.38714">
        <ele>226.9</ele>
        <time>2022-06-10T13:33:53Z</time>
      </trkpt>
      <trkpt lat="44.6269" lon="4.38716">
        <ele>226.9</ele>
        <time>2022-06-10T13:33:54Z</time>
      </trkpt>
      <trkpt lat="44.62696" lon="4.38717">
        <ele>226.9</ele>
        <time>2022-06-10T13:33:55Z</time>
      </trkpt>
      <trkpt lat="44.627" lon="4.38719">
        <ele>226.9</ele>
        <time>2022-06-10T13:33:56Z</time>
      </trkpt>
      <trkpt lat="44.62705" lon="4.38721">
        <ele>226.9</ele>
        <time>2022-06-10T13:33:57Z</time>
      </trkpt>
      <trkpt lat="44.6271" lon="4.38724">
        <ele>226.9</ele>
        <time>2022-06-10T13:33:58Z</time>
      </trkpt>
      <trkpt lat="44.62715" lon="4.38725">
        <ele>227</ele>
        <time>2022-06-10T13:33:59Z</time>
      </trkpt>
      <trkpt lat="44.6272" lon="4.38727">
        <ele>227</ele>
        <time>2022-06-10T13:34:00Z</time>
      </trkpt>
      <trkpt lat="44.62725" lon="4.3873">
        <ele>226.9</ele>
        <time>2022-06-10T13:34:01Z</time>
      </trkpt>
      <trkpt lat="44.62729" lon="4.38733">
        <ele>226.9</ele>
        <time>2022-06-10T13:34:02Z</time>
      </trkpt>
      <trkpt lat="44.62732" lon="4.38738">
        <ele>226.9</ele>
        <time>2022-06-10T13:34:03Z</time>
      </trkpt>
      <trkpt lat="44.62733" lon="4.38742">
        <ele>226.9</ele>
        <time>2022-06-10T13:34:04Z</time>
      </trkpt>
      <trkpt lat="44.62735" lon="4.38748">
        <ele>226.8</ele>
        <time>2022-06-10T13:34:05Z</time>
      </trkpt>
      <trkpt lat="44.62735" lon="4.38753">
        <ele>226.9</ele>
        <time>2022-06-10T13:34:06Z</time>
      </trkpt>
      <trkpt lat="44.62734" lon="4.38755">
        <ele>226.9</ele>
        <time>2022-06-10T13:34:07Z</time>
      </trkpt>
      <trkpt lat="44.62733" lon="4.3876">
        <ele>226.9</ele>
        <time>2022-06-10T13:34:08Z</time>
      </trkpt>
      <trkpt lat="44.6273" lon="4.38762">
        <ele>226.9</ele>
        <time>2022-06-10T13:34:09Z</time>
      </trkpt>
      <trkpt lat="44.62728" lon="4.38765">
        <ele>226.9</ele>
        <time>2022-06-10T13:34:10Z</time>
      </trkpt>
      <trkpt lat="44.62727" lon="4.38766">
        <ele>226.9</ele>
        <time>2022-06-10T13:34:11Z</time>
      </trkpt>
      <trkpt lat="44.62726" lon="4.38767">
        <ele>226.9</ele>
        <time>2022-06-10T13:34:12Z</time>
      </trkpt>
      <trkpt lat="44.62722" lon="4.38768">
        <ele>227</ele>
        <time>2022-06-10T13:34:13Z</time>
      </trkpt>
      <trkpt lat="44.6272" lon="4.38769">
        <ele>227</ele>
        <time>2022-06-10T13:34:14Z</time>
      </trkpt>
      <trkpt lat="44.62719" lon="4.38769">
        <ele>227</ele>
        <time>2022-06-10T13:34:15Z</time>
      </trkpt>
      <trkpt lat="44.62721" lon="4.38769">
        <ele>227</ele>
        <time>2022-06-10T13:34:16Z</time>
      </trkpt>
      <trkpt lat="44.62722" lon="4.38769">
        <ele>227</ele>
        <time>2022-06-10T13:34:17Z</time>
      </trkpt>
      <trkpt lat="44.62722" lon="4.38769">
        <ele>227</ele>
        <time>2022-06-10T13:34:18Z</time>
      </trkpt>
      <trkpt lat="44.62722" lon="4.38769">
        <ele>227</ele>
        <time>2022-06-10T13:34:19Z</time>
      </trkpt>
      <trkpt lat="44.62722" lon="4.38769">
        <ele>227</ele>
        <time>2022-06-10T13:34:20Z</time>
      </trkpt>
      <trkpt lat="44.62722" lon="4.38769">
        <ele>227</ele>
        <time>2022-06-10T13:34:21Z</time>
      </trkpt>
      <trkpt lat="44.62721" lon="4.3877">
        <ele>227</ele>
        <time>2022-06-10T13:34:22Z</time>
      </trkpt>
      <trkpt lat="44.6272" lon="4.38771">
        <ele>227</ele>
        <time>2022-06-10T13:34:23Z</time>
      </trkpt>
      <trkpt lat="44.62719" lon="4.38771">
        <ele>227</ele>
        <time>2022-06-10T13:34:24Z</time>
      </trkpt>
      <trkpt lat="44.62719" lon="4.38772">
        <ele>227</ele>
        <time>2022-06-10T13:34:25Z</time>
      </trkpt>
      <trkpt lat="44.62718" lon="4.38772">
        <ele>227</ele>
        <time>2022-06-10T13:34:26Z</time>
      </trkpt>
      <trkpt lat="44.62717" lon="4.38773">
        <ele>227</ele>
        <time>2022-06-10T13:34:27Z</time>
      </trkpt>
      <trkpt lat="44.62714" lon="4.38776">
        <ele>227.1</ele>
        <time>2022-06-10T13:34:28Z</time>
      </trkpt>
      <trkpt lat="44.62708" lon="4.38779">
        <ele>227.1</ele>
        <time>2022-06-10T13:34:29Z</time>
      </trkpt>
      <trkpt lat="44.62704" lon="4.38782">
        <ele>227.1</ele>
        <time>2022-06-10T13:34:31Z</time>
      </trkpt>
      <trkpt lat="44.627" lon="4.38786">
        <ele>227.2</ele>
        <time>2022-06-10T13:34:32Z</time>
      </trkpt>
      <trkpt lat="44.62695" lon="4.38789">
        <ele>227.1</ele>
        <time>2022-06-10T13:34:33Z</time>
      </trkpt>
      <trkpt lat="44.62681" lon="4.38795">
        <ele>227</ele>
        <time>2022-06-10T13:34:35Z</time>
      </trkpt>
      <trkpt lat="44.62678" lon="4.38798">
        <ele>227</ele>
        <time>2022-06-10T13:34:36Z</time>
      </trkpt>
      <trkpt lat="44.62674" lon="4.38802">
        <ele>226.9</ele>
        <time>2022-06-10T13:34:38Z</time>
      </trkpt>
      <trkpt lat="44.62675" lon="4.38807">
        <ele>226.9</ele>
        <time>2022-06-10T13:34:39Z</time>
      </trkpt>
      <trkpt lat="44.62681" lon="4.38806">
        <ele>226.9</ele>
        <time>2022-06-10T13:34:40Z</time>
      </trkpt>
      <trkpt lat="44.62689" lon="4.38802">
        <ele>227</ele>
        <time>2022-06-10T13:34:42Z</time>
      </trkpt>
      <trkpt lat="44.62695" lon="4.388">
        <ele>227.1</ele>
        <time>2022-06-10T13:34:44Z</time>
      </trkpt>
      <trkpt lat="44.62699" lon="4.38798">
        <ele>227.1</ele>
        <time>2022-06-10T13:34:45Z</time>
      </trkpt>
      <trkpt lat="44.62704" lon="4.38796">
        <ele>227.2</ele>
        <time>2022-06-10T13:34:46Z</time>
      </trkpt>
      <trkpt lat="44.62708" lon="4.38795">
        <ele>227.2</ele>
        <time>2022-06-10T13:34:47Z</time>
      </trkpt>
      <trkpt lat="44.62712" lon="4.38793">
        <ele>227.3</ele>
        <time>2022-06-10T13:34:48Z</time>
      </trkpt>
      <trkpt lat="44.62717" lon="4.38791">
        <ele>227.3</ele>
        <time>2022-06-10T13:34:50Z</time>
      </trkpt>
      <trkpt lat="44.62726" lon="4.38788">
        <ele>227.4</ele>
        <time>2022-06-10T13:34:52Z</time>
      </trkpt>
      <trkpt lat="44.62733" lon="4.38784">
        <ele>227.4</ele>
        <time>2022-06-10T13:34:53Z</time>
      </trkpt>
      <trkpt lat="44.62737" lon="4.38782">
        <ele>227.5</ele>
        <time>2022-06-10T13:34:55Z</time>
      </trkpt>
      <trkpt lat="44.62743" lon="4.3878">
        <ele>227.5</ele>
        <time>2022-06-10T13:34:56Z</time>
      </trkpt>
      <trkpt lat="44.62749" lon="4.38776">
        <ele>227.5</ele>
        <time>2022-06-10T13:34:58Z</time>
      </trkpt>
      <trkpt lat="44.62753" lon="4.38775">
        <ele>227.5</ele>
        <time>2022-06-10T13:34:59Z</time>
      </trkpt>
      <trkpt lat="44.62757" lon="4.38774">
        <ele>227.6</ele>
        <time>2022-06-10T13:35:00Z</time>
      </trkpt>
      <trkpt lat="44.62761" lon="4.38772">
        <ele>227.6</ele>
        <time>2022-06-10T13:35:01Z</time>
      </trkpt>
      <trkpt lat="44.62765" lon="4.3877">
        <ele>227.7</ele>
        <time>2022-06-10T13:35:02Z</time>
      </trkpt>
      <trkpt lat="44.62769" lon="4.38768">
        <ele>227.7</ele>
        <time>2022-06-10T13:35:03Z</time>
      </trkpt>
      <trkpt lat="44.62773" lon="4.38766">
        <ele>227.8</ele>
        <time>2022-06-10T13:35:04Z</time>
      </trkpt>
      <trkpt lat="44.62777" lon="4.38764">
        <ele>227.8</ele>
        <time>2022-06-10T13:35:05Z</time>
      </trkpt>
      <trkpt lat="44.62781" lon="4.38762">
        <ele>227.8</ele>
        <time>2022-06-10T13:35:06Z</time>
      </trkpt>
      <trkpt lat="44.62785" lon="4.3876">
        <ele>227.8</ele>
        <time>2022-06-10T13:35:07Z</time>
      </trkpt>
      <trkpt lat="44.62789" lon="4.38759">
        <ele>227.8</ele>
        <time>2022-06-10T13:35:08Z</time>
      </trkpt>
      <trkpt lat="44.62793" lon="4.38758">
        <ele>227.8</ele>
        <time>2022-06-10T13:35:09Z</time>
      </trkpt>
      <trkpt lat="44.62798" lon="4.38758">
        <ele>227.9</ele>
        <time>2022-06-10T13:35:10Z</time>
      </trkpt>
      <trkpt lat="44.62803" lon="4.38758">
        <ele>227.9</ele>
        <time>2022-06-10T13:35:11Z</time>
      </trkpt>
      <trkpt lat="44.62808" lon="4.38757">
        <ele>227.8</ele>
        <time>2022-06-10T13:35:12Z</time>
      </trkpt>
      <trkpt lat="44.62813" lon="4.38758">
        <ele>227.8</ele>
        <time>2022-06-10T13:35:14Z</time>
      </trkpt>
      <trkpt lat="44.6282" lon="4.38758">
        <ele>227.8</ele>
        <time>2022-06-10T13:35:15Z</time>
      </trkpt>
      <trkpt lat="44.62824" lon="4.38758">
        <ele>227.8</ele>
        <time>2022-06-10T13:35:16Z</time>
      </trkpt>
      <trkpt lat="44.6283" lon="4.38758">
        <ele>227.4</ele>
        <time>2022-06-10T13:35:18Z</time>
      </trkpt>
      <trkpt lat="44.62833" lon="4.38761">
        <ele>227.2</ele>
        <time>2022-06-10T13:35:19Z</time>
      </trkpt>
      <trkpt lat="44.62835" lon="4.38764">
        <ele>226.9</ele>
        <time>2022-06-10T13:35:20Z</time>
      </trkpt>
      <trkpt lat="44.62835" lon="4.3877">
        <ele>226.5</ele>
        <time>2022-06-10T13:35:21Z</time>
      </trkpt>
      <trkpt lat="44.62837" lon="4.38777">
        <ele>226</ele>
        <time>2022-06-10T13:35:22Z</time>
      </trkpt>
      <trkpt lat="44.62838" lon="4.3879">
        <ele>225.1</ele>
        <time>2022-06-10T13:35:24Z</time>
      </trkpt>
      <trkpt lat="44.6284" lon="4.38797">
        <ele>224.6</ele>
        <time>2022-06-10T13:35:25Z</time>
      </trkpt>
      <trkpt lat="44.62841" lon="4.38804">
        <ele>224.2</ele>
        <time>2022-06-10T13:35:26Z</time>
      </trkpt>
      <trkpt lat="44.6284" lon="4.38809">
        <ele>223.9</ele>
        <time>2022-06-10T13:35:27Z</time>
      </trkpt>
      <trkpt lat="44.62839" lon="4.38813">
        <ele>223.7</ele>
        <time>2022-06-10T13:35:28Z</time>
      </trkpt>
      <trkpt lat="44.62841" lon="4.38821">
        <ele>223.1</ele>
        <time>2022-06-10T13:35:29Z</time>
      </trkpt>
      <trkpt lat="44.62841" lon="4.38824">
        <ele>223</ele>
        <time>2022-06-10T13:35:31Z</time>
      </trkpt>
      <trkpt lat="44.6284" lon="4.38824">
        <ele>222.9</ele>
        <time>2022-06-10T13:35:32Z</time>
      </trkpt>
      <trkpt lat="44.62841" lon="4.38822">
        <ele>222.9</ele>
        <time>2022-06-10T13:35:33Z</time>
      </trkpt>
      <trkpt lat="44.62841" lon="4.38821">
        <ele>222.8</ele>
        <time>2022-06-10T13:35:34Z</time>
      </trkpt>
      <trkpt lat="44.62841" lon="4.38821">
        <ele>222.8</ele>
        <time>2022-06-10T13:35:35Z</time>
      </trkpt>
      <trkpt lat="44.62841" lon="4.38821">
        <ele>222.8</ele>
        <time>2022-06-10T13:35:36Z</time>
      </trkpt>
      <trkpt lat="44.62841" lon="4.3882">
        <ele>222.8</ele>
        <time>2022-06-10T13:35:37Z</time>
      </trkpt>
      <trkpt lat="44.62841" lon="4.3882">
        <ele>222.8</ele>
        <time>2022-06-10T13:35:38Z</time>
      </trkpt>
      <trkpt lat="44.6284" lon="4.3882">
        <ele>222.8</ele>
        <time>2022-06-10T13:35:39Z</time>
      </trkpt>
      <trkpt lat="44.6284" lon="4.38819">
        <ele>222.8</ele>
        <time>2022-06-10T13:35:40Z</time>
      </trkpt>
      <trkpt lat="44.6284" lon="4.38819">
        <ele>222.8</ele>
        <time>2022-06-10T13:35:41Z</time>
      </trkpt>
      <trkpt lat="44.62841" lon="4.3882">
        <ele>222.7</ele>
        <time>2022-06-10T13:35:42Z</time>
      </trkpt>
      <trkpt lat="44.62841" lon="4.3882">
        <ele>222.7</ele>
        <time>2022-06-10T13:35:43Z</time>
      </trkpt>
      <trkpt lat="44.62841" lon="4.38823">
        <ele>222.6</ele>
        <time>2022-06-10T13:35:44Z</time>
      </trkpt>
      <trkpt lat="44.6284" lon="4.38825">
        <ele>222.5</ele>
        <time>2022-06-10T13:35:46Z</time>
      </trkpt>
      <trkpt lat="44.62837" lon="4.38826">
        <ele>222.4</ele>
        <time>2022-06-10T13:35:47Z</time>
      </trkpt>
      <trkpt lat="44.62833" lon="4.38826">
        <ele>222.2</ele>
        <time>2022-06-10T13:35:48Z</time>
      </trkpt>
      <trkpt lat="44.62829" lon="4.38827">
        <ele>222</ele>
        <time>2022-06-10T13:35:49Z</time>
      </trkpt>
      <trkpt lat="44.62822" lon="4.38825">
        <ele>221.7</ele>
        <time>2022-06-10T13:35:50Z</time>
      </trkpt>
      <trkpt lat="44.62817" lon="4.38825">
        <ele>221.4</ele>
        <time>2022-06-10T13:35:51Z</time>
      </trkpt>
      <trkpt lat="44.62812" lon="4.38827">
        <ele>221.2</ele>
        <time>2022-06-10T13:35:52Z</time>
      </trkpt>
      <trkpt lat="44.62807" lon="4.38828">
        <ele>220.9</ele>
        <time>2022-06-10T13:35:54Z</time>
      </trkpt>
      <trkpt lat="44.62803" lon="4.38829">
        <ele>220.6</ele>
        <time>2022-06-10T13:35:55Z</time>
      </trkpt>
      <trkpt lat="44.62797" lon="4.38834">
        <ele>220.2</ele>
        <time>2022-06-10T13:35:56Z</time>
      </trkpt>
      <trkpt lat="44.62791" lon="4.38838">
        <ele>219.9</ele>
        <time>2022-06-10T13:35:57Z</time>
      </trkpt>
      <trkpt lat="44.62787" lon="4.38843">
        <ele>219.6</ele>
        <time>2022-06-10T13:35:58Z</time>
      </trkpt>
      <trkpt lat="44.62783" lon="4.38849">
        <ele>219.2</ele>
        <time>2022-06-10T13:35:59Z</time>
      </trkpt>
      <trkpt lat="44.62781" lon="4.38858">
        <ele>218.9</ele>
        <time>2022-06-10T13:36:00Z</time>
      </trkpt>
      <trkpt lat="44.6278" lon="4.38867">
        <ele>218.6</ele>
        <time>2022-06-10T13:36:01Z</time>
      </trkpt>
      <trkpt lat="44.6278" lon="4.38876">
        <ele>218.3</ele>
        <time>2022-06-10T13:36:02Z</time>
      </trkpt>
      <trkpt lat="44.62781" lon="4.38885">
        <ele>218.1</ele>
        <time>2022-06-10T13:36:03Z</time>
      </trkpt>
      <trkpt lat="44.62782" lon="4.38894">
        <ele>217.9</ele>
        <time>2022-06-10T13:36:04Z</time>
      </trkpt>
      <trkpt lat="44.62783" lon="4.38902">
        <ele>217.7</ele>
        <time>2022-06-10T13:36:05Z</time>
      </trkpt>
      <trkpt lat="44.62784" lon="4.3891">
        <ele>217.6</ele>
        <time>2022-06-10T13:36:06Z</time>
      </trkpt>
      <trkpt lat="44.62785" lon="4.38917">
        <ele>217.5</ele>
        <time>2022-06-10T13:36:07Z</time>
      </trkpt>
      <trkpt lat="44.62785" lon="4.38925">
        <ele>217.4</ele>
        <time>2022-06-10T13:36:08Z</time>
      </trkpt>
      <trkpt lat="44.62785" lon="4.38933">
        <ele>217.2</ele>
        <time>2022-06-10T13:36:09Z</time>
      </trkpt>
      <trkpt lat="44.62784" lon="4.38941">
        <ele>216.9</ele>
        <time>2022-06-10T13:36:10Z</time>
      </trkpt>
      <trkpt lat="44.62783" lon="4.3895">
        <ele>216.7</ele>
        <time>2022-06-10T13:36:11Z</time>
      </trkpt>
      <trkpt lat="44.62782" lon="4.38959">
        <ele>216.4</ele>
        <time>2022-06-10T13:36:12Z</time>
      </trkpt>
      <trkpt lat="44.62781" lon="4.38968">
        <ele>216.2</ele>
        <time>2022-06-10T13:36:13Z</time>
      </trkpt>
      <trkpt lat="44.62779" lon="4.38977">
        <ele>216</ele>
        <time>2022-06-10T13:36:14Z</time>
      </trkpt>
      <trkpt lat="44.62776" lon="4.38985">
        <ele>215.8</ele>
        <time>2022-06-10T13:36:15Z</time>
      </trkpt>
      <trkpt lat="44.62772" lon="4.38993">
        <ele>215.6</ele>
        <time>2022-06-10T13:36:16Z</time>
      </trkpt>
      <trkpt lat="44.62768" lon="4.39">
        <ele>215.5</ele>
        <time>2022-06-10T13:36:17Z</time>
      </trkpt>
      <trkpt lat="44.62764" lon="4.39007">
        <ele>215.4</ele>
        <time>2022-06-10T13:36:18Z</time>
      </trkpt>
      <trkpt lat="44.6276" lon="4.39015">
        <ele>215.3</ele>
        <time>2022-06-10T13:36:19Z</time>
      </trkpt>
      <trkpt lat="44.62757" lon="4.39022">
        <ele>215.2</ele>
        <time>2022-06-10T13:36:20Z</time>
      </trkpt>
      <trkpt lat="44.62753" lon="4.3903">
        <ele>215.1</ele>
        <time>2022-06-10T13:36:21Z</time>
      </trkpt>
      <trkpt lat="44.62749" lon="4.39037">
        <ele>215.1</ele>
        <time>2022-06-10T13:36:22Z</time>
      </trkpt>
      <trkpt lat="44.62745" lon="4.39045">
        <ele>215.1</ele>
        <time>2022-06-10T13:36:23Z</time>
      </trkpt>
      <trkpt lat="44.62741" lon="4.39051">
        <ele>215.1</ele>
        <time>2022-06-10T13:36:24Z</time>
      </trkpt>
      <trkpt lat="44.62738" lon="4.39058">
        <ele>215</ele>
        <time>2022-06-10T13:36:25Z</time>
      </trkpt>
      <trkpt lat="44.62734" lon="4.39065">
        <ele>215</ele>
        <time>2022-06-10T13:36:26Z</time>
      </trkpt>
      <trkpt lat="44.6273" lon="4.39072">
        <ele>215</ele>
        <time>2022-06-10T13:36:27Z</time>
      </trkpt>
      <trkpt lat="44.62727" lon="4.39078">
        <ele>215</ele>
        <time>2022-06-10T13:36:28Z</time>
      </trkpt>
      <trkpt lat="44.62723" lon="4.39084">
        <ele>215</ele>
        <time>2022-06-10T13:36:29Z</time>
      </trkpt>
      <trkpt lat="44.6272" lon="4.39091">
        <ele>214.9</ele>
        <time>2022-06-10T13:36:30Z</time>
      </trkpt>
      <trkpt lat="44.62716" lon="4.39099">
        <ele>214.9</ele>
        <time>2022-06-10T13:36:31Z</time>
      </trkpt>
      <trkpt lat="44.62713" lon="4.39106">
        <ele>214.8</ele>
        <time>2022-06-10T13:36:32Z</time>
      </trkpt>
      <trkpt lat="44.6271" lon="4.39113">
        <ele>214.8</ele>
        <time>2022-06-10T13:36:33Z</time>
      </trkpt>
      <trkpt lat="44.62707" lon="4.39119">
        <ele>214.7</ele>
        <time>2022-06-10T13:36:34Z</time>
      </trkpt>
      <trkpt lat="44.62703" lon="4.39126">
        <ele>214.7</ele>
        <time>2022-06-10T13:36:35Z</time>
      </trkpt>
      <trkpt lat="44.62699" lon="4.39133">
        <ele>214.7</ele>
        <time>2022-06-10T13:36:36Z</time>
      </trkpt>
      <trkpt lat="44.62696" lon="4.39141">
        <ele>214.6</ele>
        <time>2022-06-10T13:36:37Z</time>
      </trkpt>
      <trkpt lat="44.62692" lon="4.39148">
        <ele>214.6</ele>
        <time>2022-06-10T13:36:38Z</time>
      </trkpt>
      <trkpt lat="44.62689" lon="4.39155">
        <ele>214.5</ele>
        <time>2022-06-10T13:36:39Z</time>
      </trkpt>
      <trkpt lat="44.62686" lon="4.39163">
        <ele>214.5</ele>
        <time>2022-06-10T13:36:40Z</time>
      </trkpt>
      <trkpt lat="44.62682" lon="4.3917">
        <ele>214.4</ele>
        <time>2022-06-10T13:36:41Z</time>
      </trkpt>
      <trkpt lat="44.62679" lon="4.39177">
        <ele>214.4</ele>
        <time>2022-06-10T13:36:42Z</time>
      </trkpt>
      <trkpt lat="44.62676" lon="4.39184">
        <ele>214.4</ele>
        <time>2022-06-10T13:36:43Z</time>
      </trkpt>
      <trkpt lat="44.62673" lon="4.3919">
        <ele>214.4</ele>
        <time>2022-06-10T13:36:44Z</time>
      </trkpt>
      <trkpt lat="44.6267" lon="4.39196">
        <ele>214.3</ele>
        <time>2022-06-10T13:36:45Z</time>
      </trkpt>
      <trkpt lat="44.62668" lon="4.39203">
        <ele>214.3</ele>
        <time>2022-06-10T13:36:46Z</time>
      </trkpt>
      <trkpt lat="44.62665" lon="4.39209">
        <ele>214.3</ele>
        <time>2022-06-10T13:36:47Z</time>
      </trkpt>
      <trkpt lat="44.62662" lon="4.39215">
        <ele>214.2</ele>
        <time>2022-06-10T13:36:48Z</time>
      </trkpt>
      <trkpt lat="44.62659" lon="4.39221">
        <ele>214.3</ele>
        <time>2022-06-10T13:36:49Z</time>
      </trkpt>
      <trkpt lat="44.62656" lon="4.39228">
        <ele>214.3</ele>
        <time>2022-06-10T13:36:50Z</time>
      </trkpt>
      <trkpt lat="44.62653" lon="4.39233">
        <ele>214.3</ele>
        <time>2022-06-10T13:36:51Z</time>
      </trkpt>
      <trkpt lat="44.6265" lon="4.39239">
        <ele>214.3</ele>
        <time>2022-06-10T13:36:52Z</time>
      </trkpt>
      <trkpt lat="44.62648" lon="4.39245">
        <ele>214.4</ele>
        <time>2022-06-10T13:36:53Z</time>
      </trkpt>
      <trkpt lat="44.62646" lon="4.39251">
        <ele>214.4</ele>
        <time>2022-06-10T13:36:54Z</time>
      </trkpt>
      <trkpt lat="44.62643" lon="4.39257">
        <ele>214.4</ele>
        <time>2022-06-10T13:36:55Z</time>
      </trkpt>
      <trkpt lat="44.62639" lon="4.39263">
        <ele>214.5</ele>
        <time>2022-06-10T13:36:56Z</time>
      </trkpt>
      <trkpt lat="44.62636" lon="4.39269">
        <ele>214.5</ele>
        <time>2022-06-10T13:36:57Z</time>
      </trkpt>
      <trkpt lat="44.62634" lon="4.39275">
        <ele>214.5</ele>
        <time>2022-06-10T13:36:58Z</time>
      </trkpt>
      <trkpt lat="44.62631" lon="4.3928">
        <ele>214.5</ele>
        <time>2022-06-10T13:36:59Z</time>
      </trkpt>
      <trkpt lat="44.62628" lon="4.39286">
        <ele>214.5</ele>
        <time>2022-06-10T13:37:00Z</time>
      </trkpt>
      <trkpt lat="44.62627" lon="4.39289">
        <ele>214.5</ele>
        <time>2022-06-10T13:37:01Z</time>
      </trkpt>
      <trkpt lat="44.62623" lon="4.39295">
        <ele>214.5</ele>
        <time>2022-06-10T13:37:02Z</time>
      </trkpt>
      <trkpt lat="44.6262" lon="4.393">
        <ele>214.5</ele>
        <time>2022-06-10T13:37:03Z</time>
      </trkpt>
      <trkpt lat="44.62618" lon="4.39304">
        <ele>214.5</ele>
        <time>2022-06-10T13:37:04Z</time>
      </trkpt>
      <trkpt lat="44.62615" lon="4.39308">
        <ele>214.6</ele>
        <time>2022-06-10T13:37:05Z</time>
      </trkpt>
      <trkpt lat="44.62612" lon="4.39313">
        <ele>214.6</ele>
        <time>2022-06-10T13:37:06Z</time>
      </trkpt>
      <trkpt lat="44.6261" lon="4.39317">
        <ele>214.7</ele>
        <time>2022-06-10T13:37:07Z</time>
      </trkpt>
      <trkpt lat="44.62608" lon="4.39321">
        <ele>214.8</ele>
        <time>2022-06-10T13:37:08Z</time>
      </trkpt>
      <trkpt lat="44.62605" lon="4.39326">
        <ele>214.9</ele>
        <time>2022-06-10T13:37:09Z</time>
      </trkpt>
      <trkpt lat="44.62604" lon="4.39332">
        <ele>215</ele>
        <time>2022-06-10T13:37:11Z</time>
      </trkpt>
      <trkpt lat="44.62603" lon="4.39336">
        <ele>215.1</ele>
        <time>2022-06-10T13:37:12Z</time>
      </trkpt>
      <trkpt lat="44.626" lon="4.39341">
        <ele>215.2</ele>
        <time>2022-06-10T13:37:13Z</time>
      </trkpt>
      <trkpt lat="44.626" lon="4.39343">
        <ele>215.2</ele>
        <time>2022-06-10T13:37:14Z</time>
      </trkpt>
      <trkpt lat="44.62598" lon="4.39346">
        <ele>215.3</ele>
        <time>2022-06-10T13:37:16Z</time>
      </trkpt>
      <trkpt lat="44.62598" lon="4.39346">
        <ele>215.3</ele>
        <time>2022-06-10T13:37:17Z</time>
      </trkpt>
      <trkpt lat="44.62598" lon="4.39346">
        <ele>215.3</ele>
        <time>2022-06-10T13:37:18Z</time>
      </trkpt>
      <trkpt lat="44.62597" lon="4.39345">
        <ele>215.3</ele>
        <time>2022-06-10T13:37:19Z</time>
      </trkpt>
      <trkpt lat="44.62597" lon="4.39345">
        <ele>215.3</ele>
        <time>2022-06-10T13:37:20Z</time>
      </trkpt>
      <trkpt lat="44.62597" lon="4.39345">
        <ele>215.3</ele>
        <time>2022-06-10T13:37:21Z</time>
      </trkpt>
      <trkpt lat="44.62596" lon="4.39344">
        <ele>215.3</ele>
        <time>2022-06-10T13:37:22Z</time>
      </trkpt>
      <trkpt lat="44.62596" lon="4.39344">
        <ele>215.4</ele>
        <time>2022-06-10T13:37:23Z</time>
      </trkpt>
      <trkpt lat="44.62595" lon="4.39343">
        <ele>215.4</ele>
        <time>2022-06-10T13:37:24Z</time>
      </trkpt>
      <trkpt lat="44.62595" lon="4.39343">
        <ele>215.4</ele>
        <time>2022-06-10T13:37:25Z</time>
      </trkpt>
      <trkpt lat="44.62595" lon="4.39343">
        <ele>215.4</ele>
        <time>2022-06-10T13:37:26Z</time>
      </trkpt>
      <trkpt lat="44.62594" lon="4.39342">
        <ele>215.4</ele>
        <time>2022-06-10T13:37:27Z</time>
      </trkpt>
      <trkpt lat="44.62594" lon="4.39342">
        <ele>215.4</ele>
        <time>2022-06-10T13:37:59Z</time>
      </trkpt>
      <trkpt lat="44.62594" lon="4.39342">
        <ele>215.4</ele>
        <time>2022-06-10T13:38:00Z</time>
      </trkpt>
      <trkpt lat="44.62593" lon="4.39341">
        <ele>215.4</ele>
        <time>2022-06-10T13:38:01Z</time>
      </trkpt>
      <trkpt lat="44.62591" lon="4.3934">
        <ele>215.3</ele>
        <time>2022-06-10T13:38:02Z</time>
      </trkpt>
      <trkpt lat="44.6259" lon="4.39339">
        <ele>215.3</ele>
        <time>2022-06-10T13:38:03Z</time>
      </trkpt>
      <trkpt lat="44.62588" lon="4.39335">
        <ele>215.3</ele>
        <time>2022-06-10T13:38:04Z</time>
      </trkpt>
      <trkpt lat="44.62587" lon="4.39334">
        <ele>215.3</ele>
        <time>2022-06-10T13:38:05Z</time>
      </trkpt>
      <trkpt lat="44.62584" lon="4.39333">
        <ele>215.2</ele>
        <time>2022-06-10T13:38:06Z</time>
      </trkpt>
      <trkpt lat="44.62582" lon="4.39332">
        <ele>215.2</ele>
        <time>2022-06-10T13:38:07Z</time>
      </trkpt>
      <trkpt lat="44.62579" lon="4.39327">
        <ele>215.2</ele>
        <time>2022-06-10T13:38:08Z</time>
      </trkpt>
      <trkpt lat="44.62575" lon="4.39322">
        <ele>215.1</ele>
        <time>2022-06-10T13:38:09Z</time>
      </trkpt>
      <trkpt lat="44.62571" lon="4.39316">
        <ele>215.1</ele>
        <time>2022-06-10T13:38:10Z</time>
      </trkpt>
      <trkpt lat="44.62567" lon="4.39312">
        <ele>215</ele>
        <time>2022-06-10T13:38:11Z</time>
      </trkpt>
      <trkpt lat="44.62563" lon="4.39308">
        <ele>215</ele>
        <time>2022-06-10T13:38:12Z</time>
      </trkpt>
      <trkpt lat="44.62559" lon="4.39305">
        <ele>214.9</ele>
        <time>2022-06-10T13:38:13Z</time>
      </trkpt>
      <trkpt lat="44.62556" lon="4.39302">
        <ele>214.9</ele>
        <time>2022-06-10T13:38:14Z</time>
      </trkpt>
      <trkpt lat="44.62553" lon="4.39298">
        <ele>214.9</ele>
        <time>2022-06-10T13:38:15Z</time>
      </trkpt>
      <trkpt lat="44.62549" lon="4.39294">
        <ele>214.8</ele>
        <time>2022-06-10T13:38:16Z</time>
      </trkpt>
      <trkpt lat="44.62545" lon="4.3929">
        <ele>214.8</ele>
        <time>2022-06-10T13:38:17Z</time>
      </trkpt>
      <trkpt lat="44.62542" lon="4.39288">
        <ele>214.8</ele>
        <time>2022-06-10T13:38:18Z</time>
      </trkpt>
      <trkpt lat="44.62538" lon="4.39283">
        <ele>214.8</ele>
        <time>2022-06-10T13:38:19Z</time>
      </trkpt>
      <trkpt lat="44.62534" lon="4.3928">
        <ele>214.8</ele>
        <time>2022-06-10T13:38:20Z</time>
      </trkpt>
      <trkpt lat="44.62528" lon="4.39273">
        <ele>214.7</ele>
        <time>2022-06-10T13:38:21Z</time>
      </trkpt>
      <trkpt lat="44.62524" lon="4.39272">
        <ele>214.7</ele>
        <time>2022-06-10T13:38:23Z</time>
      </trkpt>
      <trkpt lat="44.6252" lon="4.39265">
        <ele>214.7</ele>
        <time>2022-06-10T13:38:24Z</time>
      </trkpt>
      <trkpt lat="44.62517" lon="4.3926">
        <ele>214.7</ele>
        <time>2022-06-10T13:38:25Z</time>
      </trkpt>
      <trkpt lat="44.62513" lon="4.39257">
        <ele>214.7</ele>
        <time>2022-06-10T13:38:26Z</time>
      </trkpt>
      <trkpt lat="44.6251" lon="4.39252">
        <ele>214.6</ele>
        <time>2022-06-10T13:38:27Z</time>
      </trkpt>
      <trkpt lat="44.62507" lon="4.3925">
        <ele>214.6</ele>
        <time>2022-06-10T13:38:28Z</time>
      </trkpt>
      <trkpt lat="44.62506" lon="4.39248">
        <ele>214.6</ele>
        <time>2022-06-10T13:38:29Z</time>
      </trkpt>
      <trkpt lat="44.62504" lon="4.39246">
        <ele>214.6</ele>
        <time>2022-06-10T13:38:30Z</time>
      </trkpt>
      <trkpt lat="44.62504" lon="4.39245">
        <ele>214.6</ele>
        <time>2022-06-10T13:38:31Z</time>
      </trkpt>
      <trkpt lat="44.62504" lon="4.39246">
        <ele>214.6</ele>
        <time>2022-06-10T13:38:32Z</time>
      </trkpt>
      <trkpt lat="44.62503" lon="4.39246">
        <ele>214.6</ele>
        <time>2022-06-10T13:38:33Z</time>
      </trkpt>
      <trkpt lat="44.62502" lon="4.39245">
        <ele>214.6</ele>
        <time>2022-06-10T13:38:34Z</time>
      </trkpt>
      <trkpt lat="44.62502" lon="4.39245">
        <ele>214.6</ele>
        <time>2022-06-10T13:38:35Z</time>
      </trkpt>
      <trkpt lat="44.62501" lon="4.39245">
        <ele>214.6</ele>
        <time>2022-06-10T13:38:36Z</time>
      </trkpt>
      <trkpt lat="44.625" lon="4.39244">
        <ele>214.6</ele>
        <time>2022-06-10T13:38:37Z</time>
      </trkpt>
      <trkpt lat="44.625" lon="4.39244">
        <ele>214.6</ele>
        <time>2022-06-10T13:38:39Z</time>
      </trkpt>
      <trkpt lat="44.62499" lon="4.39243">
        <ele>214.6</ele>
        <time>2022-06-10T13:38:40Z</time>
      </trkpt>
      <trkpt lat="44.62498" lon="4.39243">
        <ele>214.6</ele>
        <time>2022-06-10T13:38:42Z</time>
      </trkpt>
      <trkpt lat="44.62497" lon="4.39243">
        <ele>214.6</ele>
        <time>2022-06-10T13:38:43Z</time>
      </trkpt>
      <trkpt lat="44.62497" lon="4.39242">
        <ele>214.6</ele>
        <time>2022-06-10T13:38:45Z</time>
      </trkpt>
      <trkpt lat="44.62496" lon="4.39242">
        <ele>214.6</ele>
        <time>2022-06-10T13:42:46Z</time>
      </trkpt>
      <trkpt lat="44.62495" lon="4.39241">
        <ele>214.6</ele>
        <time>2022-06-10T13:42:47Z</time>
      </trkpt>
      <trkpt lat="44.62495" lon="4.39241">
        <ele>214.6</ele>
        <time>2022-06-10T13:42:48Z</time>
      </trkpt>
      <trkpt lat="44.62494" lon="4.39241">
        <ele>214.6</ele>
        <time>2022-06-10T13:42:49Z</time>
      </trkpt>
      <trkpt lat="44.62493" lon="4.3924">
        <ele>214.6</ele>
        <time>2022-06-10T13:42:50Z</time>
      </trkpt>
      <trkpt lat="44.62493" lon="4.3924">
        <ele>214.6</ele>
        <time>2022-06-10T13:42:51Z</time>
      </trkpt>
      <trkpt lat="44.62492" lon="4.39239">
        <ele>214.6</ele>
        <time>2022-06-10T13:42:52Z</time>
      </trkpt>
      <trkpt lat="44.62491" lon="4.39239">
        <ele>214.6</ele>
        <time>2022-06-10T13:42:53Z</time>
      </trkpt>
      <trkpt lat="44.62491" lon="4.39239">
        <ele>214.6</ele>
        <time>2022-06-10T13:42:54Z</time>
      </trkpt>
      <trkpt lat="44.6249" lon="4.39238">
        <ele>214.6</ele>
        <time>2022-06-10T13:42:55Z</time>
      </trkpt>
      <trkpt lat="44.62489" lon="4.39238">
        <ele>214.6</ele>
        <time>2022-06-10T13:42:56Z</time>
      </trkpt>
      <trkpt lat="44.62489" lon="4.39237">
        <ele>214.6</ele>
        <time>2022-06-10T13:42:57Z</time>
      </trkpt>
      <trkpt lat="44.62488" lon="4.39237">
        <ele>214.6</ele>
        <time>2022-06-10T13:43:08Z</time>
      </trkpt>
      <trkpt lat="44.62487" lon="4.39237">
        <ele>214.6</ele>
        <time>2022-06-10T13:43:09Z</time>
      </trkpt>
      <trkpt lat="44.62487" lon="4.39236">
        <ele>214.1</ele>
        <time>2022-06-10T13:43:10Z</time>
      </trkpt>
      <trkpt lat="44.62484" lon="4.39237">
        <ele>214</ele>
        <time>2022-06-10T13:43:12Z</time>
      </trkpt>
      <trkpt lat="44.62481" lon="4.39245">
        <ele>213.8</ele>
        <time>2022-06-10T13:43:13Z</time>
      </trkpt>
      <trkpt lat="44.62478" lon="4.39253">
        <ele>213.5</ele>
        <time>2022-06-10T13:43:14Z</time>
      </trkpt>
      <trkpt lat="44.62476" lon="4.39261">
        <ele>213.3</ele>
        <time>2022-06-10T13:43:16Z</time>
      </trkpt>
      <trkpt lat="44.62473" lon="4.39268">
        <ele>213.1</ele>
        <time>2022-06-10T13:43:17Z</time>
      </trkpt>
      <trkpt lat="44.62471" lon="4.39273">
        <ele>212.9</ele>
        <time>2022-06-10T13:43:18Z</time>
      </trkpt>
      <trkpt lat="44.62466" lon="4.39284">
        <ele>212.6</ele>
        <time>2022-06-10T13:43:19Z</time>
      </trkpt>
      <trkpt lat="44.62464" lon="4.3929">
        <ele>212.5</ele>
        <time>2022-06-10T13:43:21Z</time>
      </trkpt>
      <trkpt lat="44.62462" lon="4.39296">
        <ele>212.3</ele>
        <time>2022-06-10T13:43:22Z</time>
      </trkpt>
      <trkpt lat="44.62459" lon="4.39302">
        <ele>212.2</ele>
        <time>2022-06-10T13:43:23Z</time>
      </trkpt>
      <trkpt lat="44.62457" lon="4.39308">
        <ele>212</ele>
        <time>2022-06-10T13:43:24Z</time>
      </trkpt>
      <trkpt lat="44.62454" lon="4.39313">
        <ele>211.9</ele>
        <time>2022-06-10T13:43:25Z</time>
      </trkpt>
      <trkpt lat="44.62454" lon="4.39324">
        <ele>211.7</ele>
        <time>2022-06-10T13:43:26Z</time>
      </trkpt>
      <trkpt lat="44.62452" lon="4.39331">
        <ele>211.6</ele>
        <time>2022-06-10T13:43:27Z</time>
      </trkpt>
      <trkpt lat="44.6245" lon="4.39337">
        <ele>211.5</ele>
        <time>2022-06-10T13:43:28Z</time>
      </trkpt>
      <trkpt lat="44.62448" lon="4.39342">
        <ele>211.4</ele>
        <time>2022-06-10T13:43:29Z</time>
      </trkpt>
      <trkpt lat="44.62449" lon="4.39346">
        <ele>211.4</ele>
        <time>2022-06-10T13:43:30Z</time>
      </trkpt>
      <trkpt lat="44.62449" lon="4.39348">
        <ele>211.3</ele>
        <time>2022-06-10T13:43:31Z</time>
      </trkpt>
      <trkpt lat="44.62446" lon="4.39354">
        <ele>211.2</ele>
        <time>2022-06-10T13:43:32Z</time>
      </trkpt>
      <trkpt lat="44.62444" lon="4.39358">
        <ele>211.2</ele>
        <time>2022-06-10T13:43:33Z</time>
      </trkpt>
      <trkpt lat="44.6244" lon="4.39363">
        <ele>211.1</ele>
        <time>2022-06-10T13:43:34Z</time>
      </trkpt>
      <trkpt lat="44.62438" lon="4.39367">
        <ele>211</ele>
        <time>2022-06-10T13:43:35Z</time>
      </trkpt>
      <trkpt lat="44.62433" lon="4.39379">
        <ele>210.8</ele>
        <time>2022-06-10T13:43:36Z</time>
      </trkpt>
      <trkpt lat="44.62431" lon="4.39387">
        <ele>210.8</ele>
        <time>2022-06-10T13:43:38Z</time>
      </trkpt>
      <trkpt lat="44.62429" lon="4.39393">
        <ele>210.7</ele>
        <time>2022-06-10T13:43:39Z</time>
      </trkpt>
      <trkpt lat="44.62427" lon="4.39399">
        <ele>210.7</ele>
        <time>2022-06-10T13:43:40Z</time>
      </trkpt>
      <trkpt lat="44.62425" lon="4.39405">
        <ele>210.6</ele>
        <time>2022-06-10T13:43:41Z</time>
      </trkpt>
      <trkpt lat="44.62423" lon="4.39412">
        <ele>210.5</ele>
        <time>2022-06-10T13:43:42Z</time>
      </trkpt>
      <trkpt lat="44.62421" lon="4.39418">
        <ele>210.5</ele>
        <time>2022-06-10T13:43:43Z</time>
      </trkpt>
      <trkpt lat="44.62417" lon="4.39423">
        <ele>210.4</ele>
        <time>2022-06-10T13:43:44Z</time>
      </trkpt>
      <trkpt lat="44.62415" lon="4.39427">
        <ele>210.4</ele>
        <time>2022-06-10T13:43:45Z</time>
      </trkpt>
      <trkpt lat="44.62414" lon="4.39432">
        <ele>210.4</ele>
        <time>2022-06-10T13:43:46Z</time>
      </trkpt>
      <trkpt lat="44.62412" lon="4.39438">
        <ele>210.3</ele>
        <time>2022-06-10T13:43:47Z</time>
      </trkpt>
      <trkpt lat="44.62409" lon="4.39443">
        <ele>210.3</ele>
        <time>2022-06-10T13:43:48Z</time>
      </trkpt>
      <trkpt lat="44.62406" lon="4.39449">
        <ele>210.2</ele>
        <time>2022-06-10T13:43:49Z</time>
      </trkpt>
      <trkpt lat="44.62403" lon="4.39455">
        <ele>210.1</ele>
        <time>2022-06-10T13:43:50Z</time>
      </trkpt>
      <trkpt lat="44.62401" lon="4.39461">
        <ele>210.1</ele>
        <time>2022-06-10T13:43:52Z</time>
      </trkpt>
      <trkpt lat="44.62397" lon="4.39471">
        <ele>209.9</ele>
        <time>2022-06-10T13:43:53Z</time>
      </trkpt>
      <trkpt lat="44.62395" lon="4.39476">
        <ele>209.9</ele>
        <time>2022-06-10T13:43:54Z</time>
      </trkpt>
      <trkpt lat="44.62394" lon="4.39484">
        <ele>209.8</ele>
        <time>2022-06-10T13:43:56Z</time>
      </trkpt>
      <trkpt lat="44.62392" lon="4.3949">
        <ele>209.8</ele>
        <time>2022-06-10T13:43:57Z</time>
      </trkpt>
      <trkpt lat="44.6239" lon="4.39496">
        <ele>209.7</ele>
        <time>2022-06-10T13:43:58Z</time>
      </trkpt>
      <trkpt lat="44.62387" lon="4.39503">
        <ele>209.7</ele>
        <time>2022-06-10T13:43:59Z</time>
      </trkpt>
      <trkpt lat="44.62385" lon="4.39509">
        <ele>209.6</ele>
        <time>2022-06-10T13:44:00Z</time>
      </trkpt>
      <trkpt lat="44.62383" lon="4.39515">
        <ele>209.6</ele>
        <time>2022-06-10T13:44:01Z</time>
      </trkpt>
      <trkpt lat="44.62381" lon="4.39521">
        <ele>209.5</ele>
        <time>2022-06-10T13:44:02Z</time>
      </trkpt>
      <trkpt lat="44.62378" lon="4.39527">
        <ele>209.5</ele>
        <time>2022-06-10T13:44:03Z</time>
      </trkpt>
      <trkpt lat="44.62377" lon="4.39533">
        <ele>209.5</ele>
        <time>2022-06-10T13:44:04Z</time>
      </trkpt>
      <trkpt lat="44.62374" lon="4.3954">
        <ele>209.5</ele>
        <time>2022-06-10T13:44:05Z</time>
      </trkpt>
      <trkpt lat="44.62372" lon="4.39546">
        <ele>209.5</ele>
        <time>2022-06-10T13:44:06Z</time>
      </trkpt>
      <trkpt lat="44.6237" lon="4.39553">
        <ele>209.4</ele>
        <time>2022-06-10T13:44:07Z</time>
      </trkpt>
      <trkpt lat="44.62367" lon="4.39559">
        <ele>209.4</ele>
        <time>2022-06-10T13:44:08Z</time>
      </trkpt>
      <trkpt lat="44.62364" lon="4.39565">
        <ele>209.4</ele>
        <time>2022-06-10T13:44:09Z</time>
      </trkpt>
      <trkpt lat="44.62362" lon="4.39571">
        <ele>209.4</ele>
        <time>2022-06-10T13:44:10Z</time>
      </trkpt>
      <trkpt lat="44.6236" lon="4.39577">
        <ele>209.3</ele>
        <time>2022-06-10T13:44:11Z</time>
      </trkpt>
      <trkpt lat="44.62358" lon="4.39583">
        <ele>209.3</ele>
        <time>2022-06-10T13:44:12Z</time>
      </trkpt>
      <trkpt lat="44.62355" lon="4.3959">
        <ele>209.3</ele>
        <time>2022-06-10T13:44:13Z</time>
      </trkpt>
      <trkpt lat="44.62352" lon="4.39596">
        <ele>209.3</ele>
        <time>2022-06-10T13:44:14Z</time>
      </trkpt>
      <trkpt lat="44.62348" lon="4.39601">
        <ele>209.3</ele>
        <time>2022-06-10T13:44:15Z</time>
      </trkpt>
      <trkpt lat="44.62345" lon="4.39606">
        <ele>209.3</ele>
        <time>2022-06-10T13:44:16Z</time>
      </trkpt>
      <trkpt lat="44.62342" lon="4.39612">
        <ele>209.3</ele>
        <time>2022-06-10T13:44:17Z</time>
      </trkpt>
      <trkpt lat="44.62339" lon="4.39617">
        <ele>209.3</ele>
        <time>2022-06-10T13:44:18Z</time>
      </trkpt>
      <trkpt lat="44.62336" lon="4.39623">
        <ele>209.3</ele>
        <time>2022-06-10T13:44:19Z</time>
      </trkpt>
      <trkpt lat="44.62333" lon="4.39629">
        <ele>209.3</ele>
        <time>2022-06-10T13:44:20Z</time>
      </trkpt>
      <trkpt lat="44.62329" lon="4.39634">
        <ele>209.3</ele>
        <time>2022-06-10T13:44:21Z</time>
      </trkpt>
      <trkpt lat="44.62326" lon="4.39639">
        <ele>209.3</ele>
        <time>2022-06-10T13:44:22Z</time>
      </trkpt>
      <trkpt lat="44.62322" lon="4.39644">
        <ele>209.3</ele>
        <time>2022-06-10T13:44:23Z</time>
      </trkpt>
      <trkpt lat="44.6232" lon="4.39647">
        <ele>209.3</ele>
        <time>2022-06-10T13:44:24Z</time>
      </trkpt>
      <trkpt lat="44.62319" lon="4.39649">
        <ele>209.3</ele>
        <time>2022-06-10T13:44:25Z</time>
      </trkpt>
      <trkpt lat="44.62318" lon="4.39651">
        <ele>209.3</ele>
        <time>2022-06-10T13:44:26Z</time>
      </trkpt>
      <trkpt lat="44.62318" lon="4.39651">
        <ele>209.3</ele>
        <time>2022-06-10T13:44:27Z</time>
      </trkpt>
      <trkpt lat="44.62319" lon="4.39652">
        <ele>209.3</ele>
        <time>2022-06-10T13:44:28Z</time>
      </trkpt>
      <trkpt lat="44.62319" lon="4.39652">
        <ele>209.3</ele>
        <time>2022-06-10T13:44:29Z</time>
      </trkpt>
      <trkpt lat="44.62319" lon="4.39653">
        <ele>209.3</ele>
        <time>2022-06-10T13:44:30Z</time>
      </trkpt>
      <trkpt lat="44.6232" lon="4.39653">
        <ele>209.3</ele>
        <time>2022-06-10T13:44:31Z</time>
      </trkpt>
      <trkpt lat="44.6232" lon="4.39653">
        <ele>209.3</ele>
        <time>2022-06-10T13:44:32Z</time>
      </trkpt>
      <trkpt lat="44.6232" lon="4.39654">
        <ele>209.3</ele>
        <time>2022-06-10T13:44:33Z</time>
      </trkpt>
      <trkpt lat="44.6232" lon="4.39654">
        <ele>209.3</ele>
        <time>2022-06-10T13:44:34Z</time>
      </trkpt>
      <trkpt lat="44.62321" lon="4.39654">
        <ele>209.3</ele>
        <time>2022-06-10T13:44:35Z</time>
      </trkpt>
      <trkpt lat="44.62321" lon="4.39655">
        <ele>209.3</ele>
        <time>2022-06-10T13:44:36Z</time>
      </trkpt>
      <trkpt lat="44.62321" lon="4.39655">
        <ele>209.3</ele>
        <time>2022-06-10T13:44:37Z</time>
      </trkpt>
      <trkpt lat="44.62322" lon="4.39655">
        <ele>209.3</ele>
        <time>2022-06-10T13:44:38Z</time>
      </trkpt>
      <trkpt lat="44.62322" lon="4.39656">
        <ele>209.3</ele>
        <time>2022-06-10T13:47:02Z</time>
      </trkpt>
      <trkpt lat="44.62322" lon="4.39656">
        <ele>209.3</ele>
        <time>2022-06-10T13:47:03Z</time>
      </trkpt>
      <trkpt lat="44.62323" lon="4.39657">
        <ele>209.3</ele>
        <time>2022-06-10T13:47:04Z</time>
      </trkpt>
      <trkpt lat="44.62325" lon="4.39654">
        <ele>209.4</ele>
        <time>2022-06-10T13:47:05Z</time>
      </trkpt>
      <trkpt lat="44.62327" lon="4.39651">
        <ele>209.4</ele>
        <time>2022-06-10T13:47:06Z</time>
      </trkpt>
      <trkpt lat="44.62329" lon="4.39648">
        <ele>209.4</ele>
        <time>2022-06-10T13:47:07Z</time>
      </trkpt>
      <trkpt lat="44.62332" lon="4.39645">
        <ele>209.4</ele>
        <time>2022-06-10T13:47:08Z</time>
      </trkpt>
      <trkpt lat="44.62334" lon="4.39643">
        <ele>209.4</ele>
        <time>2022-06-10T13:47:09Z</time>
      </trkpt>
      <trkpt lat="44.62339" lon="4.39636">
        <ele>209.4</ele>
        <time>2022-06-10T13:47:10Z</time>
      </trkpt>
      <trkpt lat="44.62341" lon="4.39632">
        <ele>209.4</ele>
        <time>2022-06-10T13:47:11Z</time>
      </trkpt>
      <trkpt lat="44.62343" lon="4.39628">
        <ele>209.4</ele>
        <time>2022-06-10T13:47:13Z</time>
      </trkpt>
      <trkpt lat="44.62346" lon="4.39625">
        <ele>209.4</ele>
        <time>2022-06-10T13:47:14Z</time>
      </trkpt>
      <trkpt lat="44.62348" lon="4.39621">
        <ele>209.4</ele>
        <time>2022-06-10T13:47:15Z</time>
      </trkpt>
      <trkpt lat="44.62347" lon="4.39616">
        <ele>209.4</ele>
        <time>2022-06-10T13:47:16Z</time>
      </trkpt>
      <trkpt lat="44.62346" lon="4.39615">
        <ele>209.4</ele>
        <time>2022-06-10T13:47:17Z</time>
      </trkpt>
      <trkpt lat="44.6234" lon="4.39614">
        <ele>209.4</ele>
        <time>2022-06-10T13:47:18Z</time>
      </trkpt>
      <trkpt lat="44.62336" lon="4.39619">
        <ele>209.4</ele>
        <time>2022-06-10T13:47:20Z</time>
      </trkpt>
      <trkpt lat="44.62334" lon="4.39624">
        <ele>209.4</ele>
        <time>2022-06-10T13:47:21Z</time>
      </trkpt>
      <trkpt lat="44.62332" lon="4.39627">
        <ele>209.4</ele>
        <time>2022-06-10T13:47:22Z</time>
      </trkpt>
      <trkpt lat="44.6233" lon="4.39631">
        <ele>209.4</ele>
        <time>2022-06-10T13:47:23Z</time>
      </trkpt>
      <trkpt lat="44.62326" lon="4.39638">
        <ele>209.4</ele>
        <time>2022-06-10T13:47:24Z</time>
      </trkpt>
      <trkpt lat="44.62324" lon="4.39643">
        <ele>209.4</ele>
        <time>2022-06-10T13:47:26Z</time>
      </trkpt>
      <trkpt lat="44.62322" lon="4.39647">
        <ele>209.4</ele>
        <time>2022-06-10T13:47:27Z</time>
      </trkpt>
      <trkpt lat="44.62319" lon="4.39652">
        <ele>209.4</ele>
        <time>2022-06-10T13:47:28Z</time>
      </trkpt>
      <trkpt lat="44.62317" lon="4.39656">
        <ele>209.4</ele>
        <time>2022-06-10T13:47:29Z</time>
      </trkpt>
      <trkpt lat="44.62315" lon="4.39661">
        <ele>209.5</ele>
        <time>2022-06-10T13:47:30Z</time>
      </trkpt>
      <trkpt lat="44.62313" lon="4.39666">
        <ele>209.5</ele>
        <time>2022-06-10T13:47:31Z</time>
      </trkpt>
      <trkpt lat="44.62311" lon="4.3967">
        <ele>209.5</ele>
        <time>2022-06-10T13:47:32Z</time>
      </trkpt>
      <trkpt lat="44.62308" lon="4.39674">
        <ele>209.5</ele>
        <time>2022-06-10T13:47:33Z</time>
      </trkpt>
      <trkpt lat="44.62305" lon="4.39678">
        <ele>209.5</ele>
        <time>2022-06-10T13:47:34Z</time>
      </trkpt>
      <trkpt lat="44.62302" lon="4.39682">
        <ele>209.6</ele>
        <time>2022-06-10T13:47:35Z</time>
      </trkpt>
      <trkpt lat="44.623" lon="4.39686">
        <ele>209.6</ele>
        <time>2022-06-10T13:47:36Z</time>
      </trkpt>
      <trkpt lat="44.62297" lon="4.39689">
        <ele>209.6</ele>
        <time>2022-06-10T13:47:37Z</time>
      </trkpt>
      <trkpt lat="44.62291" lon="4.39696">
        <ele>209.7</ele>
        <time>2022-06-10T13:47:38Z</time>
      </trkpt>
      <trkpt lat="44.62288" lon="4.39702">
        <ele>209.7</ele>
        <time>2022-06-10T13:47:40Z</time>
      </trkpt>
      <trkpt lat="44.62284" lon="4.39711">
        <ele>209.8</ele>
        <time>2022-06-10T13:47:41Z</time>
      </trkpt>
      <trkpt lat="44.6228" lon="4.39715">
        <ele>209.8</ele>
        <time>2022-06-10T13:47:42Z</time>
      </trkpt>
      <trkpt lat="44.62278" lon="4.39721">
        <ele>209.8</ele>
        <time>2022-06-10T13:47:44Z</time>
      </trkpt>
      <trkpt lat="44.62276" lon="4.39725">
        <ele>209.8</ele>
        <time>2022-06-10T13:47:45Z</time>
      </trkpt>
      <trkpt lat="44.62274" lon="4.39731">
        <ele>209.9</ele>
        <time>2022-06-10T13:47:46Z</time>
      </trkpt>
      <trkpt lat="44.62273" lon="4.39736">
        <ele>209.9</ele>
        <time>2022-06-10T13:47:47Z</time>
      </trkpt>
      <trkpt lat="44.62271" lon="4.39741">
        <ele>209.9</ele>
        <time>2022-06-10T13:47:48Z</time>
      </trkpt>
      <trkpt lat="44.62269" lon="4.39746">
        <ele>209.9</ele>
        <time>2022-06-10T13:47:49Z</time>
      </trkpt>
      <trkpt lat="44.62267" lon="4.39752">
        <ele>209.9</ele>
        <time>2022-06-10T13:47:50Z</time>
      </trkpt>
      <trkpt lat="44.62261" lon="4.39761">
        <ele>209.9</ele>
        <time>2022-06-10T13:47:51Z</time>
      </trkpt>
      <trkpt lat="44.62258" lon="4.39769">
        <ele>210</ele>
        <time>2022-06-10T13:47:53Z</time>
      </trkpt>
      <trkpt lat="44.62256" lon="4.39775">
        <ele>210</ele>
        <time>2022-06-10T13:47:54Z</time>
      </trkpt>
      <trkpt lat="44.62253" lon="4.39781">
        <ele>210</ele>
        <time>2022-06-10T13:47:55Z</time>
      </trkpt>
      <trkpt lat="44.6225" lon="4.39786">
        <ele>210</ele>
        <time>2022-06-10T13:47:56Z</time>
      </trkpt>
      <trkpt lat="44.62248" lon="4.39792">
        <ele>210</ele>
        <time>2022-06-10T13:47:57Z</time>
      </trkpt>
      <trkpt lat="44.62245" lon="4.39797">
        <ele>210.1</ele>
        <time>2022-06-10T13:47:58Z</time>
      </trkpt>
      <trkpt lat="44.62243" lon="4.39803">
        <ele>210.1</ele>
        <time>2022-06-10T13:47:59Z</time>
      </trkpt>
      <trkpt lat="44.6224" lon="4.39808">
        <ele>210.1</ele>
        <time>2022-06-10T13:48:00Z</time>
      </trkpt>
      <trkpt lat="44.62238" lon="4.39814">
        <ele>210.1</ele>
        <time>2022-06-10T13:48:01Z</time>
      </trkpt>
      <trkpt lat="44.62235" lon="4.39819">
        <ele>210.2</ele>
        <time>2022-06-10T13:48:02Z</time>
      </trkpt>
      <trkpt lat="44.62232" lon="4.39825">
        <ele>210.2</ele>
        <time>2022-06-10T13:48:03Z</time>
      </trkpt>
      <trkpt lat="44.6223" lon="4.39831">
        <ele>210.2</ele>
        <time>2022-06-10T13:48:04Z</time>
      </trkpt>
      <trkpt lat="44.62227" lon="4.39836">
        <ele>210.2</ele>
        <time>2022-06-10T13:48:05Z</time>
      </trkpt>
      <trkpt lat="44.62226" lon="4.39845">
        <ele>210.3</ele>
        <time>2022-06-10T13:48:06Z</time>
      </trkpt>
      <trkpt lat="44.62222" lon="4.39851">
        <ele>210.3</ele>
        <time>2022-06-10T13:48:08Z</time>
      </trkpt>
      <trkpt lat="44.62218" lon="4.39858">
        <ele>210.4</ele>
        <time>2022-06-10T13:48:09Z</time>
      </trkpt>
      <trkpt lat="44.62215" lon="4.39863">
        <ele>210.4</ele>
        <time>2022-06-10T13:48:10Z</time>
      </trkpt>
      <trkpt lat="44.62212" lon="4.39869">
        <ele>210.5</ele>
        <time>2022-06-10T13:48:11Z</time>
      </trkpt>
      <trkpt lat="44.62209" lon="4.39876">
        <ele>210.5</ele>
        <time>2022-06-10T13:48:13Z</time>
      </trkpt>
      <trkpt lat="44.62206" lon="4.39882">
        <ele>210.6</ele>
        <time>2022-06-10T13:48:14Z</time>
      </trkpt>
      <trkpt lat="44.62203" lon="4.39888">
        <ele>210.6</ele>
        <time>2022-06-10T13:48:15Z</time>
      </trkpt>
      <trkpt lat="44.62201" lon="4.39893">
        <ele>210.6</ele>
        <time>2022-06-10T13:48:16Z</time>
      </trkpt>
      <trkpt lat="44.62199" lon="4.39898">
        <ele>210.6</ele>
        <time>2022-06-10T13:48:18Z</time>
      </trkpt>
      <trkpt lat="44.62197" lon="4.39902">
        <ele>210.7</ele>
        <time>2022-06-10T13:48:19Z</time>
      </trkpt>
      <trkpt lat="44.62195" lon="4.39906">
        <ele>210.7</ele>
        <time>2022-06-10T13:48:20Z</time>
      </trkpt>
      <trkpt lat="44.62192" lon="4.3991">
        <ele>210.7</ele>
        <time>2022-06-10T13:48:21Z</time>
      </trkpt>
      <trkpt lat="44.6219" lon="4.39914">
        <ele>210.7</ele>
        <time>2022-06-10T13:48:22Z</time>
      </trkpt>
      <trkpt lat="44.62188" lon="4.39919">
        <ele>210.6</ele>
        <time>2022-06-10T13:48:23Z</time>
      </trkpt>
      <trkpt lat="44.62184" lon="4.39928">
        <ele>210.7</ele>
        <time>2022-06-10T13:48:24Z</time>
      </trkpt>
      <trkpt lat="44.62182" lon="4.39932">
        <ele>210.7</ele>
        <time>2022-06-10T13:48:26Z</time>
      </trkpt>
      <trkpt lat="44.6218" lon="4.39936">
        <ele>210.7</ele>
        <time>2022-06-10T13:48:27Z</time>
      </trkpt>
      <trkpt lat="44.62177" lon="4.39941">
        <ele>210.8</ele>
        <time>2022-06-10T13:48:28Z</time>
      </trkpt>
      <trkpt lat="44.62175" lon="4.39946">
        <ele>210.8</ele>
        <time>2022-06-10T13:48:29Z</time>
      </trkpt>
      <trkpt lat="44.62172" lon="4.3995">
        <ele>210.9</ele>
        <time>2022-06-10T13:48:30Z</time>
      </trkpt>
      <trkpt lat="44.62169" lon="4.39954">
        <ele>210.9</ele>
        <time>2022-06-10T13:48:31Z</time>
      </trkpt>
      <trkpt lat="44.62166" lon="4.39957">
        <ele>211</ele>
        <time>2022-06-10T13:48:32Z</time>
      </trkpt>
      <trkpt lat="44.62163" lon="4.3996">
        <ele>211</ele>
        <time>2022-06-10T13:48:33Z</time>
      </trkpt>
      <trkpt lat="44.62161" lon="4.39963">
        <ele>211.1</ele>
        <time>2022-06-10T13:48:34Z</time>
      </trkpt>
      <trkpt lat="44.62158" lon="4.39965">
        <ele>211.1</ele>
        <time>2022-06-10T13:48:35Z</time>
      </trkpt>
      <trkpt lat="44.62152" lon="4.39969">
        <ele>211.3</ele>
        <time>2022-06-10T13:48:37Z</time>
      </trkpt>
      <trkpt lat="44.62149" lon="4.39972">
        <ele>211.4</ele>
        <time>2022-06-10T13:48:38Z</time>
      </trkpt>
      <trkpt lat="44.62147" lon="4.39973">
        <ele>211.5</ele>
        <time>2022-06-10T13:48:39Z</time>
      </trkpt>
      <trkpt lat="44.62143" lon="4.39975">
        <ele>211.6</ele>
        <time>2022-06-10T13:48:40Z</time>
      </trkpt>
      <trkpt lat="44.62142" lon="4.39975">
        <ele>211.6</ele>
        <time>2022-06-10T13:48:41Z</time>
      </trkpt>
      <trkpt lat="44.62139" lon="4.39977">
        <ele>211.8</ele>
        <time>2022-06-10T13:48:42Z</time>
      </trkpt>
      <trkpt lat="44.62137" lon="4.39977">
        <ele>211.8</ele>
        <time>2022-06-10T13:48:43Z</time>
      </trkpt>
      <trkpt lat="44.62133" lon="4.39979">
        <ele>212.2</ele>
        <time>2022-06-10T13:48:44Z</time>
      </trkpt>
      <trkpt lat="44.62131" lon="4.39981">
        <ele>212.3</ele>
        <time>2022-06-10T13:48:45Z</time>
      </trkpt>
      <trkpt lat="44.62127" lon="4.39982">
        <ele>212.7</ele>
        <time>2022-06-10T13:48:47Z</time>
      </trkpt>
      <trkpt lat="44.62124" lon="4.39981">
        <ele>213</ele>
        <time>2022-06-10T13:48:49Z</time>
      </trkpt>
      <trkpt lat="44.6212" lon="4.39981">
        <ele>213.4</ele>
        <time>2022-06-10T13:48:50Z</time>
      </trkpt>
      <trkpt lat="44.62119" lon="4.39982">
        <ele>213.6</ele>
        <time>2022-06-10T13:48:52Z</time>
      </trkpt>
      <trkpt lat="44.62117" lon="4.39984">
        <ele>213.8</ele>
        <time>2022-06-10T13:48:53Z</time>
      </trkpt>
      <trkpt lat="44.62116" lon="4.39985">
        <ele>214</ele>
        <time>2022-06-10T13:48:54Z</time>
      </trkpt>
      <trkpt lat="44.62115" lon="4.39985">
        <ele>214.2</ele>
        <time>2022-06-10T13:48:55Z</time>
      </trkpt>
      <trkpt lat="44.62113" lon="4.39987">
        <ele>214.5</ele>
        <time>2022-06-10T13:48:56Z</time>
      </trkpt>
      <trkpt lat="44.62112" lon="4.39988">
        <ele>214.7</ele>
        <time>2022-06-10T13:48:57Z</time>
      </trkpt>
      <trkpt lat="44.62112" lon="4.39989">
        <ele>214.8</ele>
        <time>2022-06-10T13:48:58Z</time>
      </trkpt>
      <trkpt lat="44.62112" lon="4.39991">
        <ele>214.9</ele>
        <time>2022-06-10T13:48:59Z</time>
      </trkpt>
      <trkpt lat="44.62112" lon="4.39993">
        <ele>215.2</ele>
        <time>2022-06-10T13:49:00Z</time>
      </trkpt>
      <trkpt lat="44.62112" lon="4.39995">
        <ele>215.3</ele>
        <time>2022-06-10T13:49:01Z</time>
      </trkpt>
      <trkpt lat="44.62112" lon="4.39997">
        <ele>215.6</ele>
        <time>2022-06-10T13:49:02Z</time>
      </trkpt>
      <trkpt lat="44.62113" lon="4.40001">
        <ele>216</ele>
        <time>2022-06-10T13:49:03Z</time>
      </trkpt>
      <trkpt lat="44.62113" lon="4.40002">
        <ele>216.1</ele>
        <time>2022-06-10T13:49:04Z</time>
      </trkpt>
      <trkpt lat="44.62112" lon="4.40006">
        <ele>216.6</ele>
        <time>2022-06-10T13:49:06Z</time>
      </trkpt>
      <trkpt lat="44.62112" lon="4.40007">
        <ele>216.7</ele>
        <time>2022-06-10T13:49:07Z</time>
      </trkpt>
      <trkpt lat="44.62112" lon="4.40008">
        <ele>216.8</ele>
        <time>2022-06-10T13:49:08Z</time>
      </trkpt>
      <trkpt lat="44.62112" lon="4.40008">
        <ele>216.9</ele>
        <time>2022-06-10T13:49:09Z</time>
      </trkpt>
      <trkpt lat="44.62112" lon="4.40008">
        <ele>216.9</ele>
        <time>2022-06-10T13:49:10Z</time>
      </trkpt>
      <trkpt lat="44.62112" lon="4.40008">
        <ele>216.9</ele>
        <time>2022-06-10T13:49:11Z</time>
      </trkpt>
      <trkpt lat="44.62112" lon="4.40008">
        <ele>216.9</ele>
        <time>2022-06-10T13:49:12Z</time>
      </trkpt>
      <trkpt lat="44.62112" lon="4.40008">
        <ele>216.9</ele>
        <time>2022-06-10T13:49:13Z</time>
      </trkpt>
      <trkpt lat="44.62112" lon="4.40008">
        <ele>216.9</ele>
        <time>2022-06-10T13:49:14Z</time>
      </trkpt>
      <trkpt lat="44.62112" lon="4.40008">
        <ele>216.9</ele>
        <time>2022-06-10T13:49:15Z</time>
      </trkpt>
      <trkpt lat="44.62112" lon="4.40008">
        <ele>217</ele>
        <time>2022-06-10T13:49:16Z</time>
      </trkpt>
      <trkpt lat="44.62112" lon="4.40008">
        <ele>217</ele>
        <time>2022-06-10T13:49:17Z</time>
      </trkpt>
      <trkpt lat="44.62112" lon="4.40009">
        <ele>217.1</ele>
        <time>2022-06-10T13:49:18Z</time>
      </trkpt>
      <trkpt lat="44.62111" lon="4.4001">
        <ele>217.2</ele>
        <time>2022-06-10T13:49:20Z</time>
      </trkpt>
      <trkpt lat="44.62111" lon="4.40011">
        <ele>217.4</ele>
        <time>2022-06-10T13:49:21Z</time>
      </trkpt>
      <trkpt lat="44.62111" lon="4.40015">
        <ele>217.8</ele>
        <time>2022-06-10T13:49:22Z</time>
      </trkpt>
      <trkpt lat="44.6211" lon="4.40017">
        <ele>218</ele>
        <time>2022-06-10T13:49:23Z</time>
      </trkpt>
      <trkpt lat="44.6211" lon="4.40019">
        <ele>218.2</ele>
        <time>2022-06-10T13:49:25Z</time>
      </trkpt>
      <trkpt lat="44.62109" lon="4.40021">
        <ele>218.5</ele>
        <time>2022-06-10T13:49:26Z</time>
      </trkpt>
      <trkpt lat="44.62108" lon="4.40022">
        <ele>218.7</ele>
        <time>2022-06-10T13:49:27Z</time>
      </trkpt>
      <trkpt lat="44.62108" lon="4.40023">
        <ele>218.8</ele>
        <time>2022-06-10T13:49:28Z</time>
      </trkpt>
      <trkpt lat="44.62108" lon="4.40025">
        <ele>219</ele>
        <time>2022-06-10T13:49:29Z</time>
      </trkpt>
      <trkpt lat="44.62107" lon="4.40028">
        <ele>219.3</ele>
        <time>2022-06-10T13:49:30Z</time>
      </trkpt>
      <trkpt lat="44.62107" lon="4.40029">
        <ele>219.5</ele>
        <time>2022-06-10T13:49:31Z</time>
      </trkpt>
      <trkpt lat="44.62106" lon="4.4003">
        <ele>219.7</ele>
        <time>2022-06-10T13:49:32Z</time>
      </trkpt>
      <trkpt lat="44.62106" lon="4.40032">
        <ele>219.9</ele>
        <time>2022-06-10T13:49:33Z</time>
      </trkpt>
      <trkpt lat="44.62105" lon="4.40034">
        <ele>220.1</ele>
        <time>2022-06-10T13:49:34Z</time>
      </trkpt>
      <trkpt lat="44.62105" lon="4.40036">
        <ele>220.3</ele>
        <time>2022-06-10T13:49:35Z</time>
      </trkpt>
      <trkpt lat="44.62105" lon="4.40038">
        <ele>220.6</ele>
        <time>2022-06-10T13:49:36Z</time>
      </trkpt>
      <trkpt lat="44.62104" lon="4.40041">
        <ele>220.9</ele>
        <time>2022-06-10T13:49:37Z</time>
      </trkpt>
      <trkpt lat="44.62104" lon="4.40042">
        <ele>221</ele>
        <time>2022-06-10T13:49:38Z</time>
      </trkpt>
      <trkpt lat="44.62104" lon="4.40043">
        <ele>221.1</ele>
        <time>2022-06-10T13:49:39Z</time>
      </trkpt>
      <trkpt lat="44.62103" lon="4.40046">
        <ele>221.4</ele>
        <time>2022-06-10T13:49:40Z</time>
      </trkpt>
      <trkpt lat="44.62103" lon="4.40048">
        <ele>221.6</ele>
        <time>2022-06-10T13:49:41Z</time>
      </trkpt>
      <trkpt lat="44.62103" lon="4.40049">
        <ele>221.7</ele>
        <time>2022-06-10T13:49:42Z</time>
      </trkpt>
      <trkpt lat="44.62103" lon="4.40052">
        <ele>222</ele>
        <time>2022-06-10T13:49:43Z</time>
      </trkpt>
      <trkpt lat="44.62103" lon="4.40053">
        <ele>222.1</ele>
        <time>2022-06-10T13:49:44Z</time>
      </trkpt>
      <trkpt lat="44.62103" lon="4.40054">
        <ele>222.2</ele>
        <time>2022-06-10T13:49:45Z</time>
      </trkpt>
      <trkpt lat="44.62103" lon="4.40055">
        <ele>222.3</ele>
        <time>2022-06-10T13:49:46Z</time>
      </trkpt>
      <trkpt lat="44.62103" lon="4.40056">
        <ele>222.5</ele>
        <time>2022-06-10T13:49:47Z</time>
      </trkpt>
      <trkpt lat="44.62103" lon="4.40058">
        <ele>222.6</ele>
        <time>2022-06-10T13:49:48Z</time>
      </trkpt>
      <trkpt lat="44.62104" lon="4.40061">
        <ele>223</ele>
        <time>2022-06-10T13:49:49Z</time>
      </trkpt>
      <trkpt lat="44.62105" lon="4.40062">
        <ele>223.1</ele>
        <time>2022-06-10T13:49:50Z</time>
      </trkpt>
      <trkpt lat="44.62105" lon="4.40064">
        <ele>223.3</ele>
        <time>2022-06-10T13:49:51Z</time>
      </trkpt>
      <trkpt lat="44.62107" lon="4.40066">
        <ele>223.6</ele>
        <time>2022-06-10T13:49:53Z</time>
      </trkpt>
      <trkpt lat="44.62107" lon="4.40067">
        <ele>223.7</ele>
        <time>2022-06-10T13:49:54Z</time>
      </trkpt>
      <trkpt lat="44.62108" lon="4.40069">
        <ele>224</ele>
        <time>2022-06-10T13:49:55Z</time>
      </trkpt>
      <trkpt lat="44.6211" lon="4.40071">
        <ele>224.3</ele>
        <time>2022-06-10T13:49:57Z</time>
      </trkpt>
      <trkpt lat="44.62111" lon="4.40073">
        <ele>224.5</ele>
        <time>2022-06-10T13:49:58Z</time>
      </trkpt>
      <trkpt lat="44.62113" lon="4.40074">
        <ele>224.7</ele>
        <time>2022-06-10T13:49:59Z</time>
      </trkpt>
      <trkpt lat="44.62114" lon="4.40075">
        <ele>225</ele>
        <time>2022-06-10T13:50:00Z</time>
      </trkpt>
      <trkpt lat="44.62115" lon="4.40076">
        <ele>225.1</ele>
        <time>2022-06-10T13:50:01Z</time>
      </trkpt>
      <trkpt lat="44.62116" lon="4.40078">
        <ele>225.3</ele>
        <time>2022-06-10T13:50:02Z</time>
      </trkpt>
      <trkpt lat="44.62117" lon="4.40079">
        <ele>225.4</ele>
        <time>2022-06-10T13:50:03Z</time>
      </trkpt>
      <trkpt lat="44.62118" lon="4.40081">
        <ele>225.6</ele>
        <time>2022-06-10T13:50:04Z</time>
      </trkpt>
      <trkpt lat="44.6212" lon="4.40084">
        <ele>226</ele>
        <time>2022-06-10T13:50:05Z</time>
      </trkpt>
      <trkpt lat="44.62121" lon="4.40086">
        <ele>226.1</ele>
        <time>2022-06-10T13:50:06Z</time>
      </trkpt>
      <trkpt lat="44.62122" lon="4.40088">
        <ele>226.4</ele>
        <time>2022-06-10T13:50:08Z</time>
      </trkpt>
      <trkpt lat="44.62122" lon="4.4009">
        <ele>226.6</ele>
        <time>2022-06-10T13:50:09Z</time>
      </trkpt>
      <trkpt lat="44.62122" lon="4.40093">
        <ele>226.8</ele>
        <time>2022-06-10T13:50:10Z</time>
      </trkpt>
      <trkpt lat="44.62123" lon="4.40097">
        <ele>227.1</ele>
        <time>2022-06-10T13:50:12Z</time>
      </trkpt>
      <trkpt lat="44.62124" lon="4.401">
        <ele>227.3</ele>
        <time>2022-06-10T13:50:13Z</time>
      </trkpt>
      <trkpt lat="44.62125" lon="4.40102">
        <ele>227.5</ele>
        <time>2022-06-10T13:50:14Z</time>
      </trkpt>
      <trkpt lat="44.62125" lon="4.40104">
        <ele>227.7</ele>
        <time>2022-06-10T13:50:15Z</time>
      </trkpt>
      <trkpt lat="44.62126" lon="4.40106">
        <ele>227.9</ele>
        <time>2022-06-10T13:50:16Z</time>
      </trkpt>
      <trkpt lat="44.62126" lon="4.40108">
        <ele>228.1</ele>
        <time>2022-06-10T13:50:17Z</time>
      </trkpt>
      <trkpt lat="44.62126" lon="4.4011">
        <ele>228.2</ele>
        <time>2022-06-10T13:50:18Z</time>
      </trkpt>
      <trkpt lat="44.62127" lon="4.40112">
        <ele>228.4</ele>
        <time>2022-06-10T13:50:19Z</time>
      </trkpt>
      <trkpt lat="44.62128" lon="4.40115">
        <ele>228.7</ele>
        <time>2022-06-10T13:50:21Z</time>
      </trkpt>
      <trkpt lat="44.62129" lon="4.40119">
        <ele>228.9</ele>
        <time>2022-06-10T13:50:23Z</time>
      </trkpt>
      <trkpt lat="44.62129" lon="4.40121">
        <ele>229.1</ele>
        <time>2022-06-10T13:50:25Z</time>
      </trkpt>
      <trkpt lat="44.62129" lon="4.40122">
        <ele>229.2</ele>
        <time>2022-06-10T13:50:26Z</time>
      </trkpt>
      <trkpt lat="44.62129" lon="4.40123">
        <ele>229.2</ele>
        <time>2022-06-10T13:50:27Z</time>
      </trkpt>
      <trkpt lat="44.6213" lon="4.40125">
        <ele>229.3</ele>
        <time>2022-06-10T13:50:28Z</time>
      </trkpt>
      <trkpt lat="44.62131" lon="4.40127">
        <ele>229.4</ele>
        <time>2022-06-10T13:50:29Z</time>
      </trkpt>
      <trkpt lat="44.62132" lon="4.40128">
        <ele>229.5</ele>
        <time>2022-06-10T13:50:30Z</time>
      </trkpt>
      <trkpt lat="44.62133" lon="4.40131">
        <ele>229.7</ele>
        <time>2022-06-10T13:50:31Z</time>
      </trkpt>
      <trkpt lat="44.62134" lon="4.40133">
        <ele>229.8</ele>
        <time>2022-06-10T13:50:33Z</time>
      </trkpt>
      <trkpt lat="44.62135" lon="4.40135">
        <ele>230</ele>
        <time>2022-06-10T13:50:34Z</time>
      </trkpt>
      <trkpt lat="44.62136" lon="4.40136">
        <ele>230.1</ele>
        <time>2022-06-10T13:50:35Z</time>
      </trkpt>
      <trkpt lat="44.62138" lon="4.40139">
        <ele>230.3</ele>
        <time>2022-06-10T13:50:36Z</time>
      </trkpt>
      <trkpt lat="44.62139" lon="4.4014">
        <ele>230.3</ele>
        <time>2022-06-10T13:50:37Z</time>
      </trkpt>
      <trkpt lat="44.6214" lon="4.40143">
        <ele>230.4</ele>
        <time>2022-06-10T13:50:38Z</time>
      </trkpt>
      <trkpt lat="44.62141" lon="4.40145">
        <ele>230.5</ele>
        <time>2022-06-10T13:50:39Z</time>
      </trkpt>
      <trkpt lat="44.62142" lon="4.40148">
        <ele>230.6</ele>
        <time>2022-06-10T13:50:40Z</time>
      </trkpt>
      <trkpt lat="44.62143" lon="4.40149">
        <ele>230.7</ele>
        <time>2022-06-10T13:50:41Z</time>
      </trkpt>
      <trkpt lat="44.62144" lon="4.40152">
        <ele>230.8</ele>
        <time>2022-06-10T13:50:42Z</time>
      </trkpt>
      <trkpt lat="44.62145" lon="4.40153">
        <ele>230.8</ele>
        <time>2022-06-10T13:50:43Z</time>
      </trkpt>
      <trkpt lat="44.62146" lon="4.40157">
        <ele>230.9</ele>
        <time>2022-06-10T13:50:44Z</time>
      </trkpt>
      <trkpt lat="44.62143" lon="4.40162">
        <ele>231</ele>
        <time>2022-06-10T13:50:46Z</time>
      </trkpt>
      <trkpt lat="44.62143" lon="4.40165">
        <ele>231</ele>
        <time>2022-06-10T13:50:47Z</time>
      </trkpt>
      <trkpt lat="44.62142" lon="4.40167">
        <ele>231.1</ele>
        <time>2022-06-10T13:50:48Z</time>
      </trkpt>
      <trkpt lat="44.62142" lon="4.40171">
        <ele>231.1</ele>
        <time>2022-06-10T13:50:49Z</time>
      </trkpt>
      <trkpt lat="44.62141" lon="4.40175">
        <ele>231.1</ele>
        <time>2022-06-10T13:50:50Z</time>
      </trkpt>
      <trkpt lat="44.62141" lon="4.40179">
        <ele>231.1</ele>
        <time>2022-06-10T13:50:51Z</time>
      </trkpt>
      <trkpt lat="44.62141" lon="4.40184">
        <ele>231.1</ele>
        <time>2022-06-10T13:50:52Z</time>
      </trkpt>
      <trkpt lat="44.6214" lon="4.4019">
        <ele>230.7</ele>
        <time>2022-06-10T13:50:53Z</time>
      </trkpt>
      <trkpt lat="44.62139" lon="4.40198">
        <ele>230.1</ele>
        <time>2022-06-10T13:50:54Z</time>
      </trkpt>
      <trkpt lat="44.62138" lon="4.40206">
        <ele>229.6</ele>
        <time>2022-06-10T13:50:55Z</time>
      </trkpt>
      <trkpt lat="44.62136" lon="4.40214">
        <ele>229</ele>
        <time>2022-06-10T13:50:56Z</time>
      </trkpt>
      <trkpt lat="44.62133" lon="4.40222">
        <ele>228.3</ele>
        <time>2022-06-10T13:50:57Z</time>
      </trkpt>
      <trkpt lat="44.6213" lon="4.40231">
        <ele>227.6</ele>
        <time>2022-06-10T13:50:58Z</time>
      </trkpt>
      <trkpt lat="44.62127" lon="4.4024">
        <ele>226.8</ele>
        <time>2022-06-10T13:50:59Z</time>
      </trkpt>
      <trkpt lat="44.62124" lon="4.4025">
        <ele>226.1</ele>
        <time>2022-06-10T13:51:00Z</time>
      </trkpt>
      <trkpt lat="44.6212" lon="4.40259">
        <ele>225.3</ele>
        <time>2022-06-10T13:51:01Z</time>
      </trkpt>
      <trkpt lat="44.62117" lon="4.40269">
        <ele>224.6</ele>
        <time>2022-06-10T13:51:02Z</time>
      </trkpt>
      <trkpt lat="44.62114" lon="4.40277">
        <ele>224</ele>
        <time>2022-06-10T13:51:03Z</time>
      </trkpt>
      <trkpt lat="44.62112" lon="4.40283">
        <ele>223.6</ele>
        <time>2022-06-10T13:51:04Z</time>
      </trkpt>
      <trkpt lat="44.6211" lon="4.40289">
        <ele>223.2</ele>
        <time>2022-06-10T13:51:05Z</time>
      </trkpt>
      <trkpt lat="44.62109" lon="4.40294">
        <ele>223</ele>
        <time>2022-06-10T13:51:06Z</time>
      </trkpt>
      <trkpt lat="44.62108" lon="4.40295">
        <ele>222.8</ele>
        <time>2022-06-10T13:51:07Z</time>
      </trkpt>
      <trkpt lat="44.62104" lon="4.40296">
        <ele>222.5</ele>
        <time>2022-06-10T13:51:08Z</time>
      </trkpt>
      <trkpt lat="44.62103" lon="4.40296">
        <ele>222.5</ele>
        <time>2022-06-10T13:51:09Z</time>
      </trkpt>
      <trkpt lat="44.621" lon="4.40297">
        <ele>222.2</ele>
        <time>2022-06-10T13:51:11Z</time>
      </trkpt>
      <trkpt lat="44.621" lon="4.40298">
        <ele>222.2</ele>
        <time>2022-06-10T13:51:12Z</time>
      </trkpt>
      <trkpt lat="44.621" lon="4.40298">
        <ele>222.2</ele>
        <time>2022-06-10T13:51:13Z</time>
      </trkpt>
      <trkpt lat="44.62099" lon="4.40299">
        <ele>222.1</ele>
        <time>2022-06-10T13:51:14Z</time>
      </trkpt>
      <trkpt lat="44.62099" lon="4.40299">
        <ele>222.1</ele>
        <time>2022-06-10T13:51:15Z</time>
      </trkpt>
      <trkpt lat="44.62099" lon="4.403">
        <ele>222.1</ele>
        <time>2022-06-10T13:51:16Z</time>
      </trkpt>
      <trkpt lat="44.62099" lon="4.403">
        <ele>222</ele>
        <time>2022-06-10T13:51:17Z</time>
      </trkpt>
      <trkpt lat="44.62099" lon="4.40301">
        <ele>222</ele>
        <time>2022-06-10T13:51:18Z</time>
      </trkpt>
      <trkpt lat="44.62098" lon="4.40302">
        <ele>222</ele>
        <time>2022-06-10T13:51:19Z</time>
      </trkpt>
      <trkpt lat="44.62098" lon="4.40302">
        <ele>221.9</ele>
        <time>2022-06-10T13:51:20Z</time>
      </trkpt>
      <trkpt lat="44.62098" lon="4.40303">
        <ele>221.9</ele>
        <time>2022-06-10T13:51:21Z</time>
      </trkpt>
      <trkpt lat="44.62098" lon="4.40303">
        <ele>221.9</ele>
        <time>2022-06-10T13:51:22Z</time>
      </trkpt>
      <trkpt lat="44.62097" lon="4.40304">
        <ele>221.9</ele>
        <time>2022-06-10T13:51:23Z</time>
      </trkpt>
      <trkpt lat="44.62097" lon="4.40304">
        <ele>221.9</ele>
        <time>2022-06-10T13:51:34Z</time>
      </trkpt>
      <trkpt lat="44.62097" lon="4.40305">
        <ele>221.9</ele>
        <time>2022-06-10T13:51:35Z</time>
      </trkpt>
      <trkpt lat="44.62097" lon="4.40305">
        <ele>221.9</ele>
        <time>2022-06-10T13:51:36Z</time>
      </trkpt>
      <trkpt lat="44.62097" lon="4.40311">
        <ele>221.8</ele>
        <time>2022-06-10T13:51:37Z</time>
      </trkpt>
      <trkpt lat="44.62096" lon="4.40313">
        <ele>221.8</ele>
        <time>2022-06-10T13:51:38Z</time>
      </trkpt>
      <trkpt lat="44.62096" lon="4.40317">
        <ele>221.8</ele>
        <time>2022-06-10T13:51:39Z</time>
      </trkpt>
      <trkpt lat="44.62095" lon="4.40322">
        <ele>221.7</ele>
        <time>2022-06-10T13:51:40Z</time>
      </trkpt>
      <trkpt lat="44.62094" lon="4.40328">
        <ele>221.5</ele>
        <time>2022-06-10T13:51:41Z</time>
      </trkpt>
      <trkpt lat="44.62092" lon="4.40336">
        <ele>221.2</ele>
        <time>2022-06-10T13:51:42Z</time>
      </trkpt>
      <trkpt lat="44.62089" lon="4.40343">
        <ele>220.9</ele>
        <time>2022-06-10T13:51:43Z</time>
      </trkpt>
      <trkpt lat="44.62087" lon="4.40349">
        <ele>220.7</ele>
        <time>2022-06-10T13:51:44Z</time>
      </trkpt>
      <trkpt lat="44.62084" lon="4.40355">
        <ele>220.5</ele>
        <time>2022-06-10T13:51:45Z</time>
      </trkpt>
      <trkpt lat="44.62082" lon="4.40362">
        <ele>220.3</ele>
        <time>2022-06-10T13:51:47Z</time>
      </trkpt>
      <trkpt lat="44.6208" lon="4.40366">
        <ele>220.2</ele>
        <time>2022-06-10T13:51:48Z</time>
      </trkpt>
      <trkpt lat="44.62073" lon="4.40377">
        <ele>219.8</ele>
        <time>2022-06-10T13:51:50Z</time>
      </trkpt>
      <trkpt lat="44.6207" lon="4.40382">
        <ele>219.6</ele>
        <time>2022-06-10T13:51:51Z</time>
      </trkpt>
      <trkpt lat="44.62066" lon="4.40387">
        <ele>219.4</ele>
        <time>2022-06-10T13:51:52Z</time>
      </trkpt>
      <trkpt lat="44.62062" lon="4.40392">
        <ele>219.3</ele>
        <time>2022-06-10T13:51:53Z</time>
      </trkpt>
      <trkpt lat="44.62058" lon="4.40396">
        <ele>219.2</ele>
        <time>2022-06-10T13:51:54Z</time>
      </trkpt>
      <trkpt lat="44.62053" lon="4.404">
        <ele>219.1</ele>
        <time>2022-06-10T13:51:55Z</time>
      </trkpt>
      <trkpt lat="44.62048" lon="4.40403">
        <ele>219</ele>
        <time>2022-06-10T13:51:56Z</time>
      </trkpt>
      <trkpt lat="44.62043" lon="4.40403">
        <ele>219</ele>
        <time>2022-06-10T13:51:57Z</time>
      </trkpt>
      <trkpt lat="44.62038" lon="4.40401">
        <ele>218.9</ele>
        <time>2022-06-10T13:51:58Z</time>
      </trkpt>
      <trkpt lat="44.62033" lon="4.40399">
        <ele>218.9</ele>
        <time>2022-06-10T13:51:59Z</time>
      </trkpt>
      <trkpt lat="44.62028" lon="4.40396">
        <ele>218.8</ele>
        <time>2022-06-10T13:52:00Z</time>
      </trkpt>
      <trkpt lat="44.62023" lon="4.40394">
        <ele>218.8</ele>
        <time>2022-06-10T13:52:01Z</time>
      </trkpt>
      <trkpt lat="44.62018" lon="4.40391">
        <ele>218.7</ele>
        <time>2022-06-10T13:52:02Z</time>
      </trkpt>
      <trkpt lat="44.62013" lon="4.40388">
        <ele>218.7</ele>
        <time>2022-06-10T13:52:03Z</time>
      </trkpt>
      <trkpt lat="44.62008" lon="4.40385">
        <ele>218.6</ele>
        <time>2022-06-10T13:52:04Z</time>
      </trkpt>
      <trkpt lat="44.62003" lon="4.40382">
        <ele>218.6</ele>
        <time>2022-06-10T13:52:05Z</time>
      </trkpt>
      <trkpt lat="44.61998" lon="4.40379">
        <ele>218.5</ele>
        <time>2022-06-10T13:52:06Z</time>
      </trkpt>
      <trkpt lat="44.61993" lon="4.40376">
        <ele>218.5</ele>
        <time>2022-06-10T13:52:07Z</time>
      </trkpt>
      <trkpt lat="44.61988" lon="4.40373">
        <ele>218.5</ele>
        <time>2022-06-10T13:52:08Z</time>
      </trkpt>
      <trkpt lat="44.61983" lon="4.40369">
        <ele>218.6</ele>
        <time>2022-06-10T13:52:09Z</time>
      </trkpt>
      <trkpt lat="44.61979" lon="4.40366">
        <ele>218.6</ele>
        <time>2022-06-10T13:52:10Z</time>
      </trkpt>
      <trkpt lat="44.61973" lon="4.40363">
        <ele>218.7</ele>
        <time>2022-06-10T13:52:11Z</time>
      </trkpt>
      <trkpt lat="44.61968" lon="4.4036">
        <ele>218.7</ele>
        <time>2022-06-10T13:52:12Z</time>
      </trkpt>
      <trkpt lat="44.61963" lon="4.40358">
        <ele>218.7</ele>
        <time>2022-06-10T13:52:13Z</time>
      </trkpt>
      <trkpt lat="44.61958" lon="4.40355">
        <ele>218.7</ele>
        <time>2022-06-10T13:52:14Z</time>
      </trkpt>
      <trkpt lat="44.61953" lon="4.40352">
        <ele>218.7</ele>
        <time>2022-06-10T13:52:15Z</time>
      </trkpt>
      <trkpt lat="44.61948" lon="4.40349">
        <ele>218.7</ele>
        <time>2022-06-10T13:52:16Z</time>
      </trkpt>
      <trkpt lat="44.61944" lon="4.40346">
        <ele>218.7</ele>
        <time>2022-06-10T13:52:17Z</time>
      </trkpt>
      <trkpt lat="44.61939" lon="4.40344">
        <ele>218.7</ele>
        <time>2022-06-10T13:52:18Z</time>
      </trkpt>
      <trkpt lat="44.61934" lon="4.40343">
        <ele>218.7</ele>
        <time>2022-06-10T13:52:19Z</time>
      </trkpt>
      <trkpt lat="44.61929" lon="4.40341">
        <ele>218.7</ele>
        <time>2022-06-10T13:52:20Z</time>
      </trkpt>
      <trkpt lat="44.61925" lon="4.40338">
        <ele>218.7</ele>
        <time>2022-06-10T13:52:21Z</time>
      </trkpt>
      <trkpt lat="44.61921" lon="4.40334">
        <ele>218.8</ele>
        <time>2022-06-10T13:52:22Z</time>
      </trkpt>
      <trkpt lat="44.61916" lon="4.4033">
        <ele>218.8</ele>
        <time>2022-06-10T13:52:23Z</time>
      </trkpt>
      <trkpt lat="44.61912" lon="4.40327">
        <ele>218.8</ele>
        <time>2022-06-10T13:52:24Z</time>
      </trkpt>
      <trkpt lat="44.61907" lon="4.40324">
        <ele>218.8</ele>
        <time>2022-06-10T13:52:25Z</time>
      </trkpt>
      <trkpt lat="44.61902" lon="4.40321">
        <ele>218.8</ele>
        <time>2022-06-10T13:52:26Z</time>
      </trkpt>
      <trkpt lat="44.61898" lon="4.40318">
        <ele>218.8</ele>
        <time>2022-06-10T13:52:27Z</time>
      </trkpt>
      <trkpt lat="44.61893" lon="4.40315">
        <ele>218.9</ele>
        <time>2022-06-10T13:52:28Z</time>
      </trkpt>
      <trkpt lat="44.61889" lon="4.40312">
        <ele>218.9</ele>
        <time>2022-06-10T13:52:29Z</time>
      </trkpt>
      <trkpt lat="44.61884" lon="4.40309">
        <ele>218.9</ele>
        <time>2022-06-10T13:52:30Z</time>
      </trkpt>
      <trkpt lat="44.61879" lon="4.40306">
        <ele>218.9</ele>
        <time>2022-06-10T13:52:31Z</time>
      </trkpt>
      <trkpt lat="44.61875" lon="4.40304">
        <ele>218.9</ele>
        <time>2022-06-10T13:52:32Z</time>
      </trkpt>
      <trkpt lat="44.61873" lon="4.40301">
        <ele>218.9</ele>
        <time>2022-06-10T13:52:33Z</time>
      </trkpt>
      <trkpt lat="44.61872" lon="4.403">
        <ele>218.9</ele>
        <time>2022-06-10T13:52:34Z</time>
      </trkpt>
      <trkpt lat="44.6187" lon="4.40297">
        <ele>218.9</ele>
        <time>2022-06-10T13:52:35Z</time>
      </trkpt>
      <trkpt lat="44.61869" lon="4.40296">
        <ele>218.9</ele>
        <time>2022-06-10T13:52:36Z</time>
      </trkpt>
      <trkpt lat="44.61868" lon="4.40295">
        <ele>218.9</ele>
        <time>2022-06-10T13:52:37Z</time>
      </trkpt>
      <trkpt lat="44.61868" lon="4.40295">
        <ele>219</ele>
        <time>2022-06-10T13:52:38Z</time>
      </trkpt>
      <trkpt lat="44.61868" lon="4.40295">
        <ele>219</ele>
        <time>2022-06-10T13:52:39Z</time>
      </trkpt>
      <trkpt lat="44.61868" lon="4.40295">
        <ele>219</ele>
        <time>2022-06-10T13:52:40Z</time>
      </trkpt>
      <trkpt lat="44.61868" lon="4.40295">
        <ele>219</ele>
        <time>2022-06-10T13:52:41Z</time>
      </trkpt>
      <trkpt lat="44.61868" lon="4.40295">
        <ele>219</ele>
        <time>2022-06-10T13:52:42Z</time>
      </trkpt>
      <trkpt lat="44.61868" lon="4.40295">
        <ele>219</ele>
        <time>2022-06-10T13:52:43Z</time>
      </trkpt>
      <trkpt lat="44.61868" lon="4.40295">
        <ele>219</ele>
        <time>2022-06-10T13:52:44Z</time>
      </trkpt>
      <trkpt lat="44.61868" lon="4.40295">
        <ele>219</ele>
        <time>2022-06-10T13:52:45Z</time>
      </trkpt>
      <trkpt lat="44.61868" lon="4.40295">
        <ele>219</ele>
        <time>2022-06-10T13:52:46Z</time>
      </trkpt>
      <trkpt lat="44.61868" lon="4.40295">
        <ele>219</ele>
        <time>2022-06-10T13:52:47Z</time>
      </trkpt>
      <trkpt lat="44.61868" lon="4.40295">
        <ele>219</ele>
        <time>2022-06-10T13:52:48Z</time>
      </trkpt>
      <trkpt lat="44.61868" lon="4.40295">
        <ele>219</ele>
        <time>2022-06-10T13:52:49Z</time>
      </trkpt>
      <trkpt lat="44.61868" lon="4.40295">
        <ele>219</ele>
        <time>2022-06-10T13:52:50Z</time>
      </trkpt>
      <trkpt lat="44.61869" lon="4.40294">
        <ele>219.1</ele>
        <time>2022-06-10T13:52:52Z</time>
      </trkpt>
      <trkpt lat="44.61874" lon="4.40292">
        <ele>219.2</ele>
        <time>2022-06-10T13:52:55Z</time>
      </trkpt>
      <trkpt lat="44.61877" lon="4.40289">
        <ele>219.3</ele>
        <time>2022-06-10T13:52:56Z</time>
      </trkpt>
      <trkpt lat="44.61879" lon="4.40286">
        <ele>219.4</ele>
        <time>2022-06-10T13:52:57Z</time>
      </trkpt>
      <trkpt lat="44.6188" lon="4.40282">
        <ele>219.4</ele>
        <time>2022-06-10T13:52:58Z</time>
      </trkpt>
      <trkpt lat="44.61881" lon="4.40281">
        <ele>219.5</ele>
        <time>2022-06-10T13:52:59Z</time>
      </trkpt>
      <trkpt lat="44.61882" lon="4.40276">
        <ele>219.6</ele>
        <time>2022-06-10T13:53:00Z</time>
      </trkpt>
      <trkpt lat="44.61884" lon="4.40271">
        <ele>219.7</ele>
        <time>2022-06-10T13:53:02Z</time>
      </trkpt>
      <trkpt lat="44.61885" lon="4.4027">
        <ele>219.7</ele>
        <time>2022-06-10T13:53:03Z</time>
      </trkpt>
      <trkpt lat="44.61887" lon="4.40264">
        <ele>219.8</ele>
        <time>2022-06-10T13:53:04Z</time>
      </trkpt>
      <trkpt lat="44.61888" lon="4.4026">
        <ele>219.9</ele>
        <time>2022-06-10T13:53:05Z</time>
      </trkpt>
      <trkpt lat="44.61889" lon="4.40255">
        <ele>220</ele>
        <time>2022-06-10T13:53:06Z</time>
      </trkpt>
      <trkpt lat="44.6189" lon="4.40251">
        <ele>220.1</ele>
        <time>2022-06-10T13:53:07Z</time>
      </trkpt>
      <trkpt lat="44.61892" lon="4.40246">
        <ele>220.2</ele>
        <time>2022-06-10T13:53:08Z</time>
      </trkpt>
      <trkpt lat="44.61893" lon="4.40242">
        <ele>220.3</ele>
        <time>2022-06-10T13:53:10Z</time>
      </trkpt>
      <trkpt lat="44.61895" lon="4.40236">
        <ele>220.5</ele>
        <time>2022-06-10T13:53:11Z</time>
      </trkpt>
      <trkpt lat="44.61896" lon="4.40233">
        <ele>220.6</ele>
        <time>2022-06-10T13:53:12Z</time>
      </trkpt>
      <trkpt lat="44.61898" lon="4.40228">
        <ele>220.8</ele>
        <time>2022-06-10T13:53:13Z</time>
      </trkpt>
      <trkpt lat="44.61899" lon="4.40224">
        <ele>220.9</ele>
        <time>2022-06-10T13:53:14Z</time>
      </trkpt>
      <trkpt lat="44.619" lon="4.40219">
        <ele>221.1</ele>
        <time>2022-06-10T13:53:16Z</time>
      </trkpt>
      <trkpt lat="44.61901" lon="4.40216">
        <ele>221.3</ele>
        <time>2022-06-10T13:53:17Z</time>
      </trkpt>
      <trkpt lat="44.61902" lon="4.40212">
        <ele>221.4</ele>
        <time>2022-06-10T13:53:18Z</time>
      </trkpt>
      <trkpt lat="44.61904" lon="4.40207">
        <ele>221.6</ele>
        <time>2022-06-10T13:53:19Z</time>
      </trkpt>
      <trkpt lat="44.61904" lon="4.40206">
        <ele>221.7</ele>
        <time>2022-06-10T13:53:20Z</time>
      </trkpt>
      <trkpt lat="44.61905" lon="4.40201">
        <ele>221.9</ele>
        <time>2022-06-10T13:53:21Z</time>
      </trkpt>
      <trkpt lat="44.61906" lon="4.40199">
        <ele>222</ele>
        <time>2022-06-10T13:53:22Z</time>
      </trkpt>
      <trkpt lat="44.61907" lon="4.40193">
        <ele>222.3</ele>
        <time>2022-06-10T13:53:24Z</time>
      </trkpt>
      <trkpt lat="44.61908" lon="4.40187">
        <ele>222.6</ele>
        <time>2022-06-10T13:53:25Z</time>
      </trkpt>
      <trkpt lat="44.61909" lon="4.4018">
        <ele>223</ele>
        <time>2022-06-10T13:53:27Z</time>
      </trkpt>
      <trkpt lat="44.6191" lon="4.40178">
        <ele>223.2</ele>
        <time>2022-06-10T13:53:28Z</time>
      </trkpt>
      <trkpt lat="44.6191" lon="4.40176">
        <ele>223.3</ele>
        <time>2022-06-10T13:53:29Z</time>
      </trkpt>
      <trkpt lat="44.61912" lon="4.40171">
        <ele>223.6</ele>
        <time>2022-06-10T13:53:31Z</time>
      </trkpt>
      <trkpt lat="44.61912" lon="4.40169">
        <ele>223.8</ele>
        <time>2022-06-10T13:53:32Z</time>
      </trkpt>
      <trkpt lat="44.61913" lon="4.40165">
        <ele>224.1</ele>
        <time>2022-06-10T13:53:33Z</time>
      </trkpt>
      <trkpt lat="44.61913" lon="4.40162">
        <ele>224.3</ele>
        <time>2022-06-10T13:53:34Z</time>
      </trkpt>
      <trkpt lat="44.61914" lon="4.40159">
        <ele>224.5</ele>
        <time>2022-06-10T13:53:36Z</time>
      </trkpt>
      <trkpt lat="44.61915" lon="4.40156">
        <ele>224.7</ele>
        <time>2022-06-10T13:53:37Z</time>
      </trkpt>
      <trkpt lat="44.61916" lon="4.40152">
        <ele>225</ele>
        <time>2022-06-10T13:53:39Z</time>
      </trkpt>
      <trkpt lat="44.61916" lon="4.40147">
        <ele>225.4</ele>
        <time>2022-06-10T13:53:40Z</time>
      </trkpt>
      <trkpt lat="44.61916" lon="4.40145">
        <ele>225.6</ele>
        <time>2022-06-10T13:53:41Z</time>
      </trkpt>
      <trkpt lat="44.61916" lon="4.40142">
        <ele>225.8</ele>
        <time>2022-06-10T13:53:42Z</time>
      </trkpt>
      <trkpt lat="44.61917" lon="4.40139">
        <ele>226</ele>
        <time>2022-06-10T13:53:44Z</time>
      </trkpt>
      <trkpt lat="44.61918" lon="4.40135">
        <ele>226.3</ele>
        <time>2022-06-10T13:53:45Z</time>
      </trkpt>
      <trkpt lat="44.61918" lon="4.40132">
        <ele>226.7</ele>
        <time>2022-06-10T13:53:47Z</time>
      </trkpt>
      <trkpt lat="44.61918" lon="4.40128">
        <ele>227</ele>
        <time>2022-06-10T13:53:48Z</time>
      </trkpt>
      <trkpt lat="44.61919" lon="4.40122">
        <ele>227.5</ele>
        <time>2022-06-10T13:53:50Z</time>
      </trkpt>
      <trkpt lat="44.61919" lon="4.4012">
        <ele>227.7</ele>
        <time>2022-06-10T13:53:52Z</time>
      </trkpt>
      <trkpt lat="44.61919" lon="4.40118">
        <ele>227.9</ele>
        <time>2022-06-10T13:53:53Z</time>
      </trkpt>
      <trkpt lat="44.6192" lon="4.40116">
        <ele>228.1</ele>
        <time>2022-06-10T13:53:54Z</time>
      </trkpt>
      <trkpt lat="44.6192" lon="4.40114">
        <ele>228.3</ele>
        <time>2022-06-10T13:53:55Z</time>
      </trkpt>
      <trkpt lat="44.6192" lon="4.40112">
        <ele>228.5</ele>
        <time>2022-06-10T13:53:56Z</time>
      </trkpt>
      <trkpt lat="44.6192" lon="4.40108">
        <ele>228.9</ele>
        <time>2022-06-10T13:53:57Z</time>
      </trkpt>
      <trkpt lat="44.6192" lon="4.40106">
        <ele>229.1</ele>
        <time>2022-06-10T13:53:58Z</time>
      </trkpt>
      <trkpt lat="44.6192" lon="4.40103">
        <ele>229.3</ele>
        <time>2022-06-10T13:53:59Z</time>
      </trkpt>
      <trkpt lat="44.6192" lon="4.40101">
        <ele>229.7</ele>
        <time>2022-06-10T13:54:01Z</time>
      </trkpt>
      <trkpt lat="44.61919" lon="4.40099">
        <ele>229.7</ele>
        <time>2022-06-10T13:54:02Z</time>
      </trkpt>
      <trkpt lat="44.61917" lon="4.40097">
        <ele>229.8</ele>
        <time>2022-06-10T13:54:03Z</time>
      </trkpt>
      <trkpt lat="44.61915" lon="4.40094">
        <ele>229.8</ele>
        <time>2022-06-10T13:54:04Z</time>
      </trkpt>
      <trkpt lat="44.61914" lon="4.40093">
        <ele>229.8</ele>
        <time>2022-06-10T13:54:05Z</time>
      </trkpt>
      <trkpt lat="44.61912" lon="4.40091">
        <ele>229.8</ele>
        <time>2022-06-10T13:54:06Z</time>
      </trkpt>
      <trkpt lat="44.6191" lon="4.4009">
        <ele>229.9</ele>
        <time>2022-06-10T13:54:08Z</time>
      </trkpt>
      <trkpt lat="44.61907" lon="4.4009">
        <ele>229.9</ele>
        <time>2022-06-10T13:54:09Z</time>
      </trkpt>
      <trkpt lat="44.61906" lon="4.4009">
        <ele>229.9</ele>
        <time>2022-06-10T13:54:10Z</time>
      </trkpt>
      <trkpt lat="44.61902" lon="4.4009">
        <ele>229.9</ele>
        <time>2022-06-10T13:54:11Z</time>
      </trkpt>
      <trkpt lat="44.61901" lon="4.40089">
        <ele>229.9</ele>
        <time>2022-06-10T13:54:12Z</time>
      </trkpt>
      <trkpt lat="44.61898" lon="4.40089">
        <ele>230</ele>
        <time>2022-06-10T13:54:13Z</time>
      </trkpt>
      <trkpt lat="44.61895" lon="4.40089">
        <ele>230</ele>
        <time>2022-06-10T13:54:14Z</time>
      </trkpt>
      <trkpt lat="44.6189" lon="4.40088">
        <ele>230.1</ele>
        <time>2022-06-10T13:54:16Z</time>
      </trkpt>
      <trkpt lat="44.61886" lon="4.40087">
        <ele>230.2</ele>
        <time>2022-06-10T13:54:17Z</time>
      </trkpt>
      <trkpt lat="44.61884" lon="4.40087">
        <ele>230.3</ele>
        <time>2022-06-10T13:54:18Z</time>
      </trkpt>
      <trkpt lat="44.61881" lon="4.40086">
        <ele>230.4</ele>
        <time>2022-06-10T13:54:19Z</time>
      </trkpt>
      <trkpt lat="44.61877" lon="4.40085">
        <ele>230.6</ele>
        <time>2022-06-10T13:54:20Z</time>
      </trkpt>
      <trkpt lat="44.61875" lon="4.40084">
        <ele>230.7</ele>
        <time>2022-06-10T13:54:21Z</time>
      </trkpt>
      <trkpt lat="44.61873" lon="4.40083">
        <ele>230.8</ele>
        <time>2022-06-10T13:54:23Z</time>
      </trkpt>
      <trkpt lat="44.61869" lon="4.40082">
        <ele>230.9</ele>
        <time>2022-06-10T13:54:24Z</time>
      </trkpt>
      <trkpt lat="44.61868" lon="4.40081">
        <ele>231</ele>
        <time>2022-06-10T13:54:25Z</time>
      </trkpt>
      <trkpt lat="44.61865" lon="4.40081">
        <ele>231.1</ele>
        <time>2022-06-10T13:54:26Z</time>
      </trkpt>
      <trkpt lat="44.61861" lon="4.40082">
        <ele>231.3</ele>
        <time>2022-06-10T13:54:27Z</time>
      </trkpt>
      <trkpt lat="44.61857" lon="4.40081">
        <ele>231.4</ele>
        <time>2022-06-10T13:54:29Z</time>
      </trkpt>
      <trkpt lat="44.61854" lon="4.4008">
        <ele>231.5</ele>
        <time>2022-06-10T13:54:30Z</time>
      </trkpt>
      <trkpt lat="44.61851" lon="4.40079">
        <ele>231.6</ele>
        <time>2022-06-10T13:54:31Z</time>
      </trkpt>
      <trkpt lat="44.61849" lon="4.40078">
        <ele>231.6</ele>
        <time>2022-06-10T13:54:32Z</time>
      </trkpt>
      <trkpt lat="44.61845" lon="4.40077">
        <ele>231.6</ele>
        <time>2022-06-10T13:54:33Z</time>
      </trkpt>
      <trkpt lat="44.61842" lon="4.40076">
        <ele>231.6</ele>
        <time>2022-06-10T13:54:34Z</time>
      </trkpt>
      <trkpt lat="44.61838" lon="4.40074">
        <ele>231.6</ele>
        <time>2022-06-10T13:54:35Z</time>
      </trkpt>
      <trkpt lat="44.61832" lon="4.40071">
        <ele>231.5</ele>
        <time>2022-06-10T13:54:36Z</time>
      </trkpt>
      <trkpt lat="44.61828" lon="4.4007">
        <ele>231.3</ele>
        <time>2022-06-10T13:54:38Z</time>
      </trkpt>
      <trkpt lat="44.61823" lon="4.40063">
        <ele>231</ele>
        <time>2022-06-10T13:54:39Z</time>
      </trkpt>
      <trkpt lat="44.61821" lon="4.4006">
        <ele>231</ele>
        <time>2022-06-10T13:54:40Z</time>
      </trkpt>
      <trkpt lat="44.61819" lon="4.40056">
        <ele>231.6</ele>
        <time>2022-06-10T13:54:42Z</time>
      </trkpt>
      <trkpt lat="44.61818" lon="4.40051">
        <ele>232.1</ele>
        <time>2022-06-10T13:54:43Z</time>
      </trkpt>
      <trkpt lat="44.61818" lon="4.40046">
        <ele>232.7</ele>
        <time>2022-06-10T13:54:44Z</time>
      </trkpt>
      <trkpt lat="44.61819" lon="4.40041">
        <ele>233.2</ele>
        <time>2022-06-10T13:54:45Z</time>
      </trkpt>
      <trkpt lat="44.6182" lon="4.40037">
        <ele>233.7</ele>
        <time>2022-06-10T13:54:46Z</time>
      </trkpt>
      <trkpt lat="44.6182" lon="4.40035">
        <ele>233.7</ele>
        <time>2022-06-10T13:54:47Z</time>
      </trkpt>
      <trkpt lat="44.6182" lon="4.40031">
        <ele>234</ele>
        <time>2022-06-10T13:54:48Z</time>
      </trkpt>
      <trkpt lat="44.6182" lon="4.40027">
        <ele>234.2</ele>
        <time>2022-06-10T13:54:50Z</time>
      </trkpt>
      <trkpt lat="44.6182" lon="4.40026">
        <ele>234.3</ele>
        <time>2022-06-10T13:54:51Z</time>
      </trkpt>
      <trkpt lat="44.61818" lon="4.40022">
        <ele>234.6</ele>
        <time>2022-06-10T13:54:52Z</time>
      </trkpt>
      <trkpt lat="44.61817" lon="4.40021">
        <ele>234.7</ele>
        <time>2022-06-10T13:54:53Z</time>
      </trkpt>
      <trkpt lat="44.61813" lon="4.4002">
        <ele>235</ele>
        <time>2022-06-10T13:54:54Z</time>
      </trkpt>
      <trkpt lat="44.61811" lon="4.40019">
        <ele>235</ele>
        <time>2022-06-10T13:54:55Z</time>
      </trkpt>
      <trkpt lat="44.61808" lon="4.40018">
        <ele>235.1</ele>
        <time>2022-06-10T13:54:56Z</time>
      </trkpt>
      <trkpt lat="44.61805" lon="4.40016">
        <ele>235.2</ele>
        <time>2022-06-10T13:54:57Z</time>
      </trkpt>
      <trkpt lat="44.61802" lon="4.40014">
        <ele>235.3</ele>
        <time>2022-06-10T13:54:58Z</time>
      </trkpt>
      <trkpt lat="44.61799" lon="4.40011">
        <ele>235.4</ele>
        <time>2022-06-10T13:54:59Z</time>
      </trkpt>
      <trkpt lat="44.61794" lon="4.40008">
        <ele>235.5</ele>
        <time>2022-06-10T13:55:00Z</time>
      </trkpt>
      <trkpt lat="44.61787" lon="4.40003">
        <ele>235.7</ele>
        <time>2022-06-10T13:55:02Z</time>
      </trkpt>
      <trkpt lat="44.61784" lon="4.39999">
        <ele>235.7</ele>
        <time>2022-06-10T13:55:04Z</time>
      </trkpt>
      <trkpt lat="44.61781" lon="4.39996">
        <ele>235.8</ele>
        <time>2022-06-10T13:55:05Z</time>
      </trkpt>
      <trkpt lat="44.61777" lon="4.39992">
        <ele>235.9</ele>
        <time>2022-06-10T13:55:06Z</time>
      </trkpt>
      <trkpt lat="44.61771" lon="4.39986">
        <ele>236</ele>
        <time>2022-06-10T13:55:07Z</time>
      </trkpt>
      <trkpt lat="44.61767" lon="4.3998">
        <ele>236.1</ele>
        <time>2022-06-10T13:55:09Z</time>
      </trkpt>
      <trkpt lat="44.61762" lon="4.39973">
        <ele>236.2</ele>
        <time>2022-06-10T13:55:10Z</time>
      </trkpt>
      <trkpt lat="44.61756" lon="4.39969">
        <ele>236.3</ele>
        <time>2022-06-10T13:55:12Z</time>
      </trkpt>
      <trkpt lat="44.61753" lon="4.39966">
        <ele>236.4</ele>
        <time>2022-06-10T13:55:13Z</time>
      </trkpt>
      <trkpt lat="44.61749" lon="4.39963">
        <ele>236.5</ele>
        <time>2022-06-10T13:55:14Z</time>
      </trkpt>
      <trkpt lat="44.61745" lon="4.3996">
        <ele>236.6</ele>
        <time>2022-06-10T13:55:15Z</time>
      </trkpt>
      <trkpt lat="44.61741" lon="4.39956">
        <ele>236.8</ele>
        <time>2022-06-10T13:55:16Z</time>
      </trkpt>
      <trkpt lat="44.61737" lon="4.39953">
        <ele>236.9</ele>
        <time>2022-06-10T13:55:17Z</time>
      </trkpt>
      <trkpt lat="44.61733" lon="4.3995">
        <ele>237</ele>
        <time>2022-06-10T13:55:18Z</time>
      </trkpt>
      <trkpt lat="44.6173" lon="4.39946">
        <ele>237.1</ele>
        <time>2022-06-10T13:55:19Z</time>
      </trkpt>
      <trkpt lat="44.61728" lon="4.39942">
        <ele>237.2</ele>
        <time>2022-06-10T13:55:20Z</time>
      </trkpt>
      <trkpt lat="44.6172" lon="4.39937">
        <ele>237.5</ele>
        <time>2022-06-10T13:55:21Z</time>
      </trkpt>
      <trkpt lat="44.61715" lon="4.39934">
        <ele>237.6</ele>
        <time>2022-06-10T13:55:23Z</time>
      </trkpt>
      <trkpt lat="44.6171" lon="4.3993">
        <ele>237.8</ele>
        <time>2022-06-10T13:55:24Z</time>
      </trkpt>
      <trkpt lat="44.61706" lon="4.39927">
        <ele>237.9</ele>
        <time>2022-06-10T13:55:25Z</time>
      </trkpt>
      <trkpt lat="44.61703" lon="4.39924">
        <ele>238.1</ele>
        <time>2022-06-10T13:55:26Z</time>
      </trkpt>
      <trkpt lat="44.61699" lon="4.39921">
        <ele>238.2</ele>
        <time>2022-06-10T13:55:27Z</time>
      </trkpt>
      <trkpt lat="44.61696" lon="4.39917">
        <ele>238.3</ele>
        <time>2022-06-10T13:55:28Z</time>
      </trkpt>
      <trkpt lat="44.61693" lon="4.39913">
        <ele>238.4</ele>
        <time>2022-06-10T13:55:30Z</time>
      </trkpt>
      <trkpt lat="44.61688" lon="4.39909">
        <ele>238.5</ele>
        <time>2022-06-10T13:55:31Z</time>
      </trkpt>
      <trkpt lat="44.61685" lon="4.39907">
        <ele>238.6</ele>
        <time>2022-06-10T13:55:32Z</time>
      </trkpt>
      <trkpt lat="44.61681" lon="4.39903">
        <ele>238.7</ele>
        <time>2022-06-10T13:55:34Z</time>
      </trkpt>
      <trkpt lat="44.61677" lon="4.39899">
        <ele>238.8</ele>
        <time>2022-06-10T13:55:35Z</time>
      </trkpt>
      <trkpt lat="44.61674" lon="4.39895">
        <ele>238.9</ele>
        <time>2022-06-10T13:55:36Z</time>
      </trkpt>
      <trkpt lat="44.61671" lon="4.39893">
        <ele>239.1</ele>
        <time>2022-06-10T13:55:37Z</time>
      </trkpt>
      <trkpt lat="44.61667" lon="4.3989">
        <ele>239.2</ele>
        <time>2022-06-10T13:55:38Z</time>
      </trkpt>
      <trkpt lat="44.61663" lon="4.39887">
        <ele>239.3</ele>
        <time>2022-06-10T13:55:39Z</time>
      </trkpt>
      <trkpt lat="44.61659" lon="4.39883">
        <ele>239.5</ele>
        <time>2022-06-10T13:55:40Z</time>
      </trkpt>
      <trkpt lat="44.61655" lon="4.39879">
        <ele>239.7</ele>
        <time>2022-06-10T13:55:42Z</time>
      </trkpt>
      <trkpt lat="44.61651" lon="4.39875">
        <ele>239.9</ele>
        <time>2022-06-10T13:55:43Z</time>
      </trkpt>
      <trkpt lat="44.61648" lon="4.39871">
        <ele>240.1</ele>
        <time>2022-06-10T13:55:45Z</time>
      </trkpt>
      <trkpt lat="44.61646" lon="4.39867">
        <ele>240.2</ele>
        <time>2022-06-10T13:55:46Z</time>
      </trkpt>
      <trkpt lat="44.61646" lon="4.39866">
        <ele>240.3</ele>
        <time>2022-06-10T13:55:47Z</time>
      </trkpt>
      <trkpt lat="44.61646" lon="4.39861">
        <ele>240.5</ele>
        <time>2022-06-10T13:55:48Z</time>
      </trkpt>
      <trkpt lat="44.61646" lon="4.3986">
        <ele>240.5</ele>
        <time>2022-06-10T13:55:49Z</time>
      </trkpt>
      <trkpt lat="44.61646" lon="4.39855">
        <ele>240.7</ele>
        <time>2022-06-10T13:55:50Z</time>
      </trkpt>
      <trkpt lat="44.61646" lon="4.39853">
        <ele>240.8</ele>
        <time>2022-06-10T13:55:51Z</time>
      </trkpt>
      <trkpt lat="44.61647" lon="4.39849">
        <ele>240.9</ele>
        <time>2022-06-10T13:55:52Z</time>
      </trkpt>
      <trkpt lat="44.61647" lon="4.39848">
        <ele>241</ele>
        <time>2022-06-10T13:55:53Z</time>
      </trkpt>
      <trkpt lat="44.61649" lon="4.39846">
        <ele>242.1</ele>
        <time>2022-06-10T13:55:54Z</time>
      </trkpt>
      <trkpt lat="44.6165" lon="4.39844">
        <ele>242.3</ele>
        <time>2022-06-10T13:55:55Z</time>
      </trkpt>
      <trkpt lat="44.61651" lon="4.39843">
        <ele>242.4</ele>
        <time>2022-06-10T13:55:56Z</time>
      </trkpt>
      <trkpt lat="44.61651" lon="4.39841">
        <ele>242.6</ele>
        <time>2022-06-10T13:55:57Z</time>
      </trkpt>
      <trkpt lat="44.61652" lon="4.3984">
        <ele>242.7</ele>
        <time>2022-06-10T13:55:58Z</time>
      </trkpt>
      <trkpt lat="44.61653" lon="4.39839">
        <ele>242.9</ele>
        <time>2022-06-10T13:55:59Z</time>
      </trkpt>
      <trkpt lat="44.61654" lon="4.39837">
        <ele>243.1</ele>
        <time>2022-06-10T13:56:00Z</time>
      </trkpt>
      <trkpt lat="44.61655" lon="4.39835">
        <ele>243.2</ele>
        <time>2022-06-10T13:56:01Z</time>
      </trkpt>
      <trkpt lat="44.61656" lon="4.39834">
        <ele>243.4</ele>
        <time>2022-06-10T13:56:02Z</time>
      </trkpt>
      <trkpt lat="44.61657" lon="4.39832">
        <ele>243.6</ele>
        <time>2022-06-10T13:56:03Z</time>
      </trkpt>
      <trkpt lat="44.61657" lon="4.3983">
        <ele>243.8</ele>
        <time>2022-06-10T13:56:04Z</time>
      </trkpt>
      <trkpt lat="44.61658" lon="4.39828">
        <ele>244</ele>
        <time>2022-06-10T13:56:05Z</time>
      </trkpt>
      <trkpt lat="44.61658" lon="4.39825">
        <ele>244.2</ele>
        <time>2022-06-10T13:56:06Z</time>
      </trkpt>
      <trkpt lat="44.61658" lon="4.39821">
        <ele>244.6</ele>
        <time>2022-06-10T13:56:07Z</time>
      </trkpt>
      <trkpt lat="44.61659" lon="4.39817">
        <ele>245</ele>
        <time>2022-06-10T13:56:09Z</time>
      </trkpt>
      <trkpt lat="44.61659" lon="4.39815">
        <ele>245.1</ele>
        <time>2022-06-10T13:56:10Z</time>
      </trkpt>
      <trkpt lat="44.6166" lon="4.39814">
        <ele>245.3</ele>
        <time>2022-06-10T13:56:11Z</time>
      </trkpt>
      <trkpt lat="44.6166" lon="4.39811">
        <ele>245.6</ele>
        <time>2022-06-10T13:56:12Z</time>
      </trkpt>
      <trkpt lat="44.61661" lon="4.39809">
        <ele>245.8</ele>
        <time>2022-06-10T13:56:13Z</time>
      </trkpt>
      <trkpt lat="44.61662" lon="4.39807">
        <ele>246.1</ele>
        <time>2022-06-10T13:56:14Z</time>
      </trkpt>
      <trkpt lat="44.61662" lon="4.39805">
        <ele>246.3</ele>
        <time>2022-06-10T13:56:15Z</time>
      </trkpt>
      <trkpt lat="44.61663" lon="4.39803">
        <ele>246.5</ele>
        <time>2022-06-10T13:56:16Z</time>
      </trkpt>
      <trkpt lat="44.61663" lon="4.39802">
        <ele>246.7</ele>
        <time>2022-06-10T13:56:17Z</time>
      </trkpt>
      <trkpt lat="44.61665" lon="4.39799">
        <ele>247.1</ele>
        <time>2022-06-10T13:56:18Z</time>
      </trkpt>
      <trkpt lat="44.61665" lon="4.39797">
        <ele>247.4</ele>
        <time>2022-06-10T13:56:19Z</time>
      </trkpt>
      <trkpt lat="44.61666" lon="4.39795">
        <ele>247.6</ele>
        <time>2022-06-10T13:56:20Z</time>
      </trkpt>
      <trkpt lat="44.61666" lon="4.39793">
        <ele>247.9</ele>
        <time>2022-06-10T13:56:22Z</time>
      </trkpt>
      <trkpt lat="44.61667" lon="4.3979">
        <ele>248.2</ele>
        <time>2022-06-10T13:56:23Z</time>
      </trkpt>
      <trkpt lat="44.61668" lon="4.39788">
        <ele>248.5</ele>
        <time>2022-06-10T13:56:25Z</time>
      </trkpt>
      <trkpt lat="44.61669" lon="4.39786">
        <ele>248.9</ele>
        <time>2022-06-10T13:56:26Z</time>
      </trkpt>
      <trkpt lat="44.6167" lon="4.39785">
        <ele>249.2</ele>
        <time>2022-06-10T13:56:27Z</time>
      </trkpt>
      <trkpt lat="44.61672" lon="4.39784">
        <ele>249.4</ele>
        <time>2022-06-10T13:56:28Z</time>
      </trkpt>
      <trkpt lat="44.61672" lon="4.39783">
        <ele>249.6</ele>
        <time>2022-06-10T13:56:29Z</time>
      </trkpt>
      <trkpt lat="44.61673" lon="4.39782">
        <ele>249.8</ele>
        <time>2022-06-10T13:56:30Z</time>
      </trkpt>
      <trkpt lat="44.61674" lon="4.39781">
        <ele>250</ele>
        <time>2022-06-10T13:56:31Z</time>
      </trkpt>
      <trkpt lat="44.61675" lon="4.3978">
        <ele>250.2</ele>
        <time>2022-06-10T13:56:32Z</time>
      </trkpt>
      <trkpt lat="44.61676" lon="4.3978">
        <ele>250.3</ele>
        <time>2022-06-10T13:56:33Z</time>
      </trkpt>
      <trkpt lat="44.61676" lon="4.3978">
        <ele>250.3</ele>
        <time>2022-06-10T13:56:34Z</time>
      </trkpt>
      <trkpt lat="44.61676" lon="4.39779">
        <ele>250.5</ele>
        <time>2022-06-10T13:56:35Z</time>
      </trkpt>
      <trkpt lat="44.61676" lon="4.39776">
        <ele>250.8</ele>
        <time>2022-06-10T13:56:37Z</time>
      </trkpt>
      <trkpt lat="44.61676" lon="4.39774">
        <ele>251.1</ele>
        <time>2022-06-10T13:56:38Z</time>
      </trkpt>
      <trkpt lat="44.61675" lon="4.39772">
        <ele>251.4</ele>
        <time>2022-06-10T13:56:39Z</time>
      </trkpt>
      <trkpt lat="44.61675" lon="4.3977">
        <ele>251.7</ele>
        <time>2022-06-10T13:56:40Z</time>
      </trkpt>
      <trkpt lat="44.61676" lon="4.39768">
        <ele>251.9</ele>
        <time>2022-06-10T13:56:41Z</time>
      </trkpt>
      <trkpt lat="44.61676" lon="4.39765">
        <ele>252.2</ele>
        <time>2022-06-10T13:56:42Z</time>
      </trkpt>
      <trkpt lat="44.61677" lon="4.39764">
        <ele>252.3</ele>
        <time>2022-06-10T13:56:43Z</time>
      </trkpt>
      <trkpt lat="44.61678" lon="4.39762">
        <ele>252.6</ele>
        <time>2022-06-10T13:56:44Z</time>
      </trkpt>
      <trkpt lat="44.61678" lon="4.3976">
        <ele>252.7</ele>
        <time>2022-06-10T13:56:45Z</time>
      </trkpt>
      <trkpt lat="44.61679" lon="4.39759">
        <ele>252.9</ele>
        <time>2022-06-10T13:56:46Z</time>
      </trkpt>
      <trkpt lat="44.61679" lon="4.39758">
        <ele>253</ele>
        <time>2022-06-10T13:56:47Z</time>
      </trkpt>
      <trkpt lat="44.6168" lon="4.39758">
        <ele>253.1</ele>
        <time>2022-06-10T13:56:48Z</time>
      </trkpt>
      <trkpt lat="44.6168" lon="4.39758">
        <ele>253.1</ele>
        <time>2022-06-10T13:56:49Z</time>
      </trkpt>
      <trkpt lat="44.6168" lon="4.39758">
        <ele>253.1</ele>
        <time>2022-06-10T13:56:50Z</time>
      </trkpt>
      <trkpt lat="44.6168" lon="4.39757">
        <ele>253.1</ele>
        <time>2022-06-10T13:56:51Z</time>
      </trkpt>
      <trkpt lat="44.6168" lon="4.39757">
        <ele>253.1</ele>
        <time>2022-06-10T13:56:52Z</time>
      </trkpt>
      <trkpt lat="44.6168" lon="4.39757">
        <ele>253.1</ele>
        <time>2022-06-10T13:56:53Z</time>
      </trkpt>
      <trkpt lat="44.6168" lon="4.39756">
        <ele>253.3</ele>
        <time>2022-06-10T13:56:54Z</time>
      </trkpt>
      <trkpt lat="44.61681" lon="4.39755">
        <ele>253.4</ele>
        <time>2022-06-10T13:56:55Z</time>
      </trkpt>
      <trkpt lat="44.61681" lon="4.39754">
        <ele>253.5</ele>
        <time>2022-06-10T13:56:56Z</time>
      </trkpt>
      <trkpt lat="44.61681" lon="4.39753">
        <ele>253.6</ele>
        <time>2022-06-10T13:56:57Z</time>
      </trkpt>
      <trkpt lat="44.61682" lon="4.39751">
        <ele>253.7</ele>
        <time>2022-06-10T13:57:20Z</time>
      </trkpt>
      <trkpt lat="44.61682" lon="4.3975">
        <ele>253.9</ele>
        <time>2022-06-10T13:57:21Z</time>
      </trkpt>
      <trkpt lat="44.61683" lon="4.39749">
        <ele>254</ele>
        <time>2022-06-10T13:57:22Z</time>
      </trkpt>
      <trkpt lat="44.61683" lon="4.39748">
        <ele>254.1</ele>
        <time>2022-06-10T13:57:23Z</time>
      </trkpt>
      <trkpt lat="44.61684" lon="4.39747">
        <ele>254.2</ele>
        <time>2022-06-10T13:57:24Z</time>
      </trkpt>
      <trkpt lat="44.61685" lon="4.39746">
        <ele>254.4</ele>
        <time>2022-06-10T13:57:25Z</time>
      </trkpt>
      <trkpt lat="44.61685" lon="4.39747">
        <ele>254.5</ele>
        <time>2022-06-10T13:57:26Z</time>
      </trkpt>
      <trkpt lat="44.61685" lon="4.39747">
        <ele>254.6</ele>
        <time>2022-06-10T13:57:27Z</time>
      </trkpt>
      <trkpt lat="44.61686" lon="4.39746">
        <ele>254.6</ele>
        <time>2022-06-10T13:57:28Z</time>
      </trkpt>
      <trkpt lat="44.61687" lon="4.39744">
        <ele>255</ele>
        <time>2022-06-10T13:57:29Z</time>
      </trkpt>
      <trkpt lat="44.61689" lon="4.39742">
        <ele>255.3</ele>
        <time>2022-06-10T13:57:31Z</time>
      </trkpt>
      <trkpt lat="44.61693" lon="4.39741">
        <ele>255.8</ele>
        <time>2022-06-10T13:57:32Z</time>
      </trkpt>
      <trkpt lat="44.61694" lon="4.39741">
        <ele>255.9</ele>
        <time>2022-06-10T13:57:33Z</time>
      </trkpt>
      <trkpt lat="44.61696" lon="4.39741">
        <ele>256.2</ele>
        <time>2022-06-10T13:57:34Z</time>
      </trkpt>
      <trkpt lat="44.61698" lon="4.39741">
        <ele>256.5</ele>
        <time>2022-06-10T13:57:35Z</time>
      </trkpt>
      <trkpt lat="44.61701" lon="4.39741">
        <ele>256.9</ele>
        <time>2022-06-10T13:57:36Z</time>
      </trkpt>
      <trkpt lat="44.61702" lon="4.39741">
        <ele>257.1</ele>
        <time>2022-06-10T13:57:37Z</time>
      </trkpt>
      <trkpt lat="44.61706" lon="4.39742">
        <ele>257.6</ele>
        <time>2022-06-10T13:57:38Z</time>
      </trkpt>
      <trkpt lat="44.61707" lon="4.39742">
        <ele>257.8</ele>
        <time>2022-06-10T13:57:39Z</time>
      </trkpt>
      <trkpt lat="44.61708" lon="4.39742">
        <ele>258</ele>
        <time>2022-06-10T13:57:40Z</time>
      </trkpt>
      <trkpt lat="44.61709" lon="4.39739">
        <ele>258.3</ele>
        <time>2022-06-10T13:57:41Z</time>
      </trkpt>
      <trkpt lat="44.6171" lon="4.39737">
        <ele>258.5</ele>
        <time>2022-06-10T13:57:43Z</time>
      </trkpt>
      <trkpt lat="44.6171" lon="4.39737">
        <ele>258.6</ele>
        <time>2022-06-10T13:57:44Z</time>
      </trkpt>
      <trkpt lat="44.61711" lon="4.39736">
        <ele>258.7</ele>
        <time>2022-06-10T13:57:45Z</time>
      </trkpt>
      <trkpt lat="44.61711" lon="4.39735">
        <ele>258.8</ele>
        <time>2022-06-10T13:57:46Z</time>
      </trkpt>
      <trkpt lat="44.61711" lon="4.39735">
        <ele>258.8</ele>
        <time>2022-06-10T13:57:47Z</time>
      </trkpt>
      <trkpt lat="44.61712" lon="4.39732">
        <ele>259.2</ele>
        <time>2022-06-10T13:57:49Z</time>
      </trkpt>
      <trkpt lat="44.61712" lon="4.3973">
        <ele>259.3</ele>
        <time>2022-06-10T13:57:50Z</time>
      </trkpt>
      <trkpt lat="44.61713" lon="4.39729">
        <ele>259.4</ele>
        <time>2022-06-10T13:57:51Z</time>
      </trkpt>
      <trkpt lat="44.61714" lon="4.39728">
        <ele>259.6</ele>
        <time>2022-06-10T13:57:52Z</time>
      </trkpt>
      <trkpt lat="44.61716" lon="4.39723">
        <ele>260.2</ele>
        <time>2022-06-10T13:57:53Z</time>
      </trkpt>
      <trkpt lat="44.61717" lon="4.39719">
        <ele>260.7</ele>
        <time>2022-06-10T13:57:55Z</time>
      </trkpt>
      <trkpt lat="44.61717" lon="4.39709">
        <ele>261.6</ele>
        <time>2022-06-10T13:57:57Z</time>
      </trkpt>
      <trkpt lat="44.61717" lon="4.39705">
        <ele>262.1</ele>
        <time>2022-06-10T13:57:58Z</time>
      </trkpt>
      <trkpt lat="44.61718" lon="4.39704">
        <ele>262.3</ele>
        <time>2022-06-10T13:57:59Z</time>
      </trkpt>
      <trkpt lat="44.61718" lon="4.39702">
        <ele>262.4</ele>
        <time>2022-06-10T13:58:00Z</time>
      </trkpt>
      <trkpt lat="44.61719" lon="4.39701">
        <ele>262.6</ele>
        <time>2022-06-10T13:58:01Z</time>
      </trkpt>
      <trkpt lat="44.61719" lon="4.39699">
        <ele>262.8</ele>
        <time>2022-06-10T13:58:02Z</time>
      </trkpt>
      <trkpt lat="44.6172" lon="4.39698">
        <ele>263</ele>
        <time>2022-06-10T13:58:03Z</time>
      </trkpt>
      <trkpt lat="44.61721" lon="4.39697">
        <ele>263.1</ele>
        <time>2022-06-10T13:58:04Z</time>
      </trkpt>
      <trkpt lat="44.61722" lon="4.39694">
        <ele>263.5</ele>
        <time>2022-06-10T13:58:05Z</time>
      </trkpt>
      <trkpt lat="44.61723" lon="4.39693">
        <ele>263.6</ele>
        <time>2022-06-10T13:58:06Z</time>
      </trkpt>
      <trkpt lat="44.61723" lon="4.39692">
        <ele>263.7</ele>
        <time>2022-06-10T13:58:07Z</time>
      </trkpt>
      <trkpt lat="44.61724" lon="4.39691">
        <ele>264</ele>
        <time>2022-06-10T13:58:08Z</time>
      </trkpt>
      <trkpt lat="44.61725" lon="4.39688">
        <ele>264.3</ele>
        <time>2022-06-10T13:58:10Z</time>
      </trkpt>
      <trkpt lat="44.61725" lon="4.39687">
        <ele>264.4</ele>
        <time>2022-06-10T13:58:11Z</time>
      </trkpt>
      <trkpt lat="44.61726" lon="4.39685">
        <ele>264.6</ele>
        <time>2022-06-10T13:58:12Z</time>
      </trkpt>
      <trkpt lat="44.61726" lon="4.39684">
        <ele>264.8</ele>
        <time>2022-06-10T13:58:13Z</time>
      </trkpt>
      <trkpt lat="44.61726" lon="4.39682">
        <ele>265</ele>
        <time>2022-06-10T13:58:14Z</time>
      </trkpt>
      <trkpt lat="44.61727" lon="4.39681">
        <ele>265.1</ele>
        <time>2022-06-10T13:58:15Z</time>
      </trkpt>
      <trkpt lat="44.61728" lon="4.39679">
        <ele>265.3</ele>
        <time>2022-06-10T13:58:16Z</time>
      </trkpt>
      <trkpt lat="44.61729" lon="4.39677">
        <ele>265.6</ele>
        <time>2022-06-10T13:58:17Z</time>
      </trkpt>
      <trkpt lat="44.61729" lon="4.39676">
        <ele>265.8</ele>
        <time>2022-06-10T13:58:18Z</time>
      </trkpt>
      <trkpt lat="44.6173" lon="4.39674">
        <ele>265.9</ele>
        <time>2022-06-10T13:58:19Z</time>
      </trkpt>
      <trkpt lat="44.61731" lon="4.39673">
        <ele>266.5</ele>
        <time>2022-06-10T13:58:20Z</time>
      </trkpt>
      <trkpt lat="44.61733" lon="4.39669">
        <ele>266.8</ele>
        <time>2022-06-10T13:58:22Z</time>
      </trkpt>
      <trkpt lat="44.61733" lon="4.39667">
        <ele>267</ele>
        <time>2022-06-10T13:58:23Z</time>
      </trkpt>
      <trkpt lat="44.61734" lon="4.39664">
        <ele>267.1</ele>
        <time>2022-06-10T13:58:24Z</time>
      </trkpt>
      <trkpt lat="44.61734" lon="4.39662">
        <ele>267.3</ele>
        <time>2022-06-10T13:58:25Z</time>
      </trkpt>
      <trkpt lat="44.61734" lon="4.39659">
        <ele>267.5</ele>
        <time>2022-06-10T13:58:26Z</time>
      </trkpt>
      <trkpt lat="44.61735" lon="4.39657">
        <ele>267.7</ele>
        <time>2022-06-10T13:58:27Z</time>
      </trkpt>
      <trkpt lat="44.61735" lon="4.39655">
        <ele>267.8</ele>
        <time>2022-06-10T13:58:28Z</time>
      </trkpt>
      <trkpt lat="44.61736" lon="4.39653">
        <ele>268</ele>
        <time>2022-06-10T13:58:29Z</time>
      </trkpt>
      <trkpt lat="44.61736" lon="4.39652">
        <ele>268.1</ele>
        <time>2022-06-10T13:58:30Z</time>
      </trkpt>
      <trkpt lat="44.61737" lon="4.39649">
        <ele>268.3</ele>
        <time>2022-06-10T13:58:31Z</time>
      </trkpt>
      <trkpt lat="44.61737" lon="4.39647">
        <ele>268.4</ele>
        <time>2022-06-10T13:58:32Z</time>
      </trkpt>
      <trkpt lat="44.61737" lon="4.39644">
        <ele>268.6</ele>
        <time>2022-06-10T13:58:33Z</time>
      </trkpt>
      <trkpt lat="44.61737" lon="4.39643">
        <ele>268.7</ele>
        <time>2022-06-10T13:58:34Z</time>
      </trkpt>
      <trkpt lat="44.61738" lon="4.39642">
        <ele>268.8</ele>
        <time>2022-06-10T13:58:35Z</time>
      </trkpt>
      <trkpt lat="44.61738" lon="4.39638">
        <ele>269</ele>
        <time>2022-06-10T13:58:36Z</time>
      </trkpt>
      <trkpt lat="44.61738" lon="4.39637">
        <ele>269</ele>
        <time>2022-06-10T13:58:37Z</time>
      </trkpt>
      <trkpt lat="44.61738" lon="4.39636">
        <ele>269.1</ele>
        <time>2022-06-10T13:58:38Z</time>
      </trkpt>
      <trkpt lat="44.61738" lon="4.39633">
        <ele>269.3</ele>
        <time>2022-06-10T13:58:39Z</time>
      </trkpt>
      <trkpt lat="44.61738" lon="4.39632">
        <ele>269.4</ele>
        <time>2022-06-10T13:58:40Z</time>
      </trkpt>
      <trkpt lat="44.61738" lon="4.39631">
        <ele>269.4</ele>
        <time>2022-06-10T13:58:41Z</time>
      </trkpt>
      <trkpt lat="44.61738" lon="4.39628">
        <ele>269.6</ele>
        <time>2022-06-10T13:58:42Z</time>
      </trkpt>
      <trkpt lat="44.61738" lon="4.39627">
        <ele>269.7</ele>
        <time>2022-06-10T13:58:43Z</time>
      </trkpt>
      <trkpt lat="44.61738" lon="4.39626">
        <ele>269.8</ele>
        <time>2022-06-10T13:58:44Z</time>
      </trkpt>
      <trkpt lat="44.61738" lon="4.39623">
        <ele>270</ele>
        <time>2022-06-10T13:58:45Z</time>
      </trkpt>
      <trkpt lat="44.61738" lon="4.39621">
        <ele>270.1</ele>
        <time>2022-06-10T13:58:46Z</time>
      </trkpt>
      <trkpt lat="44.61738" lon="4.3962">
        <ele>270.1</ele>
        <time>2022-06-10T13:58:47Z</time>
      </trkpt>
      <trkpt lat="44.61738" lon="4.39617">
        <ele>270.3</ele>
        <time>2022-06-10T13:58:48Z</time>
      </trkpt>
      <trkpt lat="44.61737" lon="4.39616">
        <ele>270.4</ele>
        <time>2022-06-10T13:58:49Z</time>
      </trkpt>
      <trkpt lat="44.61737" lon="4.39615">
        <ele>270.5</ele>
        <time>2022-06-10T13:58:50Z</time>
      </trkpt>
      <trkpt lat="44.61737" lon="4.39613">
        <ele>270.6</ele>
        <time>2022-06-10T13:58:51Z</time>
      </trkpt>
      <trkpt lat="44.61736" lon="4.39611">
        <ele>270.8</ele>
        <time>2022-06-10T13:58:52Z</time>
      </trkpt>
      <trkpt lat="44.61736" lon="4.39608">
        <ele>271</ele>
        <time>2022-06-10T13:58:53Z</time>
      </trkpt>
      <trkpt lat="44.61736" lon="4.39607">
        <ele>271</ele>
        <time>2022-06-10T13:58:54Z</time>
      </trkpt>
      <trkpt lat="44.61736" lon="4.39606">
        <ele>271.1</ele>
        <time>2022-06-10T13:58:55Z</time>
      </trkpt>
      <trkpt lat="44.61737" lon="4.39604">
        <ele>271.2</ele>
        <time>2022-06-10T13:58:56Z</time>
      </trkpt>
      <trkpt lat="44.61737" lon="4.39602">
        <ele>271.3</ele>
        <time>2022-06-10T13:58:57Z</time>
      </trkpt>
      <trkpt lat="44.61737" lon="4.39601">
        <ele>271.4</ele>
        <time>2022-06-10T13:58:58Z</time>
      </trkpt>
      <trkpt lat="44.61737" lon="4.396">
        <ele>271.5</ele>
        <time>2022-06-10T13:58:59Z</time>
      </trkpt>
      <trkpt lat="44.61737" lon="4.39598">
        <ele>271.7</ele>
        <time>2022-06-10T13:59:00Z</time>
      </trkpt>
      <trkpt lat="44.61737" lon="4.39596">
        <ele>271.8</ele>
        <time>2022-06-10T13:59:01Z</time>
      </trkpt>
      <trkpt lat="44.61738" lon="4.39595">
        <ele>271.9</ele>
        <time>2022-06-10T13:59:02Z</time>
      </trkpt>
      <trkpt lat="44.61738" lon="4.39593">
        <ele>272</ele>
        <time>2022-06-10T13:59:03Z</time>
      </trkpt>
      <trkpt lat="44.61738" lon="4.39592">
        <ele>272.1</ele>
        <time>2022-06-10T13:59:04Z</time>
      </trkpt>
      <trkpt lat="44.61739" lon="4.39589">
        <ele>272.4</ele>
        <time>2022-06-10T13:59:05Z</time>
      </trkpt>
      <trkpt lat="44.61739" lon="4.39588">
        <ele>272.5</ele>
        <time>2022-06-10T13:59:06Z</time>
      </trkpt>
      <trkpt lat="44.6174" lon="4.39587">
        <ele>272.6</ele>
        <time>2022-06-10T13:59:07Z</time>
      </trkpt>
      <trkpt lat="44.6174" lon="4.39585">
        <ele>272.8</ele>
        <time>2022-06-10T13:59:08Z</time>
      </trkpt>
      <trkpt lat="44.61741" lon="4.39584">
        <ele>272.9</ele>
        <time>2022-06-10T13:59:09Z</time>
      </trkpt>
      <trkpt lat="44.61741" lon="4.39583">
        <ele>273</ele>
        <time>2022-06-10T13:59:10Z</time>
      </trkpt>
      <trkpt lat="44.61742" lon="4.3958">
        <ele>273.2</ele>
        <time>2022-06-10T13:59:11Z</time>
      </trkpt>
      <trkpt lat="44.61742" lon="4.39579">
        <ele>273.3</ele>
        <time>2022-06-10T13:59:12Z</time>
      </trkpt>
      <trkpt lat="44.61742" lon="4.39578">
        <ele>273.4</ele>
        <time>2022-06-10T13:59:13Z</time>
      </trkpt>
      <trkpt lat="44.61742" lon="4.39577">
        <ele>273.5</ele>
        <time>2022-06-10T13:59:14Z</time>
      </trkpt>
      <trkpt lat="44.61742" lon="4.39576">
        <ele>273.6</ele>
        <time>2022-06-10T13:59:15Z</time>
      </trkpt>
      <trkpt lat="44.61743" lon="4.39574">
        <ele>273.8</ele>
        <time>2022-06-10T13:59:16Z</time>
      </trkpt>
      <trkpt lat="44.61743" lon="4.39573">
        <ele>273.9</ele>
        <time>2022-06-10T13:59:17Z</time>
      </trkpt>
      <trkpt lat="44.61743" lon="4.39571">
        <ele>274.1</ele>
        <time>2022-06-10T13:59:18Z</time>
      </trkpt>
      <trkpt lat="44.61743" lon="4.39569">
        <ele>274.2</ele>
        <time>2022-06-10T13:59:19Z</time>
      </trkpt>
      <trkpt lat="44.61743" lon="4.39566">
        <ele>274.4</ele>
        <time>2022-06-10T13:59:20Z</time>
      </trkpt>
      <trkpt lat="44.61743" lon="4.39564">
        <ele>274.6</ele>
        <time>2022-06-10T13:59:21Z</time>
      </trkpt>
      <trkpt lat="44.61743" lon="4.39563">
        <ele>274.8</ele>
        <time>2022-06-10T13:59:22Z</time>
      </trkpt>
      <trkpt lat="44.61743" lon="4.39561">
        <ele>275</ele>
        <time>2022-06-10T13:59:23Z</time>
      </trkpt>
      <trkpt lat="44.61743" lon="4.3956">
        <ele>275.1</ele>
        <time>2022-06-10T13:59:24Z</time>
      </trkpt>
      <trkpt lat="44.61744" lon="4.39557">
        <ele>275.4</ele>
        <time>2022-06-10T13:59:25Z</time>
      </trkpt>
      <trkpt lat="44.61745" lon="4.39556">
        <ele>275.5</ele>
        <time>2022-06-10T13:59:26Z</time>
      </trkpt>
      <trkpt lat="44.61745" lon="4.39555">
        <ele>275.6</ele>
        <time>2022-06-10T13:59:27Z</time>
      </trkpt>
      <trkpt lat="44.61745" lon="4.39552">
        <ele>275.8</ele>
        <time>2022-06-10T13:59:28Z</time>
      </trkpt>
      <trkpt lat="44.61746" lon="4.3955">
        <ele>276.1</ele>
        <time>2022-06-10T13:59:29Z</time>
      </trkpt>
      <trkpt lat="44.61747" lon="4.39548">
        <ele>276.3</ele>
        <time>2022-06-10T13:59:30Z</time>
      </trkpt>
      <trkpt lat="44.61748" lon="4.39546">
        <ele>276.6</ele>
        <time>2022-06-10T13:59:31Z</time>
      </trkpt>
      <trkpt lat="44.61748" lon="4.39544">
        <ele>276.8</ele>
        <time>2022-06-10T13:59:32Z</time>
      </trkpt>
      <trkpt lat="44.61748" lon="4.39541">
        <ele>277</ele>
        <time>2022-06-10T13:59:33Z</time>
      </trkpt>
      <trkpt lat="44.61748" lon="4.39538">
        <ele>277.3</ele>
        <time>2022-06-10T13:59:34Z</time>
      </trkpt>
      <trkpt lat="44.61747" lon="4.39536">
        <ele>277.5</ele>
        <time>2022-06-10T13:59:35Z</time>
      </trkpt>
      <trkpt lat="44.61747" lon="4.39534">
        <ele>277.7</ele>
        <time>2022-06-10T13:59:36Z</time>
      </trkpt>
      <trkpt lat="44.61747" lon="4.39532">
        <ele>277.9</ele>
        <time>2022-06-10T13:59:37Z</time>
      </trkpt>
      <trkpt lat="44.61747" lon="4.3953">
        <ele>278.2</ele>
        <time>2022-06-10T13:59:38Z</time>
      </trkpt>
      <trkpt lat="44.61746" lon="4.39528">
        <ele>278.4</ele>
        <time>2022-06-10T13:59:39Z</time>
      </trkpt>
      <trkpt lat="44.61746" lon="4.39525">
        <ele>278.7</ele>
        <time>2022-06-10T13:59:40Z</time>
      </trkpt>
      <trkpt lat="44.61746" lon="4.39523">
        <ele>278.8</ele>
        <time>2022-06-10T13:59:41Z</time>
      </trkpt>
      <trkpt lat="44.61746" lon="4.39522">
        <ele>278.9</ele>
        <time>2022-06-10T13:59:42Z</time>
      </trkpt>
      <trkpt lat="44.61745" lon="4.3952">
        <ele>279.1</ele>
        <time>2022-06-10T13:59:43Z</time>
      </trkpt>
      <trkpt lat="44.61745" lon="4.39518">
        <ele>279.3</ele>
        <time>2022-06-10T13:59:44Z</time>
      </trkpt>
      <trkpt lat="44.61745" lon="4.39516">
        <ele>279.5</ele>
        <time>2022-06-10T13:59:45Z</time>
      </trkpt>
      <trkpt lat="44.61744" lon="4.39514">
        <ele>279.7</ele>
        <time>2022-06-10T13:59:46Z</time>
      </trkpt>
      <trkpt lat="44.61744" lon="4.39511">
        <ele>280</ele>
        <time>2022-06-10T13:59:47Z</time>
      </trkpt>
      <trkpt lat="44.61744" lon="4.3951">
        <ele>280.1</ele>
        <time>2022-06-10T13:59:48Z</time>
      </trkpt>
      <trkpt lat="44.61744" lon="4.39509">
        <ele>280.2</ele>
        <time>2022-06-10T13:59:49Z</time>
      </trkpt>
      <trkpt lat="44.61744" lon="4.39507">
        <ele>280.3</ele>
        <time>2022-06-10T13:59:50Z</time>
      </trkpt>
      <trkpt lat="44.61744" lon="4.39505">
        <ele>280.5</ele>
        <time>2022-06-10T13:59:51Z</time>
      </trkpt>
      <trkpt lat="44.61744" lon="4.39504">
        <ele>280.6</ele>
        <time>2022-06-10T13:59:52Z</time>
      </trkpt>
      <trkpt lat="44.61745" lon="4.39502">
        <ele>280.8</ele>
        <time>2022-06-10T13:59:53Z</time>
      </trkpt>
      <trkpt lat="44.61745" lon="4.395">
        <ele>280.9</ele>
        <time>2022-06-10T13:59:54Z</time>
      </trkpt>
      <trkpt lat="44.61745" lon="4.39498">
        <ele>281.1</ele>
        <time>2022-06-10T13:59:55Z</time>
      </trkpt>
      <trkpt lat="44.61746" lon="4.39497">
        <ele>281.2</ele>
        <time>2022-06-10T13:59:56Z</time>
      </trkpt>
      <trkpt lat="44.61746" lon="4.39495">
        <ele>281.3</ele>
        <time>2022-06-10T13:59:57Z</time>
      </trkpt>
      <trkpt lat="44.61747" lon="4.39493">
        <ele>281.6</ele>
        <time>2022-06-10T13:59:58Z</time>
      </trkpt>
      <trkpt lat="44.61748" lon="4.39492">
        <ele>281.7</ele>
        <time>2022-06-10T13:59:59Z</time>
      </trkpt>
      <trkpt lat="44.61749" lon="4.39492">
        <ele>281.8</ele>
        <time>2022-06-10T14:00:00Z</time>
      </trkpt>
      <trkpt lat="44.61751" lon="4.3949">
        <ele>282</ele>
        <time>2022-06-10T14:00:01Z</time>
      </trkpt>
      <trkpt lat="44.61751" lon="4.39489">
        <ele>282.1</ele>
        <time>2022-06-10T14:00:02Z</time>
      </trkpt>
      <trkpt lat="44.61752" lon="4.39489">
        <ele>282.1</ele>
        <time>2022-06-10T14:00:03Z</time>
      </trkpt>
      <trkpt lat="44.61753" lon="4.39487">
        <ele>282.3</ele>
        <time>2022-06-10T14:00:04Z</time>
      </trkpt>
      <trkpt lat="44.61755" lon="4.39487">
        <ele>282.4</ele>
        <time>2022-06-10T14:00:05Z</time>
      </trkpt>
      <trkpt lat="44.61756" lon="4.39486">
        <ele>282.5</ele>
        <time>2022-06-10T14:00:06Z</time>
      </trkpt>
      <trkpt lat="44.61757" lon="4.39486">
        <ele>282.6</ele>
        <time>2022-06-10T14:00:07Z</time>
      </trkpt>
      <trkpt lat="44.61758" lon="4.39485">
        <ele>282.7</ele>
        <time>2022-06-10T14:00:08Z</time>
      </trkpt>
      <trkpt lat="44.61759" lon="4.39484">
        <ele>282.8</ele>
        <time>2022-06-10T14:00:09Z</time>
      </trkpt>
      <trkpt lat="44.6176" lon="4.39483">
        <ele>282.9</ele>
        <time>2022-06-10T14:00:10Z</time>
      </trkpt>
      <trkpt lat="44.6176" lon="4.39482">
        <ele>282.9</ele>
        <time>2022-06-10T14:00:11Z</time>
      </trkpt>
      <trkpt lat="44.61761" lon="4.3948">
        <ele>283</ele>
        <time>2022-06-10T14:00:12Z</time>
      </trkpt>
      <trkpt lat="44.61762" lon="4.39478">
        <ele>283.1</ele>
        <time>2022-06-10T14:00:13Z</time>
      </trkpt>
      <trkpt lat="44.61762" lon="4.39476">
        <ele>283.2</ele>
        <time>2022-06-10T14:00:14Z</time>
      </trkpt>
      <trkpt lat="44.61763" lon="4.39474">
        <ele>283.3</ele>
        <time>2022-06-10T14:00:15Z</time>
      </trkpt>
      <trkpt lat="44.61763" lon="4.39472">
        <ele>283.4</ele>
        <time>2022-06-10T14:00:16Z</time>
      </trkpt>
      <trkpt lat="44.61764" lon="4.3947">
        <ele>283.4</ele>
        <time>2022-06-10T14:00:17Z</time>
      </trkpt>
      <trkpt lat="44.61766" lon="4.39466">
        <ele>283.5</ele>
        <time>2022-06-10T14:00:18Z</time>
      </trkpt>
      <trkpt lat="44.61766" lon="4.39465">
        <ele>283.5</ele>
        <time>2022-06-10T14:00:19Z</time>
      </trkpt>
      <trkpt lat="44.61769" lon="4.39462">
        <ele>283.6</ele>
        <time>2022-06-10T14:00:20Z</time>
      </trkpt>
      <trkpt lat="44.61769" lon="4.39461">
        <ele>283.6</ele>
        <time>2022-06-10T14:00:21Z</time>
      </trkpt>
      <trkpt lat="44.61772" lon="4.39457">
        <ele>283.6</ele>
        <time>2022-06-10T14:00:22Z</time>
      </trkpt>
      <trkpt lat="44.61772" lon="4.39456">
        <ele>283.6</ele>
        <time>2022-06-10T14:00:23Z</time>
      </trkpt>
      <trkpt lat="44.61774" lon="4.39453">
        <ele>283.7</ele>
        <time>2022-06-10T14:00:24Z</time>
      </trkpt>
      <trkpt lat="44.61776" lon="4.3945">
        <ele>283.7</ele>
        <time>2022-06-10T14:00:25Z</time>
      </trkpt>
      <trkpt lat="44.61779" lon="4.39447">
        <ele>283.7</ele>
        <time>2022-06-10T14:00:26Z</time>
      </trkpt>
      <trkpt lat="44.61781" lon="4.39443">
        <ele>283.7</ele>
        <time>2022-06-10T14:00:27Z</time>
      </trkpt>
      <trkpt lat="44.61783" lon="4.3944">
        <ele>283.6</ele>
        <time>2022-06-10T14:00:28Z</time>
      </trkpt>
      <trkpt lat="44.61786" lon="4.39436">
        <ele>283.6</ele>
        <time>2022-06-10T14:00:29Z</time>
      </trkpt>
      <trkpt lat="44.61789" lon="4.39433">
        <ele>283.6</ele>
        <time>2022-06-10T14:00:30Z</time>
      </trkpt>
      <trkpt lat="44.61793" lon="4.3943">
        <ele>283.5</ele>
        <time>2022-06-10T14:00:31Z</time>
      </trkpt>
      <trkpt lat="44.61795" lon="4.39427">
        <ele>283.5</ele>
        <time>2022-06-10T14:00:32Z</time>
      </trkpt>
      <trkpt lat="44.618" lon="4.39421">
        <ele>283.4</ele>
        <time>2022-06-10T14:00:34Z</time>
      </trkpt>
      <trkpt lat="44.61805" lon="4.39414">
        <ele>283.3</ele>
        <time>2022-06-10T14:00:35Z</time>
      </trkpt>
      <trkpt lat="44.61811" lon="4.39406">
        <ele>283.2</ele>
        <time>2022-06-10T14:00:36Z</time>
      </trkpt>
      <trkpt lat="44.61813" lon="4.39402">
        <ele>283.1</ele>
        <time>2022-06-10T14:00:38Z</time>
      </trkpt>
      <trkpt lat="44.61815" lon="4.39397">
        <ele>282.9</ele>
        <time>2022-06-10T14:00:39Z</time>
      </trkpt>
      <trkpt lat="44.61817" lon="4.39395">
        <ele>282.8</ele>
        <time>2022-06-10T14:00:40Z</time>
      </trkpt>
      <trkpt lat="44.61819" lon="4.39393">
        <ele>282.6</ele>
        <time>2022-06-10T14:00:42Z</time>
      </trkpt>
      <trkpt lat="44.61822" lon="4.39393">
        <ele>282.6</ele>
        <time>2022-06-10T14:00:43Z</time>
      </trkpt>
      <trkpt lat="44.61826" lon="4.3939">
        <ele>282.6</ele>
        <time>2022-06-10T14:00:45Z</time>
      </trkpt>
      <trkpt lat="44.61827" lon="4.39388">
        <ele>282.6</ele>
        <time>2022-06-10T14:00:46Z</time>
      </trkpt>
      <trkpt lat="44.61828" lon="4.39387">
        <ele>282.6</ele>
        <time>2022-06-10T14:00:47Z</time>
      </trkpt>
      <trkpt lat="44.61829" lon="4.39383">
        <ele>282.6</ele>
        <time>2022-06-10T14:00:48Z</time>
      </trkpt>
      <trkpt lat="44.61831" lon="4.39378">
        <ele>282.7</ele>
        <time>2022-06-10T14:00:49Z</time>
      </trkpt>
      <trkpt lat="44.61831" lon="4.39377">
        <ele>282.7</ele>
        <time>2022-06-10T14:00:50Z</time>
      </trkpt>
      <trkpt lat="44.61833" lon="4.39372">
        <ele>282.7</ele>
        <time>2022-06-10T14:00:51Z</time>
      </trkpt>
      <trkpt lat="44.61833" lon="4.39371">
        <ele>282.7</ele>
        <time>2022-06-10T14:00:52Z</time>
      </trkpt>
      <trkpt lat="44.61832" lon="4.39367">
        <ele>282.7</ele>
        <time>2022-06-10T14:00:53Z</time>
      </trkpt>
      <trkpt lat="44.61831" lon="4.39365">
        <ele>282.7</ele>
        <time>2022-06-10T14:00:54Z</time>
      </trkpt>
      <trkpt lat="44.61831" lon="4.39365">
        <ele>282.7</ele>
        <time>2022-06-10T14:00:55Z</time>
      </trkpt>
      <trkpt lat="44.6183" lon="4.39366">
        <ele>282.7</ele>
        <time>2022-06-10T14:00:56Z</time>
      </trkpt>
      <trkpt lat="44.6183" lon="4.39366">
        <ele>282.7</ele>
        <time>2022-06-10T14:00:57Z</time>
      </trkpt>
      <trkpt lat="44.6183" lon="4.39367">
        <ele>282.7</ele>
        <time>2022-06-10T14:00:58Z</time>
      </trkpt>
      <trkpt lat="44.6183" lon="4.39367">
        <ele>282.7</ele>
        <time>2022-06-10T14:00:59Z</time>
      </trkpt>
      <trkpt lat="44.6183" lon="4.39367">
        <ele>282.7</ele>
        <time>2022-06-10T14:01:00Z</time>
      </trkpt>
      <trkpt lat="44.6183" lon="4.39367">
        <ele>282.7</ele>
        <time>2022-06-10T14:01:01Z</time>
      </trkpt>
      <trkpt lat="44.6183" lon="4.39367">
        <ele>282.7</ele>
        <time>2022-06-10T14:01:02Z</time>
      </trkpt>
      <trkpt lat="44.6183" lon="4.39367">
        <ele>282.7</ele>
        <time>2022-06-10T14:01:03Z</time>
      </trkpt>
      <trkpt lat="44.6183" lon="4.39368">
        <ele>282.7</ele>
        <time>2022-06-10T14:01:04Z</time>
      </trkpt>
      <trkpt lat="44.6183" lon="4.39369">
        <ele>282.7</ele>
        <time>2022-06-10T14:01:05Z</time>
      </trkpt>
      <trkpt lat="44.6183" lon="4.39368">
        <ele>282.7</ele>
        <time>2022-06-10T14:01:24Z</time>
      </trkpt>
      <trkpt lat="44.61828" lon="4.39367">
        <ele>282.7</ele>
        <time>2022-06-10T14:01:25Z</time>
      </trkpt>
      <trkpt lat="44.61827" lon="4.39366">
        <ele>282.7</ele>
        <time>2022-06-10T14:01:26Z</time>
      </trkpt>
      <trkpt lat="44.61825" lon="4.39361">
        <ele>282.7</ele>
        <time>2022-06-10T14:01:27Z</time>
      </trkpt>
      <trkpt lat="44.61825" lon="4.39359">
        <ele>282.7</ele>
        <time>2022-06-10T14:01:28Z</time>
      </trkpt>
      <trkpt lat="44.61824" lon="4.39356">
        <ele>282.8</ele>
        <time>2022-06-10T14:01:29Z</time>
      </trkpt>
      <trkpt lat="44.61824" lon="4.39355">
        <ele>282.8</ele>
        <time>2022-06-10T14:01:30Z</time>
      </trkpt>
      <trkpt lat="44.61826" lon="4.39354">
        <ele>282.8</ele>
        <time>2022-06-10T14:01:31Z</time>
      </trkpt>
      <trkpt lat="44.61822" lon="4.3934">
        <ele>283.1</ele>
        <time>2022-06-10T14:01:33Z</time>
      </trkpt>
      <trkpt lat="44.61818" lon="4.39327">
        <ele>283.4</ele>
        <time>2022-06-10T14:01:35Z</time>
      </trkpt>
      <trkpt lat="44.61816" lon="4.39317">
        <ele>283.7</ele>
        <time>2022-06-10T14:01:36Z</time>
      </trkpt>
      <trkpt lat="44.61814" lon="4.39312">
        <ele>283.8</ele>
        <time>2022-06-10T14:01:38Z</time>
      </trkpt>
      <trkpt lat="44.61813" lon="4.39308">
        <ele>284</ele>
        <time>2022-06-10T14:01:39Z</time>
      </trkpt>
      <trkpt lat="44.61812" lon="4.39305">
        <ele>284.1</ele>
        <time>2022-06-10T14:01:40Z</time>
      </trkpt>
      <trkpt lat="44.61811" lon="4.39298">
        <ele>284.4</ele>
        <time>2022-06-10T14:01:41Z</time>
      </trkpt>
      <trkpt lat="44.6181" lon="4.39294">
        <ele>284.5</ele>
        <time>2022-06-10T14:01:42Z</time>
      </trkpt>
      <trkpt lat="44.61809" lon="4.39287">
        <ele>284.8</ele>
        <time>2022-06-10T14:01:44Z</time>
      </trkpt>
      <trkpt lat="44.61809" lon="4.39284">
        <ele>284.8</ele>
        <time>2022-06-10T14:01:45Z</time>
      </trkpt>
      <trkpt lat="44.61808" lon="4.39281">
        <ele>284.8</ele>
        <time>2022-06-10T14:01:46Z</time>
      </trkpt>
      <trkpt lat="44.61807" lon="4.39278">
        <ele>284.8</ele>
        <time>2022-06-10T14:01:48Z</time>
      </trkpt>
      <trkpt lat="44.61805" lon="4.39278">
        <ele>284.8</ele>
        <time>2022-06-10T14:01:49Z</time>
      </trkpt>
      <trkpt lat="44.61804" lon="4.39281">
        <ele>284.8</ele>
        <time>2022-06-10T14:01:50Z</time>
      </trkpt>
      <trkpt lat="44.61803" lon="4.39285">
        <ele>284.8</ele>
        <time>2022-06-10T14:01:51Z</time>
      </trkpt>
      <trkpt lat="44.61802" lon="4.39287">
        <ele>284.8</ele>
        <time>2022-06-10T14:01:52Z</time>
      </trkpt>
      <trkpt lat="44.61803" lon="4.39296">
        <ele>284.6</ele>
        <time>2022-06-10T14:01:53Z</time>
      </trkpt>
      <trkpt lat="44.61806" lon="4.39304">
        <ele>284.2</ele>
        <time>2022-06-10T14:01:55Z</time>
      </trkpt>
      <trkpt lat="44.61808" lon="4.39312">
        <ele>283.9</ele>
        <time>2022-06-10T14:01:56Z</time>
      </trkpt>
      <trkpt lat="44.61814" lon="4.39324">
        <ele>283.5</ele>
        <time>2022-06-10T14:01:57Z</time>
      </trkpt>
      <trkpt lat="44.61815" lon="4.39332">
        <ele>283.3</ele>
        <time>2022-06-10T14:01:58Z</time>
      </trkpt>
      <trkpt lat="44.61817" lon="4.39339">
        <ele>283.1</ele>
        <time>2022-06-10T14:01:59Z</time>
      </trkpt>
      <trkpt lat="44.61818" lon="4.39347">
        <ele>283</ele>
        <time>2022-06-10T14:02:00Z</time>
      </trkpt>
      <trkpt lat="44.61819" lon="4.39353">
        <ele>282.8</ele>
        <time>2022-06-10T14:02:01Z</time>
      </trkpt>
      <trkpt lat="44.61818" lon="4.39357">
        <ele>282.8</ele>
        <time>2022-06-10T14:02:02Z</time>
      </trkpt>
      <trkpt lat="44.61816" lon="4.3936">
        <ele>282.5</ele>
        <time>2022-06-10T14:02:03Z</time>
      </trkpt>
      <trkpt lat="44.61811" lon="4.39369">
        <ele>282.1</ele>
        <time>2022-06-10T14:02:04Z</time>
      </trkpt>
      <trkpt lat="44.61807" lon="4.39368">
        <ele>281.8</ele>
        <time>2022-06-10T14:02:06Z</time>
      </trkpt>
      <trkpt lat="44.61804" lon="4.39366">
        <ele>281.6</ele>
        <time>2022-06-10T14:02:07Z</time>
      </trkpt>
      <trkpt lat="44.61797" lon="4.39361">
        <ele>281.1</ele>
        <time>2022-06-10T14:02:08Z</time>
      </trkpt>
      <trkpt lat="44.61791" lon="4.39358">
        <ele>280.7</ele>
        <time>2022-06-10T14:02:09Z</time>
      </trkpt>
      <trkpt lat="44.61786" lon="4.39355">
        <ele>280.3</ele>
        <time>2022-06-10T14:02:10Z</time>
      </trkpt>
      <trkpt lat="44.61779" lon="4.39352">
        <ele>279.8</ele>
        <time>2022-06-10T14:02:11Z</time>
      </trkpt>
      <trkpt lat="44.61773" lon="4.39348">
        <ele>279.3</ele>
        <time>2022-06-10T14:02:12Z</time>
      </trkpt>
      <trkpt lat="44.61767" lon="4.39344">
        <ele>278.8</ele>
        <time>2022-06-10T14:02:13Z</time>
      </trkpt>
      <trkpt lat="44.6176" lon="4.3934">
        <ele>278.3</ele>
        <time>2022-06-10T14:02:14Z</time>
      </trkpt>
      <trkpt lat="44.61753" lon="4.39337">
        <ele>277.8</ele>
        <time>2022-06-10T14:02:15Z</time>
      </trkpt>
      <trkpt lat="44.61746" lon="4.39333">
        <ele>277.2</ele>
        <time>2022-06-10T14:02:16Z</time>
      </trkpt>
      <trkpt lat="44.61738" lon="4.3933">
        <ele>276.6</ele>
        <time>2022-06-10T14:02:17Z</time>
      </trkpt>
      <trkpt lat="44.61731" lon="4.39326">
        <ele>276</ele>
        <time>2022-06-10T14:02:18Z</time>
      </trkpt>
      <trkpt lat="44.61723" lon="4.39322">
        <ele>275.4</ele>
        <time>2022-06-10T14:02:19Z</time>
      </trkpt>
      <trkpt lat="44.61716" lon="4.39319">
        <ele>274.9</ele>
        <time>2022-06-10T14:02:20Z</time>
      </trkpt>
      <trkpt lat="44.6171" lon="4.39316">
        <ele>274.4</ele>
        <time>2022-06-10T14:02:21Z</time>
      </trkpt>
      <trkpt lat="44.61704" lon="4.39315">
        <ele>274</ele>
        <time>2022-06-10T14:02:22Z</time>
      </trkpt>
      <trkpt lat="44.61699" lon="4.39314">
        <ele>273.6</ele>
        <time>2022-06-10T14:02:23Z</time>
      </trkpt>
      <trkpt lat="44.61695" lon="4.39315">
        <ele>273.3</ele>
        <time>2022-06-10T14:02:24Z</time>
      </trkpt>
      <trkpt lat="44.61689" lon="4.39316">
        <ele>272.9</ele>
        <time>2022-06-10T14:02:25Z</time>
      </trkpt>
      <trkpt lat="44.61684" lon="4.39317">
        <ele>272.5</ele>
        <time>2022-06-10T14:02:26Z</time>
      </trkpt>
      <trkpt lat="44.61678" lon="4.39318">
        <ele>272.1</ele>
        <time>2022-06-10T14:02:27Z</time>
      </trkpt>
      <trkpt lat="44.61672" lon="4.3932">
        <ele>271.7</ele>
        <time>2022-06-10T14:02:28Z</time>
      </trkpt>
      <trkpt lat="44.61666" lon="4.39321">
        <ele>271.3</ele>
        <time>2022-06-10T14:02:29Z</time>
      </trkpt>
      <trkpt lat="44.6166" lon="4.39322">
        <ele>270.9</ele>
        <time>2022-06-10T14:02:30Z</time>
      </trkpt>
      <trkpt lat="44.61654" lon="4.39324">
        <ele>270.5</ele>
        <time>2022-06-10T14:02:31Z</time>
      </trkpt>
      <trkpt lat="44.61647" lon="4.39325">
        <ele>270</ele>
        <time>2022-06-10T14:02:32Z</time>
      </trkpt>
      <trkpt lat="44.6164" lon="4.39326">
        <ele>269.6</ele>
        <time>2022-06-10T14:02:33Z</time>
      </trkpt>
      <trkpt lat="44.61634" lon="4.39326">
        <ele>269.2</ele>
        <time>2022-06-10T14:02:34Z</time>
      </trkpt>
      <trkpt lat="44.61628" lon="4.39327">
        <ele>268.8</ele>
        <time>2022-06-10T14:02:35Z</time>
      </trkpt>
      <trkpt lat="44.61622" lon="4.39328">
        <ele>268.4</ele>
        <time>2022-06-10T14:02:36Z</time>
      </trkpt>
      <trkpt lat="44.61615" lon="4.39329">
        <ele>268</ele>
        <time>2022-06-10T14:02:37Z</time>
      </trkpt>
      <trkpt lat="44.61609" lon="4.3933">
        <ele>267.6</ele>
        <time>2022-06-10T14:02:38Z</time>
      </trkpt>
      <trkpt lat="44.61602" lon="4.39332">
        <ele>267.3</ele>
        <time>2022-06-10T14:02:39Z</time>
      </trkpt>
      <trkpt lat="44.61595" lon="4.39333">
        <ele>267.1</ele>
        <time>2022-06-10T14:02:40Z</time>
      </trkpt>
      <trkpt lat="44.61588" lon="4.39334">
        <ele>266.8</ele>
        <time>2022-06-10T14:02:41Z</time>
      </trkpt>
      <trkpt lat="44.6158" lon="4.39335">
        <ele>266.3</ele>
        <time>2022-06-10T14:02:42Z</time>
      </trkpt>
      <trkpt lat="44.61574" lon="4.39335">
        <ele>265.7</ele>
        <time>2022-06-10T14:02:43Z</time>
      </trkpt>
      <trkpt lat="44.61568" lon="4.39336">
        <ele>265.2</ele>
        <time>2022-06-10T14:02:44Z</time>
      </trkpt>
      <trkpt lat="44.61563" lon="4.39337">
        <ele>264.8</ele>
        <time>2022-06-10T14:02:45Z</time>
      </trkpt>
      <trkpt lat="44.61559" lon="4.39338">
        <ele>264.5</ele>
        <time>2022-06-10T14:02:46Z</time>
      </trkpt>
      <trkpt lat="44.61556" lon="4.39337">
        <ele>264.2</ele>
        <time>2022-06-10T14:02:47Z</time>
      </trkpt>
      <trkpt lat="44.61555" lon="4.39336">
        <ele>264.1</ele>
        <time>2022-06-10T14:02:48Z</time>
      </trkpt>
      <trkpt lat="44.61553" lon="4.39336">
        <ele>263.9</ele>
        <time>2022-06-10T14:02:49Z</time>
      </trkpt>
      <trkpt lat="44.61551" lon="4.39336">
        <ele>263.8</ele>
        <time>2022-06-10T14:02:50Z</time>
      </trkpt>
      <trkpt lat="44.61548" lon="4.39338">
        <ele>263.6</ele>
        <time>2022-06-10T14:02:51Z</time>
      </trkpt>
      <trkpt lat="44.61548" lon="4.39338">
        <ele>263.5</ele>
        <time>2022-06-10T14:02:52Z</time>
      </trkpt>
      <trkpt lat="44.61547" lon="4.39339">
        <ele>263.5</ele>
        <time>2022-06-10T14:02:53Z</time>
      </trkpt>
      <trkpt lat="44.61547" lon="4.39339">
        <ele>263.4</ele>
        <time>2022-06-10T14:02:54Z</time>
      </trkpt>
      <trkpt lat="44.61546" lon="4.39339">
        <ele>263.4</ele>
        <time>2022-06-10T14:02:55Z</time>
      </trkpt>
      <trkpt lat="44.61546" lon="4.39339">
        <ele>263.4</ele>
        <time>2022-06-10T14:02:56Z</time>
      </trkpt>
      <trkpt lat="44.61545" lon="4.39339">
        <ele>263.4</ele>
        <time>2022-06-10T14:02:57Z</time>
      </trkpt>
      <trkpt lat="44.61545" lon="4.39339">
        <ele>263.4</ele>
        <time>2022-06-10T14:02:58Z</time>
      </trkpt>
      <trkpt lat="44.61545" lon="4.39339">
        <ele>263.3</ele>
        <time>2022-06-10T14:02:59Z</time>
      </trkpt>
      <trkpt lat="44.61544" lon="4.39339">
        <ele>263.3</ele>
        <time>2022-06-10T14:03:00Z</time>
      </trkpt>
      <trkpt lat="44.61544" lon="4.39339">
        <ele>263.3</ele>
        <time>2022-06-10T14:03:01Z</time>
      </trkpt>
      <trkpt lat="44.61544" lon="4.39339">
        <ele>263.3</ele>
        <time>2022-06-10T14:03:02Z</time>
      </trkpt>
      <trkpt lat="44.61539" lon="4.39341">
        <ele>263</ele>
        <time>2022-06-10T14:03:04Z</time>
      </trkpt>
      <trkpt lat="44.61536" lon="4.39342">
        <ele>262.8</ele>
        <time>2022-06-10T14:03:05Z</time>
      </trkpt>
      <trkpt lat="44.61528" lon="4.3934">
        <ele>262.4</ele>
        <time>2022-06-10T14:03:07Z</time>
      </trkpt>
      <trkpt lat="44.61526" lon="4.39338">
        <ele>262.2</ele>
        <time>2022-06-10T14:03:08Z</time>
      </trkpt>
      <trkpt lat="44.61524" lon="4.39339">
        <ele>262.1</ele>
        <time>2022-06-10T14:03:09Z</time>
      </trkpt>
      <trkpt lat="44.61524" lon="4.39339">
        <ele>262.1</ele>
        <time>2022-06-10T14:03:10Z</time>
      </trkpt>
      <trkpt lat="44.61523" lon="4.39339">
        <ele>262.1</ele>
        <time>2022-06-10T14:03:11Z</time>
      </trkpt>
      <trkpt lat="44.61523" lon="4.39339">
        <ele>262.1</ele>
        <time>2022-06-10T14:03:12Z</time>
      </trkpt>
      <trkpt lat="44.61523" lon="4.39339">
        <ele>262</ele>
        <time>2022-06-10T14:03:13Z</time>
      </trkpt>
      <trkpt lat="44.61523" lon="4.39339">
        <ele>262</ele>
        <time>2022-06-10T14:03:14Z</time>
      </trkpt>
      <trkpt lat="44.61523" lon="4.39339">
        <ele>262</ele>
        <time>2022-06-10T14:03:15Z</time>
      </trkpt>
      <trkpt lat="44.61522" lon="4.39339">
        <ele>262</ele>
        <time>2022-06-10T14:03:16Z</time>
      </trkpt>
      <trkpt lat="44.61522" lon="4.3934">
        <ele>262</ele>
        <time>2022-06-10T14:03:17Z</time>
      </trkpt>
      <trkpt lat="44.61522" lon="4.3934">
        <ele>262</ele>
        <time>2022-06-10T14:03:18Z</time>
      </trkpt>
      <trkpt lat="44.61522" lon="4.3934">
        <ele>262</ele>
        <time>2022-06-10T14:03:19Z</time>
      </trkpt>
      <trkpt lat="44.61522" lon="4.3934">
        <ele>262</ele>
        <time>2022-06-10T14:03:20Z</time>
      </trkpt>
      <trkpt lat="44.61518" lon="4.39342">
        <ele>261.7</ele>
        <time>2022-06-10T14:03:21Z</time>
      </trkpt>
      <trkpt lat="44.61512" lon="4.39345">
        <ele>261.4</ele>
        <time>2022-06-10T14:03:23Z</time>
      </trkpt>
      <trkpt lat="44.61506" lon="4.39347">
        <ele>261.1</ele>
        <time>2022-06-10T14:03:25Z</time>
      </trkpt>
      <trkpt lat="44.61495" lon="4.39344">
        <ele>260.3</ele>
        <time>2022-06-10T14:03:27Z</time>
      </trkpt>
      <trkpt lat="44.61489" lon="4.39344">
        <ele>259.9</ele>
        <time>2022-06-10T14:03:28Z</time>
      </trkpt>
      <trkpt lat="44.61484" lon="4.39343">
        <ele>259.5</ele>
        <time>2022-06-10T14:03:29Z</time>
      </trkpt>
      <trkpt lat="44.61478" lon="4.39343">
        <ele>259.1</ele>
        <time>2022-06-10T14:03:30Z</time>
      </trkpt>
      <trkpt lat="44.61471" lon="4.39342">
        <ele>258.7</ele>
        <time>2022-06-10T14:03:31Z</time>
      </trkpt>
      <trkpt lat="44.61465" lon="4.39341">
        <ele>258.3</ele>
        <time>2022-06-10T14:03:32Z</time>
      </trkpt>
      <trkpt lat="44.61458" lon="4.3934">
        <ele>257.8</ele>
        <time>2022-06-10T14:03:33Z</time>
      </trkpt>
      <trkpt lat="44.61451" lon="4.3934">
        <ele>257.4</ele>
        <time>2022-06-10T14:03:34Z</time>
      </trkpt>
      <trkpt lat="44.61444" lon="4.39339">
        <ele>256.9</ele>
        <time>2022-06-10T14:03:35Z</time>
      </trkpt>
      <trkpt lat="44.61437" lon="4.39339">
        <ele>256.5</ele>
        <time>2022-06-10T14:03:36Z</time>
      </trkpt>
      <trkpt lat="44.61431" lon="4.39338">
        <ele>256.1</ele>
        <time>2022-06-10T14:03:37Z</time>
      </trkpt>
      <trkpt lat="44.61424" lon="4.39338">
        <ele>255.7</ele>
        <time>2022-06-10T14:03:38Z</time>
      </trkpt>
      <trkpt lat="44.61417" lon="4.39338">
        <ele>255.3</ele>
        <time>2022-06-10T14:03:39Z</time>
      </trkpt>
      <trkpt lat="44.61411" lon="4.39339">
        <ele>254.9</ele>
        <time>2022-06-10T14:03:40Z</time>
      </trkpt>
      <trkpt lat="44.61405" lon="4.39341">
        <ele>254.9</ele>
        <time>2022-06-10T14:03:41Z</time>
      </trkpt>
      <trkpt lat="44.61399" lon="4.39344">
        <ele>255</ele>
        <time>2022-06-10T14:03:42Z</time>
      </trkpt>
      <trkpt lat="44.61393" lon="4.39347">
        <ele>255.2</ele>
        <time>2022-06-10T14:03:43Z</time>
      </trkpt>
      <trkpt lat="44.61388" lon="4.39349">
        <ele>255.2</ele>
        <time>2022-06-10T14:03:44Z</time>
      </trkpt>
      <trkpt lat="44.61385" lon="4.3935">
        <ele>255.1</ele>
        <time>2022-06-10T14:03:45Z</time>
      </trkpt>
      <trkpt lat="44.61384" lon="4.39351">
        <ele>255.1</ele>
        <time>2022-06-10T14:03:46Z</time>
      </trkpt>
      <trkpt lat="44.61383" lon="4.39352">
        <ele>255</ele>
        <time>2022-06-10T14:03:47Z</time>
      </trkpt>
      <trkpt lat="44.61379" lon="4.39353">
        <ele>254.8</ele>
        <time>2022-06-10T14:03:48Z</time>
      </trkpt>
      <trkpt lat="44.61378" lon="4.39354">
        <ele>254.7</ele>
        <time>2022-06-10T14:03:49Z</time>
      </trkpt>
      <trkpt lat="44.61374" lon="4.39355">
        <ele>254.1</ele>
        <time>2022-06-10T14:03:50Z</time>
      </trkpt>
      <trkpt lat="44.61371" lon="4.39356">
        <ele>253.6</ele>
        <time>2022-06-10T14:03:51Z</time>
      </trkpt>
      <trkpt lat="44.61365" lon="4.39358">
        <ele>252.8</ele>
        <time>2022-06-10T14:03:52Z</time>
      </trkpt>
      <trkpt lat="44.61359" lon="4.39362">
        <ele>251.7</ele>
        <time>2022-06-10T14:03:53Z</time>
      </trkpt>
      <trkpt lat="44.61353" lon="4.39365">
        <ele>251.1</ele>
        <time>2022-06-10T14:03:54Z</time>
      </trkpt>
      <trkpt lat="44.61348" lon="4.39368">
        <ele>250.6</ele>
        <time>2022-06-10T14:03:55Z</time>
      </trkpt>
      <trkpt lat="44.61341" lon="4.3937">
        <ele>250.2</ele>
        <time>2022-06-10T14:03:56Z</time>
      </trkpt>
      <trkpt lat="44.61334" lon="4.39372">
        <ele>249.7</ele>
        <time>2022-06-10T14:03:57Z</time>
      </trkpt>
      <trkpt lat="44.61327" lon="4.39371">
        <ele>249.2</ele>
        <time>2022-06-10T14:03:58Z</time>
      </trkpt>
      <trkpt lat="44.6132" lon="4.39368">
        <ele>248.6</ele>
        <time>2022-06-10T14:03:59Z</time>
      </trkpt>
      <trkpt lat="44.61313" lon="4.39363">
        <ele>248.1</ele>
        <time>2022-06-10T14:04:00Z</time>
      </trkpt>
      <trkpt lat="44.61306" lon="4.39358">
        <ele>247.6</ele>
        <time>2022-06-10T14:04:01Z</time>
      </trkpt>
      <trkpt lat="44.61299" lon="4.3935">
        <ele>247.1</ele>
        <time>2022-06-10T14:04:02Z</time>
      </trkpt>
      <trkpt lat="44.61293" lon="4.39342">
        <ele>246.6</ele>
        <time>2022-06-10T14:04:03Z</time>
      </trkpt>
      <trkpt lat="44.61288" lon="4.39334">
        <ele>246.1</ele>
        <time>2022-06-10T14:04:04Z</time>
      </trkpt>
      <trkpt lat="44.61282" lon="4.39325">
        <ele>245.6</ele>
        <time>2022-06-10T14:04:05Z</time>
      </trkpt>
      <trkpt lat="44.61275" lon="4.39316">
        <ele>245.1</ele>
        <time>2022-06-10T14:04:06Z</time>
      </trkpt>
      <trkpt lat="44.61269" lon="4.39307">
        <ele>244.5</ele>
        <time>2022-06-10T14:04:07Z</time>
      </trkpt>
      <trkpt lat="44.61262" lon="4.39298">
        <ele>244.2</ele>
        <time>2022-06-10T14:04:08Z</time>
      </trkpt>
      <trkpt lat="44.61256" lon="4.39288">
        <ele>243.8</ele>
        <time>2022-06-10T14:04:09Z</time>
      </trkpt>
      <trkpt lat="44.6125" lon="4.39278">
        <ele>243.5</ele>
        <time>2022-06-10T14:04:10Z</time>
      </trkpt>
      <trkpt lat="44.61243" lon="4.39268">
        <ele>243.1</ele>
        <time>2022-06-10T14:04:11Z</time>
      </trkpt>
      <trkpt lat="44.61237" lon="4.39258">
        <ele>242.6</ele>
        <time>2022-06-10T14:04:12Z</time>
      </trkpt>
      <trkpt lat="44.61231" lon="4.39248">
        <ele>242.2</ele>
        <time>2022-06-10T14:04:13Z</time>
      </trkpt>
      <trkpt lat="44.61224" lon="4.39238">
        <ele>241.9</ele>
        <time>2022-06-10T14:04:14Z</time>
      </trkpt>
      <trkpt lat="44.61218" lon="4.39228">
        <ele>241.6</ele>
        <time>2022-06-10T14:04:15Z</time>
      </trkpt>
      <trkpt lat="44.61211" lon="4.39218">
        <ele>241.3</ele>
        <time>2022-06-10T14:04:16Z</time>
      </trkpt>
      <trkpt lat="44.61205" lon="4.39207">
        <ele>241.1</ele>
        <time>2022-06-10T14:04:17Z</time>
      </trkpt>
      <trkpt lat="44.61199" lon="4.39198">
        <ele>241</ele>
        <time>2022-06-10T14:04:18Z</time>
      </trkpt>
      <trkpt lat="44.61193" lon="4.39188">
        <ele>240.9</ele>
        <time>2022-06-10T14:04:19Z</time>
      </trkpt>
      <trkpt lat="44.61188" lon="4.3918">
        <ele>240.8</ele>
        <time>2022-06-10T14:04:20Z</time>
      </trkpt>
      <trkpt lat="44.61183" lon="4.39173">
        <ele>240.7</ele>
        <time>2022-06-10T14:04:21Z</time>
      </trkpt>
      <trkpt lat="44.61178" lon="4.39166">
        <ele>240.5</ele>
        <time>2022-06-10T14:04:22Z</time>
      </trkpt>
      <trkpt lat="44.61174" lon="4.39159">
        <ele>240.4</ele>
        <time>2022-06-10T14:04:23Z</time>
      </trkpt>
      <trkpt lat="44.61169" lon="4.39152">
        <ele>240.2</ele>
        <time>2022-06-10T14:04:24Z</time>
      </trkpt>
      <trkpt lat="44.61165" lon="4.39144">
        <ele>240</ele>
        <time>2022-06-10T14:04:25Z</time>
      </trkpt>
      <trkpt lat="44.61161" lon="4.39137">
        <ele>239.8</ele>
        <time>2022-06-10T14:04:26Z</time>
      </trkpt>
      <trkpt lat="44.61156" lon="4.3913">
        <ele>239.7</ele>
        <time>2022-06-10T14:04:27Z</time>
      </trkpt>
      <trkpt lat="44.61151" lon="4.39124">
        <ele>239.6</ele>
        <time>2022-06-10T14:04:28Z</time>
      </trkpt>
      <trkpt lat="44.61147" lon="4.39117">
        <ele>239.5</ele>
        <time>2022-06-10T14:04:29Z</time>
      </trkpt>
      <trkpt lat="44.61143" lon="4.39111">
        <ele>239.4</ele>
        <time>2022-06-10T14:04:30Z</time>
      </trkpt>
      <trkpt lat="44.61138" lon="4.39105">
        <ele>239.3</ele>
        <time>2022-06-10T14:04:31Z</time>
      </trkpt>
      <trkpt lat="44.61134" lon="4.39099">
        <ele>239.3</ele>
        <time>2022-06-10T14:04:32Z</time>
      </trkpt>
      <trkpt lat="44.6113" lon="4.39092">
        <ele>239.2</ele>
        <time>2022-06-10T14:04:33Z</time>
      </trkpt>
      <trkpt lat="44.61126" lon="4.39086">
        <ele>239.2</ele>
        <time>2022-06-10T14:04:34Z</time>
      </trkpt>
      <trkpt lat="44.61122" lon="4.39079">
        <ele>239.1</ele>
        <time>2022-06-10T14:04:35Z</time>
      </trkpt>
      <trkpt lat="44.61118" lon="4.39073">
        <ele>239.1</ele>
        <time>2022-06-10T14:04:36Z</time>
      </trkpt>
      <trkpt lat="44.61113" lon="4.39068">
        <ele>239</ele>
        <time>2022-06-10T14:04:37Z</time>
      </trkpt>
      <trkpt lat="44.61109" lon="4.39062">
        <ele>239</ele>
        <time>2022-06-10T14:04:38Z</time>
      </trkpt>
      <trkpt lat="44.61104" lon="4.39058">
        <ele>238.9</ele>
        <time>2022-06-10T14:04:39Z</time>
      </trkpt>
      <trkpt lat="44.61099" lon="4.39053">
        <ele>238.9</ele>
        <time>2022-06-10T14:04:40Z</time>
      </trkpt>
      <trkpt lat="44.61094" lon="4.39049">
        <ele>238.9</ele>
        <time>2022-06-10T14:04:41Z</time>
      </trkpt>
      <trkpt lat="44.61089" lon="4.39045">
        <ele>238.9</ele>
        <time>2022-06-10T14:04:42Z</time>
      </trkpt>
      <trkpt lat="44.61085" lon="4.39039">
        <ele>238.9</ele>
        <time>2022-06-10T14:04:43Z</time>
      </trkpt>
      <trkpt lat="44.61081" lon="4.39033">
        <ele>238.9</ele>
        <time>2022-06-10T14:04:44Z</time>
      </trkpt>
      <trkpt lat="44.61078" lon="4.39027">
        <ele>239</ele>
        <time>2022-06-10T14:04:45Z</time>
      </trkpt>
      <trkpt lat="44.61077" lon="4.3902">
        <ele>239</ele>
        <time>2022-06-10T14:04:46Z</time>
      </trkpt>
      <trkpt lat="44.61076" lon="4.39013">
        <ele>239.2</ele>
        <time>2022-06-10T14:04:47Z</time>
      </trkpt>
      <trkpt lat="44.61075" lon="4.39007">
        <ele>239.2</ele>
        <time>2022-06-10T14:04:48Z</time>
      </trkpt>
      <trkpt lat="44.61073" lon="4.39001">
        <ele>239.2</ele>
        <time>2022-06-10T14:04:49Z</time>
      </trkpt>
      <trkpt lat="44.61069" lon="4.38996">
        <ele>239.2</ele>
        <time>2022-06-10T14:04:50Z</time>
      </trkpt>
      <trkpt lat="44.61064" lon="4.38993">
        <ele>239.2</ele>
        <time>2022-06-10T14:04:51Z</time>
      </trkpt>
      <trkpt lat="44.61059" lon="4.38992">
        <ele>239.3</ele>
        <time>2022-06-10T14:04:52Z</time>
      </trkpt>
      <trkpt lat="44.61054" lon="4.38992">
        <ele>239.3</ele>
        <time>2022-06-10T14:04:53Z</time>
      </trkpt>
      <trkpt lat="44.6105" lon="4.38995">
        <ele>239.3</ele>
        <time>2022-06-10T14:04:54Z</time>
      </trkpt>
      <trkpt lat="44.61045" lon="4.38998">
        <ele>239.3</ele>
        <time>2022-06-10T14:04:55Z</time>
      </trkpt>
      <trkpt lat="44.61041" lon="4.38998">
        <ele>238.9</ele>
        <time>2022-06-10T14:04:56Z</time>
      </trkpt>
      <trkpt lat="44.61038" lon="4.38995">
        <ele>238.6</ele>
        <time>2022-06-10T14:04:57Z</time>
      </trkpt>
      <trkpt lat="44.61034" lon="4.38992">
        <ele>238.2</ele>
        <time>2022-06-10T14:04:58Z</time>
      </trkpt>
      <trkpt lat="44.61031" lon="4.38988">
        <ele>237.9</ele>
        <time>2022-06-10T14:04:59Z</time>
      </trkpt>
      <trkpt lat="44.61028" lon="4.38982">
        <ele>237.8</ele>
        <time>2022-06-10T14:05:00Z</time>
      </trkpt>
      <trkpt lat="44.61026" lon="4.38976">
        <ele>237.4</ele>
        <time>2022-06-10T14:05:01Z</time>
      </trkpt>
      <trkpt lat="44.61023" lon="4.38969">
        <ele>237.1</ele>
        <time>2022-06-10T14:05:02Z</time>
      </trkpt>
      <trkpt lat="44.6102" lon="4.38963">
        <ele>236.7</ele>
        <time>2022-06-10T14:05:03Z</time>
      </trkpt>
      <trkpt lat="44.61015" lon="4.38958">
        <ele>236.2</ele>
        <time>2022-06-10T14:05:04Z</time>
      </trkpt>
      <trkpt lat="44.61009" lon="4.38955">
        <ele>235.8</ele>
        <time>2022-06-10T14:05:05Z</time>
      </trkpt>
      <trkpt lat="44.61002" lon="4.38954">
        <ele>235.3</ele>
        <time>2022-06-10T14:05:06Z</time>
      </trkpt>
      <trkpt lat="44.60996" lon="4.38954">
        <ele>234.8</ele>
        <time>2022-06-10T14:05:07Z</time>
      </trkpt>
      <trkpt lat="44.6099" lon="4.38956">
        <ele>234.4</ele>
        <time>2022-06-10T14:05:08Z</time>
      </trkpt>
      <trkpt lat="44.60984" lon="4.38958">
        <ele>234</ele>
        <time>2022-06-10T14:05:09Z</time>
      </trkpt>
      <trkpt lat="44.60979" lon="4.38961">
        <ele>233.7</ele>
        <time>2022-06-10T14:05:10Z</time>
      </trkpt>
      <trkpt lat="44.60975" lon="4.38965">
        <ele>233.4</ele>
        <time>2022-06-10T14:05:11Z</time>
      </trkpt>
      <trkpt lat="44.60971" lon="4.38969">
        <ele>233.2</ele>
        <time>2022-06-10T14:05:12Z</time>
      </trkpt>
      <trkpt lat="44.60968" lon="4.3897">
        <ele>233</ele>
        <time>2022-06-10T14:05:13Z</time>
      </trkpt>
      <trkpt lat="44.60965" lon="4.38972">
        <ele>232.9</ele>
        <time>2022-06-10T14:05:14Z</time>
      </trkpt>
      <trkpt lat="44.60962" lon="4.38975">
        <ele>232.7</ele>
        <time>2022-06-10T14:05:15Z</time>
      </trkpt>
      <trkpt lat="44.6096" lon="4.38979">
        <ele>232.5</ele>
        <time>2022-06-10T14:05:16Z</time>
      </trkpt>
      <trkpt lat="44.60957" lon="4.38983">
        <ele>232.4</ele>
        <time>2022-06-10T14:05:17Z</time>
      </trkpt>
      <trkpt lat="44.60956" lon="4.38984">
        <ele>232.3</ele>
        <time>2022-06-10T14:05:18Z</time>
      </trkpt>
      <trkpt lat="44.60956" lon="4.38985">
        <ele>232.3</ele>
        <time>2022-06-10T14:05:19Z</time>
      </trkpt>
      <trkpt lat="44.60956" lon="4.38985">
        <ele>232.3</ele>
        <time>2022-06-10T14:05:20Z</time>
      </trkpt>
      <trkpt lat="44.60956" lon="4.38986">
        <ele>232.2</ele>
        <time>2022-06-10T14:05:21Z</time>
      </trkpt>
      <trkpt lat="44.60956" lon="4.38986">
        <ele>232.2</ele>
        <time>2022-06-10T14:05:22Z</time>
      </trkpt>
      <trkpt lat="44.60956" lon="4.38986">
        <ele>232.2</ele>
        <time>2022-06-10T14:05:23Z</time>
      </trkpt>
      <trkpt lat="44.60956" lon="4.38986">
        <ele>232.2</ele>
        <time>2022-06-10T14:05:24Z</time>
      </trkpt>
      <trkpt lat="44.60957" lon="4.38986">
        <ele>232.2</ele>
        <time>2022-06-10T14:05:25Z</time>
      </trkpt>
      <trkpt lat="44.60956" lon="4.38986">
        <ele>232.2</ele>
        <time>2022-06-10T14:05:26Z</time>
      </trkpt>
      <trkpt lat="44.60956" lon="4.38986">
        <ele>232.2</ele>
        <time>2022-06-10T14:05:27Z</time>
      </trkpt>
      <trkpt lat="44.60956" lon="4.38987">
        <ele>232.2</ele>
        <time>2022-06-10T14:05:28Z</time>
      </trkpt>
      <trkpt lat="44.60956" lon="4.38987">
        <ele>232.2</ele>
        <time>2022-06-10T14:05:29Z</time>
      </trkpt>
      <trkpt lat="44.60956" lon="4.38987">
        <ele>232.1</ele>
        <time>2022-06-10T14:05:30Z</time>
      </trkpt>
      <trkpt lat="44.60957" lon="4.38988">
        <ele>232.1</ele>
        <time>2022-06-10T14:05:49Z</time>
      </trkpt>
      <trkpt lat="44.60957" lon="4.3899">
        <ele>232</ele>
        <time>2022-06-10T14:05:50Z</time>
      </trkpt>
      <trkpt lat="44.60958" lon="4.38992">
        <ele>231.9</ele>
        <time>2022-06-10T14:05:51Z</time>
      </trkpt>
      <trkpt lat="44.60958" lon="4.38993">
        <ele>231.9</ele>
        <time>2022-06-10T14:05:52Z</time>
      </trkpt>
      <trkpt lat="44.60959" lon="4.38994">
        <ele>231.8</ele>
        <time>2022-06-10T14:05:53Z</time>
      </trkpt>
      <trkpt lat="44.6096" lon="4.38995">
        <ele>231.8</ele>
        <time>2022-06-10T14:05:54Z</time>
      </trkpt>
      <trkpt lat="44.60962" lon="4.38994">
        <ele>231.9</ele>
        <time>2022-06-10T14:05:55Z</time>
      </trkpt>
      <trkpt lat="44.60963" lon="4.38993">
        <ele>232</ele>
        <time>2022-06-10T14:05:56Z</time>
      </trkpt>
      <trkpt lat="44.60964" lon="4.38989">
        <ele>232.2</ele>
        <time>2022-06-10T14:05:57Z</time>
      </trkpt>
      <trkpt lat="44.60964" lon="4.38988">
        <ele>232.2</ele>
        <time>2022-06-10T14:05:58Z</time>
      </trkpt>
      <trkpt lat="44.60966" lon="4.38985">
        <ele>232.4</ele>
        <time>2022-06-10T14:05:59Z</time>
      </trkpt>
      <trkpt lat="44.60967" lon="4.38987">
        <ele>232.5</ele>
        <time>2022-06-10T14:06:00Z</time>
      </trkpt>
      <trkpt lat="44.60969" lon="4.38986">
        <ele>232.7</ele>
        <time>2022-06-10T14:06:01Z</time>
      </trkpt>
      <trkpt lat="44.6097" lon="4.38984">
        <ele>232.8</ele>
        <time>2022-06-10T14:06:02Z</time>
      </trkpt>
      <trkpt lat="44.60971" lon="4.38981">
        <ele>232.9</ele>
        <time>2022-06-10T14:06:03Z</time>
      </trkpt>
      <trkpt lat="44.60972" lon="4.3898">
        <ele>233</ele>
        <time>2022-06-10T14:06:04Z</time>
      </trkpt>
      <trkpt lat="44.60975" lon="4.3898">
        <ele>233.5</ele>
        <time>2022-06-10T14:06:06Z</time>
      </trkpt>
      <trkpt lat="44.60978" lon="4.38982">
        <ele>233.4</ele>
        <time>2022-06-10T14:06:07Z</time>
      </trkpt>
      <trkpt lat="44.6098" lon="4.38989">
        <ele>233.4</ele>
        <time>2022-06-10T14:06:08Z</time>
      </trkpt>
      <trkpt lat="44.60983" lon="4.38992">
        <ele>233.3</ele>
        <time>2022-06-10T14:06:10Z</time>
      </trkpt>
      <trkpt lat="44.60986" lon="4.38996">
        <ele>233.3</ele>
        <time>2022-06-10T14:06:11Z</time>
      </trkpt>
      <trkpt lat="44.6099" lon="4.39001">
        <ele>233.2</ele>
        <time>2022-06-10T14:06:12Z</time>
      </trkpt>
      <trkpt lat="44.60992" lon="4.39005">
        <ele>233.2</ele>
        <time>2022-06-10T14:06:13Z</time>
      </trkpt>
      <trkpt lat="44.60995" lon="4.39009">
        <ele>233.2</ele>
        <time>2022-06-10T14:06:14Z</time>
      </trkpt>
      <trkpt lat="44.60997" lon="4.39013">
        <ele>233.2</ele>
        <time>2022-06-10T14:06:16Z</time>
      </trkpt>
      <trkpt lat="44.61" lon="4.39016">
        <ele>233.2</ele>
        <time>2022-06-10T14:06:17Z</time>
      </trkpt>
      <trkpt lat="44.61002" lon="4.3902">
        <ele>233.2</ele>
        <time>2022-06-10T14:06:18Z</time>
      </trkpt>
      <trkpt lat="44.61004" lon="4.39023">
        <ele>233.2</ele>
        <time>2022-06-10T14:06:19Z</time>
      </trkpt>
      <trkpt lat="44.61007" lon="4.39026">
        <ele>233.2</ele>
        <time>2022-06-10T14:06:20Z</time>
      </trkpt>
      <trkpt lat="44.61009" lon="4.3903">
        <ele>233.2</ele>
        <time>2022-06-10T14:06:21Z</time>
      </trkpt>
      <trkpt lat="44.61011" lon="4.39034">
        <ele>233.3</ele>
        <time>2022-06-10T14:06:22Z</time>
      </trkpt>
      <trkpt lat="44.61013" lon="4.39039">
        <ele>233.3</ele>
        <time>2022-06-10T14:06:23Z</time>
      </trkpt>
      <trkpt lat="44.61015" lon="4.39044">
        <ele>233.3</ele>
        <time>2022-06-10T14:06:24Z</time>
      </trkpt>
      <trkpt lat="44.61017" lon="4.39053">
        <ele>233.3</ele>
        <time>2022-06-10T14:06:26Z</time>
      </trkpt>
      <trkpt lat="44.61019" lon="4.39057">
        <ele>233.3</ele>
        <time>2022-06-10T14:06:27Z</time>
      </trkpt>
      <trkpt lat="44.61021" lon="4.3906">
        <ele>233.6</ele>
        <time>2022-06-10T14:06:28Z</time>
      </trkpt>
      <trkpt lat="44.61025" lon="4.39062">
        <ele>233.8</ele>
        <time>2022-06-10T14:06:29Z</time>
      </trkpt>
      <trkpt lat="44.61028" lon="4.39064">
        <ele>234.3</ele>
        <time>2022-06-10T14:06:30Z</time>
      </trkpt>
      <trkpt lat="44.61031" lon="4.39065">
        <ele>234.6</ele>
        <time>2022-06-10T14:06:32Z</time>
      </trkpt>
      <trkpt lat="44.61031" lon="4.39066">
        <ele>234.7</ele>
        <time>2022-06-10T14:06:33Z</time>
      </trkpt>
      <trkpt lat="44.61032" lon="4.39066">
        <ele>234.8</ele>
        <time>2022-06-10T14:06:34Z</time>
      </trkpt>
      <trkpt lat="44.6103" lon="4.39065">
        <ele>235</ele>
        <time>2022-06-10T14:06:35Z</time>
      </trkpt>
      <trkpt lat="44.6103" lon="4.39065">
        <ele>235.1</ele>
        <time>2022-06-10T14:06:36Z</time>
      </trkpt>
      <trkpt lat="44.6103" lon="4.39065">
        <ele>235.1</ele>
        <time>2022-06-10T14:06:37Z</time>
      </trkpt>
      <trkpt lat="44.6103" lon="4.39065">
        <ele>235.1</ele>
        <time>2022-06-10T14:06:38Z</time>
      </trkpt>
      <trkpt lat="44.6103" lon="4.39065">
        <ele>235.1</ele>
        <time>2022-06-10T14:06:39Z</time>
      </trkpt>
      <trkpt lat="44.6103" lon="4.39065">
        <ele>235.1</ele>
        <time>2022-06-10T14:06:40Z</time>
      </trkpt>
      <trkpt lat="44.6103" lon="4.39065">
        <ele>235.1</ele>
        <time>2022-06-10T14:06:41Z</time>
      </trkpt>
      <trkpt lat="44.6103" lon="4.39065">
        <ele>235.1</ele>
        <time>2022-06-10T14:06:42Z</time>
      </trkpt>
      <trkpt lat="44.6103" lon="4.39064">
        <ele>235.1</ele>
        <time>2022-06-10T14:06:43Z</time>
      </trkpt>
      <trkpt lat="44.6103" lon="4.39064">
        <ele>235.2</ele>
        <time>2022-06-10T14:06:44Z</time>
      </trkpt>
      <trkpt lat="44.61036" lon="4.39068">
        <ele>236.2</ele>
        <time>2022-06-10T14:06:52Z</time>
      </trkpt>
      <trkpt lat="44.61037" lon="4.39069">
        <ele>236.5</ele>
        <time>2022-06-10T14:06:53Z</time>
      </trkpt>
      <trkpt lat="44.61038" lon="4.3907">
        <ele>236.7</ele>
        <time>2022-06-10T14:06:54Z</time>
      </trkpt>
      <trkpt lat="44.61039" lon="4.39071">
        <ele>236.9</ele>
        <time>2022-06-10T14:06:55Z</time>
      </trkpt>
      <trkpt lat="44.6104" lon="4.39072">
        <ele>237.1</ele>
        <time>2022-06-10T14:06:56Z</time>
      </trkpt>
      <trkpt lat="44.61041" lon="4.39072">
        <ele>237.2</ele>
        <time>2022-06-10T14:06:57Z</time>
      </trkpt>
      <trkpt lat="44.61041" lon="4.39073">
        <ele>237.4</ele>
        <time>2022-06-10T14:06:58Z</time>
      </trkpt>
      <trkpt lat="44.61042" lon="4.39074">
        <ele>237.5</ele>
        <time>2022-06-10T14:06:59Z</time>
      </trkpt>
      <trkpt lat="44.61043" lon="4.39075">
        <ele>237.7</ele>
        <time>2022-06-10T14:07:00Z</time>
      </trkpt>
      <trkpt lat="44.61043" lon="4.39076">
        <ele>237.8</ele>
        <time>2022-06-10T14:07:01Z</time>
      </trkpt>
      <trkpt lat="44.61044" lon="4.39079">
        <ele>238.1</ele>
        <time>2022-06-10T14:07:02Z</time>
      </trkpt>
      <trkpt lat="44.61045" lon="4.3908">
        <ele>238.2</ele>
        <time>2022-06-10T14:07:03Z</time>
      </trkpt>
      <trkpt lat="44.61045" lon="4.3908">
        <ele>238.3</ele>
        <time>2022-06-10T14:07:04Z</time>
      </trkpt>
      <trkpt lat="44.61046" lon="4.39083">
        <ele>238.5</ele>
        <time>2022-06-10T14:07:05Z</time>
      </trkpt>
      <trkpt lat="44.61047" lon="4.39084">
        <ele>238.7</ele>
        <time>2022-06-10T14:07:06Z</time>
      </trkpt>
      <trkpt lat="44.61048" lon="4.39087">
        <ele>238.9</ele>
        <time>2022-06-10T14:07:08Z</time>
      </trkpt>
      <trkpt lat="44.61049" lon="4.39088">
        <ele>239</ele>
        <time>2022-06-10T14:07:09Z</time>
      </trkpt>
      <trkpt lat="44.61049" lon="4.39089">
        <ele>239</ele>
        <time>2022-06-10T14:07:10Z</time>
      </trkpt>
      <trkpt lat="44.61049" lon="4.39091">
        <ele>239.1</ele>
        <time>2022-06-10T14:07:11Z</time>
      </trkpt>
      <trkpt lat="44.6105" lon="4.39093">
        <ele>239.3</ele>
        <time>2022-06-10T14:07:12Z</time>
      </trkpt>
      <trkpt lat="44.61051" lon="4.39096">
        <ele>239.4</ele>
        <time>2022-06-10T14:07:14Z</time>
      </trkpt>
      <trkpt lat="44.61052" lon="4.39097">
        <ele>239.5</ele>
        <time>2022-06-10T14:07:15Z</time>
      </trkpt>
      <trkpt lat="44.61052" lon="4.39099">
        <ele>239.5</ele>
        <time>2022-06-10T14:07:16Z</time>
      </trkpt>
      <trkpt lat="44.61053" lon="4.39102">
        <ele>239.6</ele>
        <time>2022-06-10T14:07:17Z</time>
      </trkpt>
      <trkpt lat="44.61054" lon="4.39103">
        <ele>239.7</ele>
        <time>2022-06-10T14:07:19Z</time>
      </trkpt>
      <trkpt lat="44.61056" lon="4.39104">
        <ele>239.8</ele>
        <time>2022-06-10T14:07:20Z</time>
      </trkpt>
      <trkpt lat="44.61057" lon="4.39105">
        <ele>239.9</ele>
        <time>2022-06-10T14:07:21Z</time>
      </trkpt>
      <trkpt lat="44.61059" lon="4.39106">
        <ele>239.9</ele>
        <time>2022-06-10T14:07:22Z</time>
      </trkpt>
      <trkpt lat="44.61061" lon="4.39106">
        <ele>240</ele>
        <time>2022-06-10T14:07:23Z</time>
      </trkpt>
      <trkpt lat="44.61062" lon="4.39106">
        <ele>240.1</ele>
        <time>2022-06-10T14:07:24Z</time>
      </trkpt>
      <trkpt lat="44.61064" lon="4.39105">
        <ele>240.2</ele>
        <time>2022-06-10T14:07:25Z</time>
      </trkpt>
      <trkpt lat="44.61065" lon="4.39104">
        <ele>240.3</ele>
        <time>2022-06-10T14:07:26Z</time>
      </trkpt>
      <trkpt lat="44.61066" lon="4.39101">
        <ele>240.4</ele>
        <time>2022-06-10T14:07:27Z</time>
      </trkpt>
      <trkpt lat="44.61067" lon="4.39099">
        <ele>240.5</ele>
        <time>2022-06-10T14:07:29Z</time>
      </trkpt>
      <trkpt lat="44.61068" lon="4.39097">
        <ele>240.5</ele>
        <time>2022-06-10T14:07:30Z</time>
      </trkpt>
      <trkpt lat="44.61068" lon="4.39095">
        <ele>240.2</ele>
        <time>2022-06-10T14:07:31Z</time>
      </trkpt>
      <trkpt lat="44.61068" lon="4.39094">
        <ele>240.2</ele>
        <time>2022-06-10T14:07:32Z</time>
      </trkpt>
      <trkpt lat="44.61068" lon="4.3909">
        <ele>240.1</ele>
        <time>2022-06-10T14:07:34Z</time>
      </trkpt>
      <trkpt lat="44.61068" lon="4.39089">
        <ele>240.1</ele>
        <time>2022-06-10T14:07:35Z</time>
      </trkpt>
      <trkpt lat="44.61068" lon="4.39088">
        <ele>240.1</ele>
        <time>2022-06-10T14:07:36Z</time>
      </trkpt>
      <trkpt lat="44.61067" lon="4.39086">
        <ele>240</ele>
        <time>2022-06-10T14:07:37Z</time>
      </trkpt>
      <trkpt lat="44.61066" lon="4.39084">
        <ele>240</ele>
        <time>2022-06-10T14:07:39Z</time>
      </trkpt>
      <trkpt lat="44.61065" lon="4.39082">
        <ele>239.9</ele>
        <time>2022-06-10T14:07:40Z</time>
      </trkpt>
      <trkpt lat="44.61064" lon="4.39081">
        <ele>239.9</ele>
        <time>2022-06-10T14:07:41Z</time>
      </trkpt>
      <trkpt lat="44.61062" lon="4.39079">
        <ele>239.8</ele>
        <time>2022-06-10T14:07:43Z</time>
      </trkpt>
      <trkpt lat="44.61061" lon="4.39077">
        <ele>239.8</ele>
        <time>2022-06-10T14:07:44Z</time>
      </trkpt>
      <trkpt lat="44.61061" lon="4.39075">
        <ele>239.7</ele>
        <time>2022-06-10T14:07:45Z</time>
      </trkpt>
      <trkpt lat="44.6106" lon="4.39073">
        <ele>239.7</ele>
        <time>2022-06-10T14:07:46Z</time>
      </trkpt>
      <trkpt lat="44.61059" lon="4.39071">
        <ele>239.7</ele>
        <time>2022-06-10T14:07:48Z</time>
      </trkpt>
      <trkpt lat="44.61057" lon="4.3907">
        <ele>239.8</ele>
        <time>2022-06-10T14:07:49Z</time>
      </trkpt>
      <trkpt lat="44.61056" lon="4.39072">
        <ele>239.8</ele>
        <time>2022-06-10T14:07:51Z</time>
      </trkpt>
      <trkpt lat="44.61055" lon="4.39074">
        <ele>239.8</ele>
        <time>2022-06-10T14:07:52Z</time>
      </trkpt>
      <trkpt lat="44.61056" lon="4.39075">
        <ele>239.9</ele>
        <time>2022-06-10T14:07:53Z</time>
      </trkpt>
      <trkpt lat="44.61056" lon="4.39077">
        <ele>239.9</ele>
        <time>2022-06-10T14:07:54Z</time>
      </trkpt>
      <trkpt lat="44.61057" lon="4.39078">
        <ele>239.9</ele>
        <time>2022-06-10T14:07:55Z</time>
      </trkpt>
      <trkpt lat="44.61059" lon="4.39078">
        <ele>239.9</ele>
        <time>2022-06-10T14:07:56Z</time>
      </trkpt>
      <trkpt lat="44.6106" lon="4.39078">
        <ele>240</ele>
        <time>2022-06-10T14:07:57Z</time>
      </trkpt>
      <trkpt lat="44.6106" lon="4.39079">
        <ele>240</ele>
        <time>2022-06-10T14:07:58Z</time>
      </trkpt>
      <trkpt lat="44.61061" lon="4.39079">
        <ele>240</ele>
        <time>2022-06-10T14:07:59Z</time>
      </trkpt>
      <trkpt lat="44.61061" lon="4.39079">
        <ele>240</ele>
        <time>2022-06-10T14:08:00Z</time>
      </trkpt>
      <trkpt lat="44.61061" lon="4.39079">
        <ele>240</ele>
        <time>2022-06-10T14:08:01Z</time>
      </trkpt>
      <trkpt lat="44.61062" lon="4.39079">
        <ele>240</ele>
        <time>2022-06-10T14:08:02Z</time>
      </trkpt>
      <trkpt lat="44.61064" lon="4.39081">
        <ele>240.1</ele>
        <time>2022-06-10T14:08:03Z</time>
      </trkpt>
      <trkpt lat="44.61066" lon="4.39084">
        <ele>240.1</ele>
        <time>2022-06-10T14:08:04Z</time>
      </trkpt>
      <trkpt lat="44.61067" lon="4.39087">
        <ele>240.2</ele>
        <time>2022-06-10T14:08:05Z</time>
      </trkpt>
      <trkpt lat="44.6107" lon="4.39091">
        <ele>240.3</ele>
        <time>2022-06-10T14:08:07Z</time>
      </trkpt>
      <trkpt lat="44.61071" lon="4.39092">
        <ele>240.3</ele>
        <time>2022-06-10T14:08:08Z</time>
      </trkpt>
      <trkpt lat="44.61071" lon="4.39094">
        <ele>240.3</ele>
        <time>2022-06-10T14:08:09Z</time>
      </trkpt>
      <trkpt lat="44.61072" lon="4.39096">
        <ele>240.3</ele>
        <time>2022-06-10T14:08:10Z</time>
      </trkpt>
      <trkpt lat="44.61074" lon="4.39098">
        <ele>240.4</ele>
        <time>2022-06-10T14:08:12Z</time>
      </trkpt>
      <trkpt lat="44.61074" lon="4.39099">
        <ele>240.4</ele>
        <time>2022-06-10T14:08:13Z</time>
      </trkpt>
      <trkpt lat="44.61074" lon="4.391">
        <ele>240.4</ele>
        <time>2022-06-10T14:08:14Z</time>
      </trkpt>
      <trkpt lat="44.61074" lon="4.391">
        <ele>240.4</ele>
        <time>2022-06-10T14:08:15Z</time>
      </trkpt>
      <trkpt lat="44.61074" lon="4.39101">
        <ele>240.4</ele>
        <time>2022-06-10T14:08:16Z</time>
      </trkpt>
      <trkpt lat="44.61074" lon="4.39102">
        <ele>240.5</ele>
        <time>2022-06-10T14:08:17Z</time>
      </trkpt>
      <trkpt lat="44.61075" lon="4.39102">
        <ele>240.5</ele>
        <time>2022-06-10T14:08:18Z</time>
      </trkpt>
      <trkpt lat="44.61075" lon="4.39103">
        <ele>240.5</ele>
        <time>2022-06-10T14:08:19Z</time>
      </trkpt>
      <trkpt lat="44.61075" lon="4.39104">
        <ele>240.5</ele>
        <time>2022-06-10T14:08:20Z</time>
      </trkpt>
      <trkpt lat="44.61075" lon="4.39104">
        <ele>240.5</ele>
        <time>2022-06-10T14:08:21Z</time>
      </trkpt>
      <trkpt lat="44.61075" lon="4.39105">
        <ele>240.5</ele>
        <time>2022-06-10T14:08:22Z</time>
      </trkpt>
      <trkpt lat="44.61075" lon="4.39106">
        <ele>240.6</ele>
        <time>2022-06-10T14:08:23Z</time>
      </trkpt>
      <trkpt lat="44.61075" lon="4.39106">
        <ele>240.6</ele>
        <time>2022-06-10T14:08:29Z</time>
      </trkpt>
      <trkpt lat="44.61075" lon="4.39107">
        <ele>240.6</ele>
        <time>2022-06-10T14:08:30Z</time>
      </trkpt>
      <trkpt lat="44.61075" lon="4.39108">
        <ele>240.6</ele>
        <time>2022-06-10T14:08:31Z</time>
      </trkpt>
      <trkpt lat="44.61075" lon="4.39108">
        <ele>240.6</ele>
        <time>2022-06-10T14:08:32Z</time>
      </trkpt>
      <trkpt lat="44.61074" lon="4.39112">
        <ele>240.6</ele>
        <time>2022-06-10T14:08:33Z</time>
      </trkpt>
      <trkpt lat="44.61074" lon="4.39113">
        <ele>240.6</ele>
        <time>2022-06-10T14:08:34Z</time>
      </trkpt>
      <trkpt lat="44.61073" lon="4.39114">
        <ele>240.6</ele>
        <time>2022-06-10T14:08:35Z</time>
      </trkpt>
      <trkpt lat="44.61072" lon="4.39114">
        <ele>240.6</ele>
        <time>2022-06-10T14:08:36Z</time>
      </trkpt>
      <trkpt lat="44.61071" lon="4.39111">
        <ele>240.6</ele>
        <time>2022-06-10T14:08:38Z</time>
      </trkpt>
      <trkpt lat="44.61072" lon="4.39109">
        <ele>240.6</ele>
        <time>2022-06-10T14:08:39Z</time>
      </trkpt>
      <trkpt lat="44.61072" lon="4.39107">
        <ele>240.6</ele>
        <time>2022-06-10T14:08:40Z</time>
      </trkpt>
      <trkpt lat="44.61072" lon="4.39105">
        <ele>240.6</ele>
        <time>2022-06-10T14:08:41Z</time>
      </trkpt>
      <trkpt lat="44.61075" lon="4.39103">
        <ele>240.6</ele>
        <time>2022-06-10T14:08:42Z</time>
      </trkpt>
      <trkpt lat="44.61076" lon="4.39103">
        <ele>240.6</ele>
        <time>2022-06-10T14:08:43Z</time>
      </trkpt>
      <trkpt lat="44.61078" lon="4.39102">
        <ele>240.6</ele>
        <time>2022-06-10T14:08:44Z</time>
      </trkpt>
      <trkpt lat="44.61081" lon="4.39102">
        <ele>240.6</ele>
        <time>2022-06-10T14:08:46Z</time>
      </trkpt>
      <trkpt lat="44.61081" lon="4.39102">
        <ele>240.6</ele>
        <time>2022-06-10T14:08:47Z</time>
      </trkpt>
      <trkpt lat="44.61081" lon="4.39102">
        <ele>240.6</ele>
        <time>2022-06-10T14:08:48Z</time>
      </trkpt>
      <trkpt lat="44.61081" lon="4.39102">
        <ele>240.6</ele>
        <time>2022-06-10T14:08:49Z</time>
      </trkpt>
      <trkpt lat="44.61081" lon="4.39103">
        <ele>240.6</ele>
        <time>2022-06-10T14:08:50Z</time>
      </trkpt>
      <trkpt lat="44.61082" lon="4.39103">
        <ele>240.6</ele>
        <time>2022-06-10T14:08:52Z</time>
      </trkpt>
      <trkpt lat="44.61082" lon="4.39103">
        <ele>240.6</ele>
        <time>2022-06-10T14:08:53Z</time>
      </trkpt>
      <trkpt lat="44.61083" lon="4.39103">
        <ele>240.6</ele>
        <time>2022-06-10T14:08:55Z</time>
      </trkpt>
      <trkpt lat="44.61083" lon="4.39102">
        <ele>240.6</ele>
        <time>2022-06-10T14:08:56Z</time>
      </trkpt>
      <trkpt lat="44.61083" lon="4.39102">
        <ele>240.6</ele>
        <time>2022-06-10T14:08:57Z</time>
      </trkpt>
      <trkpt lat="44.61083" lon="4.39103">
        <ele>240.6</ele>
        <time>2022-06-10T14:08:58Z</time>
      </trkpt>
      <trkpt lat="44.61083" lon="4.39103">
        <ele>240.6</ele>
        <time>2022-06-10T14:08:59Z</time>
      </trkpt>
      <trkpt lat="44.61083" lon="4.39103">
        <ele>240.6</ele>
        <time>2022-06-10T14:09:00Z</time>
      </trkpt>
      <trkpt lat="44.61083" lon="4.39104">
        <ele>240.6</ele>
        <time>2022-06-10T14:09:01Z</time>
      </trkpt>
      <trkpt lat="44.61083" lon="4.39103">
        <ele>240.6</ele>
        <time>2022-06-10T14:09:02Z</time>
      </trkpt>
      <trkpt lat="44.61084" lon="4.39103">
        <ele>240.1</ele>
        <time>2022-06-10T14:09:03Z</time>
      </trkpt>
      <trkpt lat="44.61085" lon="4.39102">
        <ele>240</ele>
        <time>2022-06-10T14:09:04Z</time>
      </trkpt>
      <trkpt lat="44.61086" lon="4.391">
        <ele>240</ele>
        <time>2022-06-10T14:09:05Z</time>
      </trkpt>
      <trkpt lat="44.61088" lon="4.39098">
        <ele>238.7</ele>
        <time>2022-06-10T14:09:06Z</time>
      </trkpt>
      <trkpt lat="44.61089" lon="4.39097">
        <ele>238.7</ele>
        <time>2022-06-10T14:09:07Z</time>
      </trkpt>
      <trkpt lat="44.61089" lon="4.39093">
        <ele>238.7</ele>
        <time>2022-06-10T14:09:08Z</time>
      </trkpt>
      <trkpt lat="44.61089" lon="4.39092">
        <ele>238.7</ele>
        <time>2022-06-10T14:09:09Z</time>
      </trkpt>
      <trkpt lat="44.61087" lon="4.39089">
        <ele>238.7</ele>
        <time>2022-06-10T14:09:10Z</time>
      </trkpt>
      <trkpt lat="44.61085" lon="4.39085">
        <ele>238.7</ele>
        <time>2022-06-10T14:09:11Z</time>
      </trkpt>
      <trkpt lat="44.61084" lon="4.39083">
        <ele>238.7</ele>
        <time>2022-06-10T14:09:12Z</time>
      </trkpt>
      <trkpt lat="44.61081" lon="4.39078">
        <ele>238.7</ele>
        <time>2022-06-10T14:09:13Z</time>
      </trkpt>
      <trkpt lat="44.61079" lon="4.39075">
        <ele>238.7</ele>
        <time>2022-06-10T14:09:14Z</time>
      </trkpt>
      <trkpt lat="44.61077" lon="4.39072">
        <ele>238.7</ele>
        <time>2022-06-10T14:09:16Z</time>
      </trkpt>
      <trkpt lat="44.61074" lon="4.39069">
        <ele>238.7</ele>
        <time>2022-06-10T14:09:17Z</time>
      </trkpt>
      <trkpt lat="44.61072" lon="4.39067">
        <ele>238.7</ele>
        <time>2022-06-10T14:09:18Z</time>
      </trkpt>
      <trkpt lat="44.61069" lon="4.39064">
        <ele>238.7</ele>
        <time>2022-06-10T14:09:19Z</time>
      </trkpt>
      <trkpt lat="44.61067" lon="4.39062">
        <ele>238.7</ele>
        <time>2022-06-10T14:09:20Z</time>
      </trkpt>
      <trkpt lat="44.61064" lon="4.3906">
        <ele>238.7</ele>
        <time>2022-06-10T14:09:21Z</time>
      </trkpt>
      <trkpt lat="44.61062" lon="4.39057">
        <ele>238.8</ele>
        <time>2022-06-10T14:09:22Z</time>
      </trkpt>
      <trkpt lat="44.61062" lon="4.39056">
        <ele>238.8</ele>
        <time>2022-06-10T14:09:23Z</time>
      </trkpt>
      <trkpt lat="44.61061" lon="4.39054">
        <ele>238.8</ele>
        <time>2022-06-10T14:09:24Z</time>
      </trkpt>
      <trkpt lat="44.61061" lon="4.39052">
        <ele>238.8</ele>
        <time>2022-06-10T14:09:25Z</time>
      </trkpt>
      <trkpt lat="44.61061" lon="4.39051">
        <ele>238.8</ele>
        <time>2022-06-10T14:09:26Z</time>
      </trkpt>
      <trkpt lat="44.61062" lon="4.39051">
        <ele>238.8</ele>
        <time>2022-06-10T14:09:27Z</time>
      </trkpt>
      <trkpt lat="44.61062" lon="4.39051">
        <ele>238.8</ele>
        <time>2022-06-10T14:09:28Z</time>
      </trkpt>
      <trkpt lat="44.61063" lon="4.39051">
        <ele>238.8</ele>
        <time>2022-06-10T14:09:29Z</time>
      </trkpt>
      <trkpt lat="44.61064" lon="4.39051">
        <ele>238.8</ele>
        <time>2022-06-10T14:09:30Z</time>
      </trkpt>
      <trkpt lat="44.61064" lon="4.39051">
        <ele>238.8</ele>
        <time>2022-06-10T14:09:31Z</time>
      </trkpt>
      <trkpt lat="44.61065" lon="4.39049">
        <ele>238.8</ele>
        <time>2022-06-10T14:09:32Z</time>
      </trkpt>
      <trkpt lat="44.61065" lon="4.39047">
        <ele>238.8</ele>
        <time>2022-06-10T14:09:33Z</time>
      </trkpt>
      <trkpt lat="44.61065" lon="4.39046">
        <ele>238.8</ele>
        <time>2022-06-10T14:09:34Z</time>
      </trkpt>
      <trkpt lat="44.61065" lon="4.39045">
        <ele>238.8</ele>
        <time>2022-06-10T14:09:35Z</time>
      </trkpt>
      <trkpt lat="44.61066" lon="4.39043">
        <ele>238.8</ele>
        <time>2022-06-10T14:09:47Z</time>
      </trkpt>
      <trkpt lat="44.61066" lon="4.39042">
        <ele>238.8</ele>
        <time>2022-06-10T14:09:48Z</time>
      </trkpt>
      <trkpt lat="44.61066" lon="4.3904">
        <ele>238.8</ele>
        <time>2022-06-10T14:09:49Z</time>
      </trkpt>
      <trkpt lat="44.61067" lon="4.39039">
        <ele>238.8</ele>
        <time>2022-06-10T14:09:50Z</time>
      </trkpt>
      <trkpt lat="44.61067" lon="4.39037">
        <ele>238.8</ele>
        <time>2022-06-10T14:09:51Z</time>
      </trkpt>
      <trkpt lat="44.61067" lon="4.39036">
        <ele>238.9</ele>
        <time>2022-06-10T14:09:52Z</time>
      </trkpt>
      <trkpt lat="44.6107" lon="4.3903">
        <ele>238.9</ele>
        <time>2022-06-10T14:09:54Z</time>
      </trkpt>
      <trkpt lat="44.61073" lon="4.39025">
        <ele>239.1</ele>
        <time>2022-06-10T14:09:55Z</time>
      </trkpt>
      <trkpt lat="44.61075" lon="4.39018">
        <ele>239.2</ele>
        <time>2022-06-10T14:09:57Z</time>
      </trkpt>
      <trkpt lat="44.61074" lon="4.39014">
        <ele>239.2</ele>
        <time>2022-06-10T14:09:58Z</time>
      </trkpt>
      <trkpt lat="44.61073" lon="4.39008">
        <ele>239.2</ele>
        <time>2022-06-10T14:09:59Z</time>
      </trkpt>
      <trkpt lat="44.61071" lon="4.39003">
        <ele>239.2</ele>
        <time>2022-06-10T14:10:00Z</time>
      </trkpt>
      <trkpt lat="44.61068" lon="4.38999">
        <ele>239.2</ele>
        <time>2022-06-10T14:10:01Z</time>
      </trkpt>
      <trkpt lat="44.61064" lon="4.38995">
        <ele>239.2</ele>
        <time>2022-06-10T14:10:02Z</time>
      </trkpt>
      <trkpt lat="44.61061" lon="4.38992">
        <ele>239.3</ele>
        <time>2022-06-10T14:10:03Z</time>
      </trkpt>
      <trkpt lat="44.61058" lon="4.38988">
        <ele>239.4</ele>
        <time>2022-06-10T14:10:04Z</time>
      </trkpt>
      <trkpt lat="44.61052" lon="4.38982">
        <ele>239.5</ele>
        <time>2022-06-10T14:10:05Z</time>
      </trkpt>
      <trkpt lat="44.61049" lon="4.38976">
        <ele>239.6</ele>
        <time>2022-06-10T14:10:07Z</time>
      </trkpt>
      <trkpt lat="44.61045" lon="4.3897">
        <ele>239.8</ele>
        <time>2022-06-10T14:10:08Z</time>
      </trkpt>
      <trkpt lat="44.61041" lon="4.38964">
        <ele>239.9</ele>
        <time>2022-06-10T14:10:09Z</time>
      </trkpt>
      <trkpt lat="44.61039" lon="4.38959">
        <ele>240</ele>
        <time>2022-06-10T14:10:11Z</time>
      </trkpt>
      <trkpt lat="44.61037" lon="4.38955">
        <ele>240</ele>
        <time>2022-06-10T14:10:12Z</time>
      </trkpt>
      <trkpt lat="44.61034" lon="4.38951">
        <ele>240.1</ele>
        <time>2022-06-10T14:10:13Z</time>
      </trkpt>
      <trkpt lat="44.61033" lon="4.3895">
        <ele>240.2</ele>
        <time>2022-06-10T14:10:14Z</time>
      </trkpt>
      <trkpt lat="44.6103" lon="4.38946">
        <ele>240.3</ele>
        <time>2022-06-10T14:10:15Z</time>
      </trkpt>
      <trkpt lat="44.61029" lon="4.38944">
        <ele>240.3</ele>
        <time>2022-06-10T14:10:16Z</time>
      </trkpt>
      <trkpt lat="44.61026" lon="4.38941">
        <ele>240.4</ele>
        <time>2022-06-10T14:10:17Z</time>
      </trkpt>
      <trkpt lat="44.61026" lon="4.38939">
        <ele>240.5</ele>
        <time>2022-06-10T14:10:18Z</time>
      </trkpt>
      <trkpt lat="44.61023" lon="4.38936">
        <ele>240.6</ele>
        <time>2022-06-10T14:10:19Z</time>
      </trkpt>
      <trkpt lat="44.61022" lon="4.38935">
        <ele>240.6</ele>
        <time>2022-06-10T14:10:20Z</time>
      </trkpt>
      <trkpt lat="44.6102" lon="4.3893">
        <ele>240.8</ele>
        <time>2022-06-10T14:10:21Z</time>
      </trkpt>
      <trkpt lat="44.61019" lon="4.38929">
        <ele>240.9</ele>
        <time>2022-06-10T14:10:22Z</time>
      </trkpt>
      <trkpt lat="44.61017" lon="4.38926">
        <ele>241</ele>
        <time>2022-06-10T14:10:23Z</time>
      </trkpt>
      <trkpt lat="44.61015" lon="4.38923">
        <ele>241.1</ele>
        <time>2022-06-10T14:10:24Z</time>
      </trkpt>
      <trkpt lat="44.61013" lon="4.3892">
        <ele>241.3</ele>
        <time>2022-06-10T14:10:26Z</time>
      </trkpt>
      <trkpt lat="44.6101" lon="4.38915">
        <ele>241.5</ele>
        <time>2022-06-10T14:10:28Z</time>
      </trkpt>
      <trkpt lat="44.61007" lon="4.38911">
        <ele>241.7</ele>
        <time>2022-06-10T14:10:29Z</time>
      </trkpt>
      <trkpt lat="44.61003" lon="4.38907">
        <ele>241.9</ele>
        <time>2022-06-10T14:10:32Z</time>
      </trkpt>
      <trkpt lat="44.60999" lon="4.38902">
        <ele>242.2</ele>
        <time>2022-06-10T14:10:33Z</time>
      </trkpt>
      <trkpt lat="44.60997" lon="4.38897">
        <ele>242.4</ele>
        <time>2022-06-10T14:10:35Z</time>
      </trkpt>
      <trkpt lat="44.60995" lon="4.38895">
        <ele>242.5</ele>
        <time>2022-06-10T14:10:37Z</time>
      </trkpt>
      <trkpt lat="44.60991" lon="4.3889">
        <ele>242.8</ele>
        <time>2022-06-10T14:10:38Z</time>
      </trkpt>
      <trkpt lat="44.60988" lon="4.38885">
        <ele>243.1</ele>
        <time>2022-06-10T14:10:40Z</time>
      </trkpt>
      <trkpt lat="44.60987" lon="4.38883">
        <ele>243.2</ele>
        <time>2022-06-10T14:10:41Z</time>
      </trkpt>
      <trkpt lat="44.60985" lon="4.38881">
        <ele>243.3</ele>
        <time>2022-06-10T14:10:42Z</time>
      </trkpt>
      <trkpt lat="44.60982" lon="4.38876">
        <ele>243.6</ele>
        <time>2022-06-10T14:10:44Z</time>
      </trkpt>
      <trkpt lat="44.60981" lon="4.38874">
        <ele>243.7</ele>
        <time>2022-06-10T14:10:45Z</time>
      </trkpt>
      <trkpt lat="44.6098" lon="4.38872">
        <ele>243.8</ele>
        <time>2022-06-10T14:10:46Z</time>
      </trkpt>
      <trkpt lat="44.60978" lon="4.38869">
        <ele>244</ele>
        <time>2022-06-10T14:10:47Z</time>
      </trkpt>
      <trkpt lat="44.60976" lon="4.38866">
        <ele>244.1</ele>
        <time>2022-06-10T14:10:48Z</time>
      </trkpt>
      <trkpt lat="44.60974" lon="4.38863">
        <ele>244.4</ele>
        <time>2022-06-10T14:10:49Z</time>
      </trkpt>
      <trkpt lat="44.60973" lon="4.38862">
        <ele>244.5</ele>
        <time>2022-06-10T14:10:50Z</time>
      </trkpt>
      <trkpt lat="44.60972" lon="4.38858">
        <ele>244.7</ele>
        <time>2022-06-10T14:10:51Z</time>
      </trkpt>
      <trkpt lat="44.60971" lon="4.38857">
        <ele>244.7</ele>
        <time>2022-06-10T14:10:52Z</time>
      </trkpt>
      <trkpt lat="44.60969" lon="4.38854">
        <ele>245</ele>
        <time>2022-06-10T14:10:53Z</time>
      </trkpt>
      <trkpt lat="44.60968" lon="4.38852">
        <ele>245</ele>
        <time>2022-06-10T14:10:54Z</time>
      </trkpt>
      <trkpt lat="44.60966" lon="4.38849">
        <ele>245.3</ele>
        <time>2022-06-10T14:10:55Z</time>
      </trkpt>
      <trkpt lat="44.60966" lon="4.38848">
        <ele>245.3</ele>
        <time>2022-06-10T14:10:56Z</time>
      </trkpt>
      <trkpt lat="44.60964" lon="4.38844">
        <ele>245.5</ele>
        <time>2022-06-10T14:10:57Z</time>
      </trkpt>
      <trkpt lat="44.60963" lon="4.38843">
        <ele>245.6</ele>
        <time>2022-06-10T14:10:58Z</time>
      </trkpt>
      <trkpt lat="44.60962" lon="4.38839">
        <ele>245.8</ele>
        <time>2022-06-10T14:10:59Z</time>
      </trkpt>
      <trkpt lat="44.60961" lon="4.38838">
        <ele>245.9</ele>
        <time>2022-06-10T14:11:00Z</time>
      </trkpt>
      <trkpt lat="44.6096" lon="4.38834">
        <ele>246.1</ele>
        <time>2022-06-10T14:11:01Z</time>
      </trkpt>
      <trkpt lat="44.6096" lon="4.38833">
        <ele>246.1</ele>
        <time>2022-06-10T14:11:02Z</time>
      </trkpt>
      <trkpt lat="44.6096" lon="4.3883">
        <ele>246.2</ele>
        <time>2022-06-10T14:11:03Z</time>
      </trkpt>
      <trkpt lat="44.60959" lon="4.38828">
        <ele>246.3</ele>
        <time>2022-06-10T14:11:04Z</time>
      </trkpt>
      <trkpt lat="44.60959" lon="4.38826">
        <ele>246.4</ele>
        <time>2022-06-10T14:11:05Z</time>
      </trkpt>
      <trkpt lat="44.60959" lon="4.38824">
        <ele>246.5</ele>
        <time>2022-06-10T14:11:06Z</time>
      </trkpt>
      <trkpt lat="44.6096" lon="4.38821">
        <ele>247</ele>
        <time>2022-06-10T14:11:07Z</time>
      </trkpt>
      <trkpt lat="44.60961" lon="4.3882">
        <ele>247</ele>
        <time>2022-06-10T14:11:08Z</time>
      </trkpt>
      <trkpt lat="44.60961" lon="4.38819">
        <ele>247.1</ele>
        <time>2022-06-10T14:11:09Z</time>
      </trkpt>
      <trkpt lat="44.60961" lon="4.38817">
        <ele>247.1</ele>
        <time>2022-06-10T14:11:10Z</time>
      </trkpt>
      <trkpt lat="44.60961" lon="4.38815">
        <ele>247.1</ele>
        <time>2022-06-10T14:11:11Z</time>
      </trkpt>
      <trkpt lat="44.60962" lon="4.3881">
        <ele>247.2</ele>
        <time>2022-06-10T14:11:12Z</time>
      </trkpt>
      <trkpt lat="44.60962" lon="4.38809">
        <ele>247.3</ele>
        <time>2022-06-10T14:11:13Z</time>
      </trkpt>
      <trkpt lat="44.60961" lon="4.38804">
        <ele>247.5</ele>
        <time>2022-06-10T14:11:14Z</time>
      </trkpt>
      <trkpt lat="44.60961" lon="4.38802">
        <ele>247.6</ele>
        <time>2022-06-10T14:11:15Z</time>
      </trkpt>
      <trkpt lat="44.60954" lon="4.38794">
        <ele>248.3</ele>
        <time>2022-06-10T14:11:17Z</time>
      </trkpt>
      <trkpt lat="44.60949" lon="4.3879">
        <ele>248.3</ele>
        <time>2022-06-10T14:11:19Z</time>
      </trkpt>
      <trkpt lat="44.60946" lon="4.38781">
        <ele>248.4</ele>
        <time>2022-06-10T14:11:21Z</time>
      </trkpt>
      <trkpt lat="44.60945" lon="4.38778">
        <ele>248.4</ele>
        <time>2022-06-10T14:11:23Z</time>
      </trkpt>
      <trkpt lat="44.60945" lon="4.38777">
        <ele>248.4</ele>
        <time>2022-06-10T14:11:24Z</time>
      </trkpt>
      <trkpt lat="44.60944" lon="4.38777">
        <ele>248.4</ele>
        <time>2022-06-10T14:11:25Z</time>
      </trkpt>
      <trkpt lat="44.60944" lon="4.38778">
        <ele>248.4</ele>
        <time>2022-06-10T14:11:26Z</time>
      </trkpt>
      <trkpt lat="44.60943" lon="4.38778">
        <ele>248.4</ele>
        <time>2022-06-10T14:11:27Z</time>
      </trkpt>
      <trkpt lat="44.60943" lon="4.38779">
        <ele>248.4</ele>
        <time>2022-06-10T14:11:28Z</time>
      </trkpt>
      <trkpt lat="44.60942" lon="4.38779">
        <ele>248.4</ele>
        <time>2022-06-10T14:11:29Z</time>
      </trkpt>
      <trkpt lat="44.60942" lon="4.38779">
        <ele>248.4</ele>
        <time>2022-06-10T14:11:30Z</time>
      </trkpt>
      <trkpt lat="44.60942" lon="4.3878">
        <ele>248.4</ele>
        <time>2022-06-10T14:11:31Z</time>
      </trkpt>
      <trkpt lat="44.60941" lon="4.3878">
        <ele>248.4</ele>
        <time>2022-06-10T14:11:32Z</time>
      </trkpt>
      <trkpt lat="44.60941" lon="4.38781">
        <ele>248.4</ele>
        <time>2022-06-10T14:11:33Z</time>
      </trkpt>
      <trkpt lat="44.6094" lon="4.38781">
        <ele>248.4</ele>
        <time>2022-06-10T14:12:18Z</time>
      </trkpt>
      <trkpt lat="44.6094" lon="4.38782">
        <ele>248.4</ele>
        <time>2022-06-10T14:12:19Z</time>
      </trkpt>
      <trkpt lat="44.6094" lon="4.38782">
        <ele>248.4</ele>
        <time>2022-06-10T14:12:20Z</time>
      </trkpt>
      <trkpt lat="44.60939" lon="4.38784">
        <ele>248.4</ele>
        <time>2022-06-10T14:12:21Z</time>
      </trkpt>
      <trkpt lat="44.60939" lon="4.38787">
        <ele>248.4</ele>
        <time>2022-06-10T14:12:22Z</time>
      </trkpt>
      <trkpt lat="44.60938" lon="4.38789">
        <ele>248.3</ele>
        <time>2022-06-10T14:12:23Z</time>
      </trkpt>
      <trkpt lat="44.60937" lon="4.38789">
        <ele>248.2</ele>
        <time>2022-06-10T14:12:24Z</time>
      </trkpt>
      <trkpt lat="44.60936" lon="4.3879">
        <ele>248.1</ele>
        <time>2022-06-10T14:12:25Z</time>
      </trkpt>
      <trkpt lat="44.60932" lon="4.3879">
        <ele>247.8</ele>
        <time>2022-06-10T14:12:26Z</time>
      </trkpt>
      <trkpt lat="44.60928" lon="4.38787">
        <ele>247.4</ele>
        <time>2022-06-10T14:12:27Z</time>
      </trkpt>
      <trkpt lat="44.60922" lon="4.38789">
        <ele>246.8</ele>
        <time>2022-06-10T14:12:28Z</time>
      </trkpt>
      <trkpt lat="44.60918" lon="4.38787">
        <ele>246.4</ele>
        <time>2022-06-10T14:12:29Z</time>
      </trkpt>
      <trkpt lat="44.60916" lon="4.38785">
        <ele>246.1</ele>
        <time>2022-06-10T14:12:30Z</time>
      </trkpt>
      <trkpt lat="44.60916" lon="4.38783">
        <ele>246</ele>
        <time>2022-06-10T14:12:31Z</time>
      </trkpt>
      <trkpt lat="44.60898" lon="4.3879">
        <ele>244.6</ele>
        <time>2022-06-10T14:12:32Z</time>
      </trkpt>
      <trkpt lat="44.60895" lon="4.38792">
        <ele>244.5</ele>
        <time>2022-06-10T14:12:33Z</time>
      </trkpt>
      <trkpt lat="44.60889" lon="4.38796">
        <ele>244.2</ele>
        <time>2022-06-10T14:12:34Z</time>
      </trkpt>
      <trkpt lat="44.60882" lon="4.38799">
        <ele>244</ele>
        <time>2022-06-10T14:12:35Z</time>
      </trkpt>
      <trkpt lat="44.60875" lon="4.38803">
        <ele>243.7</ele>
        <time>2022-06-10T14:12:36Z</time>
      </trkpt>
      <trkpt lat="44.60868" lon="4.38805">
        <ele>243.3</ele>
        <time>2022-06-10T14:12:37Z</time>
      </trkpt>
      <trkpt lat="44.60859" lon="4.38803">
        <ele>242.9</ele>
        <time>2022-06-10T14:12:38Z</time>
      </trkpt>
      <trkpt lat="44.60851" lon="4.38799">
        <ele>242.4</ele>
        <time>2022-06-10T14:12:39Z</time>
      </trkpt>
      <trkpt lat="44.60844" lon="4.38793">
        <ele>241.9</ele>
        <time>2022-06-10T14:12:40Z</time>
      </trkpt>
      <trkpt lat="44.60836" lon="4.38788">
        <ele>241.5</ele>
        <time>2022-06-10T14:12:41Z</time>
      </trkpt>
      <trkpt lat="44.60829" lon="4.38783">
        <ele>241</ele>
        <time>2022-06-10T14:12:42Z</time>
      </trkpt>
      <trkpt lat="44.60821" lon="4.38777">
        <ele>240.4</ele>
        <time>2022-06-10T14:12:43Z</time>
      </trkpt>
      <trkpt lat="44.60813" lon="4.38771">
        <ele>239.9</ele>
        <time>2022-06-10T14:12:44Z</time>
      </trkpt>
      <trkpt lat="44.60805" lon="4.38765">
        <ele>239.4</ele>
        <time>2022-06-10T14:12:45Z</time>
      </trkpt>
      <trkpt lat="44.60796" lon="4.38759">
        <ele>238.9</ele>
        <time>2022-06-10T14:12:46Z</time>
      </trkpt>
      <trkpt lat="44.60788" lon="4.38753">
        <ele>238.3</ele>
        <time>2022-06-10T14:12:47Z</time>
      </trkpt>
      <trkpt lat="44.60779" lon="4.38747">
        <ele>237.8</ele>
        <time>2022-06-10T14:12:48Z</time>
      </trkpt>
      <trkpt lat="44.60771" lon="4.3874">
        <ele>237.2</ele>
        <time>2022-06-10T14:12:49Z</time>
      </trkpt>
      <trkpt lat="44.60762" lon="4.38733">
        <ele>236.7</ele>
        <time>2022-06-10T14:12:50Z</time>
      </trkpt>
      <trkpt lat="44.60753" lon="4.38726">
        <ele>236.1</ele>
        <time>2022-06-10T14:12:51Z</time>
      </trkpt>
      <trkpt lat="44.60744" lon="4.3872">
        <ele>235.5</ele>
        <time>2022-06-10T14:12:52Z</time>
      </trkpt>
      <trkpt lat="44.60735" lon="4.38713">
        <ele>235</ele>
        <time>2022-06-10T14:12:53Z</time>
      </trkpt>
      <trkpt lat="44.60725" lon="4.38706">
        <ele>234.5</ele>
        <time>2022-06-10T14:12:54Z</time>
      </trkpt>
      <trkpt lat="44.60716" lon="4.38698">
        <ele>234</ele>
        <time>2022-06-10T14:12:55Z</time>
      </trkpt>
      <trkpt lat="44.60706" lon="4.38691">
        <ele>233.4</ele>
        <time>2022-06-10T14:12:56Z</time>
      </trkpt>
      <trkpt lat="44.60697" lon="4.38684">
        <ele>232.9</ele>
        <time>2022-06-10T14:12:57Z</time>
      </trkpt>
      <trkpt lat="44.60688" lon="4.38679">
        <ele>232.4</ele>
        <time>2022-06-10T14:12:58Z</time>
      </trkpt>
      <trkpt lat="44.60678" lon="4.38675">
        <ele>231.9</ele>
        <time>2022-06-10T14:12:59Z</time>
      </trkpt>
      <trkpt lat="44.60669" lon="4.3867">
        <ele>231.3</ele>
        <time>2022-06-10T14:13:00Z</time>
      </trkpt>
      <trkpt lat="44.60659" lon="4.38666">
        <ele>230.8</ele>
        <time>2022-06-10T14:13:01Z</time>
      </trkpt>
      <trkpt lat="44.6065" lon="4.38661">
        <ele>230.2</ele>
        <time>2022-06-10T14:13:02Z</time>
      </trkpt>
      <trkpt lat="44.6064" lon="4.38657">
        <ele>229.7</ele>
        <time>2022-06-10T14:13:03Z</time>
      </trkpt>
      <trkpt lat="44.6063" lon="4.38653">
        <ele>229.1</ele>
        <time>2022-06-10T14:13:04Z</time>
      </trkpt>
      <trkpt lat="44.6062" lon="4.38649">
        <ele>228.6</ele>
        <time>2022-06-10T14:13:05Z</time>
      </trkpt>
      <trkpt lat="44.6061" lon="4.38644">
        <ele>228.1</ele>
        <time>2022-06-10T14:13:06Z</time>
      </trkpt>
      <trkpt lat="44.606" lon="4.38639">
        <ele>227.5</ele>
        <time>2022-06-10T14:13:07Z</time>
      </trkpt>
      <trkpt lat="44.6059" lon="4.38635">
        <ele>227</ele>
        <time>2022-06-10T14:13:08Z</time>
      </trkpt>
      <trkpt lat="44.60579" lon="4.38631">
        <ele>226.4</ele>
        <time>2022-06-10T14:13:09Z</time>
      </trkpt>
      <trkpt lat="44.60569" lon="4.38626">
        <ele>225.8</ele>
        <time>2022-06-10T14:13:10Z</time>
      </trkpt>
      <trkpt lat="44.60558" lon="4.38621">
        <ele>225.2</ele>
        <time>2022-06-10T14:13:11Z</time>
      </trkpt>
      <trkpt lat="44.60548" lon="4.38616">
        <ele>224.6</ele>
        <time>2022-06-10T14:13:12Z</time>
      </trkpt>
      <trkpt lat="44.60537" lon="4.38612">
        <ele>224</ele>
        <time>2022-06-10T14:13:13Z</time>
      </trkpt>
      <trkpt lat="44.60527" lon="4.38607">
        <ele>223.4</ele>
        <time>2022-06-10T14:13:14Z</time>
      </trkpt>
      <trkpt lat="44.60516" lon="4.38603">
        <ele>222.8</ele>
        <time>2022-06-10T14:13:15Z</time>
      </trkpt>
      <trkpt lat="44.60505" lon="4.38598">
        <ele>222.2</ele>
        <time>2022-06-10T14:13:16Z</time>
      </trkpt>
      <trkpt lat="44.60494" lon="4.38594">
        <ele>221.6</ele>
        <time>2022-06-10T14:13:17Z</time>
      </trkpt>
      <trkpt lat="44.60483" lon="4.3859">
        <ele>221</ele>
        <time>2022-06-10T14:13:18Z</time>
      </trkpt>
      <trkpt lat="44.60472" lon="4.38586">
        <ele>220.3</ele>
        <time>2022-06-10T14:13:19Z</time>
      </trkpt>
      <trkpt lat="44.60461" lon="4.38584">
        <ele>219.7</ele>
        <time>2022-06-10T14:13:20Z</time>
      </trkpt>
      <trkpt lat="44.60449" lon="4.38582">
        <ele>219.1</ele>
        <time>2022-06-10T14:13:21Z</time>
      </trkpt>
      <trkpt lat="44.60438" lon="4.38582">
        <ele>218.5</ele>
        <time>2022-06-10T14:13:22Z</time>
      </trkpt>
      <trkpt lat="44.60427" lon="4.38582">
        <ele>217.9</ele>
        <time>2022-06-10T14:13:23Z</time>
      </trkpt>
      <trkpt lat="44.60416" lon="4.38583">
        <ele>217.4</ele>
        <time>2022-06-10T14:13:24Z</time>
      </trkpt>
      <trkpt lat="44.60405" lon="4.38585">
        <ele>216.9</ele>
        <time>2022-06-10T14:13:25Z</time>
      </trkpt>
      <trkpt lat="44.60394" lon="4.38587">
        <ele>216.5</ele>
        <time>2022-06-10T14:13:26Z</time>
      </trkpt>
      <trkpt lat="44.60383" lon="4.38591">
        <ele>216.2</ele>
        <time>2022-06-10T14:13:27Z</time>
      </trkpt>
      <trkpt lat="44.60374" lon="4.38595">
        <ele>215.8</ele>
        <time>2022-06-10T14:13:28Z</time>
      </trkpt>
      <trkpt lat="44.60365" lon="4.38599">
        <ele>215.6</ele>
        <time>2022-06-10T14:13:29Z</time>
      </trkpt>
      <trkpt lat="44.60357" lon="4.38603">
        <ele>215.4</ele>
        <time>2022-06-10T14:13:30Z</time>
      </trkpt>
      <trkpt lat="44.6035" lon="4.38607">
        <ele>215.3</ele>
        <time>2022-06-10T14:13:31Z</time>
      </trkpt>
      <trkpt lat="44.60343" lon="4.3861">
        <ele>215.2</ele>
        <time>2022-06-10T14:13:32Z</time>
      </trkpt>
      <trkpt lat="44.60336" lon="4.38611">
        <ele>215.2</ele>
        <time>2022-06-10T14:13:33Z</time>
      </trkpt>
      <trkpt lat="44.60329" lon="4.38612">
        <ele>215.2</ele>
        <time>2022-06-10T14:13:34Z</time>
      </trkpt>
      <trkpt lat="44.60322" lon="4.38614">
        <ele>215.2</ele>
        <time>2022-06-10T14:13:35Z</time>
      </trkpt>
      <trkpt lat="44.60315" lon="4.38618">
        <ele>215.2</ele>
        <time>2022-06-10T14:13:36Z</time>
      </trkpt>
      <trkpt lat="44.60309" lon="4.38623">
        <ele>215.1</ele>
        <time>2022-06-10T14:13:37Z</time>
      </trkpt>
      <trkpt lat="44.60303" lon="4.38628">
        <ele>215.1</ele>
        <time>2022-06-10T14:13:38Z</time>
      </trkpt>
      <trkpt lat="44.60296" lon="4.38633">
        <ele>215</ele>
        <time>2022-06-10T14:13:39Z</time>
      </trkpt>
      <trkpt lat="44.6029" lon="4.38637">
        <ele>214.9</ele>
        <time>2022-06-10T14:13:40Z</time>
      </trkpt>
      <trkpt lat="44.60284" lon="4.38641">
        <ele>214.8</ele>
        <time>2022-06-10T14:13:41Z</time>
      </trkpt>
      <trkpt lat="44.60277" lon="4.38644">
        <ele>214.6</ele>
        <time>2022-06-10T14:13:42Z</time>
      </trkpt>
      <trkpt lat="44.60271" lon="4.38648">
        <ele>214.5</ele>
        <time>2022-06-10T14:13:43Z</time>
      </trkpt>
      <trkpt lat="44.60264" lon="4.38651">
        <ele>214.3</ele>
        <time>2022-06-10T14:13:44Z</time>
      </trkpt>
      <trkpt lat="44.60258" lon="4.38655">
        <ele>214.2</ele>
        <time>2022-06-10T14:13:45Z</time>
      </trkpt>
      <trkpt lat="44.60252" lon="4.38658">
        <ele>214.1</ele>
        <time>2022-06-10T14:13:46Z</time>
      </trkpt>
      <trkpt lat="44.60246" lon="4.38661">
        <ele>214</ele>
        <time>2022-06-10T14:13:47Z</time>
      </trkpt>
      <trkpt lat="44.6024" lon="4.38664">
        <ele>213.9</ele>
        <time>2022-06-10T14:13:48Z</time>
      </trkpt>
      <trkpt lat="44.60234" lon="4.38667">
        <ele>213.8</ele>
        <time>2022-06-10T14:13:49Z</time>
      </trkpt>
      <trkpt lat="44.60228" lon="4.3867">
        <ele>213.8</ele>
        <time>2022-06-10T14:13:50Z</time>
      </trkpt>
      <trkpt lat="44.60222" lon="4.38673">
        <ele>213.7</ele>
        <time>2022-06-10T14:13:51Z</time>
      </trkpt>
      <trkpt lat="44.60216" lon="4.38676">
        <ele>213.7</ele>
        <time>2022-06-10T14:13:52Z</time>
      </trkpt>
      <trkpt lat="44.60209" lon="4.3868">
        <ele>213.6</ele>
        <time>2022-06-10T14:13:53Z</time>
      </trkpt>
      <trkpt lat="44.60203" lon="4.38684">
        <ele>213.5</ele>
        <time>2022-06-10T14:13:54Z</time>
      </trkpt>
      <trkpt lat="44.60197" lon="4.38686">
        <ele>213.3</ele>
        <time>2022-06-10T14:13:55Z</time>
      </trkpt>
      <trkpt lat="44.60191" lon="4.38689">
        <ele>213.2</ele>
        <time>2022-06-10T14:13:56Z</time>
      </trkpt>
      <trkpt lat="44.60185" lon="4.38691">
        <ele>213.2</ele>
        <time>2022-06-10T14:13:57Z</time>
      </trkpt>
      <trkpt lat="44.60179" lon="4.38693">
        <ele>213.1</ele>
        <time>2022-06-10T14:13:58Z</time>
      </trkpt>
      <trkpt lat="44.60174" lon="4.38692">
        <ele>213.1</ele>
        <time>2022-06-10T14:13:59Z</time>
      </trkpt>
      <trkpt lat="44.60169" lon="4.38689">
        <ele>213.1</ele>
        <time>2022-06-10T14:14:00Z</time>
      </trkpt>
      <trkpt lat="44.60163" lon="4.38686">
        <ele>213</ele>
        <time>2022-06-10T14:14:01Z</time>
      </trkpt>
      <trkpt lat="44.60157" lon="4.38684">
        <ele>213</ele>
        <time>2022-06-10T14:14:02Z</time>
      </trkpt>
      <trkpt lat="44.60152" lon="4.38682">
        <ele>213</ele>
        <time>2022-06-10T14:14:03Z</time>
      </trkpt>
      <trkpt lat="44.60146" lon="4.3868">
        <ele>212.9</ele>
        <time>2022-06-10T14:14:04Z</time>
      </trkpt>
      <trkpt lat="44.6014" lon="4.38678">
        <ele>212.9</ele>
        <time>2022-06-10T14:14:05Z</time>
      </trkpt>
      <trkpt lat="44.60134" lon="4.38675">
        <ele>212.9</ele>
        <time>2022-06-10T14:14:06Z</time>
      </trkpt>
      <trkpt lat="44.60129" lon="4.38673">
        <ele>212.8</ele>
        <time>2022-06-10T14:14:07Z</time>
      </trkpt>
      <trkpt lat="44.60124" lon="4.38671">
        <ele>212.8</ele>
        <time>2022-06-10T14:14:08Z</time>
      </trkpt>
      <trkpt lat="44.6012" lon="4.38669">
        <ele>212.7</ele>
        <time>2022-06-10T14:14:09Z</time>
      </trkpt>
      <trkpt lat="44.60115" lon="4.38668">
        <ele>212.7</ele>
        <time>2022-06-10T14:14:10Z</time>
      </trkpt>
      <trkpt lat="44.6011" lon="4.38666">
        <ele>212.6</ele>
        <time>2022-06-10T14:14:11Z</time>
      </trkpt>
      <trkpt lat="44.60104" lon="4.38664">
        <ele>212.6</ele>
        <time>2022-06-10T14:14:12Z</time>
      </trkpt>
      <trkpt lat="44.601" lon="4.38663">
        <ele>212.5</ele>
        <time>2022-06-10T14:14:13Z</time>
      </trkpt>
      <trkpt lat="44.60097" lon="4.38661">
        <ele>212.5</ele>
        <time>2022-06-10T14:14:14Z</time>
      </trkpt>
      <trkpt lat="44.60093" lon="4.3866">
        <ele>212.4</ele>
        <time>2022-06-10T14:14:15Z</time>
      </trkpt>
      <trkpt lat="44.60086" lon="4.38657">
        <ele>212.3</ele>
        <time>2022-06-10T14:14:16Z</time>
      </trkpt>
      <trkpt lat="44.60081" lon="4.38656">
        <ele>212.2</ele>
        <time>2022-06-10T14:14:17Z</time>
      </trkpt>
      <trkpt lat="44.60077" lon="4.38654">
        <ele>212.2</ele>
        <time>2022-06-10T14:14:18Z</time>
      </trkpt>
      <trkpt lat="44.60075" lon="4.38651">
        <ele>212.1</ele>
        <time>2022-06-10T14:14:19Z</time>
      </trkpt>
      <trkpt lat="44.60074" lon="4.3865">
        <ele>212.1</ele>
        <time>2022-06-10T14:14:20Z</time>
      </trkpt>
      <trkpt lat="44.60073" lon="4.38647">
        <ele>212.2</ele>
        <time>2022-06-10T14:14:21Z</time>
      </trkpt>
      <trkpt lat="44.60074" lon="4.38642">
        <ele>212.5</ele>
        <time>2022-06-10T14:14:23Z</time>
      </trkpt>
      <trkpt lat="44.60073" lon="4.38638">
        <ele>212.5</ele>
        <time>2022-06-10T14:14:24Z</time>
      </trkpt>
      <trkpt lat="44.60073" lon="4.38632">
        <ele>212.3</ele>
        <time>2022-06-10T14:14:26Z</time>
      </trkpt>
      <trkpt lat="44.60072" lon="4.3863">
        <ele>212.2</ele>
        <time>2022-06-10T14:14:27Z</time>
      </trkpt>
      <trkpt lat="44.60072" lon="4.38629">
        <ele>212.1</ele>
        <time>2022-06-10T14:14:28Z</time>
      </trkpt>
      <trkpt lat="44.60072" lon="4.38624">
        <ele>211.9</ele>
        <time>2022-06-10T14:14:29Z</time>
      </trkpt>
      <trkpt lat="44.60072" lon="4.38622">
        <ele>211.8</ele>
        <time>2022-06-10T14:14:30Z</time>
      </trkpt>
      <trkpt lat="44.60072" lon="4.38617">
        <ele>211.7</ele>
        <time>2022-06-10T14:14:31Z</time>
      </trkpt>
      <trkpt lat="44.60072" lon="4.38613">
        <ele>211.5</ele>
        <time>2022-06-10T14:14:32Z</time>
      </trkpt>
      <trkpt lat="44.6007" lon="4.38605">
        <ele>211</ele>
        <time>2022-06-10T14:14:33Z</time>
      </trkpt>
      <trkpt lat="44.60068" lon="4.38601">
        <ele>210.8</ele>
        <time>2022-06-10T14:14:35Z</time>
      </trkpt>
      <trkpt lat="44.60066" lon="4.38598">
        <ele>210.6</ele>
        <time>2022-06-10T14:14:36Z</time>
      </trkpt>
      <trkpt lat="44.60065" lon="4.38597">
        <ele>210.4</ele>
        <time>2022-06-10T14:14:37Z</time>
      </trkpt>
      <trkpt lat="44.60064" lon="4.38597">
        <ele>210.3</ele>
        <time>2022-06-10T14:14:38Z</time>
      </trkpt>
      <trkpt lat="44.60063" lon="4.38597">
        <ele>210.2</ele>
        <time>2022-06-10T14:14:39Z</time>
      </trkpt>
      <trkpt lat="44.60062" lon="4.38597">
        <ele>210.1</ele>
        <time>2022-06-10T14:14:40Z</time>
      </trkpt>
      <trkpt lat="44.60062" lon="4.38596">
        <ele>210</ele>
        <time>2022-06-10T14:14:41Z</time>
      </trkpt>
      <trkpt lat="44.60061" lon="4.38595">
        <ele>209.9</ele>
        <time>2022-06-10T14:14:42Z</time>
      </trkpt>
      <trkpt lat="44.60061" lon="4.38595">
        <ele>209.9</ele>
        <time>2022-06-10T14:14:43Z</time>
      </trkpt>
      <trkpt lat="44.6006" lon="4.38594">
        <ele>209.8</ele>
        <time>2022-06-10T14:14:44Z</time>
      </trkpt>
      <trkpt lat="44.60059" lon="4.38593">
        <ele>209.7</ele>
        <time>2022-06-10T14:14:45Z</time>
      </trkpt>
      <trkpt lat="44.60059" lon="4.38592">
        <ele>209.6</ele>
        <time>2022-06-10T14:14:46Z</time>
      </trkpt>
      <trkpt lat="44.60058" lon="4.38592">
        <ele>209.5</ele>
        <time>2022-06-10T14:14:47Z</time>
      </trkpt>
      <trkpt lat="44.60057" lon="4.38591">
        <ele>209.4</ele>
        <time>2022-06-10T14:14:48Z</time>
      </trkpt>
      <trkpt lat="44.60057" lon="4.3859">
        <ele>209.3</ele>
        <time>2022-06-10T14:14:58Z</time>
      </trkpt>
      <trkpt lat="44.60056" lon="4.3859">
        <ele>209.2</ele>
        <time>2022-06-10T14:14:59Z</time>
      </trkpt>
      <trkpt lat="44.60055" lon="4.38589">
        <ele>209.1</ele>
        <time>2022-06-10T14:15:00Z</time>
      </trkpt>
      <trkpt lat="44.60053" lon="4.38585">
        <ele>208.7</ele>
        <time>2022-06-10T14:15:01Z</time>
      </trkpt>
      <trkpt lat="44.60051" lon="4.38582">
        <ele>208.4</ele>
        <time>2022-06-10T14:15:02Z</time>
      </trkpt>
      <trkpt lat="44.60048" lon="4.38574">
        <ele>207.6</ele>
        <time>2022-06-10T14:15:03Z</time>
      </trkpt>
      <trkpt lat="44.60046" lon="4.38564">
        <ele>206.7</ele>
        <time>2022-06-10T14:15:05Z</time>
      </trkpt>
      <trkpt lat="44.60045" lon="4.38554">
        <ele>206</ele>
        <time>2022-06-10T14:15:06Z</time>
      </trkpt>
      <trkpt lat="44.60044" lon="4.38545">
        <ele>205.2</ele>
        <time>2022-06-10T14:15:07Z</time>
      </trkpt>
      <trkpt lat="44.60045" lon="4.38535">
        <ele>204.4</ele>
        <time>2022-06-10T14:15:08Z</time>
      </trkpt>
      <trkpt lat="44.60047" lon="4.38524">
        <ele>203.6</ele>
        <time>2022-06-10T14:15:09Z</time>
      </trkpt>
      <trkpt lat="44.6005" lon="4.38513">
        <ele>202.9</ele>
        <time>2022-06-10T14:15:10Z</time>
      </trkpt>
      <trkpt lat="44.60054" lon="4.38503">
        <ele>202.3</ele>
        <time>2022-06-10T14:15:11Z</time>
      </trkpt>
      <trkpt lat="44.60057" lon="4.38494">
        <ele>201.9</ele>
        <time>2022-06-10T14:15:12Z</time>
      </trkpt>
      <trkpt lat="44.60061" lon="4.38487">
        <ele>201.6</ele>
        <time>2022-06-10T14:15:13Z</time>
      </trkpt>
      <trkpt lat="44.60063" lon="4.3848">
        <ele>201.4</ele>
        <time>2022-06-10T14:15:14Z</time>
      </trkpt>
      <trkpt lat="44.60065" lon="4.38476">
        <ele>201.3</ele>
        <time>2022-06-10T14:15:15Z</time>
      </trkpt>
      <trkpt lat="44.60068" lon="4.38474">
        <ele>201.2</ele>
        <time>2022-06-10T14:15:16Z</time>
      </trkpt>
      <trkpt lat="44.6007" lon="4.3847">
        <ele>201.1</ele>
        <time>2022-06-10T14:15:17Z</time>
      </trkpt>
      <trkpt lat="44.6007" lon="4.38462">
        <ele>201.1</ele>
        <time>2022-06-10T14:15:19Z</time>
      </trkpt>
      <trkpt lat="44.60069" lon="4.38454">
        <ele>201</ele>
        <time>2022-06-10T14:15:20Z</time>
      </trkpt>
      <trkpt lat="44.60068" lon="4.38449">
        <ele>201</ele>
        <time>2022-06-10T14:15:21Z</time>
      </trkpt>
      <trkpt lat="44.60066" lon="4.38441">
        <ele>201</ele>
        <time>2022-06-10T14:15:22Z</time>
      </trkpt>
      <trkpt lat="44.60064" lon="4.38435">
        <ele>201</ele>
        <time>2022-06-10T14:15:23Z</time>
      </trkpt>
      <trkpt lat="44.60062" lon="4.38429">
        <ele>201.1</ele>
        <time>2022-06-10T14:15:24Z</time>
      </trkpt>
      <trkpt lat="44.60061" lon="4.38422">
        <ele>201.1</ele>
        <time>2022-06-10T14:15:25Z</time>
      </trkpt>
      <trkpt lat="44.60061" lon="4.38415">
        <ele>201.2</ele>
        <time>2022-06-10T14:15:27Z</time>
      </trkpt>
      <trkpt lat="44.6006" lon="4.38409">
        <ele>201.3</ele>
        <time>2022-06-10T14:15:28Z</time>
      </trkpt>
      <trkpt lat="44.6006" lon="4.38403">
        <ele>201.4</ele>
        <time>2022-06-10T14:15:29Z</time>
      </trkpt>
      <trkpt lat="44.6006" lon="4.38398">
        <ele>201.5</ele>
        <time>2022-06-10T14:15:30Z</time>
      </trkpt>
      <trkpt lat="44.60059" lon="4.38392">
        <ele>201.7</ele>
        <time>2022-06-10T14:15:31Z</time>
      </trkpt>
      <trkpt lat="44.60059" lon="4.38387">
        <ele>201.9</ele>
        <time>2022-06-10T14:15:32Z</time>
      </trkpt>
      <trkpt lat="44.60059" lon="4.38381">
        <ele>202</ele>
        <time>2022-06-10T14:15:33Z</time>
      </trkpt>
      <trkpt lat="44.60058" lon="4.38376">
        <ele>202.2</ele>
        <time>2022-06-10T14:15:34Z</time>
      </trkpt>
      <trkpt lat="44.60058" lon="4.3837">
        <ele>202.4</ele>
        <time>2022-06-10T14:15:35Z</time>
      </trkpt>
      <trkpt lat="44.60057" lon="4.38366">
        <ele>202.6</ele>
        <time>2022-06-10T14:15:36Z</time>
      </trkpt>
      <trkpt lat="44.60057" lon="4.38361">
        <ele>202.9</ele>
        <time>2022-06-10T14:15:37Z</time>
      </trkpt>
      <trkpt lat="44.60056" lon="4.38356">
        <ele>203.1</ele>
        <time>2022-06-10T14:15:38Z</time>
      </trkpt>
      <trkpt lat="44.60055" lon="4.38347">
        <ele>203.5</ele>
        <time>2022-06-10T14:15:39Z</time>
      </trkpt>
      <trkpt lat="44.60055" lon="4.38341">
        <ele>203.9</ele>
        <time>2022-06-10T14:15:41Z</time>
      </trkpt>
      <trkpt lat="44.60055" lon="4.38339">
        <ele>204</ele>
        <time>2022-06-10T14:15:42Z</time>
      </trkpt>
      <trkpt lat="44.60055" lon="4.38338">
        <ele>204.1</ele>
        <time>2022-06-10T14:15:43Z</time>
      </trkpt>
      <trkpt lat="44.60055" lon="4.38336">
        <ele>204.2</ele>
        <time>2022-06-10T14:15:44Z</time>
      </trkpt>
      <trkpt lat="44.60054" lon="4.38333">
        <ele>204.3</ele>
        <time>2022-06-10T14:15:45Z</time>
      </trkpt>
      <trkpt lat="44.60054" lon="4.38329">
        <ele>204.5</ele>
        <time>2022-06-10T14:15:46Z</time>
      </trkpt>
      <trkpt lat="44.60054" lon="4.38328">
        <ele>204.6</ele>
        <time>2022-06-10T14:15:47Z</time>
      </trkpt>
      <trkpt lat="44.60054" lon="4.38325">
        <ele>204.7</ele>
        <time>2022-06-10T14:15:48Z</time>
      </trkpt>
      <trkpt lat="44.60054" lon="4.38323">
        <ele>204.9</ele>
        <time>2022-06-10T14:15:49Z</time>
      </trkpt>
      <trkpt lat="44.60054" lon="4.3832">
        <ele>205</ele>
        <time>2022-06-10T14:15:50Z</time>
      </trkpt>
      <trkpt lat="44.60054" lon="4.38318">
        <ele>205.1</ele>
        <time>2022-06-10T14:15:51Z</time>
      </trkpt>
      <trkpt lat="44.60054" lon="4.38314">
        <ele>205.3</ele>
        <time>2022-06-10T14:15:52Z</time>
      </trkpt>
      <trkpt lat="44.60053" lon="4.38313">
        <ele>205.4</ele>
        <time>2022-06-10T14:15:53Z</time>
      </trkpt>
      <trkpt lat="44.60053" lon="4.38311">
        <ele>205.5</ele>
        <time>2022-06-10T14:15:54Z</time>
      </trkpt>
      <trkpt lat="44.60053" lon="4.38308">
        <ele>205.6</ele>
        <time>2022-06-10T14:15:55Z</time>
      </trkpt>
      <trkpt lat="44.60052" lon="4.38304">
        <ele>205.8</ele>
        <time>2022-06-10T14:15:56Z</time>
      </trkpt>
      <trkpt lat="44.60052" lon="4.38303">
        <ele>205.9</ele>
        <time>2022-06-10T14:15:57Z</time>
      </trkpt>
      <trkpt lat="44.60053" lon="4.383">
        <ele>206</ele>
        <time>2022-06-10T14:15:58Z</time>
      </trkpt>
      <trkpt lat="44.60053" lon="4.38298">
        <ele>206.1</ele>
        <time>2022-06-10T14:15:59Z</time>
      </trkpt>
      <trkpt lat="44.60053" lon="4.38294">
        <ele>206.3</ele>
        <time>2022-06-10T14:16:00Z</time>
      </trkpt>
      <trkpt lat="44.60052" lon="4.38293">
        <ele>206.4</ele>
        <time>2022-06-10T14:16:01Z</time>
      </trkpt>
      <trkpt lat="44.60052" lon="4.38288">
        <ele>206.6</ele>
        <time>2022-06-10T14:16:02Z</time>
      </trkpt>
      <trkpt lat="44.60052" lon="4.38285">
        <ele>206.8</ele>
        <time>2022-06-10T14:16:04Z</time>
      </trkpt>
      <trkpt lat="44.60052" lon="4.38283">
        <ele>206.9</ele>
        <time>2022-06-10T14:16:05Z</time>
      </trkpt>
      <trkpt lat="44.60052" lon="4.38281">
        <ele>207</ele>
        <time>2022-06-10T14:16:06Z</time>
      </trkpt>
      <trkpt lat="44.60052" lon="4.38275">
        <ele>207.3</ele>
        <time>2022-06-10T14:16:08Z</time>
      </trkpt>
      <trkpt lat="44.60052" lon="4.3827">
        <ele>207.6</ele>
        <time>2022-06-10T14:16:09Z</time>
      </trkpt>
      <trkpt lat="44.60052" lon="4.38267">
        <ele>207.7</ele>
        <time>2022-06-10T14:16:10Z</time>
      </trkpt>
      <trkpt lat="44.60051" lon="4.38262">
        <ele>207.9</ele>
        <time>2022-06-10T14:16:11Z</time>
      </trkpt>
      <trkpt lat="44.60051" lon="4.38261">
        <ele>208</ele>
        <time>2022-06-10T14:16:12Z</time>
      </trkpt>
      <trkpt lat="44.6005" lon="4.38254">
        <ele>208.3</ele>
        <time>2022-06-10T14:16:14Z</time>
      </trkpt>
      <trkpt lat="44.60049" lon="4.38253">
        <ele>208.4</ele>
        <time>2022-06-10T14:16:15Z</time>
      </trkpt>
      <trkpt lat="44.60049" lon="4.38251">
        <ele>208.5</ele>
        <time>2022-06-10T14:16:16Z</time>
      </trkpt>
      <trkpt lat="44.60048" lon="4.38248">
        <ele>208.7</ele>
        <time>2022-06-10T14:16:17Z</time>
      </trkpt>
      <trkpt lat="44.60046" lon="4.38244">
        <ele>208.9</ele>
        <time>2022-06-10T14:16:19Z</time>
      </trkpt>
      <trkpt lat="44.60045" lon="4.38241">
        <ele>209.2</ele>
        <time>2022-06-10T14:16:20Z</time>
      </trkpt>
      <trkpt lat="44.60044" lon="4.38239">
        <ele>209.2</ele>
        <time>2022-06-10T14:16:21Z</time>
      </trkpt>
      <trkpt lat="44.60043" lon="4.38236">
        <ele>209.5</ele>
        <time>2022-06-10T14:16:22Z</time>
      </trkpt>
      <trkpt lat="44.60042" lon="4.38235">
        <ele>209.5</ele>
        <time>2022-06-10T14:16:23Z</time>
      </trkpt>
      <trkpt lat="44.6004" lon="4.38232">
        <ele>209.8</ele>
        <time>2022-06-10T14:16:24Z</time>
      </trkpt>
      <trkpt lat="44.60039" lon="4.38231">
        <ele>209.8</ele>
        <time>2022-06-10T14:16:25Z</time>
      </trkpt>
      <trkpt lat="44.60036" lon="4.38227">
        <ele>210.1</ele>
        <time>2022-06-10T14:16:26Z</time>
      </trkpt>
      <trkpt lat="44.60035" lon="4.38225">
        <ele>210.3</ele>
        <time>2022-06-10T14:16:27Z</time>
      </trkpt>
      <trkpt lat="44.60034" lon="4.38222">
        <ele>210.4</ele>
        <time>2022-06-10T14:16:29Z</time>
      </trkpt>
      <trkpt lat="44.60032" lon="4.38219">
        <ele>210.6</ele>
        <time>2022-06-10T14:16:30Z</time>
      </trkpt>
      <trkpt lat="44.60032" lon="4.38218">
        <ele>210.7</ele>
        <time>2022-06-10T14:16:31Z</time>
      </trkpt>
      <trkpt lat="44.6003" lon="4.38214">
        <ele>210.9</ele>
        <time>2022-06-10T14:16:32Z</time>
      </trkpt>
      <trkpt lat="44.60029" lon="4.38213">
        <ele>211</ele>
        <time>2022-06-10T14:16:33Z</time>
      </trkpt>
      <trkpt lat="44.60027" lon="4.38209">
        <ele>211.2</ele>
        <time>2022-06-10T14:16:34Z</time>
      </trkpt>
      <trkpt lat="44.60026" lon="4.38208">
        <ele>211.3</ele>
        <time>2022-06-10T14:16:35Z</time>
      </trkpt>
      <trkpt lat="44.60025" lon="4.38203">
        <ele>211.6</ele>
        <time>2022-06-10T14:16:37Z</time>
      </trkpt>
      <trkpt lat="44.60024" lon="4.38201">
        <ele>211.7</ele>
        <time>2022-06-10T14:16:38Z</time>
      </trkpt>
      <trkpt lat="44.60024" lon="4.38199">
        <ele>211.8</ele>
        <time>2022-06-10T14:16:39Z</time>
      </trkpt>
      <trkpt lat="44.60022" lon="4.38195">
        <ele>212</ele>
        <time>2022-06-10T14:16:40Z</time>
      </trkpt>
      <trkpt lat="44.60021" lon="4.38194">
        <ele>212.1</ele>
        <time>2022-06-10T14:16:41Z</time>
      </trkpt>
      <trkpt lat="44.60019" lon="4.38191">
        <ele>212.3</ele>
        <time>2022-06-10T14:16:42Z</time>
      </trkpt>
      <trkpt lat="44.60018" lon="4.3819">
        <ele>212.4</ele>
        <time>2022-06-10T14:16:43Z</time>
      </trkpt>
      <trkpt lat="44.60016" lon="4.38186">
        <ele>212.6</ele>
        <time>2022-06-10T14:16:44Z</time>
      </trkpt>
      <trkpt lat="44.60015" lon="4.38183">
        <ele>212.8</ele>
        <time>2022-06-10T14:16:45Z</time>
      </trkpt>
      <trkpt lat="44.60014" lon="4.38182">
        <ele>212.9</ele>
        <time>2022-06-10T14:16:46Z</time>
      </trkpt>
      <trkpt lat="44.60013" lon="4.3818">
        <ele>213</ele>
        <time>2022-06-10T14:16:48Z</time>
      </trkpt>
      <trkpt lat="44.60012" lon="4.38178">
        <ele>213.1</ele>
        <time>2022-06-10T14:16:49Z</time>
      </trkpt>
      <trkpt lat="44.60009" lon="4.38174">
        <ele>213.4</ele>
        <time>2022-06-10T14:16:51Z</time>
      </trkpt>
      <trkpt lat="44.60007" lon="4.38171">
        <ele>213.6</ele>
        <time>2022-06-10T14:16:52Z</time>
      </trkpt>
      <trkpt lat="44.60006" lon="4.3817">
        <ele>213.6</ele>
        <time>2022-06-10T14:16:53Z</time>
      </trkpt>
      <trkpt lat="44.60005" lon="4.38167">
        <ele>213.7</ele>
        <time>2022-06-10T14:16:54Z</time>
      </trkpt>
      <trkpt lat="44.60003" lon="4.38162">
        <ele>213.9</ele>
        <time>2022-06-10T14:16:56Z</time>
      </trkpt>
      <trkpt lat="44.60002" lon="4.38161">
        <ele>214</ele>
        <time>2022-06-10T14:16:57Z</time>
      </trkpt>
      <trkpt lat="44.6" lon="4.38157">
        <ele>214.1</ele>
        <time>2022-06-10T14:16:59Z</time>
      </trkpt>
      <trkpt lat="44.59997" lon="4.38153">
        <ele>214.3</ele>
        <time>2022-06-10T14:17:00Z</time>
      </trkpt>
      <trkpt lat="44.59996" lon="4.38152">
        <ele>214.3</ele>
        <time>2022-06-10T14:17:01Z</time>
      </trkpt>
      <trkpt lat="44.59994" lon="4.38149">
        <ele>214.4</ele>
        <time>2022-06-10T14:17:02Z</time>
      </trkpt>
      <trkpt lat="44.59993" lon="4.38148">
        <ele>214.5</ele>
        <time>2022-06-10T14:17:03Z</time>
      </trkpt>
      <trkpt lat="44.59991" lon="4.38144">
        <ele>214.6</ele>
        <time>2022-06-10T14:17:04Z</time>
      </trkpt>
      <trkpt lat="44.5999" lon="4.38143">
        <ele>214.6</ele>
        <time>2022-06-10T14:17:05Z</time>
      </trkpt>
      <trkpt lat="44.59989" lon="4.38139">
        <ele>214.8</ele>
        <time>2022-06-10T14:17:06Z</time>
      </trkpt>
      <trkpt lat="44.59988" lon="4.38137">
        <ele>214.8</ele>
        <time>2022-06-10T14:17:07Z</time>
      </trkpt>
      <trkpt lat="44.59986" lon="4.38133">
        <ele>215</ele>
        <time>2022-06-10T14:17:08Z</time>
      </trkpt>
      <trkpt lat="44.59985" lon="4.38132">
        <ele>215</ele>
        <time>2022-06-10T14:17:09Z</time>
      </trkpt>
      <trkpt lat="44.59983" lon="4.38128">
        <ele>215.1</ele>
        <time>2022-06-10T14:17:10Z</time>
      </trkpt>
      <trkpt lat="44.59983" lon="4.38127">
        <ele>215.2</ele>
        <time>2022-06-10T14:17:11Z</time>
      </trkpt>
      <trkpt lat="44.59981" lon="4.38122">
        <ele>215.3</ele>
        <time>2022-06-10T14:17:12Z</time>
      </trkpt>
      <trkpt lat="44.5998" lon="4.38121">
        <ele>215.4</ele>
        <time>2022-06-10T14:17:13Z</time>
      </trkpt>
      <trkpt lat="44.59978" lon="4.38118">
        <ele>215.5</ele>
        <time>2022-06-10T14:17:14Z</time>
      </trkpt>
      <trkpt lat="44.59978" lon="4.38117">
        <ele>215.5</ele>
        <time>2022-06-10T14:17:15Z</time>
      </trkpt>
      <trkpt lat="44.59976" lon="4.38112">
        <ele>215.7</ele>
        <time>2022-06-10T14:17:16Z</time>
      </trkpt>
      <trkpt lat="44.59975" lon="4.3811">
        <ele>215.8</ele>
        <time>2022-06-10T14:17:17Z</time>
      </trkpt>
      <trkpt lat="44.59973" lon="4.38106">
        <ele>215.9</ele>
        <time>2022-06-10T14:17:18Z</time>
      </trkpt>
      <trkpt lat="44.59972" lon="4.38105">
        <ele>216</ele>
        <time>2022-06-10T14:17:19Z</time>
      </trkpt>
      <trkpt lat="44.5997" lon="4.381">
        <ele>216.2</ele>
        <time>2022-06-10T14:17:20Z</time>
      </trkpt>
      <trkpt lat="44.5997" lon="4.38098">
        <ele>216.2</ele>
        <time>2022-06-10T14:17:21Z</time>
      </trkpt>
      <trkpt lat="44.59968" lon="4.38093">
        <ele>216.4</ele>
        <time>2022-06-10T14:17:22Z</time>
      </trkpt>
      <trkpt lat="44.59967" lon="4.38091">
        <ele>216.5</ele>
        <time>2022-06-10T14:17:23Z</time>
      </trkpt>
      <trkpt lat="44.59965" lon="4.38086">
        <ele>216.7</ele>
        <time>2022-06-10T14:17:25Z</time>
      </trkpt>
      <trkpt lat="44.59964" lon="4.38085">
        <ele>216.7</ele>
        <time>2022-06-10T14:17:26Z</time>
      </trkpt>
      <trkpt lat="44.59963" lon="4.38081">
        <ele>216.7</ele>
        <time>2022-06-10T14:17:27Z</time>
      </trkpt>
      <trkpt lat="44.59961" lon="4.38077">
        <ele>216.7</ele>
        <time>2022-06-10T14:17:28Z</time>
      </trkpt>
      <trkpt lat="44.59961" lon="4.38076">
        <ele>216.8</ele>
        <time>2022-06-10T14:17:29Z</time>
      </trkpt>
      <trkpt lat="44.59959" lon="4.38072">
        <ele>216.8</ele>
        <time>2022-06-10T14:17:30Z</time>
      </trkpt>
      <trkpt lat="44.59957" lon="4.38069">
        <ele>216.8</ele>
        <time>2022-06-10T14:17:31Z</time>
      </trkpt>
      <trkpt lat="44.59956" lon="4.38065">
        <ele>216.9</ele>
        <time>2022-06-10T14:17:32Z</time>
      </trkpt>
      <trkpt lat="44.59954" lon="4.38062">
        <ele>216.9</ele>
        <time>2022-06-10T14:17:33Z</time>
      </trkpt>
      <trkpt lat="44.59952" lon="4.38058">
        <ele>216.9</ele>
        <time>2022-06-10T14:17:34Z</time>
      </trkpt>
      <trkpt lat="44.59951" lon="4.38055">
        <ele>217</ele>
        <time>2022-06-10T14:17:35Z</time>
      </trkpt>
      <trkpt lat="44.59949" lon="4.38051">
        <ele>217</ele>
        <time>2022-06-10T14:17:36Z</time>
      </trkpt>
      <trkpt lat="44.59947" lon="4.38046">
        <ele>217.1</ele>
        <time>2022-06-10T14:17:37Z</time>
      </trkpt>
      <trkpt lat="44.59946" lon="4.38044">
        <ele>217.1</ele>
        <time>2022-06-10T14:17:38Z</time>
      </trkpt>
      <trkpt lat="44.59944" lon="4.3804">
        <ele>217.2</ele>
        <time>2022-06-10T14:17:39Z</time>
      </trkpt>
      <trkpt lat="44.59943" lon="4.38038">
        <ele>217.2</ele>
        <time>2022-06-10T14:17:40Z</time>
      </trkpt>
      <trkpt lat="44.5994" lon="4.38031">
        <ele>217.3</ele>
        <time>2022-06-10T14:17:42Z</time>
      </trkpt>
      <trkpt lat="44.59939" lon="4.38026">
        <ele>217.4</ele>
        <time>2022-06-10T14:17:43Z</time>
      </trkpt>
      <trkpt lat="44.59938" lon="4.38025">
        <ele>217.4</ele>
        <time>2022-06-10T14:17:44Z</time>
      </trkpt>
      <trkpt lat="44.59936" lon="4.3802">
        <ele>217.5</ele>
        <time>2022-06-10T14:17:45Z</time>
      </trkpt>
      <trkpt lat="44.59935" lon="4.38019">
        <ele>217.5</ele>
        <time>2022-06-10T14:17:46Z</time>
      </trkpt>
      <trkpt lat="44.59933" lon="4.38016">
        <ele>217.5</ele>
        <time>2022-06-10T14:17:47Z</time>
      </trkpt>
      <trkpt lat="44.59931" lon="4.38012">
        <ele>217.5</ele>
        <time>2022-06-10T14:17:48Z</time>
      </trkpt>
      <trkpt lat="44.5993" lon="4.3801">
        <ele>217.6</ele>
        <time>2022-06-10T14:17:49Z</time>
      </trkpt>
      <trkpt lat="44.59928" lon="4.38004">
        <ele>217.6</ele>
        <time>2022-06-10T14:17:50Z</time>
      </trkpt>
      <trkpt lat="44.59925" lon="4.37999">
        <ele>217.6</ele>
        <time>2022-06-10T14:17:52Z</time>
      </trkpt>
      <trkpt lat="44.59921" lon="4.37996">
        <ele>217.6</ele>
        <time>2022-06-10T14:17:53Z</time>
      </trkpt>
      <trkpt lat="44.59916" lon="4.37993">
        <ele>217.6</ele>
        <time>2022-06-10T14:17:54Z</time>
      </trkpt>
      <trkpt lat="44.59911" lon="4.3799">
        <ele>217.6</ele>
        <time>2022-06-10T14:17:56Z</time>
      </trkpt>
      <trkpt lat="44.59909" lon="4.37988">
        <ele>217.6</ele>
        <time>2022-06-10T14:17:57Z</time>
      </trkpt>
      <trkpt lat="44.59906" lon="4.37988">
        <ele>217.6</ele>
        <time>2022-06-10T14:17:58Z</time>
      </trkpt>
      <trkpt lat="44.59906" lon="4.37993">
        <ele>217.6</ele>
        <time>2022-06-10T14:17:59Z</time>
      </trkpt>
      <trkpt lat="44.59911" lon="4.37998">
        <ele>217.6</ele>
        <time>2022-06-10T14:18:00Z</time>
      </trkpt>
      <trkpt lat="44.59915" lon="4.38">
        <ele>217.6</ele>
        <time>2022-06-10T14:18:02Z</time>
      </trkpt>
      <trkpt lat="44.59918" lon="4.38003">
        <ele>217.6</ele>
        <time>2022-06-10T14:18:03Z</time>
      </trkpt>
      <trkpt lat="44.59921" lon="4.38006">
        <ele>217.6</ele>
        <time>2022-06-10T14:18:04Z</time>
      </trkpt>
      <trkpt lat="44.59924" lon="4.38007">
        <ele>217.6</ele>
        <time>2022-06-10T14:18:05Z</time>
      </trkpt>
      <trkpt lat="44.59927" lon="4.38008">
        <ele>217.6</ele>
        <time>2022-06-10T14:18:06Z</time>
      </trkpt>
      <trkpt lat="44.59931" lon="4.3801">
        <ele>217.6</ele>
        <time>2022-06-10T14:18:07Z</time>
      </trkpt>
      <trkpt lat="44.59935" lon="4.38012">
        <ele>217.7</ele>
        <time>2022-06-10T14:18:08Z</time>
      </trkpt>
      <trkpt lat="44.59939" lon="4.38012">
        <ele>217.7</ele>
        <time>2022-06-10T14:18:10Z</time>
      </trkpt>
      <trkpt lat="44.59942" lon="4.38012">
        <ele>217.7</ele>
        <time>2022-06-10T14:18:11Z</time>
      </trkpt>
      <trkpt lat="44.59945" lon="4.38012">
        <ele>217.8</ele>
        <time>2022-06-10T14:18:12Z</time>
      </trkpt>
      <trkpt lat="44.59949" lon="4.38014">
        <ele>217.8</ele>
        <time>2022-06-10T14:18:13Z</time>
      </trkpt>
      <trkpt lat="44.59953" lon="4.38015">
        <ele>217.8</ele>
        <time>2022-06-10T14:18:15Z</time>
      </trkpt>
      <trkpt lat="44.59956" lon="4.38016">
        <ele>217.8</ele>
        <time>2022-06-10T14:18:16Z</time>
      </trkpt>
      <trkpt lat="44.5996" lon="4.38016">
        <ele>217.9</ele>
        <time>2022-06-10T14:18:17Z</time>
      </trkpt>
      <trkpt lat="44.59963" lon="4.38016">
        <ele>217.9</ele>
        <time>2022-06-10T14:18:18Z</time>
      </trkpt>
      <trkpt lat="44.59967" lon="4.38017">
        <ele>217.9</ele>
        <time>2022-06-10T14:18:19Z</time>
      </trkpt>
      <trkpt lat="44.59973" lon="4.38018">
        <ele>217.9</ele>
        <time>2022-06-10T14:18:20Z</time>
      </trkpt>
      <trkpt lat="44.59976" lon="4.38018">
        <ele>218</ele>
        <time>2022-06-10T14:18:21Z</time>
      </trkpt>
      <trkpt lat="44.59981" lon="4.38018">
        <ele>218</ele>
        <time>2022-06-10T14:18:22Z</time>
      </trkpt>
      <trkpt lat="44.59985" lon="4.38016">
        <ele>218.1</ele>
        <time>2022-06-10T14:18:24Z</time>
      </trkpt>
      <trkpt lat="44.59989" lon="4.38013">
        <ele>218.2</ele>
        <time>2022-06-10T14:18:25Z</time>
      </trkpt>
      <trkpt lat="44.59994" lon="4.38007">
        <ele>218.3</ele>
        <time>2022-06-10T14:18:26Z</time>
      </trkpt>
      <trkpt lat="44.59996" lon="4.38003">
        <ele>218.3</ele>
        <time>2022-06-10T14:18:28Z</time>
      </trkpt>
      <trkpt lat="44.59998" lon="4.37998">
        <ele>218.4</ele>
        <time>2022-06-10T14:18:29Z</time>
      </trkpt>
      <trkpt lat="44.59999" lon="4.37993">
        <ele>218.5</ele>
        <time>2022-06-10T14:18:30Z</time>
      </trkpt>
      <trkpt lat="44.6" lon="4.37984">
        <ele>218.6</ele>
        <time>2022-06-10T14:18:31Z</time>
      </trkpt>
      <trkpt lat="44.6" lon="4.37977">
        <ele>218.8</ele>
        <time>2022-06-10T14:18:32Z</time>
      </trkpt>
      <trkpt lat="44.59999" lon="4.37971">
        <ele>218.9</ele>
        <time>2022-06-10T14:18:34Z</time>
      </trkpt>
      <trkpt lat="44.59998" lon="4.37967">
        <ele>219</ele>
        <time>2022-06-10T14:18:35Z</time>
      </trkpt>
      <trkpt lat="44.59997" lon="4.37963">
        <ele>219.1</ele>
        <time>2022-06-10T14:18:36Z</time>
      </trkpt>
      <trkpt lat="44.59996" lon="4.37959">
        <ele>219.2</ele>
        <time>2022-06-10T14:18:37Z</time>
      </trkpt>
      <trkpt lat="44.59996" lon="4.37954">
        <ele>219.4</ele>
        <time>2022-06-10T14:18:38Z</time>
      </trkpt>
      <trkpt lat="44.59995" lon="4.3795">
        <ele>219.5</ele>
        <time>2022-06-10T14:18:39Z</time>
      </trkpt>
      <trkpt lat="44.59994" lon="4.37946">
        <ele>219.6</ele>
        <time>2022-06-10T14:18:40Z</time>
      </trkpt>
      <trkpt lat="44.59992" lon="4.37942">
        <ele>219.7</ele>
        <time>2022-06-10T14:18:41Z</time>
      </trkpt>
      <trkpt lat="44.59991" lon="4.37936">
        <ele>219.8</ele>
        <time>2022-06-10T14:18:42Z</time>
      </trkpt>
      <trkpt lat="44.5999" lon="4.37934">
        <ele>219.8</ele>
        <time>2022-06-10T14:18:43Z</time>
      </trkpt>
      <trkpt lat="44.59989" lon="4.37928">
        <ele>219.9</ele>
        <time>2022-06-10T14:18:44Z</time>
      </trkpt>
      <trkpt lat="44.59988" lon="4.37924">
        <ele>220</ele>
        <time>2022-06-10T14:18:46Z</time>
      </trkpt>
      <trkpt lat="44.59987" lon="4.37918">
        <ele>220.1</ele>
        <time>2022-06-10T14:18:47Z</time>
      </trkpt>
      <trkpt lat="44.59986" lon="4.37914">
        <ele>220.2</ele>
        <time>2022-06-10T14:18:48Z</time>
      </trkpt>
      <trkpt lat="44.59986" lon="4.37909">
        <ele>220.3</ele>
        <time>2022-06-10T14:18:49Z</time>
      </trkpt>
      <trkpt lat="44.59985" lon="4.37905">
        <ele>220.4</ele>
        <time>2022-06-10T14:18:50Z</time>
      </trkpt>
      <trkpt lat="44.59985" lon="4.379">
        <ele>220.5</ele>
        <time>2022-06-10T14:18:51Z</time>
      </trkpt>
      <trkpt lat="44.59984" lon="4.37895">
        <ele>220.6</ele>
        <time>2022-06-10T14:18:52Z</time>
      </trkpt>
      <trkpt lat="44.59983" lon="4.37891">
        <ele>220.6</ele>
        <time>2022-06-10T14:18:54Z</time>
      </trkpt>
      <trkpt lat="44.59982" lon="4.37887">
        <ele>220.7</ele>
        <time>2022-06-10T14:18:55Z</time>
      </trkpt>
      <trkpt lat="44.59982" lon="4.3788">
        <ele>220.8</ele>
        <time>2022-06-10T14:18:56Z</time>
      </trkpt>
      <trkpt lat="44.59981" lon="4.37876">
        <ele>220.9</ele>
        <time>2022-06-10T14:18:57Z</time>
      </trkpt>
      <trkpt lat="44.5998" lon="4.3787">
        <ele>221</ele>
        <time>2022-06-10T14:18:58Z</time>
      </trkpt>
      <trkpt lat="44.59979" lon="4.37864">
        <ele>221.1</ele>
        <time>2022-06-10T14:19:00Z</time>
      </trkpt>
      <trkpt lat="44.59978" lon="4.37859">
        <ele>221.1</ele>
        <time>2022-06-10T14:19:01Z</time>
      </trkpt>
      <trkpt lat="44.59978" lon="4.37857">
        <ele>221.2</ele>
        <time>2022-06-10T14:19:02Z</time>
      </trkpt>
      <trkpt lat="44.59978" lon="4.37849">
        <ele>221.3</ele>
        <time>2022-06-10T14:19:03Z</time>
      </trkpt>
      <trkpt lat="44.59978" lon="4.37842">
        <ele>221.3</ele>
        <time>2022-06-10T14:19:04Z</time>
      </trkpt>
      <trkpt lat="44.59977" lon="4.37836">
        <ele>221.4</ele>
        <time>2022-06-10T14:19:06Z</time>
      </trkpt>
      <trkpt lat="44.59976" lon="4.37831">
        <ele>221.4</ele>
        <time>2022-06-10T14:19:07Z</time>
      </trkpt>
      <trkpt lat="44.59976" lon="4.37826">
        <ele>221.5</ele>
        <time>2022-06-10T14:19:08Z</time>
      </trkpt>
      <trkpt lat="44.59976" lon="4.37821">
        <ele>221.5</ele>
        <time>2022-06-10T14:19:09Z</time>
      </trkpt>
      <trkpt lat="44.59976" lon="4.37816">
        <ele>221.5</ele>
        <time>2022-06-10T14:19:10Z</time>
      </trkpt>
      <trkpt lat="44.59975" lon="4.37811">
        <ele>221.5</ele>
        <time>2022-06-10T14:19:11Z</time>
      </trkpt>
      <trkpt lat="44.59974" lon="4.37806">
        <ele>221.5</ele>
        <time>2022-06-10T14:19:12Z</time>
      </trkpt>
      <trkpt lat="44.59974" lon="4.37801">
        <ele>221.5</ele>
        <time>2022-06-10T14:19:13Z</time>
      </trkpt>
      <trkpt lat="44.59974" lon="4.37797">
        <ele>221.5</ele>
        <time>2022-06-10T14:19:14Z</time>
      </trkpt>
      <trkpt lat="44.59972" lon="4.37793">
        <ele>221.5</ele>
        <time>2022-06-10T14:19:15Z</time>
      </trkpt>
      <trkpt lat="44.59971" lon="4.37792">
        <ele>221.4</ele>
        <time>2022-06-10T14:19:16Z</time>
      </trkpt>
      <trkpt lat="44.5997" lon="4.37792">
        <ele>221.4</ele>
        <time>2022-06-10T14:19:17Z</time>
      </trkpt>
      <trkpt lat="44.59969" lon="4.37791">
        <ele>221.3</ele>
        <time>2022-06-10T14:19:18Z</time>
      </trkpt>
      <trkpt lat="44.59967" lon="4.37792">
        <ele>221.3</ele>
        <time>2022-06-10T14:19:19Z</time>
      </trkpt>
      <trkpt lat="44.59964" lon="4.37793">
        <ele>221.1</ele>
        <time>2022-06-10T14:19:20Z</time>
      </trkpt>
      <trkpt lat="44.59963" lon="4.37793">
        <ele>221.1</ele>
        <time>2022-06-10T14:19:21Z</time>
      </trkpt>
      <trkpt lat="44.59961" lon="4.37796">
        <ele>221</ele>
        <time>2022-06-10T14:19:22Z</time>
      </trkpt>
      <trkpt lat="44.59958" lon="4.37799">
        <ele>220.9</ele>
        <time>2022-06-10T14:19:23Z</time>
      </trkpt>
      <trkpt lat="44.59955" lon="4.37801">
        <ele>220.8</ele>
        <time>2022-06-10T14:19:24Z</time>
      </trkpt>
      <trkpt lat="44.59952" lon="4.37803">
        <ele>220.7</ele>
        <time>2022-06-10T14:19:25Z</time>
      </trkpt>
      <trkpt lat="44.59948" lon="4.37804">
        <ele>220.5</ele>
        <time>2022-06-10T14:19:26Z</time>
      </trkpt>
      <trkpt lat="44.59945" lon="4.37806">
        <ele>220.4</ele>
        <time>2022-06-10T14:19:27Z</time>
      </trkpt>
      <trkpt lat="44.59943" lon="4.37807">
        <ele>220.4</ele>
        <time>2022-06-10T14:19:28Z</time>
      </trkpt>
      <trkpt lat="44.59942" lon="4.37807">
        <ele>220.4</ele>
        <time>2022-06-10T14:19:29Z</time>
      </trkpt>
      <trkpt lat="44.59942" lon="4.37808">
        <ele>220.3</ele>
        <time>2022-06-10T14:19:30Z</time>
      </trkpt>
      <trkpt lat="44.59942" lon="4.3781">
        <ele>220.3</ele>
        <time>2022-06-10T14:19:31Z</time>
      </trkpt>
      <trkpt lat="44.59943" lon="4.3781">
        <ele>220.3</ele>
        <time>2022-06-10T14:19:32Z</time>
      </trkpt>
      <trkpt lat="44.59943" lon="4.3781">
        <ele>220.3</ele>
        <time>2022-06-10T14:19:33Z</time>
      </trkpt>
      <trkpt lat="44.59943" lon="4.37811">
        <ele>220.3</ele>
        <time>2022-06-10T14:19:34Z</time>
      </trkpt>
      <trkpt lat="44.59943" lon="4.37811">
        <ele>220.3</ele>
        <time>2022-06-10T14:19:35Z</time>
      </trkpt>
      <trkpt lat="44.59943" lon="4.37811">
        <ele>220.3</ele>
        <time>2022-06-10T14:19:36Z</time>
      </trkpt>
      <trkpt lat="44.59944" lon="4.37811">
        <ele>220.3</ele>
        <time>2022-06-10T14:19:37Z</time>
      </trkpt>
      <trkpt lat="44.59944" lon="4.3781">
        <ele>220.3</ele>
        <time>2022-06-10T14:19:38Z</time>
      </trkpt>
      <trkpt lat="44.59944" lon="4.3781">
        <ele>220.3</ele>
        <time>2022-06-10T14:19:39Z</time>
      </trkpt>
      <trkpt lat="44.5994" lon="4.37812">
        <ele>220.1</ele>
        <time>2022-06-10T14:19:50Z</time>
      </trkpt>
      <trkpt lat="44.59936" lon="4.37815">
        <ele>220</ele>
        <time>2022-06-10T14:19:52Z</time>
      </trkpt>
      <trkpt lat="44.59932" lon="4.37817">
        <ele>219.9</ele>
        <time>2022-06-10T14:19:53Z</time>
      </trkpt>
      <trkpt lat="44.59929" lon="4.37818">
        <ele>219.8</ele>
        <time>2022-06-10T14:19:54Z</time>
      </trkpt>
      <trkpt lat="44.59923" lon="4.3782">
        <ele>219.6</ele>
        <time>2022-06-10T14:19:55Z</time>
      </trkpt>
      <trkpt lat="44.59919" lon="4.37823">
        <ele>219.5</ele>
        <time>2022-06-10T14:19:56Z</time>
      </trkpt>
      <trkpt lat="44.59914" lon="4.37827">
        <ele>219.4</ele>
        <time>2022-06-10T14:19:57Z</time>
      </trkpt>
      <trkpt lat="44.59907" lon="4.37833">
        <ele>219.2</ele>
        <time>2022-06-10T14:19:59Z</time>
      </trkpt>
      <trkpt lat="44.59903" lon="4.37836">
        <ele>219</ele>
        <time>2022-06-10T14:20:00Z</time>
      </trkpt>
      <trkpt lat="44.59899" lon="4.37839">
        <ele>218.9</ele>
        <time>2022-06-10T14:20:01Z</time>
      </trkpt>
      <trkpt lat="44.59894" lon="4.37844">
        <ele>218.7</ele>
        <time>2022-06-10T14:20:02Z</time>
      </trkpt>
      <trkpt lat="44.59889" lon="4.37848">
        <ele>218.6</ele>
        <time>2022-06-10T14:20:03Z</time>
      </trkpt>
      <trkpt lat="44.59884" lon="4.37852">
        <ele>218.4</ele>
        <time>2022-06-10T14:20:04Z</time>
      </trkpt>
      <trkpt lat="44.59878" lon="4.37855">
        <ele>218.3</ele>
        <time>2022-06-10T14:20:05Z</time>
      </trkpt>
      <trkpt lat="44.59873" lon="4.37857">
        <ele>218.1</ele>
        <time>2022-06-10T14:20:06Z</time>
      </trkpt>
      <trkpt lat="44.59868" lon="4.3786">
        <ele>217.9</ele>
        <time>2022-06-10T14:20:07Z</time>
      </trkpt>
      <trkpt lat="44.59863" lon="4.37864">
        <ele>217.7</ele>
        <time>2022-06-10T14:20:08Z</time>
      </trkpt>
      <trkpt lat="44.59857" lon="4.37868">
        <ele>217.6</ele>
        <time>2022-06-10T14:20:09Z</time>
      </trkpt>
      <trkpt lat="44.59851" lon="4.37872">
        <ele>217.4</ele>
        <time>2022-06-10T14:20:10Z</time>
      </trkpt>
      <trkpt lat="44.59846" lon="4.37874">
        <ele>217.3</ele>
        <time>2022-06-10T14:20:11Z</time>
      </trkpt>
      <trkpt lat="44.5984" lon="4.37876">
        <ele>217.1</ele>
        <time>2022-06-10T14:20:12Z</time>
      </trkpt>
      <trkpt lat="44.59835" lon="4.3788">
        <ele>217</ele>
        <time>2022-06-10T14:20:13Z</time>
      </trkpt>
      <trkpt lat="44.59829" lon="4.37883">
        <ele>216.8</ele>
        <time>2022-06-10T14:20:14Z</time>
      </trkpt>
      <trkpt lat="44.59823" lon="4.37887">
        <ele>216.7</ele>
        <time>2022-06-10T14:20:15Z</time>
      </trkpt>
      <trkpt lat="44.59818" lon="4.37891">
        <ele>216.6</ele>
        <time>2022-06-10T14:20:16Z</time>
      </trkpt>
      <trkpt lat="44.59812" lon="4.37894">
        <ele>216.4</ele>
        <time>2022-06-10T14:20:17Z</time>
      </trkpt>
      <trkpt lat="44.59807" lon="4.37898">
        <ele>216.3</ele>
        <time>2022-06-10T14:20:18Z</time>
      </trkpt>
      <trkpt lat="44.59801" lon="4.37902">
        <ele>216.2</ele>
        <time>2022-06-10T14:20:19Z</time>
      </trkpt>
      <trkpt lat="44.59796" lon="4.37905">
        <ele>216.1</ele>
        <time>2022-06-10T14:20:20Z</time>
      </trkpt>
      <trkpt lat="44.5979" lon="4.37909">
        <ele>216</ele>
        <time>2022-06-10T14:20:21Z</time>
      </trkpt>
      <trkpt lat="44.59785" lon="4.37911">
        <ele>215.9</ele>
        <time>2022-06-10T14:20:22Z</time>
      </trkpt>
      <trkpt lat="44.5978" lon="4.3791">
        <ele>215.9</ele>
        <time>2022-06-10T14:20:23Z</time>
      </trkpt>
      <trkpt lat="44.59775" lon="4.37909">
        <ele>215.8</ele>
        <time>2022-06-10T14:20:24Z</time>
      </trkpt>
      <trkpt lat="44.59769" lon="4.3791">
        <ele>215.7</ele>
        <time>2022-06-10T14:20:25Z</time>
      </trkpt>
      <trkpt lat="44.59764" lon="4.37914">
        <ele>215.6</ele>
        <time>2022-06-10T14:20:26Z</time>
      </trkpt>
      <trkpt lat="44.5976" lon="4.37918">
        <ele>215.5</ele>
        <time>2022-06-10T14:20:27Z</time>
      </trkpt>
      <trkpt lat="44.59755" lon="4.3792">
        <ele>215.4</ele>
        <time>2022-06-10T14:20:28Z</time>
      </trkpt>
      <trkpt lat="44.5975" lon="4.37922">
        <ele>215.3</ele>
        <time>2022-06-10T14:20:29Z</time>
      </trkpt>
      <trkpt lat="44.59746" lon="4.37925">
        <ele>215.2</ele>
        <time>2022-06-10T14:20:30Z</time>
      </trkpt>
      <trkpt lat="44.59742" lon="4.37929">
        <ele>215.1</ele>
        <time>2022-06-10T14:20:31Z</time>
      </trkpt>
      <trkpt lat="44.59737" lon="4.37933">
        <ele>214.9</ele>
        <time>2022-06-10T14:20:32Z</time>
      </trkpt>
      <trkpt lat="44.59733" lon="4.37938">
        <ele>214.8</ele>
        <time>2022-06-10T14:20:33Z</time>
      </trkpt>
      <trkpt lat="44.59729" lon="4.37943">
        <ele>214.7</ele>
        <time>2022-06-10T14:20:34Z</time>
      </trkpt>
      <trkpt lat="44.59724" lon="4.37948">
        <ele>214.5</ele>
        <time>2022-06-10T14:20:35Z</time>
      </trkpt>
      <trkpt lat="44.59719" lon="4.37953">
        <ele>214.4</ele>
        <time>2022-06-10T14:20:36Z</time>
      </trkpt>
      <trkpt lat="44.59713" lon="4.37958">
        <ele>214.2</ele>
        <time>2022-06-10T14:20:37Z</time>
      </trkpt>
      <trkpt lat="44.59708" lon="4.37963">
        <ele>214.1</ele>
        <time>2022-06-10T14:20:38Z</time>
      </trkpt>
      <trkpt lat="44.59703" lon="4.37968">
        <ele>213.9</ele>
        <time>2022-06-10T14:20:39Z</time>
      </trkpt>
      <trkpt lat="44.59698" lon="4.37974">
        <ele>213.8</ele>
        <time>2022-06-10T14:20:40Z</time>
      </trkpt>
      <trkpt lat="44.59693" lon="4.37979">
        <ele>213.6</ele>
        <time>2022-06-10T14:20:41Z</time>
      </trkpt>
      <trkpt lat="44.59688" lon="4.37984">
        <ele>213.5</ele>
        <time>2022-06-10T14:20:42Z</time>
      </trkpt>
      <trkpt lat="44.59683" lon="4.3799">
        <ele>213.4</ele>
        <time>2022-06-10T14:20:43Z</time>
      </trkpt>
      <trkpt lat="44.59678" lon="4.37996">
        <ele>213.3</ele>
        <time>2022-06-10T14:20:44Z</time>
      </trkpt>
      <trkpt lat="44.59672" lon="4.38001">
        <ele>213.1</ele>
        <time>2022-06-10T14:20:45Z</time>
      </trkpt>
      <trkpt lat="44.59667" lon="4.38007">
        <ele>213</ele>
        <time>2022-06-10T14:20:46Z</time>
      </trkpt>
      <trkpt lat="44.59662" lon="4.38013">
        <ele>212.9</ele>
        <time>2022-06-10T14:20:47Z</time>
      </trkpt>
      <trkpt lat="44.59657" lon="4.38018">
        <ele>212.8</ele>
        <time>2022-06-10T14:20:48Z</time>
      </trkpt>
      <trkpt lat="44.59651" lon="4.38023">
        <ele>212.7</ele>
        <time>2022-06-10T14:20:49Z</time>
      </trkpt>
      <trkpt lat="44.59647" lon="4.38029">
        <ele>212.6</ele>
        <time>2022-06-10T14:20:50Z</time>
      </trkpt>
      <trkpt lat="44.59642" lon="4.38035">
        <ele>212.5</ele>
        <time>2022-06-10T14:20:51Z</time>
      </trkpt>
      <trkpt lat="44.59637" lon="4.38041">
        <ele>212.4</ele>
        <time>2022-06-10T14:20:52Z</time>
      </trkpt>
      <trkpt lat="44.59633" lon="4.38048">
        <ele>212.4</ele>
        <time>2022-06-10T14:20:53Z</time>
      </trkpt>
      <trkpt lat="44.59628" lon="4.38054">
        <ele>212.3</ele>
        <time>2022-06-10T14:20:54Z</time>
      </trkpt>
      <trkpt lat="44.59623" lon="4.38059">
        <ele>212.3</ele>
        <time>2022-06-10T14:20:55Z</time>
      </trkpt>
      <trkpt lat="44.59618" lon="4.38065">
        <ele>212.3</ele>
        <time>2022-06-10T14:20:56Z</time>
      </trkpt>
      <trkpt lat="44.59613" lon="4.38071">
        <ele>212.2</ele>
        <time>2022-06-10T14:20:57Z</time>
      </trkpt>
      <trkpt lat="44.59609" lon="4.38076">
        <ele>212.2</ele>
        <time>2022-06-10T14:20:58Z</time>
      </trkpt>
      <trkpt lat="44.59605" lon="4.38081">
        <ele>212.2</ele>
        <time>2022-06-10T14:20:59Z</time>
      </trkpt>
      <trkpt lat="44.59603" lon="4.38085">
        <ele>212.2</ele>
        <time>2022-06-10T14:21:00Z</time>
      </trkpt>
      <trkpt lat="44.59603" lon="4.38091">
        <ele>212.2</ele>
        <time>2022-06-10T14:21:01Z</time>
      </trkpt>
      <trkpt lat="44.59603" lon="4.38094">
        <ele>212.2</ele>
        <time>2022-06-10T14:21:02Z</time>
      </trkpt>
      <trkpt lat="44.59602" lon="4.38099">
        <ele>212.2</ele>
        <time>2022-06-10T14:21:03Z</time>
      </trkpt>
      <trkpt lat="44.59601" lon="4.381">
        <ele>212.2</ele>
        <time>2022-06-10T14:21:04Z</time>
      </trkpt>
      <trkpt lat="44.59599" lon="4.38103">
        <ele>212.1</ele>
        <time>2022-06-10T14:21:05Z</time>
      </trkpt>
      <trkpt lat="44.59598" lon="4.38104">
        <ele>212.1</ele>
        <time>2022-06-10T14:21:06Z</time>
      </trkpt>
      <trkpt lat="44.59596" lon="4.38105">
        <ele>212.1</ele>
        <time>2022-06-10T14:21:07Z</time>
      </trkpt>
      <trkpt lat="44.59594" lon="4.38104">
        <ele>212.1</ele>
        <time>2022-06-10T14:21:08Z</time>
      </trkpt>
      <trkpt lat="44.5959" lon="4.38111">
        <ele>212.1</ele>
        <time>2022-06-10T14:21:09Z</time>
      </trkpt>
      <trkpt lat="44.59589" lon="4.38116">
        <ele>212.1</ele>
        <time>2022-06-10T14:21:10Z</time>
      </trkpt>
      <trkpt lat="44.59588" lon="4.38122">
        <ele>212</ele>
        <time>2022-06-10T14:21:12Z</time>
      </trkpt>
      <trkpt lat="44.59588" lon="4.38126">
        <ele>212</ele>
        <time>2022-06-10T14:21:13Z</time>
      </trkpt>
      <trkpt lat="44.59586" lon="4.38132">
        <ele>211.9</ele>
        <time>2022-06-10T14:21:14Z</time>
      </trkpt>
      <trkpt lat="44.59583" lon="4.38136">
        <ele>211.8</ele>
        <time>2022-06-10T14:21:15Z</time>
      </trkpt>
      <trkpt lat="44.5958" lon="4.38141">
        <ele>211.6</ele>
        <time>2022-06-10T14:21:16Z</time>
      </trkpt>
      <trkpt lat="44.59576" lon="4.38145">
        <ele>211.5</ele>
        <time>2022-06-10T14:21:17Z</time>
      </trkpt>
      <trkpt lat="44.59569" lon="4.38144">
        <ele>211.2</ele>
        <time>2022-06-10T14:21:18Z</time>
      </trkpt>
      <trkpt lat="44.59565" lon="4.38147">
        <ele>211.1</ele>
        <time>2022-06-10T14:21:19Z</time>
      </trkpt>
      <trkpt lat="44.59562" lon="4.38145">
        <ele>211</ele>
        <time>2022-06-10T14:21:20Z</time>
      </trkpt>
      <trkpt lat="44.59558" lon="4.38144">
        <ele>210.9</ele>
        <time>2022-06-10T14:21:21Z</time>
      </trkpt>
      <trkpt lat="44.59554" lon="4.38146">
        <ele>210.7</ele>
        <time>2022-06-10T14:21:22Z</time>
      </trkpt>
      <trkpt lat="44.5955" lon="4.38149">
        <ele>210.6</ele>
        <time>2022-06-10T14:21:23Z</time>
      </trkpt>
      <trkpt lat="44.59546" lon="4.38152">
        <ele>210.5</ele>
        <time>2022-06-10T14:21:24Z</time>
      </trkpt>
      <trkpt lat="44.59542" lon="4.38156">
        <ele>210.4</ele>
        <time>2022-06-10T14:21:25Z</time>
      </trkpt>
      <trkpt lat="44.59539" lon="4.38157">
        <ele>210.4</ele>
        <time>2022-06-10T14:21:27Z</time>
      </trkpt>
      <trkpt lat="44.59538" lon="4.38158">
        <ele>210.4</ele>
        <time>2022-06-10T14:21:28Z</time>
      </trkpt>
      <trkpt lat="44.59537" lon="4.38159">
        <ele>210.4</ele>
        <time>2022-06-10T14:21:29Z</time>
      </trkpt>
      <trkpt lat="44.59537" lon="4.3816">
        <ele>210.4</ele>
        <time>2022-06-10T14:21:30Z</time>
      </trkpt>
      <trkpt lat="44.59538" lon="4.3816">
        <ele>210.4</ele>
        <time>2022-06-10T14:21:31Z</time>
      </trkpt>
      <trkpt lat="44.59539" lon="4.38159">
        <ele>210.4</ele>
        <time>2022-06-10T14:21:32Z</time>
      </trkpt>
      <trkpt lat="44.59539" lon="4.38159">
        <ele>210.3</ele>
        <time>2022-06-10T14:21:33Z</time>
      </trkpt>
      <trkpt lat="44.5954" lon="4.38159">
        <ele>210.3</ele>
        <time>2022-06-10T14:21:34Z</time>
      </trkpt>
      <trkpt lat="44.5954" lon="4.38159">
        <ele>210.3</ele>
        <time>2022-06-10T14:21:35Z</time>
      </trkpt>
      <trkpt lat="44.5954" lon="4.38159">
        <ele>210.3</ele>
        <time>2022-06-10T14:21:36Z</time>
      </trkpt>
      <trkpt lat="44.5954" lon="4.38159">
        <ele>210.3</ele>
        <time>2022-06-10T14:21:37Z</time>
      </trkpt>
      <trkpt lat="44.5954" lon="4.38159">
        <ele>210.3</ele>
        <time>2022-06-10T14:21:38Z</time>
      </trkpt>
      <trkpt lat="44.59539" lon="4.38159">
        <ele>210.3</ele>
        <time>2022-06-10T14:21:39Z</time>
      </trkpt>
      <trkpt lat="44.59539" lon="4.38159">
        <ele>210.3</ele>
        <time>2022-06-10T14:21:40Z</time>
      </trkpt>
      <trkpt lat="44.59542" lon="4.38156">
        <ele>210.3</ele>
        <time>2022-06-10T14:21:57Z</time>
      </trkpt>
      <trkpt lat="44.59542" lon="4.38156">
        <ele>210.3</ele>
        <time>2022-06-10T14:21:58Z</time>
      </trkpt>
      <trkpt lat="44.59542" lon="4.38155">
        <ele>210.3</ele>
        <time>2022-06-10T14:21:59Z</time>
      </trkpt>
      <trkpt lat="44.59542" lon="4.38155">
        <ele>210.3</ele>
        <time>2022-06-10T14:22:00Z</time>
      </trkpt>
      <trkpt lat="44.59541" lon="4.38155">
        <ele>210.3</ele>
        <time>2022-06-10T14:22:01Z</time>
      </trkpt>
      <trkpt lat="44.5954" lon="4.38155">
        <ele>210.3</ele>
        <time>2022-06-10T14:22:02Z</time>
      </trkpt>
      <trkpt lat="44.5954" lon="4.38154">
        <ele>210.3</ele>
        <time>2022-06-10T14:22:03Z</time>
      </trkpt>
      <trkpt lat="44.5954" lon="4.38152">
        <ele>210.3</ele>
        <time>2022-06-10T14:22:04Z</time>
      </trkpt>
      <trkpt lat="44.59539" lon="4.38149">
        <ele>210.3</ele>
        <time>2022-06-10T14:22:05Z</time>
      </trkpt>
      <trkpt lat="44.59538" lon="4.38145">
        <ele>210.3</ele>
        <time>2022-06-10T14:22:07Z</time>
      </trkpt>
      <trkpt lat="44.59538" lon="4.38143">
        <ele>210.2</ele>
        <time>2022-06-10T14:22:09Z</time>
      </trkpt>
      <trkpt lat="44.59537" lon="4.38141">
        <ele>210.2</ele>
        <time>2022-06-10T14:22:10Z</time>
      </trkpt>
      <trkpt lat="44.59537" lon="4.3814">
        <ele>210.2</ele>
        <time>2022-06-10T14:22:11Z</time>
      </trkpt>
      <trkpt lat="44.59536" lon="4.38138">
        <ele>210.2</ele>
        <time>2022-06-10T14:22:12Z</time>
      </trkpt>
      <trkpt lat="44.59535" lon="4.38137">
        <ele>210.2</ele>
        <time>2022-06-10T14:22:13Z</time>
      </trkpt>
      <trkpt lat="44.59534" lon="4.38136">
        <ele>210.2</ele>
        <time>2022-06-10T14:22:14Z</time>
      </trkpt>
      <trkpt lat="44.59534" lon="4.38136">
        <ele>210.2</ele>
        <time>2022-06-10T14:22:15Z</time>
      </trkpt>
      <trkpt lat="44.59534" lon="4.38137">
        <ele>210.2</ele>
        <time>2022-06-10T14:22:16Z</time>
      </trkpt>
      <trkpt lat="44.59535" lon="4.38138">
        <ele>210.2</ele>
        <time>2022-06-10T14:22:17Z</time>
      </trkpt>
      <trkpt lat="44.59535" lon="4.38139">
        <ele>210.2</ele>
        <time>2022-06-10T14:22:18Z</time>
      </trkpt>
      <trkpt lat="44.59536" lon="4.3814">
        <ele>210.2</ele>
        <time>2022-06-10T14:22:19Z</time>
      </trkpt>
      <trkpt lat="44.59536" lon="4.38141">
        <ele>210.2</ele>
        <time>2022-06-10T14:22:20Z</time>
      </trkpt>
      <trkpt lat="44.59537" lon="4.38142">
        <ele>210.2</ele>
        <time>2022-06-10T14:22:21Z</time>
      </trkpt>
      <trkpt lat="44.59537" lon="4.38143">
        <ele>210.2</ele>
        <time>2022-06-10T14:22:22Z</time>
      </trkpt>
      <trkpt lat="44.59538" lon="4.38144">
        <ele>210.1</ele>
        <time>2022-06-10T14:22:23Z</time>
      </trkpt>
      <trkpt lat="44.59538" lon="4.38145">
        <ele>210.1</ele>
        <time>2022-06-10T14:22:24Z</time>
      </trkpt>
      <trkpt lat="44.59539" lon="4.38145">
        <ele>210.1</ele>
        <time>2022-06-10T14:22:25Z</time>
      </trkpt>
      <trkpt lat="44.59539" lon="4.38146">
        <ele>210.1</ele>
        <time>2022-06-10T14:25:45Z</time>
      </trkpt>
      <trkpt lat="44.5954" lon="4.38147">
        <ele>210.1</ele>
        <time>2022-06-10T14:25:47Z</time>
      </trkpt>
      <trkpt lat="44.5954" lon="4.38148">
        <ele>210.1</ele>
        <time>2022-06-10T14:25:48Z</time>
      </trkpt>
      <trkpt lat="44.59541" lon="4.38149">
        <ele>210.1</ele>
        <time>2022-06-10T14:25:49Z</time>
      </trkpt>
      <trkpt lat="44.59543" lon="4.38152">
        <ele>210.1</ele>
        <time>2022-06-10T14:25:50Z</time>
      </trkpt>
      <trkpt lat="44.59544" lon="4.38153">
        <ele>210.1</ele>
        <time>2022-06-10T14:25:51Z</time>
      </trkpt>
      <trkpt lat="44.59543" lon="4.38155">
        <ele>210.1</ele>
        <time>2022-06-10T14:25:52Z</time>
      </trkpt>
      <trkpt lat="44.59543" lon="4.38158">
        <ele>210.1</ele>
        <time>2022-06-10T14:25:53Z</time>
      </trkpt>
      <trkpt lat="44.59541" lon="4.3816">
        <ele>210</ele>
        <time>2022-06-10T14:25:54Z</time>
      </trkpt>
      <trkpt lat="44.5954" lon="4.38161">
        <ele>210</ele>
        <time>2022-06-10T14:25:55Z</time>
      </trkpt>
      <trkpt lat="44.59538" lon="4.38164">
        <ele>210</ele>
        <time>2022-06-10T14:25:56Z</time>
      </trkpt>
      <trkpt lat="44.59537" lon="4.38165">
        <ele>210</ele>
        <time>2022-06-10T14:25:57Z</time>
      </trkpt>
      <trkpt lat="44.59535" lon="4.38167">
        <ele>210</ele>
        <time>2022-06-10T14:25:58Z</time>
      </trkpt>
      <trkpt lat="44.59531" lon="4.38173">
        <ele>210</ele>
        <time>2022-06-10T14:26:00Z</time>
      </trkpt>
      <trkpt lat="44.59529" lon="4.38176">
        <ele>209.9</ele>
        <time>2022-06-10T14:26:01Z</time>
      </trkpt>
      <trkpt lat="44.59526" lon="4.38181">
        <ele>209.9</ele>
        <time>2022-06-10T14:26:02Z</time>
      </trkpt>
      <trkpt lat="44.59523" lon="4.38184">
        <ele>209.9</ele>
        <time>2022-06-10T14:26:04Z</time>
      </trkpt>
      <trkpt lat="44.59522" lon="4.38185">
        <ele>209.9</ele>
        <time>2022-06-10T14:26:05Z</time>
      </trkpt>
      <trkpt lat="44.59519" lon="4.38187">
        <ele>209.9</ele>
        <time>2022-06-10T14:26:06Z</time>
      </trkpt>
      <trkpt lat="44.59519" lon="4.38187">
        <ele>209.9</ele>
        <time>2022-06-10T14:26:07Z</time>
      </trkpt>
      <trkpt lat="44.59518" lon="4.38189">
        <ele>209.9</ele>
        <time>2022-06-10T14:26:08Z</time>
      </trkpt>
      <trkpt lat="44.59518" lon="4.3819">
        <ele>209.9</ele>
        <time>2022-06-10T14:26:09Z</time>
      </trkpt>
      <trkpt lat="44.59521" lon="4.38191">
        <ele>209.9</ele>
        <time>2022-06-10T14:26:10Z</time>
      </trkpt>
      <trkpt lat="44.59521" lon="4.38192">
        <ele>209.9</ele>
        <time>2022-06-10T14:26:11Z</time>
      </trkpt>
      <trkpt lat="44.59521" lon="4.38192">
        <ele>209.9</ele>
        <time>2022-06-10T14:26:12Z</time>
      </trkpt>
      <trkpt lat="44.59521" lon="4.38193">
        <ele>209.9</ele>
        <time>2022-06-10T14:26:13Z</time>
      </trkpt>
      <trkpt lat="44.59521" lon="4.38193">
        <ele>209.8</ele>
        <time>2022-06-10T14:26:14Z</time>
      </trkpt>
      <trkpt lat="44.5952" lon="4.38194">
        <ele>209.8</ele>
        <time>2022-06-10T14:26:15Z</time>
      </trkpt>
      <trkpt lat="44.5952" lon="4.38195">
        <ele>209.8</ele>
        <time>2022-06-10T14:26:16Z</time>
      </trkpt>
      <trkpt lat="44.5952" lon="4.38195">
        <ele>209.8</ele>
        <time>2022-06-10T14:26:17Z</time>
      </trkpt>
      <trkpt lat="44.5952" lon="4.38196">
        <ele>209.8</ele>
        <time>2022-06-10T14:26:18Z</time>
      </trkpt>
      <trkpt lat="44.59519" lon="4.38196">
        <ele>209.8</ele>
        <time>2022-06-10T14:27:35Z</time>
      </trkpt>
      <trkpt lat="44.59519" lon="4.38197">
        <ele>209.8</ele>
        <time>2022-06-10T14:27:36Z</time>
      </trkpt>
      <trkpt lat="44.59519" lon="4.38198">
        <ele>209.8</ele>
        <time>2022-06-10T14:27:37Z</time>
      </trkpt>
      <trkpt lat="44.59519" lon="4.38198">
        <ele>209.8</ele>
        <time>2022-06-10T14:27:38Z</time>
      </trkpt>
      <trkpt lat="44.59519" lon="4.38199">
        <ele>209.8</ele>
        <time>2022-06-10T14:27:39Z</time>
      </trkpt>
      <trkpt lat="44.59518" lon="4.38199">
        <ele>209.8</ele>
        <time>2022-06-10T14:27:40Z</time>
      </trkpt>
      <trkpt lat="44.59518" lon="4.382">
        <ele>209.8</ele>
        <time>2022-06-10T14:27:41Z</time>
      </trkpt>
      <trkpt lat="44.59518" lon="4.38201">
        <ele>209.8</ele>
        <time>2022-06-10T14:27:42Z</time>
      </trkpt>
      <trkpt lat="44.59515" lon="4.38203">
        <ele>209.8</ele>
        <time>2022-06-10T14:27:43Z</time>
      </trkpt>
      <trkpt lat="44.59514" lon="4.38204">
        <ele>209.8</ele>
        <time>2022-06-10T14:27:44Z</time>
      </trkpt>
      <trkpt lat="44.59513" lon="4.38207">
        <ele>209.8</ele>
        <time>2022-06-10T14:27:45Z</time>
      </trkpt>
      <trkpt lat="44.59509" lon="4.38212">
        <ele>209.7</ele>
        <time>2022-06-10T14:27:46Z</time>
      </trkpt>
      <trkpt lat="44.59508" lon="4.38214">
        <ele>209.6</ele>
        <time>2022-06-10T14:27:47Z</time>
      </trkpt>
      <trkpt lat="44.59507" lon="4.38215">
        <ele>209.6</ele>
        <time>2022-06-10T14:27:48Z</time>
      </trkpt>
      <trkpt lat="44.595" lon="4.38227">
        <ele>209.5</ele>
        <time>2022-06-10T14:27:50Z</time>
      </trkpt>
      <trkpt lat="44.59494" lon="4.38236">
        <ele>209.3</ele>
        <time>2022-06-10T14:27:52Z</time>
      </trkpt>
      <trkpt lat="44.5949" lon="4.38242">
        <ele>209.2</ele>
        <time>2022-06-10T14:27:53Z</time>
      </trkpt>
      <trkpt lat="44.59488" lon="4.38248">
        <ele>209.2</ele>
        <time>2022-06-10T14:27:54Z</time>
      </trkpt>
      <trkpt lat="44.59485" lon="4.38253">
        <ele>209.1</ele>
        <time>2022-06-10T14:27:55Z</time>
      </trkpt>
      <trkpt lat="44.59482" lon="4.38259">
        <ele>209</ele>
        <time>2022-06-10T14:27:56Z</time>
      </trkpt>
      <trkpt lat="44.59479" lon="4.38266">
        <ele>208.9</ele>
        <time>2022-06-10T14:27:57Z</time>
      </trkpt>
      <trkpt lat="44.59476" lon="4.38272">
        <ele>208.8</ele>
        <time>2022-06-10T14:27:58Z</time>
      </trkpt>
      <trkpt lat="44.59473" lon="4.38277">
        <ele>208.7</ele>
        <time>2022-06-10T14:27:59Z</time>
      </trkpt>
      <trkpt lat="44.5947" lon="4.38283">
        <ele>208.5</ele>
        <time>2022-06-10T14:28:00Z</time>
      </trkpt>
      <trkpt lat="44.59466" lon="4.38289">
        <ele>208.4</ele>
        <time>2022-06-10T14:28:01Z</time>
      </trkpt>
      <trkpt lat="44.59463" lon="4.38295">
        <ele>208.3</ele>
        <time>2022-06-10T14:28:02Z</time>
      </trkpt>
      <trkpt lat="44.59459" lon="4.38302">
        <ele>208.1</ele>
        <time>2022-06-10T14:28:03Z</time>
      </trkpt>
      <trkpt lat="44.59454" lon="4.38308">
        <ele>207.9</ele>
        <time>2022-06-10T14:28:04Z</time>
      </trkpt>
      <trkpt lat="44.5945" lon="4.38313">
        <ele>207.8</ele>
        <time>2022-06-10T14:28:05Z</time>
      </trkpt>
      <trkpt lat="44.59446" lon="4.38319">
        <ele>207.6</ele>
        <time>2022-06-10T14:28:06Z</time>
      </trkpt>
      <trkpt lat="44.59441" lon="4.38325">
        <ele>207.4</ele>
        <time>2022-06-10T14:28:07Z</time>
      </trkpt>
      <trkpt lat="44.59436" lon="4.3833">
        <ele>207.2</ele>
        <time>2022-06-10T14:28:08Z</time>
      </trkpt>
      <trkpt lat="44.5943" lon="4.38336">
        <ele>207</ele>
        <time>2022-06-10T14:28:09Z</time>
      </trkpt>
      <trkpt lat="44.59425" lon="4.38342">
        <ele>206.8</ele>
        <time>2022-06-10T14:28:10Z</time>
      </trkpt>
      <trkpt lat="44.59421" lon="4.38347">
        <ele>206.6</ele>
        <time>2022-06-10T14:28:11Z</time>
      </trkpt>
      <trkpt lat="44.59416" lon="4.38354">
        <ele>206.5</ele>
        <time>2022-06-10T14:28:12Z</time>
      </trkpt>
      <trkpt lat="44.59412" lon="4.3836">
        <ele>206.3</ele>
        <time>2022-06-10T14:28:13Z</time>
      </trkpt>
      <trkpt lat="44.59407" lon="4.38366">
        <ele>206.2</ele>
        <time>2022-06-10T14:28:14Z</time>
      </trkpt>
      <trkpt lat="44.59403" lon="4.38372">
        <ele>206</ele>
        <time>2022-06-10T14:28:15Z</time>
      </trkpt>
      <trkpt lat="44.59398" lon="4.38378">
        <ele>205.9</ele>
        <time>2022-06-10T14:28:16Z</time>
      </trkpt>
      <trkpt lat="44.59395" lon="4.38384">
        <ele>205.7</ele>
        <time>2022-06-10T14:28:17Z</time>
      </trkpt>
      <trkpt lat="44.59391" lon="4.3839">
        <ele>205.5</ele>
        <time>2022-06-10T14:28:18Z</time>
      </trkpt>
      <trkpt lat="44.59387" lon="4.38396">
        <ele>205.3</ele>
        <time>2022-06-10T14:28:19Z</time>
      </trkpt>
      <trkpt lat="44.59384" lon="4.38403">
        <ele>205.1</ele>
        <time>2022-06-10T14:28:20Z</time>
      </trkpt>
      <trkpt lat="44.5938" lon="4.38409">
        <ele>204.9</ele>
        <time>2022-06-10T14:28:21Z</time>
      </trkpt>
      <trkpt lat="44.59376" lon="4.38416">
        <ele>204.6</ele>
        <time>2022-06-10T14:28:22Z</time>
      </trkpt>
      <trkpt lat="44.59372" lon="4.38422">
        <ele>204.3</ele>
        <time>2022-06-10T14:28:23Z</time>
      </trkpt>
      <trkpt lat="44.59368" lon="4.38428">
        <ele>204.1</ele>
        <time>2022-06-10T14:28:24Z</time>
      </trkpt>
      <trkpt lat="44.59363" lon="4.38434">
        <ele>203.8</ele>
        <time>2022-06-10T14:28:25Z</time>
      </trkpt>
      <trkpt lat="44.59358" lon="4.38441">
        <ele>203.5</ele>
        <time>2022-06-10T14:28:26Z</time>
      </trkpt>
      <trkpt lat="44.59354" lon="4.38447">
        <ele>203.2</ele>
        <time>2022-06-10T14:28:27Z</time>
      </trkpt>
      <trkpt lat="44.59349" lon="4.38454">
        <ele>202.9</ele>
        <time>2022-06-10T14:28:28Z</time>
      </trkpt>
      <trkpt lat="44.59344" lon="4.38462">
        <ele>202.7</ele>
        <time>2022-06-10T14:28:29Z</time>
      </trkpt>
      <trkpt lat="44.59339" lon="4.3847">
        <ele>202.5</ele>
        <time>2022-06-10T14:28:30Z</time>
      </trkpt>
      <trkpt lat="44.59334" lon="4.38478">
        <ele>202.2</ele>
        <time>2022-06-10T14:28:31Z</time>
      </trkpt>
      <trkpt lat="44.59327" lon="4.38485">
        <ele>202.1</ele>
        <time>2022-06-10T14:28:32Z</time>
      </trkpt>
      <trkpt lat="44.59321" lon="4.38491">
        <ele>201.9</ele>
        <time>2022-06-10T14:28:33Z</time>
      </trkpt>
      <trkpt lat="44.59314" lon="4.38497">
        <ele>201.8</ele>
        <time>2022-06-10T14:28:34Z</time>
      </trkpt>
      <trkpt lat="44.59306" lon="4.38502">
        <ele>201.5</ele>
        <time>2022-06-10T14:28:35Z</time>
      </trkpt>
      <trkpt lat="44.59299" lon="4.38506">
        <ele>201.4</ele>
        <time>2022-06-10T14:28:36Z</time>
      </trkpt>
      <trkpt lat="44.59292" lon="4.3851">
        <ele>201.1</ele>
        <time>2022-06-10T14:28:37Z</time>
      </trkpt>
      <trkpt lat="44.59285" lon="4.38515">
        <ele>200.9</ele>
        <time>2022-06-10T14:28:38Z</time>
      </trkpt>
      <trkpt lat="44.59279" lon="4.3852">
        <ele>200.7</ele>
        <time>2022-06-10T14:28:39Z</time>
      </trkpt>
      <trkpt lat="44.59272" lon="4.38525">
        <ele>200.6</ele>
        <time>2022-06-10T14:28:40Z</time>
      </trkpt>
      <trkpt lat="44.59265" lon="4.38528">
        <ele>200.4</ele>
        <time>2022-06-10T14:28:41Z</time>
      </trkpt>
      <trkpt lat="44.59258" lon="4.38529">
        <ele>200.2</ele>
        <time>2022-06-10T14:28:42Z</time>
      </trkpt>
      <trkpt lat="44.59251" lon="4.3853">
        <ele>200</ele>
        <time>2022-06-10T14:28:43Z</time>
      </trkpt>
      <trkpt lat="44.59244" lon="4.38531">
        <ele>199.9</ele>
        <time>2022-06-10T14:28:44Z</time>
      </trkpt>
      <trkpt lat="44.59239" lon="4.38535">
        <ele>199.9</ele>
        <time>2022-06-10T14:28:45Z</time>
      </trkpt>
      <trkpt lat="44.59235" lon="4.38541">
        <ele>199.9</ele>
        <time>2022-06-10T14:28:46Z</time>
      </trkpt>
      <trkpt lat="44.59234" lon="4.38545">
        <ele>199.9</ele>
        <time>2022-06-10T14:28:47Z</time>
      </trkpt>
      <trkpt lat="44.59233" lon="4.38545">
        <ele>199.9</ele>
        <time>2022-06-10T14:28:48Z</time>
      </trkpt>
      <trkpt lat="44.59232" lon="4.38544">
        <ele>199.9</ele>
        <time>2022-06-10T14:28:49Z</time>
      </trkpt>
      <trkpt lat="44.59231" lon="4.38543">
        <ele>199.9</ele>
        <time>2022-06-10T14:28:50Z</time>
      </trkpt>
      <trkpt lat="44.5923" lon="4.38542">
        <ele>199.9</ele>
        <time>2022-06-10T14:28:51Z</time>
      </trkpt>
      <trkpt lat="44.5923" lon="4.38542">
        <ele>199.9</ele>
        <time>2022-06-10T14:28:52Z</time>
      </trkpt>
      <trkpt lat="44.59231" lon="4.38542">
        <ele>199.9</ele>
        <time>2022-06-10T14:28:53Z</time>
      </trkpt>
      <trkpt lat="44.5923" lon="4.38542">
        <ele>199.9</ele>
        <time>2022-06-10T14:28:54Z</time>
      </trkpt>
      <trkpt lat="44.5923" lon="4.38543">
        <ele>199.9</ele>
        <time>2022-06-10T14:28:55Z</time>
      </trkpt>
      <trkpt lat="44.5923" lon="4.38544">
        <ele>199.9</ele>
        <time>2022-06-10T14:28:56Z</time>
      </trkpt>
      <trkpt lat="44.59229" lon="4.38544">
        <ele>199.9</ele>
        <time>2022-06-10T14:28:57Z</time>
      </trkpt>
      <trkpt lat="44.59229" lon="4.38545">
        <ele>199.9</ele>
        <time>2022-06-10T14:28:58Z</time>
      </trkpt>
      <trkpt lat="44.5923" lon="4.38545">
        <ele>199.9</ele>
        <time>2022-06-10T14:28:59Z</time>
      </trkpt>
      <trkpt lat="44.59229" lon="4.38545">
        <ele>199.9</ele>
        <time>2022-06-10T14:29:00Z</time>
      </trkpt>
      <trkpt lat="44.59229" lon="4.38545">
        <ele>199.9</ele>
        <time>2022-06-10T14:29:01Z</time>
      </trkpt>
      <trkpt lat="44.59229" lon="4.38545">
        <ele>199.9</ele>
        <time>2022-06-10T14:29:02Z</time>
      </trkpt>
      <trkpt lat="44.5923" lon="4.38546">
        <ele>199.9</ele>
        <time>2022-06-10T14:29:03Z</time>
      </trkpt>
      <trkpt lat="44.59229" lon="4.38546">
        <ele>199.9</ele>
        <time>2022-06-10T14:29:04Z</time>
      </trkpt>
      <trkpt lat="44.59229" lon="4.38546">
        <ele>199.9</ele>
        <time>2022-06-10T14:29:05Z</time>
      </trkpt>
      <trkpt lat="44.5923" lon="4.38547">
        <ele>199.9</ele>
        <time>2022-06-10T14:29:06Z</time>
      </trkpt>
      <trkpt lat="44.5923" lon="4.38547">
        <ele>199.9</ele>
        <time>2022-06-10T14:29:07Z</time>
      </trkpt>
      <trkpt lat="44.5923" lon="4.38548">
        <ele>199.9</ele>
        <time>2022-06-10T14:29:08Z</time>
      </trkpt>
      <trkpt lat="44.59231" lon="4.38548">
        <ele>199.9</ele>
        <time>2022-06-10T14:29:09Z</time>
      </trkpt>
      <trkpt lat="44.59231" lon="4.38548">
        <ele>199.9</ele>
        <time>2022-06-10T14:29:10Z</time>
      </trkpt>
      <trkpt lat="44.59231" lon="4.38549">
        <ele>199.9</ele>
        <time>2022-06-10T14:29:11Z</time>
      </trkpt>
      <trkpt lat="44.59231" lon="4.38549">
        <ele>199.8</ele>
        <time>2022-06-10T14:29:12Z</time>
      </trkpt>
      <trkpt lat="44.59232" lon="4.38549">
        <ele>199.8</ele>
        <time>2022-06-10T14:29:13Z</time>
      </trkpt>
      <trkpt lat="44.59232" lon="4.3855">
        <ele>199.8</ele>
        <time>2022-06-10T14:29:14Z</time>
      </trkpt>
      <trkpt lat="44.59232" lon="4.3855">
        <ele>199.8</ele>
        <time>2022-06-10T14:29:15Z</time>
      </trkpt>
      <trkpt lat="44.59232" lon="4.3855">
        <ele>199.8</ele>
        <time>2022-06-10T14:29:16Z</time>
      </trkpt>
      <trkpt lat="44.59233" lon="4.38551">
        <ele>199.8</ele>
        <time>2022-06-10T14:29:17Z</time>
      </trkpt>
      <trkpt lat="44.59233" lon="4.38551">
        <ele>199.8</ele>
        <time>2022-06-10T14:29:18Z</time>
      </trkpt>
      <trkpt lat="44.59233" lon="4.38551">
        <ele>199.8</ele>
        <time>2022-06-10T14:29:19Z</time>
      </trkpt>
      <trkpt lat="44.59233" lon="4.38552">
        <ele>199.8</ele>
        <time>2022-06-10T14:29:20Z</time>
      </trkpt>
      <trkpt lat="44.59234" lon="4.38552">
        <ele>199.8</ele>
        <time>2022-06-10T14:29:34Z</time>
      </trkpt>
      <trkpt lat="44.59234" lon="4.38552">
        <ele>199.8</ele>
        <time>2022-06-10T14:29:35Z</time>
      </trkpt>
      <trkpt lat="44.59234" lon="4.38553">
        <ele>199.8</ele>
        <time>2022-06-10T14:29:36Z</time>
      </trkpt>
      <trkpt lat="44.59234" lon="4.38553">
        <ele>199.8</ele>
        <time>2022-06-10T14:29:37Z</time>
      </trkpt>
      <trkpt lat="44.59237" lon="4.38555">
        <ele>199.8</ele>
        <time>2022-06-10T14:29:38Z</time>
      </trkpt>
      <trkpt lat="44.59237" lon="4.38556">
        <ele>199.3</ele>
        <time>2022-06-10T14:29:39Z</time>
      </trkpt>
      <trkpt lat="44.5924" lon="4.3856">
        <ele>198.3</ele>
        <time>2022-06-10T14:29:40Z</time>
      </trkpt>
      <trkpt lat="44.59241" lon="4.38561">
        <ele>198</ele>
        <time>2022-06-10T14:29:41Z</time>
      </trkpt>
      <trkpt lat="44.59245" lon="4.38562">
        <ele>198.3</ele>
        <time>2022-06-10T14:29:42Z</time>
      </trkpt>
      <trkpt lat="44.59246" lon="4.38563">
        <ele>198.5</ele>
        <time>2022-06-10T14:29:43Z</time>
      </trkpt>
      <trkpt lat="44.5925" lon="4.38563">
        <ele>199.2</ele>
        <time>2022-06-10T14:29:44Z</time>
      </trkpt>
      <trkpt lat="44.59251" lon="4.38563">
        <ele>199.4</ele>
        <time>2022-06-10T14:29:45Z</time>
      </trkpt>
      <trkpt lat="44.59254" lon="4.38562">
        <ele>200</ele>
        <time>2022-06-10T14:29:46Z</time>
      </trkpt>
      <trkpt lat="44.59257" lon="4.38559">
        <ele>200</ele>
        <time>2022-06-10T14:29:47Z</time>
      </trkpt>
      <trkpt lat="44.59259" lon="4.38556">
        <ele>200</ele>
        <time>2022-06-10T14:29:48Z</time>
      </trkpt>
      <trkpt lat="44.59261" lon="4.38552">
        <ele>200.1</ele>
        <time>2022-06-10T14:29:49Z</time>
      </trkpt>
      <trkpt lat="44.59264" lon="4.38544">
        <ele>200.1</ele>
        <time>2022-06-10T14:29:50Z</time>
      </trkpt>
      <trkpt lat="44.59265" lon="4.3854">
        <ele>200.3</ele>
        <time>2022-06-10T14:29:52Z</time>
      </trkpt>
      <trkpt lat="44.59267" lon="4.38537">
        <ele>200.4</ele>
        <time>2022-06-10T14:29:53Z</time>
      </trkpt>
      <trkpt lat="44.59269" lon="4.38535">
        <ele>200.4</ele>
        <time>2022-06-10T14:29:54Z</time>
      </trkpt>
      <trkpt lat="44.59272" lon="4.38532">
        <ele>200.5</ele>
        <time>2022-06-10T14:29:55Z</time>
      </trkpt>
      <trkpt lat="44.59273" lon="4.38532">
        <ele>200.6</ele>
        <time>2022-06-10T14:29:56Z</time>
      </trkpt>
      <trkpt lat="44.59275" lon="4.3853">
        <ele>200.6</ele>
        <time>2022-06-10T14:29:57Z</time>
      </trkpt>
      <trkpt lat="44.59278" lon="4.38528">
        <ele>200.7</ele>
        <time>2022-06-10T14:29:58Z</time>
      </trkpt>
      <trkpt lat="44.59279" lon="4.38527">
        <ele>200.7</ele>
        <time>2022-06-10T14:30:00Z</time>
      </trkpt>
      <trkpt lat="44.59281" lon="4.38527">
        <ele>200.7</ele>
        <time>2022-06-10T14:30:01Z</time>
      </trkpt>
      <trkpt lat="44.59282" lon="4.38525">
        <ele>200.8</ele>
        <time>2022-06-10T14:30:02Z</time>
      </trkpt>
      <trkpt lat="44.59285" lon="4.38523">
        <ele>200.9</ele>
        <time>2022-06-10T14:30:03Z</time>
      </trkpt>
      <trkpt lat="44.59286" lon="4.38522">
        <ele>200.9</ele>
        <time>2022-06-10T14:30:04Z</time>
      </trkpt>
      <trkpt lat="44.59287" lon="4.38521">
        <ele>200.9</ele>
        <time>2022-06-10T14:30:05Z</time>
      </trkpt>
      <trkpt lat="44.59289" lon="4.3852">
        <ele>201</ele>
        <time>2022-06-10T14:30:06Z</time>
      </trkpt>
      <trkpt lat="44.59291" lon="4.38518">
        <ele>201.1</ele>
        <time>2022-06-10T14:30:07Z</time>
      </trkpt>
      <trkpt lat="44.59292" lon="4.38517">
        <ele>201.1</ele>
        <time>2022-06-10T14:30:08Z</time>
      </trkpt>
      <trkpt lat="44.59295" lon="4.38515">
        <ele>201.2</ele>
        <time>2022-06-10T14:30:09Z</time>
      </trkpt>
      <trkpt lat="44.59296" lon="4.38514">
        <ele>201.2</ele>
        <time>2022-06-10T14:30:10Z</time>
      </trkpt>
      <trkpt lat="44.59299" lon="4.38511">
        <ele>201.3</ele>
        <time>2022-06-10T14:30:11Z</time>
      </trkpt>
      <trkpt lat="44.593" lon="4.3851">
        <ele>201.3</ele>
        <time>2022-06-10T14:30:12Z</time>
      </trkpt>
      <trkpt lat="44.59303" lon="4.38507">
        <ele>201.4</ele>
        <time>2022-06-10T14:30:13Z</time>
      </trkpt>
      <trkpt lat="44.59304" lon="4.38506">
        <ele>201.5</ele>
        <time>2022-06-10T14:30:14Z</time>
      </trkpt>
      <trkpt lat="44.59307" lon="4.38504">
        <ele>201.5</ele>
        <time>2022-06-10T14:30:15Z</time>
      </trkpt>
      <trkpt lat="44.59313" lon="4.38499">
        <ele>201.7</ele>
        <time>2022-06-10T14:30:17Z</time>
      </trkpt>
      <trkpt lat="44.59316" lon="4.38499">
        <ele>201.8</ele>
        <time>2022-06-10T14:30:19Z</time>
      </trkpt>
      <trkpt lat="44.59319" lon="4.38497">
        <ele>201.9</ele>
        <time>2022-06-10T14:30:20Z</time>
      </trkpt>
      <trkpt lat="44.59321" lon="4.38496">
        <ele>201.9</ele>
        <time>2022-06-10T14:30:21Z</time>
      </trkpt>
      <trkpt lat="44.59324" lon="4.38493">
        <ele>202</ele>
        <time>2022-06-10T14:30:22Z</time>
      </trkpt>
      <trkpt lat="44.59326" lon="4.38491">
        <ele>202.1</ele>
        <time>2022-06-10T14:30:23Z</time>
      </trkpt>
      <trkpt lat="44.59329" lon="4.38488">
        <ele>202.1</ele>
        <time>2022-06-10T14:30:24Z</time>
      </trkpt>
      <trkpt lat="44.59331" lon="4.38486">
        <ele>202.2</ele>
        <time>2022-06-10T14:30:25Z</time>
      </trkpt>
      <trkpt lat="44.59334" lon="4.38483">
        <ele>202.2</ele>
        <time>2022-06-10T14:30:26Z</time>
      </trkpt>
      <trkpt lat="44.59336" lon="4.38478">
        <ele>202.3</ele>
        <time>2022-06-10T14:30:27Z</time>
      </trkpt>
      <trkpt lat="44.59338" lon="4.38477">
        <ele>202.3</ele>
        <time>2022-06-10T14:30:28Z</time>
      </trkpt>
      <trkpt lat="44.5934" lon="4.38475">
        <ele>202.4</ele>
        <time>2022-06-10T14:30:29Z</time>
      </trkpt>
      <trkpt lat="44.59342" lon="4.38471">
        <ele>202.5</ele>
        <time>2022-06-10T14:30:30Z</time>
      </trkpt>
      <trkpt lat="44.59344" lon="4.38468">
        <ele>202.6</ele>
        <time>2022-06-10T14:30:31Z</time>
      </trkpt>
      <trkpt lat="44.59347" lon="4.38464">
        <ele>202.7</ele>
        <time>2022-06-10T14:30:33Z</time>
      </trkpt>
      <trkpt lat="44.59347" lon="4.38462">
        <ele>202.8</ele>
        <time>2022-06-10T14:30:34Z</time>
      </trkpt>
      <trkpt lat="44.59351" lon="4.38456">
        <ele>203</ele>
        <time>2022-06-10T14:30:35Z</time>
      </trkpt>
      <trkpt lat="44.59353" lon="4.38453">
        <ele>203.1</ele>
        <time>2022-06-10T14:30:37Z</time>
      </trkpt>
      <trkpt lat="44.59355" lon="4.3845">
        <ele>203.2</ele>
        <time>2022-06-10T14:30:38Z</time>
      </trkpt>
      <trkpt lat="44.59357" lon="4.38447">
        <ele>203.3</ele>
        <time>2022-06-10T14:30:39Z</time>
      </trkpt>
      <trkpt lat="44.59359" lon="4.38444">
        <ele>203.4</ele>
        <time>2022-06-10T14:30:40Z</time>
      </trkpt>
      <trkpt lat="44.59363" lon="4.38438">
        <ele>203.7</ele>
        <time>2022-06-10T14:30:41Z</time>
      </trkpt>
      <trkpt lat="44.59365" lon="4.38436">
        <ele>203.8</ele>
        <time>2022-06-10T14:30:43Z</time>
      </trkpt>
      <trkpt lat="44.59368" lon="4.38432">
        <ele>204</ele>
        <time>2022-06-10T14:30:44Z</time>
      </trkpt>
      <trkpt lat="44.59368" lon="4.38431">
        <ele>204</ele>
        <time>2022-06-10T14:30:45Z</time>
      </trkpt>
      <trkpt lat="44.59371" lon="4.38427">
        <ele>204.2</ele>
        <time>2022-06-10T14:30:46Z</time>
      </trkpt>
      <trkpt lat="44.59372" lon="4.38426">
        <ele>204.3</ele>
        <time>2022-06-10T14:30:47Z</time>
      </trkpt>
      <trkpt lat="44.59375" lon="4.38422">
        <ele>204.4</ele>
        <time>2022-06-10T14:30:48Z</time>
      </trkpt>
      <trkpt lat="44.59376" lon="4.38421">
        <ele>204.5</ele>
        <time>2022-06-10T14:30:49Z</time>
      </trkpt>
      <trkpt lat="44.59378" lon="4.38417">
        <ele>204.7</ele>
        <time>2022-06-10T14:30:50Z</time>
      </trkpt>
      <trkpt lat="44.59379" lon="4.38415">
        <ele>204.7</ele>
        <time>2022-06-10T14:30:51Z</time>
      </trkpt>
      <trkpt lat="44.59381" lon="4.38413">
        <ele>204.8</ele>
        <time>2022-06-10T14:30:52Z</time>
      </trkpt>
      <trkpt lat="44.59383" lon="4.3841">
        <ele>204.9</ele>
        <time>2022-06-10T14:30:53Z</time>
      </trkpt>
      <trkpt lat="44.59385" lon="4.38407">
        <ele>205</ele>
        <time>2022-06-10T14:30:54Z</time>
      </trkpt>
      <trkpt lat="44.59387" lon="4.38404">
        <ele>205.1</ele>
        <time>2022-06-10T14:30:55Z</time>
      </trkpt>
      <trkpt lat="44.59389" lon="4.38401">
        <ele>205.3</ele>
        <time>2022-06-10T14:30:56Z</time>
      </trkpt>
      <trkpt lat="44.59391" lon="4.38398">
        <ele>205.4</ele>
        <time>2022-06-10T14:30:57Z</time>
      </trkpt>
      <trkpt lat="44.59393" lon="4.38395">
        <ele>205.5</ele>
        <time>2022-06-10T14:30:58Z</time>
      </trkpt>
      <trkpt lat="44.59395" lon="4.38392">
        <ele>205.6</ele>
        <time>2022-06-10T14:30:59Z</time>
      </trkpt>
      <trkpt lat="44.59399" lon="4.38389">
        <ele>205.7</ele>
        <time>2022-06-10T14:31:00Z</time>
      </trkpt>
      <trkpt lat="44.59401" lon="4.38386">
        <ele>205.8</ele>
        <time>2022-06-10T14:31:01Z</time>
      </trkpt>
      <trkpt lat="44.59403" lon="4.38382">
        <ele>205.9</ele>
        <time>2022-06-10T14:31:02Z</time>
      </trkpt>
      <trkpt lat="44.59405" lon="4.38379">
        <ele>206</ele>
        <time>2022-06-10T14:31:03Z</time>
      </trkpt>
      <trkpt lat="44.59407" lon="4.38375">
        <ele>206.1</ele>
        <time>2022-06-10T14:31:04Z</time>
      </trkpt>
      <trkpt lat="44.59409" lon="4.38372">
        <ele>206.1</ele>
        <time>2022-06-10T14:31:05Z</time>
      </trkpt>
      <trkpt lat="44.59412" lon="4.38368">
        <ele>206.2</ele>
        <time>2022-06-10T14:31:06Z</time>
      </trkpt>
      <trkpt lat="44.59414" lon="4.38365">
        <ele>206.3</ele>
        <time>2022-06-10T14:31:07Z</time>
      </trkpt>
      <trkpt lat="44.59417" lon="4.38362">
        <ele>206.4</ele>
        <time>2022-06-10T14:31:08Z</time>
      </trkpt>
      <trkpt lat="44.5942" lon="4.38359">
        <ele>206.5</ele>
        <time>2022-06-10T14:31:09Z</time>
      </trkpt>
      <trkpt lat="44.59423" lon="4.38356">
        <ele>206.6</ele>
        <time>2022-06-10T14:31:10Z</time>
      </trkpt>
      <trkpt lat="44.59426" lon="4.38352">
        <ele>206.7</ele>
        <time>2022-06-10T14:31:11Z</time>
      </trkpt>
      <trkpt lat="44.59429" lon="4.38349">
        <ele>206.8</ele>
        <time>2022-06-10T14:31:12Z</time>
      </trkpt>
      <trkpt lat="44.59432" lon="4.38347">
        <ele>206.9</ele>
        <time>2022-06-10T14:31:13Z</time>
      </trkpt>
      <trkpt lat="44.59435" lon="4.38343">
        <ele>207</ele>
        <time>2022-06-10T14:31:14Z</time>
      </trkpt>
      <trkpt lat="44.59437" lon="4.38341">
        <ele>207.1</ele>
        <time>2022-06-10T14:31:15Z</time>
      </trkpt>
      <trkpt lat="44.5944" lon="4.38338">
        <ele>207.2</ele>
        <time>2022-06-10T14:31:16Z</time>
      </trkpt>
      <trkpt lat="44.59442" lon="4.38335">
        <ele>207.3</ele>
        <time>2022-06-10T14:31:17Z</time>
      </trkpt>
      <trkpt lat="44.59445" lon="4.38332">
        <ele>207.4</ele>
        <time>2022-06-10T14:31:18Z</time>
      </trkpt>
      <trkpt lat="44.59447" lon="4.38329">
        <ele>207.5</ele>
        <time>2022-06-10T14:31:19Z</time>
      </trkpt>
      <trkpt lat="44.59449" lon="4.38326">
        <ele>207.6</ele>
        <time>2022-06-10T14:31:20Z</time>
      </trkpt>
      <trkpt lat="44.59451" lon="4.38323">
        <ele>207.7</ele>
        <time>2022-06-10T14:31:21Z</time>
      </trkpt>
      <trkpt lat="44.59453" lon="4.38319">
        <ele>207.7</ele>
        <time>2022-06-10T14:31:22Z</time>
      </trkpt>
      <trkpt lat="44.59456" lon="4.38317">
        <ele>207.8</ele>
        <time>2022-06-10T14:31:23Z</time>
      </trkpt>
      <trkpt lat="44.59458" lon="4.38314">
        <ele>207.9</ele>
        <time>2022-06-10T14:31:24Z</time>
      </trkpt>
      <trkpt lat="44.59463" lon="4.38308">
        <ele>208.1</ele>
        <time>2022-06-10T14:31:26Z</time>
      </trkpt>
      <trkpt lat="44.59465" lon="4.38305">
        <ele>208.2</ele>
        <time>2022-06-10T14:31:27Z</time>
      </trkpt>
      <trkpt lat="44.59467" lon="4.38301">
        <ele>208.3</ele>
        <time>2022-06-10T14:31:28Z</time>
      </trkpt>
      <trkpt lat="44.59469" lon="4.38298">
        <ele>208.3</ele>
        <time>2022-06-10T14:31:29Z</time>
      </trkpt>
      <trkpt lat="44.59471" lon="4.38295">
        <ele>208.4</ele>
        <time>2022-06-10T14:31:30Z</time>
      </trkpt>
      <trkpt lat="44.59475" lon="4.38284">
        <ele>208.6</ele>
        <time>2022-06-10T14:31:32Z</time>
      </trkpt>
      <trkpt lat="44.59477" lon="4.3828">
        <ele>208.7</ele>
        <time>2022-06-10T14:31:34Z</time>
      </trkpt>
      <trkpt lat="44.59479" lon="4.38277">
        <ele>208.8</ele>
        <time>2022-06-10T14:31:35Z</time>
      </trkpt>
      <trkpt lat="44.5948" lon="4.38273">
        <ele>208.9</ele>
        <time>2022-06-10T14:31:36Z</time>
      </trkpt>
      <trkpt lat="44.59482" lon="4.38269">
        <ele>208.9</ele>
        <time>2022-06-10T14:31:37Z</time>
      </trkpt>
      <trkpt lat="44.59484" lon="4.38265">
        <ele>209</ele>
        <time>2022-06-10T14:31:38Z</time>
      </trkpt>
      <trkpt lat="44.59486" lon="4.38262">
        <ele>209.1</ele>
        <time>2022-06-10T14:31:39Z</time>
      </trkpt>
      <trkpt lat="44.59488" lon="4.38257">
        <ele>209.1</ele>
        <time>2022-06-10T14:31:40Z</time>
      </trkpt>
      <trkpt lat="44.5949" lon="4.38254">
        <ele>209.2</ele>
        <time>2022-06-10T14:31:41Z</time>
      </trkpt>
      <trkpt lat="44.59492" lon="4.38251">
        <ele>209.2</ele>
        <time>2022-06-10T14:31:42Z</time>
      </trkpt>
      <trkpt lat="44.59494" lon="4.38247">
        <ele>209.3</ele>
        <time>2022-06-10T14:31:43Z</time>
      </trkpt>
      <trkpt lat="44.59497" lon="4.38243">
        <ele>209.3</ele>
        <time>2022-06-10T14:31:44Z</time>
      </trkpt>
      <trkpt lat="44.59499" lon="4.38239">
        <ele>209.4</ele>
        <time>2022-06-10T14:31:45Z</time>
      </trkpt>
      <trkpt lat="44.59501" lon="4.38235">
        <ele>209.4</ele>
        <time>2022-06-10T14:31:46Z</time>
      </trkpt>
      <trkpt lat="44.59503" lon="4.38231">
        <ele>209.5</ele>
        <time>2022-06-10T14:31:47Z</time>
      </trkpt>
      <trkpt lat="44.59505" lon="4.38228">
        <ele>209.5</ele>
        <time>2022-06-10T14:31:48Z</time>
      </trkpt>
      <trkpt lat="44.59507" lon="4.38224">
        <ele>209.5</ele>
        <time>2022-06-10T14:31:49Z</time>
      </trkpt>
      <trkpt lat="44.5951" lon="4.3822">
        <ele>209.6</ele>
        <time>2022-06-10T14:31:50Z</time>
      </trkpt>
      <trkpt lat="44.59512" lon="4.38217">
        <ele>209.7</ele>
        <time>2022-06-10T14:31:51Z</time>
      </trkpt>
      <trkpt lat="44.59515" lon="4.38213">
        <ele>209.7</ele>
        <time>2022-06-10T14:31:52Z</time>
      </trkpt>
      <trkpt lat="44.59517" lon="4.3821">
        <ele>209.8</ele>
        <time>2022-06-10T14:31:53Z</time>
      </trkpt>
      <trkpt lat="44.59519" lon="4.38207">
        <ele>209.8</ele>
        <time>2022-06-10T14:31:54Z</time>
      </trkpt>
      <trkpt lat="44.59521" lon="4.38203">
        <ele>209.9</ele>
        <time>2022-06-10T14:31:55Z</time>
      </trkpt>
      <trkpt lat="44.59525" lon="4.38197">
        <ele>209.9</ele>
        <time>2022-06-10T14:31:56Z</time>
      </trkpt>
      <trkpt lat="44.59528" lon="4.38193">
        <ele>210</ele>
        <time>2022-06-10T14:31:58Z</time>
      </trkpt>
      <trkpt lat="44.5953" lon="4.3819">
        <ele>210</ele>
        <time>2022-06-10T14:31:59Z</time>
      </trkpt>
      <trkpt lat="44.59531" lon="4.38186">
        <ele>210</ele>
        <time>2022-06-10T14:32:00Z</time>
      </trkpt>
      <trkpt lat="44.59533" lon="4.38182">
        <ele>210.1</ele>
        <time>2022-06-10T14:32:01Z</time>
      </trkpt>
      <trkpt lat="44.59535" lon="4.38178">
        <ele>210.1</ele>
        <time>2022-06-10T14:32:02Z</time>
      </trkpt>
      <trkpt lat="44.59537" lon="4.38175">
        <ele>210.2</ele>
        <time>2022-06-10T14:32:03Z</time>
      </trkpt>
      <trkpt lat="44.59539" lon="4.38171">
        <ele>210.3</ele>
        <time>2022-06-10T14:32:04Z</time>
      </trkpt>
      <trkpt lat="44.59541" lon="4.38167">
        <ele>210.3</ele>
        <time>2022-06-10T14:32:05Z</time>
      </trkpt>
      <trkpt lat="44.59543" lon="4.38164">
        <ele>210.4</ele>
        <time>2022-06-10T14:32:06Z</time>
      </trkpt>
      <trkpt lat="44.59546" lon="4.38161">
        <ele>210.4</ele>
        <time>2022-06-10T14:32:07Z</time>
      </trkpt>
      <trkpt lat="44.59548" lon="4.38158">
        <ele>210.5</ele>
        <time>2022-06-10T14:32:08Z</time>
      </trkpt>
      <trkpt lat="44.59551" lon="4.38156">
        <ele>210.6</ele>
        <time>2022-06-10T14:32:09Z</time>
      </trkpt>
      <trkpt lat="44.59555" lon="4.38154">
        <ele>210.7</ele>
        <time>2022-06-10T14:32:10Z</time>
      </trkpt>
      <trkpt lat="44.59558" lon="4.38152">
        <ele>210.8</ele>
        <time>2022-06-10T14:32:11Z</time>
      </trkpt>
      <trkpt lat="44.59561" lon="4.3815">
        <ele>210.9</ele>
        <time>2022-06-10T14:32:12Z</time>
      </trkpt>
      <trkpt lat="44.59564" lon="4.38148">
        <ele>211.1</ele>
        <time>2022-06-10T14:32:13Z</time>
      </trkpt>
      <trkpt lat="44.59567" lon="4.38146">
        <ele>211.2</ele>
        <time>2022-06-10T14:32:14Z</time>
      </trkpt>
      <trkpt lat="44.5957" lon="4.38144">
        <ele>211.3</ele>
        <time>2022-06-10T14:32:15Z</time>
      </trkpt>
      <trkpt lat="44.59573" lon="4.38143">
        <ele>211.4</ele>
        <time>2022-06-10T14:32:16Z</time>
      </trkpt>
      <trkpt lat="44.59576" lon="4.38141">
        <ele>211.5</ele>
        <time>2022-06-10T14:32:17Z</time>
      </trkpt>
      <trkpt lat="44.59579" lon="4.38139">
        <ele>211.6</ele>
        <time>2022-06-10T14:32:18Z</time>
      </trkpt>
      <trkpt lat="44.59582" lon="4.38137">
        <ele>211.7</ele>
        <time>2022-06-10T14:32:19Z</time>
      </trkpt>
      <trkpt lat="44.59585" lon="4.38136">
        <ele>211.8</ele>
        <time>2022-06-10T14:32:20Z</time>
      </trkpt>
      <trkpt lat="44.59588" lon="4.38135">
        <ele>211.9</ele>
        <time>2022-06-10T14:32:21Z</time>
      </trkpt>
      <trkpt lat="44.59591" lon="4.38135">
        <ele>212</ele>
        <time>2022-06-10T14:32:22Z</time>
      </trkpt>
      <trkpt lat="44.59594" lon="4.38135">
        <ele>212</ele>
        <time>2022-06-10T14:32:23Z</time>
      </trkpt>
      <trkpt lat="44.59597" lon="4.38134">
        <ele>212</ele>
        <time>2022-06-10T14:32:24Z</time>
      </trkpt>
      <trkpt lat="44.596" lon="4.38133">
        <ele>212</ele>
        <time>2022-06-10T14:32:25Z</time>
      </trkpt>
      <trkpt lat="44.59603" lon="4.3813">
        <ele>212</ele>
        <time>2022-06-10T14:32:26Z</time>
      </trkpt>
      <trkpt lat="44.59607" lon="4.38126">
        <ele>212</ele>
        <time>2022-06-10T14:32:27Z</time>
      </trkpt>
      <trkpt lat="44.5961" lon="4.38118">
        <ele>212.1</ele>
        <time>2022-06-10T14:32:30Z</time>
      </trkpt>
      <trkpt lat="44.59609" lon="4.38113">
        <ele>212.1</ele>
        <time>2022-06-10T14:32:31Z</time>
      </trkpt>
      <trkpt lat="44.59607" lon="4.38109">
        <ele>212.1</ele>
        <time>2022-06-10T14:32:32Z</time>
      </trkpt>
      <trkpt lat="44.59601" lon="4.38103">
        <ele>212.1</ele>
        <time>2022-06-10T14:32:33Z</time>
      </trkpt>
      <trkpt lat="44.59593" lon="4.38098">
        <ele>212.1</ele>
        <time>2022-06-10T14:32:35Z</time>
      </trkpt>
      <trkpt lat="44.5959" lon="4.38095">
        <ele>212.1</ele>
        <time>2022-06-10T14:32:36Z</time>
      </trkpt>
      <trkpt lat="44.59587" lon="4.38091">
        <ele>212</ele>
        <time>2022-06-10T14:32:38Z</time>
      </trkpt>
      <trkpt lat="44.59583" lon="4.38087">
        <ele>212</ele>
        <time>2022-06-10T14:32:39Z</time>
      </trkpt>
      <trkpt lat="44.5958" lon="4.38084">
        <ele>212</ele>
        <time>2022-06-10T14:32:40Z</time>
      </trkpt>
      <trkpt lat="44.59577" lon="4.38081">
        <ele>212</ele>
        <time>2022-06-10T14:32:41Z</time>
      </trkpt>
      <trkpt lat="44.59574" lon="4.38077">
        <ele>212</ele>
        <time>2022-06-10T14:32:42Z</time>
      </trkpt>
      <trkpt lat="44.59572" lon="4.38071">
        <ele>212</ele>
        <time>2022-06-10T14:32:43Z</time>
      </trkpt>
      <trkpt lat="44.59571" lon="4.38069">
        <ele>212</ele>
        <time>2022-06-10T14:32:44Z</time>
      </trkpt>
      <trkpt lat="44.5957" lon="4.38067">
        <ele>212</ele>
        <time>2022-06-10T14:32:46Z</time>
      </trkpt>
      <trkpt lat="44.59569" lon="4.38066">
        <ele>212</ele>
        <time>2022-06-10T14:32:47Z</time>
      </trkpt>
      <trkpt lat="44.59569" lon="4.38066">
        <ele>212</ele>
        <time>2022-06-10T14:32:48Z</time>
      </trkpt>
      <trkpt lat="44.5957" lon="4.38068">
        <ele>211.9</ele>
        <time>2022-06-10T14:32:49Z</time>
      </trkpt>
      <trkpt lat="44.5957" lon="4.38069">
        <ele>211.9</ele>
        <time>2022-06-10T14:32:50Z</time>
      </trkpt>
      <trkpt lat="44.5957" lon="4.38069">
        <ele>211.9</ele>
        <time>2022-06-10T14:32:51Z</time>
      </trkpt>
      <trkpt lat="44.5957" lon="4.38069">
        <ele>211.9</ele>
        <time>2022-06-10T14:32:52Z</time>
      </trkpt>
      <trkpt lat="44.5957" lon="4.38069">
        <ele>211.9</ele>
        <time>2022-06-10T14:32:53Z</time>
      </trkpt>
      <trkpt lat="44.5957" lon="4.38069">
        <ele>211.9</ele>
        <time>2022-06-10T14:32:54Z</time>
      </trkpt>
      <trkpt lat="44.5957" lon="4.38069">
        <ele>211.9</ele>
        <time>2022-06-10T14:32:55Z</time>
      </trkpt>
      <trkpt lat="44.5957" lon="4.38069">
        <ele>211.9</ele>
        <time>2022-06-10T14:32:56Z</time>
      </trkpt>
      <trkpt lat="44.59571" lon="4.38069">
        <ele>211.9</ele>
        <time>2022-06-10T14:32:57Z</time>
      </trkpt>
      <trkpt lat="44.59568" lon="4.38071">
        <ele>211.9</ele>
        <time>2022-06-10T14:33:03Z</time>
      </trkpt>
      <trkpt lat="44.59569" lon="4.38075">
        <ele>211.9</ele>
        <time>2022-06-10T14:33:04Z</time>
      </trkpt>
      <trkpt lat="44.59571" lon="4.38079">
        <ele>211.9</ele>
        <time>2022-06-10T14:33:05Z</time>
      </trkpt>
      <trkpt lat="44.59574" lon="4.38083">
        <ele>211.9</ele>
        <time>2022-06-10T14:33:06Z</time>
      </trkpt>
      <trkpt lat="44.59575" lon="4.38087">
        <ele>212</ele>
        <time>2022-06-10T14:33:07Z</time>
      </trkpt>
      <trkpt lat="44.59577" lon="4.38091">
        <ele>212</ele>
        <time>2022-06-10T14:33:08Z</time>
      </trkpt>
      <trkpt lat="44.5958" lon="4.38095">
        <ele>212</ele>
        <time>2022-06-10T14:33:09Z</time>
      </trkpt>
      <trkpt lat="44.59581" lon="4.38099">
        <ele>212</ele>
        <time>2022-06-10T14:33:10Z</time>
      </trkpt>
      <trkpt lat="44.59582" lon="4.38104">
        <ele>212.1</ele>
        <time>2022-06-10T14:33:11Z</time>
      </trkpt>
      <trkpt lat="44.59583" lon="4.38108">
        <ele>212.1</ele>
        <time>2022-06-10T14:33:12Z</time>
      </trkpt>
      <trkpt lat="44.59584" lon="4.38113">
        <ele>212.1</ele>
        <time>2022-06-10T14:33:13Z</time>
      </trkpt>
      <trkpt lat="44.59585" lon="4.38118">
        <ele>212</ele>
        <time>2022-06-10T14:33:14Z</time>
      </trkpt>
      <trkpt lat="44.59587" lon="4.38123">
        <ele>212</ele>
        <time>2022-06-10T14:33:15Z</time>
      </trkpt>
      <trkpt lat="44.5959" lon="4.38127">
        <ele>212</ele>
        <time>2022-06-10T14:33:16Z</time>
      </trkpt>
      <trkpt lat="44.59596" lon="4.38133">
        <ele>212</ele>
        <time>2022-06-10T14:33:17Z</time>
      </trkpt>
      <trkpt lat="44.59601" lon="4.38134">
        <ele>212</ele>
        <time>2022-06-10T14:33:19Z</time>
      </trkpt>
      <trkpt lat="44.59605" lon="4.38136">
        <ele>212</ele>
        <time>2022-06-10T14:33:20Z</time>
      </trkpt>
      <trkpt lat="44.5961" lon="4.38138">
        <ele>211.9</ele>
        <time>2022-06-10T14:33:21Z</time>
      </trkpt>
      <trkpt lat="44.59613" lon="4.3814">
        <ele>211.8</ele>
        <time>2022-06-10T14:33:22Z</time>
      </trkpt>
      <trkpt lat="44.5962" lon="4.38142">
        <ele>211.7</ele>
        <time>2022-06-10T14:33:23Z</time>
      </trkpt>
      <trkpt lat="44.59624" lon="4.38145">
        <ele>211.6</ele>
        <time>2022-06-10T14:33:24Z</time>
      </trkpt>
      <trkpt lat="44.59628" lon="4.38149">
        <ele>211.5</ele>
        <time>2022-06-10T14:33:25Z</time>
      </trkpt>
      <trkpt lat="44.59632" lon="4.38154">
        <ele>211.4</ele>
        <time>2022-06-10T14:33:26Z</time>
      </trkpt>
      <trkpt lat="44.59635" lon="4.38158">
        <ele>211.3</ele>
        <time>2022-06-10T14:33:27Z</time>
      </trkpt>
      <trkpt lat="44.59639" lon="4.38163">
        <ele>211.3</ele>
        <time>2022-06-10T14:33:28Z</time>
      </trkpt>
      <trkpt lat="44.59643" lon="4.38167">
        <ele>211.2</ele>
        <time>2022-06-10T14:33:29Z</time>
      </trkpt>
      <trkpt lat="44.59647" lon="4.38171">
        <ele>211.1</ele>
        <time>2022-06-10T14:33:30Z</time>
      </trkpt>
      <trkpt lat="44.59651" lon="4.38176">
        <ele>211.1</ele>
        <time>2022-06-10T14:33:31Z</time>
      </trkpt>
      <trkpt lat="44.59654" lon="4.38181">
        <ele>211</ele>
        <time>2022-06-10T14:33:32Z</time>
      </trkpt>
      <trkpt lat="44.59658" lon="4.38185">
        <ele>210.9</ele>
        <time>2022-06-10T14:33:33Z</time>
      </trkpt>
      <trkpt lat="44.59662" lon="4.3819">
        <ele>210.9</ele>
        <time>2022-06-10T14:33:34Z</time>
      </trkpt>
      <trkpt lat="44.59666" lon="4.38194">
        <ele>210.9</ele>
        <time>2022-06-10T14:33:35Z</time>
      </trkpt>
      <trkpt lat="44.5967" lon="4.382">
        <ele>210.8</ele>
        <time>2022-06-10T14:33:36Z</time>
      </trkpt>
      <trkpt lat="44.59674" lon="4.38205">
        <ele>210.8</ele>
        <time>2022-06-10T14:33:37Z</time>
      </trkpt>
      <trkpt lat="44.59678" lon="4.3821">
        <ele>210.7</ele>
        <time>2022-06-10T14:33:38Z</time>
      </trkpt>
      <trkpt lat="44.59683" lon="4.38215">
        <ele>210.7</ele>
        <time>2022-06-10T14:33:39Z</time>
      </trkpt>
      <trkpt lat="44.59687" lon="4.3822">
        <ele>210.7</ele>
        <time>2022-06-10T14:33:40Z</time>
      </trkpt>
      <trkpt lat="44.59691" lon="4.38225">
        <ele>210.7</ele>
        <time>2022-06-10T14:33:41Z</time>
      </trkpt>
      <trkpt lat="44.59695" lon="4.3823">
        <ele>210.6</ele>
        <time>2022-06-10T14:33:42Z</time>
      </trkpt>
      <trkpt lat="44.59699" lon="4.38236">
        <ele>210.6</ele>
        <time>2022-06-10T14:33:43Z</time>
      </trkpt>
      <trkpt lat="44.59702" lon="4.38241">
        <ele>210.6</ele>
        <time>2022-06-10T14:33:44Z</time>
      </trkpt>
      <trkpt lat="44.59707" lon="4.38247">
        <ele>210.6</ele>
        <time>2022-06-10T14:33:45Z</time>
      </trkpt>
      <trkpt lat="44.59711" lon="4.38252">
        <ele>210.5</ele>
        <time>2022-06-10T14:33:46Z</time>
      </trkpt>
      <trkpt lat="44.59715" lon="4.38257">
        <ele>210.5</ele>
        <time>2022-06-10T14:33:47Z</time>
      </trkpt>
      <trkpt lat="44.59719" lon="4.38261">
        <ele>210.4</ele>
        <time>2022-06-10T14:33:48Z</time>
      </trkpt>
      <trkpt lat="44.59723" lon="4.38266">
        <ele>210.4</ele>
        <time>2022-06-10T14:33:49Z</time>
      </trkpt>
      <trkpt lat="44.59727" lon="4.38271">
        <ele>210.3</ele>
        <time>2022-06-10T14:33:50Z</time>
      </trkpt>
      <trkpt lat="44.59732" lon="4.38277">
        <ele>210.2</ele>
        <time>2022-06-10T14:33:51Z</time>
      </trkpt>
      <trkpt lat="44.59736" lon="4.38283">
        <ele>210.1</ele>
        <time>2022-06-10T14:33:52Z</time>
      </trkpt>
      <trkpt lat="44.5974" lon="4.38287">
        <ele>210.1</ele>
        <time>2022-06-10T14:33:53Z</time>
      </trkpt>
      <trkpt lat="44.59744" lon="4.38292">
        <ele>210</ele>
        <time>2022-06-10T14:33:54Z</time>
      </trkpt>
      <trkpt lat="44.59749" lon="4.38297">
        <ele>210</ele>
        <time>2022-06-10T14:33:55Z</time>
      </trkpt>
      <trkpt lat="44.59753" lon="4.38303">
        <ele>209.9</ele>
        <time>2022-06-10T14:33:56Z</time>
      </trkpt>
      <trkpt lat="44.59757" lon="4.38307">
        <ele>209.8</ele>
        <time>2022-06-10T14:33:57Z</time>
      </trkpt>
      <trkpt lat="44.59762" lon="4.38311">
        <ele>209.8</ele>
        <time>2022-06-10T14:33:58Z</time>
      </trkpt>
      <trkpt lat="44.59766" lon="4.38316">
        <ele>209.7</ele>
        <time>2022-06-10T14:33:59Z</time>
      </trkpt>
      <trkpt lat="44.5977" lon="4.38321">
        <ele>209.7</ele>
        <time>2022-06-10T14:34:00Z</time>
      </trkpt>
      <trkpt lat="44.59775" lon="4.38326">
        <ele>209.6</ele>
        <time>2022-06-10T14:34:01Z</time>
      </trkpt>
      <trkpt lat="44.59779" lon="4.38331">
        <ele>209.5</ele>
        <time>2022-06-10T14:34:02Z</time>
      </trkpt>
      <trkpt lat="44.59783" lon="4.38336">
        <ele>209.5</ele>
        <time>2022-06-10T14:34:03Z</time>
      </trkpt>
      <trkpt lat="44.59787" lon="4.38341">
        <ele>209.5</ele>
        <time>2022-06-10T14:34:04Z</time>
      </trkpt>
      <trkpt lat="44.59791" lon="4.38346">
        <ele>209.4</ele>
        <time>2022-06-10T14:34:05Z</time>
      </trkpt>
      <trkpt lat="44.59795" lon="4.3835">
        <ele>209.4</ele>
        <time>2022-06-10T14:34:06Z</time>
      </trkpt>
      <trkpt lat="44.59799" lon="4.38354">
        <ele>209.3</ele>
        <time>2022-06-10T14:34:07Z</time>
      </trkpt>
      <trkpt lat="44.59802" lon="4.38358">
        <ele>209.3</ele>
        <time>2022-06-10T14:34:08Z</time>
      </trkpt>
      <trkpt lat="44.598" lon="4.38361">
        <ele>209.3</ele>
        <time>2022-06-10T14:34:09Z</time>
      </trkpt>
      <trkpt lat="44.59798" lon="4.38363">
        <ele>209.3</ele>
        <time>2022-06-10T14:34:10Z</time>
      </trkpt>
      <trkpt lat="44.59795" lon="4.38363">
        <ele>209.4</ele>
        <time>2022-06-10T14:34:11Z</time>
      </trkpt>
      <trkpt lat="44.59792" lon="4.38363">
        <ele>209.4</ele>
        <time>2022-06-10T14:34:12Z</time>
      </trkpt>
      <trkpt lat="44.59788" lon="4.38361">
        <ele>209.4</ele>
        <time>2022-06-10T14:34:13Z</time>
      </trkpt>
      <trkpt lat="44.59784" lon="4.38357">
        <ele>209.4</ele>
        <time>2022-06-10T14:34:14Z</time>
      </trkpt>
      <trkpt lat="44.59779" lon="4.38354">
        <ele>209.4</ele>
        <time>2022-06-10T14:34:15Z</time>
      </trkpt>
      <trkpt lat="44.59771" lon="4.38347">
        <ele>209.5</ele>
        <time>2022-06-10T14:34:17Z</time>
      </trkpt>
      <trkpt lat="44.59767" lon="4.38349">
        <ele>209.5</ele>
        <time>2022-06-10T14:34:19Z</time>
      </trkpt>
      <trkpt lat="44.59764" lon="4.38352">
        <ele>209.5</ele>
        <time>2022-06-10T14:34:20Z</time>
      </trkpt>
      <trkpt lat="44.59764" lon="4.38355">
        <ele>209.4</ele>
        <time>2022-06-10T14:34:21Z</time>
      </trkpt>
      <trkpt lat="44.59764" lon="4.38355">
        <ele>209.4</ele>
        <time>2022-06-10T14:34:22Z</time>
      </trkpt>
      <trkpt lat="44.59764" lon="4.38356">
        <ele>209.4</ele>
        <time>2022-06-10T14:34:23Z</time>
      </trkpt>
      <trkpt lat="44.59765" lon="4.38355">
        <ele>209.4</ele>
        <time>2022-06-10T14:34:24Z</time>
      </trkpt>
      <trkpt lat="44.59765" lon="4.38355">
        <ele>209.4</ele>
        <time>2022-06-10T14:34:25Z</time>
      </trkpt>
      <trkpt lat="44.59765" lon="4.38355">
        <ele>209.4</ele>
        <time>2022-06-10T14:34:26Z</time>
      </trkpt>
      <trkpt lat="44.59765" lon="4.38354">
        <ele>209.4</ele>
        <time>2022-06-10T14:34:27Z</time>
      </trkpt>
      <trkpt lat="44.59765" lon="4.38354">
        <ele>209.4</ele>
        <time>2022-06-10T14:34:28Z</time>
      </trkpt>
      <trkpt lat="44.59765" lon="4.38353">
        <ele>209.4</ele>
        <time>2022-06-10T14:34:29Z</time>
      </trkpt>
      <trkpt lat="44.59765" lon="4.38353">
        <ele>209.4</ele>
        <time>2022-06-10T14:34:30Z</time>
      </trkpt>
      <trkpt lat="44.59765" lon="4.38353">
        <ele>209.4</ele>
        <time>2022-06-10T14:34:31Z</time>
      </trkpt>
      <trkpt lat="44.59765" lon="4.38353">
        <ele>209.4</ele>
        <time>2022-06-10T14:34:32Z</time>
      </trkpt>
      <trkpt lat="44.59765" lon="4.38352">
        <ele>209.4</ele>
        <time>2022-06-10T14:34:33Z</time>
      </trkpt>
      <trkpt lat="44.59768" lon="4.38353">
        <ele>209.4</ele>
        <time>2022-06-10T14:36:03Z</time>
      </trkpt>
      <trkpt lat="44.59769" lon="4.38353">
        <ele>209.4</ele>
        <time>2022-06-10T14:36:04Z</time>
      </trkpt>
      <trkpt lat="44.59771" lon="4.38353">
        <ele>209.4</ele>
        <time>2022-06-10T14:36:05Z</time>
      </trkpt>
      <trkpt lat="44.59771" lon="4.38353">
        <ele>209.4</ele>
        <time>2022-06-10T14:36:06Z</time>
      </trkpt>
      <trkpt lat="44.59772" lon="4.38353">
        <ele>209.4</ele>
        <time>2022-06-10T14:36:07Z</time>
      </trkpt>
      <trkpt lat="44.59772" lon="4.38354">
        <ele>209.4</ele>
        <time>2022-06-10T14:36:08Z</time>
      </trkpt>
      <trkpt lat="44.59773" lon="4.38354">
        <ele>209.4</ele>
        <time>2022-06-10T14:36:09Z</time>
      </trkpt>
      <trkpt lat="44.59773" lon="4.38354">
        <ele>209.4</ele>
        <time>2022-06-10T14:36:10Z</time>
      </trkpt>
      <trkpt lat="44.59774" lon="4.38354">
        <ele>209.4</ele>
        <time>2022-06-10T14:36:11Z</time>
      </trkpt>
      <trkpt lat="44.59775" lon="4.38354">
        <ele>209.4</ele>
        <time>2022-06-10T14:36:12Z</time>
      </trkpt>
      <trkpt lat="44.59775" lon="4.38354">
        <ele>209.4</ele>
        <time>2022-06-10T14:36:13Z</time>
      </trkpt>
      <trkpt lat="44.59778" lon="4.38355">
        <ele>209.4</ele>
        <time>2022-06-10T14:36:14Z</time>
      </trkpt>
      <trkpt lat="44.59779" lon="4.38357">
        <ele>209.4</ele>
        <time>2022-06-10T14:36:15Z</time>
      </trkpt>
      <trkpt lat="44.59783" lon="4.3836">
        <ele>209.4</ele>
        <time>2022-06-10T14:36:16Z</time>
      </trkpt>
      <trkpt lat="44.59786" lon="4.38361">
        <ele>209.4</ele>
        <time>2022-06-10T14:36:17Z</time>
      </trkpt>
      <trkpt lat="44.59788" lon="4.38362">
        <ele>209.4</ele>
        <time>2022-06-10T14:36:18Z</time>
      </trkpt>
      <trkpt lat="44.59792" lon="4.38363">
        <ele>209.4</ele>
        <time>2022-06-10T14:36:20Z</time>
      </trkpt>
      <trkpt lat="44.59795" lon="4.38363">
        <ele>209.3</ele>
        <time>2022-06-10T14:36:21Z</time>
      </trkpt>
      <trkpt lat="44.598" lon="4.38362">
        <ele>209.3</ele>
        <time>2022-06-10T14:36:22Z</time>
      </trkpt>
      <trkpt lat="44.59804" lon="4.38362">
        <ele>209.3</ele>
        <time>2022-06-10T14:36:24Z</time>
      </trkpt>
      <trkpt lat="44.59808" lon="4.38363">
        <ele>209.2</ele>
        <time>2022-06-10T14:36:25Z</time>
      </trkpt>
      <trkpt lat="44.59811" lon="4.38365">
        <ele>209.2</ele>
        <time>2022-06-10T14:36:26Z</time>
      </trkpt>
      <trkpt lat="44.59813" lon="4.38369">
        <ele>209.2</ele>
        <time>2022-06-10T14:36:27Z</time>
      </trkpt>
      <trkpt lat="44.59818" lon="4.38376">
        <ele>209.1</ele>
        <time>2022-06-10T14:36:28Z</time>
      </trkpt>
      <trkpt lat="44.59821" lon="4.38378">
        <ele>209.1</ele>
        <time>2022-06-10T14:36:29Z</time>
      </trkpt>
      <trkpt lat="44.59825" lon="4.38382">
        <ele>209</ele>
        <time>2022-06-10T14:36:31Z</time>
      </trkpt>
      <trkpt lat="44.59827" lon="4.38388">
        <ele>209</ele>
        <time>2022-06-10T14:36:32Z</time>
      </trkpt>
      <trkpt lat="44.59831" lon="4.38394">
        <ele>209</ele>
        <time>2022-06-10T14:36:33Z</time>
      </trkpt>
      <trkpt lat="44.59835" lon="4.38398">
        <ele>208.9</ele>
        <time>2022-06-10T14:36:35Z</time>
      </trkpt>
      <trkpt lat="44.59841" lon="4.38405">
        <ele>208.9</ele>
        <time>2022-06-10T14:36:36Z</time>
      </trkpt>
      <trkpt lat="44.59845" lon="4.38408">
        <ele>208.9</ele>
        <time>2022-06-10T14:36:37Z</time>
      </trkpt>
      <trkpt lat="44.59848" lon="4.38411">
        <ele>208.8</ele>
        <time>2022-06-10T14:36:38Z</time>
      </trkpt>
      <trkpt lat="44.59853" lon="4.38414">
        <ele>208.8</ele>
        <time>2022-06-10T14:36:40Z</time>
      </trkpt>
      <trkpt lat="44.59856" lon="4.38417">
        <ele>208.8</ele>
        <time>2022-06-10T14:36:41Z</time>
      </trkpt>
      <trkpt lat="44.59862" lon="4.3842">
        <ele>208.8</ele>
        <time>2022-06-10T14:36:42Z</time>
      </trkpt>
      <trkpt lat="44.59868" lon="4.38425">
        <ele>208.7</ele>
        <time>2022-06-10T14:36:44Z</time>
      </trkpt>
      <trkpt lat="44.59876" lon="4.3843">
        <ele>208.7</ele>
        <time>2022-06-10T14:36:45Z</time>
      </trkpt>
      <trkpt lat="44.59881" lon="4.38434">
        <ele>208.7</ele>
        <time>2022-06-10T14:36:47Z</time>
      </trkpt>
      <trkpt lat="44.59882" lon="4.3844">
        <ele>208.6</ele>
        <time>2022-06-10T14:36:48Z</time>
      </trkpt>
      <trkpt lat="44.59883" lon="4.38443">
        <ele>208.5</ele>
        <time>2022-06-10T14:36:50Z</time>
      </trkpt>
      <trkpt lat="44.59885" lon="4.38448">
        <ele>208.5</ele>
        <time>2022-06-10T14:36:51Z</time>
      </trkpt>
      <trkpt lat="44.59887" lon="4.38451">
        <ele>208.5</ele>
        <time>2022-06-10T14:36:53Z</time>
      </trkpt>
      <trkpt lat="44.5989" lon="4.38455">
        <ele>208.4</ele>
        <time>2022-06-10T14:36:54Z</time>
      </trkpt>
      <trkpt lat="44.59894" lon="4.38458">
        <ele>208.4</ele>
        <time>2022-06-10T14:36:55Z</time>
      </trkpt>
      <trkpt lat="44.59896" lon="4.3846">
        <ele>208.3</ele>
        <time>2022-06-10T14:36:56Z</time>
      </trkpt>
      <trkpt lat="44.59899" lon="4.38462">
        <ele>208.3</ele>
        <time>2022-06-10T14:36:57Z</time>
      </trkpt>
      <trkpt lat="44.59901" lon="4.38464">
        <ele>208.2</ele>
        <time>2022-06-10T14:36:59Z</time>
      </trkpt>
      <trkpt lat="44.59902" lon="4.38465">
        <ele>208.2</ele>
        <time>2022-06-10T14:37:00Z</time>
      </trkpt>
      <trkpt lat="44.59901" lon="4.38464">
        <ele>208.2</ele>
        <time>2022-06-10T14:37:01Z</time>
      </trkpt>
      <trkpt lat="44.59902" lon="4.38462">
        <ele>208.2</ele>
        <time>2022-06-10T14:37:02Z</time>
      </trkpt>
      <trkpt lat="44.59906" lon="4.38462">
        <ele>208.2</ele>
        <time>2022-06-10T14:37:03Z</time>
      </trkpt>
      <trkpt lat="44.59908" lon="4.38461">
        <ele>208.1</ele>
        <time>2022-06-10T14:37:05Z</time>
      </trkpt>
      <trkpt lat="44.59913" lon="4.3846">
        <ele>208.1</ele>
        <time>2022-06-10T14:37:07Z</time>
      </trkpt>
      <trkpt lat="44.59918" lon="4.38456">
        <ele>208.1</ele>
        <time>2022-06-10T14:37:08Z</time>
      </trkpt>
      <trkpt lat="44.59921" lon="4.38453">
        <ele>208.1</ele>
        <time>2022-06-10T14:37:10Z</time>
      </trkpt>
      <trkpt lat="44.59923" lon="4.38449">
        <ele>208.2</ele>
        <time>2022-06-10T14:37:11Z</time>
      </trkpt>
      <trkpt lat="44.59924" lon="4.38443">
        <ele>208.2</ele>
        <time>2022-06-10T14:37:12Z</time>
      </trkpt>
      <trkpt lat="44.59926" lon="4.38438">
        <ele>208.2</ele>
        <time>2022-06-10T14:37:13Z</time>
      </trkpt>
      <trkpt lat="44.59927" lon="4.38434">
        <ele>208.2</ele>
        <time>2022-06-10T14:37:14Z</time>
      </trkpt>
      <trkpt lat="44.59928" lon="4.3843">
        <ele>208.2</ele>
        <time>2022-06-10T14:37:15Z</time>
      </trkpt>
      <trkpt lat="44.59928" lon="4.38429">
        <ele>208.2</ele>
        <time>2022-06-10T14:37:16Z</time>
      </trkpt>
      <trkpt lat="44.59928" lon="4.38428">
        <ele>208.2</ele>
        <time>2022-06-10T14:37:17Z</time>
      </trkpt>
      <trkpt lat="44.59929" lon="4.38428">
        <ele>208.2</ele>
        <time>2022-06-10T14:37:18Z</time>
      </trkpt>
      <trkpt lat="44.59927" lon="4.38429">
        <ele>208.2</ele>
        <time>2022-06-10T14:37:19Z</time>
      </trkpt>
      <trkpt lat="44.59926" lon="4.38429">
        <ele>208.2</ele>
        <time>2022-06-10T14:37:20Z</time>
      </trkpt>
      <trkpt lat="44.59925" lon="4.38428">
        <ele>208.3</ele>
        <time>2022-06-10T14:37:21Z</time>
      </trkpt>
      <trkpt lat="44.59924" lon="4.38426">
        <ele>208.3</ele>
        <time>2022-06-10T14:37:22Z</time>
      </trkpt>
      <trkpt lat="44.59923" lon="4.38424">
        <ele>208.3</ele>
        <time>2022-06-10T14:37:23Z</time>
      </trkpt>
      <trkpt lat="44.59922" lon="4.3842">
        <ele>208.3</ele>
        <time>2022-06-10T14:37:24Z</time>
      </trkpt>
      <trkpt lat="44.59921" lon="4.38418">
        <ele>208.3</ele>
        <time>2022-06-10T14:37:25Z</time>
      </trkpt>
      <trkpt lat="44.59918" lon="4.38415">
        <ele>208.3</ele>
        <time>2022-06-10T14:37:26Z</time>
      </trkpt>
      <trkpt lat="44.59914" lon="4.3841">
        <ele>208.4</ele>
        <time>2022-06-10T14:37:27Z</time>
      </trkpt>
      <trkpt lat="44.59907" lon="4.38409">
        <ele>208.4</ele>
        <time>2022-06-10T14:37:29Z</time>
      </trkpt>
      <trkpt lat="44.599" lon="4.38411">
        <ele>208.5</ele>
        <time>2022-06-10T14:37:31Z</time>
      </trkpt>
      <trkpt lat="44.59896" lon="4.38414">
        <ele>208.5</ele>
        <time>2022-06-10T14:37:33Z</time>
      </trkpt>
      <trkpt lat="44.59892" lon="4.38417">
        <ele>208.6</ele>
        <time>2022-06-10T14:37:34Z</time>
      </trkpt>
      <trkpt lat="44.59887" lon="4.38424">
        <ele>208.6</ele>
        <time>2022-06-10T14:37:35Z</time>
      </trkpt>
      <trkpt lat="44.59885" lon="4.38434">
        <ele>208.6</ele>
        <time>2022-06-10T14:37:37Z</time>
      </trkpt>
      <trkpt lat="44.59885" lon="4.38441">
        <ele>208.5</ele>
        <time>2022-06-10T14:37:38Z</time>
      </trkpt>
      <trkpt lat="44.59887" lon="4.38447">
        <ele>208.5</ele>
        <time>2022-06-10T14:37:39Z</time>
      </trkpt>
      <trkpt lat="44.59889" lon="4.38452">
        <ele>208.5</ele>
        <time>2022-06-10T14:37:40Z</time>
      </trkpt>
      <trkpt lat="44.59893" lon="4.38452">
        <ele>208.4</ele>
        <time>2022-06-10T14:37:41Z</time>
      </trkpt>
      <trkpt lat="44.59894" lon="4.3845">
        <ele>208.4</ele>
        <time>2022-06-10T14:37:42Z</time>
      </trkpt>
      <trkpt lat="44.59899" lon="4.38457">
        <ele>208.1</ele>
        <time>2022-06-10T14:37:43Z</time>
      </trkpt>
      <trkpt lat="44.59902" lon="4.38463">
        <ele>208</ele>
        <time>2022-06-10T14:37:44Z</time>
      </trkpt>
      <trkpt lat="44.59905" lon="4.38472">
        <ele>208</ele>
        <time>2022-06-10T14:37:45Z</time>
      </trkpt>
      <trkpt lat="44.59908" lon="4.38478">
        <ele>207.9</ele>
        <time>2022-06-10T14:37:46Z</time>
      </trkpt>
      <trkpt lat="44.59911" lon="4.38483">
        <ele>207.9</ele>
        <time>2022-06-10T14:37:47Z</time>
      </trkpt>
      <trkpt lat="44.59914" lon="4.38488">
        <ele>207.9</ele>
        <time>2022-06-10T14:37:48Z</time>
      </trkpt>
      <trkpt lat="44.59918" lon="4.38493">
        <ele>207.9</ele>
        <time>2022-06-10T14:37:49Z</time>
      </trkpt>
      <trkpt lat="44.59921" lon="4.38498">
        <ele>207.9</ele>
        <time>2022-06-10T14:37:50Z</time>
      </trkpt>
      <trkpt lat="44.59925" lon="4.38503">
        <ele>207.8</ele>
        <time>2022-06-10T14:37:51Z</time>
      </trkpt>
      <trkpt lat="44.59929" lon="4.38508">
        <ele>207.8</ele>
        <time>2022-06-10T14:37:52Z</time>
      </trkpt>
      <trkpt lat="44.59933" lon="4.38513">
        <ele>207.8</ele>
        <time>2022-06-10T14:37:53Z</time>
      </trkpt>
      <trkpt lat="44.59937" lon="4.38518">
        <ele>207.8</ele>
        <time>2022-06-10T14:37:54Z</time>
      </trkpt>
      <trkpt lat="44.59941" lon="4.38523">
        <ele>207.8</ele>
        <time>2022-06-10T14:37:55Z</time>
      </trkpt>
      <trkpt lat="44.59945" lon="4.38527">
        <ele>207.8</ele>
        <time>2022-06-10T14:37:56Z</time>
      </trkpt>
      <trkpt lat="44.59949" lon="4.38532">
        <ele>207.7</ele>
        <time>2022-06-10T14:37:57Z</time>
      </trkpt>
      <trkpt lat="44.59953" lon="4.38537">
        <ele>207.7</ele>
        <time>2022-06-10T14:37:58Z</time>
      </trkpt>
      <trkpt lat="44.59957" lon="4.38541">
        <ele>207.7</ele>
        <time>2022-06-10T14:37:59Z</time>
      </trkpt>
      <trkpt lat="44.5996" lon="4.38545">
        <ele>207.7</ele>
        <time>2022-06-10T14:38:00Z</time>
      </trkpt>
      <trkpt lat="44.59964" lon="4.38549">
        <ele>207.8</ele>
        <time>2022-06-10T14:38:01Z</time>
      </trkpt>
      <trkpt lat="44.59968" lon="4.38554">
        <ele>207.8</ele>
        <time>2022-06-10T14:38:02Z</time>
      </trkpt>
      <trkpt lat="44.59972" lon="4.38558">
        <ele>207.8</ele>
        <time>2022-06-10T14:38:03Z</time>
      </trkpt>
      <trkpt lat="44.59975" lon="4.38563">
        <ele>207.9</ele>
        <time>2022-06-10T14:38:04Z</time>
      </trkpt>
      <trkpt lat="44.59979" lon="4.38567">
        <ele>207.9</ele>
        <time>2022-06-10T14:38:05Z</time>
      </trkpt>
      <trkpt lat="44.59982" lon="4.38571">
        <ele>208</ele>
        <time>2022-06-10T14:38:06Z</time>
      </trkpt>
      <trkpt lat="44.59985" lon="4.38575">
        <ele>208.1</ele>
        <time>2022-06-10T14:38:07Z</time>
      </trkpt>
      <trkpt lat="44.59989" lon="4.38579">
        <ele>208.1</ele>
        <time>2022-06-10T14:38:08Z</time>
      </trkpt>
      <trkpt lat="44.59992" lon="4.38583">
        <ele>208.2</ele>
        <time>2022-06-10T14:38:09Z</time>
      </trkpt>
      <trkpt lat="44.59995" lon="4.38586">
        <ele>208.2</ele>
        <time>2022-06-10T14:38:10Z</time>
      </trkpt>
      <trkpt lat="44.59997" lon="4.38589">
        <ele>208.3</ele>
        <time>2022-06-10T14:38:11Z</time>
      </trkpt>
      <trkpt lat="44.6" lon="4.38593">
        <ele>208.4</ele>
        <time>2022-06-10T14:38:12Z</time>
      </trkpt>
      <trkpt lat="44.60004" lon="4.38598">
        <ele>208.5</ele>
        <time>2022-06-10T14:38:13Z</time>
      </trkpt>
      <trkpt lat="44.60006" lon="4.386">
        <ele>208.6</ele>
        <time>2022-06-10T14:38:14Z</time>
      </trkpt>
      <trkpt lat="44.60009" lon="4.38604">
        <ele>208.7</ele>
        <time>2022-06-10T14:38:15Z</time>
      </trkpt>
      <trkpt lat="44.60011" lon="4.38607">
        <ele>208.8</ele>
        <time>2022-06-10T14:38:16Z</time>
      </trkpt>
      <trkpt lat="44.60011" lon="4.38611">
        <ele>208.9</ele>
        <time>2022-06-10T14:38:17Z</time>
      </trkpt>
      <trkpt lat="44.60013" lon="4.38613">
        <ele>209</ele>
        <time>2022-06-10T14:38:18Z</time>
      </trkpt>
      <trkpt lat="44.60018" lon="4.38617">
        <ele>209.2</ele>
        <time>2022-06-10T14:38:19Z</time>
      </trkpt>
      <trkpt lat="44.60021" lon="4.3862">
        <ele>209.3</ele>
        <time>2022-06-10T14:38:20Z</time>
      </trkpt>
      <trkpt lat="44.60024" lon="4.38622">
        <ele>209.4</ele>
        <time>2022-06-10T14:38:21Z</time>
      </trkpt>
      <trkpt lat="44.60027" lon="4.38624">
        <ele>209.6</ele>
        <time>2022-06-10T14:38:22Z</time>
      </trkpt>
      <trkpt lat="44.60029" lon="4.38628">
        <ele>209.8</ele>
        <time>2022-06-10T14:38:23Z</time>
      </trkpt>
      <trkpt lat="44.60032" lon="4.38632">
        <ele>209.9</ele>
        <time>2022-06-10T14:38:24Z</time>
      </trkpt>
      <trkpt lat="44.60036" lon="4.38636">
        <ele>210.2</ele>
        <time>2022-06-10T14:38:26Z</time>
      </trkpt>
      <trkpt lat="44.6004" lon="4.3864">
        <ele>210.4</ele>
        <time>2022-06-10T14:38:27Z</time>
      </trkpt>
      <trkpt lat="44.60045" lon="4.38644">
        <ele>210.7</ele>
        <time>2022-06-10T14:38:29Z</time>
      </trkpt>
      <trkpt lat="44.60048" lon="4.38646">
        <ele>210.8</ele>
        <time>2022-06-10T14:38:30Z</time>
      </trkpt>
      <trkpt lat="44.60049" lon="4.38649">
        <ele>210.8</ele>
        <time>2022-06-10T14:38:31Z</time>
      </trkpt>
      <trkpt lat="44.60051" lon="4.38655">
        <ele>210.7</ele>
        <time>2022-06-10T14:38:32Z</time>
      </trkpt>
      <trkpt lat="44.60054" lon="4.38657">
        <ele>210.9</ele>
        <time>2022-06-10T14:38:34Z</time>
      </trkpt>
      <trkpt lat="44.60055" lon="4.38658">
        <ele>210.9</ele>
        <time>2022-06-10T14:38:35Z</time>
      </trkpt>
      <trkpt lat="44.60058" lon="4.38656">
        <ele>211</ele>
        <time>2022-06-10T14:38:36Z</time>
      </trkpt>
      <trkpt lat="44.6006" lon="4.38655">
        <ele>211</ele>
        <time>2022-06-10T14:38:37Z</time>
      </trkpt>
      <trkpt lat="44.60061" lon="4.38653">
        <ele>211.1</ele>
        <time>2022-06-10T14:38:38Z</time>
      </trkpt>
      <trkpt lat="44.60064" lon="4.3865">
        <ele>211.7</ele>
        <time>2022-06-10T14:38:40Z</time>
      </trkpt>
      <trkpt lat="44.60068" lon="4.38649">
        <ele>211.6</ele>
        <time>2022-06-10T14:38:41Z</time>
      </trkpt>
      <trkpt lat="44.60069" lon="4.38648">
        <ele>211.6</ele>
        <time>2022-06-10T14:38:42Z</time>
      </trkpt>
      <trkpt lat="44.60073" lon="4.38648">
        <ele>211.6</ele>
        <time>2022-06-10T14:38:43Z</time>
      </trkpt>
      <trkpt lat="44.60074" lon="4.38647">
        <ele>211.6</ele>
        <time>2022-06-10T14:38:44Z</time>
      </trkpt>
      <trkpt lat="44.60076" lon="4.38643">
        <ele>211.6</ele>
        <time>2022-06-10T14:38:45Z</time>
      </trkpt>
      <trkpt lat="44.60076" lon="4.38642">
        <ele>211.6</ele>
        <time>2022-06-10T14:38:46Z</time>
      </trkpt>
      <trkpt lat="44.60077" lon="4.3864">
        <ele>211.6</ele>
        <time>2022-06-10T14:38:47Z</time>
      </trkpt>
      <trkpt lat="44.60076" lon="4.38638">
        <ele>211.5</ele>
        <time>2022-06-10T14:38:48Z</time>
      </trkpt>
      <trkpt lat="44.60076" lon="4.38638">
        <ele>211.5</ele>
        <time>2022-06-10T14:38:49Z</time>
      </trkpt>
      <trkpt lat="44.60076" lon="4.38637">
        <ele>211.5</ele>
        <time>2022-06-10T14:38:50Z</time>
      </trkpt>
      <trkpt lat="44.60076" lon="4.38637">
        <ele>211.5</ele>
        <time>2022-06-10T14:38:51Z</time>
      </trkpt>
      <trkpt lat="44.60076" lon="4.38638">
        <ele>211.5</ele>
        <time>2022-06-10T14:38:52Z</time>
      </trkpt>
      <trkpt lat="44.60075" lon="4.38638">
        <ele>211.5</ele>
        <time>2022-06-10T14:38:53Z</time>
      </trkpt>
      <trkpt lat="44.60075" lon="4.38638">
        <ele>211.5</ele>
        <time>2022-06-10T14:38:54Z</time>
      </trkpt>
      <trkpt lat="44.60075" lon="4.38638">
        <ele>211.5</ele>
        <time>2022-06-10T14:38:55Z</time>
      </trkpt>
      <trkpt lat="44.60075" lon="4.38638">
        <ele>211.5</ele>
        <time>2022-06-10T14:38:56Z</time>
      </trkpt>
      <trkpt lat="44.60075" lon="4.38638">
        <ele>211.5</ele>
        <time>2022-06-10T14:38:57Z</time>
      </trkpt>
      <trkpt lat="44.60075" lon="4.38638">
        <ele>211.5</ele>
        <time>2022-06-10T14:38:58Z</time>
      </trkpt>
      <trkpt lat="44.60075" lon="4.38638">
        <ele>211.5</ele>
        <time>2022-06-10T14:38:59Z</time>
      </trkpt>
      <trkpt lat="44.60075" lon="4.38638">
        <ele>211.5</ele>
        <time>2022-06-10T14:39:00Z</time>
      </trkpt>
      <trkpt lat="44.60074" lon="4.38639">
        <ele>211.5</ele>
        <time>2022-06-10T14:39:21Z</time>
      </trkpt>
      <trkpt lat="44.60073" lon="4.38639">
        <ele>211.5</ele>
        <time>2022-06-10T14:39:22Z</time>
      </trkpt>
      <trkpt lat="44.60073" lon="4.38642">
        <ele>211.5</ele>
        <time>2022-06-10T14:39:23Z</time>
      </trkpt>
      <trkpt lat="44.60072" lon="4.38643">
        <ele>211.5</ele>
        <time>2022-06-10T14:39:24Z</time>
      </trkpt>
      <trkpt lat="44.60069" lon="4.38646">
        <ele>211.5</ele>
        <time>2022-06-10T14:39:25Z</time>
      </trkpt>
      <trkpt lat="44.60068" lon="4.38646">
        <ele>211.5</ele>
        <time>2022-06-10T14:39:26Z</time>
      </trkpt>
      <trkpt lat="44.60064" lon="4.38646">
        <ele>211.4</ele>
        <time>2022-06-10T14:39:27Z</time>
      </trkpt>
      <trkpt lat="44.60061" lon="4.38645">
        <ele>211.4</ele>
        <time>2022-06-10T14:39:28Z</time>
      </trkpt>
      <trkpt lat="44.60058" lon="4.38644">
        <ele>211.4</ele>
        <time>2022-06-10T14:39:29Z</time>
      </trkpt>
      <trkpt lat="44.60056" lon="4.38644">
        <ele>211.4</ele>
        <time>2022-06-10T14:39:30Z</time>
      </trkpt>
      <trkpt lat="44.60057" lon="4.38645">
        <ele>211.4</ele>
        <time>2022-06-10T14:39:31Z</time>
      </trkpt>
      <trkpt lat="44.60051" lon="4.3865">
        <ele>210.8</ele>
        <time>2022-06-10T14:39:33Z</time>
      </trkpt>
      <trkpt lat="44.60047" lon="4.38655">
        <ele>210.6</ele>
        <time>2022-06-10T14:39:34Z</time>
      </trkpt>
      <trkpt lat="44.60044" lon="4.38659">
        <ele>210.5</ele>
        <time>2022-06-10T14:39:35Z</time>
      </trkpt>
      <trkpt lat="44.60041" lon="4.38661">
        <ele>210.4</ele>
        <time>2022-06-10T14:39:36Z</time>
      </trkpt>
      <trkpt lat="44.60038" lon="4.38665">
        <ele>210.3</ele>
        <time>2022-06-10T14:39:37Z</time>
      </trkpt>
      <trkpt lat="44.60035" lon="4.38668">
        <ele>210.2</ele>
        <time>2022-06-10T14:39:38Z</time>
      </trkpt>
      <trkpt lat="44.60032" lon="4.38671">
        <ele>210</ele>
        <time>2022-06-10T14:39:39Z</time>
      </trkpt>
      <trkpt lat="44.60027" lon="4.38672">
        <ele>209.8</ele>
        <time>2022-06-10T14:39:40Z</time>
      </trkpt>
      <trkpt lat="44.60021" lon="4.38676">
        <ele>209.5</ele>
        <time>2022-06-10T14:39:42Z</time>
      </trkpt>
      <trkpt lat="44.60016" lon="4.38679">
        <ele>209.3</ele>
        <time>2022-06-10T14:39:43Z</time>
      </trkpt>
      <trkpt lat="44.60011" lon="4.38682">
        <ele>209.1</ele>
        <time>2022-06-10T14:39:44Z</time>
      </trkpt>
      <trkpt lat="44.60007" lon="4.38685">
        <ele>208.9</ele>
        <time>2022-06-10T14:39:45Z</time>
      </trkpt>
      <trkpt lat="44.60003" lon="4.38689">
        <ele>208.6</ele>
        <time>2022-06-10T14:39:46Z</time>
      </trkpt>
      <trkpt lat="44.59999" lon="4.38692">
        <ele>208.3</ele>
        <time>2022-06-10T14:39:47Z</time>
      </trkpt>
      <trkpt lat="44.59995" lon="4.38696">
        <ele>208</ele>
        <time>2022-06-10T14:39:48Z</time>
      </trkpt>
      <trkpt lat="44.59991" lon="4.38699">
        <ele>207.7</ele>
        <time>2022-06-10T14:39:49Z</time>
      </trkpt>
      <trkpt lat="44.59987" lon="4.38702">
        <ele>207.4</ele>
        <time>2022-06-10T14:39:50Z</time>
      </trkpt>
      <trkpt lat="44.59984" lon="4.38702">
        <ele>207.2</ele>
        <time>2022-06-10T14:39:51Z</time>
      </trkpt>
      <trkpt lat="44.59982" lon="4.38702">
        <ele>207.1</ele>
        <time>2022-06-10T14:39:52Z</time>
      </trkpt>
      <trkpt lat="44.59979" lon="4.38705">
        <ele>206.8</ele>
        <time>2022-06-10T14:39:53Z</time>
      </trkpt>
      <trkpt lat="44.59972" lon="4.38711">
        <ele>206.2</ele>
        <time>2022-06-10T14:39:54Z</time>
      </trkpt>
      <trkpt lat="44.59965" lon="4.38717">
        <ele>205.7</ele>
        <time>2022-06-10T14:39:56Z</time>
      </trkpt>
      <trkpt lat="44.5996" lon="4.3872">
        <ele>205.3</ele>
        <time>2022-06-10T14:39:57Z</time>
      </trkpt>
      <trkpt lat="44.59955" lon="4.38724">
        <ele>204.9</ele>
        <time>2022-06-10T14:39:58Z</time>
      </trkpt>
      <trkpt lat="44.5995" lon="4.38727">
        <ele>204.5</ele>
        <time>2022-06-10T14:39:59Z</time>
      </trkpt>
      <trkpt lat="44.59945" lon="4.3873">
        <ele>204.2</ele>
        <time>2022-06-10T14:40:00Z</time>
      </trkpt>
      <trkpt lat="44.5994" lon="4.38734">
        <ele>203.8</ele>
        <time>2022-06-10T14:40:01Z</time>
      </trkpt>
      <trkpt lat="44.59936" lon="4.38737">
        <ele>203.4</ele>
        <time>2022-06-10T14:40:02Z</time>
      </trkpt>
      <trkpt lat="44.59931" lon="4.3874">
        <ele>203.1</ele>
        <time>2022-06-10T14:40:03Z</time>
      </trkpt>
      <trkpt lat="44.59927" lon="4.38743">
        <ele>202.7</ele>
        <time>2022-06-10T14:40:04Z</time>
      </trkpt>
      <trkpt lat="44.59922" lon="4.38747">
        <ele>202.4</ele>
        <time>2022-06-10T14:40:05Z</time>
      </trkpt>
      <trkpt lat="44.59917" lon="4.3875">
        <ele>202</ele>
        <time>2022-06-10T14:40:06Z</time>
      </trkpt>
      <trkpt lat="44.59911" lon="4.38754">
        <ele>201.6</ele>
        <time>2022-06-10T14:40:07Z</time>
      </trkpt>
      <trkpt lat="44.59906" lon="4.38758">
        <ele>201.2</ele>
        <time>2022-06-10T14:40:08Z</time>
      </trkpt>
      <trkpt lat="44.59899" lon="4.38763">
        <ele>200.7</ele>
        <time>2022-06-10T14:40:09Z</time>
      </trkpt>
      <trkpt lat="44.59893" lon="4.38768">
        <ele>200.3</ele>
        <time>2022-06-10T14:40:10Z</time>
      </trkpt>
      <trkpt lat="44.59886" lon="4.38773">
        <ele>199.8</ele>
        <time>2022-06-10T14:40:11Z</time>
      </trkpt>
      <trkpt lat="44.59879" lon="4.38778">
        <ele>199.4</ele>
        <time>2022-06-10T14:40:12Z</time>
      </trkpt>
      <trkpt lat="44.59872" lon="4.38784">
        <ele>199.1</ele>
        <time>2022-06-10T14:40:13Z</time>
      </trkpt>
      <trkpt lat="44.59865" lon="4.3879">
        <ele>198.7</ele>
        <time>2022-06-10T14:40:14Z</time>
      </trkpt>
      <trkpt lat="44.59858" lon="4.38796">
        <ele>198.4</ele>
        <time>2022-06-10T14:40:15Z</time>
      </trkpt>
      <trkpt lat="44.59851" lon="4.38802">
        <ele>198</ele>
        <time>2022-06-10T14:40:16Z</time>
      </trkpt>
      <trkpt lat="44.59843" lon="4.38808">
        <ele>197.6</ele>
        <time>2022-06-10T14:40:17Z</time>
      </trkpt>
      <trkpt lat="44.59835" lon="4.38813">
        <ele>197.3</ele>
        <time>2022-06-10T14:40:18Z</time>
      </trkpt>
      <trkpt lat="44.59827" lon="4.38817">
        <ele>197.1</ele>
        <time>2022-06-10T14:40:19Z</time>
      </trkpt>
      <trkpt lat="44.59819" lon="4.38822">
        <ele>196.9</ele>
        <time>2022-06-10T14:40:20Z</time>
      </trkpt>
      <trkpt lat="44.59811" lon="4.38827">
        <ele>196.7</ele>
        <time>2022-06-10T14:40:21Z</time>
      </trkpt>
      <trkpt lat="44.59803" lon="4.38831">
        <ele>196.5</ele>
        <time>2022-06-10T14:40:22Z</time>
      </trkpt>
      <trkpt lat="44.59796" lon="4.38836">
        <ele>196.4</ele>
        <time>2022-06-10T14:40:23Z</time>
      </trkpt>
      <trkpt lat="44.59788" lon="4.3884">
        <ele>196.3</ele>
        <time>2022-06-10T14:40:24Z</time>
      </trkpt>
      <trkpt lat="44.5978" lon="4.38843">
        <ele>196.1</ele>
        <time>2022-06-10T14:40:25Z</time>
      </trkpt>
      <trkpt lat="44.59772" lon="4.38847">
        <ele>196</ele>
        <time>2022-06-10T14:40:26Z</time>
      </trkpt>
      <trkpt lat="44.59764" lon="4.38851">
        <ele>195.9</ele>
        <time>2022-06-10T14:40:27Z</time>
      </trkpt>
      <trkpt lat="44.59756" lon="4.38855">
        <ele>195.8</ele>
        <time>2022-06-10T14:40:28Z</time>
      </trkpt>
      <trkpt lat="44.59748" lon="4.38859">
        <ele>195.7</ele>
        <time>2022-06-10T14:40:29Z</time>
      </trkpt>
      <trkpt lat="44.59741" lon="4.38862">
        <ele>195.6</ele>
        <time>2022-06-10T14:40:30Z</time>
      </trkpt>
      <trkpt lat="44.59733" lon="4.38866">
        <ele>195.5</ele>
        <time>2022-06-10T14:40:31Z</time>
      </trkpt>
      <trkpt lat="44.59726" lon="4.38871">
        <ele>195.4</ele>
        <time>2022-06-10T14:40:32Z</time>
      </trkpt>
      <trkpt lat="44.59718" lon="4.38874">
        <ele>195.4</ele>
        <time>2022-06-10T14:40:33Z</time>
      </trkpt>
      <trkpt lat="44.5971" lon="4.38877">
        <ele>195.3</ele>
        <time>2022-06-10T14:40:34Z</time>
      </trkpt>
      <trkpt lat="44.59702" lon="4.38879">
        <ele>195.2</ele>
        <time>2022-06-10T14:40:35Z</time>
      </trkpt>
      <trkpt lat="44.59694" lon="4.38882">
        <ele>195.1</ele>
        <time>2022-06-10T14:40:36Z</time>
      </trkpt>
      <trkpt lat="44.59686" lon="4.38884">
        <ele>195</ele>
        <time>2022-06-10T14:40:37Z</time>
      </trkpt>
      <trkpt lat="44.59678" lon="4.38886">
        <ele>194.9</ele>
        <time>2022-06-10T14:40:38Z</time>
      </trkpt>
      <trkpt lat="44.5967" lon="4.38888">
        <ele>194.7</ele>
        <time>2022-06-10T14:40:39Z</time>
      </trkpt>
      <trkpt lat="44.59663" lon="4.3889">
        <ele>194.6</ele>
        <time>2022-06-10T14:40:40Z</time>
      </trkpt>
      <trkpt lat="44.59655" lon="4.38892">
        <ele>194.4</ele>
        <time>2022-06-10T14:40:41Z</time>
      </trkpt>
      <trkpt lat="44.59648" lon="4.38895">
        <ele>194.3</ele>
        <time>2022-06-10T14:40:42Z</time>
      </trkpt>
      <trkpt lat="44.59641" lon="4.38898">
        <ele>194</ele>
        <time>2022-06-10T14:40:43Z</time>
      </trkpt>
      <trkpt lat="44.59634" lon="4.38903">
        <ele>193.8</ele>
        <time>2022-06-10T14:40:44Z</time>
      </trkpt>
      <trkpt lat="44.59627" lon="4.38908">
        <ele>193.5</ele>
        <time>2022-06-10T14:40:45Z</time>
      </trkpt>
      <trkpt lat="44.59621" lon="4.38914">
        <ele>193.2</ele>
        <time>2022-06-10T14:40:46Z</time>
      </trkpt>
      <trkpt lat="44.59614" lon="4.3892">
        <ele>192.9</ele>
        <time>2022-06-10T14:40:47Z</time>
      </trkpt>
      <trkpt lat="44.59607" lon="4.38926">
        <ele>192.7</ele>
        <time>2022-06-10T14:40:48Z</time>
      </trkpt>
      <trkpt lat="44.59599" lon="4.38931">
        <ele>192.4</ele>
        <time>2022-06-10T14:40:49Z</time>
      </trkpt>
      <trkpt lat="44.59593" lon="4.38936">
        <ele>192.1</ele>
        <time>2022-06-10T14:40:50Z</time>
      </trkpt>
      <trkpt lat="44.59586" lon="4.38942">
        <ele>191.8</ele>
        <time>2022-06-10T14:40:51Z</time>
      </trkpt>
      <trkpt lat="44.5958" lon="4.38947">
        <ele>191.5</ele>
        <time>2022-06-10T14:40:52Z</time>
      </trkpt>
      <trkpt lat="44.59574" lon="4.38951">
        <ele>191.2</ele>
        <time>2022-06-10T14:40:53Z</time>
      </trkpt>
      <trkpt lat="44.59568" lon="4.38956">
        <ele>190.9</ele>
        <time>2022-06-10T14:40:54Z</time>
      </trkpt>
      <trkpt lat="44.59562" lon="4.38962">
        <ele>190.7</ele>
        <time>2022-06-10T14:40:55Z</time>
      </trkpt>
      <trkpt lat="44.59555" lon="4.38968">
        <ele>190.4</ele>
        <time>2022-06-10T14:40:56Z</time>
      </trkpt>
      <trkpt lat="44.59549" lon="4.38974">
        <ele>190.1</ele>
        <time>2022-06-10T14:40:57Z</time>
      </trkpt>
      <trkpt lat="44.59543" lon="4.38981">
        <ele>189.9</ele>
        <time>2022-06-10T14:40:58Z</time>
      </trkpt>
      <trkpt lat="44.59538" lon="4.38988">
        <ele>189.7</ele>
        <time>2022-06-10T14:40:59Z</time>
      </trkpt>
      <trkpt lat="44.59532" lon="4.38996">
        <ele>189.5</ele>
        <time>2022-06-10T14:41:00Z</time>
      </trkpt>
      <trkpt lat="44.59526" lon="4.39002">
        <ele>189.3</ele>
        <time>2022-06-10T14:41:01Z</time>
      </trkpt>
      <trkpt lat="44.5952" lon="4.39009">
        <ele>189.1</ele>
        <time>2022-06-10T14:41:02Z</time>
      </trkpt>
      <trkpt lat="44.59515" lon="4.39016">
        <ele>188.9</ele>
        <time>2022-06-10T14:41:03Z</time>
      </trkpt>
      <trkpt lat="44.5951" lon="4.39025">
        <ele>188.8</ele>
        <time>2022-06-10T14:41:04Z</time>
      </trkpt>
      <trkpt lat="44.59505" lon="4.39033">
        <ele>188.6</ele>
        <time>2022-06-10T14:41:05Z</time>
      </trkpt>
      <trkpt lat="44.595" lon="4.3904">
        <ele>188.4</ele>
        <time>2022-06-10T14:41:06Z</time>
      </trkpt>
      <trkpt lat="44.59495" lon="4.39047">
        <ele>188.3</ele>
        <time>2022-06-10T14:41:07Z</time>
      </trkpt>
      <trkpt lat="44.59489" lon="4.39054">
        <ele>188.1</ele>
        <time>2022-06-10T14:41:08Z</time>
      </trkpt>
      <trkpt lat="44.59484" lon="4.39061">
        <ele>188</ele>
        <time>2022-06-10T14:41:09Z</time>
      </trkpt>
      <trkpt lat="44.59479" lon="4.39068">
        <ele>187.9</ele>
        <time>2022-06-10T14:41:10Z</time>
      </trkpt>
      <trkpt lat="44.59474" lon="4.39076">
        <ele>187.7</ele>
        <time>2022-06-10T14:41:11Z</time>
      </trkpt>
      <trkpt lat="44.59468" lon="4.39083">
        <ele>187.6</ele>
        <time>2022-06-10T14:41:12Z</time>
      </trkpt>
      <trkpt lat="44.59463" lon="4.3909">
        <ele>187.5</ele>
        <time>2022-06-10T14:41:13Z</time>
      </trkpt>
      <trkpt lat="44.59457" lon="4.39097">
        <ele>187.5</ele>
        <time>2022-06-10T14:41:14Z</time>
      </trkpt>
      <trkpt lat="44.59452" lon="4.39103">
        <ele>187.4</ele>
        <time>2022-06-10T14:41:15Z</time>
      </trkpt>
      <trkpt lat="44.59447" lon="4.39109">
        <ele>187.3</ele>
        <time>2022-06-10T14:41:16Z</time>
      </trkpt>
      <trkpt lat="44.59441" lon="4.39112">
        <ele>187.3</ele>
        <time>2022-06-10T14:41:17Z</time>
      </trkpt>
      <trkpt lat="44.59438" lon="4.39113">
        <ele>187.3</ele>
        <time>2022-06-10T14:41:18Z</time>
      </trkpt>
      <trkpt lat="44.59436" lon="4.39114">
        <ele>187.3</ele>
        <time>2022-06-10T14:41:19Z</time>
      </trkpt>
      <trkpt lat="44.59435" lon="4.39114">
        <ele>187.3</ele>
        <time>2022-06-10T14:41:20Z</time>
      </trkpt>
      <trkpt lat="44.59433" lon="4.39114">
        <ele>187.3</ele>
        <time>2022-06-10T14:41:21Z</time>
      </trkpt>
      <trkpt lat="44.59433" lon="4.39113">
        <ele>187.3</ele>
        <time>2022-06-10T14:41:22Z</time>
      </trkpt>
      <trkpt lat="44.59432" lon="4.39114">
        <ele>187.3</ele>
        <time>2022-06-10T14:41:23Z</time>
      </trkpt>
      <trkpt lat="44.59429" lon="4.39113">
        <ele>187.3</ele>
        <time>2022-06-10T14:41:24Z</time>
      </trkpt>
      <trkpt lat="44.59428" lon="4.39113">
        <ele>187.2</ele>
        <time>2022-06-10T14:41:25Z</time>
      </trkpt>
      <trkpt lat="44.59425" lon="4.39113">
        <ele>187.2</ele>
        <time>2022-06-10T14:41:26Z</time>
      </trkpt>
      <trkpt lat="44.59424" lon="4.39112">
        <ele>187.2</ele>
        <time>2022-06-10T14:41:27Z</time>
      </trkpt>
      <trkpt lat="44.5942" lon="4.39111">
        <ele>187.2</ele>
        <time>2022-06-10T14:41:28Z</time>
      </trkpt>
      <trkpt lat="44.59413" lon="4.3911">
        <ele>187</ele>
        <time>2022-06-10T14:41:29Z</time>
      </trkpt>
      <trkpt lat="44.59404" lon="4.39115">
        <ele>186.8</ele>
        <time>2022-06-10T14:41:31Z</time>
      </trkpt>
      <trkpt lat="44.59399" lon="4.39119">
        <ele>186.6</ele>
        <time>2022-06-10T14:41:32Z</time>
      </trkpt>
      <trkpt lat="44.59396" lon="4.39125">
        <ele>186.5</ele>
        <time>2022-06-10T14:41:33Z</time>
      </trkpt>
      <trkpt lat="44.59393" lon="4.39131">
        <ele>186.3</ele>
        <time>2022-06-10T14:41:34Z</time>
      </trkpt>
      <trkpt lat="44.59389" lon="4.39136">
        <ele>186.1</ele>
        <time>2022-06-10T14:41:35Z</time>
      </trkpt>
      <trkpt lat="44.59385" lon="4.3914">
        <ele>185.9</ele>
        <time>2022-06-10T14:41:36Z</time>
      </trkpt>
      <trkpt lat="44.59379" lon="4.39143">
        <ele>185.6</ele>
        <time>2022-06-10T14:41:37Z</time>
      </trkpt>
      <trkpt lat="44.59372" lon="4.39143">
        <ele>185.2</ele>
        <time>2022-06-10T14:41:38Z</time>
      </trkpt>
      <trkpt lat="44.59365" lon="4.39143">
        <ele>185</ele>
        <time>2022-06-10T14:41:39Z</time>
      </trkpt>
      <trkpt lat="44.59358" lon="4.39143">
        <ele>184.8</ele>
        <time>2022-06-10T14:41:40Z</time>
      </trkpt>
      <trkpt lat="44.59351" lon="4.39143">
        <ele>184.6</ele>
        <time>2022-06-10T14:41:41Z</time>
      </trkpt>
      <trkpt lat="44.59343" lon="4.39144">
        <ele>184.4</ele>
        <time>2022-06-10T14:41:42Z</time>
      </trkpt>
      <trkpt lat="44.59335" lon="4.39145">
        <ele>184.3</ele>
        <time>2022-06-10T14:41:43Z</time>
      </trkpt>
      <trkpt lat="44.59328" lon="4.39145">
        <ele>184.2</ele>
        <time>2022-06-10T14:41:44Z</time>
      </trkpt>
      <trkpt lat="44.59321" lon="4.39146">
        <ele>184.1</ele>
        <time>2022-06-10T14:41:45Z</time>
      </trkpt>
      <trkpt lat="44.59314" lon="4.39147">
        <ele>184</ele>
        <time>2022-06-10T14:41:46Z</time>
      </trkpt>
      <trkpt lat="44.59307" lon="4.39148">
        <ele>183.9</ele>
        <time>2022-06-10T14:41:47Z</time>
      </trkpt>
      <trkpt lat="44.59299" lon="4.39149">
        <ele>183.8</ele>
        <time>2022-06-10T14:41:48Z</time>
      </trkpt>
      <trkpt lat="44.59292" lon="4.39149">
        <ele>183.8</ele>
        <time>2022-06-10T14:41:49Z</time>
      </trkpt>
      <trkpt lat="44.59286" lon="4.39149">
        <ele>183.7</ele>
        <time>2022-06-10T14:41:50Z</time>
      </trkpt>
      <trkpt lat="44.59279" lon="4.3915">
        <ele>183.7</ele>
        <time>2022-06-10T14:41:51Z</time>
      </trkpt>
      <trkpt lat="44.59273" lon="4.39152">
        <ele>183.7</ele>
        <time>2022-06-10T14:41:52Z</time>
      </trkpt>
      <trkpt lat="44.59266" lon="4.39154">
        <ele>183.7</ele>
        <time>2022-06-10T14:41:53Z</time>
      </trkpt>
      <trkpt lat="44.59259" lon="4.39156">
        <ele>183.6</ele>
        <time>2022-06-10T14:41:54Z</time>
      </trkpt>
      <trkpt lat="44.59252" lon="4.39158">
        <ele>183.6</ele>
        <time>2022-06-10T14:41:55Z</time>
      </trkpt>
      <trkpt lat="44.59245" lon="4.39161">
        <ele>183.5</ele>
        <time>2022-06-10T14:41:56Z</time>
      </trkpt>
      <trkpt lat="44.59239" lon="4.39164">
        <ele>183.4</ele>
        <time>2022-06-10T14:41:57Z</time>
      </trkpt>
      <trkpt lat="44.59233" lon="4.39167">
        <ele>183.3</ele>
        <time>2022-06-10T14:41:58Z</time>
      </trkpt>
      <trkpt lat="44.59227" lon="4.39172">
        <ele>183.3</ele>
        <time>2022-06-10T14:41:59Z</time>
      </trkpt>
      <trkpt lat="44.59221" lon="4.39176">
        <ele>183.2</ele>
        <time>2022-06-10T14:42:00Z</time>
      </trkpt>
      <trkpt lat="44.59215" lon="4.39182">
        <ele>183.1</ele>
        <time>2022-06-10T14:42:01Z</time>
      </trkpt>
      <trkpt lat="44.59209" lon="4.39186">
        <ele>183</ele>
        <time>2022-06-10T14:42:02Z</time>
      </trkpt>
      <trkpt lat="44.59203" lon="4.3919">
        <ele>182.9</ele>
        <time>2022-06-10T14:42:03Z</time>
      </trkpt>
      <trkpt lat="44.59197" lon="4.39194">
        <ele>182.9</ele>
        <time>2022-06-10T14:42:04Z</time>
      </trkpt>
      <trkpt lat="44.5919" lon="4.39199">
        <ele>182.8</ele>
        <time>2022-06-10T14:42:05Z</time>
      </trkpt>
      <trkpt lat="44.59184" lon="4.39203">
        <ele>182.7</ele>
        <time>2022-06-10T14:42:06Z</time>
      </trkpt>
      <trkpt lat="44.59177" lon="4.39208">
        <ele>182.6</ele>
        <time>2022-06-10T14:42:07Z</time>
      </trkpt>
      <trkpt lat="44.59171" lon="4.39213">
        <ele>182.6</ele>
        <time>2022-06-10T14:42:08Z</time>
      </trkpt>
      <trkpt lat="44.59166" lon="4.39219">
        <ele>182.6</ele>
        <time>2022-06-10T14:42:09Z</time>
      </trkpt>
      <trkpt lat="44.59161" lon="4.39226">
        <ele>182.6</ele>
        <time>2022-06-10T14:42:10Z</time>
      </trkpt>
      <trkpt lat="44.59156" lon="4.39232">
        <ele>182.7</ele>
        <time>2022-06-10T14:42:11Z</time>
      </trkpt>
      <trkpt lat="44.59151" lon="4.39239">
        <ele>182.7</ele>
        <time>2022-06-10T14:42:12Z</time>
      </trkpt>
      <trkpt lat="44.59146" lon="4.39245">
        <ele>182.6</ele>
        <time>2022-06-10T14:42:13Z</time>
      </trkpt>
      <trkpt lat="44.59141" lon="4.39252">
        <ele>182.6</ele>
        <time>2022-06-10T14:42:14Z</time>
      </trkpt>
      <trkpt lat="44.59137" lon="4.39259">
        <ele>182.6</ele>
        <time>2022-06-10T14:42:15Z</time>
      </trkpt>
      <trkpt lat="44.59133" lon="4.39267">
        <ele>182.6</ele>
        <time>2022-06-10T14:42:16Z</time>
      </trkpt>
      <trkpt lat="44.5913" lon="4.39275">
        <ele>182.5</ele>
        <time>2022-06-10T14:42:17Z</time>
      </trkpt>
      <trkpt lat="44.59126" lon="4.39284">
        <ele>182.5</ele>
        <time>2022-06-10T14:42:18Z</time>
      </trkpt>
      <trkpt lat="44.59123" lon="4.39292">
        <ele>182.5</ele>
        <time>2022-06-10T14:42:19Z</time>
      </trkpt>
      <trkpt lat="44.59119" lon="4.393">
        <ele>182.5</ele>
        <time>2022-06-10T14:42:20Z</time>
      </trkpt>
      <trkpt lat="44.59115" lon="4.39308">
        <ele>182.4</ele>
        <time>2022-06-10T14:42:21Z</time>
      </trkpt>
      <trkpt lat="44.59112" lon="4.39316">
        <ele>182.4</ele>
        <time>2022-06-10T14:42:22Z</time>
      </trkpt>
      <trkpt lat="44.59107" lon="4.39323">
        <ele>182.4</ele>
        <time>2022-06-10T14:42:23Z</time>
      </trkpt>
      <trkpt lat="44.59103" lon="4.39331">
        <ele>182.4</ele>
        <time>2022-06-10T14:42:24Z</time>
      </trkpt>
      <trkpt lat="44.59099" lon="4.39339">
        <ele>182.4</ele>
        <time>2022-06-10T14:42:25Z</time>
      </trkpt>
      <trkpt lat="44.59095" lon="4.39347">
        <ele>182.3</ele>
        <time>2022-06-10T14:42:26Z</time>
      </trkpt>
      <trkpt lat="44.59091" lon="4.39356">
        <ele>182.3</ele>
        <time>2022-06-10T14:42:27Z</time>
      </trkpt>
      <trkpt lat="44.59086" lon="4.39364">
        <ele>182.3</ele>
        <time>2022-06-10T14:42:28Z</time>
      </trkpt>
      <trkpt lat="44.59081" lon="4.39371">
        <ele>182.3</ele>
        <time>2022-06-10T14:42:29Z</time>
      </trkpt>
      <trkpt lat="44.59074" lon="4.39376">
        <ele>182.3</ele>
        <time>2022-06-10T14:42:30Z</time>
      </trkpt>
      <trkpt lat="44.59068" lon="4.3938">
        <ele>182.3</ele>
        <time>2022-06-10T14:42:31Z</time>
      </trkpt>
      <trkpt lat="44.59061" lon="4.39383">
        <ele>182.3</ele>
        <time>2022-06-10T14:42:32Z</time>
      </trkpt>
      <trkpt lat="44.59054" lon="4.39384">
        <ele>182.2</ele>
        <time>2022-06-10T14:42:33Z</time>
      </trkpt>
      <trkpt lat="44.59047" lon="4.39385">
        <ele>182.2</ele>
        <time>2022-06-10T14:42:34Z</time>
      </trkpt>
      <trkpt lat="44.5904" lon="4.39386">
        <ele>182.3</ele>
        <time>2022-06-10T14:42:35Z</time>
      </trkpt>
      <trkpt lat="44.59033" lon="4.39386">
        <ele>182.3</ele>
        <time>2022-06-10T14:42:36Z</time>
      </trkpt>
      <trkpt lat="44.59026" lon="4.39386">
        <ele>182.3</ele>
        <time>2022-06-10T14:42:37Z</time>
      </trkpt>
      <trkpt lat="44.5902" lon="4.39386">
        <ele>182.3</ele>
        <time>2022-06-10T14:42:38Z</time>
      </trkpt>
      <trkpt lat="44.59013" lon="4.39386">
        <ele>182.3</ele>
        <time>2022-06-10T14:42:39Z</time>
      </trkpt>
      <trkpt lat="44.59007" lon="4.39386">
        <ele>182.3</ele>
        <time>2022-06-10T14:42:40Z</time>
      </trkpt>
      <trkpt lat="44.59" lon="4.39385">
        <ele>182.3</ele>
        <time>2022-06-10T14:42:41Z</time>
      </trkpt>
      <trkpt lat="44.58994" lon="4.39384">
        <ele>182.3</ele>
        <time>2022-06-10T14:42:42Z</time>
      </trkpt>
      <trkpt lat="44.58988" lon="4.39383">
        <ele>182.4</ele>
        <time>2022-06-10T14:42:43Z</time>
      </trkpt>
      <trkpt lat="44.58981" lon="4.39383">
        <ele>182.4</ele>
        <time>2022-06-10T14:42:44Z</time>
      </trkpt>
      <trkpt lat="44.58975" lon="4.39383">
        <ele>182.4</ele>
        <time>2022-06-10T14:42:45Z</time>
      </trkpt>
      <trkpt lat="44.58969" lon="4.39382">
        <ele>182.4</ele>
        <time>2022-06-10T14:42:46Z</time>
      </trkpt>
      <trkpt lat="44.58962" lon="4.39382">
        <ele>182.4</ele>
        <time>2022-06-10T14:42:47Z</time>
      </trkpt>
      <trkpt lat="44.58956" lon="4.39382">
        <ele>182.4</ele>
        <time>2022-06-10T14:42:48Z</time>
      </trkpt>
      <trkpt lat="44.58949" lon="4.39381">
        <ele>182.4</ele>
        <time>2022-06-10T14:42:49Z</time>
      </trkpt>
      <trkpt lat="44.58943" lon="4.39381">
        <ele>182.3</ele>
        <time>2022-06-10T14:42:50Z</time>
      </trkpt>
      <trkpt lat="44.58936" lon="4.3938">
        <ele>182.3</ele>
        <time>2022-06-10T14:42:51Z</time>
      </trkpt>
      <trkpt lat="44.58929" lon="4.3938">
        <ele>182.2</ele>
        <time>2022-06-10T14:42:52Z</time>
      </trkpt>
      <trkpt lat="44.58922" lon="4.39379">
        <ele>182.2</ele>
        <time>2022-06-10T14:42:53Z</time>
      </trkpt>
      <trkpt lat="44.58916" lon="4.39379">
        <ele>182.2</ele>
        <time>2022-06-10T14:42:54Z</time>
      </trkpt>
      <trkpt lat="44.58909" lon="4.39378">
        <ele>182.1</ele>
        <time>2022-06-10T14:42:55Z</time>
      </trkpt>
      <trkpt lat="44.58902" lon="4.39377">
        <ele>182.1</ele>
        <time>2022-06-10T14:42:56Z</time>
      </trkpt>
      <trkpt lat="44.58895" lon="4.39375">
        <ele>182.1</ele>
        <time>2022-06-10T14:42:57Z</time>
      </trkpt>
      <trkpt lat="44.58889" lon="4.39374">
        <ele>182.1</ele>
        <time>2022-06-10T14:42:58Z</time>
      </trkpt>
      <trkpt lat="44.58882" lon="4.39373">
        <ele>182</ele>
        <time>2022-06-10T14:42:59Z</time>
      </trkpt>
      <trkpt lat="44.58876" lon="4.39371">
        <ele>182</ele>
        <time>2022-06-10T14:43:00Z</time>
      </trkpt>
      <trkpt lat="44.5887" lon="4.39368">
        <ele>182</ele>
        <time>2022-06-10T14:43:01Z</time>
      </trkpt>
      <trkpt lat="44.58863" lon="4.39367">
        <ele>181.9</ele>
        <time>2022-06-10T14:43:02Z</time>
      </trkpt>
      <trkpt lat="44.58857" lon="4.39366">
        <ele>181.9</ele>
        <time>2022-06-10T14:43:03Z</time>
      </trkpt>
      <trkpt lat="44.58851" lon="4.39365">
        <ele>181.8</ele>
        <time>2022-06-10T14:43:04Z</time>
      </trkpt>
      <trkpt lat="44.58844" lon="4.39364">
        <ele>181.8</ele>
        <time>2022-06-10T14:43:05Z</time>
      </trkpt>
      <trkpt lat="44.58837" lon="4.39363">
        <ele>181.7</ele>
        <time>2022-06-10T14:43:06Z</time>
      </trkpt>
      <trkpt lat="44.5883" lon="4.39363">
        <ele>181.6</ele>
        <time>2022-06-10T14:43:07Z</time>
      </trkpt>
      <trkpt lat="44.58824" lon="4.39363">
        <ele>181.5</ele>
        <time>2022-06-10T14:43:08Z</time>
      </trkpt>
      <trkpt lat="44.58817" lon="4.39362">
        <ele>181.4</ele>
        <time>2022-06-10T14:43:09Z</time>
      </trkpt>
      <trkpt lat="44.58811" lon="4.39362">
        <ele>181.3</ele>
        <time>2022-06-10T14:43:10Z</time>
      </trkpt>
      <trkpt lat="44.58804" lon="4.39362">
        <ele>181.2</ele>
        <time>2022-06-10T14:43:11Z</time>
      </trkpt>
      <trkpt lat="44.58798" lon="4.39361">
        <ele>181.1</ele>
        <time>2022-06-10T14:43:12Z</time>
      </trkpt>
      <trkpt lat="44.58791" lon="4.3936">
        <ele>181</ele>
        <time>2022-06-10T14:43:13Z</time>
      </trkpt>
      <trkpt lat="44.58783" lon="4.39359">
        <ele>180.9</ele>
        <time>2022-06-10T14:43:14Z</time>
      </trkpt>
      <trkpt lat="44.58777" lon="4.39359">
        <ele>180.9</ele>
        <time>2022-06-10T14:43:15Z</time>
      </trkpt>
      <trkpt lat="44.5877" lon="4.3936">
        <ele>180.8</ele>
        <time>2022-06-10T14:43:16Z</time>
      </trkpt>
      <trkpt lat="44.58763" lon="4.39359">
        <ele>180.8</ele>
        <time>2022-06-10T14:43:17Z</time>
      </trkpt>
      <trkpt lat="44.58755" lon="4.39359">
        <ele>180.7</ele>
        <time>2022-06-10T14:43:18Z</time>
      </trkpt>
      <trkpt lat="44.58748" lon="4.39359">
        <ele>180.7</ele>
        <time>2022-06-10T14:43:19Z</time>
      </trkpt>
      <trkpt lat="44.58741" lon="4.39358">
        <ele>180.7</ele>
        <time>2022-06-10T14:43:20Z</time>
      </trkpt>
      <trkpt lat="44.58733" lon="4.39358">
        <ele>180.6</ele>
        <time>2022-06-10T14:43:21Z</time>
      </trkpt>
      <trkpt lat="44.58726" lon="4.39358">
        <ele>180.6</ele>
        <time>2022-06-10T14:43:22Z</time>
      </trkpt>
      <trkpt lat="44.58718" lon="4.39358">
        <ele>180.5</ele>
        <time>2022-06-10T14:43:23Z</time>
      </trkpt>
      <trkpt lat="44.58711" lon="4.39358">
        <ele>180.5</ele>
        <time>2022-06-10T14:43:24Z</time>
      </trkpt>
      <trkpt lat="44.58704" lon="4.39357">
        <ele>180.5</ele>
        <time>2022-06-10T14:43:25Z</time>
      </trkpt>
      <trkpt lat="44.58696" lon="4.39357">
        <ele>180.5</ele>
        <time>2022-06-10T14:43:26Z</time>
      </trkpt>
      <trkpt lat="44.58689" lon="4.39356">
        <ele>180.5</ele>
        <time>2022-06-10T14:43:27Z</time>
      </trkpt>
      <trkpt lat="44.58682" lon="4.39353">
        <ele>180.5</ele>
        <time>2022-06-10T14:43:28Z</time>
      </trkpt>
      <trkpt lat="44.58675" lon="4.39351">
        <ele>180.5</ele>
        <time>2022-06-10T14:43:29Z</time>
      </trkpt>
      <trkpt lat="44.58668" lon="4.39349">
        <ele>180.5</ele>
        <time>2022-06-10T14:43:30Z</time>
      </trkpt>
      <trkpt lat="44.58661" lon="4.39347">
        <ele>180.5</ele>
        <time>2022-06-10T14:43:31Z</time>
      </trkpt>
      <trkpt lat="44.58655" lon="4.39344">
        <ele>180.5</ele>
        <time>2022-06-10T14:43:32Z</time>
      </trkpt>
      <trkpt lat="44.58648" lon="4.39342">
        <ele>180.5</ele>
        <time>2022-06-10T14:43:33Z</time>
      </trkpt>
      <trkpt lat="44.58642" lon="4.39339">
        <ele>180.4</ele>
        <time>2022-06-10T14:43:34Z</time>
      </trkpt>
      <trkpt lat="44.58635" lon="4.39337">
        <ele>180.4</ele>
        <time>2022-06-10T14:43:35Z</time>
      </trkpt>
      <trkpt lat="44.58629" lon="4.39334">
        <ele>180.3</ele>
        <time>2022-06-10T14:43:36Z</time>
      </trkpt>
      <trkpt lat="44.58622" lon="4.39331">
        <ele>180.2</ele>
        <time>2022-06-10T14:43:37Z</time>
      </trkpt>
      <trkpt lat="44.58616" lon="4.39329">
        <ele>180.1</ele>
        <time>2022-06-10T14:43:38Z</time>
      </trkpt>
      <trkpt lat="44.58609" lon="4.39326">
        <ele>179.9</ele>
        <time>2022-06-10T14:43:39Z</time>
      </trkpt>
      <trkpt lat="44.58602" lon="4.39323">
        <ele>179.8</ele>
        <time>2022-06-10T14:43:40Z</time>
      </trkpt>
      <trkpt lat="44.58595" lon="4.39321">
        <ele>179.7</ele>
        <time>2022-06-10T14:43:41Z</time>
      </trkpt>
      <trkpt lat="44.58588" lon="4.39318">
        <ele>179.5</ele>
        <time>2022-06-10T14:43:42Z</time>
      </trkpt>
      <trkpt lat="44.58581" lon="4.39316">
        <ele>179.4</ele>
        <time>2022-06-10T14:43:43Z</time>
      </trkpt>
      <trkpt lat="44.58574" lon="4.39313">
        <ele>179.2</ele>
        <time>2022-06-10T14:43:44Z</time>
      </trkpt>
      <trkpt lat="44.58567" lon="4.39311">
        <ele>179.1</ele>
        <time>2022-06-10T14:43:45Z</time>
      </trkpt>
      <trkpt lat="44.5856" lon="4.39308">
        <ele>179</ele>
        <time>2022-06-10T14:43:46Z</time>
      </trkpt>
      <trkpt lat="44.58552" lon="4.39305">
        <ele>178.8</ele>
        <time>2022-06-10T14:43:47Z</time>
      </trkpt>
      <trkpt lat="44.58545" lon="4.39303">
        <ele>178.7</ele>
        <time>2022-06-10T14:43:48Z</time>
      </trkpt>
      <trkpt lat="44.58538" lon="4.393">
        <ele>178.6</ele>
        <time>2022-06-10T14:43:49Z</time>
      </trkpt>
      <trkpt lat="44.5853" lon="4.39297">
        <ele>178.4</ele>
        <time>2022-06-10T14:43:50Z</time>
      </trkpt>
      <trkpt lat="44.58522" lon="4.39295">
        <ele>178.3</ele>
        <time>2022-06-10T14:43:51Z</time>
      </trkpt>
      <trkpt lat="44.58515" lon="4.39292">
        <ele>178.2</ele>
        <time>2022-06-10T14:43:52Z</time>
      </trkpt>
      <trkpt lat="44.58508" lon="4.3929">
        <ele>178.1</ele>
        <time>2022-06-10T14:43:53Z</time>
      </trkpt>
      <trkpt lat="44.585" lon="4.39287">
        <ele>178</ele>
        <time>2022-06-10T14:43:54Z</time>
      </trkpt>
      <trkpt lat="44.58492" lon="4.39285">
        <ele>177.9</ele>
        <time>2022-06-10T14:43:55Z</time>
      </trkpt>
      <trkpt lat="44.58484" lon="4.39282">
        <ele>177.8</ele>
        <time>2022-06-10T14:43:56Z</time>
      </trkpt>
      <trkpt lat="44.58477" lon="4.39279">
        <ele>177.7</ele>
        <time>2022-06-10T14:43:57Z</time>
      </trkpt>
      <trkpt lat="44.58469" lon="4.39275">
        <ele>177.7</ele>
        <time>2022-06-10T14:43:58Z</time>
      </trkpt>
      <trkpt lat="44.58461" lon="4.39272">
        <ele>177.6</ele>
        <time>2022-06-10T14:43:59Z</time>
      </trkpt>
      <trkpt lat="44.58454" lon="4.39269">
        <ele>177.6</ele>
        <time>2022-06-10T14:44:00Z</time>
      </trkpt>
      <trkpt lat="44.58446" lon="4.39266">
        <ele>177.6</ele>
        <time>2022-06-10T14:44:01Z</time>
      </trkpt>
      <trkpt lat="44.58438" lon="4.39263">
        <ele>177.6</ele>
        <time>2022-06-10T14:44:02Z</time>
      </trkpt>
      <trkpt lat="44.5843" lon="4.39261">
        <ele>177.7</ele>
        <time>2022-06-10T14:44:03Z</time>
      </trkpt>
      <trkpt lat="44.58423" lon="4.39258">
        <ele>177.7</ele>
        <time>2022-06-10T14:44:04Z</time>
      </trkpt>
      <trkpt lat="44.58415" lon="4.39256">
        <ele>177.7</ele>
        <time>2022-06-10T14:44:05Z</time>
      </trkpt>
      <trkpt lat="44.58408" lon="4.39254">
        <ele>177.7</ele>
        <time>2022-06-10T14:44:06Z</time>
      </trkpt>
      <trkpt lat="44.584" lon="4.39252">
        <ele>177.7</ele>
        <time>2022-06-10T14:44:07Z</time>
      </trkpt>
      <trkpt lat="44.58393" lon="4.3925">
        <ele>177.8</ele>
        <time>2022-06-10T14:44:08Z</time>
      </trkpt>
      <trkpt lat="44.58387" lon="4.39248">
        <ele>177.8</ele>
        <time>2022-06-10T14:44:09Z</time>
      </trkpt>
      <trkpt lat="44.5838" lon="4.39247">
        <ele>177.8</ele>
        <time>2022-06-10T14:44:10Z</time>
      </trkpt>
      <trkpt lat="44.58373" lon="4.39245">
        <ele>177.8</ele>
        <time>2022-06-10T14:44:11Z</time>
      </trkpt>
      <trkpt lat="44.58366" lon="4.39243">
        <ele>177.8</ele>
        <time>2022-06-10T14:44:12Z</time>
      </trkpt>
      <trkpt lat="44.5836" lon="4.39242">
        <ele>177.9</ele>
        <time>2022-06-10T14:44:13Z</time>
      </trkpt>
      <trkpt lat="44.58353" lon="4.39241">
        <ele>177.9</ele>
        <time>2022-06-10T14:44:14Z</time>
      </trkpt>
      <trkpt lat="44.58347" lon="4.39239">
        <ele>178</ele>
        <time>2022-06-10T14:44:15Z</time>
      </trkpt>
      <trkpt lat="44.58341" lon="4.39238">
        <ele>178</ele>
        <time>2022-06-10T14:44:16Z</time>
      </trkpt>
      <trkpt lat="44.58334" lon="4.39237">
        <ele>178</ele>
        <time>2022-06-10T14:44:17Z</time>
      </trkpt>
      <trkpt lat="44.58328" lon="4.39236">
        <ele>178.1</ele>
        <time>2022-06-10T14:44:18Z</time>
      </trkpt>
      <trkpt lat="44.58323" lon="4.39235">
        <ele>178.1</ele>
        <time>2022-06-10T14:44:19Z</time>
      </trkpt>
      <trkpt lat="44.58317" lon="4.39233">
        <ele>178.2</ele>
        <time>2022-06-10T14:44:20Z</time>
      </trkpt>
      <trkpt lat="44.58311" lon="4.39231">
        <ele>178.2</ele>
        <time>2022-06-10T14:44:21Z</time>
      </trkpt>
      <trkpt lat="44.58305" lon="4.3923">
        <ele>178.2</ele>
        <time>2022-06-10T14:44:22Z</time>
      </trkpt>
      <trkpt lat="44.58299" lon="4.39228">
        <ele>178.3</ele>
        <time>2022-06-10T14:44:23Z</time>
      </trkpt>
      <trkpt lat="44.58293" lon="4.39226">
        <ele>178.3</ele>
        <time>2022-06-10T14:44:24Z</time>
      </trkpt>
      <trkpt lat="44.58287" lon="4.39224">
        <ele>178.3</ele>
        <time>2022-06-10T14:44:25Z</time>
      </trkpt>
      <trkpt lat="44.58281" lon="4.39223">
        <ele>178.4</ele>
        <time>2022-06-10T14:44:26Z</time>
      </trkpt>
      <trkpt lat="44.58275" lon="4.39222">
        <ele>178.4</ele>
        <time>2022-06-10T14:44:27Z</time>
      </trkpt>
      <trkpt lat="44.58269" lon="4.39221">
        <ele>178.4</ele>
        <time>2022-06-10T14:44:28Z</time>
      </trkpt>
      <trkpt lat="44.58263" lon="4.3922">
        <ele>178.5</ele>
        <time>2022-06-10T14:44:29Z</time>
      </trkpt>
      <trkpt lat="44.58258" lon="4.39219">
        <ele>178.5</ele>
        <time>2022-06-10T14:44:30Z</time>
      </trkpt>
      <trkpt lat="44.58252" lon="4.39217">
        <ele>178.5</ele>
        <time>2022-06-10T14:44:31Z</time>
      </trkpt>
      <trkpt lat="44.58246" lon="4.39216">
        <ele>178.5</ele>
        <time>2022-06-10T14:44:32Z</time>
      </trkpt>
      <trkpt lat="44.5824" lon="4.39215">
        <ele>178.5</ele>
        <time>2022-06-10T14:44:33Z</time>
      </trkpt>
      <trkpt lat="44.58234" lon="4.39214">
        <ele>178.5</ele>
        <time>2022-06-10T14:44:34Z</time>
      </trkpt>
      <trkpt lat="44.58228" lon="4.39213">
        <ele>178.6</ele>
        <time>2022-06-10T14:44:35Z</time>
      </trkpt>
      <trkpt lat="44.58222" lon="4.39211">
        <ele>178.6</ele>
        <time>2022-06-10T14:44:36Z</time>
      </trkpt>
      <trkpt lat="44.58216" lon="4.3921">
        <ele>178.6</ele>
        <time>2022-06-10T14:44:37Z</time>
      </trkpt>
      <trkpt lat="44.58211" lon="4.39209">
        <ele>178.5</ele>
        <time>2022-06-10T14:44:38Z</time>
      </trkpt>
      <trkpt lat="44.58205" lon="4.39207">
        <ele>178.5</ele>
        <time>2022-06-10T14:44:39Z</time>
      </trkpt>
      <trkpt lat="44.58199" lon="4.39206">
        <ele>178.4</ele>
        <time>2022-06-10T14:44:40Z</time>
      </trkpt>
      <trkpt lat="44.58192" lon="4.39205">
        <ele>178.3</ele>
        <time>2022-06-10T14:44:41Z</time>
      </trkpt>
      <trkpt lat="44.58186" lon="4.39203">
        <ele>178.2</ele>
        <time>2022-06-10T14:44:42Z</time>
      </trkpt>
      <trkpt lat="44.5818" lon="4.39202">
        <ele>178.1</ele>
        <time>2022-06-10T14:44:43Z</time>
      </trkpt>
      <trkpt lat="44.58173" lon="4.392">
        <ele>178</ele>
        <time>2022-06-10T14:44:44Z</time>
      </trkpt>
      <trkpt lat="44.58167" lon="4.39198">
        <ele>177.9</ele>
        <time>2022-06-10T14:44:45Z</time>
      </trkpt>
      <trkpt lat="44.5816" lon="4.39196">
        <ele>177.8</ele>
        <time>2022-06-10T14:44:46Z</time>
      </trkpt>
      <trkpt lat="44.58153" lon="4.39194">
        <ele>177.7</ele>
        <time>2022-06-10T14:44:47Z</time>
      </trkpt>
      <trkpt lat="44.58147" lon="4.39192">
        <ele>177.6</ele>
        <time>2022-06-10T14:44:48Z</time>
      </trkpt>
      <trkpt lat="44.5814" lon="4.3919">
        <ele>177.5</ele>
        <time>2022-06-10T14:44:49Z</time>
      </trkpt>
      <trkpt lat="44.58133" lon="4.39187">
        <ele>177.3</ele>
        <time>2022-06-10T14:44:50Z</time>
      </trkpt>
      <trkpt lat="44.58125" lon="4.39185">
        <ele>177.1</ele>
        <time>2022-06-10T14:44:51Z</time>
      </trkpt>
      <trkpt lat="44.58118" lon="4.39182">
        <ele>176.9</ele>
        <time>2022-06-10T14:44:52Z</time>
      </trkpt>
      <trkpt lat="44.58111" lon="4.3918">
        <ele>176.8</ele>
        <time>2022-06-10T14:44:53Z</time>
      </trkpt>
      <trkpt lat="44.58103" lon="4.39178">
        <ele>176.6</ele>
        <time>2022-06-10T14:44:54Z</time>
      </trkpt>
      <trkpt lat="44.58094" lon="4.39176">
        <ele>176.4</ele>
        <time>2022-06-10T14:44:55Z</time>
      </trkpt>
      <trkpt lat="44.58086" lon="4.39173">
        <ele>176.2</ele>
        <time>2022-06-10T14:44:56Z</time>
      </trkpt>
      <trkpt lat="44.58078" lon="4.39171">
        <ele>176.1</ele>
        <time>2022-06-10T14:44:57Z</time>
      </trkpt>
      <trkpt lat="44.58069" lon="4.39169">
        <ele>175.9</ele>
        <time>2022-06-10T14:44:58Z</time>
      </trkpt>
      <trkpt lat="44.58061" lon="4.39168">
        <ele>175.8</ele>
        <time>2022-06-10T14:44:59Z</time>
      </trkpt>
      <trkpt lat="44.58053" lon="4.39167">
        <ele>175.6</ele>
        <time>2022-06-10T14:45:00Z</time>
      </trkpt>
      <trkpt lat="44.58044" lon="4.39168">
        <ele>175.5</ele>
        <time>2022-06-10T14:45:01Z</time>
      </trkpt>
      <trkpt lat="44.58035" lon="4.3917">
        <ele>175.3</ele>
        <time>2022-06-10T14:45:02Z</time>
      </trkpt>
      <trkpt lat="44.58027" lon="4.39171">
        <ele>175.2</ele>
        <time>2022-06-10T14:45:03Z</time>
      </trkpt>
      <trkpt lat="44.58018" lon="4.39173">
        <ele>175</ele>
        <time>2022-06-10T14:45:04Z</time>
      </trkpt>
      <trkpt lat="44.5801" lon="4.39174">
        <ele>174.9</ele>
        <time>2022-06-10T14:45:05Z</time>
      </trkpt>
      <trkpt lat="44.58001" lon="4.39175">
        <ele>174.8</ele>
        <time>2022-06-10T14:45:06Z</time>
      </trkpt>
      <trkpt lat="44.57993" lon="4.39176">
        <ele>174.7</ele>
        <time>2022-06-10T14:45:07Z</time>
      </trkpt>
      <trkpt lat="44.57985" lon="4.39176">
        <ele>174.5</ele>
        <time>2022-06-10T14:45:08Z</time>
      </trkpt>
      <trkpt lat="44.57976" lon="4.39177">
        <ele>174.4</ele>
        <time>2022-06-10T14:45:09Z</time>
      </trkpt>
      <trkpt lat="44.57968" lon="4.39179">
        <ele>174.3</ele>
        <time>2022-06-10T14:45:10Z</time>
      </trkpt>
      <trkpt lat="44.57959" lon="4.3918">
        <ele>174.2</ele>
        <time>2022-06-10T14:45:11Z</time>
      </trkpt>
      <trkpt lat="44.57951" lon="4.3918">
        <ele>174.1</ele>
        <time>2022-06-10T14:45:12Z</time>
      </trkpt>
      <trkpt lat="44.57944" lon="4.39181">
        <ele>174</ele>
        <time>2022-06-10T14:45:13Z</time>
      </trkpt>
      <trkpt lat="44.57936" lon="4.39182">
        <ele>174</ele>
        <time>2022-06-10T14:45:14Z</time>
      </trkpt>
      <trkpt lat="44.57928" lon="4.39183">
        <ele>173.9</ele>
        <time>2022-06-10T14:45:15Z</time>
      </trkpt>
      <trkpt lat="44.5792" lon="4.39185">
        <ele>173.7</ele>
        <time>2022-06-10T14:45:16Z</time>
      </trkpt>
      <trkpt lat="44.57912" lon="4.39187">
        <ele>173.6</ele>
        <time>2022-06-10T14:45:17Z</time>
      </trkpt>
      <trkpt lat="44.57904" lon="4.39188">
        <ele>173.5</ele>
        <time>2022-06-10T14:45:18Z</time>
      </trkpt>
      <trkpt lat="44.57896" lon="4.3919">
        <ele>173.4</ele>
        <time>2022-06-10T14:45:19Z</time>
      </trkpt>
      <trkpt lat="44.57888" lon="4.39191">
        <ele>173.2</ele>
        <time>2022-06-10T14:45:20Z</time>
      </trkpt>
      <trkpt lat="44.5788" lon="4.39192">
        <ele>173.1</ele>
        <time>2022-06-10T14:45:21Z</time>
      </trkpt>
      <trkpt lat="44.57872" lon="4.39193">
        <ele>173</ele>
        <time>2022-06-10T14:45:22Z</time>
      </trkpt>
      <trkpt lat="44.57864" lon="4.39194">
        <ele>172.9</ele>
        <time>2022-06-10T14:45:23Z</time>
      </trkpt>
      <trkpt lat="44.57856" lon="4.39195">
        <ele>172.8</ele>
        <time>2022-06-10T14:45:24Z</time>
      </trkpt>
      <trkpt lat="44.57848" lon="4.39196">
        <ele>172.7</ele>
        <time>2022-06-10T14:45:25Z</time>
      </trkpt>
      <trkpt lat="44.5784" lon="4.39197">
        <ele>172.6</ele>
        <time>2022-06-10T14:45:26Z</time>
      </trkpt>
      <trkpt lat="44.57832" lon="4.39198">
        <ele>172.5</ele>
        <time>2022-06-10T14:45:27Z</time>
      </trkpt>
      <trkpt lat="44.57824" lon="4.39198">
        <ele>172.4</ele>
        <time>2022-06-10T14:45:28Z</time>
      </trkpt>
      <trkpt lat="44.57816" lon="4.39199">
        <ele>172.4</ele>
        <time>2022-06-10T14:45:29Z</time>
      </trkpt>
      <trkpt lat="44.57809" lon="4.392">
        <ele>172.3</ele>
        <time>2022-06-10T14:45:30Z</time>
      </trkpt>
      <trkpt lat="44.57801" lon="4.39201">
        <ele>172.3</ele>
        <time>2022-06-10T14:45:31Z</time>
      </trkpt>
      <trkpt lat="44.57793" lon="4.39201">
        <ele>172.2</ele>
        <time>2022-06-10T14:45:32Z</time>
      </trkpt>
      <trkpt lat="44.57785" lon="4.39201">
        <ele>172.2</ele>
        <time>2022-06-10T14:45:33Z</time>
      </trkpt>
      <trkpt lat="44.57777" lon="4.39199">
        <ele>172.2</ele>
        <time>2022-06-10T14:45:34Z</time>
      </trkpt>
      <trkpt lat="44.57769" lon="4.39196">
        <ele>172.2</ele>
        <time>2022-06-10T14:45:35Z</time>
      </trkpt>
      <trkpt lat="44.57762" lon="4.39193">
        <ele>172.2</ele>
        <time>2022-06-10T14:45:36Z</time>
      </trkpt>
      <trkpt lat="44.57755" lon="4.3919">
        <ele>172.2</ele>
        <time>2022-06-10T14:45:37Z</time>
      </trkpt>
      <trkpt lat="44.57747" lon="4.39187">
        <ele>172.3</ele>
        <time>2022-06-10T14:45:38Z</time>
      </trkpt>
      <trkpt lat="44.5774" lon="4.39184">
        <ele>172.4</ele>
        <time>2022-06-10T14:45:39Z</time>
      </trkpt>
      <trkpt lat="44.57733" lon="4.39181">
        <ele>172.4</ele>
        <time>2022-06-10T14:45:40Z</time>
      </trkpt>
      <trkpt lat="44.57726" lon="4.39178">
        <ele>172.5</ele>
        <time>2022-06-10T14:45:41Z</time>
      </trkpt>
      <trkpt lat="44.57719" lon="4.39177">
        <ele>172.5</ele>
        <time>2022-06-10T14:45:42Z</time>
      </trkpt>
      <trkpt lat="44.57712" lon="4.39176">
        <ele>172.5</ele>
        <time>2022-06-10T14:45:43Z</time>
      </trkpt>
      <trkpt lat="44.57705" lon="4.39176">
        <ele>172.5</ele>
        <time>2022-06-10T14:45:44Z</time>
      </trkpt>
      <trkpt lat="44.57698" lon="4.39177">
        <ele>172.6</ele>
        <time>2022-06-10T14:45:45Z</time>
      </trkpt>
      <trkpt lat="44.57692" lon="4.39179">
        <ele>172.6</ele>
        <time>2022-06-10T14:45:46Z</time>
      </trkpt>
      <trkpt lat="44.57686" lon="4.39181">
        <ele>172.6</ele>
        <time>2022-06-10T14:45:47Z</time>
      </trkpt>
      <trkpt lat="44.57679" lon="4.39184">
        <ele>172.6</ele>
        <time>2022-06-10T14:45:48Z</time>
      </trkpt>
      <trkpt lat="44.57673" lon="4.39188">
        <ele>172.7</ele>
        <time>2022-06-10T14:45:49Z</time>
      </trkpt>
      <trkpt lat="44.57668" lon="4.39192">
        <ele>172.7</ele>
        <time>2022-06-10T14:45:50Z</time>
      </trkpt>
      <trkpt lat="44.57662" lon="4.39195">
        <ele>172.7</ele>
        <time>2022-06-10T14:45:51Z</time>
      </trkpt>
      <trkpt lat="44.57657" lon="4.39199">
        <ele>172.7</ele>
        <time>2022-06-10T14:45:52Z</time>
      </trkpt>
      <trkpt lat="44.57651" lon="4.39202">
        <ele>172.7</ele>
        <time>2022-06-10T14:45:53Z</time>
      </trkpt>
      <trkpt lat="44.57644" lon="4.39205">
        <ele>172.8</ele>
        <time>2022-06-10T14:45:54Z</time>
      </trkpt>
      <trkpt lat="44.57638" lon="4.39208">
        <ele>172.8</ele>
        <time>2022-06-10T14:45:55Z</time>
      </trkpt>
      <trkpt lat="44.57632" lon="4.39212">
        <ele>172.8</ele>
        <time>2022-06-10T14:45:56Z</time>
      </trkpt>
      <trkpt lat="44.57625" lon="4.39215">
        <ele>172.8</ele>
        <time>2022-06-10T14:45:57Z</time>
      </trkpt>
      <trkpt lat="44.57619" lon="4.39219">
        <ele>172.9</ele>
        <time>2022-06-10T14:45:58Z</time>
      </trkpt>
      <trkpt lat="44.57614" lon="4.39223">
        <ele>172.9</ele>
        <time>2022-06-10T14:45:59Z</time>
      </trkpt>
      <trkpt lat="44.57609" lon="4.39227">
        <ele>172.9</ele>
        <time>2022-06-10T14:46:00Z</time>
      </trkpt>
      <trkpt lat="44.57604" lon="4.3923">
        <ele>172.9</ele>
        <time>2022-06-10T14:46:01Z</time>
      </trkpt>
      <trkpt lat="44.57598" lon="4.39233">
        <ele>173</ele>
        <time>2022-06-10T14:46:02Z</time>
      </trkpt>
      <trkpt lat="44.57592" lon="4.39236">
        <ele>173</ele>
        <time>2022-06-10T14:46:03Z</time>
      </trkpt>
      <trkpt lat="44.57586" lon="4.39239">
        <ele>173</ele>
        <time>2022-06-10T14:46:04Z</time>
      </trkpt>
      <trkpt lat="44.5758" lon="4.39241">
        <ele>173</ele>
        <time>2022-06-10T14:46:05Z</time>
      </trkpt>
      <trkpt lat="44.57575" lon="4.39244">
        <ele>173</ele>
        <time>2022-06-10T14:46:06Z</time>
      </trkpt>
      <trkpt lat="44.57569" lon="4.39248">
        <ele>173</ele>
        <time>2022-06-10T14:46:07Z</time>
      </trkpt>
      <trkpt lat="44.57564" lon="4.39251">
        <ele>173</ele>
        <time>2022-06-10T14:46:08Z</time>
      </trkpt>
      <trkpt lat="44.57559" lon="4.39254">
        <ele>173.1</ele>
        <time>2022-06-10T14:46:09Z</time>
      </trkpt>
      <trkpt lat="44.57554" lon="4.39258">
        <ele>173.1</ele>
        <time>2022-06-10T14:46:10Z</time>
      </trkpt>
      <trkpt lat="44.57548" lon="4.39262">
        <ele>173.1</ele>
        <time>2022-06-10T14:46:11Z</time>
      </trkpt>
      <trkpt lat="44.57542" lon="4.39265">
        <ele>173.1</ele>
        <time>2022-06-10T14:46:12Z</time>
      </trkpt>
      <trkpt lat="44.57536" lon="4.39268">
        <ele>173.2</ele>
        <time>2022-06-10T14:46:13Z</time>
      </trkpt>
      <trkpt lat="44.57531" lon="4.39271">
        <ele>173.2</ele>
        <time>2022-06-10T14:46:14Z</time>
      </trkpt>
      <trkpt lat="44.57525" lon="4.39274">
        <ele>173.2</ele>
        <time>2022-06-10T14:46:15Z</time>
      </trkpt>
      <trkpt lat="44.57519" lon="4.39277">
        <ele>173.2</ele>
        <time>2022-06-10T14:46:16Z</time>
      </trkpt>
      <trkpt lat="44.57513" lon="4.39279">
        <ele>173.3</ele>
        <time>2022-06-10T14:46:17Z</time>
      </trkpt>
      <trkpt lat="44.57507" lon="4.39281">
        <ele>173.3</ele>
        <time>2022-06-10T14:46:18Z</time>
      </trkpt>
      <trkpt lat="44.57502" lon="4.39284">
        <ele>173.3</ele>
        <time>2022-06-10T14:46:19Z</time>
      </trkpt>
      <trkpt lat="44.57496" lon="4.39285">
        <ele>173.3</ele>
        <time>2022-06-10T14:46:20Z</time>
      </trkpt>
      <trkpt lat="44.5749" lon="4.39288">
        <ele>173.4</ele>
        <time>2022-06-10T14:46:21Z</time>
      </trkpt>
      <trkpt lat="44.57484" lon="4.39288">
        <ele>173.4</ele>
        <time>2022-06-10T14:46:22Z</time>
      </trkpt>
      <trkpt lat="44.57478" lon="4.39289">
        <ele>173.4</ele>
        <time>2022-06-10T14:46:23Z</time>
      </trkpt>
      <trkpt lat="44.57472" lon="4.3929">
        <ele>173.4</ele>
        <time>2022-06-10T14:46:24Z</time>
      </trkpt>
      <trkpt lat="44.57466" lon="4.3929">
        <ele>173.5</ele>
        <time>2022-06-10T14:46:25Z</time>
      </trkpt>
      <trkpt lat="44.5746" lon="4.39291">
        <ele>173.5</ele>
        <time>2022-06-10T14:46:26Z</time>
      </trkpt>
      <trkpt lat="44.57455" lon="4.3929">
        <ele>173.5</ele>
        <time>2022-06-10T14:46:27Z</time>
      </trkpt>
      <trkpt lat="44.57448" lon="4.3929">
        <ele>173.6</ele>
        <time>2022-06-10T14:46:28Z</time>
      </trkpt>
      <trkpt lat="44.57443" lon="4.3929">
        <ele>173.6</ele>
        <time>2022-06-10T14:46:29Z</time>
      </trkpt>
      <trkpt lat="44.57437" lon="4.39289">
        <ele>173.6</ele>
        <time>2022-06-10T14:46:30Z</time>
      </trkpt>
      <trkpt lat="44.57431" lon="4.39288">
        <ele>173.6</ele>
        <time>2022-06-10T14:46:31Z</time>
      </trkpt>
      <trkpt lat="44.57426" lon="4.39287">
        <ele>173.6</ele>
        <time>2022-06-10T14:46:32Z</time>
      </trkpt>
      <trkpt lat="44.5742" lon="4.39286">
        <ele>173.7</ele>
        <time>2022-06-10T14:46:33Z</time>
      </trkpt>
      <trkpt lat="44.57414" lon="4.39285">
        <ele>173.7</ele>
        <time>2022-06-10T14:46:34Z</time>
      </trkpt>
      <trkpt lat="44.57409" lon="4.39284">
        <ele>173.7</ele>
        <time>2022-06-10T14:46:35Z</time>
      </trkpt>
      <trkpt lat="44.57404" lon="4.39283">
        <ele>173.8</ele>
        <time>2022-06-10T14:46:36Z</time>
      </trkpt>
      <trkpt lat="44.57398" lon="4.39282">
        <ele>173.8</ele>
        <time>2022-06-10T14:46:37Z</time>
      </trkpt>
      <trkpt lat="44.57392" lon="4.3928">
        <ele>173.8</ele>
        <time>2022-06-10T14:46:38Z</time>
      </trkpt>
      <trkpt lat="44.57387" lon="4.39279">
        <ele>173.9</ele>
        <time>2022-06-10T14:46:39Z</time>
      </trkpt>
      <trkpt lat="44.57381" lon="4.39278">
        <ele>173.9</ele>
        <time>2022-06-10T14:46:40Z</time>
      </trkpt>
      <trkpt lat="44.57376" lon="4.39276">
        <ele>174</ele>
        <time>2022-06-10T14:46:41Z</time>
      </trkpt>
      <trkpt lat="44.5737" lon="4.39275">
        <ele>174</ele>
        <time>2022-06-10T14:46:42Z</time>
      </trkpt>
      <trkpt lat="44.57365" lon="4.39274">
        <ele>174.1</ele>
        <time>2022-06-10T14:46:43Z</time>
      </trkpt>
      <trkpt lat="44.5736" lon="4.39273">
        <ele>174.1</ele>
        <time>2022-06-10T14:46:44Z</time>
      </trkpt>
      <trkpt lat="44.57354" lon="4.39273">
        <ele>174.1</ele>
        <time>2022-06-10T14:46:45Z</time>
      </trkpt>
      <trkpt lat="44.57349" lon="4.39272">
        <ele>174.2</ele>
        <time>2022-06-10T14:46:46Z</time>
      </trkpt>
      <trkpt lat="44.57343" lon="4.3927">
        <ele>174.2</ele>
        <time>2022-06-10T14:46:47Z</time>
      </trkpt>
      <trkpt lat="44.57337" lon="4.3927">
        <ele>174.2</ele>
        <time>2022-06-10T14:46:48Z</time>
      </trkpt>
      <trkpt lat="44.57331" lon="4.39269">
        <ele>174.3</ele>
        <time>2022-06-10T14:46:49Z</time>
      </trkpt>
      <trkpt lat="44.57325" lon="4.39269">
        <ele>174.3</ele>
        <time>2022-06-10T14:46:50Z</time>
      </trkpt>
      <trkpt lat="44.5732" lon="4.39268">
        <ele>174.3</ele>
        <time>2022-06-10T14:46:51Z</time>
      </trkpt>
      <trkpt lat="44.57315" lon="4.39266">
        <ele>174.4</ele>
        <time>2022-06-10T14:46:52Z</time>
      </trkpt>
      <trkpt lat="44.57309" lon="4.39265">
        <ele>174.4</ele>
        <time>2022-06-10T14:46:53Z</time>
      </trkpt>
      <trkpt lat="44.57304" lon="4.39265">
        <ele>174.4</ele>
        <time>2022-06-10T14:46:54Z</time>
      </trkpt>
      <trkpt lat="44.57298" lon="4.39264">
        <ele>174.5</ele>
        <time>2022-06-10T14:46:55Z</time>
      </trkpt>
      <trkpt lat="44.57293" lon="4.39262">
        <ele>174.5</ele>
        <time>2022-06-10T14:46:56Z</time>
      </trkpt>
      <trkpt lat="44.57287" lon="4.39261">
        <ele>174.6</ele>
        <time>2022-06-10T14:46:57Z</time>
      </trkpt>
      <trkpt lat="44.57282" lon="4.3926">
        <ele>174.7</ele>
        <time>2022-06-10T14:46:58Z</time>
      </trkpt>
      <trkpt lat="44.57276" lon="4.39259">
        <ele>174.7</ele>
        <time>2022-06-10T14:46:59Z</time>
      </trkpt>
      <trkpt lat="44.57271" lon="4.39258">
        <ele>174.7</ele>
        <time>2022-06-10T14:47:00Z</time>
      </trkpt>
      <trkpt lat="44.57265" lon="4.39257">
        <ele>174.8</ele>
        <time>2022-06-10T14:47:01Z</time>
      </trkpt>
      <trkpt lat="44.5726" lon="4.39256">
        <ele>174.8</ele>
        <time>2022-06-10T14:47:02Z</time>
      </trkpt>
      <trkpt lat="44.57254" lon="4.39255">
        <ele>174.8</ele>
        <time>2022-06-10T14:47:03Z</time>
      </trkpt>
      <trkpt lat="44.57249" lon="4.39255">
        <ele>174.8</ele>
        <time>2022-06-10T14:47:04Z</time>
      </trkpt>
      <trkpt lat="44.57243" lon="4.39255">
        <ele>174.9</ele>
        <time>2022-06-10T14:47:05Z</time>
      </trkpt>
      <trkpt lat="44.57237" lon="4.39255">
        <ele>174.9</ele>
        <time>2022-06-10T14:47:06Z</time>
      </trkpt>
      <trkpt lat="44.57231" lon="4.39255">
        <ele>174.9</ele>
        <time>2022-06-10T14:47:07Z</time>
      </trkpt>
      <trkpt lat="44.57225" lon="4.39256">
        <ele>175</ele>
        <time>2022-06-10T14:47:08Z</time>
      </trkpt>
      <trkpt lat="44.57219" lon="4.39256">
        <ele>175</ele>
        <time>2022-06-10T14:47:09Z</time>
      </trkpt>
      <trkpt lat="44.57213" lon="4.39255">
        <ele>175</ele>
        <time>2022-06-10T14:47:10Z</time>
      </trkpt>
      <trkpt lat="44.57208" lon="4.39255">
        <ele>175.1</ele>
        <time>2022-06-10T14:47:11Z</time>
      </trkpt>
      <trkpt lat="44.57202" lon="4.39255">
        <ele>175.1</ele>
        <time>2022-06-10T14:47:12Z</time>
      </trkpt>
      <trkpt lat="44.57197" lon="4.39255">
        <ele>175.1</ele>
        <time>2022-06-10T14:47:13Z</time>
      </trkpt>
      <trkpt lat="44.57191" lon="4.39255">
        <ele>175.2</ele>
        <time>2022-06-10T14:47:14Z</time>
      </trkpt>
      <trkpt lat="44.57185" lon="4.39255">
        <ele>175.2</ele>
        <time>2022-06-10T14:47:15Z</time>
      </trkpt>
      <trkpt lat="44.5718" lon="4.39256">
        <ele>175.3</ele>
        <time>2022-06-10T14:47:16Z</time>
      </trkpt>
      <trkpt lat="44.57173" lon="4.39256">
        <ele>175.3</ele>
        <time>2022-06-10T14:47:17Z</time>
      </trkpt>
      <trkpt lat="44.57169" lon="4.39256">
        <ele>175.4</ele>
        <time>2022-06-10T14:47:18Z</time>
      </trkpt>
      <trkpt lat="44.57162" lon="4.39255">
        <ele>175.4</ele>
        <time>2022-06-10T14:47:19Z</time>
      </trkpt>
      <trkpt lat="44.57157" lon="4.39255">
        <ele>175.5</ele>
        <time>2022-06-10T14:47:20Z</time>
      </trkpt>
      <trkpt lat="44.57151" lon="4.39255">
        <ele>175.5</ele>
        <time>2022-06-10T14:47:21Z</time>
      </trkpt>
      <trkpt lat="44.57146" lon="4.39254">
        <ele>175.6</ele>
        <time>2022-06-10T14:47:22Z</time>
      </trkpt>
      <trkpt lat="44.5714" lon="4.39251">
        <ele>175.6</ele>
        <time>2022-06-10T14:47:23Z</time>
      </trkpt>
      <trkpt lat="44.57136" lon="4.39248">
        <ele>175.7</ele>
        <time>2022-06-10T14:47:24Z</time>
      </trkpt>
      <trkpt lat="44.57131" lon="4.39245">
        <ele>175.7</ele>
        <time>2022-06-10T14:47:25Z</time>
      </trkpt>
      <trkpt lat="44.57126" lon="4.39243">
        <ele>175.7</ele>
        <time>2022-06-10T14:47:26Z</time>
      </trkpt>
      <trkpt lat="44.5712" lon="4.39242">
        <ele>175.7</ele>
        <time>2022-06-10T14:47:27Z</time>
      </trkpt>
      <trkpt lat="44.57115" lon="4.3924">
        <ele>175.8</ele>
        <time>2022-06-10T14:47:28Z</time>
      </trkpt>
      <trkpt lat="44.5711" lon="4.39238">
        <ele>175.8</ele>
        <time>2022-06-10T14:47:29Z</time>
      </trkpt>
      <trkpt lat="44.57105" lon="4.39235">
        <ele>175.8</ele>
        <time>2022-06-10T14:47:30Z</time>
      </trkpt>
      <trkpt lat="44.57099" lon="4.39233">
        <ele>175.8</ele>
        <time>2022-06-10T14:47:31Z</time>
      </trkpt>
      <trkpt lat="44.57094" lon="4.3923">
        <ele>175.9</ele>
        <time>2022-06-10T14:47:32Z</time>
      </trkpt>
      <trkpt lat="44.57089" lon="4.39226">
        <ele>176</ele>
        <time>2022-06-10T14:47:33Z</time>
      </trkpt>
      <trkpt lat="44.57084" lon="4.39223">
        <ele>176.1</ele>
        <time>2022-06-10T14:47:34Z</time>
      </trkpt>
      <trkpt lat="44.57079" lon="4.3922">
        <ele>176.2</ele>
        <time>2022-06-10T14:47:35Z</time>
      </trkpt>
      <trkpt lat="44.57075" lon="4.39218">
        <ele>176.4</ele>
        <time>2022-06-10T14:47:36Z</time>
      </trkpt>
      <trkpt lat="44.5707" lon="4.39217">
        <ele>176.5</ele>
        <time>2022-06-10T14:47:37Z</time>
      </trkpt>
      <trkpt lat="44.57066" lon="4.39214">
        <ele>176.7</ele>
        <time>2022-06-10T14:47:38Z</time>
      </trkpt>
      <trkpt lat="44.57062" lon="4.39211">
        <ele>176.9</ele>
        <time>2022-06-10T14:47:39Z</time>
      </trkpt>
      <trkpt lat="44.57059" lon="4.39209">
        <ele>177</ele>
        <time>2022-06-10T14:47:40Z</time>
      </trkpt>
      <trkpt lat="44.57055" lon="4.39207">
        <ele>177.2</ele>
        <time>2022-06-10T14:47:41Z</time>
      </trkpt>
      <trkpt lat="44.5705" lon="4.39206">
        <ele>177.4</ele>
        <time>2022-06-10T14:47:42Z</time>
      </trkpt>
      <trkpt lat="44.57047" lon="4.39205">
        <ele>177.5</ele>
        <time>2022-06-10T14:47:43Z</time>
      </trkpt>
      <trkpt lat="44.57043" lon="4.39204">
        <ele>177.7</ele>
        <time>2022-06-10T14:47:44Z</time>
      </trkpt>
      <trkpt lat="44.57042" lon="4.39203">
        <ele>177.8</ele>
        <time>2022-06-10T14:47:45Z</time>
      </trkpt>
      <trkpt lat="44.57039" lon="4.39201">
        <ele>177.9</ele>
        <time>2022-06-10T14:47:46Z</time>
      </trkpt>
      <trkpt lat="44.57035" lon="4.392">
        <ele>178</ele>
        <time>2022-06-10T14:47:47Z</time>
      </trkpt>
      <trkpt lat="44.57032" lon="4.39199">
        <ele>178.2</ele>
        <time>2022-06-10T14:47:48Z</time>
      </trkpt>
      <trkpt lat="44.57029" lon="4.39198">
        <ele>178.4</ele>
        <time>2022-06-10T14:47:49Z</time>
      </trkpt>
      <trkpt lat="44.57026" lon="4.39198">
        <ele>178.5</ele>
        <time>2022-06-10T14:47:50Z</time>
      </trkpt>
      <trkpt lat="44.57023" lon="4.39197">
        <ele>178.6</ele>
        <time>2022-06-10T14:47:51Z</time>
      </trkpt>
      <trkpt lat="44.5702" lon="4.39196">
        <ele>178.8</ele>
        <time>2022-06-10T14:47:52Z</time>
      </trkpt>
      <trkpt lat="44.57017" lon="4.39196">
        <ele>178.9</ele>
        <time>2022-06-10T14:47:53Z</time>
      </trkpt>
      <trkpt lat="44.57014" lon="4.39194">
        <ele>179.1</ele>
        <time>2022-06-10T14:47:54Z</time>
      </trkpt>
      <trkpt lat="44.5701" lon="4.39192">
        <ele>179.3</ele>
        <time>2022-06-10T14:47:55Z</time>
      </trkpt>
      <trkpt lat="44.57005" lon="4.39191">
        <ele>179.5</ele>
        <time>2022-06-10T14:47:57Z</time>
      </trkpt>
      <trkpt lat="44.57002" lon="4.39189">
        <ele>179.6</ele>
        <time>2022-06-10T14:47:58Z</time>
      </trkpt>
      <trkpt lat="44.56999" lon="4.39187">
        <ele>179.7</ele>
        <time>2022-06-10T14:47:59Z</time>
      </trkpt>
      <trkpt lat="44.56996" lon="4.39186">
        <ele>179.9</ele>
        <time>2022-06-10T14:48:00Z</time>
      </trkpt>
      <trkpt lat="44.56993" lon="4.39185">
        <ele>180</ele>
        <time>2022-06-10T14:48:01Z</time>
      </trkpt>
      <trkpt lat="44.5699" lon="4.39183">
        <ele>180.1</ele>
        <time>2022-06-10T14:48:02Z</time>
      </trkpt>
      <trkpt lat="44.56985" lon="4.3918">
        <ele>180.4</ele>
        <time>2022-06-10T14:48:04Z</time>
      </trkpt>
      <trkpt lat="44.56982" lon="4.39178">
        <ele>180.5</ele>
        <time>2022-06-10T14:48:05Z</time>
      </trkpt>
      <trkpt lat="44.5698" lon="4.39177">
        <ele>180.6</ele>
        <time>2022-06-10T14:48:06Z</time>
      </trkpt>
      <trkpt lat="44.56974" lon="4.39174">
        <ele>180.8</ele>
        <time>2022-06-10T14:48:07Z</time>
      </trkpt>
      <trkpt lat="44.56971" lon="4.39172">
        <ele>180.9</ele>
        <time>2022-06-10T14:48:09Z</time>
      </trkpt>
      <trkpt lat="44.56968" lon="4.3917">
        <ele>181.1</ele>
        <time>2022-06-10T14:48:10Z</time>
      </trkpt>
      <trkpt lat="44.56965" lon="4.39169">
        <ele>181.2</ele>
        <time>2022-06-10T14:48:11Z</time>
      </trkpt>
      <trkpt lat="44.56963" lon="4.39167">
        <ele>181.3</ele>
        <time>2022-06-10T14:48:12Z</time>
      </trkpt>
      <trkpt lat="44.5696" lon="4.39165">
        <ele>181.4</ele>
        <time>2022-06-10T14:48:13Z</time>
      </trkpt>
      <trkpt lat="44.56957" lon="4.39163">
        <ele>181.5</ele>
        <time>2022-06-10T14:48:14Z</time>
      </trkpt>
      <trkpt lat="44.56951" lon="4.39158">
        <ele>181.7</ele>
        <time>2022-06-10T14:48:15Z</time>
      </trkpt>
      <trkpt lat="44.56948" lon="4.39156">
        <ele>181.8</ele>
        <time>2022-06-10T14:48:17Z</time>
      </trkpt>
      <trkpt lat="44.56945" lon="4.39154">
        <ele>181.9</ele>
        <time>2022-06-10T14:48:18Z</time>
      </trkpt>
      <trkpt lat="44.56942" lon="4.39152">
        <ele>182</ele>
        <time>2022-06-10T14:48:19Z</time>
      </trkpt>
      <trkpt lat="44.56935" lon="4.39148">
        <ele>182.2</ele>
        <time>2022-06-10T14:48:20Z</time>
      </trkpt>
      <trkpt lat="44.56931" lon="4.39145">
        <ele>182.3</ele>
        <time>2022-06-10T14:48:22Z</time>
      </trkpt>
      <trkpt lat="44.56928" lon="4.39143">
        <ele>182.5</ele>
        <time>2022-06-10T14:48:23Z</time>
      </trkpt>
      <trkpt lat="44.56924" lon="4.39141">
        <ele>182.6</ele>
        <time>2022-06-10T14:48:24Z</time>
      </trkpt>
      <trkpt lat="44.5692" lon="4.39139">
        <ele>182.7</ele>
        <time>2022-06-10T14:48:25Z</time>
      </trkpt>
      <trkpt lat="44.56916" lon="4.39136">
        <ele>182.9</ele>
        <time>2022-06-10T14:48:26Z</time>
      </trkpt>
      <trkpt lat="44.56909" lon="4.39132">
        <ele>183.1</ele>
        <time>2022-06-10T14:48:27Z</time>
      </trkpt>
      <trkpt lat="44.56903" lon="4.39129">
        <ele>183.3</ele>
        <time>2022-06-10T14:48:29Z</time>
      </trkpt>
      <trkpt lat="44.569" lon="4.39127">
        <ele>183.4</ele>
        <time>2022-06-10T14:48:30Z</time>
      </trkpt>
      <trkpt lat="44.56895" lon="4.39125">
        <ele>183.5</ele>
        <time>2022-06-10T14:48:31Z</time>
      </trkpt>
      <trkpt lat="44.56891" lon="4.39123">
        <ele>183.7</ele>
        <time>2022-06-10T14:48:32Z</time>
      </trkpt>
      <trkpt lat="44.56886" lon="4.39121">
        <ele>183.8</ele>
        <time>2022-06-10T14:48:33Z</time>
      </trkpt>
      <trkpt lat="44.56881" lon="4.39119">
        <ele>183.9</ele>
        <time>2022-06-10T14:48:34Z</time>
      </trkpt>
      <trkpt lat="44.56876" lon="4.39116">
        <ele>184</ele>
        <time>2022-06-10T14:48:35Z</time>
      </trkpt>
      <trkpt lat="44.56871" lon="4.39114">
        <ele>184.2</ele>
        <time>2022-06-10T14:48:36Z</time>
      </trkpt>
      <trkpt lat="44.56867" lon="4.39111">
        <ele>184.3</ele>
        <time>2022-06-10T14:48:37Z</time>
      </trkpt>
      <trkpt lat="44.56864" lon="4.3911">
        <ele>184.4</ele>
        <time>2022-06-10T14:48:38Z</time>
      </trkpt>
      <trkpt lat="44.5686" lon="4.39107">
        <ele>184.5</ele>
        <time>2022-06-10T14:48:39Z</time>
      </trkpt>
      <trkpt lat="44.56856" lon="4.39104">
        <ele>184.6</ele>
        <time>2022-06-10T14:48:40Z</time>
      </trkpt>
      <trkpt lat="44.56852" lon="4.39101">
        <ele>184.7</ele>
        <time>2022-06-10T14:48:41Z</time>
      </trkpt>
      <trkpt lat="44.56847" lon="4.39099">
        <ele>184.8</ele>
        <time>2022-06-10T14:48:42Z</time>
      </trkpt>
      <trkpt lat="44.5684" lon="4.39102">
        <ele>184.8</ele>
        <time>2022-06-10T14:48:44Z</time>
      </trkpt>
      <trkpt lat="44.56836" lon="4.39104">
        <ele>184.8</ele>
        <time>2022-06-10T14:48:45Z</time>
      </trkpt>
      <trkpt lat="44.56833" lon="4.39107">
        <ele>184.8</ele>
        <time>2022-06-10T14:48:46Z</time>
      </trkpt>
      <trkpt lat="44.56828" lon="4.3911">
        <ele>184.8</ele>
        <time>2022-06-10T14:48:47Z</time>
      </trkpt>
      <trkpt lat="44.56824" lon="4.39113">
        <ele>184.8</ele>
        <time>2022-06-10T14:48:48Z</time>
      </trkpt>
      <trkpt lat="44.56819" lon="4.39116">
        <ele>184.8</ele>
        <time>2022-06-10T14:48:49Z</time>
      </trkpt>
      <trkpt lat="44.56815" lon="4.39118">
        <ele>184.8</ele>
        <time>2022-06-10T14:48:50Z</time>
      </trkpt>
      <trkpt lat="44.5681" lon="4.3912">
        <ele>184.8</ele>
        <time>2022-06-10T14:48:51Z</time>
      </trkpt>
      <trkpt lat="44.56806" lon="4.39123">
        <ele>184.8</ele>
        <time>2022-06-10T14:48:52Z</time>
      </trkpt>
      <trkpt lat="44.56801" lon="4.39126">
        <ele>184.7</ele>
        <time>2022-06-10T14:48:53Z</time>
      </trkpt>
      <trkpt lat="44.56797" lon="4.39129">
        <ele>184.7</ele>
        <time>2022-06-10T14:48:54Z</time>
      </trkpt>
      <trkpt lat="44.56792" lon="4.39131">
        <ele>184.7</ele>
        <time>2022-06-10T14:48:55Z</time>
      </trkpt>
      <trkpt lat="44.56787" lon="4.39134">
        <ele>184.6</ele>
        <time>2022-06-10T14:48:56Z</time>
      </trkpt>
      <trkpt lat="44.56782" lon="4.39137">
        <ele>184.5</ele>
        <time>2022-06-10T14:48:57Z</time>
      </trkpt>
      <trkpt lat="44.56777" lon="4.3914">
        <ele>184.4</ele>
        <time>2022-06-10T14:48:58Z</time>
      </trkpt>
      <trkpt lat="44.56772" lon="4.39145">
        <ele>184.2</ele>
        <time>2022-06-10T14:48:59Z</time>
      </trkpt>
      <trkpt lat="44.56766" lon="4.39149">
        <ele>184.1</ele>
        <time>2022-06-10T14:49:00Z</time>
      </trkpt>
      <trkpt lat="44.56761" lon="4.39153">
        <ele>183.9</ele>
        <time>2022-06-10T14:49:01Z</time>
      </trkpt>
      <trkpt lat="44.56755" lon="4.39156">
        <ele>183.7</ele>
        <time>2022-06-10T14:49:02Z</time>
      </trkpt>
      <trkpt lat="44.56749" lon="4.3916">
        <ele>183.5</ele>
        <time>2022-06-10T14:49:03Z</time>
      </trkpt>
      <trkpt lat="44.56743" lon="4.39165">
        <ele>183.3</ele>
        <time>2022-06-10T14:49:04Z</time>
      </trkpt>
      <trkpt lat="44.56736" lon="4.39169">
        <ele>183.1</ele>
        <time>2022-06-10T14:49:05Z</time>
      </trkpt>
      <trkpt lat="44.5673" lon="4.39172">
        <ele>182.9</ele>
        <time>2022-06-10T14:49:06Z</time>
      </trkpt>
      <trkpt lat="44.56724" lon="4.39176">
        <ele>182.7</ele>
        <time>2022-06-10T14:49:07Z</time>
      </trkpt>
      <trkpt lat="44.56716" lon="4.3918">
        <ele>182.5</ele>
        <time>2022-06-10T14:49:08Z</time>
      </trkpt>
      <trkpt lat="44.56709" lon="4.39184">
        <ele>182.3</ele>
        <time>2022-06-10T14:49:09Z</time>
      </trkpt>
      <trkpt lat="44.56702" lon="4.39188">
        <ele>182.1</ele>
        <time>2022-06-10T14:49:10Z</time>
      </trkpt>
      <trkpt lat="44.56695" lon="4.39191">
        <ele>181.9</ele>
        <time>2022-06-10T14:49:11Z</time>
      </trkpt>
      <trkpt lat="44.56688" lon="4.39194">
        <ele>181.7</ele>
        <time>2022-06-10T14:49:12Z</time>
      </trkpt>
      <trkpt lat="44.5668" lon="4.39198">
        <ele>181.5</ele>
        <time>2022-06-10T14:49:13Z</time>
      </trkpt>
      <trkpt lat="44.56673" lon="4.39202">
        <ele>181.3</ele>
        <time>2022-06-10T14:49:14Z</time>
      </trkpt>
      <trkpt lat="44.56665" lon="4.39205">
        <ele>181.1</ele>
        <time>2022-06-10T14:49:15Z</time>
      </trkpt>
      <trkpt lat="44.56657" lon="4.39209">
        <ele>180.9</ele>
        <time>2022-06-10T14:49:16Z</time>
      </trkpt>
      <trkpt lat="44.56649" lon="4.39214">
        <ele>180.8</ele>
        <time>2022-06-10T14:49:17Z</time>
      </trkpt>
      <trkpt lat="44.56642" lon="4.39218">
        <ele>180.7</ele>
        <time>2022-06-10T14:49:18Z</time>
      </trkpt>
      <trkpt lat="44.56634" lon="4.39222">
        <ele>180.6</ele>
        <time>2022-06-10T14:49:19Z</time>
      </trkpt>
      <trkpt lat="44.56627" lon="4.39227">
        <ele>180.6</ele>
        <time>2022-06-10T14:49:20Z</time>
      </trkpt>
      <trkpt lat="44.5662" lon="4.39232">
        <ele>180.5</ele>
        <time>2022-06-10T14:49:21Z</time>
      </trkpt>
      <trkpt lat="44.56612" lon="4.39237">
        <ele>180.5</ele>
        <time>2022-06-10T14:49:22Z</time>
      </trkpt>
      <trkpt lat="44.56606" lon="4.39242">
        <ele>180.5</ele>
        <time>2022-06-10T14:49:23Z</time>
      </trkpt>
      <trkpt lat="44.56599" lon="4.39246">
        <ele>180.5</ele>
        <time>2022-06-10T14:49:24Z</time>
      </trkpt>
      <trkpt lat="44.56593" lon="4.39252">
        <ele>180.5</ele>
        <time>2022-06-10T14:49:25Z</time>
      </trkpt>
      <trkpt lat="44.56586" lon="4.39257">
        <ele>180.4</ele>
        <time>2022-06-10T14:49:26Z</time>
      </trkpt>
      <trkpt lat="44.5658" lon="4.39262">
        <ele>180.4</ele>
        <time>2022-06-10T14:49:27Z</time>
      </trkpt>
      <trkpt lat="44.56574" lon="4.39266">
        <ele>180.4</ele>
        <time>2022-06-10T14:49:28Z</time>
      </trkpt>
      <trkpt lat="44.56567" lon="4.39271">
        <ele>180.4</ele>
        <time>2022-06-10T14:49:29Z</time>
      </trkpt>
      <trkpt lat="44.5656" lon="4.39276">
        <ele>180.4</ele>
        <time>2022-06-10T14:49:30Z</time>
      </trkpt>
      <trkpt lat="44.56553" lon="4.39281">
        <ele>180.4</ele>
        <time>2022-06-10T14:49:31Z</time>
      </trkpt>
      <trkpt lat="44.56547" lon="4.39285">
        <ele>180.4</ele>
        <time>2022-06-10T14:49:32Z</time>
      </trkpt>
      <trkpt lat="44.56541" lon="4.3929">
        <ele>180.4</ele>
        <time>2022-06-10T14:49:33Z</time>
      </trkpt>
      <trkpt lat="44.56535" lon="4.39295">
        <ele>180.4</ele>
        <time>2022-06-10T14:49:34Z</time>
      </trkpt>
      <trkpt lat="44.56529" lon="4.393">
        <ele>180.4</ele>
        <time>2022-06-10T14:49:35Z</time>
      </trkpt>
      <trkpt lat="44.56524" lon="4.39306">
        <ele>180.4</ele>
        <time>2022-06-10T14:49:36Z</time>
      </trkpt>
      <trkpt lat="44.56518" lon="4.39312">
        <ele>180.3</ele>
        <time>2022-06-10T14:49:37Z</time>
      </trkpt>
      <trkpt lat="44.56513" lon="4.39317">
        <ele>180.3</ele>
        <time>2022-06-10T14:49:38Z</time>
      </trkpt>
      <trkpt lat="44.56508" lon="4.39322">
        <ele>180.2</ele>
        <time>2022-06-10T14:49:39Z</time>
      </trkpt>
      <trkpt lat="44.56502" lon="4.39328">
        <ele>180.2</ele>
        <time>2022-06-10T14:49:40Z</time>
      </trkpt>
      <trkpt lat="44.56497" lon="4.39333">
        <ele>180.2</ele>
        <time>2022-06-10T14:49:41Z</time>
      </trkpt>
      <trkpt lat="44.56491" lon="4.39338">
        <ele>180.1</ele>
        <time>2022-06-10T14:49:42Z</time>
      </trkpt>
      <trkpt lat="44.56485" lon="4.39343">
        <ele>180.1</ele>
        <time>2022-06-10T14:49:43Z</time>
      </trkpt>
      <trkpt lat="44.56479" lon="4.39347">
        <ele>180.1</ele>
        <time>2022-06-10T14:49:44Z</time>
      </trkpt>
      <trkpt lat="44.56472" lon="4.3935">
        <ele>180</ele>
        <time>2022-06-10T14:49:45Z</time>
      </trkpt>
      <trkpt lat="44.56466" lon="4.39353">
        <ele>179.9</ele>
        <time>2022-06-10T14:49:46Z</time>
      </trkpt>
      <trkpt lat="44.5646" lon="4.39357">
        <ele>179.7</ele>
        <time>2022-06-10T14:49:47Z</time>
      </trkpt>
      <trkpt lat="44.56453" lon="4.39361">
        <ele>179.4</ele>
        <time>2022-06-10T14:49:48Z</time>
      </trkpt>
      <trkpt lat="44.56446" lon="4.39365">
        <ele>179.2</ele>
        <time>2022-06-10T14:49:49Z</time>
      </trkpt>
      <trkpt lat="44.56438" lon="4.39368">
        <ele>178.8</ele>
        <time>2022-06-10T14:49:50Z</time>
      </trkpt>
      <trkpt lat="44.56431" lon="4.39372">
        <ele>178.5</ele>
        <time>2022-06-10T14:49:51Z</time>
      </trkpt>
      <trkpt lat="44.56423" lon="4.39376">
        <ele>178</ele>
        <time>2022-06-10T14:49:52Z</time>
      </trkpt>
      <trkpt lat="44.56415" lon="4.3938">
        <ele>177.6</ele>
        <time>2022-06-10T14:49:53Z</time>
      </trkpt>
      <trkpt lat="44.56407" lon="4.39385">
        <ele>177.2</ele>
        <time>2022-06-10T14:49:54Z</time>
      </trkpt>
      <trkpt lat="44.56399" lon="4.39391">
        <ele>176.9</ele>
        <time>2022-06-10T14:49:55Z</time>
      </trkpt>
      <trkpt lat="44.56391" lon="4.39396">
        <ele>176.6</ele>
        <time>2022-06-10T14:49:56Z</time>
      </trkpt>
      <trkpt lat="44.56382" lon="4.39402">
        <ele>176.5</ele>
        <time>2022-06-10T14:49:57Z</time>
      </trkpt>
      <trkpt lat="44.56374" lon="4.39408">
        <ele>176.3</ele>
        <time>2022-06-10T14:49:58Z</time>
      </trkpt>
      <trkpt lat="44.56366" lon="4.39413">
        <ele>176.2</ele>
        <time>2022-06-10T14:49:59Z</time>
      </trkpt>
      <trkpt lat="44.56358" lon="4.39419">
        <ele>176.1</ele>
        <time>2022-06-10T14:50:00Z</time>
      </trkpt>
      <trkpt lat="44.56349" lon="4.39424">
        <ele>175.9</ele>
        <time>2022-06-10T14:50:01Z</time>
      </trkpt>
      <trkpt lat="44.56342" lon="4.3943">
        <ele>175.8</ele>
        <time>2022-06-10T14:50:02Z</time>
      </trkpt>
      <trkpt lat="44.56334" lon="4.39436">
        <ele>175.7</ele>
        <time>2022-06-10T14:50:03Z</time>
      </trkpt>
      <trkpt lat="44.56326" lon="4.39441">
        <ele>175.5</ele>
        <time>2022-06-10T14:50:04Z</time>
      </trkpt>
      <trkpt lat="44.56318" lon="4.39447">
        <ele>175.4</ele>
        <time>2022-06-10T14:50:05Z</time>
      </trkpt>
      <trkpt lat="44.56311" lon="4.39452">
        <ele>175.5</ele>
        <time>2022-06-10T14:50:06Z</time>
      </trkpt>
      <trkpt lat="44.56304" lon="4.39457">
        <ele>175.6</ele>
        <time>2022-06-10T14:50:07Z</time>
      </trkpt>
      <trkpt lat="44.56296" lon="4.39462">
        <ele>175.8</ele>
        <time>2022-06-10T14:50:08Z</time>
      </trkpt>
      <trkpt lat="44.56289" lon="4.39467">
        <ele>175.7</ele>
        <time>2022-06-10T14:50:09Z</time>
      </trkpt>
      <trkpt lat="44.56283" lon="4.39473">
        <ele>175.7</ele>
        <time>2022-06-10T14:50:10Z</time>
      </trkpt>
      <trkpt lat="44.56276" lon="4.39479">
        <ele>175.7</ele>
        <time>2022-06-10T14:50:11Z</time>
      </trkpt>
      <trkpt lat="44.5627" lon="4.39485">
        <ele>175.6</ele>
        <time>2022-06-10T14:50:12Z</time>
      </trkpt>
      <trkpt lat="44.56264" lon="4.39491">
        <ele>175.6</ele>
        <time>2022-06-10T14:50:13Z</time>
      </trkpt>
      <trkpt lat="44.56258" lon="4.39498">
        <ele>175.6</ele>
        <time>2022-06-10T14:50:14Z</time>
      </trkpt>
      <trkpt lat="44.56252" lon="4.39505">
        <ele>175.5</ele>
        <time>2022-06-10T14:50:15Z</time>
      </trkpt>
      <trkpt lat="44.56246" lon="4.39512">
        <ele>175.5</ele>
        <time>2022-06-10T14:50:16Z</time>
      </trkpt>
      <trkpt lat="44.56241" lon="4.39518">
        <ele>175.4</ele>
        <time>2022-06-10T14:50:17Z</time>
      </trkpt>
      <trkpt lat="44.56235" lon="4.39525">
        <ele>175.4</ele>
        <time>2022-06-10T14:50:18Z</time>
      </trkpt>
      <trkpt lat="44.56229" lon="4.39532">
        <ele>175.3</ele>
        <time>2022-06-10T14:50:19Z</time>
      </trkpt>
      <trkpt lat="44.56224" lon="4.39539">
        <ele>175.3</ele>
        <time>2022-06-10T14:50:20Z</time>
      </trkpt>
      <trkpt lat="44.56219" lon="4.39546">
        <ele>175.3</ele>
        <time>2022-06-10T14:50:21Z</time>
      </trkpt>
      <trkpt lat="44.56213" lon="4.39552">
        <ele>175.2</ele>
        <time>2022-06-10T14:50:22Z</time>
      </trkpt>
      <trkpt lat="44.56208" lon="4.39559">
        <ele>175.2</ele>
        <time>2022-06-10T14:50:23Z</time>
      </trkpt>
      <trkpt lat="44.56203" lon="4.39566">
        <ele>175.2</ele>
        <time>2022-06-10T14:50:24Z</time>
      </trkpt>
      <trkpt lat="44.56197" lon="4.39573">
        <ele>175.2</ele>
        <time>2022-06-10T14:50:25Z</time>
      </trkpt>
      <trkpt lat="44.56192" lon="4.3958">
        <ele>175.1</ele>
        <time>2022-06-10T14:50:26Z</time>
      </trkpt>
      <trkpt lat="44.56186" lon="4.39586">
        <ele>175.1</ele>
        <time>2022-06-10T14:50:27Z</time>
      </trkpt>
      <trkpt lat="44.56181" lon="4.39592">
        <ele>175.2</ele>
        <time>2022-06-10T14:50:28Z</time>
      </trkpt>
      <trkpt lat="44.56176" lon="4.39599">
        <ele>175.2</ele>
        <time>2022-06-10T14:50:29Z</time>
      </trkpt>
      <trkpt lat="44.56171" lon="4.39605">
        <ele>175.2</ele>
        <time>2022-06-10T14:50:30Z</time>
      </trkpt>
      <trkpt lat="44.56165" lon="4.39611">
        <ele>175.3</ele>
        <time>2022-06-10T14:50:31Z</time>
      </trkpt>
      <trkpt lat="44.5616" lon="4.39617">
        <ele>175.4</ele>
        <time>2022-06-10T14:50:32Z</time>
      </trkpt>
      <trkpt lat="44.56155" lon="4.39622">
        <ele>175.5</ele>
        <time>2022-06-10T14:50:33Z</time>
      </trkpt>
      <trkpt lat="44.5615" lon="4.39628">
        <ele>175.6</ele>
        <time>2022-06-10T14:50:34Z</time>
      </trkpt>
      <trkpt lat="44.56146" lon="4.39633">
        <ele>175.7</ele>
        <time>2022-06-10T14:50:35Z</time>
      </trkpt>
      <trkpt lat="44.56141" lon="4.39638">
        <ele>175.8</ele>
        <time>2022-06-10T14:50:36Z</time>
      </trkpt>
      <trkpt lat="44.56137" lon="4.39643">
        <ele>176</ele>
        <time>2022-06-10T14:50:37Z</time>
      </trkpt>
      <trkpt lat="44.56133" lon="4.39648">
        <ele>176.1</ele>
        <time>2022-06-10T14:50:38Z</time>
      </trkpt>
      <trkpt lat="44.56128" lon="4.39652">
        <ele>176.2</ele>
        <time>2022-06-10T14:50:39Z</time>
      </trkpt>
      <trkpt lat="44.56124" lon="4.39656">
        <ele>176.4</ele>
        <time>2022-06-10T14:50:40Z</time>
      </trkpt>
      <trkpt lat="44.56121" lon="4.3966">
        <ele>176.5</ele>
        <time>2022-06-10T14:50:41Z</time>
      </trkpt>
      <trkpt lat="44.56117" lon="4.39663">
        <ele>176.7</ele>
        <time>2022-06-10T14:50:42Z</time>
      </trkpt>
      <trkpt lat="44.56114" lon="4.39665">
        <ele>176.8</ele>
        <time>2022-06-10T14:50:43Z</time>
      </trkpt>
      <trkpt lat="44.5611" lon="4.39668">
        <ele>176.9</ele>
        <time>2022-06-10T14:50:44Z</time>
      </trkpt>
      <trkpt lat="44.56107" lon="4.3967">
        <ele>177.1</ele>
        <time>2022-06-10T14:50:45Z</time>
      </trkpt>
      <trkpt lat="44.56102" lon="4.39672">
        <ele>177.4</ele>
        <time>2022-06-10T14:50:46Z</time>
      </trkpt>
      <trkpt lat="44.56097" lon="4.39674">
        <ele>177.6</ele>
        <time>2022-06-10T14:50:47Z</time>
      </trkpt>
      <trkpt lat="44.56095" lon="4.39675">
        <ele>177.8</ele>
        <time>2022-06-10T14:50:48Z</time>
      </trkpt>
      <trkpt lat="44.56091" lon="4.39676">
        <ele>178</ele>
        <time>2022-06-10T14:50:49Z</time>
      </trkpt>
      <trkpt lat="44.5609" lon="4.3968">
        <ele>178.1</ele>
        <time>2022-06-10T14:50:50Z</time>
      </trkpt>
      <trkpt lat="44.56083" lon="4.39679">
        <ele>178.6</ele>
        <time>2022-06-10T14:50:51Z</time>
      </trkpt>
      <trkpt lat="44.56079" lon="4.3968">
        <ele>178.8</ele>
        <time>2022-06-10T14:50:52Z</time>
      </trkpt>
      <trkpt lat="44.56075" lon="4.39681">
        <ele>179</ele>
        <time>2022-06-10T14:50:53Z</time>
      </trkpt>
      <trkpt lat="44.56072" lon="4.39682">
        <ele>179.2</ele>
        <time>2022-06-10T14:50:54Z</time>
      </trkpt>
      <trkpt lat="44.56069" lon="4.39683">
        <ele>179.4</ele>
        <time>2022-06-10T14:50:55Z</time>
      </trkpt>
      <trkpt lat="44.56065" lon="4.39684">
        <ele>179.7</ele>
        <time>2022-06-10T14:50:56Z</time>
      </trkpt>
      <trkpt lat="44.56062" lon="4.39685">
        <ele>179.9</ele>
        <time>2022-06-10T14:50:57Z</time>
      </trkpt>
      <trkpt lat="44.56059" lon="4.39687">
        <ele>180.1</ele>
        <time>2022-06-10T14:50:58Z</time>
      </trkpt>
      <trkpt lat="44.56057" lon="4.39687">
        <ele>180.2</ele>
        <time>2022-06-10T14:50:59Z</time>
      </trkpt>
      <trkpt lat="44.56053" lon="4.39688">
        <ele>180.5</ele>
        <time>2022-06-10T14:51:00Z</time>
      </trkpt>
      <trkpt lat="44.56052" lon="4.39688">
        <ele>180.5</ele>
        <time>2022-06-10T14:51:01Z</time>
      </trkpt>
      <trkpt lat="44.56048" lon="4.3969">
        <ele>180.8</ele>
        <time>2022-06-10T14:51:02Z</time>
      </trkpt>
      <trkpt lat="44.56047" lon="4.39691">
        <ele>180.9</ele>
        <time>2022-06-10T14:51:03Z</time>
      </trkpt>
      <trkpt lat="44.56044" lon="4.39691">
        <ele>181.1</ele>
        <time>2022-06-10T14:51:04Z</time>
      </trkpt>
      <trkpt lat="44.56041" lon="4.39691">
        <ele>181.2</ele>
        <time>2022-06-10T14:51:05Z</time>
      </trkpt>
      <trkpt lat="44.56038" lon="4.39692">
        <ele>181.4</ele>
        <time>2022-06-10T14:51:06Z</time>
      </trkpt>
      <trkpt lat="44.56032" lon="4.39693">
        <ele>181.7</ele>
        <time>2022-06-10T14:51:08Z</time>
      </trkpt>
      <trkpt lat="44.5603" lon="4.39694">
        <ele>181.9</ele>
        <time>2022-06-10T14:51:09Z</time>
      </trkpt>
      <trkpt lat="44.56027" lon="4.39695">
        <ele>182.1</ele>
        <time>2022-06-10T14:51:10Z</time>
      </trkpt>
      <trkpt lat="44.56023" lon="4.39696">
        <ele>182.3</ele>
        <time>2022-06-10T14:51:11Z</time>
      </trkpt>
      <trkpt lat="44.56022" lon="4.39697">
        <ele>182.4</ele>
        <time>2022-06-10T14:51:12Z</time>
      </trkpt>
      <trkpt lat="44.56019" lon="4.39698">
        <ele>182.5</ele>
        <time>2022-06-10T14:51:13Z</time>
      </trkpt>
      <trkpt lat="44.56016" lon="4.39699">
        <ele>182.6</ele>
        <time>2022-06-10T14:51:14Z</time>
      </trkpt>
      <trkpt lat="44.56014" lon="4.397">
        <ele>182.8</ele>
        <time>2022-06-10T14:51:15Z</time>
      </trkpt>
      <trkpt lat="44.5601" lon="4.39701">
        <ele>183</ele>
        <time>2022-06-10T14:51:16Z</time>
      </trkpt>
      <trkpt lat="44.56008" lon="4.39702">
        <ele>183.1</ele>
        <time>2022-06-10T14:51:17Z</time>
      </trkpt>
      <trkpt lat="44.56005" lon="4.39703">
        <ele>183.2</ele>
        <time>2022-06-10T14:51:18Z</time>
      </trkpt>
      <trkpt lat="44.56003" lon="4.39703">
        <ele>183.3</ele>
        <time>2022-06-10T14:51:19Z</time>
      </trkpt>
      <trkpt lat="44.55999" lon="4.39704">
        <ele>183.5</ele>
        <time>2022-06-10T14:51:20Z</time>
      </trkpt>
      <trkpt lat="44.55998" lon="4.39705">
        <ele>183.6</ele>
        <time>2022-06-10T14:51:21Z</time>
      </trkpt>
      <trkpt lat="44.55994" lon="4.39706">
        <ele>183.7</ele>
        <time>2022-06-10T14:51:22Z</time>
      </trkpt>
      <trkpt lat="44.55993" lon="4.39706">
        <ele>183.8</ele>
        <time>2022-06-10T14:51:23Z</time>
      </trkpt>
      <trkpt lat="44.5599" lon="4.39707">
        <ele>183.9</ele>
        <time>2022-06-10T14:51:24Z</time>
      </trkpt>
      <trkpt lat="44.55987" lon="4.39708">
        <ele>184</ele>
        <time>2022-06-10T14:51:25Z</time>
      </trkpt>
      <trkpt lat="44.55985" lon="4.39708">
        <ele>184.1</ele>
        <time>2022-06-10T14:51:26Z</time>
      </trkpt>
      <trkpt lat="44.55981" lon="4.3971">
        <ele>184.3</ele>
        <time>2022-06-10T14:51:27Z</time>
      </trkpt>
      <trkpt lat="44.55979" lon="4.3971">
        <ele>184.3</ele>
        <time>2022-06-10T14:51:28Z</time>
      </trkpt>
      <trkpt lat="44.55977" lon="4.39711">
        <ele>184.4</ele>
        <time>2022-06-10T14:51:29Z</time>
      </trkpt>
      <trkpt lat="44.55974" lon="4.39713">
        <ele>184.5</ele>
        <time>2022-06-10T14:51:30Z</time>
      </trkpt>
      <trkpt lat="44.55972" lon="4.39714">
        <ele>184.6</ele>
        <time>2022-06-10T14:51:31Z</time>
      </trkpt>
      <trkpt lat="44.55969" lon="4.39715">
        <ele>184.7</ele>
        <time>2022-06-10T14:51:32Z</time>
      </trkpt>
      <trkpt lat="44.55966" lon="4.39716">
        <ele>184.8</ele>
        <time>2022-06-10T14:51:33Z</time>
      </trkpt>
      <trkpt lat="44.55963" lon="4.39716">
        <ele>184.9</ele>
        <time>2022-06-10T14:51:34Z</time>
      </trkpt>
      <trkpt lat="44.5596" lon="4.39717">
        <ele>185</ele>
        <time>2022-06-10T14:51:35Z</time>
      </trkpt>
      <trkpt lat="44.55956" lon="4.39718">
        <ele>185.1</ele>
        <time>2022-06-10T14:51:36Z</time>
      </trkpt>
      <trkpt lat="44.55955" lon="4.39719">
        <ele>185.1</ele>
        <time>2022-06-10T14:51:37Z</time>
      </trkpt>
      <trkpt lat="44.55951" lon="4.39719">
        <ele>185.2</ele>
        <time>2022-06-10T14:51:38Z</time>
      </trkpt>
      <trkpt lat="44.55948" lon="4.3972">
        <ele>185.2</ele>
        <time>2022-06-10T14:51:39Z</time>
      </trkpt>
      <trkpt lat="44.55945" lon="4.39721">
        <ele>185.3</ele>
        <time>2022-06-10T14:51:40Z</time>
      </trkpt>
      <trkpt lat="44.55942" lon="4.39722">
        <ele>185.4</ele>
        <time>2022-06-10T14:51:41Z</time>
      </trkpt>
      <trkpt lat="44.55939" lon="4.39723">
        <ele>185.4</ele>
        <time>2022-06-10T14:51:42Z</time>
      </trkpt>
      <trkpt lat="44.55936" lon="4.39724">
        <ele>185.5</ele>
        <time>2022-06-10T14:51:43Z</time>
      </trkpt>
      <trkpt lat="44.55933" lon="4.39725">
        <ele>185.5</ele>
        <time>2022-06-10T14:51:44Z</time>
      </trkpt>
      <trkpt lat="44.55929" lon="4.39726">
        <ele>185.5</ele>
        <time>2022-06-10T14:51:45Z</time>
      </trkpt>
      <trkpt lat="44.55926" lon="4.39727">
        <ele>185.4</ele>
        <time>2022-06-10T14:51:46Z</time>
      </trkpt>
      <trkpt lat="44.55922" lon="4.39728">
        <ele>185.4</ele>
        <time>2022-06-10T14:51:47Z</time>
      </trkpt>
      <trkpt lat="44.55918" lon="4.39729">
        <ele>185.3</ele>
        <time>2022-06-10T14:51:48Z</time>
      </trkpt>
      <trkpt lat="44.55913" lon="4.39731">
        <ele>185.3</ele>
        <time>2022-06-10T14:51:49Z</time>
      </trkpt>
      <trkpt lat="44.55908" lon="4.39733">
        <ele>185.2</ele>
        <time>2022-06-10T14:51:50Z</time>
      </trkpt>
      <trkpt lat="44.55903" lon="4.39734">
        <ele>185.1</ele>
        <time>2022-06-10T14:51:51Z</time>
      </trkpt>
      <trkpt lat="44.55898" lon="4.39736">
        <ele>185</ele>
        <time>2022-06-10T14:51:52Z</time>
      </trkpt>
      <trkpt lat="44.55893" lon="4.39737">
        <ele>184.9</ele>
        <time>2022-06-10T14:51:53Z</time>
      </trkpt>
      <trkpt lat="44.55888" lon="4.39739">
        <ele>184.7</ele>
        <time>2022-06-10T14:51:54Z</time>
      </trkpt>
      <trkpt lat="44.55883" lon="4.39741">
        <ele>184.5</ele>
        <time>2022-06-10T14:51:55Z</time>
      </trkpt>
      <trkpt lat="44.55878" lon="4.39742">
        <ele>184.4</ele>
        <time>2022-06-10T14:51:56Z</time>
      </trkpt>
      <trkpt lat="44.55873" lon="4.39744">
        <ele>184.1</ele>
        <time>2022-06-10T14:51:57Z</time>
      </trkpt>
      <trkpt lat="44.55868" lon="4.39745">
        <ele>183.9</ele>
        <time>2022-06-10T14:51:58Z</time>
      </trkpt>
      <trkpt lat="44.55862" lon="4.39748">
        <ele>183.6</ele>
        <time>2022-06-10T14:51:59Z</time>
      </trkpt>
      <trkpt lat="44.55857" lon="4.39751">
        <ele>183.3</ele>
        <time>2022-06-10T14:52:00Z</time>
      </trkpt>
      <trkpt lat="44.55852" lon="4.39756">
        <ele>183</ele>
        <time>2022-06-10T14:52:01Z</time>
      </trkpt>
      <trkpt lat="44.55846" lon="4.3976">
        <ele>182.7</ele>
        <time>2022-06-10T14:52:02Z</time>
      </trkpt>
      <trkpt lat="44.55841" lon="4.39766">
        <ele>182.3</ele>
        <time>2022-06-10T14:52:03Z</time>
      </trkpt>
      <trkpt lat="44.55836" lon="4.39773">
        <ele>181.9</ele>
        <time>2022-06-10T14:52:04Z</time>
      </trkpt>
      <trkpt lat="44.55831" lon="4.3978">
        <ele>181.5</ele>
        <time>2022-06-10T14:52:05Z</time>
      </trkpt>
      <trkpt lat="44.55825" lon="4.39788">
        <ele>181</ele>
        <time>2022-06-10T14:52:06Z</time>
      </trkpt>
      <trkpt lat="44.5582" lon="4.39795">
        <ele>180.5</ele>
        <time>2022-06-10T14:52:07Z</time>
      </trkpt>
      <trkpt lat="44.55815" lon="4.39804">
        <ele>180.1</ele>
        <time>2022-06-10T14:52:08Z</time>
      </trkpt>
      <trkpt lat="44.55809" lon="4.39813">
        <ele>179.6</ele>
        <time>2022-06-10T14:52:09Z</time>
      </trkpt>
      <trkpt lat="44.55803" lon="4.39822">
        <ele>179</ele>
        <time>2022-06-10T14:52:10Z</time>
      </trkpt>
      <trkpt lat="44.55797" lon="4.39831">
        <ele>178.5</ele>
        <time>2022-06-10T14:52:11Z</time>
      </trkpt>
      <trkpt lat="44.55791" lon="4.3984">
        <ele>178</ele>
        <time>2022-06-10T14:52:12Z</time>
      </trkpt>
      <trkpt lat="44.55785" lon="4.3985">
        <ele>177.5</ele>
        <time>2022-06-10T14:52:13Z</time>
      </trkpt>
      <trkpt lat="44.55779" lon="4.39859">
        <ele>177</ele>
        <time>2022-06-10T14:52:14Z</time>
      </trkpt>
      <trkpt lat="44.55773" lon="4.39869">
        <ele>176.6</ele>
        <time>2022-06-10T14:52:15Z</time>
      </trkpt>
      <trkpt lat="44.55766" lon="4.39879">
        <ele>176.1</ele>
        <time>2022-06-10T14:52:16Z</time>
      </trkpt>
      <trkpt lat="44.5576" lon="4.39889">
        <ele>175.6</ele>
        <time>2022-06-10T14:52:17Z</time>
      </trkpt>
      <trkpt lat="44.55753" lon="4.399">
        <ele>175.1</ele>
        <time>2022-06-10T14:52:18Z</time>
      </trkpt>
      <trkpt lat="44.55746" lon="4.3991">
        <ele>174.6</ele>
        <time>2022-06-10T14:52:19Z</time>
      </trkpt>
      <trkpt lat="44.55739" lon="4.3992">
        <ele>174.1</ele>
        <time>2022-06-10T14:52:20Z</time>
      </trkpt>
      <trkpt lat="44.55733" lon="4.3993">
        <ele>173.6</ele>
        <time>2022-06-10T14:52:21Z</time>
      </trkpt>
      <trkpt lat="44.55727" lon="4.39941">
        <ele>173.3</ele>
        <time>2022-06-10T14:52:22Z</time>
      </trkpt>
      <trkpt lat="44.5572" lon="4.39951">
        <ele>173</ele>
        <time>2022-06-10T14:52:23Z</time>
      </trkpt>
      <trkpt lat="44.55713" lon="4.39961">
        <ele>172.7</ele>
        <time>2022-06-10T14:52:24Z</time>
      </trkpt>
      <trkpt lat="44.55707" lon="4.39971">
        <ele>172.4</ele>
        <time>2022-06-10T14:52:25Z</time>
      </trkpt>
      <trkpt lat="44.55701" lon="4.39981">
        <ele>172.3</ele>
        <time>2022-06-10T14:52:26Z</time>
      </trkpt>
      <trkpt lat="44.55694" lon="4.39991">
        <ele>172.1</ele>
        <time>2022-06-10T14:52:27Z</time>
      </trkpt>
      <trkpt lat="44.55688" lon="4.40001">
        <ele>172</ele>
        <time>2022-06-10T14:52:28Z</time>
      </trkpt>
      <trkpt lat="44.55682" lon="4.4001">
        <ele>172</ele>
        <time>2022-06-10T14:52:29Z</time>
      </trkpt>
      <trkpt lat="44.55676" lon="4.4002">
        <ele>171.8</ele>
        <time>2022-06-10T14:52:30Z</time>
      </trkpt>
      <trkpt lat="44.55671" lon="4.4003">
        <ele>171.6</ele>
        <time>2022-06-10T14:52:31Z</time>
      </trkpt>
      <trkpt lat="44.55666" lon="4.40039">
        <ele>171.5</ele>
        <time>2022-06-10T14:52:32Z</time>
      </trkpt>
      <trkpt lat="44.5566" lon="4.40047">
        <ele>171.5</ele>
        <time>2022-06-10T14:52:33Z</time>
      </trkpt>
      <trkpt lat="44.55654" lon="4.40056">
        <ele>171.4</ele>
        <time>2022-06-10T14:52:34Z</time>
      </trkpt>
      <trkpt lat="44.55649" lon="4.40064">
        <ele>171.3</ele>
        <time>2022-06-10T14:52:35Z</time>
      </trkpt>
      <trkpt lat="44.55643" lon="4.40073">
        <ele>171.3</ele>
        <time>2022-06-10T14:52:36Z</time>
      </trkpt>
      <trkpt lat="44.55638" lon="4.40081">
        <ele>171.2</ele>
        <time>2022-06-10T14:52:37Z</time>
      </trkpt>
      <trkpt lat="44.55632" lon="4.40089">
        <ele>171.2</ele>
        <time>2022-06-10T14:52:38Z</time>
      </trkpt>
      <trkpt lat="44.55628" lon="4.40097">
        <ele>171.2</ele>
        <time>2022-06-10T14:52:39Z</time>
      </trkpt>
      <trkpt lat="44.55623" lon="4.40106">
        <ele>171.1</ele>
        <time>2022-06-10T14:52:40Z</time>
      </trkpt>
      <trkpt lat="44.55617" lon="4.40113">
        <ele>171.1</ele>
        <time>2022-06-10T14:52:41Z</time>
      </trkpt>
      <trkpt lat="44.55612" lon="4.40122">
        <ele>171.1</ele>
        <time>2022-06-10T14:52:42Z</time>
      </trkpt>
      <trkpt lat="44.55608" lon="4.4013">
        <ele>171</ele>
        <time>2022-06-10T14:52:43Z</time>
      </trkpt>
      <trkpt lat="44.55602" lon="4.40139">
        <ele>171</ele>
        <time>2022-06-10T14:52:44Z</time>
      </trkpt>
      <trkpt lat="44.55597" lon="4.40147">
        <ele>171</ele>
        <time>2022-06-10T14:52:45Z</time>
      </trkpt>
      <trkpt lat="44.55592" lon="4.40155">
        <ele>171</ele>
        <time>2022-06-10T14:52:46Z</time>
      </trkpt>
      <trkpt lat="44.55587" lon="4.40163">
        <ele>170.9</ele>
        <time>2022-06-10T14:52:47Z</time>
      </trkpt>
      <trkpt lat="44.55583" lon="4.4017">
        <ele>170.9</ele>
        <time>2022-06-10T14:52:48Z</time>
      </trkpt>
      <trkpt lat="44.55578" lon="4.40178">
        <ele>170.9</ele>
        <time>2022-06-10T14:52:49Z</time>
      </trkpt>
      <trkpt lat="44.55573" lon="4.40185">
        <ele>170.9</ele>
        <time>2022-06-10T14:52:50Z</time>
      </trkpt>
      <trkpt lat="44.55569" lon="4.40192">
        <ele>170.9</ele>
        <time>2022-06-10T14:52:51Z</time>
      </trkpt>
      <trkpt lat="44.55564" lon="4.40199">
        <ele>170.9</ele>
        <time>2022-06-10T14:52:52Z</time>
      </trkpt>
      <trkpt lat="44.55559" lon="4.40206">
        <ele>170.8</ele>
        <time>2022-06-10T14:52:53Z</time>
      </trkpt>
      <trkpt lat="44.55555" lon="4.40213">
        <ele>170.8</ele>
        <time>2022-06-10T14:52:54Z</time>
      </trkpt>
      <trkpt lat="44.5555" lon="4.40221">
        <ele>170.8</ele>
        <time>2022-06-10T14:52:55Z</time>
      </trkpt>
      <trkpt lat="44.55546" lon="4.40228">
        <ele>170.8</ele>
        <time>2022-06-10T14:52:56Z</time>
      </trkpt>
      <trkpt lat="44.55542" lon="4.40235">
        <ele>170.7</ele>
        <time>2022-06-10T14:52:57Z</time>
      </trkpt>
      <trkpt lat="44.55537" lon="4.40242">
        <ele>170.7</ele>
        <time>2022-06-10T14:52:58Z</time>
      </trkpt>
      <trkpt lat="44.55533" lon="4.40249">
        <ele>170.6</ele>
        <time>2022-06-10T14:52:59Z</time>
      </trkpt>
      <trkpt lat="44.55528" lon="4.40256">
        <ele>170.6</ele>
        <time>2022-06-10T14:53:00Z</time>
      </trkpt>
      <trkpt lat="44.55523" lon="4.40263">
        <ele>170.6</ele>
        <time>2022-06-10T14:53:01Z</time>
      </trkpt>
      <trkpt lat="44.55518" lon="4.40271">
        <ele>170.5</ele>
        <time>2022-06-10T14:53:02Z</time>
      </trkpt>
      <trkpt lat="44.55514" lon="4.40278">
        <ele>170.5</ele>
        <time>2022-06-10T14:53:03Z</time>
      </trkpt>
      <trkpt lat="44.5551" lon="4.40285">
        <ele>170.5</ele>
        <time>2022-06-10T14:53:04Z</time>
      </trkpt>
      <trkpt lat="44.55506" lon="4.40291">
        <ele>170.5</ele>
        <time>2022-06-10T14:53:05Z</time>
      </trkpt>
      <trkpt lat="44.55502" lon="4.40298">
        <ele>170.5</ele>
        <time>2022-06-10T14:53:06Z</time>
      </trkpt>
      <trkpt lat="44.55497" lon="4.40305">
        <ele>170.4</ele>
        <time>2022-06-10T14:53:07Z</time>
      </trkpt>
      <trkpt lat="44.55493" lon="4.40311">
        <ele>170.4</ele>
        <time>2022-06-10T14:53:08Z</time>
      </trkpt>
      <trkpt lat="44.55489" lon="4.40318">
        <ele>170.4</ele>
        <time>2022-06-10T14:53:09Z</time>
      </trkpt>
      <trkpt lat="44.55484" lon="4.40325">
        <ele>170.4</ele>
        <time>2022-06-10T14:53:10Z</time>
      </trkpt>
      <trkpt lat="44.5548" lon="4.40332">
        <ele>170.4</ele>
        <time>2022-06-10T14:53:11Z</time>
      </trkpt>
      <trkpt lat="44.55476" lon="4.40338">
        <ele>170.3</ele>
        <time>2022-06-10T14:53:12Z</time>
      </trkpt>
      <trkpt lat="44.55472" lon="4.40346">
        <ele>170.3</ele>
        <time>2022-06-10T14:53:13Z</time>
      </trkpt>
      <trkpt lat="44.55467" lon="4.40353">
        <ele>170.2</ele>
        <time>2022-06-10T14:53:14Z</time>
      </trkpt>
      <trkpt lat="44.55463" lon="4.4036">
        <ele>170.1</ele>
        <time>2022-06-10T14:53:15Z</time>
      </trkpt>
      <trkpt lat="44.55458" lon="4.40367">
        <ele>170.1</ele>
        <time>2022-06-10T14:53:16Z</time>
      </trkpt>
      <trkpt lat="44.55454" lon="4.40374">
        <ele>170</ele>
        <time>2022-06-10T14:53:17Z</time>
      </trkpt>
      <trkpt lat="44.55449" lon="4.40381">
        <ele>169.9</ele>
        <time>2022-06-10T14:53:18Z</time>
      </trkpt>
      <trkpt lat="44.55445" lon="4.40388">
        <ele>169.8</ele>
        <time>2022-06-10T14:53:19Z</time>
      </trkpt>
      <trkpt lat="44.55441" lon="4.40395">
        <ele>169.8</ele>
        <time>2022-06-10T14:53:20Z</time>
      </trkpt>
      <trkpt lat="44.55436" lon="4.40402">
        <ele>169.7</ele>
        <time>2022-06-10T14:53:21Z</time>
      </trkpt>
      <trkpt lat="44.55432" lon="4.40409">
        <ele>169.6</ele>
        <time>2022-06-10T14:53:22Z</time>
      </trkpt>
      <trkpt lat="44.55428" lon="4.40415">
        <ele>169.5</ele>
        <time>2022-06-10T14:53:23Z</time>
      </trkpt>
      <trkpt lat="44.55423" lon="4.40422">
        <ele>169.4</ele>
        <time>2022-06-10T14:53:24Z</time>
      </trkpt>
      <trkpt lat="44.55419" lon="4.40429">
        <ele>169.3</ele>
        <time>2022-06-10T14:53:25Z</time>
      </trkpt>
      <trkpt lat="44.55414" lon="4.40437">
        <ele>169.1</ele>
        <time>2022-06-10T14:53:26Z</time>
      </trkpt>
      <trkpt lat="44.55409" lon="4.40444">
        <ele>169</ele>
        <time>2022-06-10T14:53:27Z</time>
      </trkpt>
      <trkpt lat="44.55404" lon="4.40452">
        <ele>168.9</ele>
        <time>2022-06-10T14:53:28Z</time>
      </trkpt>
      <trkpt lat="44.55399" lon="4.4046">
        <ele>168.8</ele>
        <time>2022-06-10T14:53:29Z</time>
      </trkpt>
      <trkpt lat="44.55394" lon="4.40466">
        <ele>168.8</ele>
        <time>2022-06-10T14:53:30Z</time>
      </trkpt>
      <trkpt lat="44.5539" lon="4.40474">
        <ele>168.7</ele>
        <time>2022-06-10T14:53:31Z</time>
      </trkpt>
      <trkpt lat="44.55386" lon="4.40481">
        <ele>168.6</ele>
        <time>2022-06-10T14:53:32Z</time>
      </trkpt>
      <trkpt lat="44.55381" lon="4.40488">
        <ele>168.6</ele>
        <time>2022-06-10T14:53:33Z</time>
      </trkpt>
      <trkpt lat="44.55377" lon="4.40495">
        <ele>168.6</ele>
        <time>2022-06-10T14:53:34Z</time>
      </trkpt>
      <trkpt lat="44.55372" lon="4.40502">
        <ele>168.5</ele>
        <time>2022-06-10T14:53:35Z</time>
      </trkpt>
      <trkpt lat="44.55368" lon="4.40508">
        <ele>168.4</ele>
        <time>2022-06-10T14:53:36Z</time>
      </trkpt>
      <trkpt lat="44.55364" lon="4.40514">
        <ele>168.4</ele>
        <time>2022-06-10T14:53:37Z</time>
      </trkpt>
      <trkpt lat="44.55359" lon="4.4052">
        <ele>168.4</ele>
        <time>2022-06-10T14:53:38Z</time>
      </trkpt>
      <trkpt lat="44.55356" lon="4.40526">
        <ele>168.3</ele>
        <time>2022-06-10T14:53:39Z</time>
      </trkpt>
      <trkpt lat="44.55351" lon="4.40532">
        <ele>168.3</ele>
        <time>2022-06-10T14:53:40Z</time>
      </trkpt>
      <trkpt lat="44.55347" lon="4.40539">
        <ele>168.3</ele>
        <time>2022-06-10T14:53:41Z</time>
      </trkpt>
      <trkpt lat="44.55343" lon="4.40546">
        <ele>168.2</ele>
        <time>2022-06-10T14:53:42Z</time>
      </trkpt>
      <trkpt lat="44.5534" lon="4.40552">
        <ele>168.2</ele>
        <time>2022-06-10T14:53:43Z</time>
      </trkpt>
      <trkpt lat="44.55336" lon="4.40558">
        <ele>168.2</ele>
        <time>2022-06-10T14:53:44Z</time>
      </trkpt>
      <trkpt lat="44.55333" lon="4.40563">
        <ele>168.2</ele>
        <time>2022-06-10T14:53:45Z</time>
      </trkpt>
      <trkpt lat="44.55329" lon="4.4057">
        <ele>168.2</ele>
        <time>2022-06-10T14:53:46Z</time>
      </trkpt>
      <trkpt lat="44.55325" lon="4.40576">
        <ele>168.2</ele>
        <time>2022-06-10T14:53:47Z</time>
      </trkpt>
      <trkpt lat="44.55321" lon="4.40581">
        <ele>168.2</ele>
        <time>2022-06-10T14:53:48Z</time>
      </trkpt>
      <trkpt lat="44.55318" lon="4.40587">
        <ele>168.2</ele>
        <time>2022-06-10T14:53:49Z</time>
      </trkpt>
      <trkpt lat="44.55313" lon="4.40593">
        <ele>168.2</ele>
        <time>2022-06-10T14:53:50Z</time>
      </trkpt>
      <trkpt lat="44.55309" lon="4.406">
        <ele>168.2</ele>
        <time>2022-06-10T14:53:51Z</time>
      </trkpt>
      <trkpt lat="44.55305" lon="4.40607">
        <ele>168.2</ele>
        <time>2022-06-10T14:53:52Z</time>
      </trkpt>
      <trkpt lat="44.55301" lon="4.40612">
        <ele>168.1</ele>
        <time>2022-06-10T14:53:53Z</time>
      </trkpt>
      <trkpt lat="44.55297" lon="4.40619">
        <ele>168.1</ele>
        <time>2022-06-10T14:53:54Z</time>
      </trkpt>
      <trkpt lat="44.55293" lon="4.40625">
        <ele>168</ele>
        <time>2022-06-10T14:53:55Z</time>
      </trkpt>
      <trkpt lat="44.55289" lon="4.40631">
        <ele>167.9</ele>
        <time>2022-06-10T14:53:56Z</time>
      </trkpt>
      <trkpt lat="44.55285" lon="4.40638">
        <ele>167.8</ele>
        <time>2022-06-10T14:53:57Z</time>
      </trkpt>
      <trkpt lat="44.55281" lon="4.40645">
        <ele>167.7</ele>
        <time>2022-06-10T14:53:58Z</time>
      </trkpt>
      <trkpt lat="44.55277" lon="4.40652">
        <ele>167.6</ele>
        <time>2022-06-10T14:53:59Z</time>
      </trkpt>
      <trkpt lat="44.55273" lon="4.40659">
        <ele>167.5</ele>
        <time>2022-06-10T14:54:00Z</time>
      </trkpt>
      <trkpt lat="44.55268" lon="4.40666">
        <ele>167.5</ele>
        <time>2022-06-10T14:54:01Z</time>
      </trkpt>
      <trkpt lat="44.55264" lon="4.40673">
        <ele>167.4</ele>
        <time>2022-06-10T14:54:02Z</time>
      </trkpt>
      <trkpt lat="44.55259" lon="4.40681">
        <ele>167.3</ele>
        <time>2022-06-10T14:54:03Z</time>
      </trkpt>
      <trkpt lat="44.55255" lon="4.40688">
        <ele>167.2</ele>
        <time>2022-06-10T14:54:04Z</time>
      </trkpt>
      <trkpt lat="44.5525" lon="4.40694">
        <ele>167.2</ele>
        <time>2022-06-10T14:54:05Z</time>
      </trkpt>
      <trkpt lat="44.55245" lon="4.40701">
        <ele>167</ele>
        <time>2022-06-10T14:54:06Z</time>
      </trkpt>
      <trkpt lat="44.55241" lon="4.40709">
        <ele>166.9</ele>
        <time>2022-06-10T14:54:07Z</time>
      </trkpt>
      <trkpt lat="44.55236" lon="4.40717">
        <ele>166.8</ele>
        <time>2022-06-10T14:54:08Z</time>
      </trkpt>
      <trkpt lat="44.55231" lon="4.40725">
        <ele>166.7</ele>
        <time>2022-06-10T14:54:09Z</time>
      </trkpt>
      <trkpt lat="44.55226" lon="4.40733">
        <ele>166.6</ele>
        <time>2022-06-10T14:54:10Z</time>
      </trkpt>
      <trkpt lat="44.55221" lon="4.40741">
        <ele>166.6</ele>
        <time>2022-06-10T14:54:11Z</time>
      </trkpt>
      <trkpt lat="44.55216" lon="4.40748">
        <ele>166.5</ele>
        <time>2022-06-10T14:54:12Z</time>
      </trkpt>
      <trkpt lat="44.55211" lon="4.40756">
        <ele>166.5</ele>
        <time>2022-06-10T14:54:13Z</time>
      </trkpt>
      <trkpt lat="44.55205" lon="4.40763">
        <ele>166.5</ele>
        <time>2022-06-10T14:54:14Z</time>
      </trkpt>
      <trkpt lat="44.552" lon="4.40771">
        <ele>166.4</ele>
        <time>2022-06-10T14:54:15Z</time>
      </trkpt>
      <trkpt lat="44.55195" lon="4.40779">
        <ele>166.4</ele>
        <time>2022-06-10T14:54:16Z</time>
      </trkpt>
      <trkpt lat="44.5519" lon="4.40787">
        <ele>166.4</ele>
        <time>2022-06-10T14:54:17Z</time>
      </trkpt>
      <trkpt lat="44.55185" lon="4.40794">
        <ele>166.3</ele>
        <time>2022-06-10T14:54:18Z</time>
      </trkpt>
      <trkpt lat="44.55179" lon="4.40802">
        <ele>166.3</ele>
        <time>2022-06-10T14:54:19Z</time>
      </trkpt>
      <trkpt lat="44.55174" lon="4.4081">
        <ele>166.2</ele>
        <time>2022-06-10T14:54:20Z</time>
      </trkpt>
      <trkpt lat="44.55168" lon="4.40817">
        <ele>166.2</ele>
        <time>2022-06-10T14:54:21Z</time>
      </trkpt>
      <trkpt lat="44.55161" lon="4.40823">
        <ele>166.2</ele>
        <time>2022-06-10T14:54:22Z</time>
      </trkpt>
      <trkpt lat="44.55155" lon="4.40829">
        <ele>166.2</ele>
        <time>2022-06-10T14:54:23Z</time>
      </trkpt>
      <trkpt lat="44.55148" lon="4.40834">
        <ele>166.3</ele>
        <time>2022-06-10T14:54:24Z</time>
      </trkpt>
      <trkpt lat="44.55142" lon="4.40839">
        <ele>166.2</ele>
        <time>2022-06-10T14:54:25Z</time>
      </trkpt>
      <trkpt lat="44.55136" lon="4.40844">
        <ele>166.2</ele>
        <time>2022-06-10T14:54:26Z</time>
      </trkpt>
      <trkpt lat="44.5513" lon="4.40848">
        <ele>166.2</ele>
        <time>2022-06-10T14:54:27Z</time>
      </trkpt>
      <trkpt lat="44.55125" lon="4.40851">
        <ele>166.2</ele>
        <time>2022-06-10T14:54:28Z</time>
      </trkpt>
      <trkpt lat="44.55122" lon="4.40853">
        <ele>166.2</ele>
        <time>2022-06-10T14:54:29Z</time>
      </trkpt>
      <trkpt lat="44.55122" lon="4.40853">
        <ele>166.2</ele>
        <time>2022-06-10T14:54:30Z</time>
      </trkpt>
      <trkpt lat="44.55122" lon="4.40854">
        <ele>166.2</ele>
        <time>2022-06-10T14:54:31Z</time>
      </trkpt>
      <trkpt lat="44.55122" lon="4.40854">
        <ele>166.2</ele>
        <time>2022-06-10T14:54:32Z</time>
      </trkpt>
      <trkpt lat="44.55122" lon="4.40855">
        <ele>166.2</ele>
        <time>2022-06-10T14:54:33Z</time>
      </trkpt>
      <trkpt lat="44.55122" lon="4.40855">
        <ele>166.2</ele>
        <time>2022-06-10T14:54:34Z</time>
      </trkpt>
      <trkpt lat="44.55122" lon="4.40856">
        <ele>166.2</ele>
        <time>2022-06-10T14:54:35Z</time>
      </trkpt>
      <trkpt lat="44.55122" lon="4.40856">
        <ele>166.2</ele>
        <time>2022-06-10T14:54:36Z</time>
      </trkpt>
      <trkpt lat="44.55122" lon="4.40857">
        <ele>166.2</ele>
        <time>2022-06-10T14:54:37Z</time>
      </trkpt>
      <trkpt lat="44.55122" lon="4.40857">
        <ele>166.2</ele>
        <time>2022-06-10T14:54:38Z</time>
      </trkpt>
      <trkpt lat="44.55123" lon="4.40858">
        <ele>166.2</ele>
        <time>2022-06-10T14:54:39Z</time>
      </trkpt>
      <trkpt lat="44.55123" lon="4.40858">
        <ele>166.2</ele>
        <time>2022-06-10T14:54:41Z</time>
      </trkpt>
      <trkpt lat="44.55123" lon="4.40859">
        <ele>166.2</ele>
        <time>2022-06-10T14:54:42Z</time>
      </trkpt>
      <trkpt lat="44.55123" lon="4.40859">
        <ele>166.2</ele>
        <time>2022-06-10T14:54:43Z</time>
      </trkpt>
      <trkpt lat="44.55123" lon="4.4086">
        <ele>166.2</ele>
        <time>2022-06-10T14:54:44Z</time>
      </trkpt>
      <trkpt lat="44.55123" lon="4.4086">
        <ele>166.2</ele>
        <time>2022-06-10T14:54:45Z</time>
      </trkpt>
      <trkpt lat="44.55123" lon="4.40861">
        <ele>166.2</ele>
        <time>2022-06-10T14:54:46Z</time>
      </trkpt>
      <trkpt lat="44.55123" lon="4.40861">
        <ele>166.2</ele>
        <time>2022-06-10T14:54:47Z</time>
      </trkpt>
      <trkpt lat="44.55124" lon="4.40862">
        <ele>166.2</ele>
        <time>2022-06-10T14:54:48Z</time>
      </trkpt>
      <trkpt lat="44.55124" lon="4.40862">
        <ele>166.2</ele>
        <time>2022-06-10T14:55:12Z</time>
      </trkpt>
      <trkpt lat="44.55124" lon="4.40863">
        <ele>166.2</ele>
        <time>2022-06-10T14:55:13Z</time>
      </trkpt>
      <trkpt lat="44.55124" lon="4.40863">
        <ele>166.2</ele>
        <time>2022-06-10T14:55:14Z</time>
      </trkpt>
      <trkpt lat="44.55126" lon="4.40867">
        <ele>166.1</ele>
        <time>2022-06-10T14:55:15Z</time>
      </trkpt>
      <trkpt lat="44.55127" lon="4.40868">
        <ele>166.1</ele>
        <time>2022-06-10T14:55:16Z</time>
      </trkpt>
      <trkpt lat="44.5513" lon="4.40872">
        <ele>166.1</ele>
        <time>2022-06-10T14:55:17Z</time>
      </trkpt>
      <trkpt lat="44.55131" lon="4.40874">
        <ele>166.1</ele>
        <time>2022-06-10T14:55:18Z</time>
      </trkpt>
      <trkpt lat="44.55132" lon="4.40878">
        <ele>166</ele>
        <time>2022-06-10T14:55:19Z</time>
      </trkpt>
      <trkpt lat="44.55133" lon="4.40883">
        <ele>166</ele>
        <time>2022-06-10T14:55:20Z</time>
      </trkpt>
      <trkpt lat="44.55132" lon="4.40887">
        <ele>165.9</ele>
        <time>2022-06-10T14:55:21Z</time>
      </trkpt>
      <trkpt lat="44.5513" lon="4.40891">
        <ele>165.9</ele>
        <time>2022-06-10T14:55:22Z</time>
      </trkpt>
      <trkpt lat="44.55127" lon="4.40894">
        <ele>165.8</ele>
        <time>2022-06-10T14:55:23Z</time>
      </trkpt>
      <trkpt lat="44.55124" lon="4.40898">
        <ele>165.8</ele>
        <time>2022-06-10T14:55:24Z</time>
      </trkpt>
      <trkpt lat="44.55122" lon="4.40901">
        <ele>165.7</ele>
        <time>2022-06-10T14:55:25Z</time>
      </trkpt>
      <trkpt lat="44.55119" lon="4.40905">
        <ele>165.7</ele>
        <time>2022-06-10T14:55:26Z</time>
      </trkpt>
      <trkpt lat="44.55116" lon="4.40909">
        <ele>165.6</ele>
        <time>2022-06-10T14:55:27Z</time>
      </trkpt>
      <trkpt lat="44.55113" lon="4.40914">
        <ele>165.6</ele>
        <time>2022-06-10T14:55:28Z</time>
      </trkpt>
      <trkpt lat="44.5511" lon="4.40919">
        <ele>165.5</ele>
        <time>2022-06-10T14:55:29Z</time>
      </trkpt>
      <trkpt lat="44.55108" lon="4.40924">
        <ele>165.4</ele>
        <time>2022-06-10T14:55:30Z</time>
      </trkpt>
      <trkpt lat="44.55105" lon="4.40929">
        <ele>165.3</ele>
        <time>2022-06-10T14:55:31Z</time>
      </trkpt>
      <trkpt lat="44.55102" lon="4.40935">
        <ele>165.2</ele>
        <time>2022-06-10T14:55:32Z</time>
      </trkpt>
      <trkpt lat="44.55098" lon="4.4094">
        <ele>165.1</ele>
        <time>2022-06-10T14:55:33Z</time>
      </trkpt>
      <trkpt lat="44.55095" lon="4.40946">
        <ele>164.9</ele>
        <time>2022-06-10T14:55:34Z</time>
      </trkpt>
      <trkpt lat="44.55092" lon="4.40952">
        <ele>164.8</ele>
        <time>2022-06-10T14:55:35Z</time>
      </trkpt>
      <trkpt lat="44.55089" lon="4.40958">
        <ele>164.6</ele>
        <time>2022-06-10T14:55:36Z</time>
      </trkpt>
      <trkpt lat="44.55086" lon="4.40964">
        <ele>164.5</ele>
        <time>2022-06-10T14:55:37Z</time>
      </trkpt>
      <trkpt lat="44.55082" lon="4.4097">
        <ele>164.3</ele>
        <time>2022-06-10T14:55:38Z</time>
      </trkpt>
      <trkpt lat="44.55079" lon="4.40976">
        <ele>164.1</ele>
        <time>2022-06-10T14:55:39Z</time>
      </trkpt>
      <trkpt lat="44.55075" lon="4.40982">
        <ele>163.9</ele>
        <time>2022-06-10T14:55:40Z</time>
      </trkpt>
      <trkpt lat="44.55071" lon="4.40988">
        <ele>163.7</ele>
        <time>2022-06-10T14:55:41Z</time>
      </trkpt>
      <trkpt lat="44.55067" lon="4.40994">
        <ele>163.5</ele>
        <time>2022-06-10T14:55:42Z</time>
      </trkpt>
      <trkpt lat="44.55063" lon="4.41">
        <ele>163.3</ele>
        <time>2022-06-10T14:55:43Z</time>
      </trkpt>
      <trkpt lat="44.5506" lon="4.41007">
        <ele>163.1</ele>
        <time>2022-06-10T14:55:44Z</time>
      </trkpt>
      <trkpt lat="44.55057" lon="4.41013">
        <ele>162.9</ele>
        <time>2022-06-10T14:55:45Z</time>
      </trkpt>
      <trkpt lat="44.55053" lon="4.4102">
        <ele>162.6</ele>
        <time>2022-06-10T14:55:46Z</time>
      </trkpt>
      <trkpt lat="44.55049" lon="4.41026">
        <ele>162.4</ele>
        <time>2022-06-10T14:55:47Z</time>
      </trkpt>
      <trkpt lat="44.55045" lon="4.41032">
        <ele>162.2</ele>
        <time>2022-06-10T14:55:48Z</time>
      </trkpt>
      <trkpt lat="44.55041" lon="4.41039">
        <ele>162</ele>
        <time>2022-06-10T14:55:49Z</time>
      </trkpt>
      <trkpt lat="44.55037" lon="4.41046">
        <ele>161.8</ele>
        <time>2022-06-10T14:55:50Z</time>
      </trkpt>
      <trkpt lat="44.55033" lon="4.41052">
        <ele>161.7</ele>
        <time>2022-06-10T14:55:51Z</time>
      </trkpt>
      <trkpt lat="44.55029" lon="4.4106">
        <ele>161.5</ele>
        <time>2022-06-10T14:55:52Z</time>
      </trkpt>
      <trkpt lat="44.55024" lon="4.41066">
        <ele>161.4</ele>
        <time>2022-06-10T14:55:53Z</time>
      </trkpt>
      <trkpt lat="44.5502" lon="4.41073">
        <ele>161.3</ele>
        <time>2022-06-10T14:55:54Z</time>
      </trkpt>
      <trkpt lat="44.55017" lon="4.4108">
        <ele>161.2</ele>
        <time>2022-06-10T14:55:55Z</time>
      </trkpt>
      <trkpt lat="44.55014" lon="4.41088">
        <ele>161.2</ele>
        <time>2022-06-10T14:55:56Z</time>
      </trkpt>
      <trkpt lat="44.55011" lon="4.41097">
        <ele>161.1</ele>
        <time>2022-06-10T14:55:57Z</time>
      </trkpt>
      <trkpt lat="44.55009" lon="4.41106">
        <ele>161.1</ele>
        <time>2022-06-10T14:55:58Z</time>
      </trkpt>
      <trkpt lat="44.55006" lon="4.41114">
        <ele>161.2</ele>
        <time>2022-06-10T14:55:59Z</time>
      </trkpt>
      <trkpt lat="44.55003" lon="4.41123">
        <ele>161.2</ele>
        <time>2022-06-10T14:56:00Z</time>
      </trkpt>
      <trkpt lat="44.55001" lon="4.4113">
        <ele>161.3</ele>
        <time>2022-06-10T14:56:01Z</time>
      </trkpt>
      <trkpt lat="44.54998" lon="4.41138">
        <ele>161.4</ele>
        <time>2022-06-10T14:56:02Z</time>
      </trkpt>
      <trkpt lat="44.54996" lon="4.41146">
        <ele>161.4</ele>
        <time>2022-06-10T14:56:03Z</time>
      </trkpt>
      <trkpt lat="44.54995" lon="4.41153">
        <ele>161.6</ele>
        <time>2022-06-10T14:56:04Z</time>
      </trkpt>
      <trkpt lat="44.54993" lon="4.41159">
        <ele>161.7</ele>
        <time>2022-06-10T14:56:05Z</time>
      </trkpt>
      <trkpt lat="44.54991" lon="4.41165">
        <ele>161.8</ele>
        <time>2022-06-10T14:56:06Z</time>
      </trkpt>
      <trkpt lat="44.5499" lon="4.41171">
        <ele>161.9</ele>
        <time>2022-06-10T14:56:07Z</time>
      </trkpt>
      <trkpt lat="44.54988" lon="4.41176">
        <ele>162.1</ele>
        <time>2022-06-10T14:56:08Z</time>
      </trkpt>
      <trkpt lat="44.54986" lon="4.41181">
        <ele>162.2</ele>
        <time>2022-06-10T14:56:09Z</time>
      </trkpt>
      <trkpt lat="44.54986" lon="4.41183">
        <ele>162.2</ele>
        <time>2022-06-10T14:56:10Z</time>
      </trkpt>
      <trkpt lat="44.54984" lon="4.41189">
        <ele>162.4</ele>
        <time>2022-06-10T14:56:11Z</time>
      </trkpt>
      <trkpt lat="44.54982" lon="4.41193">
        <ele>162.5</ele>
        <time>2022-06-10T14:56:12Z</time>
      </trkpt>
      <trkpt lat="44.5498" lon="4.41196">
        <ele>162.6</ele>
        <time>2022-06-10T14:56:13Z</time>
      </trkpt>
      <trkpt lat="44.54978" lon="4.412">
        <ele>162.7</ele>
        <time>2022-06-10T14:56:14Z</time>
      </trkpt>
      <trkpt lat="44.54978" lon="4.41201">
        <ele>162.7</ele>
        <time>2022-06-10T14:56:15Z</time>
      </trkpt>
      <trkpt lat="44.54978" lon="4.41202">
        <ele>162.7</ele>
        <time>2022-06-10T14:56:16Z</time>
      </trkpt>
      <trkpt lat="44.54976" lon="4.41208">
        <ele>162.9</ele>
        <time>2022-06-10T14:56:17Z</time>
      </trkpt>
      <trkpt lat="44.54975" lon="4.41213">
        <ele>163</ele>
        <time>2022-06-10T14:56:18Z</time>
      </trkpt>
      <trkpt lat="44.54975" lon="4.41217">
        <ele>163.1</ele>
        <time>2022-06-10T14:56:19Z</time>
      </trkpt>
      <trkpt lat="44.54974" lon="4.41222">
        <ele>163.3</ele>
        <time>2022-06-10T14:56:20Z</time>
      </trkpt>
      <trkpt lat="44.54974" lon="4.4123">
        <ele>163.5</ele>
        <time>2022-06-10T14:56:22Z</time>
      </trkpt>
      <trkpt lat="44.54975" lon="4.41234">
        <ele>163.5</ele>
        <time>2022-06-10T14:56:23Z</time>
      </trkpt>
      <trkpt lat="44.54976" lon="4.41235">
        <ele>163.5</ele>
        <time>2022-06-10T14:56:24Z</time>
      </trkpt>
      <trkpt lat="44.54979" lon="4.41237">
        <ele>163.5</ele>
        <time>2022-06-10T14:56:25Z</time>
      </trkpt>
      <trkpt lat="44.5498" lon="4.41237">
        <ele>163.5</ele>
        <time>2022-06-10T14:56:26Z</time>
      </trkpt>
      <trkpt lat="44.54981" lon="4.41237">
        <ele>163.5</ele>
        <time>2022-06-10T14:56:27Z</time>
      </trkpt>
      <trkpt lat="44.54982" lon="4.41237">
        <ele>163.5</ele>
        <time>2022-06-10T14:56:28Z</time>
      </trkpt>
      <trkpt lat="44.54982" lon="4.41237">
        <ele>163.5</ele>
        <time>2022-06-10T14:56:29Z</time>
      </trkpt>
      <trkpt lat="44.54983" lon="4.41237">
        <ele>163.5</ele>
        <time>2022-06-10T14:56:30Z</time>
      </trkpt>
      <trkpt lat="44.54983" lon="4.41237">
        <ele>163.5</ele>
        <time>2022-06-10T14:56:31Z</time>
      </trkpt>
      <trkpt lat="44.54984" lon="4.41237">
        <ele>163.5</ele>
        <time>2022-06-10T14:56:33Z</time>
      </trkpt>
      <trkpt lat="44.54984" lon="4.41237">
        <ele>163.5</ele>
        <time>2022-06-10T14:56:34Z</time>
      </trkpt>
      <trkpt lat="44.54985" lon="4.41237">
        <ele>163.5</ele>
        <time>2022-06-10T14:56:35Z</time>
      </trkpt>
      <trkpt lat="44.54985" lon="4.41237">
        <ele>163.5</ele>
        <time>2022-06-10T14:56:36Z</time>
      </trkpt>
      <trkpt lat="44.54985" lon="4.41237">
        <ele>163.5</ele>
        <time>2022-06-10T14:56:46Z</time>
      </trkpt>
      <trkpt lat="44.54986" lon="4.41237">
        <ele>163.5</ele>
        <time>2022-06-10T14:56:47Z</time>
      </trkpt>
      <trkpt lat="44.54986" lon="4.41237">
        <ele>163.5</ele>
        <time>2022-06-10T14:56:48Z</time>
      </trkpt>
      <trkpt lat="44.54987" lon="4.41237">
        <ele>163.5</ele>
        <time>2022-06-10T14:56:49Z</time>
      </trkpt>
      <trkpt lat="44.54987" lon="4.41237">
        <ele>163.5</ele>
        <time>2022-06-10T14:56:50Z</time>
      </trkpt>
      <trkpt lat="44.54988" lon="4.41237">
        <ele>163.5</ele>
        <time>2022-06-10T14:56:51Z</time>
      </trkpt>
      <trkpt lat="44.54988" lon="4.41237">
        <ele>163.5</ele>
        <time>2022-06-10T14:56:52Z</time>
      </trkpt>
      <trkpt lat="44.54989" lon="4.41237">
        <ele>163.5</ele>
        <time>2022-06-10T14:56:53Z</time>
      </trkpt>
      <trkpt lat="44.54989" lon="4.41237">
        <ele>163.5</ele>
        <time>2022-06-10T14:56:54Z</time>
      </trkpt>
      <trkpt lat="44.5499" lon="4.41237">
        <ele>163.5</ele>
        <time>2022-06-10T14:56:55Z</time>
      </trkpt>
      <trkpt lat="44.5499" lon="4.41237">
        <ele>163.5</ele>
        <time>2022-06-10T14:56:56Z</time>
      </trkpt>
      <trkpt lat="44.54991" lon="4.41237">
        <ele>163.5</ele>
        <time>2022-06-10T14:56:57Z</time>
      </trkpt>
      <trkpt lat="44.54991" lon="4.41237">
        <ele>163.5</ele>
        <time>2022-06-10T14:56:58Z</time>
      </trkpt>
      <trkpt lat="44.54992" lon="4.41237">
        <ele>163.5</ele>
        <time>2022-06-10T14:56:59Z</time>
      </trkpt>
      <trkpt lat="44.54992" lon="4.41237">
        <ele>163.5</ele>
        <time>2022-06-10T14:57:42Z</time>
      </trkpt>
      <trkpt lat="44.54992" lon="4.41237">
        <ele>163.5</ele>
        <time>2022-06-10T14:57:43Z</time>
      </trkpt>
      <trkpt lat="44.54993" lon="4.41237">
        <ele>163.5</ele>
        <time>2022-06-10T14:57:44Z</time>
      </trkpt>
      <trkpt lat="44.54996" lon="4.41237">
        <ele>163.5</ele>
        <time>2022-06-10T14:57:46Z</time>
      </trkpt>
      <trkpt lat="44.54999" lon="4.41239">
        <ele>163.5</ele>
        <time>2022-06-10T14:57:47Z</time>
      </trkpt>
      <trkpt lat="44.55001" lon="4.41241">
        <ele>163.5</ele>
        <time>2022-06-10T14:57:48Z</time>
      </trkpt>
      <trkpt lat="44.55004" lon="4.41244">
        <ele>163.5</ele>
        <time>2022-06-10T14:57:49Z</time>
      </trkpt>
      <trkpt lat="44.55008" lon="4.41248">
        <ele>163.5</ele>
        <time>2022-06-10T14:57:50Z</time>
      </trkpt>
      <trkpt lat="44.55012" lon="4.41251">
        <ele>163.5</ele>
        <time>2022-06-10T14:57:51Z</time>
      </trkpt>
      <trkpt lat="44.55015" lon="4.41253">
        <ele>163.5</ele>
        <time>2022-06-10T14:57:52Z</time>
      </trkpt>
      <trkpt lat="44.55019" lon="4.41256">
        <ele>163.5</ele>
        <time>2022-06-10T14:57:53Z</time>
      </trkpt>
      <trkpt lat="44.55022" lon="4.41259">
        <ele>163.5</ele>
        <time>2022-06-10T14:57:54Z</time>
      </trkpt>
      <trkpt lat="44.55025" lon="4.41261">
        <ele>163.5</ele>
        <time>2022-06-10T14:57:55Z</time>
      </trkpt>
      <trkpt lat="44.55028" lon="4.41263">
        <ele>163.5</ele>
        <time>2022-06-10T14:57:56Z</time>
      </trkpt>
      <trkpt lat="44.55029" lon="4.41264">
        <ele>163.4</ele>
        <time>2022-06-10T14:57:57Z</time>
      </trkpt>
      <trkpt lat="44.55034" lon="4.41268">
        <ele>163.3</ele>
        <time>2022-06-10T14:57:59Z</time>
      </trkpt>
      <trkpt lat="44.55034" lon="4.41269">
        <ele>163.3</ele>
        <time>2022-06-10T14:58:00Z</time>
      </trkpt>
      <trkpt lat="44.55035" lon="4.4127">
        <ele>163.3</ele>
        <time>2022-06-10T14:58:01Z</time>
      </trkpt>
      <trkpt lat="44.55035" lon="4.4127">
        <ele>163.3</ele>
        <time>2022-06-10T14:58:02Z</time>
      </trkpt>
      <trkpt lat="44.55035" lon="4.4127">
        <ele>163.3</ele>
        <time>2022-06-10T14:58:03Z</time>
      </trkpt>
      <trkpt lat="44.55035" lon="4.4127">
        <ele>163.3</ele>
        <time>2022-06-10T14:58:04Z</time>
      </trkpt>
      <trkpt lat="44.55035" lon="4.4127">
        <ele>163.3</ele>
        <time>2022-06-10T14:58:05Z</time>
      </trkpt>
      <trkpt lat="44.55035" lon="4.4127">
        <ele>163.3</ele>
        <time>2022-06-10T14:58:06Z</time>
      </trkpt>
      <trkpt lat="44.55035" lon="4.41271">
        <ele>163.3</ele>
        <time>2022-06-10T14:58:07Z</time>
      </trkpt>
      <trkpt lat="44.55035" lon="4.41271">
        <ele>163.3</ele>
        <time>2022-06-10T14:58:08Z</time>
      </trkpt>
      <trkpt lat="44.55035" lon="4.41271">
        <ele>163.3</ele>
        <time>2022-06-10T14:58:09Z</time>
      </trkpt>
      <trkpt lat="44.55035" lon="4.41271">
        <ele>163.3</ele>
        <time>2022-06-10T14:58:10Z</time>
      </trkpt>
      <trkpt lat="44.55035" lon="4.41271">
        <ele>163.3</ele>
        <time>2022-06-10T14:58:12Z</time>
      </trkpt>
      <trkpt lat="44.55038" lon="4.41272">
        <ele>163.2</ele>
        <time>2022-06-10T14:58:27Z</time>
      </trkpt>
      <trkpt lat="44.5504" lon="4.41274">
        <ele>163.1</ele>
        <time>2022-06-10T14:58:28Z</time>
      </trkpt>
      <trkpt lat="44.55043" lon="4.41276">
        <ele>163</ele>
        <time>2022-06-10T14:58:29Z</time>
      </trkpt>
      <trkpt lat="44.55046" lon="4.41279">
        <ele>162.9</ele>
        <time>2022-06-10T14:58:30Z</time>
      </trkpt>
      <trkpt lat="44.5505" lon="4.41282">
        <ele>162.8</ele>
        <time>2022-06-10T14:58:31Z</time>
      </trkpt>
      <trkpt lat="44.55056" lon="4.41287">
        <ele>162.5</ele>
        <time>2022-06-10T14:58:32Z</time>
      </trkpt>
      <trkpt lat="44.5506" lon="4.41291">
        <ele>162.3</ele>
        <time>2022-06-10T14:58:34Z</time>
      </trkpt>
      <trkpt lat="44.55066" lon="4.41299">
        <ele>162</ele>
        <time>2022-06-10T14:58:35Z</time>
      </trkpt>
      <trkpt lat="44.55069" lon="4.41309">
        <ele>161.7</ele>
        <time>2022-06-10T14:58:37Z</time>
      </trkpt>
      <trkpt lat="44.55072" lon="4.41315">
        <ele>161.4</ele>
        <time>2022-06-10T14:58:38Z</time>
      </trkpt>
      <trkpt lat="44.55075" lon="4.41321">
        <ele>161.2</ele>
        <time>2022-06-10T14:58:39Z</time>
      </trkpt>
      <trkpt lat="44.55079" lon="4.41327">
        <ele>161.1</ele>
        <time>2022-06-10T14:58:40Z</time>
      </trkpt>
      <trkpt lat="44.55082" lon="4.41334">
        <ele>160.9</ele>
        <time>2022-06-10T14:58:41Z</time>
      </trkpt>
      <trkpt lat="44.55086" lon="4.41341">
        <ele>160.7</ele>
        <time>2022-06-10T14:58:42Z</time>
      </trkpt>
      <trkpt lat="44.55089" lon="4.41347">
        <ele>160.6</ele>
        <time>2022-06-10T14:58:43Z</time>
      </trkpt>
      <trkpt lat="44.55093" lon="4.41352">
        <ele>160.6</ele>
        <time>2022-06-10T14:58:44Z</time>
      </trkpt>
      <trkpt lat="44.55097" lon="4.41359">
        <ele>160.5</ele>
        <time>2022-06-10T14:58:45Z</time>
      </trkpt>
      <trkpt lat="44.55101" lon="4.41366">
        <ele>160.5</ele>
        <time>2022-06-10T14:58:46Z</time>
      </trkpt>
      <trkpt lat="44.55103" lon="4.41374">
        <ele>160.5</ele>
        <time>2022-06-10T14:58:47Z</time>
      </trkpt>
      <trkpt lat="44.55104" lon="4.41382">
        <ele>160.4</ele>
        <time>2022-06-10T14:58:48Z</time>
      </trkpt>
      <trkpt lat="44.55104" lon="4.41389">
        <ele>160.2</ele>
        <time>2022-06-10T14:58:49Z</time>
      </trkpt>
      <trkpt lat="44.55103" lon="4.41395">
        <ele>160.1</ele>
        <time>2022-06-10T14:58:50Z</time>
      </trkpt>
      <trkpt lat="44.55102" lon="4.41399">
        <ele>160</ele>
        <time>2022-06-10T14:58:51Z</time>
      </trkpt>
      <trkpt lat="44.55097" lon="4.41403">
        <ele>159.8</ele>
        <time>2022-06-10T14:58:52Z</time>
      </trkpt>
      <trkpt lat="44.55092" lon="4.41404">
        <ele>159.7</ele>
        <time>2022-06-10T14:58:53Z</time>
      </trkpt>
      <trkpt lat="44.55087" lon="4.41407">
        <ele>159.5</ele>
        <time>2022-06-10T14:58:54Z</time>
      </trkpt>
      <trkpt lat="44.55084" lon="4.41411">
        <ele>159.4</ele>
        <time>2022-06-10T14:58:55Z</time>
      </trkpt>
      <trkpt lat="44.5508" lon="4.41415">
        <ele>159.2</ele>
        <time>2022-06-10T14:58:56Z</time>
      </trkpt>
      <trkpt lat="44.55075" lon="4.41418">
        <ele>159</ele>
        <time>2022-06-10T14:58:57Z</time>
      </trkpt>
      <trkpt lat="44.5507" lon="4.41422">
        <ele>158.9</ele>
        <time>2022-06-10T14:58:58Z</time>
      </trkpt>
      <trkpt lat="44.55066" lon="4.41426">
        <ele>158.7</ele>
        <time>2022-06-10T14:58:59Z</time>
      </trkpt>
      <trkpt lat="44.55062" lon="4.4143">
        <ele>158.5</ele>
        <time>2022-06-10T14:59:00Z</time>
      </trkpt>
      <trkpt lat="44.55058" lon="4.41433">
        <ele>158.4</ele>
        <time>2022-06-10T14:59:01Z</time>
      </trkpt>
      <trkpt lat="44.55054" lon="4.41436">
        <ele>158.3</ele>
        <time>2022-06-10T14:59:02Z</time>
      </trkpt>
      <trkpt lat="44.55055" lon="4.4143">
        <ele>158.1</ele>
        <time>2022-06-10T14:59:03Z</time>
      </trkpt>
      <trkpt lat="44.55051" lon="4.41436">
        <ele>157.9</ele>
        <time>2022-06-10T14:59:05Z</time>
      </trkpt>
      <trkpt lat="44.55045" lon="4.41446">
        <ele>157.6</ele>
        <time>2022-06-10T14:59:06Z</time>
      </trkpt>
      <trkpt lat="44.5504" lon="4.41449">
        <ele>157.3</ele>
        <time>2022-06-10T14:59:08Z</time>
      </trkpt>
      <trkpt lat="44.55035" lon="4.41453">
        <ele>157.1</ele>
        <time>2022-06-10T14:59:09Z</time>
      </trkpt>
      <trkpt lat="44.55031" lon="4.41455">
        <ele>156.9</ele>
        <time>2022-06-10T14:59:10Z</time>
      </trkpt>
      <trkpt lat="44.55028" lon="4.41458">
        <ele>156.7</ele>
        <time>2022-06-10T14:59:11Z</time>
      </trkpt>
      <trkpt lat="44.55024" lon="4.41462">
        <ele>156.5</ele>
        <time>2022-06-10T14:59:13Z</time>
      </trkpt>
      <trkpt lat="44.5502" lon="4.41465">
        <ele>156.4</ele>
        <time>2022-06-10T14:59:14Z</time>
      </trkpt>
      <trkpt lat="44.55018" lon="4.41468">
        <ele>156.2</ele>
        <time>2022-06-10T14:59:15Z</time>
      </trkpt>
      <trkpt lat="44.55012" lon="4.41472">
        <ele>156</ele>
        <time>2022-06-10T14:59:17Z</time>
      </trkpt>
      <trkpt lat="44.55007" lon="4.41475">
        <ele>155.9</ele>
        <time>2022-06-10T14:59:18Z</time>
      </trkpt>
      <trkpt lat="44.55003" lon="4.41477">
        <ele>155.9</ele>
        <time>2022-06-10T14:59:19Z</time>
      </trkpt>
      <trkpt lat="44.55" lon="4.41481">
        <ele>155.8</ele>
        <time>2022-06-10T14:59:21Z</time>
      </trkpt>
      <trkpt lat="44.54999" lon="4.41482">
        <ele>155.8</ele>
        <time>2022-06-10T14:59:22Z</time>
      </trkpt>
      <trkpt lat="44.54998" lon="4.41483">
        <ele>155.8</ele>
        <time>2022-06-10T14:59:23Z</time>
      </trkpt>
      <trkpt lat="44.54994" lon="4.41486">
        <ele>155.7</ele>
        <time>2022-06-10T14:59:24Z</time>
      </trkpt>
      <trkpt lat="44.54993" lon="4.41486">
        <ele>155.7</ele>
        <time>2022-06-10T14:59:25Z</time>
      </trkpt>
      <trkpt lat="44.5499" lon="4.41489">
        <ele>155.6</ele>
        <time>2022-06-10T14:59:26Z</time>
      </trkpt>
      <trkpt lat="44.54989" lon="4.4149">
        <ele>155.6</ele>
        <time>2022-06-10T14:59:27Z</time>
      </trkpt>
      <trkpt lat="44.54986" lon="4.41492">
        <ele>155.5</ele>
        <time>2022-06-10T14:59:28Z</time>
      </trkpt>
      <trkpt lat="44.54984" lon="4.41495">
        <ele>155.5</ele>
        <time>2022-06-10T14:59:29Z</time>
      </trkpt>
      <trkpt lat="44.5498" lon="4.41501">
        <ele>155.4</ele>
        <time>2022-06-10T14:59:30Z</time>
      </trkpt>
      <trkpt lat="44.54978" lon="4.41503">
        <ele>155.4</ele>
        <time>2022-06-10T14:59:31Z</time>
      </trkpt>
      <trkpt lat="44.54975" lon="4.41505">
        <ele>155.3</ele>
        <time>2022-06-10T14:59:32Z</time>
      </trkpt>
      <trkpt lat="44.54973" lon="4.41507">
        <ele>155.3</ele>
        <time>2022-06-10T14:59:33Z</time>
      </trkpt>
      <trkpt lat="44.5497" lon="4.4151">
        <ele>155.3</ele>
        <time>2022-06-10T14:59:35Z</time>
      </trkpt>
      <trkpt lat="44.54967" lon="4.41512">
        <ele>155.2</ele>
        <time>2022-06-10T14:59:36Z</time>
      </trkpt>
      <trkpt lat="44.54964" lon="4.41514">
        <ele>155.2</ele>
        <time>2022-06-10T14:59:37Z</time>
      </trkpt>
      <trkpt lat="44.54961" lon="4.41515">
        <ele>155.1</ele>
        <time>2022-06-10T14:59:38Z</time>
      </trkpt>
      <trkpt lat="44.54955" lon="4.4152">
        <ele>155.1</ele>
        <time>2022-06-10T14:59:39Z</time>
      </trkpt>
      <trkpt lat="44.54952" lon="4.41522">
        <ele>155</ele>
        <time>2022-06-10T14:59:41Z</time>
      </trkpt>
      <trkpt lat="44.54949" lon="4.41524">
        <ele>155</ele>
        <time>2022-06-10T14:59:42Z</time>
      </trkpt>
      <trkpt lat="44.54947" lon="4.41526">
        <ele>155</ele>
        <time>2022-06-10T14:59:43Z</time>
      </trkpt>
      <trkpt lat="44.54944" lon="4.41527">
        <ele>155</ele>
        <time>2022-06-10T14:59:44Z</time>
      </trkpt>
      <trkpt lat="44.5494" lon="4.41528">
        <ele>155</ele>
        <time>2022-06-10T14:59:45Z</time>
      </trkpt>
      <trkpt lat="44.54939" lon="4.41529">
        <ele>155</ele>
        <time>2022-06-10T14:59:46Z</time>
      </trkpt>
      <trkpt lat="44.54935" lon="4.41532">
        <ele>155</ele>
        <time>2022-06-10T14:59:47Z</time>
      </trkpt>
      <trkpt lat="44.54933" lon="4.41534">
        <ele>155</ele>
        <time>2022-06-10T14:59:48Z</time>
      </trkpt>
      <trkpt lat="44.5493" lon="4.41536">
        <ele>155</ele>
        <time>2022-06-10T14:59:50Z</time>
      </trkpt>
      <trkpt lat="44.54928" lon="4.41538">
        <ele>155</ele>
        <time>2022-06-10T14:59:51Z</time>
      </trkpt>
      <trkpt lat="44.54924" lon="4.41541">
        <ele>155</ele>
        <time>2022-06-10T14:59:53Z</time>
      </trkpt>
      <trkpt lat="44.54921" lon="4.41545">
        <ele>155</ele>
        <time>2022-06-10T14:59:54Z</time>
      </trkpt>
      <trkpt lat="44.54917" lon="4.41549">
        <ele>155</ele>
        <time>2022-06-10T14:59:56Z</time>
      </trkpt>
      <trkpt lat="44.54914" lon="4.41553">
        <ele>155</ele>
        <time>2022-06-10T14:59:57Z</time>
      </trkpt>
      <trkpt lat="44.54911" lon="4.41557">
        <ele>155</ele>
        <time>2022-06-10T14:59:58Z</time>
      </trkpt>
      <trkpt lat="44.54907" lon="4.41561">
        <ele>155</ele>
        <time>2022-06-10T15:00:00Z</time>
      </trkpt>
      <trkpt lat="44.54904" lon="4.41564">
        <ele>155</ele>
        <time>2022-06-10T15:00:01Z</time>
      </trkpt>
      <trkpt lat="44.54902" lon="4.41567">
        <ele>155</ele>
        <time>2022-06-10T15:00:02Z</time>
      </trkpt>
      <trkpt lat="44.549" lon="4.41569">
        <ele>155</ele>
        <time>2022-06-10T15:00:03Z</time>
      </trkpt>
      <trkpt lat="44.54897" lon="4.41572">
        <ele>155</ele>
        <time>2022-06-10T15:00:04Z</time>
      </trkpt>
      <trkpt lat="44.54895" lon="4.41574">
        <ele>155</ele>
        <time>2022-06-10T15:00:05Z</time>
      </trkpt>
      <trkpt lat="44.54891" lon="4.41578">
        <ele>155</ele>
        <time>2022-06-10T15:00:06Z</time>
      </trkpt>
      <trkpt lat="44.54889" lon="4.41579">
        <ele>155</ele>
        <time>2022-06-10T15:00:08Z</time>
      </trkpt>
      <trkpt lat="44.54887" lon="4.4158">
        <ele>155</ele>
        <time>2022-06-10T15:00:09Z</time>
      </trkpt>
      <trkpt lat="44.54886" lon="4.41581">
        <ele>155</ele>
        <time>2022-06-10T15:00:10Z</time>
      </trkpt>
      <trkpt lat="44.54886" lon="4.41582">
        <ele>155</ele>
        <time>2022-06-10T15:00:11Z</time>
      </trkpt>
      <trkpt lat="44.54886" lon="4.41581">
        <ele>155</ele>
        <time>2022-06-10T15:00:12Z</time>
      </trkpt>
      <trkpt lat="44.54887" lon="4.4158">
        <ele>155</ele>
        <time>2022-06-10T15:00:13Z</time>
      </trkpt>
      <trkpt lat="44.54887" lon="4.4158">
        <ele>155</ele>
        <time>2022-06-10T15:00:14Z</time>
      </trkpt>
      <trkpt lat="44.54887" lon="4.4158">
        <ele>155</ele>
        <time>2022-06-10T15:00:15Z</time>
      </trkpt>
      <trkpt lat="44.54887" lon="4.4158">
        <ele>155</ele>
        <time>2022-06-10T15:00:16Z</time>
      </trkpt>
      <trkpt lat="44.54887" lon="4.4158">
        <ele>155</ele>
        <time>2022-06-10T15:00:17Z</time>
      </trkpt>
      <trkpt lat="44.54887" lon="4.4158">
        <ele>155</ele>
        <time>2022-06-10T15:00:18Z</time>
      </trkpt>
      <trkpt lat="44.54887" lon="4.4158">
        <ele>155</ele>
        <time>2022-06-10T15:00:19Z</time>
      </trkpt>
      <trkpt lat="44.54887" lon="4.4158">
        <ele>155</ele>
        <time>2022-06-10T15:00:20Z</time>
      </trkpt>
      <trkpt lat="44.54887" lon="4.4158">
        <ele>155</ele>
        <time>2022-06-10T15:00:21Z</time>
      </trkpt>
      <trkpt lat="44.54886" lon="4.41584">
        <ele>155</ele>
        <time>2022-06-10T15:00:29Z</time>
      </trkpt>
      <trkpt lat="44.54886" lon="4.41586">
        <ele>155</ele>
        <time>2022-06-10T15:00:30Z</time>
      </trkpt>
      <trkpt lat="44.54887" lon="4.41587">
        <ele>155</ele>
        <time>2022-06-10T15:00:31Z</time>
      </trkpt>
      <trkpt lat="44.54888" lon="4.41588">
        <ele>155</ele>
        <time>2022-06-10T15:00:32Z</time>
      </trkpt>
      <trkpt lat="44.54889" lon="4.41588">
        <ele>155</ele>
        <time>2022-06-10T15:00:33Z</time>
      </trkpt>
      <trkpt lat="44.5489" lon="4.41588">
        <ele>155</ele>
        <time>2022-06-10T15:00:34Z</time>
      </trkpt>
      <trkpt lat="44.54891" lon="4.41589">
        <ele>155</ele>
        <time>2022-06-10T15:00:35Z</time>
      </trkpt>
      <trkpt lat="44.54891" lon="4.41589">
        <ele>155</ele>
        <time>2022-06-10T15:00:36Z</time>
      </trkpt>
      <trkpt lat="44.54894" lon="4.41588">
        <ele>155</ele>
        <time>2022-06-10T15:00:37Z</time>
      </trkpt>
      <trkpt lat="44.54895" lon="4.41587">
        <ele>155</ele>
        <time>2022-06-10T15:00:38Z</time>
      </trkpt>
      <trkpt lat="44.54898" lon="4.41584">
        <ele>155</ele>
        <time>2022-06-10T15:00:39Z</time>
      </trkpt>
      <trkpt lat="44.54899" lon="4.41583">
        <ele>155</ele>
        <time>2022-06-10T15:00:40Z</time>
      </trkpt>
      <trkpt lat="44.54902" lon="4.41579">
        <ele>155</ele>
        <time>2022-06-10T15:00:41Z</time>
      </trkpt>
      <trkpt lat="44.54904" lon="4.41576">
        <ele>155</ele>
        <time>2022-06-10T15:00:42Z</time>
      </trkpt>
      <trkpt lat="44.54908" lon="4.41573">
        <ele>155</ele>
        <time>2022-06-10T15:00:43Z</time>
      </trkpt>
      <trkpt lat="44.54909" lon="4.41572">
        <ele>155</ele>
        <time>2022-06-10T15:00:44Z</time>
      </trkpt>
      <trkpt lat="44.54911" lon="4.4157">
        <ele>155</ele>
        <time>2022-06-10T15:00:45Z</time>
      </trkpt>
      <trkpt lat="44.54914" lon="4.41568">
        <ele>155</ele>
        <time>2022-06-10T15:00:46Z</time>
      </trkpt>
      <trkpt lat="44.54916" lon="4.41565">
        <ele>155</ele>
        <time>2022-06-10T15:00:47Z</time>
      </trkpt>
      <trkpt lat="44.54918" lon="4.41562">
        <ele>155</ele>
        <time>2022-06-10T15:00:48Z</time>
      </trkpt>
      <trkpt lat="44.54921" lon="4.41559">
        <ele>155</ele>
        <time>2022-06-10T15:00:49Z</time>
      </trkpt>
      <trkpt lat="44.54924" lon="4.41556">
        <ele>155</ele>
        <time>2022-06-10T15:00:50Z</time>
      </trkpt>
      <trkpt lat="44.54926" lon="4.41553">
        <ele>155</ele>
        <time>2022-06-10T15:00:51Z</time>
      </trkpt>
      <trkpt lat="44.54929" lon="4.41551">
        <ele>155</ele>
        <time>2022-06-10T15:00:52Z</time>
      </trkpt>
      <trkpt lat="44.54931" lon="4.41548">
        <ele>155</ele>
        <time>2022-06-10T15:00:53Z</time>
      </trkpt>
      <trkpt lat="44.54934" lon="4.41545">
        <ele>155</ele>
        <time>2022-06-10T15:00:54Z</time>
      </trkpt>
      <trkpt lat="44.54936" lon="4.41543">
        <ele>155</ele>
        <time>2022-06-10T15:00:55Z</time>
      </trkpt>
      <trkpt lat="44.54938" lon="4.41541">
        <ele>155</ele>
        <time>2022-06-10T15:00:56Z</time>
      </trkpt>
      <trkpt lat="44.5494" lon="4.41539">
        <ele>155</ele>
        <time>2022-06-10T15:00:57Z</time>
      </trkpt>
      <trkpt lat="44.54944" lon="4.41537">
        <ele>155</ele>
        <time>2022-06-10T15:00:58Z</time>
      </trkpt>
      <trkpt lat="44.54945" lon="4.41537">
        <ele>155</ele>
        <time>2022-06-10T15:00:59Z</time>
      </trkpt>
      <trkpt lat="44.54949" lon="4.41536">
        <ele>155</ele>
        <time>2022-06-10T15:01:00Z</time>
      </trkpt>
      <trkpt lat="44.5495" lon="4.41535">
        <ele>155</ele>
        <time>2022-06-10T15:01:01Z</time>
      </trkpt>
      <trkpt lat="44.54953" lon="4.41532">
        <ele>155</ele>
        <time>2022-06-10T15:01:02Z</time>
      </trkpt>
      <trkpt lat="44.54957" lon="4.41529">
        <ele>155.1</ele>
        <time>2022-06-10T15:01:04Z</time>
      </trkpt>
      <trkpt lat="44.54958" lon="4.41528">
        <ele>155.1</ele>
        <time>2022-06-10T15:01:05Z</time>
      </trkpt>
      <trkpt lat="44.54961" lon="4.41526">
        <ele>155.1</ele>
        <time>2022-06-10T15:01:06Z</time>
      </trkpt>
      <trkpt lat="44.54962" lon="4.41525">
        <ele>155.1</ele>
        <time>2022-06-10T15:01:07Z</time>
      </trkpt>
      <trkpt lat="44.54964" lon="4.41524">
        <ele>155.1</ele>
        <time>2022-06-10T15:01:08Z</time>
      </trkpt>
      <trkpt lat="44.54965" lon="4.41524">
        <ele>155.2</ele>
        <time>2022-06-10T15:01:09Z</time>
      </trkpt>
      <trkpt lat="44.54968" lon="4.41523">
        <ele>155.2</ele>
        <time>2022-06-10T15:01:10Z</time>
      </trkpt>
      <trkpt lat="44.54969" lon="4.41523">
        <ele>155.2</ele>
        <time>2022-06-10T15:01:11Z</time>
      </trkpt>
      <trkpt lat="44.54972" lon="4.41521">
        <ele>155.2</ele>
        <time>2022-06-10T15:01:12Z</time>
      </trkpt>
      <trkpt lat="44.54975" lon="4.4152">
        <ele>155.3</ele>
        <time>2022-06-10T15:01:13Z</time>
      </trkpt>
      <trkpt lat="44.54977" lon="4.41519">
        <ele>155.3</ele>
        <time>2022-06-10T15:01:14Z</time>
      </trkpt>
      <trkpt lat="44.54978" lon="4.41518">
        <ele>155.3</ele>
        <time>2022-06-10T15:01:15Z</time>
      </trkpt>
      <trkpt lat="44.54981" lon="4.41516">
        <ele>155.4</ele>
        <time>2022-06-10T15:01:16Z</time>
      </trkpt>
      <trkpt lat="44.54983" lon="4.41514">
        <ele>155.4</ele>
        <time>2022-06-10T15:01:17Z</time>
      </trkpt>
      <trkpt lat="44.54986" lon="4.41511">
        <ele>155.4</ele>
        <time>2022-06-10T15:01:18Z</time>
      </trkpt>
      <trkpt lat="44.54987" lon="4.4151">
        <ele>155.5</ele>
        <time>2022-06-10T15:01:19Z</time>
      </trkpt>
      <trkpt lat="44.5499" lon="4.41507">
        <ele>155.5</ele>
        <time>2022-06-10T15:01:20Z</time>
      </trkpt>
      <trkpt lat="44.54991" lon="4.41506">
        <ele>155.5</ele>
        <time>2022-06-10T15:01:21Z</time>
      </trkpt>
      <trkpt lat="44.54993" lon="4.41502">
        <ele>155.6</ele>
        <time>2022-06-10T15:01:22Z</time>
      </trkpt>
      <trkpt lat="44.54994" lon="4.41501">
        <ele>155.6</ele>
        <time>2022-06-10T15:01:23Z</time>
      </trkpt>
      <trkpt lat="44.54996" lon="4.41499">
        <ele>155.6</ele>
        <time>2022-06-10T15:01:24Z</time>
      </trkpt>
      <trkpt lat="44.54997" lon="4.41498">
        <ele>155.6</ele>
        <time>2022-06-10T15:01:25Z</time>
      </trkpt>
      <trkpt lat="44.54997" lon="4.41498">
        <ele>155.6</ele>
        <time>2022-06-10T15:01:26Z</time>
      </trkpt>
      <trkpt lat="44.54998" lon="4.41497">
        <ele>155.6</ele>
        <time>2022-06-10T15:01:27Z</time>
      </trkpt>
      <trkpt lat="44.54998" lon="4.41498">
        <ele>155.6</ele>
        <time>2022-06-10T15:01:28Z</time>
      </trkpt>
      <trkpt lat="44.54998" lon="4.41498">
        <ele>155.6</ele>
        <time>2022-06-10T15:01:29Z</time>
      </trkpt>
      <trkpt lat="44.54998" lon="4.41497">
        <ele>155.6</ele>
        <time>2022-06-10T15:01:30Z</time>
      </trkpt>
      <trkpt lat="44.54998" lon="4.41497">
        <ele>155.6</ele>
        <time>2022-06-10T15:01:31Z</time>
      </trkpt>
      <trkpt lat="44.54998" lon="4.41497">
        <ele>155.6</ele>
        <time>2022-06-10T15:01:32Z</time>
      </trkpt>
      <trkpt lat="44.54998" lon="4.41496">
        <ele>155.5</ele>
        <time>2022-06-10T15:01:33Z</time>
      </trkpt>
      <trkpt lat="44.54998" lon="4.41496">
        <ele>155.5</ele>
        <time>2022-06-10T15:01:34Z</time>
      </trkpt>
      <trkpt lat="44.54997" lon="4.41496">
        <ele>155.5</ele>
        <time>2022-06-10T15:01:35Z</time>
      </trkpt>
      <trkpt lat="44.54996" lon="4.41495">
        <ele>155.5</ele>
        <time>2022-06-10T15:01:36Z</time>
      </trkpt>
      <trkpt lat="44.54995" lon="4.41494">
        <ele>155.5</ele>
        <time>2022-06-10T15:01:37Z</time>
      </trkpt>
      <trkpt lat="44.54992" lon="4.41493">
        <ele>155.5</ele>
        <time>2022-06-10T15:01:38Z</time>
      </trkpt>
      <trkpt lat="44.54988" lon="4.41493">
        <ele>155.5</ele>
        <time>2022-06-10T15:01:40Z</time>
      </trkpt>
      <trkpt lat="44.54987" lon="4.41493">
        <ele>155.5</ele>
        <time>2022-06-10T15:01:41Z</time>
      </trkpt>
      <trkpt lat="44.54984" lon="4.41495">
        <ele>155.4</ele>
        <time>2022-06-10T15:01:42Z</time>
      </trkpt>
      <trkpt lat="44.54982" lon="4.41496">
        <ele>155.4</ele>
        <time>2022-06-10T15:01:43Z</time>
      </trkpt>
      <trkpt lat="44.54979" lon="4.41499">
        <ele>155.4</ele>
        <time>2022-06-10T15:01:44Z</time>
      </trkpt>
      <trkpt lat="44.54977" lon="4.41501">
        <ele>155.4</ele>
        <time>2022-06-10T15:01:45Z</time>
      </trkpt>
      <trkpt lat="44.54973" lon="4.41503">
        <ele>155.3</ele>
        <time>2022-06-10T15:01:46Z</time>
      </trkpt>
      <trkpt lat="44.5497" lon="4.41505">
        <ele>155.3</ele>
        <time>2022-06-10T15:01:47Z</time>
      </trkpt>
      <trkpt lat="44.54967" lon="4.41507">
        <ele>155.2</ele>
        <time>2022-06-10T15:01:48Z</time>
      </trkpt>
      <trkpt lat="44.54964" lon="4.41507">
        <ele>155.2</ele>
        <time>2022-06-10T15:01:49Z</time>
      </trkpt>
      <trkpt lat="44.54958" lon="4.41509">
        <ele>155.1</ele>
        <time>2022-06-10T15:01:50Z</time>
      </trkpt>
      <trkpt lat="44.54955" lon="4.41511">
        <ele>155.1</ele>
        <time>2022-06-10T15:01:51Z</time>
      </trkpt>
      <trkpt lat="44.54952" lon="4.41513">
        <ele>155.1</ele>
        <time>2022-06-10T15:01:53Z</time>
      </trkpt>
      <trkpt lat="44.5495" lon="4.41516">
        <ele>155</ele>
        <time>2022-06-10T15:01:54Z</time>
      </trkpt>
      <trkpt lat="44.54948" lon="4.41518">
        <ele>155</ele>
        <time>2022-06-10T15:01:55Z</time>
      </trkpt>
      <trkpt lat="44.54944" lon="4.41521">
        <ele>155</ele>
        <time>2022-06-10T15:01:56Z</time>
      </trkpt>
      <trkpt lat="44.54942" lon="4.41522">
        <ele>155</ele>
        <time>2022-06-10T15:01:57Z</time>
      </trkpt>
      <trkpt lat="44.54939" lon="4.41524">
        <ele>155</ele>
        <time>2022-06-10T15:01:58Z</time>
      </trkpt>
      <trkpt lat="44.54934" lon="4.41528">
        <ele>155</ele>
        <time>2022-06-10T15:02:00Z</time>
      </trkpt>
      <trkpt lat="44.54933" lon="4.41529">
        <ele>155</ele>
        <time>2022-06-10T15:02:01Z</time>
      </trkpt>
      <trkpt lat="44.54931" lon="4.41531">
        <ele>155</ele>
        <time>2022-06-10T15:02:02Z</time>
      </trkpt>
      <trkpt lat="44.54928" lon="4.41534">
        <ele>155</ele>
        <time>2022-06-10T15:02:04Z</time>
      </trkpt>
      <trkpt lat="44.54926" lon="4.41538">
        <ele>155</ele>
        <time>2022-06-10T15:02:05Z</time>
      </trkpt>
      <trkpt lat="44.54924" lon="4.41541">
        <ele>155</ele>
        <time>2022-06-10T15:02:06Z</time>
      </trkpt>
      <trkpt lat="44.54921" lon="4.41544">
        <ele>155</ele>
        <time>2022-06-10T15:02:07Z</time>
      </trkpt>
      <trkpt lat="44.5492" lon="4.41545">
        <ele>155</ele>
        <time>2022-06-10T15:02:08Z</time>
      </trkpt>
      <trkpt lat="44.54917" lon="4.41549">
        <ele>155</ele>
        <time>2022-06-10T15:02:10Z</time>
      </trkpt>
      <trkpt lat="44.54916" lon="4.41552">
        <ele>155</ele>
        <time>2022-06-10T15:02:11Z</time>
      </trkpt>
      <trkpt lat="44.54913" lon="4.41555">
        <ele>155</ele>
        <time>2022-06-10T15:02:13Z</time>
      </trkpt>
      <trkpt lat="44.54911" lon="4.41558">
        <ele>155</ele>
        <time>2022-06-10T15:02:14Z</time>
      </trkpt>
      <trkpt lat="44.54909" lon="4.41561">
        <ele>155</ele>
        <time>2022-06-10T15:02:15Z</time>
      </trkpt>
      <trkpt lat="44.54907" lon="4.41564">
        <ele>155</ele>
        <time>2022-06-10T15:02:16Z</time>
      </trkpt>
      <trkpt lat="44.54904" lon="4.41567">
        <ele>155</ele>
        <time>2022-06-10T15:02:17Z</time>
      </trkpt>
      <trkpt lat="44.54903" lon="4.41569">
        <ele>155</ele>
        <time>2022-06-10T15:02:18Z</time>
      </trkpt>
      <trkpt lat="44.54901" lon="4.41571">
        <ele>155</ele>
        <time>2022-06-10T15:02:19Z</time>
      </trkpt>
      <trkpt lat="44.54898" lon="4.41577">
        <ele>155</ele>
        <time>2022-06-10T15:02:21Z</time>
      </trkpt>
      <trkpt lat="44.54895" lon="4.4158">
        <ele>155</ele>
        <time>2022-06-10T15:02:22Z</time>
      </trkpt>
      <trkpt lat="44.54893" lon="4.41583">
        <ele>155</ele>
        <time>2022-06-10T15:02:23Z</time>
      </trkpt>
      <trkpt lat="44.54891" lon="4.41585">
        <ele>155</ele>
        <time>2022-06-10T15:02:24Z</time>
      </trkpt>
      <trkpt lat="44.54889" lon="4.41587">
        <ele>155</ele>
        <time>2022-06-10T15:02:25Z</time>
      </trkpt>
      <trkpt lat="44.54886" lon="4.4159">
        <ele>155</ele>
        <time>2022-06-10T15:02:26Z</time>
      </trkpt>
      <trkpt lat="44.54884" lon="4.41594">
        <ele>155</ele>
        <time>2022-06-10T15:02:27Z</time>
      </trkpt>
      <trkpt lat="44.54883" lon="4.41595">
        <ele>155</ele>
        <time>2022-06-10T15:02:28Z</time>
      </trkpt>
      <trkpt lat="44.5488" lon="4.41599">
        <ele>155</ele>
        <time>2022-06-10T15:02:29Z</time>
      </trkpt>
      <trkpt lat="44.54879" lon="4.416">
        <ele>155</ele>
        <time>2022-06-10T15:02:30Z</time>
      </trkpt>
      <trkpt lat="44.54877" lon="4.41601">
        <ele>155</ele>
        <time>2022-06-10T15:02:31Z</time>
      </trkpt>
      <trkpt lat="44.54876" lon="4.41603">
        <ele>155</ele>
        <time>2022-06-10T15:02:32Z</time>
      </trkpt>
      <trkpt lat="44.54874" lon="4.41606">
        <ele>155</ele>
        <time>2022-06-10T15:02:33Z</time>
      </trkpt>
      <trkpt lat="44.54873" lon="4.41607">
        <ele>155</ele>
        <time>2022-06-10T15:02:34Z</time>
      </trkpt>
      <trkpt lat="44.54871" lon="4.41608">
        <ele>155</ele>
        <time>2022-06-10T15:02:35Z</time>
      </trkpt>
      <trkpt lat="44.5487" lon="4.41609">
        <ele>155.1</ele>
        <time>2022-06-10T15:02:36Z</time>
      </trkpt>
      <trkpt lat="44.54869" lon="4.41609">
        <ele>155.1</ele>
        <time>2022-06-10T15:02:37Z</time>
      </trkpt>
      <trkpt lat="44.54867" lon="4.4161">
        <ele>155.1</ele>
        <time>2022-06-10T15:02:38Z</time>
      </trkpt>
      <trkpt lat="44.54866" lon="4.41611">
        <ele>155.1</ele>
        <time>2022-06-10T15:02:39Z</time>
      </trkpt>
      <trkpt lat="44.54864" lon="4.41612">
        <ele>155.1</ele>
        <time>2022-06-10T15:02:40Z</time>
      </trkpt>
      <trkpt lat="44.54862" lon="4.41612">
        <ele>155.1</ele>
        <time>2022-06-10T15:02:41Z</time>
      </trkpt>
      <trkpt lat="44.54862" lon="4.41614">
        <ele>155.1</ele>
        <time>2022-06-10T15:02:42Z</time>
      </trkpt>
      <trkpt lat="44.5486" lon="4.41615">
        <ele>155.1</ele>
        <time>2022-06-10T15:02:43Z</time>
      </trkpt>
      <trkpt lat="44.54859" lon="4.41617">
        <ele>155.1</ele>
        <time>2022-06-10T15:02:44Z</time>
      </trkpt>
      <trkpt lat="44.54857" lon="4.41621">
        <ele>155.1</ele>
        <time>2022-06-10T15:02:45Z</time>
      </trkpt>
      <trkpt lat="44.54856" lon="4.41622">
        <ele>155.1</ele>
        <time>2022-06-10T15:02:46Z</time>
      </trkpt>
      <trkpt lat="44.54853" lon="4.41625">
        <ele>155.1</ele>
        <time>2022-06-10T15:02:47Z</time>
      </trkpt>
      <trkpt lat="44.54852" lon="4.41626">
        <ele>155.1</ele>
        <time>2022-06-10T15:02:48Z</time>
      </trkpt>
      <trkpt lat="44.54849" lon="4.41628">
        <ele>155.1</ele>
        <time>2022-06-10T15:02:49Z</time>
      </trkpt>
      <trkpt lat="44.54848" lon="4.41628">
        <ele>155.1</ele>
        <time>2022-06-10T15:02:50Z</time>
      </trkpt>
      <trkpt lat="44.54844" lon="4.4163">
        <ele>155.1</ele>
        <time>2022-06-10T15:02:51Z</time>
      </trkpt>
      <trkpt lat="44.54843" lon="4.41631">
        <ele>155.1</ele>
        <time>2022-06-10T15:02:52Z</time>
      </trkpt>
      <trkpt lat="44.54841" lon="4.41631">
        <ele>155</ele>
        <time>2022-06-10T15:02:53Z</time>
      </trkpt>
      <trkpt lat="44.54838" lon="4.41632">
        <ele>155</ele>
        <time>2022-06-10T15:02:54Z</time>
      </trkpt>
      <trkpt lat="44.54834" lon="4.41632">
        <ele>155</ele>
        <time>2022-06-10T15:02:55Z</time>
      </trkpt>
      <trkpt lat="44.54832" lon="4.41632">
        <ele>155</ele>
        <time>2022-06-10T15:02:56Z</time>
      </trkpt>
      <trkpt lat="44.5483" lon="4.41632">
        <ele>154.9</ele>
        <time>2022-06-10T15:02:57Z</time>
      </trkpt>
      <trkpt lat="44.54827" lon="4.41632">
        <ele>154.9</ele>
        <time>2022-06-10T15:02:58Z</time>
      </trkpt>
      <trkpt lat="44.54823" lon="4.41632">
        <ele>154.9</ele>
        <time>2022-06-10T15:02:59Z</time>
      </trkpt>
      <trkpt lat="44.54822" lon="4.41632">
        <ele>154.8</ele>
        <time>2022-06-10T15:03:00Z</time>
      </trkpt>
      <trkpt lat="44.54819" lon="4.41631">
        <ele>154.8</ele>
        <time>2022-06-10T15:03:01Z</time>
      </trkpt>
      <trkpt lat="44.54814" lon="4.41629">
        <ele>154.8</ele>
        <time>2022-06-10T15:03:02Z</time>
      </trkpt>
      <trkpt lat="44.54813" lon="4.41633">
        <ele>154.7</ele>
        <time>2022-06-10T15:03:04Z</time>
      </trkpt>
      <trkpt lat="44.54813" lon="4.41634">
        <ele>154.7</ele>
        <time>2022-06-10T15:03:05Z</time>
      </trkpt>
      <trkpt lat="44.54814" lon="4.41636">
        <ele>154.8</ele>
        <time>2022-06-10T15:03:06Z</time>
      </trkpt>
      <trkpt lat="44.54816" lon="4.41637">
        <ele>154.8</ele>
        <time>2022-06-10T15:03:07Z</time>
      </trkpt>
      <trkpt lat="44.54819" lon="4.41639">
        <ele>154.8</ele>
        <time>2022-06-10T15:03:08Z</time>
      </trkpt>
      <trkpt lat="44.5482" lon="4.41639">
        <ele>154.8</ele>
        <time>2022-06-10T15:03:09Z</time>
      </trkpt>
      <trkpt lat="44.54823" lon="4.41639">
        <ele>154.9</ele>
        <time>2022-06-10T15:03:10Z</time>
      </trkpt>
      <trkpt lat="44.54826" lon="4.41638">
        <ele>154.9</ele>
        <time>2022-06-10T15:03:11Z</time>
      </trkpt>
      <trkpt lat="44.54828" lon="4.41638">
        <ele>154.9</ele>
        <time>2022-06-10T15:03:12Z</time>
      </trkpt>
      <trkpt lat="44.54831" lon="4.41637">
        <ele>155</ele>
        <time>2022-06-10T15:03:13Z</time>
      </trkpt>
      <trkpt lat="44.54835" lon="4.41636">
        <ele>155</ele>
        <time>2022-06-10T15:03:14Z</time>
      </trkpt>
      <trkpt lat="44.54837" lon="4.41635">
        <ele>155</ele>
        <time>2022-06-10T15:03:15Z</time>
      </trkpt>
      <trkpt lat="44.5484" lon="4.41634">
        <ele>155.1</ele>
        <time>2022-06-10T15:03:16Z</time>
      </trkpt>
      <trkpt lat="44.54843" lon="4.41633">
        <ele>155.1</ele>
        <time>2022-06-10T15:03:17Z</time>
      </trkpt>
      <trkpt lat="44.54847" lon="4.41631">
        <ele>155.1</ele>
        <time>2022-06-10T15:03:18Z</time>
      </trkpt>
      <trkpt lat="44.54849" lon="4.4163">
        <ele>155.1</ele>
        <time>2022-06-10T15:03:19Z</time>
      </trkpt>
      <trkpt lat="44.54853" lon="4.41628">
        <ele>155.1</ele>
        <time>2022-06-10T15:03:20Z</time>
      </trkpt>
      <trkpt lat="44.54856" lon="4.41626">
        <ele>155.1</ele>
        <time>2022-06-10T15:03:21Z</time>
      </trkpt>
      <trkpt lat="44.54858" lon="4.41624">
        <ele>155.1</ele>
        <time>2022-06-10T15:03:22Z</time>
      </trkpt>
      <trkpt lat="44.54863" lon="4.41622">
        <ele>155.1</ele>
        <time>2022-06-10T15:03:23Z</time>
      </trkpt>
      <trkpt lat="44.54866" lon="4.41619">
        <ele>155.1</ele>
        <time>2022-06-10T15:03:24Z</time>
      </trkpt>
      <trkpt lat="44.54869" lon="4.41615">
        <ele>155.1</ele>
        <time>2022-06-10T15:03:25Z</time>
      </trkpt>
      <trkpt lat="44.54872" lon="4.41611">
        <ele>155</ele>
        <time>2022-06-10T15:03:26Z</time>
      </trkpt>
      <trkpt lat="44.54875" lon="4.41607">
        <ele>155</ele>
        <time>2022-06-10T15:03:27Z</time>
      </trkpt>
      <trkpt lat="44.54877" lon="4.41604">
        <ele>155</ele>
        <time>2022-06-10T15:03:28Z</time>
      </trkpt>
      <trkpt lat="44.5488" lon="4.41601">
        <ele>155</ele>
        <time>2022-06-10T15:03:29Z</time>
      </trkpt>
      <trkpt lat="44.54883" lon="4.41599">
        <ele>155</ele>
        <time>2022-06-10T15:03:30Z</time>
      </trkpt>
      <trkpt lat="44.54886" lon="4.41596">
        <ele>155</ele>
        <time>2022-06-10T15:03:31Z</time>
      </trkpt>
      <trkpt lat="44.54887" lon="4.41594">
        <ele>155</ele>
        <time>2022-06-10T15:03:32Z</time>
      </trkpt>
      <trkpt lat="44.5489" lon="4.41592">
        <ele>155</ele>
        <time>2022-06-10T15:03:33Z</time>
      </trkpt>
      <trkpt lat="44.54893" lon="4.41588">
        <ele>155</ele>
        <time>2022-06-10T15:03:34Z</time>
      </trkpt>
      <trkpt lat="44.54896" lon="4.41585">
        <ele>155</ele>
        <time>2022-06-10T15:03:35Z</time>
      </trkpt>
      <trkpt lat="44.54898" lon="4.41583">
        <ele>155</ele>
        <time>2022-06-10T15:03:36Z</time>
      </trkpt>
      <trkpt lat="44.54901" lon="4.41579">
        <ele>155</ele>
        <time>2022-06-10T15:03:37Z</time>
      </trkpt>
      <trkpt lat="44.54904" lon="4.41575">
        <ele>155</ele>
        <time>2022-06-10T15:03:38Z</time>
      </trkpt>
      <trkpt lat="44.54906" lon="4.41573">
        <ele>155</ele>
        <time>2022-06-10T15:03:39Z</time>
      </trkpt>
      <trkpt lat="44.54908" lon="4.4157">
        <ele>155</ele>
        <time>2022-06-10T15:03:40Z</time>
      </trkpt>
      <trkpt lat="44.54911" lon="4.41568">
        <ele>155</ele>
        <time>2022-06-10T15:03:41Z</time>
      </trkpt>
      <trkpt lat="44.54913" lon="4.41564">
        <ele>155</ele>
        <time>2022-06-10T15:03:42Z</time>
      </trkpt>
      <trkpt lat="44.54914" lon="4.41563">
        <ele>155</ele>
        <time>2022-06-10T15:03:43Z</time>
      </trkpt>
      <trkpt lat="44.54913" lon="4.4156">
        <ele>155</ele>
        <time>2022-06-10T15:03:44Z</time>
      </trkpt>
      <trkpt lat="44.54913" lon="4.41559">
        <ele>155</ele>
        <time>2022-06-10T15:03:45Z</time>
      </trkpt>
      <trkpt lat="44.54912" lon="4.41558">
        <ele>155</ele>
        <time>2022-06-10T15:03:46Z</time>
      </trkpt>
      <trkpt lat="44.54911" lon="4.41557">
        <ele>155</ele>
        <time>2022-06-10T15:03:49Z</time>
      </trkpt>
      <trkpt lat="44.54912" lon="4.41557">
        <ele>155</ele>
        <time>2022-06-10T15:03:50Z</time>
      </trkpt>
      <trkpt lat="44.54912" lon="4.41557">
        <ele>155</ele>
        <time>2022-06-10T15:03:51Z</time>
      </trkpt>
      <trkpt lat="44.54913" lon="4.41557">
        <ele>155</ele>
        <time>2022-06-10T15:03:52Z</time>
      </trkpt>
      <trkpt lat="44.54913" lon="4.41557">
        <ele>155</ele>
        <time>2022-06-10T15:03:53Z</time>
      </trkpt>
      <trkpt lat="44.54914" lon="4.41556">
        <ele>155</ele>
        <time>2022-06-10T15:03:54Z</time>
      </trkpt>
      <trkpt lat="44.54916" lon="4.41554">
        <ele>155</ele>
        <time>2022-06-10T15:03:55Z</time>
      </trkpt>
      <trkpt lat="44.54917" lon="4.41553">
        <ele>155</ele>
        <time>2022-06-10T15:03:56Z</time>
      </trkpt>
      <trkpt lat="44.5492" lon="4.4155">
        <ele>155</ele>
        <time>2022-06-10T15:03:57Z</time>
      </trkpt>
      <trkpt lat="44.54921" lon="4.41549">
        <ele>155</ele>
        <time>2022-06-10T15:03:58Z</time>
      </trkpt>
      <trkpt lat="44.54923" lon="4.41547">
        <ele>155</ele>
        <time>2022-06-10T15:03:59Z</time>
      </trkpt>
      <trkpt lat="44.54925" lon="4.41544">
        <ele>155</ele>
        <time>2022-06-10T15:04:00Z</time>
      </trkpt>
      <trkpt lat="44.54927" lon="4.41543">
        <ele>155</ele>
        <time>2022-06-10T15:04:01Z</time>
      </trkpt>
      <trkpt lat="44.54929" lon="4.41541">
        <ele>155</ele>
        <time>2022-06-10T15:04:02Z</time>
      </trkpt>
      <trkpt lat="44.54932" lon="4.41538">
        <ele>155</ele>
        <time>2022-06-10T15:04:03Z</time>
      </trkpt>
      <trkpt lat="44.54933" lon="4.41537">
        <ele>155</ele>
        <time>2022-06-10T15:04:04Z</time>
      </trkpt>
      <trkpt lat="44.54937" lon="4.41535">
        <ele>155</ele>
        <time>2022-06-10T15:04:05Z</time>
      </trkpt>
      <trkpt lat="44.54939" lon="4.41534">
        <ele>155</ele>
        <time>2022-06-10T15:04:07Z</time>
      </trkpt>
      <trkpt lat="44.54943" lon="4.41533">
        <ele>155</ele>
        <time>2022-06-10T15:04:09Z</time>
      </trkpt>
      <trkpt lat="44.54945" lon="4.41531">
        <ele>155</ele>
        <time>2022-06-10T15:04:10Z</time>
      </trkpt>
      <trkpt lat="44.54946" lon="4.4153">
        <ele>155</ele>
        <time>2022-06-10T15:04:11Z</time>
      </trkpt>
      <trkpt lat="44.54949" lon="4.41528">
        <ele>154.9</ele>
        <time>2022-06-10T15:04:12Z</time>
      </trkpt>
      <trkpt lat="44.54949" lon="4.41527">
        <ele>154.8</ele>
        <time>2022-06-10T15:04:13Z</time>
      </trkpt>
      <trkpt lat="44.54948" lon="4.41522">
        <ele>154.6</ele>
        <time>2022-06-10T15:04:14Z</time>
      </trkpt>
      <trkpt lat="44.54946" lon="4.41519">
        <ele>154.5</ele>
        <time>2022-06-10T15:04:15Z</time>
      </trkpt>
      <trkpt lat="44.54946" lon="4.41517">
        <ele>154.4</ele>
        <time>2022-06-10T15:04:17Z</time>
      </trkpt>
      <trkpt lat="44.54946" lon="4.41514">
        <ele>154.2</ele>
        <time>2022-06-10T15:04:18Z</time>
      </trkpt>
      <trkpt lat="44.54945" lon="4.41511">
        <ele>154.1</ele>
        <time>2022-06-10T15:04:20Z</time>
      </trkpt>
      <trkpt lat="44.54945" lon="4.4151">
        <ele>154</ele>
        <time>2022-06-10T15:04:21Z</time>
      </trkpt>
      <trkpt lat="44.54943" lon="4.41508">
        <ele>153.8</ele>
        <time>2022-06-10T15:04:22Z</time>
      </trkpt>
      <trkpt lat="44.54943" lon="4.41506">
        <ele>153.7</ele>
        <time>2022-06-10T15:04:24Z</time>
      </trkpt>
      <trkpt lat="44.54943" lon="4.41506">
        <ele>153.7</ele>
        <time>2022-06-10T15:04:25Z</time>
      </trkpt>
      <trkpt lat="44.54943" lon="4.41506">
        <ele>153.7</ele>
        <time>2022-06-10T15:04:26Z</time>
      </trkpt>
      <trkpt lat="44.54944" lon="4.41506">
        <ele>153.7</ele>
        <time>2022-06-10T15:04:27Z</time>
      </trkpt>
      <trkpt lat="44.54944" lon="4.41506">
        <ele>153.6</ele>
        <time>2022-06-10T15:04:28Z</time>
      </trkpt>
      <trkpt lat="44.54944" lon="4.41506">
        <ele>153.6</ele>
        <time>2022-06-10T15:04:29Z</time>
      </trkpt>
      <trkpt lat="44.54945" lon="4.41506">
        <ele>153.6</ele>
        <time>2022-06-10T15:04:30Z</time>
      </trkpt>
      <trkpt lat="44.54945" lon="4.41506">
        <ele>153.6</ele>
        <time>2022-06-10T15:04:31Z</time>
      </trkpt>
      <trkpt lat="44.54946" lon="4.41506">
        <ele>153.5</ele>
        <time>2022-06-10T15:04:32Z</time>
      </trkpt>
      <trkpt lat="44.54946" lon="4.41506">
        <ele>153.5</ele>
        <time>2022-06-10T15:04:33Z</time>
      </trkpt>
      <trkpt lat="44.54946" lon="4.41506">
        <ele>153.5</ele>
        <time>2022-06-10T15:04:34Z</time>
      </trkpt>
      <trkpt lat="44.54947" lon="4.41506">
        <ele>153.5</ele>
        <time>2022-06-10T15:04:35Z</time>
      </trkpt>
      <trkpt lat="44.54947" lon="4.41506">
        <ele>153.4</ele>
        <time>2022-06-10T15:04:36Z</time>
      </trkpt>
      <trkpt lat="44.54947" lon="4.41506">
        <ele>153.4</ele>
        <time>2022-06-10T15:04:37Z</time>
      </trkpt>
      <trkpt lat="44.54948" lon="4.41506">
        <ele>153.4</ele>
        <time>2022-06-10T15:04:38Z</time>
      </trkpt>
      <trkpt lat="44.54948" lon="4.41506">
        <ele>153.4</ele>
        <time>2022-06-10T15:04:39Z</time>
      </trkpt>
      <trkpt lat="44.54948" lon="4.41506">
        <ele>153.4</ele>
        <time>2022-06-10T15:04:40Z</time>
      </trkpt>
      <trkpt lat="44.54949" lon="4.41506">
        <ele>153.3</ele>
        <time>2022-06-10T15:04:47Z</time>
      </trkpt>
      <trkpt lat="44.54949" lon="4.41506">
        <ele>153.3</ele>
        <time>2022-06-10T15:04:48Z</time>
      </trkpt>
      <trkpt lat="44.54949" lon="4.41506">
        <ele>153.3</ele>
        <time>2022-06-10T15:04:49Z</time>
      </trkpt>
      <trkpt lat="44.54952" lon="4.41505">
        <ele>153.1</ele>
        <time>2022-06-10T15:04:50Z</time>
      </trkpt>
      <trkpt lat="44.54956" lon="4.41501">
        <ele>152.9</ele>
        <time>2022-06-10T15:04:51Z</time>
      </trkpt>
      <trkpt lat="44.54959" lon="4.41498">
        <ele>152.7</ele>
        <time>2022-06-10T15:04:52Z</time>
      </trkpt>
      <trkpt lat="44.54962" lon="4.41494">
        <ele>152.6</ele>
        <time>2022-06-10T15:04:54Z</time>
      </trkpt>
      <trkpt lat="44.54964" lon="4.41489">
        <ele>152.5</ele>
        <time>2022-06-10T15:04:55Z</time>
      </trkpt>
      <trkpt lat="44.54966" lon="4.41485">
        <ele>152.4</ele>
        <time>2022-06-10T15:04:56Z</time>
      </trkpt>
      <trkpt lat="44.54968" lon="4.41481">
        <ele>152.4</ele>
        <time>2022-06-10T15:04:57Z</time>
      </trkpt>
      <trkpt lat="44.5497" lon="4.41473">
        <ele>152.4</ele>
        <time>2022-06-10T15:04:59Z</time>
      </trkpt>
      <trkpt lat="44.5497" lon="4.41468">
        <ele>152.4</ele>
        <time>2022-06-10T15:05:01Z</time>
      </trkpt>
      <trkpt lat="44.54969" lon="4.41466">
        <ele>152.4</ele>
        <time>2022-06-10T15:05:03Z</time>
      </trkpt>
      <trkpt lat="44.54968" lon="4.41465">
        <ele>152.4</ele>
        <time>2022-06-10T15:05:04Z</time>
      </trkpt>
      <trkpt lat="44.54967" lon="4.41465">
        <ele>152.4</ele>
        <time>2022-06-10T15:05:05Z</time>
      </trkpt>
      <trkpt lat="44.54966" lon="4.41464">
        <ele>152.4</ele>
        <time>2022-06-10T15:05:06Z</time>
      </trkpt>
      <trkpt lat="44.54966" lon="4.41464">
        <ele>152.4</ele>
        <time>2022-06-10T15:05:07Z</time>
      </trkpt>
      <trkpt lat="44.54966" lon="4.41464">
        <ele>152.4</ele>
        <time>2022-06-10T15:05:08Z</time>
      </trkpt>
      <trkpt lat="44.54966" lon="4.41464">
        <ele>152.4</ele>
        <time>2022-06-10T15:05:09Z</time>
      </trkpt>
      <trkpt lat="44.54965" lon="4.41464">
        <ele>152.4</ele>
        <time>2022-06-10T15:05:10Z</time>
      </trkpt>
      <trkpt lat="44.54966" lon="4.41464">
        <ele>152.4</ele>
        <time>2022-06-10T15:05:11Z</time>
      </trkpt>
      <trkpt lat="44.54966" lon="4.41464">
        <ele>152.4</ele>
        <time>2022-06-10T15:05:12Z</time>
      </trkpt>
      <trkpt lat="44.54966" lon="4.41464">
        <ele>152.4</ele>
        <time>2022-06-10T15:05:13Z</time>
      </trkpt>
      <trkpt lat="44.54964" lon="4.41464">
        <ele>152.4</ele>
        <time>2022-06-10T15:06:19Z</time>
      </trkpt>
      <trkpt lat="44.54963" lon="4.41463">
        <ele>152.4</ele>
        <time>2022-06-10T15:06:20Z</time>
      </trkpt>
      <trkpt lat="44.54962" lon="4.41463">
        <ele>152.4</ele>
        <time>2022-06-10T15:06:21Z</time>
      </trkpt>
      <trkpt lat="44.54962" lon="4.41462">
        <ele>152.4</ele>
        <time>2022-06-10T15:06:22Z</time>
      </trkpt>
      <trkpt lat="44.54961" lon="4.41462">
        <ele>152.4</ele>
        <time>2022-06-10T15:06:23Z</time>
      </trkpt>
      <trkpt lat="44.54962" lon="4.41462">
        <ele>152.4</ele>
        <time>2022-06-10T15:06:24Z</time>
      </trkpt>
      <trkpt lat="44.54962" lon="4.41462">
        <ele>152.4</ele>
        <time>2022-06-10T15:06:25Z</time>
      </trkpt>
      <trkpt lat="44.54962" lon="4.41462">
        <ele>152.4</ele>
        <time>2022-06-10T15:06:26Z</time>
      </trkpt>
      <trkpt lat="44.54962" lon="4.41462">
        <ele>152.4</ele>
        <time>2022-06-10T15:06:27Z</time>
      </trkpt>
      <trkpt lat="44.54962" lon="4.41461">
        <ele>152.4</ele>
        <time>2022-06-10T15:06:28Z</time>
      </trkpt>
      <trkpt lat="44.54962" lon="4.41461">
        <ele>152.4</ele>
        <time>2022-06-10T15:06:29Z</time>
      </trkpt>
      <trkpt lat="44.54962" lon="4.41461">
        <ele>152.4</ele>
        <time>2022-06-10T15:06:30Z</time>
      </trkpt>
      <trkpt lat="44.54962" lon="4.41461">
        <ele>152.4</ele>
        <time>2022-06-10T15:06:31Z</time>
      </trkpt>
      <trkpt lat="44.54962" lon="4.41461">
        <ele>152.4</ele>
        <time>2022-06-10T15:06:32Z</time>
      </trkpt>
      <trkpt lat="44.54962" lon="4.41461">
        <ele>152.4</ele>
        <time>2022-06-10T15:06:33Z</time>
      </trkpt>
      <trkpt lat="44.54962" lon="4.41461">
        <ele>152.4</ele>
        <time>2022-06-10T15:06:34Z</time>
      </trkpt>
      <trkpt lat="44.54962" lon="4.4146">
        <ele>152.4</ele>
        <time>2022-06-10T15:06:35Z</time>
      </trkpt>
      <trkpt lat="44.54962" lon="4.4146">
        <ele>152.4</ele>
        <time>2022-06-10T15:06:36Z</time>
      </trkpt>
      <trkpt lat="44.54962" lon="4.4146">
        <ele>152.4</ele>
        <time>2022-06-10T15:06:37Z</time>
      </trkpt>
      <trkpt lat="44.54969" lon="4.41455">
        <ele>152.5</ele>
        <time>2022-06-10T15:22:09Z</time>
      </trkpt>
      <trkpt lat="44.5497" lon="4.41452">
        <ele>152.5</ele>
        <time>2022-06-10T15:22:10Z</time>
      </trkpt>
      <trkpt lat="44.54972" lon="4.41449">
        <ele>152.6</ele>
        <time>2022-06-10T15:22:12Z</time>
      </trkpt>
      <trkpt lat="44.54973" lon="4.41448">
        <ele>152.6</ele>
        <time>2022-06-10T15:22:13Z</time>
      </trkpt>
      <trkpt lat="44.54975" lon="4.41445">
        <ele>152.7</ele>
        <time>2022-06-10T15:22:14Z</time>
      </trkpt>
      <trkpt lat="44.54977" lon="4.41443">
        <ele>152.7</ele>
        <time>2022-06-10T15:22:15Z</time>
      </trkpt>
      <trkpt lat="44.54979" lon="4.41441">
        <ele>152.8</ele>
        <time>2022-06-10T15:22:17Z</time>
      </trkpt>
      <trkpt lat="44.5498" lon="4.41438">
        <ele>152.9</ele>
        <time>2022-06-10T15:22:19Z</time>
      </trkpt>
      <trkpt lat="44.54981" lon="4.41436">
        <ele>153</ele>
        <time>2022-06-10T15:22:20Z</time>
      </trkpt>
      <trkpt lat="44.54984" lon="4.41432">
        <ele>153.1</ele>
        <time>2022-06-10T15:22:21Z</time>
      </trkpt>
      <trkpt lat="44.54986" lon="4.41429">
        <ele>153.3</ele>
        <time>2022-06-10T15:22:23Z</time>
      </trkpt>
      <trkpt lat="44.54988" lon="4.41427">
        <ele>153.4</ele>
        <time>2022-06-10T15:22:24Z</time>
      </trkpt>
      <trkpt lat="44.54991" lon="4.41423">
        <ele>153.5</ele>
        <time>2022-06-10T15:22:26Z</time>
      </trkpt>
      <trkpt lat="44.54994" lon="4.41419">
        <ele>153.7</ele>
        <time>2022-06-10T15:22:27Z</time>
      </trkpt>
      <trkpt lat="44.54996" lon="4.41415">
        <ele>153.8</ele>
        <time>2022-06-10T15:22:29Z</time>
      </trkpt>
      <trkpt lat="44.54998" lon="4.41411">
        <ele>153.9</ele>
        <time>2022-06-10T15:22:30Z</time>
      </trkpt>
      <trkpt lat="44.55" lon="4.41407">
        <ele>154</ele>
        <time>2022-06-10T15:22:32Z</time>
      </trkpt>
      <trkpt lat="44.55001" lon="4.41406">
        <ele>154</ele>
        <time>2022-06-10T15:22:33Z</time>
      </trkpt>
      <trkpt lat="44.55003" lon="4.41403">
        <ele>154.1</ele>
        <time>2022-06-10T15:22:34Z</time>
      </trkpt>
      <trkpt lat="44.55004" lon="4.41401">
        <ele>154.1</ele>
        <time>2022-06-10T15:22:35Z</time>
      </trkpt>
      <trkpt lat="44.55008" lon="4.41395">
        <ele>154.2</ele>
        <time>2022-06-10T15:22:36Z</time>
      </trkpt>
      <trkpt lat="44.5501" lon="4.41392">
        <ele>154.2</ele>
        <time>2022-06-10T15:22:38Z</time>
      </trkpt>
      <trkpt lat="44.55011" lon="4.41389">
        <ele>154.2</ele>
        <time>2022-06-10T15:22:39Z</time>
      </trkpt>
      <trkpt lat="44.55013" lon="4.41385">
        <ele>154.2</ele>
        <time>2022-06-10T15:22:40Z</time>
      </trkpt>
      <trkpt lat="44.55015" lon="4.41381">
        <ele>154.3</ele>
        <time>2022-06-10T15:22:41Z</time>
      </trkpt>
      <trkpt lat="44.55017" lon="4.41378">
        <ele>154.3</ele>
        <time>2022-06-10T15:22:42Z</time>
      </trkpt>
      <trkpt lat="44.55018" lon="4.41375">
        <ele>154.3</ele>
        <time>2022-06-10T15:22:43Z</time>
      </trkpt>
      <trkpt lat="44.55021" lon="4.41369">
        <ele>154.3</ele>
        <time>2022-06-10T15:22:44Z</time>
      </trkpt>
      <trkpt lat="44.55023" lon="4.41365">
        <ele>154.3</ele>
        <time>2022-06-10T15:22:45Z</time>
      </trkpt>
      <trkpt lat="44.55025" lon="4.41361">
        <ele>154.2</ele>
        <time>2022-06-10T15:22:46Z</time>
      </trkpt>
      <trkpt lat="44.55027" lon="4.41357">
        <ele>154.2</ele>
        <time>2022-06-10T15:22:47Z</time>
      </trkpt>
      <trkpt lat="44.55028" lon="4.41353">
        <ele>154.2</ele>
        <time>2022-06-10T15:22:48Z</time>
      </trkpt>
      <trkpt lat="44.55031" lon="4.41347">
        <ele>154.2</ele>
        <time>2022-06-10T15:22:49Z</time>
      </trkpt>
      <trkpt lat="44.55032" lon="4.41343">
        <ele>154.2</ele>
        <time>2022-06-10T15:22:50Z</time>
      </trkpt>
      <trkpt lat="44.55034" lon="4.41337">
        <ele>154.2</ele>
        <time>2022-06-10T15:22:52Z</time>
      </trkpt>
      <trkpt lat="44.55036" lon="4.41333">
        <ele>154.2</ele>
        <time>2022-06-10T15:22:53Z</time>
      </trkpt>
      <trkpt lat="44.55038" lon="4.4133">
        <ele>154.2</ele>
        <time>2022-06-10T15:22:54Z</time>
      </trkpt>
      <trkpt lat="44.55039" lon="4.41326">
        <ele>154.2</ele>
        <time>2022-06-10T15:22:55Z</time>
      </trkpt>
      <trkpt lat="44.55041" lon="4.41321">
        <ele>154.2</ele>
        <time>2022-06-10T15:22:56Z</time>
      </trkpt>
      <trkpt lat="44.55042" lon="4.41319">
        <ele>154.2</ele>
        <time>2022-06-10T15:22:57Z</time>
      </trkpt>
      <trkpt lat="44.55044" lon="4.41315">
        <ele>154.2</ele>
        <time>2022-06-10T15:22:58Z</time>
      </trkpt>
      <trkpt lat="44.55044" lon="4.41313">
        <ele>154.2</ele>
        <time>2022-06-10T15:22:59Z</time>
      </trkpt>
      <trkpt lat="44.55046" lon="4.41308">
        <ele>154.4</ele>
        <time>2022-06-10T15:23:00Z</time>
      </trkpt>
      <trkpt lat="44.55048" lon="4.41302">
        <ele>154.5</ele>
        <time>2022-06-10T15:23:02Z</time>
      </trkpt>
      <trkpt lat="44.55049" lon="4.41299">
        <ele>154.6</ele>
        <time>2022-06-10T15:23:03Z</time>
      </trkpt>
      <trkpt lat="44.55052" lon="4.41296">
        <ele>154.7</ele>
        <time>2022-06-10T15:23:04Z</time>
      </trkpt>
      <trkpt lat="44.55056" lon="4.41296">
        <ele>154.7</ele>
        <time>2022-06-10T15:23:05Z</time>
      </trkpt>
      <trkpt lat="44.55058" lon="4.41299">
        <ele>155.1</ele>
        <time>2022-06-10T15:23:07Z</time>
      </trkpt>
      <trkpt lat="44.55059" lon="4.41302">
        <ele>155.2</ele>
        <time>2022-06-10T15:23:08Z</time>
      </trkpt>
      <trkpt lat="44.55059" lon="4.41311">
        <ele>155.4</ele>
        <time>2022-06-10T15:23:09Z</time>
      </trkpt>
      <trkpt lat="44.55059" lon="4.41315">
        <ele>155.5</ele>
        <time>2022-06-10T15:23:10Z</time>
      </trkpt>
      <trkpt lat="44.55057" lon="4.41319">
        <ele>155.6</ele>
        <time>2022-06-10T15:23:12Z</time>
      </trkpt>
      <trkpt lat="44.55055" lon="4.41323">
        <ele>155.7</ele>
        <time>2022-06-10T15:23:13Z</time>
      </trkpt>
      <trkpt lat="44.55055" lon="4.41328">
        <ele>155.8</ele>
        <time>2022-06-10T15:23:14Z</time>
      </trkpt>
      <trkpt lat="44.55055" lon="4.41329">
        <ele>155.8</ele>
        <time>2022-06-10T15:23:15Z</time>
      </trkpt>
      <trkpt lat="44.55054" lon="4.41333">
        <ele>155.9</ele>
        <time>2022-06-10T15:23:16Z</time>
      </trkpt>
      <trkpt lat="44.55054" lon="4.41337">
        <ele>156</ele>
        <time>2022-06-10T15:23:17Z</time>
      </trkpt>
      <trkpt lat="44.55054" lon="4.41342">
        <ele>156.1</ele>
        <time>2022-06-10T15:23:19Z</time>
      </trkpt>
      <trkpt lat="44.55054" lon="4.41343">
        <ele>156.2</ele>
        <time>2022-06-10T15:23:20Z</time>
      </trkpt>
      <trkpt lat="44.55053" lon="4.41347">
        <ele>156.3</ele>
        <time>2022-06-10T15:23:21Z</time>
      </trkpt>
      <trkpt lat="44.55053" lon="4.41351">
        <ele>156.3</ele>
        <time>2022-06-10T15:23:22Z</time>
      </trkpt>
      <trkpt lat="44.55052" lon="4.41356">
        <ele>156.5</ele>
        <time>2022-06-10T15:23:24Z</time>
      </trkpt>
      <trkpt lat="44.55052" lon="4.4136">
        <ele>156.5</ele>
        <time>2022-06-10T15:23:26Z</time>
      </trkpt>
      <trkpt lat="44.55052" lon="4.41365">
        <ele>156.6</ele>
        <time>2022-06-10T15:23:27Z</time>
      </trkpt>
      <trkpt lat="44.55052" lon="4.41367">
        <ele>156.7</ele>
        <time>2022-06-10T15:23:28Z</time>
      </trkpt>
      <trkpt lat="44.55051" lon="4.41372">
        <ele>156.8</ele>
        <time>2022-06-10T15:23:29Z</time>
      </trkpt>
      <trkpt lat="44.55051" lon="4.41375">
        <ele>156.8</ele>
        <time>2022-06-10T15:23:30Z</time>
      </trkpt>
      <trkpt lat="44.5505" lon="4.4138">
        <ele>156.9</ele>
        <time>2022-06-10T15:23:31Z</time>
      </trkpt>
      <trkpt lat="44.5505" lon="4.41382">
        <ele>156.9</ele>
        <time>2022-06-10T15:23:32Z</time>
      </trkpt>
      <trkpt lat="44.5505" lon="4.41386">
        <ele>157</ele>
        <time>2022-06-10T15:23:33Z</time>
      </trkpt>
      <trkpt lat="44.5505" lon="4.41388">
        <ele>157</ele>
        <time>2022-06-10T15:23:34Z</time>
      </trkpt>
      <trkpt lat="44.5505" lon="4.41393">
        <ele>157.1</ele>
        <time>2022-06-10T15:23:36Z</time>
      </trkpt>
      <trkpt lat="44.5505" lon="4.414">
        <ele>157.2</ele>
        <time>2022-06-10T15:23:38Z</time>
      </trkpt>
      <trkpt lat="44.55049" lon="4.41404">
        <ele>157.2</ele>
        <time>2022-06-10T15:23:39Z</time>
      </trkpt>
      <trkpt lat="44.5505" lon="4.41408">
        <ele>157.3</ele>
        <time>2022-06-10T15:23:41Z</time>
      </trkpt>
      <trkpt lat="44.5505" lon="4.41413">
        <ele>157.3</ele>
        <time>2022-06-10T15:23:42Z</time>
      </trkpt>
      <trkpt lat="44.55051" lon="4.41418">
        <ele>157.4</ele>
        <time>2022-06-10T15:23:43Z</time>
      </trkpt>
      <trkpt lat="44.55051" lon="4.41426">
        <ele>157.5</ele>
        <time>2022-06-10T15:23:45Z</time>
      </trkpt>
      <trkpt lat="44.55052" lon="4.41434">
        <ele>157.6</ele>
        <time>2022-06-10T15:23:47Z</time>
      </trkpt>
      <trkpt lat="44.55052" lon="4.41438">
        <ele>157.6</ele>
        <time>2022-06-10T15:23:49Z</time>
      </trkpt>
      <trkpt lat="44.55054" lon="4.41443">
        <ele>157.7</ele>
        <time>2022-06-10T15:23:50Z</time>
      </trkpt>
      <trkpt lat="44.55057" lon="4.41444">
        <ele>158</ele>
        <time>2022-06-10T15:23:51Z</time>
      </trkpt>
      <trkpt lat="44.55057" lon="4.41443">
        <ele>158</ele>
        <time>2022-06-10T15:23:52Z</time>
      </trkpt>
      <trkpt lat="44.5506" lon="4.41442">
        <ele>158.1</ele>
        <time>2022-06-10T15:23:53Z</time>
      </trkpt>
      <trkpt lat="44.55062" lon="4.41439">
        <ele>158.2</ele>
        <time>2022-06-10T15:23:55Z</time>
      </trkpt>
      <trkpt lat="44.55065" lon="4.41436">
        <ele>158.4</ele>
        <time>2022-06-10T15:23:56Z</time>
      </trkpt>
      <trkpt lat="44.55066" lon="4.41435">
        <ele>158.4</ele>
        <time>2022-06-10T15:23:57Z</time>
      </trkpt>
      <trkpt lat="44.55068" lon="4.41433">
        <ele>158.5</ele>
        <time>2022-06-10T15:23:58Z</time>
      </trkpt>
      <trkpt lat="44.5507" lon="4.4143">
        <ele>158.7</ele>
        <time>2022-06-10T15:24:00Z</time>
      </trkpt>
      <trkpt lat="44.55071" lon="4.41429">
        <ele>158.7</ele>
        <time>2022-06-10T15:24:01Z</time>
      </trkpt>
      <trkpt lat="44.55074" lon="4.41426">
        <ele>158.8</ele>
        <time>2022-06-10T15:24:02Z</time>
      </trkpt>
      <trkpt lat="44.55075" lon="4.41425">
        <ele>158.9</ele>
        <time>2022-06-10T15:24:03Z</time>
      </trkpt>
      <trkpt lat="44.55079" lon="4.41421">
        <ele>159.1</ele>
        <time>2022-06-10T15:24:04Z</time>
      </trkpt>
      <trkpt lat="44.55082" lon="4.41419">
        <ele>159.2</ele>
        <time>2022-06-10T15:24:05Z</time>
      </trkpt>
      <trkpt lat="44.55087" lon="4.41414">
        <ele>159.4</ele>
        <time>2022-06-10T15:24:07Z</time>
      </trkpt>
      <trkpt lat="44.55092" lon="4.41409">
        <ele>159.6</ele>
        <time>2022-06-10T15:24:09Z</time>
      </trkpt>
      <trkpt lat="44.55093" lon="4.41407">
        <ele>159.7</ele>
        <time>2022-06-10T15:24:11Z</time>
      </trkpt>
      <trkpt lat="44.55096" lon="4.41404">
        <ele>159.8</ele>
        <time>2022-06-10T15:24:12Z</time>
      </trkpt>
      <trkpt lat="44.55097" lon="4.41403">
        <ele>159.8</ele>
        <time>2022-06-10T15:24:13Z</time>
      </trkpt>
      <trkpt lat="44.55099" lon="4.41399">
        <ele>159.9</ele>
        <time>2022-06-10T15:24:14Z</time>
      </trkpt>
      <trkpt lat="44.551" lon="4.41398">
        <ele>160</ele>
        <time>2022-06-10T15:24:15Z</time>
      </trkpt>
      <trkpt lat="44.55102" lon="4.41396">
        <ele>160.1</ele>
        <time>2022-06-10T15:24:16Z</time>
      </trkpt>
      <trkpt lat="44.55104" lon="4.41392">
        <ele>160.1</ele>
        <time>2022-06-10T15:24:17Z</time>
      </trkpt>
      <trkpt lat="44.55106" lon="4.4139">
        <ele>160.2</ele>
        <time>2022-06-10T15:24:18Z</time>
      </trkpt>
      <trkpt lat="44.55109" lon="4.41385">
        <ele>160.3</ele>
        <time>2022-06-10T15:24:19Z</time>
      </trkpt>
      <trkpt lat="44.55111" lon="4.41381">
        <ele>160.4</ele>
        <time>2022-06-10T15:24:21Z</time>
      </trkpt>
      <trkpt lat="44.55112" lon="4.41378">
        <ele>160.4</ele>
        <time>2022-06-10T15:24:22Z</time>
      </trkpt>
      <trkpt lat="44.55113" lon="4.41374">
        <ele>160.4</ele>
        <time>2022-06-10T15:24:23Z</time>
      </trkpt>
      <trkpt lat="44.55115" lon="4.41371">
        <ele>160.5</ele>
        <time>2022-06-10T15:24:25Z</time>
      </trkpt>
      <trkpt lat="44.55115" lon="4.4137">
        <ele>160.5</ele>
        <time>2022-06-10T15:24:26Z</time>
      </trkpt>
      <trkpt lat="44.55115" lon="4.4137">
        <ele>160.5</ele>
        <time>2022-06-10T15:24:27Z</time>
      </trkpt>
      <trkpt lat="44.55115" lon="4.41371">
        <ele>160.5</ele>
        <time>2022-06-10T15:24:28Z</time>
      </trkpt>
      <trkpt lat="44.55114" lon="4.41372">
        <ele>160.5</ele>
        <time>2022-06-10T15:24:29Z</time>
      </trkpt>
      <trkpt lat="44.55114" lon="4.41372">
        <ele>160.5</ele>
        <time>2022-06-10T15:24:30Z</time>
      </trkpt>
      <trkpt lat="44.55114" lon="4.41372">
        <ele>160.5</ele>
        <time>2022-06-10T15:24:31Z</time>
      </trkpt>
      <trkpt lat="44.55114" lon="4.41372">
        <ele>160.5</ele>
        <time>2022-06-10T15:24:32Z</time>
      </trkpt>
      <trkpt lat="44.55113" lon="4.41371">
        <ele>160.5</ele>
        <time>2022-06-10T15:24:33Z</time>
      </trkpt>
      <trkpt lat="44.55113" lon="4.41371">
        <ele>160.5</ele>
        <time>2022-06-10T15:24:34Z</time>
      </trkpt>
      <trkpt lat="44.55113" lon="4.4137">
        <ele>160.5</ele>
        <time>2022-06-10T15:24:35Z</time>
      </trkpt>
      <trkpt lat="44.55112" lon="4.41368">
        <ele>160.5</ele>
        <time>2022-06-10T15:24:36Z</time>
      </trkpt>
      <trkpt lat="44.55111" lon="4.41367">
        <ele>160.5</ele>
        <time>2022-06-10T15:24:37Z</time>
      </trkpt>
      <trkpt lat="44.5511" lon="4.41366">
        <ele>160.5</ele>
        <time>2022-06-10T15:24:38Z</time>
      </trkpt>
      <trkpt lat="44.55109" lon="4.41366">
        <ele>160.5</ele>
        <time>2022-06-10T15:24:39Z</time>
      </trkpt>
      <trkpt lat="44.55109" lon="4.41365">
        <ele>160.5</ele>
        <time>2022-06-10T15:24:40Z</time>
      </trkpt>
      <trkpt lat="44.55108" lon="4.41364">
        <ele>160.5</ele>
        <time>2022-06-10T15:24:41Z</time>
      </trkpt>
      <trkpt lat="44.55108" lon="4.41364">
        <ele>160.5</ele>
        <time>2022-06-10T15:24:42Z</time>
      </trkpt>
      <trkpt lat="44.55107" lon="4.41363">
        <ele>160.5</ele>
        <time>2022-06-10T15:24:43Z</time>
      </trkpt>
      <trkpt lat="44.55107" lon="4.41363">
        <ele>160.5</ele>
        <time>2022-06-10T15:24:44Z</time>
      </trkpt>
      <trkpt lat="44.55106" lon="4.41362">
        <ele>160.5</ele>
        <time>2022-06-10T15:24:46Z</time>
      </trkpt>
      <trkpt lat="44.55106" lon="4.41362">
        <ele>160.5</ele>
        <time>2022-06-10T15:24:47Z</time>
      </trkpt>
      <trkpt lat="44.55105" lon="4.41361">
        <ele>160.5</ele>
        <time>2022-06-10T15:24:48Z</time>
      </trkpt>
      <trkpt lat="44.55105" lon="4.41361">
        <ele>160.5</ele>
        <time>2022-06-10T15:30:11Z</time>
      </trkpt>
      <trkpt lat="44.55104" lon="4.4136">
        <ele>160.5</ele>
        <time>2022-06-10T15:30:12Z</time>
      </trkpt>
      <trkpt lat="44.55104" lon="4.4136">
        <ele>160.5</ele>
        <time>2022-06-10T15:30:13Z</time>
      </trkpt>
      <trkpt lat="44.55101" lon="4.41356">
        <ele>160.5</ele>
        <time>2022-06-10T15:30:14Z</time>
      </trkpt>
      <trkpt lat="44.55101" lon="4.41354">
        <ele>160.5</ele>
        <time>2022-06-10T15:30:15Z</time>
      </trkpt>
      <trkpt lat="44.55098" lon="4.41349">
        <ele>160.5</ele>
        <time>2022-06-10T15:30:16Z</time>
      </trkpt>
      <trkpt lat="44.55096" lon="4.41346">
        <ele>160.6</ele>
        <time>2022-06-10T15:30:17Z</time>
      </trkpt>
      <trkpt lat="44.55094" lon="4.41342">
        <ele>160.6</ele>
        <time>2022-06-10T15:30:18Z</time>
      </trkpt>
      <trkpt lat="44.55091" lon="4.41338">
        <ele>160.7</ele>
        <time>2022-06-10T15:30:19Z</time>
      </trkpt>
      <trkpt lat="44.55089" lon="4.41334">
        <ele>160.8</ele>
        <time>2022-06-10T15:30:20Z</time>
      </trkpt>
      <trkpt lat="44.55087" lon="4.41331">
        <ele>160.9</ele>
        <time>2022-06-10T15:30:21Z</time>
      </trkpt>
      <trkpt lat="44.55085" lon="4.41327">
        <ele>160.9</ele>
        <time>2022-06-10T15:30:22Z</time>
      </trkpt>
      <trkpt lat="44.55082" lon="4.41321">
        <ele>161.1</ele>
        <time>2022-06-10T15:30:23Z</time>
      </trkpt>
      <trkpt lat="44.5508" lon="4.41318">
        <ele>161.2</ele>
        <time>2022-06-10T15:30:24Z</time>
      </trkpt>
      <trkpt lat="44.55079" lon="4.41313">
        <ele>161.3</ele>
        <time>2022-06-10T15:30:26Z</time>
      </trkpt>
      <trkpt lat="44.55077" lon="4.4131">
        <ele>161.4</ele>
        <time>2022-06-10T15:30:27Z</time>
      </trkpt>
      <trkpt lat="44.55076" lon="4.41307">
        <ele>161.5</ele>
        <time>2022-06-10T15:30:28Z</time>
      </trkpt>
      <trkpt lat="44.55072" lon="4.41301">
        <ele>161.8</ele>
        <time>2022-06-10T15:30:29Z</time>
      </trkpt>
      <trkpt lat="44.55068" lon="4.41296">
        <ele>162</ele>
        <time>2022-06-10T15:30:31Z</time>
      </trkpt>
      <trkpt lat="44.55066" lon="4.41294">
        <ele>162.1</ele>
        <time>2022-06-10T15:30:33Z</time>
      </trkpt>
      <trkpt lat="44.55063" lon="4.41291">
        <ele>162.3</ele>
        <time>2022-06-10T15:30:34Z</time>
      </trkpt>
      <trkpt lat="44.55061" lon="4.4129">
        <ele>162.3</ele>
        <time>2022-06-10T15:30:35Z</time>
      </trkpt>
      <trkpt lat="44.55057" lon="4.41286">
        <ele>162.5</ele>
        <time>2022-06-10T15:30:36Z</time>
      </trkpt>
      <trkpt lat="44.55056" lon="4.41284">
        <ele>162.6</ele>
        <time>2022-06-10T15:30:37Z</time>
      </trkpt>
      <trkpt lat="44.55054" lon="4.41282">
        <ele>162.7</ele>
        <time>2022-06-10T15:30:39Z</time>
      </trkpt>
      <trkpt lat="44.5505" lon="4.41281">
        <ele>162.8</ele>
        <time>2022-06-10T15:30:40Z</time>
      </trkpt>
      <trkpt lat="44.55049" lon="4.4128">
        <ele>162.9</ele>
        <time>2022-06-10T15:30:41Z</time>
      </trkpt>
      <trkpt lat="44.55045" lon="4.41278">
        <ele>163</ele>
        <time>2022-06-10T15:30:42Z</time>
      </trkpt>
      <trkpt lat="44.55044" lon="4.41277">
        <ele>163</ele>
        <time>2022-06-10T15:30:43Z</time>
      </trkpt>
      <trkpt lat="44.55041" lon="4.41275">
        <ele>163.1</ele>
        <time>2022-06-10T15:30:44Z</time>
      </trkpt>
      <trkpt lat="44.5504" lon="4.41274">
        <ele>163.2</ele>
        <time>2022-06-10T15:30:45Z</time>
      </trkpt>
      <trkpt lat="44.55037" lon="4.41272">
        <ele>163.2</ele>
        <time>2022-06-10T15:30:46Z</time>
      </trkpt>
      <trkpt lat="44.55034" lon="4.4127">
        <ele>163.3</ele>
        <time>2022-06-10T15:30:47Z</time>
      </trkpt>
      <trkpt lat="44.55033" lon="4.41269">
        <ele>163.4</ele>
        <time>2022-06-10T15:30:48Z</time>
      </trkpt>
      <trkpt lat="44.55028" lon="4.41266">
        <ele>163.4</ele>
        <time>2022-06-10T15:30:49Z</time>
      </trkpt>
      <trkpt lat="44.55025" lon="4.41262">
        <ele>163.5</ele>
        <time>2022-06-10T15:30:51Z</time>
      </trkpt>
      <trkpt lat="44.55023" lon="4.41261">
        <ele>163.5</ele>
        <time>2022-06-10T15:30:52Z</time>
      </trkpt>
      <trkpt lat="44.55022" lon="4.4126">
        <ele>163.5</ele>
        <time>2022-06-10T15:30:53Z</time>
      </trkpt>
      <trkpt lat="44.55019" lon="4.41259">
        <ele>163.5</ele>
        <time>2022-06-10T15:30:54Z</time>
      </trkpt>
      <trkpt lat="44.55016" lon="4.41258">
        <ele>163.5</ele>
        <time>2022-06-10T15:30:55Z</time>
      </trkpt>
      <trkpt lat="44.55013" lon="4.41255">
        <ele>163.5</ele>
        <time>2022-06-10T15:30:56Z</time>
      </trkpt>
      <trkpt lat="44.5501" lon="4.41253">
        <ele>163.5</ele>
        <time>2022-06-10T15:30:57Z</time>
      </trkpt>
      <trkpt lat="44.55007" lon="4.41251">
        <ele>163.5</ele>
        <time>2022-06-10T15:30:58Z</time>
      </trkpt>
      <trkpt lat="44.55004" lon="4.41249">
        <ele>163.5</ele>
        <time>2022-06-10T15:30:59Z</time>
      </trkpt>
      <trkpt lat="44.55" lon="4.41246">
        <ele>163.5</ele>
        <time>2022-06-10T15:31:00Z</time>
      </trkpt>
      <trkpt lat="44.54996" lon="4.41243">
        <ele>163.5</ele>
        <time>2022-06-10T15:31:01Z</time>
      </trkpt>
      <trkpt lat="44.54992" lon="4.4124">
        <ele>163.5</ele>
        <time>2022-06-10T15:31:03Z</time>
      </trkpt>
      <trkpt lat="44.54988" lon="4.41237">
        <ele>163.5</ele>
        <time>2022-06-10T15:31:04Z</time>
      </trkpt>
      <trkpt lat="44.54984" lon="4.41234">
        <ele>163.5</ele>
        <time>2022-06-10T15:31:05Z</time>
      </trkpt>
      <trkpt lat="44.54979" lon="4.41232">
        <ele>163.5</ele>
        <time>2022-06-10T15:31:07Z</time>
      </trkpt>
      <trkpt lat="44.54974" lon="4.41234">
        <ele>163.3</ele>
        <time>2022-06-10T15:31:09Z</time>
      </trkpt>
      <trkpt lat="44.54971" lon="4.41237">
        <ele>163.2</ele>
        <time>2022-06-10T15:31:10Z</time>
      </trkpt>
      <trkpt lat="44.54969" lon="4.41242">
        <ele>163.1</ele>
        <time>2022-06-10T15:31:11Z</time>
      </trkpt>
      <trkpt lat="44.54965" lon="4.41248">
        <ele>163</ele>
        <time>2022-06-10T15:31:12Z</time>
      </trkpt>
      <trkpt lat="44.54962" lon="4.41253">
        <ele>162.8</ele>
        <time>2022-06-10T15:31:13Z</time>
      </trkpt>
      <trkpt lat="44.54959" lon="4.41259">
        <ele>162.7</ele>
        <time>2022-06-10T15:31:14Z</time>
      </trkpt>
      <trkpt lat="44.54956" lon="4.41264">
        <ele>162.7</ele>
        <time>2022-06-10T15:31:15Z</time>
      </trkpt>
      <trkpt lat="44.54952" lon="4.41269">
        <ele>162.6</ele>
        <time>2022-06-10T15:31:16Z</time>
      </trkpt>
      <trkpt lat="44.54949" lon="4.41273">
        <ele>162.6</ele>
        <time>2022-06-10T15:31:17Z</time>
      </trkpt>
      <trkpt lat="44.54945" lon="4.41278">
        <ele>162.5</ele>
        <time>2022-06-10T15:31:18Z</time>
      </trkpt>
      <trkpt lat="44.54942" lon="4.41282">
        <ele>162.5</ele>
        <time>2022-06-10T15:31:19Z</time>
      </trkpt>
      <trkpt lat="44.54939" lon="4.41287">
        <ele>162.5</ele>
        <time>2022-06-10T15:31:20Z</time>
      </trkpt>
      <trkpt lat="44.54936" lon="4.41291">
        <ele>162.5</ele>
        <time>2022-06-10T15:31:21Z</time>
      </trkpt>
      <trkpt lat="44.54932" lon="4.41296">
        <ele>162.5</ele>
        <time>2022-06-10T15:31:22Z</time>
      </trkpt>
      <trkpt lat="44.54929" lon="4.413">
        <ele>162.5</ele>
        <time>2022-06-10T15:31:23Z</time>
      </trkpt>
      <trkpt lat="44.54926" lon="4.41305">
        <ele>162.6</ele>
        <time>2022-06-10T15:31:24Z</time>
      </trkpt>
      <trkpt lat="44.54922" lon="4.41309">
        <ele>162.6</ele>
        <time>2022-06-10T15:31:25Z</time>
      </trkpt>
      <trkpt lat="44.54919" lon="4.41314">
        <ele>162.7</ele>
        <time>2022-06-10T15:31:26Z</time>
      </trkpt>
      <trkpt lat="44.54916" lon="4.41319">
        <ele>162.8</ele>
        <time>2022-06-10T15:31:27Z</time>
      </trkpt>
      <trkpt lat="44.54913" lon="4.41323">
        <ele>162.9</ele>
        <time>2022-06-10T15:31:28Z</time>
      </trkpt>
      <trkpt lat="44.54909" lon="4.41328">
        <ele>163</ele>
        <time>2022-06-10T15:31:29Z</time>
      </trkpt>
      <trkpt lat="44.54907" lon="4.41331">
        <ele>163.1</ele>
        <time>2022-06-10T15:31:30Z</time>
      </trkpt>
      <trkpt lat="44.54905" lon="4.41335">
        <ele>163.2</ele>
        <time>2022-06-10T15:31:31Z</time>
      </trkpt>
      <trkpt lat="44.54902" lon="4.41339">
        <ele>163.4</ele>
        <time>2022-06-10T15:31:32Z</time>
      </trkpt>
      <trkpt lat="44.54899" lon="4.41343">
        <ele>163.5</ele>
        <time>2022-06-10T15:31:33Z</time>
      </trkpt>
      <trkpt lat="44.54896" lon="4.41347">
        <ele>163.7</ele>
        <time>2022-06-10T15:31:34Z</time>
      </trkpt>
      <trkpt lat="44.54894" lon="4.4135">
        <ele>163.8</ele>
        <time>2022-06-10T15:31:35Z</time>
      </trkpt>
      <trkpt lat="44.54892" lon="4.41354">
        <ele>164</ele>
        <time>2022-06-10T15:31:36Z</time>
      </trkpt>
      <trkpt lat="44.54889" lon="4.41357">
        <ele>164.1</ele>
        <time>2022-06-10T15:31:37Z</time>
      </trkpt>
      <trkpt lat="44.54883" lon="4.41362">
        <ele>164.5</ele>
        <time>2022-06-10T15:31:38Z</time>
      </trkpt>
      <trkpt lat="44.5488" lon="4.41365">
        <ele>164.6</ele>
        <time>2022-06-10T15:31:40Z</time>
      </trkpt>
      <trkpt lat="44.54877" lon="4.41367">
        <ele>164.8</ele>
        <time>2022-06-10T15:31:41Z</time>
      </trkpt>
      <trkpt lat="44.54875" lon="4.4137">
        <ele>164.9</ele>
        <time>2022-06-10T15:31:42Z</time>
      </trkpt>
      <trkpt lat="44.54871" lon="4.41374">
        <ele>165.1</ele>
        <time>2022-06-10T15:31:43Z</time>
      </trkpt>
      <trkpt lat="44.54867" lon="4.41378">
        <ele>165.3</ele>
        <time>2022-06-10T15:31:44Z</time>
      </trkpt>
      <trkpt lat="44.54863" lon="4.4138">
        <ele>165.4</ele>
        <time>2022-06-10T15:31:45Z</time>
      </trkpt>
      <trkpt lat="44.54859" lon="4.41381">
        <ele>165.5</ele>
        <time>2022-06-10T15:31:46Z</time>
      </trkpt>
      <trkpt lat="44.54856" lon="4.41383">
        <ele>165.6</ele>
        <time>2022-06-10T15:31:47Z</time>
      </trkpt>
      <trkpt lat="44.54852" lon="4.41385">
        <ele>165.8</ele>
        <time>2022-06-10T15:31:49Z</time>
      </trkpt>
      <trkpt lat="44.54849" lon="4.41387">
        <ele>165.9</ele>
        <time>2022-06-10T15:31:50Z</time>
      </trkpt>
      <trkpt lat="44.54845" lon="4.41389">
        <ele>165.9</ele>
        <time>2022-06-10T15:31:51Z</time>
      </trkpt>
      <trkpt lat="44.54841" lon="4.4139">
        <ele>166</ele>
        <time>2022-06-10T15:31:52Z</time>
      </trkpt>
      <trkpt lat="44.54838" lon="4.4139">
        <ele>166.1</ele>
        <time>2022-06-10T15:31:53Z</time>
      </trkpt>
      <trkpt lat="44.54832" lon="4.41391">
        <ele>166.2</ele>
        <time>2022-06-10T15:31:54Z</time>
      </trkpt>
      <trkpt lat="44.54829" lon="4.41391">
        <ele>166.3</ele>
        <time>2022-06-10T15:31:56Z</time>
      </trkpt>
      <trkpt lat="44.54825" lon="4.41391">
        <ele>166.4</ele>
        <time>2022-06-10T15:31:57Z</time>
      </trkpt>
      <trkpt lat="44.54822" lon="4.41391">
        <ele>166.4</ele>
        <time>2022-06-10T15:31:58Z</time>
      </trkpt>
      <trkpt lat="44.54818" lon="4.41391">
        <ele>166.5</ele>
        <time>2022-06-10T15:31:59Z</time>
      </trkpt>
      <trkpt lat="44.54812" lon="4.41391">
        <ele>166.6</ele>
        <time>2022-06-10T15:32:00Z</time>
      </trkpt>
      <trkpt lat="44.54808" lon="4.4139">
        <ele>166.6</ele>
        <time>2022-06-10T15:32:01Z</time>
      </trkpt>
      <trkpt lat="44.54803" lon="4.41389">
        <ele>166.7</ele>
        <time>2022-06-10T15:32:02Z</time>
      </trkpt>
      <trkpt lat="44.54799" lon="4.41388">
        <ele>166.7</ele>
        <time>2022-06-10T15:32:04Z</time>
      </trkpt>
      <trkpt lat="44.54794" lon="4.41386">
        <ele>166.7</ele>
        <time>2022-06-10T15:32:05Z</time>
      </trkpt>
      <trkpt lat="44.54789" lon="4.41384">
        <ele>166.7</ele>
        <time>2022-06-10T15:32:06Z</time>
      </trkpt>
      <trkpt lat="44.54786" lon="4.41383">
        <ele>166.7</ele>
        <time>2022-06-10T15:32:07Z</time>
      </trkpt>
      <trkpt lat="44.54781" lon="4.41381">
        <ele>166.7</ele>
        <time>2022-06-10T15:32:08Z</time>
      </trkpt>
      <trkpt lat="44.54777" lon="4.41379">
        <ele>166.7</ele>
        <time>2022-06-10T15:32:09Z</time>
      </trkpt>
      <trkpt lat="44.54771" lon="4.41377">
        <ele>166.7</ele>
        <time>2022-06-10T15:32:11Z</time>
      </trkpt>
      <trkpt lat="44.54766" lon="4.41376">
        <ele>166.7</ele>
        <time>2022-06-10T15:32:12Z</time>
      </trkpt>
      <trkpt lat="44.54762" lon="4.41376">
        <ele>166.7</ele>
        <time>2022-06-10T15:32:13Z</time>
      </trkpt>
      <trkpt lat="44.54757" lon="4.41375">
        <ele>166.7</ele>
        <time>2022-06-10T15:32:14Z</time>
      </trkpt>
      <trkpt lat="44.54753" lon="4.41374">
        <ele>166.7</ele>
        <time>2022-06-10T15:32:15Z</time>
      </trkpt>
      <trkpt lat="44.54747" lon="4.41377">
        <ele>166.7</ele>
        <time>2022-06-10T15:32:16Z</time>
      </trkpt>
      <trkpt lat="44.54742" lon="4.41377">
        <ele>166.7</ele>
        <time>2022-06-10T15:32:17Z</time>
      </trkpt>
      <trkpt lat="44.54736" lon="4.41376">
        <ele>166.8</ele>
        <time>2022-06-10T15:32:18Z</time>
      </trkpt>
      <trkpt lat="44.54731" lon="4.41374">
        <ele>166.9</ele>
        <time>2022-06-10T15:32:19Z</time>
      </trkpt>
      <trkpt lat="44.54727" lon="4.41372">
        <ele>167</ele>
        <time>2022-06-10T15:32:20Z</time>
      </trkpt>
      <trkpt lat="44.54724" lon="4.41371">
        <ele>167.1</ele>
        <time>2022-06-10T15:32:21Z</time>
      </trkpt>
      <trkpt lat="44.5472" lon="4.41366">
        <ele>167.2</ele>
        <time>2022-06-10T15:32:22Z</time>
      </trkpt>
      <trkpt lat="44.54716" lon="4.41357">
        <ele>167.5</ele>
        <time>2022-06-10T15:32:24Z</time>
      </trkpt>
      <trkpt lat="44.54712" lon="4.41353">
        <ele>167.6</ele>
        <time>2022-06-10T15:32:26Z</time>
      </trkpt>
      <trkpt lat="44.5471" lon="4.41349">
        <ele>167.7</ele>
        <time>2022-06-10T15:32:27Z</time>
      </trkpt>
      <trkpt lat="44.54707" lon="4.41345">
        <ele>167.9</ele>
        <time>2022-06-10T15:32:28Z</time>
      </trkpt>
      <trkpt lat="44.54704" lon="4.41342">
        <ele>168.1</ele>
        <time>2022-06-10T15:32:29Z</time>
      </trkpt>
      <trkpt lat="44.54702" lon="4.41338">
        <ele>168.2</ele>
        <time>2022-06-10T15:32:31Z</time>
      </trkpt>
      <trkpt lat="44.547" lon="4.41333">
        <ele>168.4</ele>
        <time>2022-06-10T15:32:32Z</time>
      </trkpt>
      <trkpt lat="44.54698" lon="4.41329">
        <ele>168.5</ele>
        <time>2022-06-10T15:32:33Z</time>
      </trkpt>
      <trkpt lat="44.54697" lon="4.41326">
        <ele>168.7</ele>
        <time>2022-06-10T15:32:35Z</time>
      </trkpt>
      <trkpt lat="44.54695" lon="4.41322">
        <ele>168.8</ele>
        <time>2022-06-10T15:32:36Z</time>
      </trkpt>
      <trkpt lat="44.54694" lon="4.41318">
        <ele>169</ele>
        <time>2022-06-10T15:32:37Z</time>
      </trkpt>
      <trkpt lat="44.54692" lon="4.41313">
        <ele>169.1</ele>
        <time>2022-06-10T15:32:38Z</time>
      </trkpt>
      <trkpt lat="44.54691" lon="4.41311">
        <ele>169.2</ele>
        <time>2022-06-10T15:32:39Z</time>
      </trkpt>
      <trkpt lat="44.54687" lon="4.41306">
        <ele>169.4</ele>
        <time>2022-06-10T15:32:41Z</time>
      </trkpt>
      <trkpt lat="44.54686" lon="4.41304">
        <ele>169.4</ele>
        <time>2022-06-10T15:32:42Z</time>
      </trkpt>
      <trkpt lat="44.54684" lon="4.41303">
        <ele>169.5</ele>
        <time>2022-06-10T15:32:43Z</time>
      </trkpt>
      <trkpt lat="44.54679" lon="4.41297">
        <ele>169.7</ele>
        <time>2022-06-10T15:32:44Z</time>
      </trkpt>
      <trkpt lat="44.54676" lon="4.41294">
        <ele>169.7</ele>
        <time>2022-06-10T15:32:45Z</time>
      </trkpt>
      <trkpt lat="44.54673" lon="4.41291">
        <ele>169.8</ele>
        <time>2022-06-10T15:32:46Z</time>
      </trkpt>
      <trkpt lat="44.54671" lon="4.41287">
        <ele>169.9</ele>
        <time>2022-06-10T15:32:48Z</time>
      </trkpt>
      <trkpt lat="44.54672" lon="4.41281">
        <ele>170.8</ele>
        <time>2022-06-10T15:32:49Z</time>
      </trkpt>
      <trkpt lat="44.54675" lon="4.41285">
        <ele>170.9</ele>
        <time>2022-06-10T15:32:50Z</time>
      </trkpt>
      <trkpt lat="44.54678" lon="4.41288">
        <ele>171</ele>
        <time>2022-06-10T15:32:52Z</time>
      </trkpt>
      <trkpt lat="44.54679" lon="4.41288">
        <ele>171</ele>
        <time>2022-06-10T15:32:53Z</time>
      </trkpt>
      <trkpt lat="44.54681" lon="4.41288">
        <ele>171.1</ele>
        <time>2022-06-10T15:32:54Z</time>
      </trkpt>
      <trkpt lat="44.54682" lon="4.4129">
        <ele>171.3</ele>
        <time>2022-06-10T15:32:55Z</time>
      </trkpt>
      <trkpt lat="44.54683" lon="4.41291">
        <ele>171.5</ele>
        <time>2022-06-10T15:32:56Z</time>
      </trkpt>
      <trkpt lat="44.54685" lon="4.41291">
        <ele>171.6</ele>
        <time>2022-06-10T15:32:57Z</time>
      </trkpt>
      <trkpt lat="44.54688" lon="4.41292">
        <ele>171.9</ele>
        <time>2022-06-10T15:32:58Z</time>
      </trkpt>
      <trkpt lat="44.54691" lon="4.41293">
        <ele>172.1</ele>
        <time>2022-06-10T15:32:59Z</time>
      </trkpt>
      <trkpt lat="44.54692" lon="4.41293">
        <ele>172.2</ele>
        <time>2022-06-10T15:33:01Z</time>
      </trkpt>
      <trkpt lat="44.54695" lon="4.41292">
        <ele>172.5</ele>
        <time>2022-06-10T15:33:02Z</time>
      </trkpt>
      <trkpt lat="44.54696" lon="4.41292">
        <ele>172.6</ele>
        <time>2022-06-10T15:33:03Z</time>
      </trkpt>
      <trkpt lat="44.54699" lon="4.4129">
        <ele>172.9</ele>
        <time>2022-06-10T15:33:04Z</time>
      </trkpt>
      <trkpt lat="44.547" lon="4.4129">
        <ele>173</ele>
        <time>2022-06-10T15:33:05Z</time>
      </trkpt>
      <trkpt lat="44.54702" lon="4.41291">
        <ele>173.1</ele>
        <time>2022-06-10T15:33:06Z</time>
      </trkpt>
      <trkpt lat="44.54703" lon="4.41292">
        <ele>173.3</ele>
        <time>2022-06-10T15:33:07Z</time>
      </trkpt>
      <trkpt lat="44.54706" lon="4.41294">
        <ele>173.5</ele>
        <time>2022-06-10T15:33:08Z</time>
      </trkpt>
      <trkpt lat="44.54707" lon="4.41295">
        <ele>173.6</ele>
        <time>2022-06-10T15:33:09Z</time>
      </trkpt>
      <trkpt lat="44.54709" lon="4.41298">
        <ele>173.9</ele>
        <time>2022-06-10T15:33:10Z</time>
      </trkpt>
      <trkpt lat="44.54709" lon="4.41299">
        <ele>173.9</ele>
        <time>2022-06-10T15:33:11Z</time>
      </trkpt>
      <trkpt lat="44.54711" lon="4.41303">
        <ele>174.2</ele>
        <time>2022-06-10T15:33:12Z</time>
      </trkpt>
      <trkpt lat="44.54711" lon="4.41304">
        <ele>174.3</ele>
        <time>2022-06-10T15:33:13Z</time>
      </trkpt>
      <trkpt lat="44.54714" lon="4.41308">
        <ele>174.6</ele>
        <time>2022-06-10T15:33:14Z</time>
      </trkpt>
      <trkpt lat="44.54715" lon="4.4131">
        <ele>174.7</ele>
        <time>2022-06-10T15:33:15Z</time>
      </trkpt>
      <trkpt lat="44.54718" lon="4.41312">
        <ele>174.7</ele>
        <time>2022-06-10T15:33:17Z</time>
      </trkpt>
      <trkpt lat="44.5472" lon="4.41316">
        <ele>174.7</ele>
        <time>2022-06-10T15:33:18Z</time>
      </trkpt>
      <trkpt lat="44.54721" lon="4.41318">
        <ele>174.7</ele>
        <time>2022-06-10T15:33:19Z</time>
      </trkpt>
      <trkpt lat="44.54718" lon="4.41323">
        <ele>174.7</ele>
        <time>2022-06-10T15:33:21Z</time>
      </trkpt>
      <trkpt lat="44.54716" lon="4.41325">
        <ele>174.7</ele>
        <time>2022-06-10T15:33:22Z</time>
      </trkpt>
      <trkpt lat="44.54714" lon="4.41326">
        <ele>174.6</ele>
        <time>2022-06-10T15:33:23Z</time>
      </trkpt>
      <trkpt lat="44.5471" lon="4.41328">
        <ele>174.6</ele>
        <time>2022-06-10T15:33:24Z</time>
      </trkpt>
      <trkpt lat="44.54706" lon="4.41328">
        <ele>174.6</ele>
        <time>2022-06-10T15:33:25Z</time>
      </trkpt>
      <trkpt lat="44.54701" lon="4.41328">
        <ele>174.5</ele>
        <time>2022-06-10T15:33:26Z</time>
      </trkpt>
      <trkpt lat="44.54696" lon="4.41329">
        <ele>174.5</ele>
        <time>2022-06-10T15:33:28Z</time>
      </trkpt>
      <trkpt lat="44.5469" lon="4.41331">
        <ele>174.4</ele>
        <time>2022-06-10T15:33:29Z</time>
      </trkpt>
      <trkpt lat="44.54684" lon="4.41331">
        <ele>174.3</ele>
        <time>2022-06-10T15:33:30Z</time>
      </trkpt>
      <trkpt lat="44.54679" lon="4.41332">
        <ele>174.3</ele>
        <time>2022-06-10T15:33:32Z</time>
      </trkpt>
      <trkpt lat="44.54671" lon="4.41333">
        <ele>174.2</ele>
        <time>2022-06-10T15:33:33Z</time>
      </trkpt>
      <trkpt lat="44.54663" lon="4.41329">
        <ele>174.1</ele>
        <time>2022-06-10T15:33:35Z</time>
      </trkpt>
      <trkpt lat="44.54658" lon="4.41329">
        <ele>174.1</ele>
        <time>2022-06-10T15:33:36Z</time>
      </trkpt>
      <trkpt lat="44.54653" lon="4.41329">
        <ele>174.1</ele>
        <time>2022-06-10T15:33:37Z</time>
      </trkpt>
      <trkpt lat="44.54648" lon="4.41331">
        <ele>174</ele>
        <time>2022-06-10T15:33:38Z</time>
      </trkpt>
      <trkpt lat="44.54643" lon="4.41332">
        <ele>174</ele>
        <time>2022-06-10T15:33:39Z</time>
      </trkpt>
      <trkpt lat="44.54638" lon="4.41332">
        <ele>174</ele>
        <time>2022-06-10T15:33:40Z</time>
      </trkpt>
      <trkpt lat="44.54633" lon="4.41333">
        <ele>174</ele>
        <time>2022-06-10T15:33:41Z</time>
      </trkpt>
      <trkpt lat="44.54628" lon="4.41334">
        <ele>174</ele>
        <time>2022-06-10T15:33:42Z</time>
      </trkpt>
      <trkpt lat="44.54623" lon="4.41334">
        <ele>173.9</ele>
        <time>2022-06-10T15:33:43Z</time>
      </trkpt>
      <trkpt lat="44.54618" lon="4.41336">
        <ele>173.9</ele>
        <time>2022-06-10T15:33:44Z</time>
      </trkpt>
      <trkpt lat="44.54613" lon="4.41337">
        <ele>173.9</ele>
        <time>2022-06-10T15:33:45Z</time>
      </trkpt>
      <trkpt lat="44.54608" lon="4.41338">
        <ele>173.9</ele>
        <time>2022-06-10T15:33:46Z</time>
      </trkpt>
      <trkpt lat="44.54603" lon="4.4134">
        <ele>173.9</ele>
        <time>2022-06-10T15:33:47Z</time>
      </trkpt>
      <trkpt lat="44.54598" lon="4.41342">
        <ele>173.8</ele>
        <time>2022-06-10T15:33:48Z</time>
      </trkpt>
      <trkpt lat="44.54593" lon="4.41344">
        <ele>173.8</ele>
        <time>2022-06-10T15:33:49Z</time>
      </trkpt>
      <trkpt lat="44.54589" lon="4.41346">
        <ele>173.8</ele>
        <time>2022-06-10T15:33:50Z</time>
      </trkpt>
      <trkpt lat="44.54584" lon="4.41348">
        <ele>173.7</ele>
        <time>2022-06-10T15:33:51Z</time>
      </trkpt>
      <trkpt lat="44.54579" lon="4.4135">
        <ele>173.7</ele>
        <time>2022-06-10T15:33:52Z</time>
      </trkpt>
      <trkpt lat="44.54575" lon="4.41353">
        <ele>173.7</ele>
        <time>2022-06-10T15:33:53Z</time>
      </trkpt>
      <trkpt lat="44.54571" lon="4.41355">
        <ele>173.6</ele>
        <time>2022-06-10T15:33:54Z</time>
      </trkpt>
      <trkpt lat="44.54569" lon="4.41357">
        <ele>173.6</ele>
        <time>2022-06-10T15:33:55Z</time>
      </trkpt>
      <trkpt lat="44.54568" lon="4.41357">
        <ele>173.6</ele>
        <time>2022-06-10T15:33:56Z</time>
      </trkpt>
      <trkpt lat="44.54567" lon="4.41358">
        <ele>173.6</ele>
        <time>2022-06-10T15:33:57Z</time>
      </trkpt>
      <trkpt lat="44.54567" lon="4.41358">
        <ele>173.6</ele>
        <time>2022-06-10T15:33:58Z</time>
      </trkpt>
      <trkpt lat="44.54566" lon="4.41358">
        <ele>173.6</ele>
        <time>2022-06-10T15:33:59Z</time>
      </trkpt>
      <trkpt lat="44.54566" lon="4.41358">
        <ele>173.6</ele>
        <time>2022-06-10T15:34:00Z</time>
      </trkpt>
      <trkpt lat="44.54565" lon="4.41358">
        <ele>173.6</ele>
        <time>2022-06-10T15:34:01Z</time>
      </trkpt>
      <trkpt lat="44.54565" lon="4.41358">
        <ele>173.5</ele>
        <time>2022-06-10T15:34:02Z</time>
      </trkpt>
      <trkpt lat="44.54565" lon="4.41358">
        <ele>173.5</ele>
        <time>2022-06-10T15:34:03Z</time>
      </trkpt>
      <trkpt lat="44.54564" lon="4.41358">
        <ele>173.5</ele>
        <time>2022-06-10T15:34:04Z</time>
      </trkpt>
      <trkpt lat="44.54564" lon="4.41358">
        <ele>173.5</ele>
        <time>2022-06-10T15:34:05Z</time>
      </trkpt>
      <trkpt lat="44.54563" lon="4.41358">
        <ele>173.5</ele>
        <time>2022-06-10T15:34:06Z</time>
      </trkpt>
      <trkpt lat="44.54563" lon="4.41358">
        <ele>173.5</ele>
        <time>2022-06-10T15:34:07Z</time>
      </trkpt>
      <trkpt lat="44.54562" lon="4.41358">
        <ele>173.5</ele>
        <time>2022-06-10T15:34:09Z</time>
      </trkpt>
      <trkpt lat="44.54562" lon="4.41358">
        <ele>173.5</ele>
        <time>2022-06-10T15:34:36Z</time>
      </trkpt>
      <trkpt lat="44.54562" lon="4.41358">
        <ele>173.5</ele>
        <time>2022-06-10T15:34:37Z</time>
      </trkpt>
      <trkpt lat="44.54561" lon="4.41358">
        <ele>173.5</ele>
        <time>2022-06-10T15:34:38Z</time>
      </trkpt>
      <trkpt lat="44.54558" lon="4.4136">
        <ele>173.5</ele>
        <time>2022-06-10T15:34:39Z</time>
      </trkpt>
      <trkpt lat="44.54557" lon="4.4136">
        <ele>173.4</ele>
        <time>2022-06-10T15:34:40Z</time>
      </trkpt>
      <trkpt lat="44.54553" lon="4.41362">
        <ele>173.4</ele>
        <time>2022-06-10T15:34:41Z</time>
      </trkpt>
      <trkpt lat="44.5455" lon="4.41364">
        <ele>173.4</ele>
        <time>2022-06-10T15:34:42Z</time>
      </trkpt>
      <trkpt lat="44.54546" lon="4.41367">
        <ele>173.3</ele>
        <time>2022-06-10T15:34:43Z</time>
      </trkpt>
      <trkpt lat="44.54543" lon="4.41369">
        <ele>173.3</ele>
        <time>2022-06-10T15:34:44Z</time>
      </trkpt>
      <trkpt lat="44.54539" lon="4.41373">
        <ele>173.3</ele>
        <time>2022-06-10T15:34:45Z</time>
      </trkpt>
      <trkpt lat="44.54535" lon="4.41376">
        <ele>173.3</ele>
        <time>2022-06-10T15:34:46Z</time>
      </trkpt>
      <trkpt lat="44.54531" lon="4.41379">
        <ele>173.2</ele>
        <time>2022-06-10T15:34:47Z</time>
      </trkpt>
      <trkpt lat="44.54528" lon="4.41381">
        <ele>173.2</ele>
        <time>2022-06-10T15:34:48Z</time>
      </trkpt>
      <trkpt lat="44.54524" lon="4.41386">
        <ele>173.1</ele>
        <time>2022-06-10T15:34:49Z</time>
      </trkpt>
      <trkpt lat="44.54519" lon="4.41389">
        <ele>173.1</ele>
        <time>2022-06-10T15:34:50Z</time>
      </trkpt>
      <trkpt lat="44.54515" lon="4.41393">
        <ele>173.1</ele>
        <time>2022-06-10T15:34:51Z</time>
      </trkpt>
      <trkpt lat="44.54511" lon="4.41397">
        <ele>173</ele>
        <time>2022-06-10T15:34:52Z</time>
      </trkpt>
      <trkpt lat="44.54507" lon="4.41401">
        <ele>173</ele>
        <time>2022-06-10T15:34:53Z</time>
      </trkpt>
      <trkpt lat="44.54503" lon="4.41405">
        <ele>172.9</ele>
        <time>2022-06-10T15:34:54Z</time>
      </trkpt>
      <trkpt lat="44.54498" lon="4.4141">
        <ele>172.9</ele>
        <time>2022-06-10T15:34:55Z</time>
      </trkpt>
      <trkpt lat="44.54494" lon="4.41414">
        <ele>172.8</ele>
        <time>2022-06-10T15:34:56Z</time>
      </trkpt>
      <trkpt lat="44.5449" lon="4.41419">
        <ele>172.8</ele>
        <time>2022-06-10T15:34:57Z</time>
      </trkpt>
      <trkpt lat="44.54486" lon="4.41424">
        <ele>172.7</ele>
        <time>2022-06-10T15:34:58Z</time>
      </trkpt>
      <trkpt lat="44.54482" lon="4.41429">
        <ele>172.6</ele>
        <time>2022-06-10T15:34:59Z</time>
      </trkpt>
      <trkpt lat="44.54478" lon="4.41434">
        <ele>172.5</ele>
        <time>2022-06-10T15:35:00Z</time>
      </trkpt>
      <trkpt lat="44.54474" lon="4.4144">
        <ele>172.5</ele>
        <time>2022-06-10T15:35:01Z</time>
      </trkpt>
      <trkpt lat="44.5447" lon="4.41446">
        <ele>172.4</ele>
        <time>2022-06-10T15:35:02Z</time>
      </trkpt>
      <trkpt lat="44.54466" lon="4.41451">
        <ele>172.3</ele>
        <time>2022-06-10T15:35:03Z</time>
      </trkpt>
      <trkpt lat="44.54462" lon="4.41457">
        <ele>172.2</ele>
        <time>2022-06-10T15:35:04Z</time>
      </trkpt>
      <trkpt lat="44.54458" lon="4.41464">
        <ele>172.2</ele>
        <time>2022-06-10T15:35:05Z</time>
      </trkpt>
      <trkpt lat="44.54455" lon="4.4147">
        <ele>172.1</ele>
        <time>2022-06-10T15:35:06Z</time>
      </trkpt>
      <trkpt lat="44.54451" lon="4.41476">
        <ele>172.1</ele>
        <time>2022-06-10T15:35:07Z</time>
      </trkpt>
      <trkpt lat="44.54447" lon="4.41482">
        <ele>172</ele>
        <time>2022-06-10T15:35:08Z</time>
      </trkpt>
      <trkpt lat="44.54443" lon="4.41489">
        <ele>172</ele>
        <time>2022-06-10T15:35:09Z</time>
      </trkpt>
      <trkpt lat="44.54439" lon="4.41495">
        <ele>171.9</ele>
        <time>2022-06-10T15:35:10Z</time>
      </trkpt>
      <trkpt lat="44.54435" lon="4.41502">
        <ele>171.9</ele>
        <time>2022-06-10T15:35:11Z</time>
      </trkpt>
      <trkpt lat="44.54432" lon="4.41509">
        <ele>171.8</ele>
        <time>2022-06-10T15:35:12Z</time>
      </trkpt>
      <trkpt lat="44.54428" lon="4.41516">
        <ele>171.7</ele>
        <time>2022-06-10T15:35:13Z</time>
      </trkpt>
      <trkpt lat="44.54425" lon="4.41523">
        <ele>171.7</ele>
        <time>2022-06-10T15:35:14Z</time>
      </trkpt>
      <trkpt lat="44.54421" lon="4.4153">
        <ele>171.6</ele>
        <time>2022-06-10T15:35:15Z</time>
      </trkpt>
      <trkpt lat="44.54418" lon="4.41536">
        <ele>171.6</ele>
        <time>2022-06-10T15:35:16Z</time>
      </trkpt>
      <trkpt lat="44.54414" lon="4.41542">
        <ele>171.5</ele>
        <time>2022-06-10T15:35:17Z</time>
      </trkpt>
      <trkpt lat="44.54411" lon="4.41548">
        <ele>171.4</ele>
        <time>2022-06-10T15:35:18Z</time>
      </trkpt>
      <trkpt lat="44.54407" lon="4.41554">
        <ele>171.4</ele>
        <time>2022-06-10T15:35:19Z</time>
      </trkpt>
      <trkpt lat="44.54403" lon="4.4156">
        <ele>171.3</ele>
        <time>2022-06-10T15:35:20Z</time>
      </trkpt>
      <trkpt lat="44.54399" lon="4.41565">
        <ele>171.3</ele>
        <time>2022-06-10T15:35:21Z</time>
      </trkpt>
      <trkpt lat="44.54396" lon="4.41571">
        <ele>171.3</ele>
        <time>2022-06-10T15:35:22Z</time>
      </trkpt>
      <trkpt lat="44.54393" lon="4.41577">
        <ele>171.2</ele>
        <time>2022-06-10T15:35:23Z</time>
      </trkpt>
      <trkpt lat="44.54389" lon="4.41582">
        <ele>171.2</ele>
        <time>2022-06-10T15:35:24Z</time>
      </trkpt>
      <trkpt lat="44.54386" lon="4.41587">
        <ele>171.2</ele>
        <time>2022-06-10T15:35:25Z</time>
      </trkpt>
      <trkpt lat="44.54383" lon="4.41593">
        <ele>171.1</ele>
        <time>2022-06-10T15:35:26Z</time>
      </trkpt>
      <trkpt lat="44.54379" lon="4.41598">
        <ele>171.1</ele>
        <time>2022-06-10T15:35:27Z</time>
      </trkpt>
      <trkpt lat="44.54376" lon="4.41604">
        <ele>171.1</ele>
        <time>2022-06-10T15:35:28Z</time>
      </trkpt>
      <trkpt lat="44.54373" lon="4.41609">
        <ele>171.1</ele>
        <time>2022-06-10T15:35:29Z</time>
      </trkpt>
      <trkpt lat="44.5437" lon="4.41615">
        <ele>171</ele>
        <time>2022-06-10T15:35:30Z</time>
      </trkpt>
      <trkpt lat="44.54367" lon="4.41621">
        <ele>171</ele>
        <time>2022-06-10T15:35:31Z</time>
      </trkpt>
      <trkpt lat="44.54364" lon="4.41627">
        <ele>170.9</ele>
        <time>2022-06-10T15:35:32Z</time>
      </trkpt>
      <trkpt lat="44.54361" lon="4.41632">
        <ele>170.9</ele>
        <time>2022-06-10T15:35:33Z</time>
      </trkpt>
      <trkpt lat="44.54357" lon="4.41638">
        <ele>170.9</ele>
        <time>2022-06-10T15:35:34Z</time>
      </trkpt>
      <trkpt lat="44.54354" lon="4.41643">
        <ele>170.8</ele>
        <time>2022-06-10T15:35:35Z</time>
      </trkpt>
      <trkpt lat="44.54351" lon="4.41649">
        <ele>170.8</ele>
        <time>2022-06-10T15:35:36Z</time>
      </trkpt>
      <trkpt lat="44.54348" lon="4.41655">
        <ele>170.7</ele>
        <time>2022-06-10T15:35:37Z</time>
      </trkpt>
      <trkpt lat="44.54345" lon="4.41661">
        <ele>170.7</ele>
        <time>2022-06-10T15:35:38Z</time>
      </trkpt>
      <trkpt lat="44.54342" lon="4.41667">
        <ele>170.7</ele>
        <time>2022-06-10T15:35:39Z</time>
      </trkpt>
      <trkpt lat="44.54339" lon="4.41674">
        <ele>170.6</ele>
        <time>2022-06-10T15:35:40Z</time>
      </trkpt>
      <trkpt lat="44.54335" lon="4.41679">
        <ele>170.6</ele>
        <time>2022-06-10T15:35:41Z</time>
      </trkpt>
      <trkpt lat="44.54331" lon="4.41684">
        <ele>170.5</ele>
        <time>2022-06-10T15:35:42Z</time>
      </trkpt>
      <trkpt lat="44.54328" lon="4.41691">
        <ele>170.5</ele>
        <time>2022-06-10T15:35:43Z</time>
      </trkpt>
      <trkpt lat="44.54325" lon="4.41697">
        <ele>170.4</ele>
        <time>2022-06-10T15:35:44Z</time>
      </trkpt>
      <trkpt lat="44.54321" lon="4.41703">
        <ele>170.4</ele>
        <time>2022-06-10T15:35:45Z</time>
      </trkpt>
      <trkpt lat="44.54317" lon="4.41709">
        <ele>170.4</ele>
        <time>2022-06-10T15:35:46Z</time>
      </trkpt>
      <trkpt lat="44.54314" lon="4.41714">
        <ele>170.3</ele>
        <time>2022-06-10T15:35:47Z</time>
      </trkpt>
      <trkpt lat="44.5431" lon="4.41718">
        <ele>170.3</ele>
        <time>2022-06-10T15:35:48Z</time>
      </trkpt>
      <trkpt lat="44.54307" lon="4.41723">
        <ele>170.3</ele>
        <time>2022-06-10T15:35:49Z</time>
      </trkpt>
      <trkpt lat="44.54303" lon="4.41728">
        <ele>170.2</ele>
        <time>2022-06-10T15:35:50Z</time>
      </trkpt>
      <trkpt lat="44.54299" lon="4.41734">
        <ele>170.2</ele>
        <time>2022-06-10T15:35:51Z</time>
      </trkpt>
      <trkpt lat="44.54296" lon="4.41739">
        <ele>170.2</ele>
        <time>2022-06-10T15:35:52Z</time>
      </trkpt>
      <trkpt lat="44.54292" lon="4.41743">
        <ele>170.2</ele>
        <time>2022-06-10T15:35:53Z</time>
      </trkpt>
      <trkpt lat="44.54288" lon="4.41748">
        <ele>170.2</ele>
        <time>2022-06-10T15:35:54Z</time>
      </trkpt>
      <trkpt lat="44.54284" lon="4.41752">
        <ele>170.1</ele>
        <time>2022-06-10T15:35:55Z</time>
      </trkpt>
      <trkpt lat="44.54281" lon="4.41756">
        <ele>170.1</ele>
        <time>2022-06-10T15:35:56Z</time>
      </trkpt>
      <trkpt lat="44.54277" lon="4.41761">
        <ele>170</ele>
        <time>2022-06-10T15:35:57Z</time>
      </trkpt>
      <trkpt lat="44.54272" lon="4.41766">
        <ele>170</ele>
        <time>2022-06-10T15:35:58Z</time>
      </trkpt>
      <trkpt lat="44.54267" lon="4.41769">
        <ele>170</ele>
        <time>2022-06-10T15:35:59Z</time>
      </trkpt>
      <trkpt lat="44.54263" lon="4.41773">
        <ele>170</ele>
        <time>2022-06-10T15:36:00Z</time>
      </trkpt>
      <trkpt lat="44.54258" lon="4.41777">
        <ele>170</ele>
        <time>2022-06-10T15:36:01Z</time>
      </trkpt>
      <trkpt lat="44.54253" lon="4.4178">
        <ele>170</ele>
        <time>2022-06-10T15:36:02Z</time>
      </trkpt>
      <trkpt lat="44.54249" lon="4.41784">
        <ele>170</ele>
        <time>2022-06-10T15:36:03Z</time>
      </trkpt>
      <trkpt lat="44.54244" lon="4.41788">
        <ele>170</ele>
        <time>2022-06-10T15:36:04Z</time>
      </trkpt>
      <trkpt lat="44.54239" lon="4.41791">
        <ele>170</ele>
        <time>2022-06-10T15:36:05Z</time>
      </trkpt>
      <trkpt lat="44.54234" lon="4.41795">
        <ele>170</ele>
        <time>2022-06-10T15:36:06Z</time>
      </trkpt>
      <trkpt lat="44.5423" lon="4.41798">
        <ele>169.9</ele>
        <time>2022-06-10T15:36:07Z</time>
      </trkpt>
      <trkpt lat="44.54225" lon="4.41801">
        <ele>169.9</ele>
        <time>2022-06-10T15:36:08Z</time>
      </trkpt>
      <trkpt lat="44.5422" lon="4.41805">
        <ele>169.9</ele>
        <time>2022-06-10T15:36:09Z</time>
      </trkpt>
      <trkpt lat="44.54215" lon="4.41808">
        <ele>169.8</ele>
        <time>2022-06-10T15:36:10Z</time>
      </trkpt>
      <trkpt lat="44.5421" lon="4.41811">
        <ele>169.8</ele>
        <time>2022-06-10T15:36:11Z</time>
      </trkpt>
      <trkpt lat="44.54205" lon="4.41813">
        <ele>169.8</ele>
        <time>2022-06-10T15:36:12Z</time>
      </trkpt>
      <trkpt lat="44.542" lon="4.41816">
        <ele>169.8</ele>
        <time>2022-06-10T15:36:13Z</time>
      </trkpt>
      <trkpt lat="44.54195" lon="4.41819">
        <ele>169.7</ele>
        <time>2022-06-10T15:36:14Z</time>
      </trkpt>
      <trkpt lat="44.5419" lon="4.41821">
        <ele>169.7</ele>
        <time>2022-06-10T15:36:15Z</time>
      </trkpt>
      <trkpt lat="44.54185" lon="4.41823">
        <ele>169.7</ele>
        <time>2022-06-10T15:36:16Z</time>
      </trkpt>
      <trkpt lat="44.5418" lon="4.41825">
        <ele>169.7</ele>
        <time>2022-06-10T15:36:17Z</time>
      </trkpt>
      <trkpt lat="44.54175" lon="4.41828">
        <ele>169.6</ele>
        <time>2022-06-10T15:36:18Z</time>
      </trkpt>
      <trkpt lat="44.5417" lon="4.4183">
        <ele>169.6</ele>
        <time>2022-06-10T15:36:19Z</time>
      </trkpt>
      <trkpt lat="44.54165" lon="4.41832">
        <ele>169.6</ele>
        <time>2022-06-10T15:36:20Z</time>
      </trkpt>
      <trkpt lat="44.5416" lon="4.41834">
        <ele>169.6</ele>
        <time>2022-06-10T15:36:21Z</time>
      </trkpt>
      <trkpt lat="44.54154" lon="4.41835">
        <ele>169.6</ele>
        <time>2022-06-10T15:36:22Z</time>
      </trkpt>
      <trkpt lat="44.54149" lon="4.41837">
        <ele>169.5</ele>
        <time>2022-06-10T15:36:23Z</time>
      </trkpt>
      <trkpt lat="44.54144" lon="4.41838">
        <ele>169.5</ele>
        <time>2022-06-10T15:36:24Z</time>
      </trkpt>
      <trkpt lat="44.54139" lon="4.41839">
        <ele>169.5</ele>
        <time>2022-06-10T15:36:25Z</time>
      </trkpt>
      <trkpt lat="44.54133" lon="4.4184">
        <ele>169.5</ele>
        <time>2022-06-10T15:36:26Z</time>
      </trkpt>
      <trkpt lat="44.54128" lon="4.41841">
        <ele>169.5</ele>
        <time>2022-06-10T15:36:27Z</time>
      </trkpt>
      <trkpt lat="44.54122" lon="4.41841">
        <ele>169.5</ele>
        <time>2022-06-10T15:36:28Z</time>
      </trkpt>
      <trkpt lat="44.54117" lon="4.41841">
        <ele>169.4</ele>
        <time>2022-06-10T15:36:29Z</time>
      </trkpt>
      <trkpt lat="44.54111" lon="4.41841">
        <ele>169.4</ele>
        <time>2022-06-10T15:36:30Z</time>
      </trkpt>
      <trkpt lat="44.54105" lon="4.41842">
        <ele>169.4</ele>
        <time>2022-06-10T15:36:31Z</time>
      </trkpt>
      <trkpt lat="44.541" lon="4.41842">
        <ele>169.3</ele>
        <time>2022-06-10T15:36:32Z</time>
      </trkpt>
      <trkpt lat="44.54094" lon="4.41842">
        <ele>169.3</ele>
        <time>2022-06-10T15:36:33Z</time>
      </trkpt>
      <trkpt lat="44.54088" lon="4.41842">
        <ele>169.2</ele>
        <time>2022-06-10T15:36:34Z</time>
      </trkpt>
      <trkpt lat="44.54082" lon="4.41842">
        <ele>169.2</ele>
        <time>2022-06-10T15:36:35Z</time>
      </trkpt>
      <trkpt lat="44.54077" lon="4.41842">
        <ele>169.2</ele>
        <time>2022-06-10T15:36:36Z</time>
      </trkpt>
      <trkpt lat="44.54071" lon="4.41843">
        <ele>169.1</ele>
        <time>2022-06-10T15:36:37Z</time>
      </trkpt>
      <trkpt lat="44.54065" lon="4.41843">
        <ele>169.1</ele>
        <time>2022-06-10T15:36:38Z</time>
      </trkpt>
      <trkpt lat="44.54059" lon="4.41844">
        <ele>169.1</ele>
        <time>2022-06-10T15:36:39Z</time>
      </trkpt>
      <trkpt lat="44.54053" lon="4.41844">
        <ele>169.1</ele>
        <time>2022-06-10T15:36:40Z</time>
      </trkpt>
      <trkpt lat="44.54047" lon="4.41844">
        <ele>169.1</ele>
        <time>2022-06-10T15:36:41Z</time>
      </trkpt>
      <trkpt lat="44.54042" lon="4.41844">
        <ele>169.1</ele>
        <time>2022-06-10T15:36:42Z</time>
      </trkpt>
      <trkpt lat="44.54036" lon="4.41844">
        <ele>169.1</ele>
        <time>2022-06-10T15:36:43Z</time>
      </trkpt>
      <trkpt lat="44.5403" lon="4.41845">
        <ele>169.2</ele>
        <time>2022-06-10T15:36:44Z</time>
      </trkpt>
      <trkpt lat="44.54024" lon="4.41845">
        <ele>169.2</ele>
        <time>2022-06-10T15:36:45Z</time>
      </trkpt>
      <trkpt lat="44.54019" lon="4.41845">
        <ele>169.2</ele>
        <time>2022-06-10T15:36:46Z</time>
      </trkpt>
      <trkpt lat="44.54013" lon="4.41845">
        <ele>169.2</ele>
        <time>2022-06-10T15:36:47Z</time>
      </trkpt>
      <trkpt lat="44.54008" lon="4.41846">
        <ele>169.2</ele>
        <time>2022-06-10T15:36:48Z</time>
      </trkpt>
      <trkpt lat="44.54002" lon="4.41846">
        <ele>169.2</ele>
        <time>2022-06-10T15:36:49Z</time>
      </trkpt>
      <trkpt lat="44.53996" lon="4.41846">
        <ele>169.2</ele>
        <time>2022-06-10T15:36:50Z</time>
      </trkpt>
      <trkpt lat="44.53991" lon="4.41846">
        <ele>169.2</ele>
        <time>2022-06-10T15:36:51Z</time>
      </trkpt>
      <trkpt lat="44.53985" lon="4.41846">
        <ele>169.2</ele>
        <time>2022-06-10T15:36:52Z</time>
      </trkpt>
      <trkpt lat="44.5398" lon="4.41846">
        <ele>169.2</ele>
        <time>2022-06-10T15:36:53Z</time>
      </trkpt>
      <trkpt lat="44.53974" lon="4.41846">
        <ele>169.1</ele>
        <time>2022-06-10T15:36:54Z</time>
      </trkpt>
      <trkpt lat="44.53969" lon="4.41846">
        <ele>169.1</ele>
        <time>2022-06-10T15:36:55Z</time>
      </trkpt>
      <trkpt lat="44.53963" lon="4.41847">
        <ele>169.1</ele>
        <time>2022-06-10T15:36:56Z</time>
      </trkpt>
      <trkpt lat="44.53958" lon="4.41847">
        <ele>169.1</ele>
        <time>2022-06-10T15:36:57Z</time>
      </trkpt>
      <trkpt lat="44.53953" lon="4.41848">
        <ele>169.1</ele>
        <time>2022-06-10T15:36:58Z</time>
      </trkpt>
      <trkpt lat="44.53947" lon="4.41848">
        <ele>169.2</ele>
        <time>2022-06-10T15:36:59Z</time>
      </trkpt>
      <trkpt lat="44.53942" lon="4.41848">
        <ele>169.2</ele>
        <time>2022-06-10T15:37:00Z</time>
      </trkpt>
      <trkpt lat="44.53937" lon="4.41849">
        <ele>169.2</ele>
        <time>2022-06-10T15:37:01Z</time>
      </trkpt>
      <trkpt lat="44.53932" lon="4.41849">
        <ele>169.3</ele>
        <time>2022-06-10T15:37:02Z</time>
      </trkpt>
      <trkpt lat="44.53926" lon="4.4185">
        <ele>169.3</ele>
        <time>2022-06-10T15:37:03Z</time>
      </trkpt>
      <trkpt lat="44.53921" lon="4.41851">
        <ele>169.4</ele>
        <time>2022-06-10T15:37:04Z</time>
      </trkpt>
      <trkpt lat="44.53916" lon="4.41851">
        <ele>169.3</ele>
        <time>2022-06-10T15:37:05Z</time>
      </trkpt>
      <trkpt lat="44.53911" lon="4.41852">
        <ele>169.3</ele>
        <time>2022-06-10T15:37:06Z</time>
      </trkpt>
      <trkpt lat="44.53905" lon="4.41852">
        <ele>169.3</ele>
        <time>2022-06-10T15:37:07Z</time>
      </trkpt>
      <trkpt lat="44.539" lon="4.41852">
        <ele>169.3</ele>
        <time>2022-06-10T15:37:08Z</time>
      </trkpt>
      <trkpt lat="44.53895" lon="4.41852">
        <ele>169.2</ele>
        <time>2022-06-10T15:37:09Z</time>
      </trkpt>
      <trkpt lat="44.5389" lon="4.41853">
        <ele>169.2</ele>
        <time>2022-06-10T15:37:10Z</time>
      </trkpt>
      <trkpt lat="44.53885" lon="4.41854">
        <ele>169.2</ele>
        <time>2022-06-10T15:37:11Z</time>
      </trkpt>
      <trkpt lat="44.5388" lon="4.41854">
        <ele>169.1</ele>
        <time>2022-06-10T15:37:12Z</time>
      </trkpt>
      <trkpt lat="44.53875" lon="4.41855">
        <ele>169.1</ele>
        <time>2022-06-10T15:37:13Z</time>
      </trkpt>
      <trkpt lat="44.5387" lon="4.41855">
        <ele>169.1</ele>
        <time>2022-06-10T15:37:14Z</time>
      </trkpt>
      <trkpt lat="44.53865" lon="4.41855">
        <ele>169.1</ele>
        <time>2022-06-10T15:37:15Z</time>
      </trkpt>
      <trkpt lat="44.53859" lon="4.41855">
        <ele>169.1</ele>
        <time>2022-06-10T15:37:16Z</time>
      </trkpt>
      <trkpt lat="44.53855" lon="4.41855">
        <ele>169.1</ele>
        <time>2022-06-10T15:37:17Z</time>
      </trkpt>
      <trkpt lat="44.53849" lon="4.41855">
        <ele>169.1</ele>
        <time>2022-06-10T15:37:18Z</time>
      </trkpt>
      <trkpt lat="44.53844" lon="4.41855">
        <ele>169.1</ele>
        <time>2022-06-10T15:37:19Z</time>
      </trkpt>
      <trkpt lat="44.53839" lon="4.41855">
        <ele>169.1</ele>
        <time>2022-06-10T15:37:20Z</time>
      </trkpt>
      <trkpt lat="44.53834" lon="4.41855">
        <ele>169.1</ele>
        <time>2022-06-10T15:37:21Z</time>
      </trkpt>
      <trkpt lat="44.53829" lon="4.41855">
        <ele>169.1</ele>
        <time>2022-06-10T15:37:22Z</time>
      </trkpt>
      <trkpt lat="44.53824" lon="4.41856">
        <ele>169.1</ele>
        <time>2022-06-10T15:37:23Z</time>
      </trkpt>
      <trkpt lat="44.53818" lon="4.41856">
        <ele>169.1</ele>
        <time>2022-06-10T15:37:24Z</time>
      </trkpt>
      <trkpt lat="44.53813" lon="4.41856">
        <ele>169</ele>
        <time>2022-06-10T15:37:25Z</time>
      </trkpt>
      <trkpt lat="44.53808" lon="4.41856">
        <ele>169</ele>
        <time>2022-06-10T15:37:26Z</time>
      </trkpt>
      <trkpt lat="44.53802" lon="4.41855">
        <ele>169</ele>
        <time>2022-06-10T15:37:27Z</time>
      </trkpt>
      <trkpt lat="44.53797" lon="4.41855">
        <ele>169</ele>
        <time>2022-06-10T15:37:28Z</time>
      </trkpt>
      <trkpt lat="44.53792" lon="4.41854">
        <ele>168.9</ele>
        <time>2022-06-10T15:37:29Z</time>
      </trkpt>
      <trkpt lat="44.53786" lon="4.41855">
        <ele>168.9</ele>
        <time>2022-06-10T15:37:30Z</time>
      </trkpt>
      <trkpt lat="44.53781" lon="4.41855">
        <ele>168.9</ele>
        <time>2022-06-10T15:37:31Z</time>
      </trkpt>
      <trkpt lat="44.53777" lon="4.41852">
        <ele>168.8</ele>
        <time>2022-06-10T15:37:32Z</time>
      </trkpt>
      <trkpt lat="44.53773" lon="4.41851">
        <ele>168.8</ele>
        <time>2022-06-10T15:37:33Z</time>
      </trkpt>
      <trkpt lat="44.5377" lon="4.41852">
        <ele>168.8</ele>
        <time>2022-06-10T15:37:34Z</time>
      </trkpt>
      <trkpt lat="44.53764" lon="4.41854">
        <ele>168.8</ele>
        <time>2022-06-10T15:37:35Z</time>
      </trkpt>
      <trkpt lat="44.53759" lon="4.41854">
        <ele>168.7</ele>
        <time>2022-06-10T15:37:36Z</time>
      </trkpt>
      <trkpt lat="44.53754" lon="4.41854">
        <ele>168.7</ele>
        <time>2022-06-10T15:37:37Z</time>
      </trkpt>
      <trkpt lat="44.53749" lon="4.41852">
        <ele>168.7</ele>
        <time>2022-06-10T15:37:38Z</time>
      </trkpt>
      <trkpt lat="44.53744" lon="4.4185">
        <ele>168.7</ele>
        <time>2022-06-10T15:37:39Z</time>
      </trkpt>
      <trkpt lat="44.5374" lon="4.41849">
        <ele>168.6</ele>
        <time>2022-06-10T15:37:40Z</time>
      </trkpt>
      <trkpt lat="44.53734" lon="4.41847">
        <ele>168.6</ele>
        <time>2022-06-10T15:37:41Z</time>
      </trkpt>
      <trkpt lat="44.53729" lon="4.41846">
        <ele>168.6</ele>
        <time>2022-06-10T15:37:42Z</time>
      </trkpt>
      <trkpt lat="44.53724" lon="4.41844">
        <ele>168.6</ele>
        <time>2022-06-10T15:37:43Z</time>
      </trkpt>
      <trkpt lat="44.53719" lon="4.41842">
        <ele>168.6</ele>
        <time>2022-06-10T15:37:44Z</time>
      </trkpt>
      <trkpt lat="44.53713" lon="4.4184">
        <ele>168.6</ele>
        <time>2022-06-10T15:37:45Z</time>
      </trkpt>
      <trkpt lat="44.53708" lon="4.41838">
        <ele>168.6</ele>
        <time>2022-06-10T15:37:46Z</time>
      </trkpt>
      <trkpt lat="44.53703" lon="4.41836">
        <ele>168.5</ele>
        <time>2022-06-10T15:37:47Z</time>
      </trkpt>
      <trkpt lat="44.53697" lon="4.41834">
        <ele>168.5</ele>
        <time>2022-06-10T15:37:48Z</time>
      </trkpt>
      <trkpt lat="44.53692" lon="4.41832">
        <ele>168.5</ele>
        <time>2022-06-10T15:37:49Z</time>
      </trkpt>
      <trkpt lat="44.53686" lon="4.41831">
        <ele>168.5</ele>
        <time>2022-06-10T15:37:50Z</time>
      </trkpt>
      <trkpt lat="44.5368" lon="4.41829">
        <ele>168.5</ele>
        <time>2022-06-10T15:37:51Z</time>
      </trkpt>
      <trkpt lat="44.53674" lon="4.41827">
        <ele>168.4</ele>
        <time>2022-06-10T15:37:52Z</time>
      </trkpt>
      <trkpt lat="44.53669" lon="4.41825">
        <ele>168.4</ele>
        <time>2022-06-10T15:37:53Z</time>
      </trkpt>
      <trkpt lat="44.53663" lon="4.41823">
        <ele>168.4</ele>
        <time>2022-06-10T15:37:54Z</time>
      </trkpt>
      <trkpt lat="44.53657" lon="4.41822">
        <ele>168.3</ele>
        <time>2022-06-10T15:37:55Z</time>
      </trkpt>
      <trkpt lat="44.53651" lon="4.41821">
        <ele>168.2</ele>
        <time>2022-06-10T15:37:56Z</time>
      </trkpt>
      <trkpt lat="44.53645" lon="4.41819">
        <ele>168.2</ele>
        <time>2022-06-10T15:37:57Z</time>
      </trkpt>
      <trkpt lat="44.53639" lon="4.41817">
        <ele>168.1</ele>
        <time>2022-06-10T15:37:58Z</time>
      </trkpt>
      <trkpt lat="44.53632" lon="4.41814">
        <ele>168</ele>
        <time>2022-06-10T15:37:59Z</time>
      </trkpt>
      <trkpt lat="44.53626" lon="4.41812">
        <ele>168</ele>
        <time>2022-06-10T15:38:00Z</time>
      </trkpt>
      <trkpt lat="44.5362" lon="4.4181">
        <ele>168</ele>
        <time>2022-06-10T15:38:01Z</time>
      </trkpt>
      <trkpt lat="44.53613" lon="4.41808">
        <ele>167.9</ele>
        <time>2022-06-10T15:38:02Z</time>
      </trkpt>
      <trkpt lat="44.53608" lon="4.41806">
        <ele>167.9</ele>
        <time>2022-06-10T15:38:03Z</time>
      </trkpt>
      <trkpt lat="44.53601" lon="4.41804">
        <ele>167.8</ele>
        <time>2022-06-10T15:38:04Z</time>
      </trkpt>
      <trkpt lat="44.53595" lon="4.41802">
        <ele>167.8</ele>
        <time>2022-06-10T15:38:05Z</time>
      </trkpt>
      <trkpt lat="44.53589" lon="4.418">
        <ele>167.8</ele>
        <time>2022-06-10T15:38:06Z</time>
      </trkpt>
      <trkpt lat="44.53584" lon="4.41799">
        <ele>167.7</ele>
        <time>2022-06-10T15:38:07Z</time>
      </trkpt>
      <trkpt lat="44.53578" lon="4.41797">
        <ele>167.7</ele>
        <time>2022-06-10T15:38:08Z</time>
      </trkpt>
      <trkpt lat="44.53572" lon="4.41796">
        <ele>167.7</ele>
        <time>2022-06-10T15:38:09Z</time>
      </trkpt>
      <trkpt lat="44.53566" lon="4.41794">
        <ele>167.6</ele>
        <time>2022-06-10T15:38:10Z</time>
      </trkpt>
      <trkpt lat="44.5356" lon="4.41793">
        <ele>167.6</ele>
        <time>2022-06-10T15:38:11Z</time>
      </trkpt>
      <trkpt lat="44.53554" lon="4.41791">
        <ele>167.5</ele>
        <time>2022-06-10T15:38:12Z</time>
      </trkpt>
      <trkpt lat="44.53548" lon="4.41789">
        <ele>167.4</ele>
        <time>2022-06-10T15:38:13Z</time>
      </trkpt>
      <trkpt lat="44.53542" lon="4.41787">
        <ele>167.4</ele>
        <time>2022-06-10T15:38:14Z</time>
      </trkpt>
      <trkpt lat="44.53536" lon="4.41786">
        <ele>167.3</ele>
        <time>2022-06-10T15:38:15Z</time>
      </trkpt>
      <trkpt lat="44.5353" lon="4.41784">
        <ele>167.3</ele>
        <time>2022-06-10T15:38:16Z</time>
      </trkpt>
      <trkpt lat="44.53524" lon="4.41782">
        <ele>167.2</ele>
        <time>2022-06-10T15:38:17Z</time>
      </trkpt>
      <trkpt lat="44.53518" lon="4.4178">
        <ele>167.2</ele>
        <time>2022-06-10T15:38:18Z</time>
      </trkpt>
      <trkpt lat="44.53512" lon="4.41778">
        <ele>167.2</ele>
        <time>2022-06-10T15:38:19Z</time>
      </trkpt>
      <trkpt lat="44.53506" lon="4.41776">
        <ele>167.1</ele>
        <time>2022-06-10T15:38:20Z</time>
      </trkpt>
      <trkpt lat="44.535" lon="4.41774">
        <ele>167.1</ele>
        <time>2022-06-10T15:38:21Z</time>
      </trkpt>
      <trkpt lat="44.53494" lon="4.41771">
        <ele>167.1</ele>
        <time>2022-06-10T15:38:22Z</time>
      </trkpt>
      <trkpt lat="44.53488" lon="4.41769">
        <ele>167</ele>
        <time>2022-06-10T15:38:23Z</time>
      </trkpt>
      <trkpt lat="44.53482" lon="4.41768">
        <ele>167</ele>
        <time>2022-06-10T15:38:24Z</time>
      </trkpt>
      <trkpt lat="44.53476" lon="4.41766">
        <ele>166.9</ele>
        <time>2022-06-10T15:38:25Z</time>
      </trkpt>
      <trkpt lat="44.5347" lon="4.41764">
        <ele>166.9</ele>
        <time>2022-06-10T15:38:26Z</time>
      </trkpt>
      <trkpt lat="44.53464" lon="4.41761">
        <ele>166.8</ele>
        <time>2022-06-10T15:38:27Z</time>
      </trkpt>
      <trkpt lat="44.53458" lon="4.41758">
        <ele>166.7</ele>
        <time>2022-06-10T15:38:28Z</time>
      </trkpt>
      <trkpt lat="44.53453" lon="4.41755">
        <ele>166.6</ele>
        <time>2022-06-10T15:38:29Z</time>
      </trkpt>
      <trkpt lat="44.53448" lon="4.4175">
        <ele>166.4</ele>
        <time>2022-06-10T15:38:30Z</time>
      </trkpt>
      <trkpt lat="44.53442" lon="4.41746">
        <ele>166.3</ele>
        <time>2022-06-10T15:38:31Z</time>
      </trkpt>
      <trkpt lat="44.53436" lon="4.41742">
        <ele>166.1</ele>
        <time>2022-06-10T15:38:32Z</time>
      </trkpt>
      <trkpt lat="44.5343" lon="4.41738">
        <ele>166</ele>
        <time>2022-06-10T15:38:33Z</time>
      </trkpt>
      <trkpt lat="44.53424" lon="4.41734">
        <ele>165.9</ele>
        <time>2022-06-10T15:38:34Z</time>
      </trkpt>
      <trkpt lat="44.5342" lon="4.4173">
        <ele>165.8</ele>
        <time>2022-06-10T15:38:35Z</time>
      </trkpt>
      <trkpt lat="44.53419" lon="4.41725">
        <ele>165.8</ele>
        <time>2022-06-10T15:38:36Z</time>
      </trkpt>
      <trkpt lat="44.53422" lon="4.41722">
        <ele>165.8</ele>
        <time>2022-06-10T15:38:37Z</time>
      </trkpt>
      <trkpt lat="44.53423" lon="4.41722">
        <ele>165.7</ele>
        <time>2022-06-10T15:38:38Z</time>
      </trkpt>
      <trkpt lat="44.53423" lon="4.41718">
        <ele>165.7</ele>
        <time>2022-06-10T15:38:39Z</time>
      </trkpt>
      <trkpt lat="44.53422" lon="4.41713">
        <ele>165.7</ele>
        <time>2022-06-10T15:38:40Z</time>
      </trkpt>
      <trkpt lat="44.53422" lon="4.41711">
        <ele>165.7</ele>
        <time>2022-06-10T15:38:41Z</time>
      </trkpt>
      <trkpt lat="44.5342" lon="4.41708">
        <ele>165.7</ele>
        <time>2022-06-10T15:38:42Z</time>
      </trkpt>
      <trkpt lat="44.53418" lon="4.41706">
        <ele>165.7</ele>
        <time>2022-06-10T15:38:43Z</time>
      </trkpt>
      <trkpt lat="44.53416" lon="4.41706">
        <ele>165.7</ele>
        <time>2022-06-10T15:38:44Z</time>
      </trkpt>
      <trkpt lat="44.53412" lon="4.41706">
        <ele>165.8</ele>
        <time>2022-06-10T15:38:45Z</time>
      </trkpt>
      <trkpt lat="44.53407" lon="4.41704">
        <ele>165.8</ele>
        <time>2022-06-10T15:38:47Z</time>
      </trkpt>
      <trkpt lat="44.53401" lon="4.41699">
        <ele>165.9</ele>
        <time>2022-06-10T15:38:48Z</time>
      </trkpt>
      <trkpt lat="44.53397" lon="4.41695">
        <ele>166</ele>
        <time>2022-06-10T15:38:50Z</time>
      </trkpt>
      <trkpt lat="44.53394" lon="4.41691">
        <ele>166</ele>
        <time>2022-06-10T15:38:51Z</time>
      </trkpt>
      <trkpt lat="44.53391" lon="4.41691">
        <ele>166.1</ele>
        <time>2022-06-10T15:38:53Z</time>
      </trkpt>
      <trkpt lat="44.53388" lon="4.41692">
        <ele>166.1</ele>
        <time>2022-06-10T15:38:54Z</time>
      </trkpt>
      <trkpt lat="44.53385" lon="4.41693">
        <ele>166.2</ele>
        <time>2022-06-10T15:38:55Z</time>
      </trkpt>
      <trkpt lat="44.53381" lon="4.41692">
        <ele>166.2</ele>
        <time>2022-06-10T15:38:56Z</time>
      </trkpt>
      <trkpt lat="44.53377" lon="4.41693">
        <ele>166.3</ele>
        <time>2022-06-10T15:38:57Z</time>
      </trkpt>
      <trkpt lat="44.53374" lon="4.41693">
        <ele>166.3</ele>
        <time>2022-06-10T15:38:58Z</time>
      </trkpt>
      <trkpt lat="44.53371" lon="4.41697">
        <ele>166.4</ele>
        <time>2022-06-10T15:39:00Z</time>
      </trkpt>
      <trkpt lat="44.53368" lon="4.417">
        <ele>166.4</ele>
        <time>2022-06-10T15:39:01Z</time>
      </trkpt>
      <trkpt lat="44.53365" lon="4.41701">
        <ele>166.4</ele>
        <time>2022-06-10T15:39:02Z</time>
      </trkpt>
      <trkpt lat="44.53361" lon="4.41703">
        <ele>166.4</ele>
        <time>2022-06-10T15:39:03Z</time>
      </trkpt>
      <trkpt lat="44.53356" lon="4.41706">
        <ele>166.4</ele>
        <time>2022-06-10T15:39:05Z</time>
      </trkpt>
      <trkpt lat="44.53352" lon="4.41705">
        <ele>166.4</ele>
        <time>2022-06-10T15:39:06Z</time>
      </trkpt>
      <trkpt lat="44.53348" lon="4.41703">
        <ele>166.4</ele>
        <time>2022-06-10T15:39:07Z</time>
      </trkpt>
      <trkpt lat="44.53343" lon="4.41699">
        <ele>166.4</ele>
        <time>2022-06-10T15:39:08Z</time>
      </trkpt>
      <trkpt lat="44.53339" lon="4.41695">
        <ele>166.4</ele>
        <time>2022-06-10T15:39:09Z</time>
      </trkpt>
      <trkpt lat="44.53335" lon="4.41692">
        <ele>166.4</ele>
        <time>2022-06-10T15:39:10Z</time>
      </trkpt>
      <trkpt lat="44.5333" lon="4.41689">
        <ele>166.4</ele>
        <time>2022-06-10T15:39:11Z</time>
      </trkpt>
      <trkpt lat="44.53326" lon="4.41685">
        <ele>166.5</ele>
        <time>2022-06-10T15:39:12Z</time>
      </trkpt>
      <trkpt lat="44.53321" lon="4.41681">
        <ele>166.5</ele>
        <time>2022-06-10T15:39:13Z</time>
      </trkpt>
      <trkpt lat="44.53317" lon="4.41676">
        <ele>166.5</ele>
        <time>2022-06-10T15:39:14Z</time>
      </trkpt>
      <trkpt lat="44.53313" lon="4.41672">
        <ele>166.5</ele>
        <time>2022-06-10T15:39:15Z</time>
      </trkpt>
      <trkpt lat="44.53308" lon="4.41669">
        <ele>166.4</ele>
        <time>2022-06-10T15:39:16Z</time>
      </trkpt>
      <trkpt lat="44.53304" lon="4.41664">
        <ele>166.4</ele>
        <time>2022-06-10T15:39:17Z</time>
      </trkpt>
      <trkpt lat="44.53299" lon="4.4166">
        <ele>166.4</ele>
        <time>2022-06-10T15:39:18Z</time>
      </trkpt>
      <trkpt lat="44.53295" lon="4.41656">
        <ele>166.4</ele>
        <time>2022-06-10T15:39:19Z</time>
      </trkpt>
      <trkpt lat="44.5329" lon="4.41651">
        <ele>166.4</ele>
        <time>2022-06-10T15:39:20Z</time>
      </trkpt>
      <trkpt lat="44.53286" lon="4.41647">
        <ele>166.4</ele>
        <time>2022-06-10T15:39:21Z</time>
      </trkpt>
      <trkpt lat="44.53281" lon="4.41642">
        <ele>166.3</ele>
        <time>2022-06-10T15:39:22Z</time>
      </trkpt>
      <trkpt lat="44.53277" lon="4.41637">
        <ele>166.3</ele>
        <time>2022-06-10T15:39:23Z</time>
      </trkpt>
      <trkpt lat="44.53272" lon="4.41632">
        <ele>166.3</ele>
        <time>2022-06-10T15:39:24Z</time>
      </trkpt>
      <trkpt lat="44.53268" lon="4.41626">
        <ele>166.3</ele>
        <time>2022-06-10T15:39:25Z</time>
      </trkpt>
      <trkpt lat="44.53264" lon="4.41621">
        <ele>166.3</ele>
        <time>2022-06-10T15:39:26Z</time>
      </trkpt>
      <trkpt lat="44.53259" lon="4.41615">
        <ele>166.3</ele>
        <time>2022-06-10T15:39:27Z</time>
      </trkpt>
      <trkpt lat="44.53255" lon="4.4161">
        <ele>166.3</ele>
        <time>2022-06-10T15:39:28Z</time>
      </trkpt>
      <trkpt lat="44.53252" lon="4.41604">
        <ele>166.3</ele>
        <time>2022-06-10T15:39:29Z</time>
      </trkpt>
      <trkpt lat="44.53248" lon="4.41597">
        <ele>166.3</ele>
        <time>2022-06-10T15:39:30Z</time>
      </trkpt>
      <trkpt lat="44.53244" lon="4.41591">
        <ele>166.3</ele>
        <time>2022-06-10T15:39:31Z</time>
      </trkpt>
      <trkpt lat="44.5324" lon="4.41585">
        <ele>166.3</ele>
        <time>2022-06-10T15:39:32Z</time>
      </trkpt>
      <trkpt lat="44.53236" lon="4.4158">
        <ele>166.3</ele>
        <time>2022-06-10T15:39:33Z</time>
      </trkpt>
      <trkpt lat="44.53232" lon="4.41574">
        <ele>166.3</ele>
        <time>2022-06-10T15:39:34Z</time>
      </trkpt>
      <trkpt lat="44.53227" lon="4.41569">
        <ele>166.2</ele>
        <time>2022-06-10T15:39:35Z</time>
      </trkpt>
      <trkpt lat="44.53222" lon="4.41563">
        <ele>166.2</ele>
        <time>2022-06-10T15:39:36Z</time>
      </trkpt>
      <trkpt lat="44.53217" lon="4.41559">
        <ele>166.1</ele>
        <time>2022-06-10T15:39:37Z</time>
      </trkpt>
      <trkpt lat="44.53212" lon="4.41553">
        <ele>166.1</ele>
        <time>2022-06-10T15:39:38Z</time>
      </trkpt>
      <trkpt lat="44.53208" lon="4.41548">
        <ele>166</ele>
        <time>2022-06-10T15:39:39Z</time>
      </trkpt>
      <trkpt lat="44.53203" lon="4.41542">
        <ele>166</ele>
        <time>2022-06-10T15:39:40Z</time>
      </trkpt>
      <trkpt lat="44.53198" lon="4.41535">
        <ele>165.9</ele>
        <time>2022-06-10T15:39:41Z</time>
      </trkpt>
      <trkpt lat="44.53193" lon="4.41529">
        <ele>165.9</ele>
        <time>2022-06-10T15:39:42Z</time>
      </trkpt>
      <trkpt lat="44.53188" lon="4.41522">
        <ele>165.8</ele>
        <time>2022-06-10T15:39:43Z</time>
      </trkpt>
      <trkpt lat="44.53183" lon="4.41516">
        <ele>165.7</ele>
        <time>2022-06-10T15:39:44Z</time>
      </trkpt>
      <trkpt lat="44.53178" lon="4.41509">
        <ele>165.7</ele>
        <time>2022-06-10T15:39:45Z</time>
      </trkpt>
      <trkpt lat="44.53173" lon="4.41503">
        <ele>165.6</ele>
        <time>2022-06-10T15:39:46Z</time>
      </trkpt>
      <trkpt lat="44.53168" lon="4.41496">
        <ele>165.6</ele>
        <time>2022-06-10T15:39:47Z</time>
      </trkpt>
      <trkpt lat="44.53163" lon="4.4149">
        <ele>165.5</ele>
        <time>2022-06-10T15:39:48Z</time>
      </trkpt>
      <trkpt lat="44.53158" lon="4.41483">
        <ele>165.5</ele>
        <time>2022-06-10T15:39:49Z</time>
      </trkpt>
      <trkpt lat="44.53153" lon="4.41476">
        <ele>165.4</ele>
        <time>2022-06-10T15:39:50Z</time>
      </trkpt>
      <trkpt lat="44.53148" lon="4.4147">
        <ele>165.4</ele>
        <time>2022-06-10T15:39:51Z</time>
      </trkpt>
      <trkpt lat="44.53143" lon="4.41463">
        <ele>165.3</ele>
        <time>2022-06-10T15:39:52Z</time>
      </trkpt>
      <trkpt lat="44.53138" lon="4.41456">
        <ele>165.3</ele>
        <time>2022-06-10T15:39:53Z</time>
      </trkpt>
      <trkpt lat="44.53132" lon="4.4145">
        <ele>165.2</ele>
        <time>2022-06-10T15:39:54Z</time>
      </trkpt>
      <trkpt lat="44.53127" lon="4.41443">
        <ele>165.2</ele>
        <time>2022-06-10T15:39:55Z</time>
      </trkpt>
      <trkpt lat="44.53122" lon="4.41437">
        <ele>165.2</ele>
        <time>2022-06-10T15:39:56Z</time>
      </trkpt>
      <trkpt lat="44.53117" lon="4.4143">
        <ele>165.2</ele>
        <time>2022-06-10T15:39:57Z</time>
      </trkpt>
      <trkpt lat="44.53112" lon="4.41423">
        <ele>165.1</ele>
        <time>2022-06-10T15:39:58Z</time>
      </trkpt>
      <trkpt lat="44.53107" lon="4.41416">
        <ele>165.1</ele>
        <time>2022-06-10T15:39:59Z</time>
      </trkpt>
      <trkpt lat="44.53102" lon="4.4141">
        <ele>165.1</ele>
        <time>2022-06-10T15:40:00Z</time>
      </trkpt>
      <trkpt lat="44.53097" lon="4.41403">
        <ele>165</ele>
        <time>2022-06-10T15:40:01Z</time>
      </trkpt>
      <trkpt lat="44.53092" lon="4.41397">
        <ele>165</ele>
        <time>2022-06-10T15:40:02Z</time>
      </trkpt>
      <trkpt lat="44.53087" lon="4.4139">
        <ele>164.9</ele>
        <time>2022-06-10T15:40:03Z</time>
      </trkpt>
      <trkpt lat="44.53082" lon="4.41384">
        <ele>164.9</ele>
        <time>2022-06-10T15:40:04Z</time>
      </trkpt>
      <trkpt lat="44.53077" lon="4.41377">
        <ele>164.9</ele>
        <time>2022-06-10T15:40:05Z</time>
      </trkpt>
      <trkpt lat="44.53072" lon="4.4137">
        <ele>164.9</ele>
        <time>2022-06-10T15:40:06Z</time>
      </trkpt>
      <trkpt lat="44.53067" lon="4.41364">
        <ele>164.9</ele>
        <time>2022-06-10T15:40:07Z</time>
      </trkpt>
      <trkpt lat="44.53062" lon="4.41357">
        <ele>164.8</ele>
        <time>2022-06-10T15:40:08Z</time>
      </trkpt>
      <trkpt lat="44.53057" lon="4.41351">
        <ele>164.8</ele>
        <time>2022-06-10T15:40:09Z</time>
      </trkpt>
      <trkpt lat="44.53052" lon="4.41344">
        <ele>164.7</ele>
        <time>2022-06-10T15:40:10Z</time>
      </trkpt>
      <trkpt lat="44.53047" lon="4.41337">
        <ele>164.7</ele>
        <time>2022-06-10T15:40:11Z</time>
      </trkpt>
      <trkpt lat="44.53041" lon="4.4133">
        <ele>164.7</ele>
        <time>2022-06-10T15:40:12Z</time>
      </trkpt>
      <trkpt lat="44.53037" lon="4.41324">
        <ele>164.6</ele>
        <time>2022-06-10T15:40:13Z</time>
      </trkpt>
      <trkpt lat="44.53031" lon="4.41317">
        <ele>164.6</ele>
        <time>2022-06-10T15:40:14Z</time>
      </trkpt>
      <trkpt lat="44.53026" lon="4.4131">
        <ele>164.5</ele>
        <time>2022-06-10T15:40:15Z</time>
      </trkpt>
      <trkpt lat="44.5302" lon="4.41303">
        <ele>164.4</ele>
        <time>2022-06-10T15:40:16Z</time>
      </trkpt>
      <trkpt lat="44.53015" lon="4.41297">
        <ele>164.3</ele>
        <time>2022-06-10T15:40:17Z</time>
      </trkpt>
      <trkpt lat="44.5301" lon="4.4129">
        <ele>164.3</ele>
        <time>2022-06-10T15:40:18Z</time>
      </trkpt>
      <trkpt lat="44.53004" lon="4.41283">
        <ele>164.2</ele>
        <time>2022-06-10T15:40:19Z</time>
      </trkpt>
      <trkpt lat="44.52999" lon="4.41276">
        <ele>164.2</ele>
        <time>2022-06-10T15:40:20Z</time>
      </trkpt>
      <trkpt lat="44.52994" lon="4.4127">
        <ele>164.1</ele>
        <time>2022-06-10T15:40:21Z</time>
      </trkpt>
      <trkpt lat="44.52989" lon="4.41263">
        <ele>164</ele>
        <time>2022-06-10T15:40:22Z</time>
      </trkpt>
      <trkpt lat="44.52983" lon="4.41256">
        <ele>164</ele>
        <time>2022-06-10T15:40:23Z</time>
      </trkpt>
      <trkpt lat="44.52978" lon="4.4125">
        <ele>164</ele>
        <time>2022-06-10T15:40:24Z</time>
      </trkpt>
      <trkpt lat="44.52973" lon="4.41244">
        <ele>164</ele>
        <time>2022-06-10T15:40:25Z</time>
      </trkpt>
      <trkpt lat="44.52968" lon="4.41237">
        <ele>164</ele>
        <time>2022-06-10T15:40:26Z</time>
      </trkpt>
      <trkpt lat="44.52963" lon="4.41231">
        <ele>164</ele>
        <time>2022-06-10T15:40:27Z</time>
      </trkpt>
      <trkpt lat="44.52958" lon="4.41224">
        <ele>164</ele>
        <time>2022-06-10T15:40:28Z</time>
      </trkpt>
      <trkpt lat="44.52953" lon="4.41218">
        <ele>163.9</ele>
        <time>2022-06-10T15:40:29Z</time>
      </trkpt>
      <trkpt lat="44.52948" lon="4.41211">
        <ele>163.9</ele>
        <time>2022-06-10T15:40:30Z</time>
      </trkpt>
      <trkpt lat="44.52943" lon="4.41205">
        <ele>163.9</ele>
        <time>2022-06-10T15:40:31Z</time>
      </trkpt>
      <trkpt lat="44.52939" lon="4.41198">
        <ele>163.9</ele>
        <time>2022-06-10T15:40:32Z</time>
      </trkpt>
      <trkpt lat="44.52933" lon="4.41191">
        <ele>163.9</ele>
        <time>2022-06-10T15:40:33Z</time>
      </trkpt>
      <trkpt lat="44.52929" lon="4.41185">
        <ele>163.9</ele>
        <time>2022-06-10T15:40:34Z</time>
      </trkpt>
      <trkpt lat="44.52924" lon="4.41178">
        <ele>163.9</ele>
        <time>2022-06-10T15:40:35Z</time>
      </trkpt>
      <trkpt lat="44.52919" lon="4.41172">
        <ele>163.9</ele>
        <time>2022-06-10T15:40:36Z</time>
      </trkpt>
      <trkpt lat="44.52915" lon="4.41166">
        <ele>163.9</ele>
        <time>2022-06-10T15:40:37Z</time>
      </trkpt>
      <trkpt lat="44.5291" lon="4.41159">
        <ele>163.9</ele>
        <time>2022-06-10T15:40:38Z</time>
      </trkpt>
      <trkpt lat="44.52905" lon="4.41154">
        <ele>163.9</ele>
        <time>2022-06-10T15:40:39Z</time>
      </trkpt>
      <trkpt lat="44.52901" lon="4.41147">
        <ele>163.8</ele>
        <time>2022-06-10T15:40:40Z</time>
      </trkpt>
      <trkpt lat="44.52896" lon="4.41141">
        <ele>163.8</ele>
        <time>2022-06-10T15:40:41Z</time>
      </trkpt>
      <trkpt lat="44.52891" lon="4.41135">
        <ele>163.8</ele>
        <time>2022-06-10T15:40:42Z</time>
      </trkpt>
      <trkpt lat="44.52887" lon="4.41129">
        <ele>163.9</ele>
        <time>2022-06-10T15:40:43Z</time>
      </trkpt>
      <trkpt lat="44.52883" lon="4.41123">
        <ele>163.9</ele>
        <time>2022-06-10T15:40:44Z</time>
      </trkpt>
      <trkpt lat="44.52878" lon="4.41117">
        <ele>163.9</ele>
        <time>2022-06-10T15:40:45Z</time>
      </trkpt>
      <trkpt lat="44.52873" lon="4.41111">
        <ele>163.9</ele>
        <time>2022-06-10T15:40:46Z</time>
      </trkpt>
      <trkpt lat="44.52868" lon="4.41105">
        <ele>163.9</ele>
        <time>2022-06-10T15:40:47Z</time>
      </trkpt>
      <trkpt lat="44.52863" lon="4.41098">
        <ele>163.9</ele>
        <time>2022-06-10T15:40:48Z</time>
      </trkpt>
      <trkpt lat="44.52859" lon="4.41092">
        <ele>163.9</ele>
        <time>2022-06-10T15:40:49Z</time>
      </trkpt>
      <trkpt lat="44.52854" lon="4.41086">
        <ele>163.9</ele>
        <time>2022-06-10T15:40:50Z</time>
      </trkpt>
      <trkpt lat="44.5285" lon="4.4108">
        <ele>163.9</ele>
        <time>2022-06-10T15:40:51Z</time>
      </trkpt>
      <trkpt lat="44.52846" lon="4.41074">
        <ele>163.9</ele>
        <time>2022-06-10T15:40:52Z</time>
      </trkpt>
      <trkpt lat="44.52841" lon="4.41067">
        <ele>163.9</ele>
        <time>2022-06-10T15:40:53Z</time>
      </trkpt>
      <trkpt lat="44.52836" lon="4.41061">
        <ele>163.9</ele>
        <time>2022-06-10T15:40:54Z</time>
      </trkpt>
      <trkpt lat="44.52832" lon="4.41056">
        <ele>163.9</ele>
        <time>2022-06-10T15:40:55Z</time>
      </trkpt>
      <trkpt lat="44.52827" lon="4.4105">
        <ele>163.8</ele>
        <time>2022-06-10T15:40:56Z</time>
      </trkpt>
      <trkpt lat="44.52822" lon="4.41045">
        <ele>163.8</ele>
        <time>2022-06-10T15:40:57Z</time>
      </trkpt>
      <trkpt lat="44.52818" lon="4.41039">
        <ele>163.8</ele>
        <time>2022-06-10T15:40:58Z</time>
      </trkpt>
      <trkpt lat="44.52813" lon="4.41033">
        <ele>163.8</ele>
        <time>2022-06-10T15:40:59Z</time>
      </trkpt>
      <trkpt lat="44.52809" lon="4.41027">
        <ele>163.8</ele>
        <time>2022-06-10T15:41:00Z</time>
      </trkpt>
      <trkpt lat="44.52804" lon="4.41021">
        <ele>163.7</ele>
        <time>2022-06-10T15:41:01Z</time>
      </trkpt>
      <trkpt lat="44.528" lon="4.41015">
        <ele>163.7</ele>
        <time>2022-06-10T15:41:02Z</time>
      </trkpt>
      <trkpt lat="44.52795" lon="4.4101">
        <ele>163.7</ele>
        <time>2022-06-10T15:41:03Z</time>
      </trkpt>
      <trkpt lat="44.52791" lon="4.41004">
        <ele>163.7</ele>
        <time>2022-06-10T15:41:04Z</time>
      </trkpt>
      <trkpt lat="44.52786" lon="4.40998">
        <ele>163.8</ele>
        <time>2022-06-10T15:41:05Z</time>
      </trkpt>
      <trkpt lat="44.52781" lon="4.40992">
        <ele>163.8</ele>
        <time>2022-06-10T15:41:06Z</time>
      </trkpt>
      <trkpt lat="44.52777" lon="4.40986">
        <ele>163.9</ele>
        <time>2022-06-10T15:41:07Z</time>
      </trkpt>
      <trkpt lat="44.52773" lon="4.4098">
        <ele>163.9</ele>
        <time>2022-06-10T15:41:08Z</time>
      </trkpt>
      <trkpt lat="44.52768" lon="4.40974">
        <ele>163.9</ele>
        <time>2022-06-10T15:41:09Z</time>
      </trkpt>
      <trkpt lat="44.52764" lon="4.40968">
        <ele>163.9</ele>
        <time>2022-06-10T15:41:10Z</time>
      </trkpt>
      <trkpt lat="44.52759" lon="4.40962">
        <ele>163.8</ele>
        <time>2022-06-10T15:41:11Z</time>
      </trkpt>
      <trkpt lat="44.52755" lon="4.40957">
        <ele>163.8</ele>
        <time>2022-06-10T15:41:12Z</time>
      </trkpt>
      <trkpt lat="44.52751" lon="4.40951">
        <ele>163.8</ele>
        <time>2022-06-10T15:41:13Z</time>
      </trkpt>
      <trkpt lat="44.52746" lon="4.40946">
        <ele>163.8</ele>
        <time>2022-06-10T15:41:14Z</time>
      </trkpt>
      <trkpt lat="44.52742" lon="4.4094">
        <ele>163.8</ele>
        <time>2022-06-10T15:41:15Z</time>
      </trkpt>
      <trkpt lat="44.52737" lon="4.40935">
        <ele>163.8</ele>
        <time>2022-06-10T15:41:16Z</time>
      </trkpt>
      <trkpt lat="44.52733" lon="4.40929">
        <ele>163.8</ele>
        <time>2022-06-10T15:41:17Z</time>
      </trkpt>
      <trkpt lat="44.52728" lon="4.40924">
        <ele>163.8</ele>
        <time>2022-06-10T15:41:18Z</time>
      </trkpt>
      <trkpt lat="44.52724" lon="4.40918">
        <ele>163.9</ele>
        <time>2022-06-10T15:41:19Z</time>
      </trkpt>
      <trkpt lat="44.5272" lon="4.40913">
        <ele>163.9</ele>
        <time>2022-06-10T15:41:20Z</time>
      </trkpt>
      <trkpt lat="44.52716" lon="4.40907">
        <ele>163.9</ele>
        <time>2022-06-10T15:41:21Z</time>
      </trkpt>
      <trkpt lat="44.52712" lon="4.40902">
        <ele>163.9</ele>
        <time>2022-06-10T15:41:22Z</time>
      </trkpt>
      <trkpt lat="44.52707" lon="4.40895">
        <ele>163.9</ele>
        <time>2022-06-10T15:41:23Z</time>
      </trkpt>
      <trkpt lat="44.52703" lon="4.40889">
        <ele>163.8</ele>
        <time>2022-06-10T15:41:24Z</time>
      </trkpt>
      <trkpt lat="44.52698" lon="4.40883">
        <ele>163.8</ele>
        <time>2022-06-10T15:41:25Z</time>
      </trkpt>
      <trkpt lat="44.52693" lon="4.40876">
        <ele>163.8</ele>
        <time>2022-06-10T15:41:26Z</time>
      </trkpt>
      <trkpt lat="44.52689" lon="4.4087">
        <ele>163.8</ele>
        <time>2022-06-10T15:41:27Z</time>
      </trkpt>
      <trkpt lat="44.52685" lon="4.40863">
        <ele>163.7</ele>
        <time>2022-06-10T15:41:28Z</time>
      </trkpt>
      <trkpt lat="44.52681" lon="4.40856">
        <ele>163.7</ele>
        <time>2022-06-10T15:41:29Z</time>
      </trkpt>
      <trkpt lat="44.52676" lon="4.4085">
        <ele>163.7</ele>
        <time>2022-06-10T15:41:30Z</time>
      </trkpt>
      <trkpt lat="44.5267" lon="4.40845">
        <ele>163.6</ele>
        <time>2022-06-10T15:41:31Z</time>
      </trkpt>
      <trkpt lat="44.52666" lon="4.4084">
        <ele>163.6</ele>
        <time>2022-06-10T15:41:32Z</time>
      </trkpt>
      <trkpt lat="44.52661" lon="4.40835">
        <ele>163.6</ele>
        <time>2022-06-10T15:41:33Z</time>
      </trkpt>
      <trkpt lat="44.52656" lon="4.40828">
        <ele>163.6</ele>
        <time>2022-06-10T15:41:34Z</time>
      </trkpt>
      <trkpt lat="44.52652" lon="4.40822">
        <ele>163.6</ele>
        <time>2022-06-10T15:41:35Z</time>
      </trkpt>
      <trkpt lat="44.52648" lon="4.40816">
        <ele>163.6</ele>
        <time>2022-06-10T15:41:36Z</time>
      </trkpt>
      <trkpt lat="44.52643" lon="4.4081">
        <ele>163.6</ele>
        <time>2022-06-10T15:41:37Z</time>
      </trkpt>
      <trkpt lat="44.52639" lon="4.40804">
        <ele>163.6</ele>
        <time>2022-06-10T15:41:38Z</time>
      </trkpt>
      <trkpt lat="44.52634" lon="4.40799">
        <ele>163.6</ele>
        <time>2022-06-10T15:41:39Z</time>
      </trkpt>
      <trkpt lat="44.5263" lon="4.40793">
        <ele>163.6</ele>
        <time>2022-06-10T15:41:40Z</time>
      </trkpt>
      <trkpt lat="44.52625" lon="4.40786">
        <ele>163.6</ele>
        <time>2022-06-10T15:41:41Z</time>
      </trkpt>
      <trkpt lat="44.52621" lon="4.4078">
        <ele>163.6</ele>
        <time>2022-06-10T15:41:42Z</time>
      </trkpt>
      <trkpt lat="44.52616" lon="4.40774">
        <ele>163.5</ele>
        <time>2022-06-10T15:41:43Z</time>
      </trkpt>
      <trkpt lat="44.52612" lon="4.40768">
        <ele>163.5</ele>
        <time>2022-06-10T15:41:44Z</time>
      </trkpt>
      <trkpt lat="44.52607" lon="4.40762">
        <ele>163.5</ele>
        <time>2022-06-10T15:41:45Z</time>
      </trkpt>
      <trkpt lat="44.52602" lon="4.40756">
        <ele>163.5</ele>
        <time>2022-06-10T15:41:46Z</time>
      </trkpt>
      <trkpt lat="44.52597" lon="4.4075">
        <ele>163.5</ele>
        <time>2022-06-10T15:41:47Z</time>
      </trkpt>
      <trkpt lat="44.52593" lon="4.40744">
        <ele>163.4</ele>
        <time>2022-06-10T15:41:48Z</time>
      </trkpt>
      <trkpt lat="44.52588" lon="4.40738">
        <ele>163.4</ele>
        <time>2022-06-10T15:41:49Z</time>
      </trkpt>
      <trkpt lat="44.52518" lon="4.40649">
        <ele>163.6</ele>
        <time>2022-06-10T15:42:05Z</time>
      </trkpt>
      <trkpt lat="44.52518" lon="4.40649">
        <ele>163.6</ele>
        <time>2022-06-10T15:42:05Z</time>
      </trkpt>
      <trkpt lat="44.52511" lon="4.40637">
        <ele>163.6</ele>
        <time>2022-06-10T15:42:06Z</time>
      </trkpt>
      <trkpt lat="44.52506" lon="4.40629">
        <ele>163.6</ele>
        <time>2022-06-10T15:42:07Z</time>
      </trkpt>
      <trkpt lat="44.52501" lon="4.40624">
        <ele>163.6</ele>
        <time>2022-06-10T15:42:08Z</time>
      </trkpt>
      <trkpt lat="44.52496" lon="4.40617">
        <ele>163.6</ele>
        <time>2022-06-10T15:42:09Z</time>
      </trkpt>
      <trkpt lat="44.52492" lon="4.40611">
        <ele>163.6</ele>
        <time>2022-06-10T15:42:10Z</time>
      </trkpt>
      <trkpt lat="44.52487" lon="4.40605">
        <ele>163.6</ele>
        <time>2022-06-10T15:42:11Z</time>
      </trkpt>
      <trkpt lat="44.52482" lon="4.40599">
        <ele>163.7</ele>
        <time>2022-06-10T15:42:12Z</time>
      </trkpt>
      <trkpt lat="44.52477" lon="4.40593">
        <ele>163.7</ele>
        <time>2022-06-10T15:42:13Z</time>
      </trkpt>
      <trkpt lat="44.52473" lon="4.40587">
        <ele>163.7</ele>
        <time>2022-06-10T15:42:14Z</time>
      </trkpt>
      <trkpt lat="44.52468" lon="4.40581">
        <ele>163.7</ele>
        <time>2022-06-10T15:42:15Z</time>
      </trkpt>
      <trkpt lat="44.52464" lon="4.40575">
        <ele>163.7</ele>
        <time>2022-06-10T15:42:16Z</time>
      </trkpt>
      <trkpt lat="44.52459" lon="4.40569">
        <ele>163.7</ele>
        <time>2022-06-10T15:42:17Z</time>
      </trkpt>
      <trkpt lat="44.52455" lon="4.40563">
        <ele>163.7</ele>
        <time>2022-06-10T15:42:18Z</time>
      </trkpt>
      <trkpt lat="44.5245" lon="4.40557">
        <ele>163.8</ele>
        <time>2022-06-10T15:42:19Z</time>
      </trkpt>
      <trkpt lat="44.52446" lon="4.4055">
        <ele>163.8</ele>
        <time>2022-06-10T15:42:20Z</time>
      </trkpt>
      <trkpt lat="44.52441" lon="4.40544">
        <ele>163.8</ele>
        <time>2022-06-10T15:42:21Z</time>
      </trkpt>
      <trkpt lat="44.52437" lon="4.40538">
        <ele>163.9</ele>
        <time>2022-06-10T15:42:22Z</time>
      </trkpt>
      <trkpt lat="44.52433" lon="4.40532">
        <ele>164</ele>
        <time>2022-06-10T15:42:23Z</time>
      </trkpt>
      <trkpt lat="44.52428" lon="4.40527">
        <ele>164</ele>
        <time>2022-06-10T15:42:24Z</time>
      </trkpt>
      <trkpt lat="44.52425" lon="4.40521">
        <ele>164.1</ele>
        <time>2022-06-10T15:42:25Z</time>
      </trkpt>
      <trkpt lat="44.52421" lon="4.40516">
        <ele>164.1</ele>
        <time>2022-06-10T15:42:26Z</time>
      </trkpt>
      <trkpt lat="44.52421" lon="4.40512">
        <ele>164.1</ele>
        <time>2022-06-10T15:42:27Z</time>
      </trkpt>
      <trkpt lat="44.52421" lon="4.4051">
        <ele>164.1</ele>
        <time>2022-06-10T15:42:28Z</time>
      </trkpt>
      <trkpt lat="44.52419" lon="4.40507">
        <ele>164.1</ele>
        <time>2022-06-10T15:42:29Z</time>
      </trkpt>
      <trkpt lat="44.52417" lon="4.40504">
        <ele>164.1</ele>
        <time>2022-06-10T15:42:30Z</time>
      </trkpt>
      <trkpt lat="44.52415" lon="4.405">
        <ele>164.1</ele>
        <time>2022-06-10T15:42:31Z</time>
      </trkpt>
      <trkpt lat="44.52413" lon="4.40495">
        <ele>164.1</ele>
        <time>2022-06-10T15:42:32Z</time>
      </trkpt>
      <trkpt lat="44.52408" lon="4.40487">
        <ele>164.2</ele>
        <time>2022-06-10T15:42:33Z</time>
      </trkpt>
      <trkpt lat="44.52406" lon="4.40485">
        <ele>164.2</ele>
        <time>2022-06-10T15:42:34Z</time>
      </trkpt>
      <trkpt lat="44.52405" lon="4.40484">
        <ele>164.2</ele>
        <time>2022-06-10T15:42:35Z</time>
      </trkpt>
      <trkpt lat="44.52403" lon="4.40481">
        <ele>164.2</ele>
        <time>2022-06-10T15:42:36Z</time>
      </trkpt>
      <trkpt lat="44.524" lon="4.40479">
        <ele>164.2</ele>
        <time>2022-06-10T15:42:37Z</time>
      </trkpt>
      <trkpt lat="44.52398" lon="4.40475">
        <ele>164.2</ele>
        <time>2022-06-10T15:42:38Z</time>
      </trkpt>
      <trkpt lat="44.52395" lon="4.40469">
        <ele>164.2</ele>
        <time>2022-06-10T15:42:39Z</time>
      </trkpt>
      <trkpt lat="44.52393" lon="4.40464">
        <ele>164.1</ele>
        <time>2022-06-10T15:42:41Z</time>
      </trkpt>
      <trkpt lat="44.5239" lon="4.4046">
        <ele>164.1</ele>
        <time>2022-06-10T15:42:42Z</time>
      </trkpt>
      <trkpt lat="44.52389" lon="4.40455">
        <ele>164.1</ele>
        <time>2022-06-10T15:42:43Z</time>
      </trkpt>
      <trkpt lat="44.52386" lon="4.40448">
        <ele>164</ele>
        <time>2022-06-10T15:42:44Z</time>
      </trkpt>
      <trkpt lat="44.52381" lon="4.40436">
        <ele>163.8</ele>
        <time>2022-06-10T15:42:46Z</time>
      </trkpt>
      <trkpt lat="44.52379" lon="4.4043">
        <ele>163.8</ele>
        <time>2022-06-10T15:42:47Z</time>
      </trkpt>
      <trkpt lat="44.52377" lon="4.40424">
        <ele>163.6</ele>
        <time>2022-06-10T15:42:48Z</time>
      </trkpt>
      <trkpt lat="44.52374" lon="4.40425">
        <ele>163.6</ele>
        <time>2022-06-10T15:42:49Z</time>
      </trkpt>
      <trkpt lat="44.52371" lon="4.40422">
        <ele>163.6</ele>
        <time>2022-06-10T15:42:50Z</time>
      </trkpt>
      <trkpt lat="44.52345" lon="4.40452">
        <ele>163.4</ele>
        <time>2022-06-10T15:42:56Z</time>
      </trkpt>
      <trkpt lat="44.52353" lon="4.40427">
        <ele>163.4</ele>
        <time>2022-06-10T15:42:57Z</time>
      </trkpt>
      <trkpt lat="44.52353" lon="4.40428">
        <ele>163.4</ele>
        <time>2022-06-10T15:42:58Z</time>
      </trkpt>
      <trkpt lat="44.52349" lon="4.40428">
        <ele>163.4</ele>
        <time>2022-06-10T15:42:59Z</time>
      </trkpt>
      <trkpt lat="44.52347" lon="4.40428">
        <ele>163.4</ele>
        <time>2022-06-10T15:43:00Z</time>
      </trkpt>
      <trkpt lat="44.52345" lon="4.40425">
        <ele>163.4</ele>
        <time>2022-06-10T15:43:01Z</time>
      </trkpt>
      <trkpt lat="44.52343" lon="4.40421">
        <ele>163.3</ele>
        <time>2022-06-10T15:43:02Z</time>
      </trkpt>
      <trkpt lat="44.52341" lon="4.40416">
        <ele>163.3</ele>
        <time>2022-06-10T15:43:03Z</time>
      </trkpt>
      <trkpt lat="44.52339" lon="4.40413">
        <ele>163.3</ele>
        <time>2022-06-10T15:43:04Z</time>
      </trkpt>
      <trkpt lat="44.52336" lon="4.4041">
        <ele>163.2</ele>
        <time>2022-06-10T15:43:05Z</time>
      </trkpt>
      <trkpt lat="44.52331" lon="4.40403">
        <ele>163.2</ele>
        <time>2022-06-10T15:43:06Z</time>
      </trkpt>
      <trkpt lat="44.52327" lon="4.40398">
        <ele>163.1</ele>
        <time>2022-06-10T15:43:07Z</time>
      </trkpt>
      <trkpt lat="44.52324" lon="4.40393">
        <ele>163.1</ele>
        <time>2022-06-10T15:43:08Z</time>
      </trkpt>
      <trkpt lat="44.5232" lon="4.40388">
        <ele>163.1</ele>
        <time>2022-06-10T15:43:09Z</time>
      </trkpt>
      <trkpt lat="44.52316" lon="4.40383">
        <ele>163</ele>
        <time>2022-06-10T15:43:10Z</time>
      </trkpt>
      <trkpt lat="44.52312" lon="4.40378">
        <ele>163</ele>
        <time>2022-06-10T15:43:11Z</time>
      </trkpt>
      <trkpt lat="44.52309" lon="4.40373">
        <ele>162.9</ele>
        <time>2022-06-10T15:43:12Z</time>
      </trkpt>
      <trkpt lat="44.52305" lon="4.40368">
        <ele>162.9</ele>
        <time>2022-06-10T15:43:13Z</time>
      </trkpt>
      <trkpt lat="44.52301" lon="4.40363">
        <ele>162.9</ele>
        <time>2022-06-10T15:43:14Z</time>
      </trkpt>
      <trkpt lat="44.52297" lon="4.40358">
        <ele>162.8</ele>
        <time>2022-06-10T15:43:15Z</time>
      </trkpt>
      <trkpt lat="44.52293" lon="4.40353">
        <ele>162.8</ele>
        <time>2022-06-10T15:43:16Z</time>
      </trkpt>
      <trkpt lat="44.52289" lon="4.40348">
        <ele>162.8</ele>
        <time>2022-06-10T15:43:17Z</time>
      </trkpt>
      <trkpt lat="44.52285" lon="4.40343">
        <ele>162.7</ele>
        <time>2022-06-10T15:43:18Z</time>
      </trkpt>
      <trkpt lat="44.52281" lon="4.40338">
        <ele>162.7</ele>
        <time>2022-06-10T15:43:19Z</time>
      </trkpt>
      <trkpt lat="44.52277" lon="4.40333">
        <ele>162.6</ele>
        <time>2022-06-10T15:43:20Z</time>
      </trkpt>
      <trkpt lat="44.52273" lon="4.40327">
        <ele>162.6</ele>
        <time>2022-06-10T15:43:21Z</time>
      </trkpt>
      <trkpt lat="44.52269" lon="4.40322">
        <ele>162.5</ele>
        <time>2022-06-10T15:43:22Z</time>
      </trkpt>
      <trkpt lat="44.52265" lon="4.40316">
        <ele>162.5</ele>
        <time>2022-06-10T15:43:23Z</time>
      </trkpt>
      <trkpt lat="44.52261" lon="4.40311">
        <ele>162.4</ele>
        <time>2022-06-10T15:43:24Z</time>
      </trkpt>
      <trkpt lat="44.52256" lon="4.40305">
        <ele>162.3</ele>
        <time>2022-06-10T15:43:25Z</time>
      </trkpt>
      <trkpt lat="44.52252" lon="4.403">
        <ele>162.2</ele>
        <time>2022-06-10T15:43:26Z</time>
      </trkpt>
      <trkpt lat="44.52247" lon="4.40294">
        <ele>162.2</ele>
        <time>2022-06-10T15:43:27Z</time>
      </trkpt>
      <trkpt lat="44.52243" lon="4.40289">
        <ele>162.1</ele>
        <time>2022-06-10T15:43:28Z</time>
      </trkpt>
      <trkpt lat="44.52238" lon="4.40283">
        <ele>162.1</ele>
        <time>2022-06-10T15:43:29Z</time>
      </trkpt>
      <trkpt lat="44.52234" lon="4.40277">
        <ele>162</ele>
        <time>2022-06-10T15:43:30Z</time>
      </trkpt>
      <trkpt lat="44.52229" lon="4.40271">
        <ele>162</ele>
        <time>2022-06-10T15:43:31Z</time>
      </trkpt>
      <trkpt lat="44.52225" lon="4.40265">
        <ele>162</ele>
        <time>2022-06-10T15:43:32Z</time>
      </trkpt>
      <trkpt lat="44.5222" lon="4.4026">
        <ele>162</ele>
        <time>2022-06-10T15:43:33Z</time>
      </trkpt>
      <trkpt lat="44.52216" lon="4.40254">
        <ele>162</ele>
        <time>2022-06-10T15:43:34Z</time>
      </trkpt>
      <trkpt lat="44.52211" lon="4.40249">
        <ele>161.9</ele>
        <time>2022-06-10T15:43:35Z</time>
      </trkpt>
      <trkpt lat="44.52207" lon="4.40243">
        <ele>161.9</ele>
        <time>2022-06-10T15:43:36Z</time>
      </trkpt>
      <trkpt lat="44.52203" lon="4.40238">
        <ele>161.9</ele>
        <time>2022-06-10T15:43:37Z</time>
      </trkpt>
      <trkpt lat="44.52199" lon="4.40232">
        <ele>161.8</ele>
        <time>2022-06-10T15:43:38Z</time>
      </trkpt>
      <trkpt lat="44.52194" lon="4.40226">
        <ele>161.8</ele>
        <time>2022-06-10T15:43:39Z</time>
      </trkpt>
      <trkpt lat="44.52189" lon="4.4022">
        <ele>161.7</ele>
        <time>2022-06-10T15:43:40Z</time>
      </trkpt>
      <trkpt lat="44.52185" lon="4.40214">
        <ele>161.7</ele>
        <time>2022-06-10T15:43:41Z</time>
      </trkpt>
      <trkpt lat="44.5218" lon="4.40208">
        <ele>161.7</ele>
        <time>2022-06-10T15:43:42Z</time>
      </trkpt>
      <trkpt lat="44.52176" lon="4.40203">
        <ele>161.7</ele>
        <time>2022-06-10T15:43:43Z</time>
      </trkpt>
      <trkpt lat="44.52171" lon="4.40197">
        <ele>161.7</ele>
        <time>2022-06-10T15:43:44Z</time>
      </trkpt>
      <trkpt lat="44.52166" lon="4.40191">
        <ele>161.6</ele>
        <time>2022-06-10T15:43:45Z</time>
      </trkpt>
      <trkpt lat="44.52162" lon="4.40186">
        <ele>161.6</ele>
        <time>2022-06-10T15:43:46Z</time>
      </trkpt>
      <trkpt lat="44.52157" lon="4.40179">
        <ele>161.6</ele>
        <time>2022-06-10T15:43:47Z</time>
      </trkpt>
      <trkpt lat="44.52153" lon="4.40173">
        <ele>161.6</ele>
        <time>2022-06-10T15:43:48Z</time>
      </trkpt>
      <trkpt lat="44.52148" lon="4.40167">
        <ele>161.6</ele>
        <time>2022-06-10T15:43:49Z</time>
      </trkpt>
      <trkpt lat="44.52144" lon="4.40162">
        <ele>161.5</ele>
        <time>2022-06-10T15:43:50Z</time>
      </trkpt>
      <trkpt lat="44.52139" lon="4.40156">
        <ele>161.5</ele>
        <time>2022-06-10T15:43:51Z</time>
      </trkpt>
      <trkpt lat="44.52135" lon="4.40149">
        <ele>161.5</ele>
        <time>2022-06-10T15:43:52Z</time>
      </trkpt>
      <trkpt lat="44.52131" lon="4.40144">
        <ele>161.5</ele>
        <time>2022-06-10T15:43:53Z</time>
      </trkpt>
      <trkpt lat="44.52126" lon="4.40139">
        <ele>161.5</ele>
        <time>2022-06-10T15:43:54Z</time>
      </trkpt>
      <trkpt lat="44.52121" lon="4.40133">
        <ele>161.5</ele>
        <time>2022-06-10T15:43:55Z</time>
      </trkpt>
      <trkpt lat="44.52117" lon="4.40127">
        <ele>161.4</ele>
        <time>2022-06-10T15:43:56Z</time>
      </trkpt>
      <trkpt lat="44.52112" lon="4.40121">
        <ele>161.4</ele>
        <time>2022-06-10T15:43:57Z</time>
      </trkpt>
      <trkpt lat="44.52108" lon="4.40115">
        <ele>161.4</ele>
        <time>2022-06-10T15:43:58Z</time>
      </trkpt>
      <trkpt lat="44.52103" lon="4.40109">
        <ele>161.3</ele>
        <time>2022-06-10T15:43:59Z</time>
      </trkpt>
      <trkpt lat="44.52098" lon="4.40103">
        <ele>161.3</ele>
        <time>2022-06-10T15:44:00Z</time>
      </trkpt>
      <trkpt lat="44.52094" lon="4.40097">
        <ele>161.3</ele>
        <time>2022-06-10T15:44:01Z</time>
      </trkpt>
      <trkpt lat="44.5209" lon="4.40091">
        <ele>161.2</ele>
        <time>2022-06-10T15:44:02Z</time>
      </trkpt>
      <trkpt lat="44.52085" lon="4.40085">
        <ele>161.2</ele>
        <time>2022-06-10T15:44:03Z</time>
      </trkpt>
      <trkpt lat="44.52081" lon="4.4008">
        <ele>161.1</ele>
        <time>2022-06-10T15:44:04Z</time>
      </trkpt>
      <trkpt lat="44.52077" lon="4.40074">
        <ele>161.1</ele>
        <time>2022-06-10T15:44:05Z</time>
      </trkpt>
      <trkpt lat="44.52073" lon="4.40067">
        <ele>161.1</ele>
        <time>2022-06-10T15:44:06Z</time>
      </trkpt>
      <trkpt lat="44.52068" lon="4.40062">
        <ele>161</ele>
        <time>2022-06-10T15:44:07Z</time>
      </trkpt>
      <trkpt lat="44.52064" lon="4.40056">
        <ele>161</ele>
        <time>2022-06-10T15:44:08Z</time>
      </trkpt>
      <trkpt lat="44.5206" lon="4.4005">
        <ele>161</ele>
        <time>2022-06-10T15:44:09Z</time>
      </trkpt>
      <trkpt lat="44.52055" lon="4.40045">
        <ele>160.9</ele>
        <time>2022-06-10T15:44:10Z</time>
      </trkpt>
      <trkpt lat="44.52051" lon="4.40038">
        <ele>160.9</ele>
        <time>2022-06-10T15:44:11Z</time>
      </trkpt>
      <trkpt lat="44.52046" lon="4.40032">
        <ele>160.8</ele>
        <time>2022-06-10T15:44:12Z</time>
      </trkpt>
      <trkpt lat="44.52042" lon="4.40026">
        <ele>160.8</ele>
        <time>2022-06-10T15:44:13Z</time>
      </trkpt>
      <trkpt lat="44.52038" lon="4.4002">
        <ele>160.8</ele>
        <time>2022-06-10T15:44:14Z</time>
      </trkpt>
      <trkpt lat="44.52034" lon="4.40015">
        <ele>160.8</ele>
        <time>2022-06-10T15:44:15Z</time>
      </trkpt>
      <trkpt lat="44.52029" lon="4.40009">
        <ele>160.8</ele>
        <time>2022-06-10T15:44:16Z</time>
      </trkpt>
      <trkpt lat="44.52025" lon="4.40004">
        <ele>160.8</ele>
        <time>2022-06-10T15:44:17Z</time>
      </trkpt>
      <trkpt lat="44.5202" lon="4.39999">
        <ele>160.8</ele>
        <time>2022-06-10T15:44:18Z</time>
      </trkpt>
      <trkpt lat="44.52016" lon="4.39993">
        <ele>160.8</ele>
        <time>2022-06-10T15:44:19Z</time>
      </trkpt>
      <trkpt lat="44.52012" lon="4.39988">
        <ele>160.8</ele>
        <time>2022-06-10T15:44:20Z</time>
      </trkpt>
      <trkpt lat="44.52008" lon="4.39982">
        <ele>160.7</ele>
        <time>2022-06-10T15:44:21Z</time>
      </trkpt>
      <trkpt lat="44.52003" lon="4.39976">
        <ele>160.7</ele>
        <time>2022-06-10T15:44:22Z</time>
      </trkpt>
      <trkpt lat="44.51999" lon="4.39971">
        <ele>160.7</ele>
        <time>2022-06-10T15:44:23Z</time>
      </trkpt>
      <trkpt lat="44.51995" lon="4.39966">
        <ele>160.7</ele>
        <time>2022-06-10T15:44:24Z</time>
      </trkpt>
      <trkpt lat="44.51992" lon="4.39961">
        <ele>160.6</ele>
        <time>2022-06-10T15:44:25Z</time>
      </trkpt>
      <trkpt lat="44.51988" lon="4.39956">
        <ele>160.6</ele>
        <time>2022-06-10T15:44:26Z</time>
      </trkpt>
      <trkpt lat="44.51983" lon="4.39951">
        <ele>160.6</ele>
        <time>2022-06-10T15:44:27Z</time>
      </trkpt>
      <trkpt lat="44.51979" lon="4.39946">
        <ele>160.6</ele>
        <time>2022-06-10T15:44:28Z</time>
      </trkpt>
      <trkpt lat="44.51974" lon="4.39941">
        <ele>160.5</ele>
        <time>2022-06-10T15:44:29Z</time>
      </trkpt>
      <trkpt lat="44.5197" lon="4.39935">
        <ele>160.5</ele>
        <time>2022-06-10T15:44:30Z</time>
      </trkpt>
      <trkpt lat="44.51966" lon="4.3993">
        <ele>160.4</ele>
        <time>2022-06-10T15:44:31Z</time>
      </trkpt>
      <trkpt lat="44.51962" lon="4.39924">
        <ele>160.4</ele>
        <time>2022-06-10T15:44:32Z</time>
      </trkpt>
      <trkpt lat="44.51958" lon="4.39919">
        <ele>160.3</ele>
        <time>2022-06-10T15:44:33Z</time>
      </trkpt>
      <trkpt lat="44.51953" lon="4.39914">
        <ele>160.3</ele>
        <time>2022-06-10T15:44:34Z</time>
      </trkpt>
      <trkpt lat="44.51949" lon="4.39909">
        <ele>160.2</ele>
        <time>2022-06-10T15:44:35Z</time>
      </trkpt>
      <trkpt lat="44.51944" lon="4.39903">
        <ele>160.2</ele>
        <time>2022-06-10T15:44:36Z</time>
      </trkpt>
      <trkpt lat="44.51939" lon="4.39898">
        <ele>160.2</ele>
        <time>2022-06-10T15:44:37Z</time>
      </trkpt>
      <trkpt lat="44.51934" lon="4.39893">
        <ele>160.1</ele>
        <time>2022-06-10T15:44:38Z</time>
      </trkpt>
      <trkpt lat="44.5193" lon="4.39889">
        <ele>160.1</ele>
        <time>2022-06-10T15:44:39Z</time>
      </trkpt>
      <trkpt lat="44.51925" lon="4.39883">
        <ele>160.1</ele>
        <time>2022-06-10T15:44:40Z</time>
      </trkpt>
      <trkpt lat="44.5192" lon="4.39878">
        <ele>160</ele>
        <time>2022-06-10T15:44:41Z</time>
      </trkpt>
      <trkpt lat="44.51915" lon="4.39874">
        <ele>160</ele>
        <time>2022-06-10T15:44:42Z</time>
      </trkpt>
      <trkpt lat="44.5191" lon="4.3987">
        <ele>160</ele>
        <time>2022-06-10T15:44:43Z</time>
      </trkpt>
      <trkpt lat="44.51905" lon="4.39865">
        <ele>160</ele>
        <time>2022-06-10T15:44:44Z</time>
      </trkpt>
      <trkpt lat="44.519" lon="4.39861">
        <ele>160</ele>
        <time>2022-06-10T15:44:45Z</time>
      </trkpt>
      <trkpt lat="44.51895" lon="4.39857">
        <ele>160</ele>
        <time>2022-06-10T15:44:46Z</time>
      </trkpt>
      <trkpt lat="44.5189" lon="4.39853">
        <ele>159.9</ele>
        <time>2022-06-10T15:44:47Z</time>
      </trkpt>
      <trkpt lat="44.51885" lon="4.39849">
        <ele>159.9</ele>
        <time>2022-06-10T15:44:48Z</time>
      </trkpt>
      <trkpt lat="44.5188" lon="4.39845">
        <ele>159.8</ele>
        <time>2022-06-10T15:44:49Z</time>
      </trkpt>
      <trkpt lat="44.51875" lon="4.39842">
        <ele>159.8</ele>
        <time>2022-06-10T15:44:50Z</time>
      </trkpt>
      <trkpt lat="44.51869" lon="4.39838">
        <ele>159.7</ele>
        <time>2022-06-10T15:44:51Z</time>
      </trkpt>
      <trkpt lat="44.51864" lon="4.39834">
        <ele>159.7</ele>
        <time>2022-06-10T15:44:52Z</time>
      </trkpt>
      <trkpt lat="44.51859" lon="4.39831">
        <ele>159.7</ele>
        <time>2022-06-10T15:44:53Z</time>
      </trkpt>
      <trkpt lat="44.51853" lon="4.39828">
        <ele>159.7</ele>
        <time>2022-06-10T15:44:54Z</time>
      </trkpt>
      <trkpt lat="44.51848" lon="4.39824">
        <ele>159.7</ele>
        <time>2022-06-10T15:44:55Z</time>
      </trkpt>
      <trkpt lat="44.51842" lon="4.39821">
        <ele>159.7</ele>
        <time>2022-06-10T15:44:56Z</time>
      </trkpt>
      <trkpt lat="44.51836" lon="4.39818">
        <ele>159.7</ele>
        <time>2022-06-10T15:44:57Z</time>
      </trkpt>
      <trkpt lat="44.51831" lon="4.39815">
        <ele>159.7</ele>
        <time>2022-06-10T15:44:58Z</time>
      </trkpt>
      <trkpt lat="44.51826" lon="4.39811">
        <ele>159.6</ele>
        <time>2022-06-10T15:44:59Z</time>
      </trkpt>
      <trkpt lat="44.51821" lon="4.39808">
        <ele>159.6</ele>
        <time>2022-06-10T15:45:00Z</time>
      </trkpt>
      <trkpt lat="44.51815" lon="4.39806">
        <ele>159.6</ele>
        <time>2022-06-10T15:45:01Z</time>
      </trkpt>
      <trkpt lat="44.5181" lon="4.39803">
        <ele>159.6</ele>
        <time>2022-06-10T15:45:02Z</time>
      </trkpt>
      <trkpt lat="44.51804" lon="4.398">
        <ele>159.6</ele>
        <time>2022-06-10T15:45:03Z</time>
      </trkpt>
      <trkpt lat="44.51799" lon="4.39798">
        <ele>159.6</ele>
        <time>2022-06-10T15:45:04Z</time>
      </trkpt>
      <trkpt lat="44.51793" lon="4.39795">
        <ele>159.6</ele>
        <time>2022-06-10T15:45:05Z</time>
      </trkpt>
      <trkpt lat="44.51788" lon="4.39793">
        <ele>159.5</ele>
        <time>2022-06-10T15:45:06Z</time>
      </trkpt>
      <trkpt lat="44.51782" lon="4.3979">
        <ele>159.5</ele>
        <time>2022-06-10T15:45:07Z</time>
      </trkpt>
      <trkpt lat="44.51776" lon="4.39787">
        <ele>159.5</ele>
        <time>2022-06-10T15:45:08Z</time>
      </trkpt>
      <trkpt lat="44.5177" lon="4.39785">
        <ele>159.5</ele>
        <time>2022-06-10T15:45:09Z</time>
      </trkpt>
      <trkpt lat="44.51764" lon="4.39782">
        <ele>159.4</ele>
        <time>2022-06-10T15:45:10Z</time>
      </trkpt>
      <trkpt lat="44.51758" lon="4.39779">
        <ele>159.4</ele>
        <time>2022-06-10T15:45:11Z</time>
      </trkpt>
      <trkpt lat="44.51753" lon="4.39776">
        <ele>159.3</ele>
        <time>2022-06-10T15:45:12Z</time>
      </trkpt>
      <trkpt lat="44.51747" lon="4.39774">
        <ele>159.3</ele>
        <time>2022-06-10T15:45:13Z</time>
      </trkpt>
      <trkpt lat="44.51742" lon="4.39771">
        <ele>159.2</ele>
        <time>2022-06-10T15:45:14Z</time>
      </trkpt>
      <trkpt lat="44.51736" lon="4.39768">
        <ele>159.2</ele>
        <time>2022-06-10T15:45:15Z</time>
      </trkpt>
      <trkpt lat="44.5173" lon="4.39765">
        <ele>159.2</ele>
        <time>2022-06-10T15:45:16Z</time>
      </trkpt>
      <trkpt lat="44.51724" lon="4.39762">
        <ele>159.1</ele>
        <time>2022-06-10T15:45:17Z</time>
      </trkpt>
      <trkpt lat="44.51718" lon="4.3976">
        <ele>159.1</ele>
        <time>2022-06-10T15:45:18Z</time>
      </trkpt>
      <trkpt lat="44.51713" lon="4.39758">
        <ele>159.1</ele>
        <time>2022-06-10T15:45:19Z</time>
      </trkpt>
      <trkpt lat="44.51708" lon="4.39755">
        <ele>159.1</ele>
        <time>2022-06-10T15:45:20Z</time>
      </trkpt>
      <trkpt lat="44.51703" lon="4.39752">
        <ele>159.1</ele>
        <time>2022-06-10T15:45:21Z</time>
      </trkpt>
      <trkpt lat="44.51697" lon="4.3975">
        <ele>159</ele>
        <time>2022-06-10T15:45:22Z</time>
      </trkpt>
      <trkpt lat="44.51691" lon="4.39747">
        <ele>159</ele>
        <time>2022-06-10T15:45:23Z</time>
      </trkpt>
      <trkpt lat="44.51686" lon="4.39744">
        <ele>159</ele>
        <time>2022-06-10T15:45:24Z</time>
      </trkpt>
      <trkpt lat="44.51681" lon="4.39742">
        <ele>159</ele>
        <time>2022-06-10T15:45:25Z</time>
      </trkpt>
      <trkpt lat="44.51675" lon="4.39738">
        <ele>158.9</ele>
        <time>2022-06-10T15:45:26Z</time>
      </trkpt>
      <trkpt lat="44.5167" lon="4.39735">
        <ele>158.9</ele>
        <time>2022-06-10T15:45:27Z</time>
      </trkpt>
      <trkpt lat="44.51664" lon="4.39731">
        <ele>158.9</ele>
        <time>2022-06-10T15:45:28Z</time>
      </trkpt>
      <trkpt lat="44.51659" lon="4.39728">
        <ele>158.9</ele>
        <time>2022-06-10T15:45:29Z</time>
      </trkpt>
      <trkpt lat="44.51654" lon="4.39724">
        <ele>158.9</ele>
        <time>2022-06-10T15:45:30Z</time>
      </trkpt>
      <trkpt lat="44.51649" lon="4.3972">
        <ele>158.8</ele>
        <time>2022-06-10T15:45:31Z</time>
      </trkpt>
      <trkpt lat="44.51644" lon="4.39716">
        <ele>158.8</ele>
        <time>2022-06-10T15:45:32Z</time>
      </trkpt>
      <trkpt lat="44.51639" lon="4.39712">
        <ele>158.8</ele>
        <time>2022-06-10T15:45:33Z</time>
      </trkpt>
      <trkpt lat="44.51635" lon="4.39708">
        <ele>158.8</ele>
        <time>2022-06-10T15:45:34Z</time>
      </trkpt>
      <trkpt lat="44.5163" lon="4.39704">
        <ele>158.8</ele>
        <time>2022-06-10T15:45:35Z</time>
      </trkpt>
      <trkpt lat="44.51625" lon="4.397">
        <ele>158.7</ele>
        <time>2022-06-10T15:45:36Z</time>
      </trkpt>
      <trkpt lat="44.5162" lon="4.39695">
        <ele>158.7</ele>
        <time>2022-06-10T15:45:37Z</time>
      </trkpt>
      <trkpt lat="44.51616" lon="4.39691">
        <ele>158.7</ele>
        <time>2022-06-10T15:45:38Z</time>
      </trkpt>
      <trkpt lat="44.51611" lon="4.39687">
        <ele>158.7</ele>
        <time>2022-06-10T15:45:39Z</time>
      </trkpt>
      <trkpt lat="44.51607" lon="4.39682">
        <ele>158.7</ele>
        <time>2022-06-10T15:45:40Z</time>
      </trkpt>
      <trkpt lat="44.51602" lon="4.39677">
        <ele>158.7</ele>
        <time>2022-06-10T15:45:41Z</time>
      </trkpt>
      <trkpt lat="44.51598" lon="4.39673">
        <ele>158.6</ele>
        <time>2022-06-10T15:45:42Z</time>
      </trkpt>
      <trkpt lat="44.51593" lon="4.39668">
        <ele>158.6</ele>
        <time>2022-06-10T15:45:43Z</time>
      </trkpt>
      <trkpt lat="44.51589" lon="4.39664">
        <ele>158.6</ele>
        <time>2022-06-10T15:45:44Z</time>
      </trkpt>
      <trkpt lat="44.51584" lon="4.39659">
        <ele>158.5</ele>
        <time>2022-06-10T15:45:45Z</time>
      </trkpt>
      <trkpt lat="44.5158" lon="4.39655">
        <ele>158.5</ele>
        <time>2022-06-10T15:45:46Z</time>
      </trkpt>
      <trkpt lat="44.51575" lon="4.3965">
        <ele>158.4</ele>
        <time>2022-06-10T15:45:47Z</time>
      </trkpt>
      <trkpt lat="44.51571" lon="4.39645">
        <ele>158.4</ele>
        <time>2022-06-10T15:45:48Z</time>
      </trkpt>
      <trkpt lat="44.51566" lon="4.39639">
        <ele>158.4</ele>
        <time>2022-06-10T15:45:49Z</time>
      </trkpt>
      <trkpt lat="44.51561" lon="4.39634">
        <ele>158.4</ele>
        <time>2022-06-10T15:45:50Z</time>
      </trkpt>
      <trkpt lat="44.51556" lon="4.39628">
        <ele>158.3</ele>
        <time>2022-06-10T15:45:51Z</time>
      </trkpt>
      <trkpt lat="44.51552" lon="4.39622">
        <ele>158.3</ele>
        <time>2022-06-10T15:45:52Z</time>
      </trkpt>
      <trkpt lat="44.51547" lon="4.39617">
        <ele>158.3</ele>
        <time>2022-06-10T15:45:53Z</time>
      </trkpt>
      <trkpt lat="44.51542" lon="4.3961">
        <ele>158.3</ele>
        <time>2022-06-10T15:45:54Z</time>
      </trkpt>
      <trkpt lat="44.51538" lon="4.39604">
        <ele>158.2</ele>
        <time>2022-06-10T15:45:55Z</time>
      </trkpt>
      <trkpt lat="44.51534" lon="4.39598">
        <ele>158.2</ele>
        <time>2022-06-10T15:45:56Z</time>
      </trkpt>
      <trkpt lat="44.5153" lon="4.39592">
        <ele>158.2</ele>
        <time>2022-06-10T15:45:57Z</time>
      </trkpt>
      <trkpt lat="44.51526" lon="4.39586">
        <ele>158.2</ele>
        <time>2022-06-10T15:45:58Z</time>
      </trkpt>
      <trkpt lat="44.51522" lon="4.39581">
        <ele>158.2</ele>
        <time>2022-06-10T15:45:59Z</time>
      </trkpt>
      <trkpt lat="44.51519" lon="4.39575">
        <ele>158.2</ele>
        <time>2022-06-10T15:46:00Z</time>
      </trkpt>
      <trkpt lat="44.51515" lon="4.39569">
        <ele>158.2</ele>
        <time>2022-06-10T15:46:01Z</time>
      </trkpt>
      <trkpt lat="44.51512" lon="4.39563">
        <ele>158.2</ele>
        <time>2022-06-10T15:46:02Z</time>
      </trkpt>
      <trkpt lat="44.51509" lon="4.39556">
        <ele>158.2</ele>
        <time>2022-06-10T15:46:03Z</time>
      </trkpt>
      <trkpt lat="44.51505" lon="4.3955">
        <ele>158.2</ele>
        <time>2022-06-10T15:46:04Z</time>
      </trkpt>
      <trkpt lat="44.51501" lon="4.39544">
        <ele>158.2</ele>
        <time>2022-06-10T15:46:05Z</time>
      </trkpt>
      <trkpt lat="44.51497" lon="4.39538">
        <ele>158.2</ele>
        <time>2022-06-10T15:46:06Z</time>
      </trkpt>
      <trkpt lat="44.51493" lon="4.39531">
        <ele>158.2</ele>
        <time>2022-06-10T15:46:07Z</time>
      </trkpt>
      <trkpt lat="44.51489" lon="4.39525">
        <ele>158.2</ele>
        <time>2022-06-10T15:46:08Z</time>
      </trkpt>
      <trkpt lat="44.51485" lon="4.39519">
        <ele>158.2</ele>
        <time>2022-06-10T15:46:09Z</time>
      </trkpt>
      <trkpt lat="44.51482" lon="4.39513">
        <ele>158.2</ele>
        <time>2022-06-10T15:46:10Z</time>
      </trkpt>
      <trkpt lat="44.51478" lon="4.39508">
        <ele>158.2</ele>
        <time>2022-06-10T15:46:11Z</time>
      </trkpt>
      <trkpt lat="44.51474" lon="4.39502">
        <ele>158.2</ele>
        <time>2022-06-10T15:46:12Z</time>
      </trkpt>
      <trkpt lat="44.51471" lon="4.39496">
        <ele>158.2</ele>
        <time>2022-06-10T15:46:13Z</time>
      </trkpt>
      <trkpt lat="44.51467" lon="4.3949">
        <ele>158.2</ele>
        <time>2022-06-10T15:46:14Z</time>
      </trkpt>
      <trkpt lat="44.51463" lon="4.39484">
        <ele>158.2</ele>
        <time>2022-06-10T15:46:15Z</time>
      </trkpt>
      <trkpt lat="44.5146" lon="4.39478">
        <ele>158.2</ele>
        <time>2022-06-10T15:46:16Z</time>
      </trkpt>
      <trkpt lat="44.51457" lon="4.39472">
        <ele>158.2</ele>
        <time>2022-06-10T15:46:17Z</time>
      </trkpt>
      <trkpt lat="44.51453" lon="4.39465">
        <ele>158.2</ele>
        <time>2022-06-10T15:46:18Z</time>
      </trkpt>
      <trkpt lat="44.51449" lon="4.39459">
        <ele>158.2</ele>
        <time>2022-06-10T15:46:19Z</time>
      </trkpt>
      <trkpt lat="44.51446" lon="4.39454">
        <ele>158.2</ele>
        <time>2022-06-10T15:46:20Z</time>
      </trkpt>
      <trkpt lat="44.51442" lon="4.39448">
        <ele>158.2</ele>
        <time>2022-06-10T15:46:21Z</time>
      </trkpt>
      <trkpt lat="44.51438" lon="4.39442">
        <ele>158.2</ele>
        <time>2022-06-10T15:46:22Z</time>
      </trkpt>
      <trkpt lat="44.51435" lon="4.39436">
        <ele>158.2</ele>
        <time>2022-06-10T15:46:23Z</time>
      </trkpt>
      <trkpt lat="44.51431" lon="4.3943">
        <ele>158.2</ele>
        <time>2022-06-10T15:46:24Z</time>
      </trkpt>
      <trkpt lat="44.51427" lon="4.39424">
        <ele>158.2</ele>
        <time>2022-06-10T15:46:25Z</time>
      </trkpt>
      <trkpt lat="44.51423" lon="4.39418">
        <ele>158.2</ele>
        <time>2022-06-10T15:46:26Z</time>
      </trkpt>
      <trkpt lat="44.51419" lon="4.39412">
        <ele>158.2</ele>
        <time>2022-06-10T15:46:27Z</time>
      </trkpt>
      <trkpt lat="44.51415" lon="4.39406">
        <ele>158.2</ele>
        <time>2022-06-10T15:46:28Z</time>
      </trkpt>
      <trkpt lat="44.51411" lon="4.39401">
        <ele>158.2</ele>
        <time>2022-06-10T15:46:29Z</time>
      </trkpt>
      <trkpt lat="44.51407" lon="4.39395">
        <ele>158.2</ele>
        <time>2022-06-10T15:46:30Z</time>
      </trkpt>
      <trkpt lat="44.51403" lon="4.39389">
        <ele>158.1</ele>
        <time>2022-06-10T15:46:31Z</time>
      </trkpt>
      <trkpt lat="44.514" lon="4.39383">
        <ele>158.1</ele>
        <time>2022-06-10T15:46:32Z</time>
      </trkpt>
      <trkpt lat="44.51396" lon="4.39377">
        <ele>158.1</ele>
        <time>2022-06-10T15:46:33Z</time>
      </trkpt>
      <trkpt lat="44.51392" lon="4.39371">
        <ele>158.1</ele>
        <time>2022-06-10T15:46:34Z</time>
      </trkpt>
      <trkpt lat="44.51389" lon="4.39366">
        <ele>158.1</ele>
        <time>2022-06-10T15:46:35Z</time>
      </trkpt>
      <trkpt lat="44.51385" lon="4.3936">
        <ele>158.1</ele>
        <time>2022-06-10T15:46:36Z</time>
      </trkpt>
      <trkpt lat="44.51381" lon="4.39354">
        <ele>158.1</ele>
        <time>2022-06-10T15:46:37Z</time>
      </trkpt>
      <trkpt lat="44.51378" lon="4.39348">
        <ele>158</ele>
        <time>2022-06-10T15:46:38Z</time>
      </trkpt>
      <trkpt lat="44.51374" lon="4.39342">
        <ele>158</ele>
        <time>2022-06-10T15:46:39Z</time>
      </trkpt>
      <trkpt lat="44.51371" lon="4.39336">
        <ele>158</ele>
        <time>2022-06-10T15:46:40Z</time>
      </trkpt>
      <trkpt lat="44.51367" lon="4.39329">
        <ele>158</ele>
        <time>2022-06-10T15:46:41Z</time>
      </trkpt>
      <trkpt lat="44.51364" lon="4.39323">
        <ele>158</ele>
        <time>2022-06-10T15:46:42Z</time>
      </trkpt>
      <trkpt lat="44.51361" lon="4.39317">
        <ele>158</ele>
        <time>2022-06-10T15:46:43Z</time>
      </trkpt>
      <trkpt lat="44.51357" lon="4.39311">
        <ele>158</ele>
        <time>2022-06-10T15:46:44Z</time>
      </trkpt>
      <trkpt lat="44.51354" lon="4.39306">
        <ele>158</ele>
        <time>2022-06-10T15:46:45Z</time>
      </trkpt>
      <trkpt lat="44.51351" lon="4.393">
        <ele>158</ele>
        <time>2022-06-10T15:46:46Z</time>
      </trkpt>
      <trkpt lat="44.51347" lon="4.39294">
        <ele>158</ele>
        <time>2022-06-10T15:46:47Z</time>
      </trkpt>
      <trkpt lat="44.51343" lon="4.39288">
        <ele>158</ele>
        <time>2022-06-10T15:46:48Z</time>
      </trkpt>
      <trkpt lat="44.5134" lon="4.39282">
        <ele>158</ele>
        <time>2022-06-10T15:46:49Z</time>
      </trkpt>
      <trkpt lat="44.51336" lon="4.39277">
        <ele>158</ele>
        <time>2022-06-10T15:46:50Z</time>
      </trkpt>
      <trkpt lat="44.51332" lon="4.39271">
        <ele>158</ele>
        <time>2022-06-10T15:46:51Z</time>
      </trkpt>
      <trkpt lat="44.51329" lon="4.39265">
        <ele>158</ele>
        <time>2022-06-10T15:46:52Z</time>
      </trkpt>
      <trkpt lat="44.51325" lon="4.3926">
        <ele>158</ele>
        <time>2022-06-10T15:46:53Z</time>
      </trkpt>
      <trkpt lat="44.51321" lon="4.39254">
        <ele>158</ele>
        <time>2022-06-10T15:46:54Z</time>
      </trkpt>
      <trkpt lat="44.51317" lon="4.39249">
        <ele>158</ele>
        <time>2022-06-10T15:46:55Z</time>
      </trkpt>
      <trkpt lat="44.51314" lon="4.39243">
        <ele>158</ele>
        <time>2022-06-10T15:46:56Z</time>
      </trkpt>
      <trkpt lat="44.5131" lon="4.39237">
        <ele>158</ele>
        <time>2022-06-10T15:46:57Z</time>
      </trkpt>
      <trkpt lat="44.51306" lon="4.39231">
        <ele>158</ele>
        <time>2022-06-10T15:46:58Z</time>
      </trkpt>
      <trkpt lat="44.51303" lon="4.39225">
        <ele>158</ele>
        <time>2022-06-10T15:46:59Z</time>
      </trkpt>
      <trkpt lat="44.51299" lon="4.39219">
        <ele>158</ele>
        <time>2022-06-10T15:47:00Z</time>
      </trkpt>
      <trkpt lat="44.51296" lon="4.39213">
        <ele>158.1</ele>
        <time>2022-06-10T15:47:01Z</time>
      </trkpt>
      <trkpt lat="44.51292" lon="4.39207">
        <ele>158.1</ele>
        <time>2022-06-10T15:47:02Z</time>
      </trkpt>
      <trkpt lat="44.51288" lon="4.39202">
        <ele>158.1</ele>
        <time>2022-06-10T15:47:03Z</time>
      </trkpt>
      <trkpt lat="44.51284" lon="4.39196">
        <ele>158.1</ele>
        <time>2022-06-10T15:47:04Z</time>
      </trkpt>
      <trkpt lat="44.51281" lon="4.39191">
        <ele>158.1</ele>
        <time>2022-06-10T15:47:05Z</time>
      </trkpt>
      <trkpt lat="44.51277" lon="4.39185">
        <ele>158.1</ele>
        <time>2022-06-10T15:47:06Z</time>
      </trkpt>
      <trkpt lat="44.51274" lon="4.39179">
        <ele>158.1</ele>
        <time>2022-06-10T15:47:07Z</time>
      </trkpt>
      <trkpt lat="44.51271" lon="4.39173">
        <ele>158.1</ele>
        <time>2022-06-10T15:47:08Z</time>
      </trkpt>
      <trkpt lat="44.51267" lon="4.39168">
        <ele>158.1</ele>
        <time>2022-06-10T15:47:09Z</time>
      </trkpt>
      <trkpt lat="44.51264" lon="4.39162">
        <ele>158.1</ele>
        <time>2022-06-10T15:47:10Z</time>
      </trkpt>
      <trkpt lat="44.51261" lon="4.39156">
        <ele>158.1</ele>
        <time>2022-06-10T15:47:11Z</time>
      </trkpt>
      <trkpt lat="44.51257" lon="4.39151">
        <ele>158.1</ele>
        <time>2022-06-10T15:47:12Z</time>
      </trkpt>
      <trkpt lat="44.51254" lon="4.39146">
        <ele>158.1</ele>
        <time>2022-06-10T15:47:13Z</time>
      </trkpt>
      <trkpt lat="44.51251" lon="4.3914">
        <ele>158</ele>
        <time>2022-06-10T15:47:14Z</time>
      </trkpt>
      <trkpt lat="44.51248" lon="4.39135">
        <ele>158</ele>
        <time>2022-06-10T15:47:15Z</time>
      </trkpt>
      <trkpt lat="44.51244" lon="4.3913">
        <ele>158</ele>
        <time>2022-06-10T15:47:16Z</time>
      </trkpt>
      <trkpt lat="44.51241" lon="4.39124">
        <ele>158</ele>
        <time>2022-06-10T15:47:17Z</time>
      </trkpt>
      <trkpt lat="44.51237" lon="4.39119">
        <ele>158</ele>
        <time>2022-06-10T15:47:18Z</time>
      </trkpt>
      <trkpt lat="44.51234" lon="4.39113">
        <ele>158</ele>
        <time>2022-06-10T15:47:19Z</time>
      </trkpt>
      <trkpt lat="44.51231" lon="4.39108">
        <ele>158</ele>
        <time>2022-06-10T15:47:20Z</time>
      </trkpt>
      <trkpt lat="44.51228" lon="4.39103">
        <ele>158</ele>
        <time>2022-06-10T15:47:21Z</time>
      </trkpt>
      <trkpt lat="44.51224" lon="4.39098">
        <ele>158</ele>
        <time>2022-06-10T15:47:22Z</time>
      </trkpt>
      <trkpt lat="44.51221" lon="4.39093">
        <ele>158</ele>
        <time>2022-06-10T15:47:23Z</time>
      </trkpt>
      <trkpt lat="44.51218" lon="4.39088">
        <ele>158.1</ele>
        <time>2022-06-10T15:47:24Z</time>
      </trkpt>
      <trkpt lat="44.51215" lon="4.39083">
        <ele>158.1</ele>
        <time>2022-06-10T15:47:25Z</time>
      </trkpt>
      <trkpt lat="44.51212" lon="4.39077">
        <ele>158.1</ele>
        <time>2022-06-10T15:47:26Z</time>
      </trkpt>
      <trkpt lat="44.51209" lon="4.39072">
        <ele>158.1</ele>
        <time>2022-06-10T15:47:27Z</time>
      </trkpt>
      <trkpt lat="44.51206" lon="4.39066">
        <ele>158.1</ele>
        <time>2022-06-10T15:47:28Z</time>
      </trkpt>
      <trkpt lat="44.51202" lon="4.39061">
        <ele>158.1</ele>
        <time>2022-06-10T15:47:29Z</time>
      </trkpt>
      <trkpt lat="44.51199" lon="4.39055">
        <ele>158.2</ele>
        <time>2022-06-10T15:47:30Z</time>
      </trkpt>
      <trkpt lat="44.51195" lon="4.3905">
        <ele>158.2</ele>
        <time>2022-06-10T15:47:31Z</time>
      </trkpt>
      <trkpt lat="44.51192" lon="4.39044">
        <ele>158.2</ele>
        <time>2022-06-10T15:47:32Z</time>
      </trkpt>
      <trkpt lat="44.51189" lon="4.39039">
        <ele>158.3</ele>
        <time>2022-06-10T15:47:33Z</time>
      </trkpt>
      <trkpt lat="44.51186" lon="4.39034">
        <ele>158.3</ele>
        <time>2022-06-10T15:47:34Z</time>
      </trkpt>
      <trkpt lat="44.51182" lon="4.39029">
        <ele>158.3</ele>
        <time>2022-06-10T15:47:35Z</time>
      </trkpt>
      <trkpt lat="44.51179" lon="4.39023">
        <ele>158.3</ele>
        <time>2022-06-10T15:47:36Z</time>
      </trkpt>
      <trkpt lat="44.51176" lon="4.39018">
        <ele>158.3</ele>
        <time>2022-06-10T15:47:37Z</time>
      </trkpt>
      <trkpt lat="44.51172" lon="4.39013">
        <ele>158.3</ele>
        <time>2022-06-10T15:47:38Z</time>
      </trkpt>
      <trkpt lat="44.51169" lon="4.39007">
        <ele>158.3</ele>
        <time>2022-06-10T15:47:39Z</time>
      </trkpt>
      <trkpt lat="44.51166" lon="4.39002">
        <ele>158.3</ele>
        <time>2022-06-10T15:47:40Z</time>
      </trkpt>
      <trkpt lat="44.51162" lon="4.38996">
        <ele>158.2</ele>
        <time>2022-06-10T15:47:41Z</time>
      </trkpt>
      <trkpt lat="44.51158" lon="4.3899">
        <ele>158.2</ele>
        <time>2022-06-10T15:47:42Z</time>
      </trkpt>
      <trkpt lat="44.51154" lon="4.38984">
        <ele>158.2</ele>
        <time>2022-06-10T15:47:43Z</time>
      </trkpt>
      <trkpt lat="44.5115" lon="4.38978">
        <ele>158.2</ele>
        <time>2022-06-10T15:47:44Z</time>
      </trkpt>
      <trkpt lat="44.51146" lon="4.38972">
        <ele>158.2</ele>
        <time>2022-06-10T15:47:45Z</time>
      </trkpt>
      <trkpt lat="44.51142" lon="4.38966">
        <ele>158.1</ele>
        <time>2022-06-10T15:47:46Z</time>
      </trkpt>
      <trkpt lat="44.51139" lon="4.3896">
        <ele>158.1</ele>
        <time>2022-06-10T15:47:47Z</time>
      </trkpt>
      <trkpt lat="44.51135" lon="4.38953">
        <ele>158.1</ele>
        <time>2022-06-10T15:47:48Z</time>
      </trkpt>
      <trkpt lat="44.51131" lon="4.38947">
        <ele>158.1</ele>
        <time>2022-06-10T15:47:49Z</time>
      </trkpt>
      <trkpt lat="44.51127" lon="4.38941">
        <ele>158.1</ele>
        <time>2022-06-10T15:47:50Z</time>
      </trkpt>
      <trkpt lat="44.51123" lon="4.38935">
        <ele>158.2</ele>
        <time>2022-06-10T15:47:51Z</time>
      </trkpt>
      <trkpt lat="44.5112" lon="4.38929">
        <ele>158.2</ele>
        <time>2022-06-10T15:47:52Z</time>
      </trkpt>
      <trkpt lat="44.51116" lon="4.38923">
        <ele>158.2</ele>
        <time>2022-06-10T15:47:53Z</time>
      </trkpt>
      <trkpt lat="44.51112" lon="4.38917">
        <ele>158.2</ele>
        <time>2022-06-10T15:47:54Z</time>
      </trkpt>
      <trkpt lat="44.51108" lon="4.38911">
        <ele>158.3</ele>
        <time>2022-06-10T15:47:55Z</time>
      </trkpt>
      <trkpt lat="44.51105" lon="4.38905">
        <ele>158.3</ele>
        <time>2022-06-10T15:47:56Z</time>
      </trkpt>
      <trkpt lat="44.51101" lon="4.38899">
        <ele>158.3</ele>
        <time>2022-06-10T15:47:57Z</time>
      </trkpt>
      <trkpt lat="44.51098" lon="4.38893">
        <ele>158.3</ele>
        <time>2022-06-10T15:47:58Z</time>
      </trkpt>
      <trkpt lat="44.51094" lon="4.38887">
        <ele>158.3</ele>
        <time>2022-06-10T15:47:59Z</time>
      </trkpt>
      <trkpt lat="44.5109" lon="4.38881">
        <ele>158.3</ele>
        <time>2022-06-10T15:48:00Z</time>
      </trkpt>
      <trkpt lat="44.51086" lon="4.38874">
        <ele>158.3</ele>
        <time>2022-06-10T15:48:01Z</time>
      </trkpt>
      <trkpt lat="44.51082" lon="4.38868">
        <ele>158.3</ele>
        <time>2022-06-10T15:48:02Z</time>
      </trkpt>
      <trkpt lat="44.51079" lon="4.38862">
        <ele>158.3</ele>
        <time>2022-06-10T15:48:03Z</time>
      </trkpt>
      <trkpt lat="44.51075" lon="4.38855">
        <ele>158.3</ele>
        <time>2022-06-10T15:48:04Z</time>
      </trkpt>
      <trkpt lat="44.51071" lon="4.38849">
        <ele>158.3</ele>
        <time>2022-06-10T15:48:05Z</time>
      </trkpt>
      <trkpt lat="44.51067" lon="4.38843">
        <ele>158.3</ele>
        <time>2022-06-10T15:48:06Z</time>
      </trkpt>
      <trkpt lat="44.51063" lon="4.38837">
        <ele>158.3</ele>
        <time>2022-06-10T15:48:07Z</time>
      </trkpt>
      <trkpt lat="44.5106" lon="4.38831">
        <ele>158.3</ele>
        <time>2022-06-10T15:48:08Z</time>
      </trkpt>
      <trkpt lat="44.51056" lon="4.38825">
        <ele>158.3</ele>
        <time>2022-06-10T15:48:09Z</time>
      </trkpt>
      <trkpt lat="44.51052" lon="4.38818">
        <ele>158.3</ele>
        <time>2022-06-10T15:48:10Z</time>
      </trkpt>
      <trkpt lat="44.51049" lon="4.38812">
        <ele>158.3</ele>
        <time>2022-06-10T15:48:11Z</time>
      </trkpt>
      <trkpt lat="44.51045" lon="4.38806">
        <ele>158.3</ele>
        <time>2022-06-10T15:48:12Z</time>
      </trkpt>
      <trkpt lat="44.51041" lon="4.388">
        <ele>158.3</ele>
        <time>2022-06-10T15:48:13Z</time>
      </trkpt>
      <trkpt lat="44.51037" lon="4.38794">
        <ele>158.2</ele>
        <time>2022-06-10T15:48:14Z</time>
      </trkpt>
      <trkpt lat="44.51033" lon="4.38788">
        <ele>158.2</ele>
        <time>2022-06-10T15:48:15Z</time>
      </trkpt>
      <trkpt lat="44.51029" lon="4.38782">
        <ele>158.2</ele>
        <time>2022-06-10T15:48:16Z</time>
      </trkpt>
      <trkpt lat="44.51026" lon="4.38776">
        <ele>158.2</ele>
        <time>2022-06-10T15:48:17Z</time>
      </trkpt>
      <trkpt lat="44.51022" lon="4.38771">
        <ele>158.2</ele>
        <time>2022-06-10T15:48:18Z</time>
      </trkpt>
      <trkpt lat="44.51018" lon="4.38765">
        <ele>158.2</ele>
        <time>2022-06-10T15:48:19Z</time>
      </trkpt>
      <trkpt lat="44.51014" lon="4.38759">
        <ele>158.2</ele>
        <time>2022-06-10T15:48:20Z</time>
      </trkpt>
      <trkpt lat="44.5101" lon="4.38753">
        <ele>158.1</ele>
        <time>2022-06-10T15:48:21Z</time>
      </trkpt>
      <trkpt lat="44.51006" lon="4.38747">
        <ele>158.1</ele>
        <time>2022-06-10T15:48:22Z</time>
      </trkpt>
      <trkpt lat="44.51002" lon="4.38741">
        <ele>158.1</ele>
        <time>2022-06-10T15:48:23Z</time>
      </trkpt>
      <trkpt lat="44.50998" lon="4.38735">
        <ele>158.1</ele>
        <time>2022-06-10T15:48:24Z</time>
      </trkpt>
      <trkpt lat="44.50993" lon="4.3873">
        <ele>158.1</ele>
        <time>2022-06-10T15:48:25Z</time>
      </trkpt>
      <trkpt lat="44.50989" lon="4.38724">
        <ele>158.1</ele>
        <time>2022-06-10T15:48:26Z</time>
      </trkpt>
      <trkpt lat="44.50985" lon="4.38719">
        <ele>158.1</ele>
        <time>2022-06-10T15:48:27Z</time>
      </trkpt>
      <trkpt lat="44.5098" lon="4.38714">
        <ele>158.1</ele>
        <time>2022-06-10T15:48:28Z</time>
      </trkpt>
      <trkpt lat="44.50976" lon="4.38709">
        <ele>158.1</ele>
        <time>2022-06-10T15:48:29Z</time>
      </trkpt>
      <trkpt lat="44.50971" lon="4.38704">
        <ele>158.2</ele>
        <time>2022-06-10T15:48:30Z</time>
      </trkpt>
      <trkpt lat="44.50966" lon="4.387">
        <ele>158.2</ele>
        <time>2022-06-10T15:48:31Z</time>
      </trkpt>
      <trkpt lat="44.50961" lon="4.38695">
        <ele>158.2</ele>
        <time>2022-06-10T15:48:32Z</time>
      </trkpt>
      <trkpt lat="44.50956" lon="4.38691">
        <ele>158.2</ele>
        <time>2022-06-10T15:48:33Z</time>
      </trkpt>
      <trkpt lat="44.5095" lon="4.38686">
        <ele>158.2</ele>
        <time>2022-06-10T15:48:34Z</time>
      </trkpt>
      <trkpt lat="44.50945" lon="4.38682">
        <ele>158.2</ele>
        <time>2022-06-10T15:48:35Z</time>
      </trkpt>
      <trkpt lat="44.5094" lon="4.38678">
        <ele>158.2</ele>
        <time>2022-06-10T15:48:36Z</time>
      </trkpt>
      <trkpt lat="44.50934" lon="4.38674">
        <ele>158.3</ele>
        <time>2022-06-10T15:48:37Z</time>
      </trkpt>
      <trkpt lat="44.50929" lon="4.3867">
        <ele>158.3</ele>
        <time>2022-06-10T15:48:38Z</time>
      </trkpt>
      <trkpt lat="44.50923" lon="4.38666">
        <ele>158.3</ele>
        <time>2022-06-10T15:48:39Z</time>
      </trkpt>
      <trkpt lat="44.50918" lon="4.38662">
        <ele>158.3</ele>
        <time>2022-06-10T15:48:40Z</time>
      </trkpt>
      <trkpt lat="44.50913" lon="4.38658">
        <ele>158.3</ele>
        <time>2022-06-10T15:48:41Z</time>
      </trkpt>
      <trkpt lat="44.50908" lon="4.38654">
        <ele>158.4</ele>
        <time>2022-06-10T15:48:42Z</time>
      </trkpt>
      <trkpt lat="44.50902" lon="4.3865">
        <ele>158.4</ele>
        <time>2022-06-10T15:48:43Z</time>
      </trkpt>
      <trkpt lat="44.50896" lon="4.38647">
        <ele>158.4</ele>
        <time>2022-06-10T15:48:44Z</time>
      </trkpt>
      <trkpt lat="44.50891" lon="4.38644">
        <ele>158.4</ele>
        <time>2022-06-10T15:48:45Z</time>
      </trkpt>
      <trkpt lat="44.50885" lon="4.38642">
        <ele>158.4</ele>
        <time>2022-06-10T15:48:46Z</time>
      </trkpt>
      <trkpt lat="44.50879" lon="4.38639">
        <ele>158.4</ele>
        <time>2022-06-10T15:48:47Z</time>
      </trkpt>
      <trkpt lat="44.50873" lon="4.38636">
        <ele>158.5</ele>
        <time>2022-06-10T15:48:48Z</time>
      </trkpt>
      <trkpt lat="44.50867" lon="4.38633">
        <ele>158.5</ele>
        <time>2022-06-10T15:48:49Z</time>
      </trkpt>
      <trkpt lat="44.50862" lon="4.38631">
        <ele>158.5</ele>
        <time>2022-06-10T15:48:50Z</time>
      </trkpt>
      <trkpt lat="44.50856" lon="4.38628">
        <ele>158.4</ele>
        <time>2022-06-10T15:48:51Z</time>
      </trkpt>
      <trkpt lat="44.50849" lon="4.38626">
        <ele>158.4</ele>
        <time>2022-06-10T15:48:52Z</time>
      </trkpt>
      <trkpt lat="44.50843" lon="4.38624">
        <ele>158.4</ele>
        <time>2022-06-10T15:48:53Z</time>
      </trkpt>
      <trkpt lat="44.50837" lon="4.38621">
        <ele>158.4</ele>
        <time>2022-06-10T15:48:54Z</time>
      </trkpt>
      <trkpt lat="44.50831" lon="4.38619">
        <ele>158.4</ele>
        <time>2022-06-10T15:48:55Z</time>
      </trkpt>
      <trkpt lat="44.50825" lon="4.38618">
        <ele>158.4</ele>
        <time>2022-06-10T15:48:56Z</time>
      </trkpt>
      <trkpt lat="44.50819" lon="4.38616">
        <ele>158.5</ele>
        <time>2022-06-10T15:48:57Z</time>
      </trkpt>
      <trkpt lat="44.50813" lon="4.38615">
        <ele>158.5</ele>
        <time>2022-06-10T15:48:58Z</time>
      </trkpt>
      <trkpt lat="44.50807" lon="4.38614">
        <ele>158.5</ele>
        <time>2022-06-10T15:48:59Z</time>
      </trkpt>
      <trkpt lat="44.50801" lon="4.38613">
        <ele>158.5</ele>
        <time>2022-06-10T15:49:00Z</time>
      </trkpt>
      <trkpt lat="44.50795" lon="4.38611">
        <ele>158.6</ele>
        <time>2022-06-10T15:49:01Z</time>
      </trkpt>
      <trkpt lat="44.5079" lon="4.3861">
        <ele>158.6</ele>
        <time>2022-06-10T15:49:02Z</time>
      </trkpt>
      <trkpt lat="44.50784" lon="4.38609">
        <ele>158.6</ele>
        <time>2022-06-10T15:49:03Z</time>
      </trkpt>
      <trkpt lat="44.50778" lon="4.38609">
        <ele>158.7</ele>
        <time>2022-06-10T15:49:04Z</time>
      </trkpt>
      <trkpt lat="44.50772" lon="4.38608">
        <ele>158.7</ele>
        <time>2022-06-10T15:49:05Z</time>
      </trkpt>
      <trkpt lat="44.50767" lon="4.38608">
        <ele>158.8</ele>
        <time>2022-06-10T15:49:06Z</time>
      </trkpt>
      <trkpt lat="44.50761" lon="4.38608">
        <ele>158.8</ele>
        <time>2022-06-10T15:49:07Z</time>
      </trkpt>
      <trkpt lat="44.50755" lon="4.38609">
        <ele>158.8</ele>
        <time>2022-06-10T15:49:08Z</time>
      </trkpt>
      <trkpt lat="44.5075" lon="4.3861">
        <ele>158.9</ele>
        <time>2022-06-10T15:49:09Z</time>
      </trkpt>
      <trkpt lat="44.50745" lon="4.38611">
        <ele>159</ele>
        <time>2022-06-10T15:49:10Z</time>
      </trkpt>
      <trkpt lat="44.50739" lon="4.38612">
        <ele>159</ele>
        <time>2022-06-10T15:49:11Z</time>
      </trkpt>
      <trkpt lat="44.50734" lon="4.38612">
        <ele>159</ele>
        <time>2022-06-10T15:49:12Z</time>
      </trkpt>
      <trkpt lat="44.50729" lon="4.38613">
        <ele>159.1</ele>
        <time>2022-06-10T15:49:13Z</time>
      </trkpt>
      <trkpt lat="44.50724" lon="4.38614">
        <ele>159.1</ele>
        <time>2022-06-10T15:49:14Z</time>
      </trkpt>
      <trkpt lat="44.50718" lon="4.38615">
        <ele>159.1</ele>
        <time>2022-06-10T15:49:15Z</time>
      </trkpt>
      <trkpt lat="44.50713" lon="4.38615">
        <ele>159.2</ele>
        <time>2022-06-10T15:49:16Z</time>
      </trkpt>
      <trkpt lat="44.50708" lon="4.38616">
        <ele>159.2</ele>
        <time>2022-06-10T15:49:17Z</time>
      </trkpt>
      <trkpt lat="44.50703" lon="4.38616">
        <ele>159.2</ele>
        <time>2022-06-10T15:49:18Z</time>
      </trkpt>
      <trkpt lat="44.50698" lon="4.38617">
        <ele>159.2</ele>
        <time>2022-06-10T15:49:19Z</time>
      </trkpt>
      <trkpt lat="44.50692" lon="4.38618">
        <ele>159.2</ele>
        <time>2022-06-10T15:49:20Z</time>
      </trkpt>
      <trkpt lat="44.50688" lon="4.38619">
        <ele>159.3</ele>
        <time>2022-06-10T15:49:21Z</time>
      </trkpt>
      <trkpt lat="44.50683" lon="4.38619">
        <ele>159.3</ele>
        <time>2022-06-10T15:49:22Z</time>
      </trkpt>
      <trkpt lat="44.50678" lon="4.3862">
        <ele>159.3</ele>
        <time>2022-06-10T15:49:23Z</time>
      </trkpt>
      <trkpt lat="44.50672" lon="4.38621">
        <ele>159.3</ele>
        <time>2022-06-10T15:49:24Z</time>
      </trkpt>
      <trkpt lat="44.50667" lon="4.38622">
        <ele>159.3</ele>
        <time>2022-06-10T15:49:25Z</time>
      </trkpt>
      <trkpt lat="44.50662" lon="4.38624">
        <ele>159.3</ele>
        <time>2022-06-10T15:49:26Z</time>
      </trkpt>
      <trkpt lat="44.50657" lon="4.38625">
        <ele>159.3</ele>
        <time>2022-06-10T15:49:27Z</time>
      </trkpt>
      <trkpt lat="44.50652" lon="4.38626">
        <ele>159.3</ele>
        <time>2022-06-10T15:49:28Z</time>
      </trkpt>
      <trkpt lat="44.50647" lon="4.38627">
        <ele>159.3</ele>
        <time>2022-06-10T15:49:29Z</time>
      </trkpt>
      <trkpt lat="44.50642" lon="4.38627">
        <ele>159.4</ele>
        <time>2022-06-10T15:49:30Z</time>
      </trkpt>
      <trkpt lat="44.50637" lon="4.38628">
        <ele>159.4</ele>
        <time>2022-06-10T15:49:31Z</time>
      </trkpt>
      <trkpt lat="44.50631" lon="4.38629">
        <ele>159.4</ele>
        <time>2022-06-10T15:49:32Z</time>
      </trkpt>
      <trkpt lat="44.50626" lon="4.3863">
        <ele>159.4</ele>
        <time>2022-06-10T15:49:33Z</time>
      </trkpt>
      <trkpt lat="44.50621" lon="4.38631">
        <ele>159.4</ele>
        <time>2022-06-10T15:49:34Z</time>
      </trkpt>
      <trkpt lat="44.50616" lon="4.38633">
        <ele>159.4</ele>
        <time>2022-06-10T15:49:35Z</time>
      </trkpt>
      <trkpt lat="44.50611" lon="4.38635">
        <ele>159.5</ele>
        <time>2022-06-10T15:49:36Z</time>
      </trkpt>
      <trkpt lat="44.50606" lon="4.38636">
        <ele>159.5</ele>
        <time>2022-06-10T15:49:37Z</time>
      </trkpt>
      <trkpt lat="44.50601" lon="4.38638">
        <ele>159.5</ele>
        <time>2022-06-10T15:49:38Z</time>
      </trkpt>
      <trkpt lat="44.50597" lon="4.38638">
        <ele>159.5</ele>
        <time>2022-06-10T15:49:39Z</time>
      </trkpt>
      <trkpt lat="44.50592" lon="4.38639">
        <ele>159.5</ele>
        <time>2022-06-10T15:49:40Z</time>
      </trkpt>
      <trkpt lat="44.50587" lon="4.38639">
        <ele>159.5</ele>
        <time>2022-06-10T15:49:41Z</time>
      </trkpt>
      <trkpt lat="44.50581" lon="4.3864">
        <ele>159.5</ele>
        <time>2022-06-10T15:49:42Z</time>
      </trkpt>
      <trkpt lat="44.50576" lon="4.38641">
        <ele>159.5</ele>
        <time>2022-06-10T15:49:43Z</time>
      </trkpt>
      <trkpt lat="44.50571" lon="4.38642">
        <ele>159.5</ele>
        <time>2022-06-10T15:49:44Z</time>
      </trkpt>
      <trkpt lat="44.50566" lon="4.38643">
        <ele>159.5</ele>
        <time>2022-06-10T15:49:45Z</time>
      </trkpt>
      <trkpt lat="44.5056" lon="4.38645">
        <ele>159.5</ele>
        <time>2022-06-10T15:49:46Z</time>
      </trkpt>
      <trkpt lat="44.50555" lon="4.38646">
        <ele>159.5</ele>
        <time>2022-06-10T15:49:47Z</time>
      </trkpt>
      <trkpt lat="44.5055" lon="4.38647">
        <ele>159.5</ele>
        <time>2022-06-10T15:49:48Z</time>
      </trkpt>
      <trkpt lat="44.50544" lon="4.38648">
        <ele>159.5</ele>
        <time>2022-06-10T15:49:49Z</time>
      </trkpt>
      <trkpt lat="44.50539" lon="4.38649">
        <ele>159.5</ele>
        <time>2022-06-10T15:49:50Z</time>
      </trkpt>
      <trkpt lat="44.50534" lon="4.3865">
        <ele>159.5</ele>
        <time>2022-06-10T15:49:51Z</time>
      </trkpt>
      <trkpt lat="44.50529" lon="4.38651">
        <ele>159.5</ele>
        <time>2022-06-10T15:49:52Z</time>
      </trkpt>
      <trkpt lat="44.50523" lon="4.38652">
        <ele>159.5</ele>
        <time>2022-06-10T15:49:53Z</time>
      </trkpt>
      <trkpt lat="44.50518" lon="4.38653">
        <ele>159.6</ele>
        <time>2022-06-10T15:49:54Z</time>
      </trkpt>
      <trkpt lat="44.50513" lon="4.38654">
        <ele>159.6</ele>
        <time>2022-06-10T15:49:55Z</time>
      </trkpt>
      <trkpt lat="44.50508" lon="4.38655">
        <ele>159.6</ele>
        <time>2022-06-10T15:49:56Z</time>
      </trkpt>
      <trkpt lat="44.50502" lon="4.38656">
        <ele>159.6</ele>
        <time>2022-06-10T15:49:57Z</time>
      </trkpt>
      <trkpt lat="44.50497" lon="4.38658">
        <ele>159.7</ele>
        <time>2022-06-10T15:49:58Z</time>
      </trkpt>
      <trkpt lat="44.50492" lon="4.38659">
        <ele>159.7</ele>
        <time>2022-06-10T15:49:59Z</time>
      </trkpt>
      <trkpt lat="44.50488" lon="4.3866">
        <ele>159.7</ele>
        <time>2022-06-10T15:50:00Z</time>
      </trkpt>
      <trkpt lat="44.50483" lon="4.38661">
        <ele>159.7</ele>
        <time>2022-06-10T15:50:01Z</time>
      </trkpt>
      <trkpt lat="44.50477" lon="4.38662">
        <ele>159.8</ele>
        <time>2022-06-10T15:50:02Z</time>
      </trkpt>
      <trkpt lat="44.50472" lon="4.38663">
        <ele>159.8</ele>
        <time>2022-06-10T15:50:03Z</time>
      </trkpt>
      <trkpt lat="44.50467" lon="4.38664">
        <ele>159.8</ele>
        <time>2022-06-10T15:50:04Z</time>
      </trkpt>
      <trkpt lat="44.50462" lon="4.38665">
        <ele>159.8</ele>
        <time>2022-06-10T15:50:05Z</time>
      </trkpt>
      <trkpt lat="44.50457" lon="4.38666">
        <ele>159.8</ele>
        <time>2022-06-10T15:50:06Z</time>
      </trkpt>
      <trkpt lat="44.50452" lon="4.38667">
        <ele>159.8</ele>
        <time>2022-06-10T15:50:07Z</time>
      </trkpt>
      <trkpt lat="44.50446" lon="4.38668">
        <ele>159.8</ele>
        <time>2022-06-10T15:50:08Z</time>
      </trkpt>
      <trkpt lat="44.50441" lon="4.38668">
        <ele>159.8</ele>
        <time>2022-06-10T15:50:09Z</time>
      </trkpt>
      <trkpt lat="44.50435" lon="4.38669">
        <ele>159.8</ele>
        <time>2022-06-10T15:50:10Z</time>
      </trkpt>
      <trkpt lat="44.50429" lon="4.3867">
        <ele>159.8</ele>
        <time>2022-06-10T15:50:11Z</time>
      </trkpt>
      <trkpt lat="44.50424" lon="4.3867">
        <ele>159.8</ele>
        <time>2022-06-10T15:50:12Z</time>
      </trkpt>
      <trkpt lat="44.50418" lon="4.3867">
        <ele>159.8</ele>
        <time>2022-06-10T15:50:13Z</time>
      </trkpt>
      <trkpt lat="44.50412" lon="4.38671">
        <ele>159.8</ele>
        <time>2022-06-10T15:50:14Z</time>
      </trkpt>
      <trkpt lat="44.50407" lon="4.38672">
        <ele>159.8</ele>
        <time>2022-06-10T15:50:15Z</time>
      </trkpt>
      <trkpt lat="44.50401" lon="4.38673">
        <ele>159.8</ele>
        <time>2022-06-10T15:50:16Z</time>
      </trkpt>
      <trkpt lat="44.50396" lon="4.38674">
        <ele>159.9</ele>
        <time>2022-06-10T15:50:17Z</time>
      </trkpt>
      <trkpt lat="44.50391" lon="4.38675">
        <ele>159.9</ele>
        <time>2022-06-10T15:50:18Z</time>
      </trkpt>
      <trkpt lat="44.50386" lon="4.38675">
        <ele>160</ele>
        <time>2022-06-10T15:50:19Z</time>
      </trkpt>
      <trkpt lat="44.50381" lon="4.38676">
        <ele>160</ele>
        <time>2022-06-10T15:50:20Z</time>
      </trkpt>
      <trkpt lat="44.50376" lon="4.38676">
        <ele>160</ele>
        <time>2022-06-10T15:50:21Z</time>
      </trkpt>
      <trkpt lat="44.5037" lon="4.38676">
        <ele>160</ele>
        <time>2022-06-10T15:50:22Z</time>
      </trkpt>
      <trkpt lat="44.50365" lon="4.38677">
        <ele>160</ele>
        <time>2022-06-10T15:50:23Z</time>
      </trkpt>
      <trkpt lat="44.50359" lon="4.38677">
        <ele>160</ele>
        <time>2022-06-10T15:50:24Z</time>
      </trkpt>
      <trkpt lat="44.50353" lon="4.38678">
        <ele>160</ele>
        <time>2022-06-10T15:50:25Z</time>
      </trkpt>
      <trkpt lat="44.50347" lon="4.38679">
        <ele>159.9</ele>
        <time>2022-06-10T15:50:26Z</time>
      </trkpt>
      <trkpt lat="44.50341" lon="4.3868">
        <ele>159.9</ele>
        <time>2022-06-10T15:50:27Z</time>
      </trkpt>
      <trkpt lat="44.50335" lon="4.38681">
        <ele>159.9</ele>
        <time>2022-06-10T15:50:28Z</time>
      </trkpt>
      <trkpt lat="44.50329" lon="4.38682">
        <ele>159.9</ele>
        <time>2022-06-10T15:50:29Z</time>
      </trkpt>
      <trkpt lat="44.50323" lon="4.38683">
        <ele>159.9</ele>
        <time>2022-06-10T15:50:30Z</time>
      </trkpt>
      <trkpt lat="44.50317" lon="4.38684">
        <ele>159.9</ele>
        <time>2022-06-10T15:50:31Z</time>
      </trkpt>
      <trkpt lat="44.50312" lon="4.38685">
        <ele>159.9</ele>
        <time>2022-06-10T15:50:32Z</time>
      </trkpt>
      <trkpt lat="44.50306" lon="4.38686">
        <ele>159.9</ele>
        <time>2022-06-10T15:50:33Z</time>
      </trkpt>
      <trkpt lat="44.503" lon="4.38687">
        <ele>159.9</ele>
        <time>2022-06-10T15:50:34Z</time>
      </trkpt>
      <trkpt lat="44.50294" lon="4.38688">
        <ele>159.9</ele>
        <time>2022-06-10T15:50:35Z</time>
      </trkpt>
      <trkpt lat="44.50289" lon="4.38689">
        <ele>159.9</ele>
        <time>2022-06-10T15:50:36Z</time>
      </trkpt>
      <trkpt lat="44.50283" lon="4.3869">
        <ele>159.9</ele>
        <time>2022-06-10T15:50:37Z</time>
      </trkpt>
      <trkpt lat="44.50277" lon="4.38691">
        <ele>159.8</ele>
        <time>2022-06-10T15:50:38Z</time>
      </trkpt>
      <trkpt lat="44.50272" lon="4.38693">
        <ele>159.8</ele>
        <time>2022-06-10T15:50:39Z</time>
      </trkpt>
      <trkpt lat="44.50266" lon="4.38694">
        <ele>159.8</ele>
        <time>2022-06-10T15:50:40Z</time>
      </trkpt>
      <trkpt lat="44.5026" lon="4.38695">
        <ele>159.8</ele>
        <time>2022-06-10T15:50:41Z</time>
      </trkpt>
      <trkpt lat="44.50255" lon="4.38696">
        <ele>159.8</ele>
        <time>2022-06-10T15:50:42Z</time>
      </trkpt>
      <trkpt lat="44.50249" lon="4.38697">
        <ele>159.8</ele>
        <time>2022-06-10T15:50:43Z</time>
      </trkpt>
      <trkpt lat="44.50243" lon="4.38698">
        <ele>159.8</ele>
        <time>2022-06-10T15:50:44Z</time>
      </trkpt>
      <trkpt lat="44.50238" lon="4.38699">
        <ele>159.9</ele>
        <time>2022-06-10T15:50:45Z</time>
      </trkpt>
      <trkpt lat="44.50233" lon="4.38701">
        <ele>159.9</ele>
        <time>2022-06-10T15:50:46Z</time>
      </trkpt>
      <trkpt lat="44.50227" lon="4.38701">
        <ele>159.9</ele>
        <time>2022-06-10T15:50:47Z</time>
      </trkpt>
      <trkpt lat="44.50222" lon="4.38702">
        <ele>159.9</ele>
        <time>2022-06-10T15:50:48Z</time>
      </trkpt>
      <trkpt lat="44.50216" lon="4.38703">
        <ele>159.9</ele>
        <time>2022-06-10T15:50:49Z</time>
      </trkpt>
      <trkpt lat="44.5021" lon="4.38703">
        <ele>159.9</ele>
        <time>2022-06-10T15:50:50Z</time>
      </trkpt>
      <trkpt lat="44.50204" lon="4.38704">
        <ele>159.9</ele>
        <time>2022-06-10T15:50:51Z</time>
      </trkpt>
      <trkpt lat="44.50198" lon="4.38706">
        <ele>159.9</ele>
        <time>2022-06-10T15:50:52Z</time>
      </trkpt>
      <trkpt lat="44.50193" lon="4.38706">
        <ele>159.9</ele>
        <time>2022-06-10T15:50:53Z</time>
      </trkpt>
      <trkpt lat="44.50187" lon="4.38706">
        <ele>159.9</ele>
        <time>2022-06-10T15:50:54Z</time>
      </trkpt>
      <trkpt lat="44.50182" lon="4.38707">
        <ele>159.9</ele>
        <time>2022-06-10T15:50:55Z</time>
      </trkpt>
      <trkpt lat="44.50177" lon="4.38707">
        <ele>160</ele>
        <time>2022-06-10T15:50:56Z</time>
      </trkpt>
      <trkpt lat="44.50171" lon="4.38708">
        <ele>160</ele>
        <time>2022-06-10T15:50:57Z</time>
      </trkpt>
      <trkpt lat="44.50166" lon="4.38709">
        <ele>160</ele>
        <time>2022-06-10T15:50:58Z</time>
      </trkpt>
      <trkpt lat="44.50161" lon="4.38709">
        <ele>160</ele>
        <time>2022-06-10T15:50:59Z</time>
      </trkpt>
      <trkpt lat="44.50157" lon="4.3871">
        <ele>160</ele>
        <time>2022-06-10T15:51:00Z</time>
      </trkpt>
      <trkpt lat="44.50119" lon="4.38714">
        <ele>160.1</ele>
        <time>2022-06-10T15:51:11Z</time>
      </trkpt>
      <trkpt lat="44.50119" lon="4.38714">
        <ele>160.1</ele>
        <time>2022-06-10T15:51:11Z</time>
      </trkpt>
      <trkpt lat="44.50136" lon="4.38712">
        <ele>160.1</ele>
        <time>2022-06-10T15:51:17Z</time>
      </trkpt>
      <trkpt lat="44.50157" lon="4.3871">
        <ele>160.1</ele>
        <time>2022-06-10T15:51:23Z</time>
      </trkpt>
      <trkpt lat="44.5016" lon="4.38709">
        <ele>160.1</ele>
        <time>2022-06-10T15:51:28Z</time>
      </trkpt>
      <trkpt lat="44.49985" lon="4.38668">
        <ele>159.2</ele>
        <time>2022-06-10T15:51:31Z</time>
      </trkpt>
      <trkpt lat="44.49968" lon="4.38659">
        <ele>159.1</ele>
        <time>2022-06-10T15:51:32Z</time>
      </trkpt>
      <trkpt lat="44.49964" lon="4.38656">
        <ele>159.1</ele>
        <time>2022-06-10T15:51:33Z</time>
      </trkpt>
      <trkpt lat="44.4996" lon="4.38653">
        <ele>159.1</ele>
        <time>2022-06-10T15:51:34Z</time>
      </trkpt>
      <trkpt lat="44.49954" lon="4.38649">
        <ele>159</ele>
        <time>2022-06-10T15:51:35Z</time>
      </trkpt>
      <trkpt lat="44.4995" lon="4.38645">
        <ele>159</ele>
        <time>2022-06-10T15:51:36Z</time>
      </trkpt>
      <trkpt lat="44.49945" lon="4.3864">
        <ele>158.9</ele>
        <time>2022-06-10T15:51:37Z</time>
      </trkpt>
      <trkpt lat="44.49939" lon="4.38635">
        <ele>158.8</ele>
        <time>2022-06-10T15:51:38Z</time>
      </trkpt>
      <trkpt lat="44.49933" lon="4.38631">
        <ele>158.8</ele>
        <time>2022-06-10T15:51:39Z</time>
      </trkpt>
      <trkpt lat="44.49927" lon="4.38626">
        <ele>158.7</ele>
        <time>2022-06-10T15:51:40Z</time>
      </trkpt>
      <trkpt lat="44.49921" lon="4.38621">
        <ele>158.6</ele>
        <time>2022-06-10T15:51:41Z</time>
      </trkpt>
      <trkpt lat="44.49915" lon="4.38617">
        <ele>158.6</ele>
        <time>2022-06-10T15:51:42Z</time>
      </trkpt>
      <trkpt lat="44.49909" lon="4.38612">
        <ele>158.5</ele>
        <time>2022-06-10T15:51:43Z</time>
      </trkpt>
      <trkpt lat="44.49904" lon="4.38607">
        <ele>158.4</ele>
        <time>2022-06-10T15:51:44Z</time>
      </trkpt>
      <trkpt lat="44.49899" lon="4.38602">
        <ele>158.4</ele>
        <time>2022-06-10T15:51:45Z</time>
      </trkpt>
      <trkpt lat="44.49894" lon="4.38597">
        <ele>158.3</ele>
        <time>2022-06-10T15:51:46Z</time>
      </trkpt>
      <trkpt lat="44.49888" lon="4.38592">
        <ele>158.3</ele>
        <time>2022-06-10T15:51:47Z</time>
      </trkpt>
      <trkpt lat="44.49882" lon="4.38587">
        <ele>158.3</ele>
        <time>2022-06-10T15:51:48Z</time>
      </trkpt>
      <trkpt lat="44.49876" lon="4.38582">
        <ele>158.2</ele>
        <time>2022-06-10T15:51:49Z</time>
      </trkpt>
      <trkpt lat="44.4987" lon="4.38577">
        <ele>158.2</ele>
        <time>2022-06-10T15:51:50Z</time>
      </trkpt>
      <trkpt lat="44.49864" lon="4.38573">
        <ele>158.2</ele>
        <time>2022-06-10T15:51:51Z</time>
      </trkpt>
      <trkpt lat="44.49858" lon="4.38568">
        <ele>158.2</ele>
        <time>2022-06-10T15:51:52Z</time>
      </trkpt>
      <trkpt lat="44.49852" lon="4.38564">
        <ele>158.1</ele>
        <time>2022-06-10T15:51:53Z</time>
      </trkpt>
      <trkpt lat="44.49846" lon="4.38559">
        <ele>158.1</ele>
        <time>2022-06-10T15:51:54Z</time>
      </trkpt>
      <trkpt lat="44.49841" lon="4.38554">
        <ele>158.1</ele>
        <time>2022-06-10T15:51:55Z</time>
      </trkpt>
      <trkpt lat="44.49835" lon="4.3855">
        <ele>158</ele>
        <time>2022-06-10T15:51:56Z</time>
      </trkpt>
      <trkpt lat="44.49829" lon="4.38545">
        <ele>158</ele>
        <time>2022-06-10T15:51:57Z</time>
      </trkpt>
      <trkpt lat="44.49823" lon="4.3854">
        <ele>157.9</ele>
        <time>2022-06-10T15:51:58Z</time>
      </trkpt>
      <trkpt lat="44.49818" lon="4.38535">
        <ele>157.9</ele>
        <time>2022-06-10T15:51:59Z</time>
      </trkpt>
      <trkpt lat="44.49812" lon="4.38531">
        <ele>157.8</ele>
        <time>2022-06-10T15:52:00Z</time>
      </trkpt>
      <trkpt lat="44.49806" lon="4.38526">
        <ele>157.8</ele>
        <time>2022-06-10T15:52:01Z</time>
      </trkpt>
      <trkpt lat="44.498" lon="4.38521">
        <ele>157.7</ele>
        <time>2022-06-10T15:52:02Z</time>
      </trkpt>
      <trkpt lat="44.49794" lon="4.38517">
        <ele>157.7</ele>
        <time>2022-06-10T15:52:03Z</time>
      </trkpt>
      <trkpt lat="44.49789" lon="4.38512">
        <ele>157.6</ele>
        <time>2022-06-10T15:52:04Z</time>
      </trkpt>
      <trkpt lat="44.49783" lon="4.38507">
        <ele>157.6</ele>
        <time>2022-06-10T15:52:05Z</time>
      </trkpt>
      <trkpt lat="44.49777" lon="4.38503">
        <ele>157.5</ele>
        <time>2022-06-10T15:52:06Z</time>
      </trkpt>
      <trkpt lat="44.49772" lon="4.38498">
        <ele>157.5</ele>
        <time>2022-06-10T15:52:07Z</time>
      </trkpt>
      <trkpt lat="44.49766" lon="4.38494">
        <ele>157.4</ele>
        <time>2022-06-10T15:52:08Z</time>
      </trkpt>
      <trkpt lat="44.49761" lon="4.3849">
        <ele>157.4</ele>
        <time>2022-06-10T15:52:09Z</time>
      </trkpt>
      <trkpt lat="44.49755" lon="4.38485">
        <ele>157.4</ele>
        <time>2022-06-10T15:52:10Z</time>
      </trkpt>
      <trkpt lat="44.4975" lon="4.38481">
        <ele>157.3</ele>
        <time>2022-06-10T15:52:11Z</time>
      </trkpt>
      <trkpt lat="44.49744" lon="4.38476">
        <ele>157.3</ele>
        <time>2022-06-10T15:52:12Z</time>
      </trkpt>
      <trkpt lat="44.49739" lon="4.38472">
        <ele>157.2</ele>
        <time>2022-06-10T15:52:13Z</time>
      </trkpt>
      <trkpt lat="44.49733" lon="4.38467">
        <ele>157.2</ele>
        <time>2022-06-10T15:52:14Z</time>
      </trkpt>
      <trkpt lat="44.49728" lon="4.38462">
        <ele>157.1</ele>
        <time>2022-06-10T15:52:15Z</time>
      </trkpt>
      <trkpt lat="44.49722" lon="4.38458">
        <ele>157.1</ele>
        <time>2022-06-10T15:52:16Z</time>
      </trkpt>
      <trkpt lat="44.49717" lon="4.38454">
        <ele>157</ele>
        <time>2022-06-10T15:52:17Z</time>
      </trkpt>
      <trkpt lat="44.49711" lon="4.38449">
        <ele>157</ele>
        <time>2022-06-10T15:52:18Z</time>
      </trkpt>
      <trkpt lat="44.49706" lon="4.38445">
        <ele>156.9</ele>
        <time>2022-06-10T15:52:19Z</time>
      </trkpt>
      <trkpt lat="44.497" lon="4.38441">
        <ele>156.9</ele>
        <time>2022-06-10T15:52:20Z</time>
      </trkpt>
      <trkpt lat="44.49694" lon="4.38436">
        <ele>156.8</ele>
        <time>2022-06-10T15:52:21Z</time>
      </trkpt>
      <trkpt lat="44.49689" lon="4.38432">
        <ele>156.8</ele>
        <time>2022-06-10T15:52:22Z</time>
      </trkpt>
      <trkpt lat="44.49683" lon="4.38428">
        <ele>156.7</ele>
        <time>2022-06-10T15:52:23Z</time>
      </trkpt>
      <trkpt lat="44.49677" lon="4.38423">
        <ele>156.6</ele>
        <time>2022-06-10T15:52:24Z</time>
      </trkpt>
      <trkpt lat="44.49671" lon="4.38418">
        <ele>156.5</ele>
        <time>2022-06-10T15:52:25Z</time>
      </trkpt>
      <trkpt lat="44.49665" lon="4.38414">
        <ele>156.5</ele>
        <time>2022-06-10T15:52:26Z</time>
      </trkpt>
      <trkpt lat="44.49659" lon="4.38409">
        <ele>156.5</ele>
        <time>2022-06-10T15:52:27Z</time>
      </trkpt>
      <trkpt lat="44.49654" lon="4.38405">
        <ele>156.5</ele>
        <time>2022-06-10T15:52:28Z</time>
      </trkpt>
      <trkpt lat="44.49648" lon="4.384">
        <ele>156.4</ele>
        <time>2022-06-10T15:52:29Z</time>
      </trkpt>
      <trkpt lat="44.49643" lon="4.38396">
        <ele>156.4</ele>
        <time>2022-06-10T15:52:30Z</time>
      </trkpt>
      <trkpt lat="44.49637" lon="4.38392">
        <ele>156.4</ele>
        <time>2022-06-10T15:52:31Z</time>
      </trkpt>
      <trkpt lat="44.49631" lon="4.38387">
        <ele>156.4</ele>
        <time>2022-06-10T15:52:32Z</time>
      </trkpt>
      <trkpt lat="44.49626" lon="4.38383">
        <ele>156.4</ele>
        <time>2022-06-10T15:52:33Z</time>
      </trkpt>
      <trkpt lat="44.4962" lon="4.38378">
        <ele>156.4</ele>
        <time>2022-06-10T15:52:34Z</time>
      </trkpt>
      <trkpt lat="44.49615" lon="4.38374">
        <ele>156.3</ele>
        <time>2022-06-10T15:52:35Z</time>
      </trkpt>
      <trkpt lat="44.49609" lon="4.38369">
        <ele>156.3</ele>
        <time>2022-06-10T15:52:36Z</time>
      </trkpt>
      <trkpt lat="44.49603" lon="4.38364">
        <ele>156.3</ele>
        <time>2022-06-10T15:52:37Z</time>
      </trkpt>
      <trkpt lat="44.49598" lon="4.38359">
        <ele>156.2</ele>
        <time>2022-06-10T15:52:38Z</time>
      </trkpt>
      <trkpt lat="44.49592" lon="4.38354">
        <ele>156.2</ele>
        <time>2022-06-10T15:52:39Z</time>
      </trkpt>
      <trkpt lat="44.49587" lon="4.38349">
        <ele>156.1</ele>
        <time>2022-06-10T15:52:40Z</time>
      </trkpt>
      <trkpt lat="44.49582" lon="4.38343">
        <ele>156.1</ele>
        <time>2022-06-10T15:52:41Z</time>
      </trkpt>
      <trkpt lat="44.49576" lon="4.38338">
        <ele>156</ele>
        <time>2022-06-10T15:52:42Z</time>
      </trkpt>
      <trkpt lat="44.49571" lon="4.38333">
        <ele>156</ele>
        <time>2022-06-10T15:52:43Z</time>
      </trkpt>
      <trkpt lat="44.49566" lon="4.38327">
        <ele>155.9</ele>
        <time>2022-06-10T15:52:44Z</time>
      </trkpt>
      <trkpt lat="44.4956" lon="4.38321">
        <ele>155.8</ele>
        <time>2022-06-10T15:52:45Z</time>
      </trkpt>
      <trkpt lat="44.49555" lon="4.38315">
        <ele>155.8</ele>
        <time>2022-06-10T15:52:46Z</time>
      </trkpt>
      <trkpt lat="44.49549" lon="4.3831">
        <ele>155.7</ele>
        <time>2022-06-10T15:52:47Z</time>
      </trkpt>
      <trkpt lat="44.49544" lon="4.38304">
        <ele>155.7</ele>
        <time>2022-06-10T15:52:48Z</time>
      </trkpt>
      <trkpt lat="44.49538" lon="4.38298">
        <ele>155.6</ele>
        <time>2022-06-10T15:52:49Z</time>
      </trkpt>
      <trkpt lat="44.49533" lon="4.38292">
        <ele>155.6</ele>
        <time>2022-06-10T15:52:50Z</time>
      </trkpt>
      <trkpt lat="44.49527" lon="4.38286">
        <ele>155.6</ele>
        <time>2022-06-10T15:52:51Z</time>
      </trkpt>
      <trkpt lat="44.49522" lon="4.38281">
        <ele>155.5</ele>
        <time>2022-06-10T15:52:52Z</time>
      </trkpt>
      <trkpt lat="44.49517" lon="4.38275">
        <ele>155.5</ele>
        <time>2022-06-10T15:52:53Z</time>
      </trkpt>
      <trkpt lat="44.49511" lon="4.3827">
        <ele>155.4</ele>
        <time>2022-06-10T15:52:54Z</time>
      </trkpt>
      <trkpt lat="44.49506" lon="4.38264">
        <ele>155.4</ele>
        <time>2022-06-10T15:52:55Z</time>
      </trkpt>
      <trkpt lat="44.49501" lon="4.38258">
        <ele>155.4</ele>
        <time>2022-06-10T15:52:56Z</time>
      </trkpt>
      <trkpt lat="44.49495" lon="4.38252">
        <ele>155.3</ele>
        <time>2022-06-10T15:52:57Z</time>
      </trkpt>
      <trkpt lat="44.4949" lon="4.38247">
        <ele>155.3</ele>
        <time>2022-06-10T15:52:58Z</time>
      </trkpt>
      <trkpt lat="44.49484" lon="4.38242">
        <ele>155.3</ele>
        <time>2022-06-10T15:52:59Z</time>
      </trkpt>
      <trkpt lat="44.49479" lon="4.38237">
        <ele>155.3</ele>
        <time>2022-06-10T15:53:00Z</time>
      </trkpt>
      <trkpt lat="44.49474" lon="4.38232">
        <ele>155.2</ele>
        <time>2022-06-10T15:53:01Z</time>
      </trkpt>
      <trkpt lat="44.49468" lon="4.38226">
        <ele>155.2</ele>
        <time>2022-06-10T15:53:02Z</time>
      </trkpt>
      <trkpt lat="44.49462" lon="4.38221">
        <ele>155.1</ele>
        <time>2022-06-10T15:53:03Z</time>
      </trkpt>
      <trkpt lat="44.49457" lon="4.38215">
        <ele>155.1</ele>
        <time>2022-06-10T15:53:04Z</time>
      </trkpt>
      <trkpt lat="44.49451" lon="4.38209">
        <ele>155</ele>
        <time>2022-06-10T15:53:05Z</time>
      </trkpt>
      <trkpt lat="44.49446" lon="4.38204">
        <ele>155</ele>
        <time>2022-06-10T15:53:06Z</time>
      </trkpt>
      <trkpt lat="44.4944" lon="4.38199">
        <ele>154.9</ele>
        <time>2022-06-10T15:53:07Z</time>
      </trkpt>
      <trkpt lat="44.49434" lon="4.38194">
        <ele>154.9</ele>
        <time>2022-06-10T15:53:08Z</time>
      </trkpt>
      <trkpt lat="44.49428" lon="4.3819">
        <ele>154.9</ele>
        <time>2022-06-10T15:53:09Z</time>
      </trkpt>
      <trkpt lat="44.49422" lon="4.38186">
        <ele>154.8</ele>
        <time>2022-06-10T15:53:10Z</time>
      </trkpt>
      <trkpt lat="44.49416" lon="4.38183">
        <ele>154.8</ele>
        <time>2022-06-10T15:53:11Z</time>
      </trkpt>
      <trkpt lat="44.4941" lon="4.38179">
        <ele>154.8</ele>
        <time>2022-06-10T15:53:12Z</time>
      </trkpt>
      <trkpt lat="44.49404" lon="4.38175">
        <ele>154.7</ele>
        <time>2022-06-10T15:53:13Z</time>
      </trkpt>
      <trkpt lat="44.49397" lon="4.38172">
        <ele>154.7</ele>
        <time>2022-06-10T15:53:14Z</time>
      </trkpt>
      <trkpt lat="44.4939" lon="4.38168">
        <ele>154.7</ele>
        <time>2022-06-10T15:53:15Z</time>
      </trkpt>
      <trkpt lat="44.49384" lon="4.38165">
        <ele>154.6</ele>
        <time>2022-06-10T15:53:16Z</time>
      </trkpt>
      <trkpt lat="44.49378" lon="4.38162">
        <ele>154.6</ele>
        <time>2022-06-10T15:53:17Z</time>
      </trkpt>
      <trkpt lat="44.49371" lon="4.38159">
        <ele>154.5</ele>
        <time>2022-06-10T15:53:18Z</time>
      </trkpt>
      <trkpt lat="44.49364" lon="4.38156">
        <ele>154.5</ele>
        <time>2022-06-10T15:53:19Z</time>
      </trkpt>
      <trkpt lat="44.49358" lon="4.38154">
        <ele>154.5</ele>
        <time>2022-06-10T15:53:20Z</time>
      </trkpt>
      <trkpt lat="44.49351" lon="4.38151">
        <ele>154.5</ele>
        <time>2022-06-10T15:53:21Z</time>
      </trkpt>
      <trkpt lat="44.49344" lon="4.3815">
        <ele>154.4</ele>
        <time>2022-06-10T15:53:22Z</time>
      </trkpt>
      <trkpt lat="44.49338" lon="4.38148">
        <ele>154.4</ele>
        <time>2022-06-10T15:53:23Z</time>
      </trkpt>
      <trkpt lat="44.49331" lon="4.38146">
        <ele>154.4</ele>
        <time>2022-06-10T15:53:24Z</time>
      </trkpt>
      <trkpt lat="44.49324" lon="4.38144">
        <ele>154.4</ele>
        <time>2022-06-10T15:53:25Z</time>
      </trkpt>
      <trkpt lat="44.49317" lon="4.38142">
        <ele>154.3</ele>
        <time>2022-06-10T15:53:26Z</time>
      </trkpt>
      <trkpt lat="44.49311" lon="4.38141">
        <ele>154.3</ele>
        <time>2022-06-10T15:53:27Z</time>
      </trkpt>
      <trkpt lat="44.49304" lon="4.3814">
        <ele>154.3</ele>
        <time>2022-06-10T15:53:28Z</time>
      </trkpt>
      <trkpt lat="44.49297" lon="4.38139">
        <ele>154.2</ele>
        <time>2022-06-10T15:53:29Z</time>
      </trkpt>
      <trkpt lat="44.4929" lon="4.38139">
        <ele>154.2</ele>
        <time>2022-06-10T15:53:30Z</time>
      </trkpt>
      <trkpt lat="44.49283" lon="4.38139">
        <ele>154.1</ele>
        <time>2022-06-10T15:53:31Z</time>
      </trkpt>
      <trkpt lat="44.49277" lon="4.38139">
        <ele>154</ele>
        <time>2022-06-10T15:53:32Z</time>
      </trkpt>
      <trkpt lat="44.4927" lon="4.38138">
        <ele>154</ele>
        <time>2022-06-10T15:53:33Z</time>
      </trkpt>
      <trkpt lat="44.49263" lon="4.38138">
        <ele>153.9</ele>
        <time>2022-06-10T15:53:34Z</time>
      </trkpt>
      <trkpt lat="44.49256" lon="4.38138">
        <ele>153.9</ele>
        <time>2022-06-10T15:53:35Z</time>
      </trkpt>
      <trkpt lat="44.4925" lon="4.38138">
        <ele>153.9</ele>
        <time>2022-06-10T15:53:36Z</time>
      </trkpt>
      <trkpt lat="44.49243" lon="4.38139">
        <ele>153.9</ele>
        <time>2022-06-10T15:53:37Z</time>
      </trkpt>
      <trkpt lat="44.49237" lon="4.3814">
        <ele>153.8</ele>
        <time>2022-06-10T15:53:38Z</time>
      </trkpt>
      <trkpt lat="44.4923" lon="4.3814">
        <ele>153.8</ele>
        <time>2022-06-10T15:53:39Z</time>
      </trkpt>
      <trkpt lat="44.49223" lon="4.38141">
        <ele>153.8</ele>
        <time>2022-06-10T15:53:40Z</time>
      </trkpt>
      <trkpt lat="44.49217" lon="4.38142">
        <ele>153.7</ele>
        <time>2022-06-10T15:53:41Z</time>
      </trkpt>
      <trkpt lat="44.4921" lon="4.38143">
        <ele>153.7</ele>
        <time>2022-06-10T15:53:42Z</time>
      </trkpt>
      <trkpt lat="44.49204" lon="4.38145">
        <ele>153.6</ele>
        <time>2022-06-10T15:53:43Z</time>
      </trkpt>
      <trkpt lat="44.49198" lon="4.38146">
        <ele>153.6</ele>
        <time>2022-06-10T15:53:44Z</time>
      </trkpt>
      <trkpt lat="44.49191" lon="4.38148">
        <ele>153.5</ele>
        <time>2022-06-10T15:53:45Z</time>
      </trkpt>
      <trkpt lat="44.49185" lon="4.3815">
        <ele>153.5</ele>
        <time>2022-06-10T15:53:46Z</time>
      </trkpt>
      <trkpt lat="44.4918" lon="4.38152">
        <ele>153.4</ele>
        <time>2022-06-10T15:53:47Z</time>
      </trkpt>
      <trkpt lat="44.49174" lon="4.38155">
        <ele>153.4</ele>
        <time>2022-06-10T15:53:48Z</time>
      </trkpt>
      <trkpt lat="44.49168" lon="4.38157">
        <ele>153.3</ele>
        <time>2022-06-10T15:53:49Z</time>
      </trkpt>
      <trkpt lat="44.49162" lon="4.3816">
        <ele>153.3</ele>
        <time>2022-06-10T15:53:50Z</time>
      </trkpt>
      <trkpt lat="44.49156" lon="4.38162">
        <ele>153.2</ele>
        <time>2022-06-10T15:53:51Z</time>
      </trkpt>
      <trkpt lat="44.4915" lon="4.38166">
        <ele>153.2</ele>
        <time>2022-06-10T15:53:52Z</time>
      </trkpt>
      <trkpt lat="44.49145" lon="4.3817">
        <ele>153.2</ele>
        <time>2022-06-10T15:53:53Z</time>
      </trkpt>
      <trkpt lat="44.49139" lon="4.38173">
        <ele>153.1</ele>
        <time>2022-06-10T15:53:54Z</time>
      </trkpt>
      <trkpt lat="44.49133" lon="4.38177">
        <ele>153.1</ele>
        <time>2022-06-10T15:53:55Z</time>
      </trkpt>
      <trkpt lat="44.49127" lon="4.38181">
        <ele>153.1</ele>
        <time>2022-06-10T15:53:56Z</time>
      </trkpt>
      <trkpt lat="44.49121" lon="4.38184">
        <ele>153</ele>
        <time>2022-06-10T15:53:57Z</time>
      </trkpt>
      <trkpt lat="44.49115" lon="4.38187">
        <ele>153</ele>
        <time>2022-06-10T15:53:58Z</time>
      </trkpt>
      <trkpt lat="44.49109" lon="4.3819">
        <ele>153</ele>
        <time>2022-06-10T15:53:59Z</time>
      </trkpt>
      <trkpt lat="44.49103" lon="4.38194">
        <ele>152.9</ele>
        <time>2022-06-10T15:54:00Z</time>
      </trkpt>
      <trkpt lat="44.49097" lon="4.38198">
        <ele>152.9</ele>
        <time>2022-06-10T15:54:01Z</time>
      </trkpt>
      <trkpt lat="44.49092" lon="4.38202">
        <ele>152.8</ele>
        <time>2022-06-10T15:54:02Z</time>
      </trkpt>
      <trkpt lat="44.49087" lon="4.38207">
        <ele>152.8</ele>
        <time>2022-06-10T15:54:03Z</time>
      </trkpt>
      <trkpt lat="44.49081" lon="4.38211">
        <ele>152.7</ele>
        <time>2022-06-10T15:54:04Z</time>
      </trkpt>
      <trkpt lat="44.49076" lon="4.38215">
        <ele>152.7</ele>
        <time>2022-06-10T15:54:05Z</time>
      </trkpt>
      <trkpt lat="44.49071" lon="4.38219">
        <ele>152.6</ele>
        <time>2022-06-10T15:54:06Z</time>
      </trkpt>
      <trkpt lat="44.49066" lon="4.38224">
        <ele>152.6</ele>
        <time>2022-06-10T15:54:07Z</time>
      </trkpt>
      <trkpt lat="44.4906" lon="4.38229">
        <ele>152.5</ele>
        <time>2022-06-10T15:54:08Z</time>
      </trkpt>
      <trkpt lat="44.49055" lon="4.38233">
        <ele>152.5</ele>
        <time>2022-06-10T15:54:09Z</time>
      </trkpt>
      <trkpt lat="44.4905" lon="4.38238">
        <ele>152.5</ele>
        <time>2022-06-10T15:54:10Z</time>
      </trkpt>
      <trkpt lat="44.49045" lon="4.38242">
        <ele>152.4</ele>
        <time>2022-06-10T15:54:11Z</time>
      </trkpt>
      <trkpt lat="44.4904" lon="4.38247">
        <ele>152.3</ele>
        <time>2022-06-10T15:54:12Z</time>
      </trkpt>
      <trkpt lat="44.49035" lon="4.38252">
        <ele>152.3</ele>
        <time>2022-06-10T15:54:13Z</time>
      </trkpt>
      <trkpt lat="44.4903" lon="4.38257">
        <ele>152.2</ele>
        <time>2022-06-10T15:54:14Z</time>
      </trkpt>
      <trkpt lat="44.49025" lon="4.38261">
        <ele>152.2</ele>
        <time>2022-06-10T15:54:15Z</time>
      </trkpt>
      <trkpt lat="44.4902" lon="4.38266">
        <ele>152.1</ele>
        <time>2022-06-10T15:54:16Z</time>
      </trkpt>
      <trkpt lat="44.49015" lon="4.38271">
        <ele>152.1</ele>
        <time>2022-06-10T15:54:17Z</time>
      </trkpt>
      <trkpt lat="44.4901" lon="4.38275">
        <ele>152</ele>
        <time>2022-06-10T15:54:18Z</time>
      </trkpt>
      <trkpt lat="44.49005" lon="4.3828">
        <ele>152</ele>
        <time>2022-06-10T15:54:19Z</time>
      </trkpt>
      <trkpt lat="44.49001" lon="4.38284">
        <ele>151.9</ele>
        <time>2022-06-10T15:54:20Z</time>
      </trkpt>
      <trkpt lat="44.48996" lon="4.38289">
        <ele>151.9</ele>
        <time>2022-06-10T15:54:21Z</time>
      </trkpt>
      <trkpt lat="44.48991" lon="4.38293">
        <ele>151.9</ele>
        <time>2022-06-10T15:54:22Z</time>
      </trkpt>
      <trkpt lat="44.48987" lon="4.38298">
        <ele>151.9</ele>
        <time>2022-06-10T15:54:23Z</time>
      </trkpt>
      <trkpt lat="44.48983" lon="4.38302">
        <ele>151.9</ele>
        <time>2022-06-10T15:54:24Z</time>
      </trkpt>
      <trkpt lat="44.48978" lon="4.38307">
        <ele>151.9</ele>
        <time>2022-06-10T15:54:25Z</time>
      </trkpt>
      <trkpt lat="44.48973" lon="4.38312">
        <ele>151.9</ele>
        <time>2022-06-10T15:54:26Z</time>
      </trkpt>
      <trkpt lat="44.48969" lon="4.38316">
        <ele>152</ele>
        <time>2022-06-10T15:54:27Z</time>
      </trkpt>
      <trkpt lat="44.48964" lon="4.3832">
        <ele>152</ele>
        <time>2022-06-10T15:54:28Z</time>
      </trkpt>
      <trkpt lat="44.4896" lon="4.38324">
        <ele>152</ele>
        <time>2022-06-10T15:54:29Z</time>
      </trkpt>
      <trkpt lat="44.48956" lon="4.38328">
        <ele>152</ele>
        <time>2022-06-10T15:54:30Z</time>
      </trkpt>
      <trkpt lat="44.48951" lon="4.38333">
        <ele>152</ele>
        <time>2022-06-10T15:54:31Z</time>
      </trkpt>
      <trkpt lat="44.48947" lon="4.38336">
        <ele>152</ele>
        <time>2022-06-10T15:54:32Z</time>
      </trkpt>
      <trkpt lat="44.48943" lon="4.3834">
        <ele>152</ele>
        <time>2022-06-10T15:54:33Z</time>
      </trkpt>
      <trkpt lat="44.48938" lon="4.38344">
        <ele>152</ele>
        <time>2022-06-10T15:54:34Z</time>
      </trkpt>
      <trkpt lat="44.48934" lon="4.38348">
        <ele>152</ele>
        <time>2022-06-10T15:54:35Z</time>
      </trkpt>
      <trkpt lat="44.48929" lon="4.38351">
        <ele>152</ele>
        <time>2022-06-10T15:54:36Z</time>
      </trkpt>
      <trkpt lat="44.48925" lon="4.38355">
        <ele>152</ele>
        <time>2022-06-10T15:54:37Z</time>
      </trkpt>
      <trkpt lat="44.4892" lon="4.38359">
        <ele>152</ele>
        <time>2022-06-10T15:54:38Z</time>
      </trkpt>
      <trkpt lat="44.48915" lon="4.38362">
        <ele>151.9</ele>
        <time>2022-06-10T15:54:39Z</time>
      </trkpt>
      <trkpt lat="44.4891" lon="4.38366">
        <ele>151.9</ele>
        <time>2022-06-10T15:54:40Z</time>
      </trkpt>
      <trkpt lat="44.48905" lon="4.3837">
        <ele>151.9</ele>
        <time>2022-06-10T15:54:41Z</time>
      </trkpt>
      <trkpt lat="44.489" lon="4.38374">
        <ele>151.9</ele>
        <time>2022-06-10T15:54:42Z</time>
      </trkpt>
      <trkpt lat="44.48896" lon="4.38377">
        <ele>151.8</ele>
        <time>2022-06-10T15:54:43Z</time>
      </trkpt>
      <trkpt lat="44.48891" lon="4.38381">
        <ele>151.8</ele>
        <time>2022-06-10T15:54:44Z</time>
      </trkpt>
      <trkpt lat="44.48886" lon="4.38385">
        <ele>151.7</ele>
        <time>2022-06-10T15:54:45Z</time>
      </trkpt>
      <trkpt lat="44.4888" lon="4.38389">
        <ele>151.6</ele>
        <time>2022-06-10T15:54:46Z</time>
      </trkpt>
      <trkpt lat="44.48875" lon="4.38393">
        <ele>151.6</ele>
        <time>2022-06-10T15:54:47Z</time>
      </trkpt>
      <trkpt lat="44.4887" lon="4.38396">
        <ele>151.5</ele>
        <time>2022-06-10T15:54:48Z</time>
      </trkpt>
      <trkpt lat="44.48864" lon="4.384">
        <ele>151.5</ele>
        <time>2022-06-10T15:54:49Z</time>
      </trkpt>
      <trkpt lat="44.48859" lon="4.38403">
        <ele>151.5</ele>
        <time>2022-06-10T15:54:50Z</time>
      </trkpt>
      <trkpt lat="44.48854" lon="4.38406">
        <ele>151.4</ele>
        <time>2022-06-10T15:54:51Z</time>
      </trkpt>
      <trkpt lat="44.48848" lon="4.38409">
        <ele>151.4</ele>
        <time>2022-06-10T15:54:52Z</time>
      </trkpt>
      <trkpt lat="44.48842" lon="4.38412">
        <ele>151.4</ele>
        <time>2022-06-10T15:54:53Z</time>
      </trkpt>
      <trkpt lat="44.48836" lon="4.38414">
        <ele>151.4</ele>
        <time>2022-06-10T15:54:54Z</time>
      </trkpt>
      <trkpt lat="44.48831" lon="4.38417">
        <ele>151.3</ele>
        <time>2022-06-10T15:54:55Z</time>
      </trkpt>
      <trkpt lat="44.48825" lon="4.38419">
        <ele>151.3</ele>
        <time>2022-06-10T15:54:56Z</time>
      </trkpt>
      <trkpt lat="44.4882" lon="4.38421">
        <ele>151.3</ele>
        <time>2022-06-10T15:54:57Z</time>
      </trkpt>
      <trkpt lat="44.48814" lon="4.38424">
        <ele>151.2</ele>
        <time>2022-06-10T15:54:58Z</time>
      </trkpt>
      <trkpt lat="44.48809" lon="4.38426">
        <ele>151.2</ele>
        <time>2022-06-10T15:54:59Z</time>
      </trkpt>
      <trkpt lat="44.48804" lon="4.38428">
        <ele>151.2</ele>
        <time>2022-06-10T15:55:00Z</time>
      </trkpt>
      <trkpt lat="44.48798" lon="4.38429">
        <ele>151.2</ele>
        <time>2022-06-10T15:55:01Z</time>
      </trkpt>
      <trkpt lat="44.48793" lon="4.38431">
        <ele>151.2</ele>
        <time>2022-06-10T15:55:02Z</time>
      </trkpt>
      <trkpt lat="44.48788" lon="4.38432">
        <ele>151.2</ele>
        <time>2022-06-10T15:55:03Z</time>
      </trkpt>
      <trkpt lat="44.48785" lon="4.38433">
        <ele>151.2</ele>
        <time>2022-06-10T15:55:04Z</time>
      </trkpt>
      <trkpt lat="44.48778" lon="4.38435">
        <ele>151.2</ele>
        <time>2022-06-10T15:55:05Z</time>
      </trkpt>
      <trkpt lat="44.48772" lon="4.38437">
        <ele>151.2</ele>
        <time>2022-06-10T15:55:06Z</time>
      </trkpt>
      <trkpt lat="44.48766" lon="4.38439">
        <ele>151.2</ele>
        <time>2022-06-10T15:55:07Z</time>
      </trkpt>
      <trkpt lat="44.4876" lon="4.3844">
        <ele>151.2</ele>
        <time>2022-06-10T15:55:08Z</time>
      </trkpt>
      <trkpt lat="44.48754" lon="4.38442">
        <ele>151.1</ele>
        <time>2022-06-10T15:55:09Z</time>
      </trkpt>
      <trkpt lat="44.48749" lon="4.38443">
        <ele>151.1</ele>
        <time>2022-06-10T15:55:10Z</time>
      </trkpt>
      <trkpt lat="44.48743" lon="4.38444">
        <ele>151</ele>
        <time>2022-06-10T15:55:11Z</time>
      </trkpt>
      <trkpt lat="44.48738" lon="4.38444">
        <ele>150.9</ele>
        <time>2022-06-10T15:55:12Z</time>
      </trkpt>
      <trkpt lat="44.48732" lon="4.38445">
        <ele>150.8</ele>
        <time>2022-06-10T15:55:13Z</time>
      </trkpt>
      <trkpt lat="44.48726" lon="4.38446">
        <ele>150.8</ele>
        <time>2022-06-10T15:55:14Z</time>
      </trkpt>
      <trkpt lat="44.4872" lon="4.38446">
        <ele>150.7</ele>
        <time>2022-06-10T15:55:15Z</time>
      </trkpt>
      <trkpt lat="44.48714" lon="4.38446">
        <ele>150.7</ele>
        <time>2022-06-10T15:55:16Z</time>
      </trkpt>
      <trkpt lat="44.48708" lon="4.38446">
        <ele>150.6</ele>
        <time>2022-06-10T15:55:17Z</time>
      </trkpt>
      <trkpt lat="44.48702" lon="4.38446">
        <ele>150.6</ele>
        <time>2022-06-10T15:55:18Z</time>
      </trkpt>
      <trkpt lat="44.48697" lon="4.38445">
        <ele>150.6</ele>
        <time>2022-06-10T15:55:19Z</time>
      </trkpt>
      <trkpt lat="44.48691" lon="4.38443">
        <ele>150.6</ele>
        <time>2022-06-10T15:55:20Z</time>
      </trkpt>
      <trkpt lat="44.48686" lon="4.38442">
        <ele>150.5</ele>
        <time>2022-06-10T15:55:21Z</time>
      </trkpt>
      <trkpt lat="44.48681" lon="4.38443">
        <ele>150.5</ele>
        <time>2022-06-10T15:55:22Z</time>
      </trkpt>
      <trkpt lat="44.48675" lon="4.38443">
        <ele>150.5</ele>
        <time>2022-06-10T15:55:23Z</time>
      </trkpt>
      <trkpt lat="44.48669" lon="4.38443">
        <ele>150.5</ele>
        <time>2022-06-10T15:55:24Z</time>
      </trkpt>
      <trkpt lat="44.48663" lon="4.38443">
        <ele>150.5</ele>
        <time>2022-06-10T15:55:25Z</time>
      </trkpt>
      <trkpt lat="44.48657" lon="4.38442">
        <ele>150.5</ele>
        <time>2022-06-10T15:55:26Z</time>
      </trkpt>
      <trkpt lat="44.48651" lon="4.38442">
        <ele>150.5</ele>
        <time>2022-06-10T15:55:27Z</time>
      </trkpt>
      <trkpt lat="44.48646" lon="4.38442">
        <ele>150.5</ele>
        <time>2022-06-10T15:55:28Z</time>
      </trkpt>
      <trkpt lat="44.48641" lon="4.38443">
        <ele>150.5</ele>
        <time>2022-06-10T15:55:29Z</time>
      </trkpt>
      <trkpt lat="44.48636" lon="4.38444">
        <ele>150.4</ele>
        <time>2022-06-10T15:55:30Z</time>
      </trkpt>
      <trkpt lat="44.48631" lon="4.38442">
        <ele>150.4</ele>
        <time>2022-06-10T15:55:31Z</time>
      </trkpt>
      <trkpt lat="44.48623" lon="4.3844">
        <ele>150.4</ele>
        <time>2022-06-10T15:55:32Z</time>
      </trkpt>
      <trkpt lat="44.48617" lon="4.38437">
        <ele>150.3</ele>
        <time>2022-06-10T15:55:33Z</time>
      </trkpt>
      <trkpt lat="44.48612" lon="4.38436">
        <ele>150.3</ele>
        <time>2022-06-10T15:55:34Z</time>
      </trkpt>
      <trkpt lat="44.48606" lon="4.38433">
        <ele>150.2</ele>
        <time>2022-06-10T15:55:35Z</time>
      </trkpt>
      <trkpt lat="44.48601" lon="4.38431">
        <ele>150.2</ele>
        <time>2022-06-10T15:55:36Z</time>
      </trkpt>
      <trkpt lat="44.48596" lon="4.38428">
        <ele>150.1</ele>
        <time>2022-06-10T15:55:37Z</time>
      </trkpt>
      <trkpt lat="44.4859" lon="4.38426">
        <ele>150.1</ele>
        <time>2022-06-10T15:55:38Z</time>
      </trkpt>
      <trkpt lat="44.48584" lon="4.38424">
        <ele>150.1</ele>
        <time>2022-06-10T15:55:39Z</time>
      </trkpt>
      <trkpt lat="44.48578" lon="4.38422">
        <ele>150</ele>
        <time>2022-06-10T15:55:40Z</time>
      </trkpt>
      <trkpt lat="44.48571" lon="4.3842">
        <ele>150</ele>
        <time>2022-06-10T15:55:41Z</time>
      </trkpt>
      <trkpt lat="44.48565" lon="4.38418">
        <ele>150</ele>
        <time>2022-06-10T15:55:42Z</time>
      </trkpt>
      <trkpt lat="44.48558" lon="4.38414">
        <ele>149.9</ele>
        <time>2022-06-10T15:55:43Z</time>
      </trkpt>
      <trkpt lat="44.48552" lon="4.38412">
        <ele>149.9</ele>
        <time>2022-06-10T15:55:44Z</time>
      </trkpt>
      <trkpt lat="44.48547" lon="4.38409">
        <ele>149.8</ele>
        <time>2022-06-10T15:55:45Z</time>
      </trkpt>
      <trkpt lat="44.48541" lon="4.38407">
        <ele>149.8</ele>
        <time>2022-06-10T15:55:46Z</time>
      </trkpt>
      <trkpt lat="44.48537" lon="4.38405">
        <ele>149.8</ele>
        <time>2022-06-10T15:55:47Z</time>
      </trkpt>
      <trkpt lat="44.48531" lon="4.38402">
        <ele>149.8</ele>
        <time>2022-06-10T15:55:48Z</time>
      </trkpt>
      <trkpt lat="44.48526" lon="4.38399">
        <ele>149.8</ele>
        <time>2022-06-10T15:55:49Z</time>
      </trkpt>
      <trkpt lat="44.48521" lon="4.38396">
        <ele>149.7</ele>
        <time>2022-06-10T15:55:50Z</time>
      </trkpt>
      <trkpt lat="44.48516" lon="4.38392">
        <ele>149.7</ele>
        <time>2022-06-10T15:55:51Z</time>
      </trkpt>
      <trkpt lat="44.4851" lon="4.38389">
        <ele>149.7</ele>
        <time>2022-06-10T15:55:52Z</time>
      </trkpt>
      <trkpt lat="44.48505" lon="4.38386">
        <ele>149.6</ele>
        <time>2022-06-10T15:55:53Z</time>
      </trkpt>
      <trkpt lat="44.48498" lon="4.38384">
        <ele>149.6</ele>
        <time>2022-06-10T15:55:54Z</time>
      </trkpt>
      <trkpt lat="44.48492" lon="4.38381">
        <ele>149.5</ele>
        <time>2022-06-10T15:55:55Z</time>
      </trkpt>
      <trkpt lat="44.48487" lon="4.38377">
        <ele>149.5</ele>
        <time>2022-06-10T15:55:56Z</time>
      </trkpt>
      <trkpt lat="44.48482" lon="4.38373">
        <ele>149.4</ele>
        <time>2022-06-10T15:55:57Z</time>
      </trkpt>
      <trkpt lat="44.48477" lon="4.3837">
        <ele>149.4</ele>
        <time>2022-06-10T15:55:58Z</time>
      </trkpt>
      <trkpt lat="44.48471" lon="4.38367">
        <ele>149.4</ele>
        <time>2022-06-10T15:55:59Z</time>
      </trkpt>
      <trkpt lat="44.48465" lon="4.38364">
        <ele>149.3</ele>
        <time>2022-06-10T15:56:00Z</time>
      </trkpt>
      <trkpt lat="44.48459" lon="4.38361">
        <ele>149.3</ele>
        <time>2022-06-10T15:56:01Z</time>
      </trkpt>
      <trkpt lat="44.48453" lon="4.38358">
        <ele>149.2</ele>
        <time>2022-06-10T15:56:02Z</time>
      </trkpt>
      <trkpt lat="44.48448" lon="4.38355">
        <ele>149.1</ele>
        <time>2022-06-10T15:56:03Z</time>
      </trkpt>
      <trkpt lat="44.48442" lon="4.38352">
        <ele>149.1</ele>
        <time>2022-06-10T15:56:04Z</time>
      </trkpt>
      <trkpt lat="44.48437" lon="4.38349">
        <ele>149</ele>
        <time>2022-06-10T15:56:05Z</time>
      </trkpt>
      <trkpt lat="44.48431" lon="4.38345">
        <ele>149</ele>
        <time>2022-06-10T15:56:06Z</time>
      </trkpt>
      <trkpt lat="44.48426" lon="4.38342">
        <ele>148.9</ele>
        <time>2022-06-10T15:56:07Z</time>
      </trkpt>
      <trkpt lat="44.4842" lon="4.38339">
        <ele>148.9</ele>
        <time>2022-06-10T15:56:08Z</time>
      </trkpt>
      <trkpt lat="44.48415" lon="4.38336">
        <ele>148.8</ele>
        <time>2022-06-10T15:56:09Z</time>
      </trkpt>
      <trkpt lat="44.48409" lon="4.38333">
        <ele>148.8</ele>
        <time>2022-06-10T15:56:10Z</time>
      </trkpt>
      <trkpt lat="44.48404" lon="4.3833">
        <ele>148.7</ele>
        <time>2022-06-10T15:56:11Z</time>
      </trkpt>
      <trkpt lat="44.48398" lon="4.38327">
        <ele>148.7</ele>
        <time>2022-06-10T15:56:12Z</time>
      </trkpt>
      <trkpt lat="44.48392" lon="4.38324">
        <ele>148.6</ele>
        <time>2022-06-10T15:56:13Z</time>
      </trkpt>
      <trkpt lat="44.48386" lon="4.38321">
        <ele>148.6</ele>
        <time>2022-06-10T15:56:14Z</time>
      </trkpt>
      <trkpt lat="44.48381" lon="4.38317">
        <ele>148.6</ele>
        <time>2022-06-10T15:56:15Z</time>
      </trkpt>
      <trkpt lat="44.48375" lon="4.38314">
        <ele>148.5</ele>
        <time>2022-06-10T15:56:16Z</time>
      </trkpt>
      <trkpt lat="44.48369" lon="4.38311">
        <ele>148.5</ele>
        <time>2022-06-10T15:56:17Z</time>
      </trkpt>
      <trkpt lat="44.48363" lon="4.38308">
        <ele>148.5</ele>
        <time>2022-06-10T15:56:18Z</time>
      </trkpt>
      <trkpt lat="44.48358" lon="4.38305">
        <ele>148.5</ele>
        <time>2022-06-10T15:56:19Z</time>
      </trkpt>
      <trkpt lat="44.48352" lon="4.38302">
        <ele>148.4</ele>
        <time>2022-06-10T15:56:20Z</time>
      </trkpt>
      <trkpt lat="44.48347" lon="4.38299">
        <ele>148.4</ele>
        <time>2022-06-10T15:56:21Z</time>
      </trkpt>
      <trkpt lat="44.48341" lon="4.38296">
        <ele>148.4</ele>
        <time>2022-06-10T15:56:22Z</time>
      </trkpt>
      <trkpt lat="44.48336" lon="4.38292">
        <ele>148.3</ele>
        <time>2022-06-10T15:56:23Z</time>
      </trkpt>
      <trkpt lat="44.4833" lon="4.38288">
        <ele>148.3</ele>
        <time>2022-06-10T15:56:24Z</time>
      </trkpt>
      <trkpt lat="44.48324" lon="4.38285">
        <ele>148.3</ele>
        <time>2022-06-10T15:56:25Z</time>
      </trkpt>
      <trkpt lat="44.48319" lon="4.38282">
        <ele>148.2</ele>
        <time>2022-06-10T15:56:26Z</time>
      </trkpt>
      <trkpt lat="44.48313" lon="4.38279">
        <ele>148.2</ele>
        <time>2022-06-10T15:56:27Z</time>
      </trkpt>
      <trkpt lat="44.48307" lon="4.38276">
        <ele>148.1</ele>
        <time>2022-06-10T15:56:28Z</time>
      </trkpt>
      <trkpt lat="44.48302" lon="4.38272">
        <ele>148.1</ele>
        <time>2022-06-10T15:56:29Z</time>
      </trkpt>
      <trkpt lat="44.48296" lon="4.38269">
        <ele>148.1</ele>
        <time>2022-06-10T15:56:30Z</time>
      </trkpt>
      <trkpt lat="44.4829" lon="4.38266">
        <ele>148</ele>
        <time>2022-06-10T15:56:31Z</time>
      </trkpt>
      <trkpt lat="44.48284" lon="4.38262">
        <ele>148</ele>
        <time>2022-06-10T15:56:32Z</time>
      </trkpt>
      <trkpt lat="44.48278" lon="4.38258">
        <ele>148</ele>
        <time>2022-06-10T15:56:33Z</time>
      </trkpt>
      <trkpt lat="44.48273" lon="4.38255">
        <ele>147.9</ele>
        <time>2022-06-10T15:56:34Z</time>
      </trkpt>
      <trkpt lat="44.48267" lon="4.38252">
        <ele>147.9</ele>
        <time>2022-06-10T15:56:35Z</time>
      </trkpt>
      <trkpt lat="44.48261" lon="4.38249">
        <ele>147.9</ele>
        <time>2022-06-10T15:56:36Z</time>
      </trkpt>
      <trkpt lat="44.48255" lon="4.38246">
        <ele>147.8</ele>
        <time>2022-06-10T15:56:37Z</time>
      </trkpt>
      <trkpt lat="44.48249" lon="4.38243">
        <ele>147.8</ele>
        <time>2022-06-10T15:56:38Z</time>
      </trkpt>
      <trkpt lat="44.48244" lon="4.3824">
        <ele>147.8</ele>
        <time>2022-06-10T15:56:39Z</time>
      </trkpt>
      <trkpt lat="44.48239" lon="4.38238">
        <ele>147.8</ele>
        <time>2022-06-10T15:56:40Z</time>
      </trkpt>
      <trkpt lat="44.48233" lon="4.38235">
        <ele>147.8</ele>
        <time>2022-06-10T15:56:41Z</time>
      </trkpt>
      <trkpt lat="44.48227" lon="4.38232">
        <ele>147.7</ele>
        <time>2022-06-10T15:56:42Z</time>
      </trkpt>
      <trkpt lat="44.48221" lon="4.38229">
        <ele>147.7</ele>
        <time>2022-06-10T15:56:43Z</time>
      </trkpt>
      <trkpt lat="44.48215" lon="4.38226">
        <ele>147.7</ele>
        <time>2022-06-10T15:56:44Z</time>
      </trkpt>
      <trkpt lat="44.48209" lon="4.38223">
        <ele>147.6</ele>
        <time>2022-06-10T15:56:45Z</time>
      </trkpt>
      <trkpt lat="44.48203" lon="4.38219">
        <ele>147.6</ele>
        <time>2022-06-10T15:56:46Z</time>
      </trkpt>
      <trkpt lat="44.48197" lon="4.38216">
        <ele>147.6</ele>
        <time>2022-06-10T15:56:47Z</time>
      </trkpt>
      <trkpt lat="44.4819" lon="4.38213">
        <ele>147.5</ele>
        <time>2022-06-10T15:56:48Z</time>
      </trkpt>
      <trkpt lat="44.48184" lon="4.3821">
        <ele>147.5</ele>
        <time>2022-06-10T15:56:49Z</time>
      </trkpt>
      <trkpt lat="44.48178" lon="4.38206">
        <ele>147.5</ele>
        <time>2022-06-10T15:56:50Z</time>
      </trkpt>
      <trkpt lat="44.48172" lon="4.38203">
        <ele>147.5</ele>
        <time>2022-06-10T15:56:51Z</time>
      </trkpt>
      <trkpt lat="44.48167" lon="4.382">
        <ele>147.5</ele>
        <time>2022-06-10T15:56:52Z</time>
      </trkpt>
      <trkpt lat="44.48161" lon="4.38197">
        <ele>147.4</ele>
        <time>2022-06-10T15:56:53Z</time>
      </trkpt>
      <trkpt lat="44.48156" lon="4.38194">
        <ele>147.4</ele>
        <time>2022-06-10T15:56:54Z</time>
      </trkpt>
      <trkpt lat="44.4815" lon="4.38191">
        <ele>147.4</ele>
        <time>2022-06-10T15:56:55Z</time>
      </trkpt>
      <trkpt lat="44.48145" lon="4.38188">
        <ele>147.3</ele>
        <time>2022-06-10T15:56:56Z</time>
      </trkpt>
      <trkpt lat="44.48139" lon="4.38185">
        <ele>147.3</ele>
        <time>2022-06-10T15:56:57Z</time>
      </trkpt>
      <trkpt lat="44.48134" lon="4.38182">
        <ele>147.3</ele>
        <time>2022-06-10T15:56:58Z</time>
      </trkpt>
      <trkpt lat="44.48128" lon="4.38179">
        <ele>147.2</ele>
        <time>2022-06-10T15:56:59Z</time>
      </trkpt>
      <trkpt lat="44.48122" lon="4.38176">
        <ele>147.2</ele>
        <time>2022-06-10T15:57:00Z</time>
      </trkpt>
      <trkpt lat="44.48117" lon="4.38173">
        <ele>147.2</ele>
        <time>2022-06-10T15:57:01Z</time>
      </trkpt>
      <trkpt lat="44.48112" lon="4.3817">
        <ele>147.2</ele>
        <time>2022-06-10T15:57:02Z</time>
      </trkpt>
      <trkpt lat="44.48106" lon="4.38168">
        <ele>147.2</ele>
        <time>2022-06-10T15:57:03Z</time>
      </trkpt>
      <trkpt lat="44.481" lon="4.38165">
        <ele>147.1</ele>
        <time>2022-06-10T15:57:04Z</time>
      </trkpt>
      <trkpt lat="44.48094" lon="4.38161">
        <ele>147.1</ele>
        <time>2022-06-10T15:57:05Z</time>
      </trkpt>
      <trkpt lat="44.48088" lon="4.38159">
        <ele>147.1</ele>
        <time>2022-06-10T15:57:06Z</time>
      </trkpt>
      <trkpt lat="44.48084" lon="4.38156">
        <ele>147.1</ele>
        <time>2022-06-10T15:57:07Z</time>
      </trkpt>
      <trkpt lat="44.48078" lon="4.38154">
        <ele>147.1</ele>
        <time>2022-06-10T15:57:08Z</time>
      </trkpt>
      <trkpt lat="44.48072" lon="4.38151">
        <ele>147.1</ele>
        <time>2022-06-10T15:57:09Z</time>
      </trkpt>
      <trkpt lat="44.48066" lon="4.38148">
        <ele>147.1</ele>
        <time>2022-06-10T15:57:10Z</time>
      </trkpt>
      <trkpt lat="44.48061" lon="4.38145">
        <ele>147.1</ele>
        <time>2022-06-10T15:57:11Z</time>
      </trkpt>
      <trkpt lat="44.48053" lon="4.38141">
        <ele>147.1</ele>
        <time>2022-06-10T15:57:12Z</time>
      </trkpt>
      <trkpt lat="44.48048" lon="4.38137">
        <ele>147</ele>
        <time>2022-06-10T15:57:13Z</time>
      </trkpt>
      <trkpt lat="44.48044" lon="4.38135">
        <ele>147</ele>
        <time>2022-06-10T15:57:14Z</time>
      </trkpt>
      <trkpt lat="44.48039" lon="4.38131">
        <ele>147</ele>
        <time>2022-06-10T15:57:15Z</time>
      </trkpt>
      <trkpt lat="44.48033" lon="4.38128">
        <ele>146.9</ele>
        <time>2022-06-10T15:57:16Z</time>
      </trkpt>
      <trkpt lat="44.48027" lon="4.38124">
        <ele>146.9</ele>
        <time>2022-06-10T15:57:17Z</time>
      </trkpt>
      <trkpt lat="44.48022" lon="4.38121">
        <ele>146.8</ele>
        <time>2022-06-10T15:57:18Z</time>
      </trkpt>
      <trkpt lat="44.48017" lon="4.38117">
        <ele>146.7</ele>
        <time>2022-06-10T15:57:19Z</time>
      </trkpt>
      <trkpt lat="44.48012" lon="4.38113">
        <ele>146.7</ele>
        <time>2022-06-10T15:57:20Z</time>
      </trkpt>
      <trkpt lat="44.48006" lon="4.3811">
        <ele>146.6</ele>
        <time>2022-06-10T15:57:21Z</time>
      </trkpt>
      <trkpt lat="44.48" lon="4.38106">
        <ele>146.5</ele>
        <time>2022-06-10T15:57:22Z</time>
      </trkpt>
      <trkpt lat="44.47995" lon="4.38102">
        <ele>146.4</ele>
        <time>2022-06-10T15:57:23Z</time>
      </trkpt>
      <trkpt lat="44.47989" lon="4.38098">
        <ele>146.4</ele>
        <time>2022-06-10T15:57:24Z</time>
      </trkpt>
      <trkpt lat="44.47983" lon="4.38094">
        <ele>146.3</ele>
        <time>2022-06-10T15:57:25Z</time>
      </trkpt>
      <trkpt lat="44.47978" lon="4.3809">
        <ele>146.3</ele>
        <time>2022-06-10T15:57:26Z</time>
      </trkpt>
      <trkpt lat="44.47973" lon="4.38086">
        <ele>146.2</ele>
        <time>2022-06-10T15:57:27Z</time>
      </trkpt>
      <trkpt lat="44.47967" lon="4.38082">
        <ele>146.2</ele>
        <time>2022-06-10T15:57:28Z</time>
      </trkpt>
      <trkpt lat="44.47962" lon="4.38078">
        <ele>146.1</ele>
        <time>2022-06-10T15:57:29Z</time>
      </trkpt>
      <trkpt lat="44.47957" lon="4.38074">
        <ele>146.1</ele>
        <time>2022-06-10T15:57:30Z</time>
      </trkpt>
      <trkpt lat="44.47952" lon="4.3807">
        <ele>146.1</ele>
        <time>2022-06-10T15:57:31Z</time>
      </trkpt>
      <trkpt lat="44.47947" lon="4.38066">
        <ele>146.1</ele>
        <time>2022-06-10T15:57:32Z</time>
      </trkpt>
      <trkpt lat="44.47942" lon="4.38062">
        <ele>146.1</ele>
        <time>2022-06-10T15:57:33Z</time>
      </trkpt>
      <trkpt lat="44.47937" lon="4.38058">
        <ele>146</ele>
        <time>2022-06-10T15:57:34Z</time>
      </trkpt>
      <trkpt lat="44.47932" lon="4.38053">
        <ele>146</ele>
        <time>2022-06-10T15:57:35Z</time>
      </trkpt>
      <trkpt lat="44.47927" lon="4.38049">
        <ele>146</ele>
        <time>2022-06-10T15:57:36Z</time>
      </trkpt>
      <trkpt lat="44.47922" lon="4.38046">
        <ele>146</ele>
        <time>2022-06-10T15:57:37Z</time>
      </trkpt>
      <trkpt lat="44.47916" lon="4.38041">
        <ele>145.9</ele>
        <time>2022-06-10T15:57:38Z</time>
      </trkpt>
      <trkpt lat="44.47911" lon="4.38037">
        <ele>145.9</ele>
        <time>2022-06-10T15:57:39Z</time>
      </trkpt>
      <trkpt lat="44.47906" lon="4.38032">
        <ele>145.9</ele>
        <time>2022-06-10T15:57:40Z</time>
      </trkpt>
      <trkpt lat="44.47902" lon="4.38028">
        <ele>145.9</ele>
        <time>2022-06-10T15:57:41Z</time>
      </trkpt>
      <trkpt lat="44.47897" lon="4.38023">
        <ele>145.8</ele>
        <time>2022-06-10T15:57:42Z</time>
      </trkpt>
      <trkpt lat="44.47892" lon="4.38019">
        <ele>145.8</ele>
        <time>2022-06-10T15:57:43Z</time>
      </trkpt>
      <trkpt lat="44.47887" lon="4.38014">
        <ele>145.8</ele>
        <time>2022-06-10T15:57:44Z</time>
      </trkpt>
      <trkpt lat="44.47882" lon="4.38009">
        <ele>145.8</ele>
        <time>2022-06-10T15:57:45Z</time>
      </trkpt>
      <trkpt lat="44.47878" lon="4.38005">
        <ele>145.7</ele>
        <time>2022-06-10T15:57:46Z</time>
      </trkpt>
      <trkpt lat="44.47873" lon="4.38">
        <ele>145.7</ele>
        <time>2022-06-10T15:57:47Z</time>
      </trkpt>
      <trkpt lat="44.47868" lon="4.37996">
        <ele>145.7</ele>
        <time>2022-06-10T15:57:48Z</time>
      </trkpt>
      <trkpt lat="44.47864" lon="4.37992">
        <ele>145.6</ele>
        <time>2022-06-10T15:57:49Z</time>
      </trkpt>
      <trkpt lat="44.4786" lon="4.37988">
        <ele>145.6</ele>
        <time>2022-06-10T15:57:50Z</time>
      </trkpt>
      <trkpt lat="44.47856" lon="4.37983">
        <ele>145.5</ele>
        <time>2022-06-10T15:57:51Z</time>
      </trkpt>
      <trkpt lat="44.47851" lon="4.37978">
        <ele>145.5</ele>
        <time>2022-06-10T15:57:52Z</time>
      </trkpt>
      <trkpt lat="44.47847" lon="4.37973">
        <ele>145.4</ele>
        <time>2022-06-10T15:57:53Z</time>
      </trkpt>
      <trkpt lat="44.47842" lon="4.37967">
        <ele>145.4</ele>
        <time>2022-06-10T15:57:54Z</time>
      </trkpt>
      <trkpt lat="44.47837" lon="4.37961">
        <ele>145.4</ele>
        <time>2022-06-10T15:57:55Z</time>
      </trkpt>
      <trkpt lat="44.47832" lon="4.37956">
        <ele>145.4</ele>
        <time>2022-06-10T15:57:56Z</time>
      </trkpt>
      <trkpt lat="44.47827" lon="4.3795">
        <ele>145.4</ele>
        <time>2022-06-10T15:57:57Z</time>
      </trkpt>
      <trkpt lat="44.47822" lon="4.37944">
        <ele>145.4</ele>
        <time>2022-06-10T15:57:58Z</time>
      </trkpt>
      <trkpt lat="44.47817" lon="4.37939">
        <ele>145.3</ele>
        <time>2022-06-10T15:57:59Z</time>
      </trkpt>
      <trkpt lat="44.47814" lon="4.37934">
        <ele>145.3</ele>
        <time>2022-06-10T15:58:00Z</time>
      </trkpt>
      <trkpt lat="44.47811" lon="4.37929">
        <ele>145.3</ele>
        <time>2022-06-10T15:58:01Z</time>
      </trkpt>
      <trkpt lat="44.47807" lon="4.37924">
        <ele>145.3</ele>
        <time>2022-06-10T15:58:02Z</time>
      </trkpt>
      <trkpt lat="44.47803" lon="4.37919">
        <ele>145.3</ele>
        <time>2022-06-10T15:58:03Z</time>
      </trkpt>
      <trkpt lat="44.47797" lon="4.37914">
        <ele>145.3</ele>
        <time>2022-06-10T15:58:04Z</time>
      </trkpt>
      <trkpt lat="44.47793" lon="4.37909">
        <ele>145.3</ele>
        <time>2022-06-10T15:58:05Z</time>
      </trkpt>
      <trkpt lat="44.47789" lon="4.37904">
        <ele>145.3</ele>
        <time>2022-06-10T15:58:06Z</time>
      </trkpt>
      <trkpt lat="44.47786" lon="4.379">
        <ele>145.3</ele>
        <time>2022-06-10T15:58:07Z</time>
      </trkpt>
      <trkpt lat="44.47782" lon="4.37896">
        <ele>145.2</ele>
        <time>2022-06-10T15:58:08Z</time>
      </trkpt>
      <trkpt lat="44.47778" lon="4.3789">
        <ele>145.2</ele>
        <time>2022-06-10T15:58:09Z</time>
      </trkpt>
      <trkpt lat="44.47774" lon="4.37884">
        <ele>145.2</ele>
        <time>2022-06-10T15:58:10Z</time>
      </trkpt>
      <trkpt lat="44.47769" lon="4.37878">
        <ele>145.1</ele>
        <time>2022-06-10T15:58:11Z</time>
      </trkpt>
      <trkpt lat="44.47764" lon="4.37871">
        <ele>145.1</ele>
        <time>2022-06-10T15:58:12Z</time>
      </trkpt>
      <trkpt lat="44.4776" lon="4.37865">
        <ele>145</ele>
        <time>2022-06-10T15:58:13Z</time>
      </trkpt>
      <trkpt lat="44.47756" lon="4.37859">
        <ele>145</ele>
        <time>2022-06-10T15:58:14Z</time>
      </trkpt>
      <trkpt lat="44.47752" lon="4.37852">
        <ele>144.9</ele>
        <time>2022-06-10T15:58:15Z</time>
      </trkpt>
      <trkpt lat="44.47748" lon="4.37846">
        <ele>144.9</ele>
        <time>2022-06-10T15:58:16Z</time>
      </trkpt>
      <trkpt lat="44.47744" lon="4.3784">
        <ele>144.9</ele>
        <time>2022-06-10T15:58:17Z</time>
      </trkpt>
      <trkpt lat="44.4774" lon="4.37833">
        <ele>144.9</ele>
        <time>2022-06-10T15:58:18Z</time>
      </trkpt>
      <trkpt lat="44.47737" lon="4.37827">
        <ele>144.8</ele>
        <time>2022-06-10T15:58:19Z</time>
      </trkpt>
      <trkpt lat="44.47732" lon="4.37821">
        <ele>144.8</ele>
        <time>2022-06-10T15:58:20Z</time>
      </trkpt>
      <trkpt lat="44.47728" lon="4.37814">
        <ele>144.8</ele>
        <time>2022-06-10T15:58:21Z</time>
      </trkpt>
      <trkpt lat="44.47724" lon="4.37809">
        <ele>144.8</ele>
        <time>2022-06-10T15:58:22Z</time>
      </trkpt>
      <trkpt lat="44.47721" lon="4.37803">
        <ele>144.7</ele>
        <time>2022-06-10T15:58:23Z</time>
      </trkpt>
      <trkpt lat="44.47717" lon="4.37796">
        <ele>144.7</ele>
        <time>2022-06-10T15:58:24Z</time>
      </trkpt>
      <trkpt lat="44.47713" lon="4.3779">
        <ele>144.7</ele>
        <time>2022-06-10T15:58:25Z</time>
      </trkpt>
      <trkpt lat="44.47709" lon="4.37783">
        <ele>144.6</ele>
        <time>2022-06-10T15:58:26Z</time>
      </trkpt>
      <trkpt lat="44.47705" lon="4.37777">
        <ele>144.6</ele>
        <time>2022-06-10T15:58:27Z</time>
      </trkpt>
      <trkpt lat="44.47701" lon="4.3777">
        <ele>144.5</ele>
        <time>2022-06-10T15:58:28Z</time>
      </trkpt>
      <trkpt lat="44.47698" lon="4.37763">
        <ele>144.5</ele>
        <time>2022-06-10T15:58:29Z</time>
      </trkpt>
      <trkpt lat="44.47694" lon="4.37757">
        <ele>144.5</ele>
        <time>2022-06-10T15:58:30Z</time>
      </trkpt>
      <trkpt lat="44.4769" lon="4.37749">
        <ele>144.5</ele>
        <time>2022-06-10T15:58:31Z</time>
      </trkpt>
      <trkpt lat="44.47686" lon="4.37743">
        <ele>144.4</ele>
        <time>2022-06-10T15:58:32Z</time>
      </trkpt>
      <trkpt lat="44.47682" lon="4.37736">
        <ele>144.4</ele>
        <time>2022-06-10T15:58:33Z</time>
      </trkpt>
      <trkpt lat="44.47678" lon="4.37729">
        <ele>144.3</ele>
        <time>2022-06-10T15:58:34Z</time>
      </trkpt>
      <trkpt lat="44.47675" lon="4.37723">
        <ele>144.2</ele>
        <time>2022-06-10T15:58:35Z</time>
      </trkpt>
      <trkpt lat="44.47671" lon="4.37716">
        <ele>144.2</ele>
        <time>2022-06-10T15:58:36Z</time>
      </trkpt>
      <trkpt lat="44.47668" lon="4.37709">
        <ele>144.1</ele>
        <time>2022-06-10T15:58:37Z</time>
      </trkpt>
      <trkpt lat="44.47664" lon="4.37702">
        <ele>144</ele>
        <time>2022-06-10T15:58:38Z</time>
      </trkpt>
      <trkpt lat="44.47661" lon="4.37696">
        <ele>144</ele>
        <time>2022-06-10T15:58:39Z</time>
      </trkpt>
      <trkpt lat="44.47658" lon="4.37689">
        <ele>143.9</ele>
        <time>2022-06-10T15:58:40Z</time>
      </trkpt>
      <trkpt lat="44.47655" lon="4.37682">
        <ele>143.9</ele>
        <time>2022-06-10T15:58:41Z</time>
      </trkpt>
      <trkpt lat="44.47652" lon="4.37675">
        <ele>143.8</ele>
        <time>2022-06-10T15:58:42Z</time>
      </trkpt>
      <trkpt lat="44.47649" lon="4.37667">
        <ele>143.8</ele>
        <time>2022-06-10T15:58:43Z</time>
      </trkpt>
      <trkpt lat="44.47646" lon="4.37659">
        <ele>143.7</ele>
        <time>2022-06-10T15:58:44Z</time>
      </trkpt>
      <trkpt lat="44.47643" lon="4.37651">
        <ele>143.7</ele>
        <time>2022-06-10T15:58:45Z</time>
      </trkpt>
      <trkpt lat="44.4764" lon="4.37642">
        <ele>143.7</ele>
        <time>2022-06-10T15:58:46Z</time>
      </trkpt>
      <trkpt lat="44.47637" lon="4.37633">
        <ele>143.6</ele>
        <time>2022-06-10T15:58:47Z</time>
      </trkpt>
      <trkpt lat="44.47634" lon="4.37625">
        <ele>143.6</ele>
        <time>2022-06-10T15:58:48Z</time>
      </trkpt>
      <trkpt lat="44.47632" lon="4.37616">
        <ele>143.5</ele>
        <time>2022-06-10T15:58:49Z</time>
      </trkpt>
      <trkpt lat="44.47629" lon="4.37607">
        <ele>143.5</ele>
        <time>2022-06-10T15:58:50Z</time>
      </trkpt>
      <trkpt lat="44.47626" lon="4.37599">
        <ele>143.4</ele>
        <time>2022-06-10T15:58:51Z</time>
      </trkpt>
      <trkpt lat="44.47623" lon="4.3759">
        <ele>143.4</ele>
        <time>2022-06-10T15:58:52Z</time>
      </trkpt>
      <trkpt lat="44.4762" lon="4.37581">
        <ele>143.3</ele>
        <time>2022-06-10T15:58:53Z</time>
      </trkpt>
      <trkpt lat="44.47618" lon="4.37572">
        <ele>143.3</ele>
        <time>2022-06-10T15:58:54Z</time>
      </trkpt>
      <trkpt lat="44.47615" lon="4.37563">
        <ele>143.3</ele>
        <time>2022-06-10T15:58:55Z</time>
      </trkpt>
      <trkpt lat="44.47613" lon="4.37554">
        <ele>143.2</ele>
        <time>2022-06-10T15:58:56Z</time>
      </trkpt>
      <trkpt lat="44.47611" lon="4.37545">
        <ele>143.2</ele>
        <time>2022-06-10T15:58:57Z</time>
      </trkpt>
      <trkpt lat="44.47609" lon="4.37536">
        <ele>143.2</ele>
        <time>2022-06-10T15:58:58Z</time>
      </trkpt>
      <trkpt lat="44.47607" lon="4.37528">
        <ele>143.2</ele>
        <time>2022-06-10T15:58:59Z</time>
      </trkpt>
      <trkpt lat="44.47605" lon="4.37519">
        <ele>143.1</ele>
        <time>2022-06-10T15:59:00Z</time>
      </trkpt>
      <trkpt lat="44.47603" lon="4.3751">
        <ele>143.1</ele>
        <time>2022-06-10T15:59:01Z</time>
      </trkpt>
      <trkpt lat="44.47602" lon="4.37502">
        <ele>143.1</ele>
        <time>2022-06-10T15:59:02Z</time>
      </trkpt>
      <trkpt lat="44.476" lon="4.37493">
        <ele>143</ele>
        <time>2022-06-10T15:59:03Z</time>
      </trkpt>
      <trkpt lat="44.47599" lon="4.37484">
        <ele>143</ele>
        <time>2022-06-10T15:59:04Z</time>
      </trkpt>
      <trkpt lat="44.47598" lon="4.37475">
        <ele>143</ele>
        <time>2022-06-10T15:59:05Z</time>
      </trkpt>
      <trkpt lat="44.47597" lon="4.37466">
        <ele>142.9</ele>
        <time>2022-06-10T15:59:06Z</time>
      </trkpt>
      <trkpt lat="44.47596" lon="4.37458">
        <ele>142.9</ele>
        <time>2022-06-10T15:59:07Z</time>
      </trkpt>
      <trkpt lat="44.47595" lon="4.37449">
        <ele>142.9</ele>
        <time>2022-06-10T15:59:08Z</time>
      </trkpt>
      <trkpt lat="44.47594" lon="4.37441">
        <ele>142.8</ele>
        <time>2022-06-10T15:59:09Z</time>
      </trkpt>
      <trkpt lat="44.47594" lon="4.37432">
        <ele>142.8</ele>
        <time>2022-06-10T15:59:10Z</time>
      </trkpt>
      <trkpt lat="44.47593" lon="4.37424">
        <ele>142.7</ele>
        <time>2022-06-10T15:59:11Z</time>
      </trkpt>
      <trkpt lat="44.47592" lon="4.37415">
        <ele>142.7</ele>
        <time>2022-06-10T15:59:12Z</time>
      </trkpt>
      <trkpt lat="44.47591" lon="4.37407">
        <ele>142.7</ele>
        <time>2022-06-10T15:59:13Z</time>
      </trkpt>
      <trkpt lat="44.4759" lon="4.37398">
        <ele>142.7</ele>
        <time>2022-06-10T15:59:14Z</time>
      </trkpt>
      <trkpt lat="44.4759" lon="4.3739">
        <ele>142.7</ele>
        <time>2022-06-10T15:59:15Z</time>
      </trkpt>
      <trkpt lat="44.47589" lon="4.37381">
        <ele>142.6</ele>
        <time>2022-06-10T15:59:16Z</time>
      </trkpt>
      <trkpt lat="44.47589" lon="4.37373">
        <ele>142.6</ele>
        <time>2022-06-10T15:59:17Z</time>
      </trkpt>
      <trkpt lat="44.47588" lon="4.37364">
        <ele>142.6</ele>
        <time>2022-06-10T15:59:18Z</time>
      </trkpt>
      <trkpt lat="44.47588" lon="4.37355">
        <ele>142.6</ele>
        <time>2022-06-10T15:59:19Z</time>
      </trkpt>
      <trkpt lat="44.47588" lon="4.37347">
        <ele>142.6</ele>
        <time>2022-06-10T15:59:20Z</time>
      </trkpt>
      <trkpt lat="44.47588" lon="4.37338">
        <ele>142.6</ele>
        <time>2022-06-10T15:59:21Z</time>
      </trkpt>
      <trkpt lat="44.47588" lon="4.3733">
        <ele>142.5</ele>
        <time>2022-06-10T15:59:22Z</time>
      </trkpt>
      <trkpt lat="44.47589" lon="4.37323">
        <ele>142.5</ele>
        <time>2022-06-10T15:59:23Z</time>
      </trkpt>
      <trkpt lat="44.47589" lon="4.37315">
        <ele>142.5</ele>
        <time>2022-06-10T15:59:24Z</time>
      </trkpt>
      <trkpt lat="44.47588" lon="4.37307">
        <ele>142.4</ele>
        <time>2022-06-10T15:59:25Z</time>
      </trkpt>
      <trkpt lat="44.47588" lon="4.37298">
        <ele>142.4</ele>
        <time>2022-06-10T15:59:26Z</time>
      </trkpt>
      <trkpt lat="44.47588" lon="4.3729">
        <ele>142.4</ele>
        <time>2022-06-10T15:59:27Z</time>
      </trkpt>
      <trkpt lat="44.47588" lon="4.37282">
        <ele>142.3</ele>
        <time>2022-06-10T15:59:28Z</time>
      </trkpt>
      <trkpt lat="44.47588" lon="4.37275">
        <ele>142.3</ele>
        <time>2022-06-10T15:59:29Z</time>
      </trkpt>
      <trkpt lat="44.47589" lon="4.37267">
        <ele>142.3</ele>
        <time>2022-06-10T15:59:30Z</time>
      </trkpt>
      <trkpt lat="44.4759" lon="4.37258">
        <ele>142.3</ele>
        <time>2022-06-10T15:59:31Z</time>
      </trkpt>
      <trkpt lat="44.4759" lon="4.3725">
        <ele>142.2</ele>
        <time>2022-06-10T15:59:32Z</time>
      </trkpt>
      <trkpt lat="44.47591" lon="4.37242">
        <ele>142.2</ele>
        <time>2022-06-10T15:59:33Z</time>
      </trkpt>
      <trkpt lat="44.47591" lon="4.37233">
        <ele>142.2</ele>
        <time>2022-06-10T15:59:34Z</time>
      </trkpt>
      <trkpt lat="44.47592" lon="4.37225">
        <ele>142.1</ele>
        <time>2022-06-10T15:59:35Z</time>
      </trkpt>
      <trkpt lat="44.47592" lon="4.37217">
        <ele>142.1</ele>
        <time>2022-06-10T15:59:36Z</time>
      </trkpt>
      <trkpt lat="44.47593" lon="4.37209">
        <ele>142.1</ele>
        <time>2022-06-10T15:59:37Z</time>
      </trkpt>
      <trkpt lat="44.47593" lon="4.37201">
        <ele>142.1</ele>
        <time>2022-06-10T15:59:38Z</time>
      </trkpt>
      <trkpt lat="44.47594" lon="4.37193">
        <ele>142</ele>
        <time>2022-06-10T15:59:39Z</time>
      </trkpt>
      <trkpt lat="44.47594" lon="4.37185">
        <ele>142</ele>
        <time>2022-06-10T15:59:40Z</time>
      </trkpt>
      <trkpt lat="44.47594" lon="4.37176">
        <ele>142</ele>
        <time>2022-06-10T15:59:41Z</time>
      </trkpt>
      <trkpt lat="44.47595" lon="4.37168">
        <ele>142</ele>
        <time>2022-06-10T15:59:42Z</time>
      </trkpt>
      <trkpt lat="44.47596" lon="4.37159">
        <ele>142</ele>
        <time>2022-06-10T15:59:43Z</time>
      </trkpt>
      <trkpt lat="44.47597" lon="4.37151">
        <ele>141.9</ele>
        <time>2022-06-10T15:59:44Z</time>
      </trkpt>
      <trkpt lat="44.47597" lon="4.37143">
        <ele>141.8</ele>
        <time>2022-06-10T15:59:45Z</time>
      </trkpt>
      <trkpt lat="44.47598" lon="4.37135">
        <ele>141.7</ele>
        <time>2022-06-10T15:59:46Z</time>
      </trkpt>
      <trkpt lat="44.47599" lon="4.37127">
        <ele>141.7</ele>
        <time>2022-06-10T15:59:47Z</time>
      </trkpt>
      <trkpt lat="44.47599" lon="4.37118">
        <ele>141.6</ele>
        <time>2022-06-10T15:59:48Z</time>
      </trkpt>
      <trkpt lat="44.47599" lon="4.3711">
        <ele>141.5</ele>
        <time>2022-06-10T15:59:49Z</time>
      </trkpt>
      <trkpt lat="44.476" lon="4.37101">
        <ele>141.4</ele>
        <time>2022-06-10T15:59:50Z</time>
      </trkpt>
      <trkpt lat="44.476" lon="4.37093">
        <ele>141.4</ele>
        <time>2022-06-10T15:59:51Z</time>
      </trkpt>
      <trkpt lat="44.47601" lon="4.37085">
        <ele>141.3</ele>
        <time>2022-06-10T15:59:52Z</time>
      </trkpt>
      <trkpt lat="44.47601" lon="4.37076">
        <ele>141.3</ele>
        <time>2022-06-10T15:59:53Z</time>
      </trkpt>
      <trkpt lat="44.47602" lon="4.37068">
        <ele>141.3</ele>
        <time>2022-06-10T15:59:54Z</time>
      </trkpt>
      <trkpt lat="44.47603" lon="4.3706">
        <ele>141.2</ele>
        <time>2022-06-10T15:59:55Z</time>
      </trkpt>
      <trkpt lat="44.47603" lon="4.37051">
        <ele>141.2</ele>
        <time>2022-06-10T15:59:56Z</time>
      </trkpt>
      <trkpt lat="44.47604" lon="4.37043">
        <ele>141.1</ele>
        <time>2022-06-10T15:59:57Z</time>
      </trkpt>
      <trkpt lat="44.47605" lon="4.37035">
        <ele>141.1</ele>
        <time>2022-06-10T15:59:58Z</time>
      </trkpt>
      <trkpt lat="44.47605" lon="4.37026">
        <ele>141</ele>
        <time>2022-06-10T15:59:59Z</time>
      </trkpt>
      <trkpt lat="44.47606" lon="4.37018">
        <ele>141</ele>
        <time>2022-06-10T16:00:00Z</time>
      </trkpt>
      <trkpt lat="44.47607" lon="4.37009">
        <ele>140.9</ele>
        <time>2022-06-10T16:00:01Z</time>
      </trkpt>
      <trkpt lat="44.47607" lon="4.37001">
        <ele>140.9</ele>
        <time>2022-06-10T16:00:02Z</time>
      </trkpt>
      <trkpt lat="44.47608" lon="4.36992">
        <ele>140.9</ele>
        <time>2022-06-10T16:00:03Z</time>
      </trkpt>
      <trkpt lat="44.47608" lon="4.36984">
        <ele>140.8</ele>
        <time>2022-06-10T16:00:04Z</time>
      </trkpt>
      <trkpt lat="44.47608" lon="4.36975">
        <ele>140.8</ele>
        <time>2022-06-10T16:00:05Z</time>
      </trkpt>
      <trkpt lat="44.47607" lon="4.36966">
        <ele>140.7</ele>
        <time>2022-06-10T16:00:06Z</time>
      </trkpt>
      <trkpt lat="44.47607" lon="4.36958">
        <ele>140.7</ele>
        <time>2022-06-10T16:00:07Z</time>
      </trkpt>
      <trkpt lat="44.47607" lon="4.36949">
        <ele>140.7</ele>
        <time>2022-06-10T16:00:08Z</time>
      </trkpt>
      <trkpt lat="44.47606" lon="4.36941">
        <ele>140.6</ele>
        <time>2022-06-10T16:00:09Z</time>
      </trkpt>
      <trkpt lat="44.47606" lon="4.36933">
        <ele>140.6</ele>
        <time>2022-06-10T16:00:10Z</time>
      </trkpt>
      <trkpt lat="44.47605" lon="4.36925">
        <ele>140.6</ele>
        <time>2022-06-10T16:00:11Z</time>
      </trkpt>
      <trkpt lat="44.47605" lon="4.36917">
        <ele>140.6</ele>
        <time>2022-06-10T16:00:12Z</time>
      </trkpt>
      <trkpt lat="44.47604" lon="4.36908">
        <ele>140.6</ele>
        <time>2022-06-10T16:00:13Z</time>
      </trkpt>
      <trkpt lat="44.47605" lon="4.369">
        <ele>140.6</ele>
        <time>2022-06-10T16:00:14Z</time>
      </trkpt>
      <trkpt lat="44.47605" lon="4.36891">
        <ele>140.6</ele>
        <time>2022-06-10T16:00:15Z</time>
      </trkpt>
      <trkpt lat="44.47604" lon="4.36882">
        <ele>140.6</ele>
        <time>2022-06-10T16:00:16Z</time>
      </trkpt>
      <trkpt lat="44.47603" lon="4.36873">
        <ele>140.6</ele>
        <time>2022-06-10T16:00:17Z</time>
      </trkpt>
      <trkpt lat="44.47602" lon="4.36865">
        <ele>140.6</ele>
        <time>2022-06-10T16:00:18Z</time>
      </trkpt>
      <trkpt lat="44.47602" lon="4.36857">
        <ele>140.6</ele>
        <time>2022-06-10T16:00:19Z</time>
      </trkpt>
      <trkpt lat="44.47601" lon="4.36848">
        <ele>140.6</ele>
        <time>2022-06-10T16:00:20Z</time>
      </trkpt>
      <trkpt lat="44.476" lon="4.3684">
        <ele>140.5</ele>
        <time>2022-06-10T16:00:21Z</time>
      </trkpt>
      <trkpt lat="44.47599" lon="4.36831">
        <ele>140.5</ele>
        <time>2022-06-10T16:00:22Z</time>
      </trkpt>
      <trkpt lat="44.47598" lon="4.36823">
        <ele>140.5</ele>
        <time>2022-06-10T16:00:23Z</time>
      </trkpt>
      <trkpt lat="44.47597" lon="4.36814">
        <ele>140.4</ele>
        <time>2022-06-10T16:00:24Z</time>
      </trkpt>
      <trkpt lat="44.47596" lon="4.36806">
        <ele>140.4</ele>
        <time>2022-06-10T16:00:25Z</time>
      </trkpt>
      <trkpt lat="44.47596" lon="4.36797">
        <ele>140.4</ele>
        <time>2022-06-10T16:00:26Z</time>
      </trkpt>
      <trkpt lat="44.47595" lon="4.36789">
        <ele>140.3</ele>
        <time>2022-06-10T16:00:27Z</time>
      </trkpt>
      <trkpt lat="44.47593" lon="4.36781">
        <ele>140.3</ele>
        <time>2022-06-10T16:00:28Z</time>
      </trkpt>
      <trkpt lat="44.47592" lon="4.36773">
        <ele>140.3</ele>
        <time>2022-06-10T16:00:29Z</time>
      </trkpt>
      <trkpt lat="44.4759" lon="4.36764">
        <ele>140.2</ele>
        <time>2022-06-10T16:00:30Z</time>
      </trkpt>
      <trkpt lat="44.47589" lon="4.36755">
        <ele>140.2</ele>
        <time>2022-06-10T16:00:31Z</time>
      </trkpt>
      <trkpt lat="44.47588" lon="4.36747">
        <ele>140.2</ele>
        <time>2022-06-10T16:00:32Z</time>
      </trkpt>
      <trkpt lat="44.47587" lon="4.36739">
        <ele>140.1</ele>
        <time>2022-06-10T16:00:33Z</time>
      </trkpt>
      <trkpt lat="44.47586" lon="4.36731">
        <ele>140.1</ele>
        <time>2022-06-10T16:00:34Z</time>
      </trkpt>
      <trkpt lat="44.47584" lon="4.36722">
        <ele>140</ele>
        <time>2022-06-10T16:00:35Z</time>
      </trkpt>
      <trkpt lat="44.47583" lon="4.36714">
        <ele>140</ele>
        <time>2022-06-10T16:00:36Z</time>
      </trkpt>
      <trkpt lat="44.47582" lon="4.36706">
        <ele>139.9</ele>
        <time>2022-06-10T16:00:37Z</time>
      </trkpt>
      <trkpt lat="44.4758" lon="4.36697">
        <ele>139.9</ele>
        <time>2022-06-10T16:00:38Z</time>
      </trkpt>
      <trkpt lat="44.47579" lon="4.36689">
        <ele>139.9</ele>
        <time>2022-06-10T16:00:39Z</time>
      </trkpt>
      <trkpt lat="44.47577" lon="4.36681">
        <ele>139.8</ele>
        <time>2022-06-10T16:00:40Z</time>
      </trkpt>
      <trkpt lat="44.47576" lon="4.36673">
        <ele>139.8</ele>
        <time>2022-06-10T16:00:41Z</time>
      </trkpt>
      <trkpt lat="44.47575" lon="4.36666">
        <ele>139.8</ele>
        <time>2022-06-10T16:00:42Z</time>
      </trkpt>
      <trkpt lat="44.47573" lon="4.36659">
        <ele>139.8</ele>
        <time>2022-06-10T16:00:43Z</time>
      </trkpt>
      <trkpt lat="44.47571" lon="4.36651">
        <ele>139.8</ele>
        <time>2022-06-10T16:00:44Z</time>
      </trkpt>
      <trkpt lat="44.4757" lon="4.36644">
        <ele>139.7</ele>
        <time>2022-06-10T16:00:45Z</time>
      </trkpt>
      <trkpt lat="44.47568" lon="4.36637">
        <ele>139.7</ele>
        <time>2022-06-10T16:00:46Z</time>
      </trkpt>
      <trkpt lat="44.47566" lon="4.36629">
        <ele>139.7</ele>
        <time>2022-06-10T16:00:47Z</time>
      </trkpt>
      <trkpt lat="44.47565" lon="4.36621">
        <ele>139.7</ele>
        <time>2022-06-10T16:00:48Z</time>
      </trkpt>
      <trkpt lat="44.47563" lon="4.36614">
        <ele>139.7</ele>
        <time>2022-06-10T16:00:49Z</time>
      </trkpt>
      <trkpt lat="44.47561" lon="4.36607">
        <ele>139.6</ele>
        <time>2022-06-10T16:00:50Z</time>
      </trkpt>
      <trkpt lat="44.47559" lon="4.366">
        <ele>139.6</ele>
        <time>2022-06-10T16:00:51Z</time>
      </trkpt>
      <trkpt lat="44.47557" lon="4.36592">
        <ele>139.6</ele>
        <time>2022-06-10T16:00:52Z</time>
      </trkpt>
      <trkpt lat="44.47555" lon="4.36585">
        <ele>139.6</ele>
        <time>2022-06-10T16:00:53Z</time>
      </trkpt>
      <trkpt lat="44.47553" lon="4.36577">
        <ele>139.5</ele>
        <time>2022-06-10T16:00:54Z</time>
      </trkpt>
      <trkpt lat="44.47551" lon="4.3657">
        <ele>139.5</ele>
        <time>2022-06-10T16:00:55Z</time>
      </trkpt>
      <trkpt lat="44.47548" lon="4.36563">
        <ele>139.5</ele>
        <time>2022-06-10T16:00:56Z</time>
      </trkpt>
      <trkpt lat="44.47547" lon="4.36556">
        <ele>139.5</ele>
        <time>2022-06-10T16:00:57Z</time>
      </trkpt>
      <trkpt lat="44.47545" lon="4.36549">
        <ele>139.5</ele>
        <time>2022-06-10T16:00:58Z</time>
      </trkpt>
      <trkpt lat="44.47542" lon="4.36542">
        <ele>139.4</ele>
        <time>2022-06-10T16:00:59Z</time>
      </trkpt>
      <trkpt lat="44.4754" lon="4.36535">
        <ele>139.4</ele>
        <time>2022-06-10T16:01:00Z</time>
      </trkpt>
      <trkpt lat="44.47538" lon="4.36528">
        <ele>139.4</ele>
        <time>2022-06-10T16:01:01Z</time>
      </trkpt>
      <trkpt lat="44.47536" lon="4.3652">
        <ele>139.4</ele>
        <time>2022-06-10T16:01:02Z</time>
      </trkpt>
      <trkpt lat="44.47533" lon="4.36513">
        <ele>139.4</ele>
        <time>2022-06-10T16:01:03Z</time>
      </trkpt>
      <trkpt lat="44.47531" lon="4.36506">
        <ele>139.4</ele>
        <time>2022-06-10T16:01:04Z</time>
      </trkpt>
      <trkpt lat="44.47529" lon="4.36499">
        <ele>139.3</ele>
        <time>2022-06-10T16:01:05Z</time>
      </trkpt>
      <trkpt lat="44.47526" lon="4.36492">
        <ele>139.3</ele>
        <time>2022-06-10T16:01:06Z</time>
      </trkpt>
      <trkpt lat="44.47523" lon="4.36484">
        <ele>139.3</ele>
        <time>2022-06-10T16:01:07Z</time>
      </trkpt>
      <trkpt lat="44.47521" lon="4.36477">
        <ele>139.3</ele>
        <time>2022-06-10T16:01:08Z</time>
      </trkpt>
      <trkpt lat="44.47518" lon="4.36471">
        <ele>139.3</ele>
        <time>2022-06-10T16:01:09Z</time>
      </trkpt>
      <trkpt lat="44.47516" lon="4.36464">
        <ele>139.3</ele>
        <time>2022-06-10T16:01:10Z</time>
      </trkpt>
      <trkpt lat="44.47514" lon="4.36457">
        <ele>139.3</ele>
        <time>2022-06-10T16:01:11Z</time>
      </trkpt>
      <trkpt lat="44.47511" lon="4.3645">
        <ele>139.3</ele>
        <time>2022-06-10T16:01:12Z</time>
      </trkpt>
      <trkpt lat="44.47508" lon="4.36442">
        <ele>139.3</ele>
        <time>2022-06-10T16:01:13Z</time>
      </trkpt>
      <trkpt lat="44.47506" lon="4.36436">
        <ele>139.3</ele>
        <time>2022-06-10T16:01:14Z</time>
      </trkpt>
      <trkpt lat="44.47504" lon="4.36429">
        <ele>139.3</ele>
        <time>2022-06-10T16:01:15Z</time>
      </trkpt>
      <trkpt lat="44.47501" lon="4.36422">
        <ele>139.3</ele>
        <time>2022-06-10T16:01:16Z</time>
      </trkpt>
      <trkpt lat="44.47498" lon="4.36415">
        <ele>139.3</ele>
        <time>2022-06-10T16:01:17Z</time>
      </trkpt>
      <trkpt lat="44.47496" lon="4.36408">
        <ele>139.3</ele>
        <time>2022-06-10T16:01:18Z</time>
      </trkpt>
      <trkpt lat="44.47493" lon="4.36401">
        <ele>139.4</ele>
        <time>2022-06-10T16:01:19Z</time>
      </trkpt>
      <trkpt lat="44.4749" lon="4.36394">
        <ele>139.4</ele>
        <time>2022-06-10T16:01:20Z</time>
      </trkpt>
      <trkpt lat="44.47488" lon="4.36388">
        <ele>139.4</ele>
        <time>2022-06-10T16:01:21Z</time>
      </trkpt>
      <trkpt lat="44.47486" lon="4.36381">
        <ele>139.4</ele>
        <time>2022-06-10T16:01:22Z</time>
      </trkpt>
      <trkpt lat="44.47483" lon="4.36376">
        <ele>139.4</ele>
        <time>2022-06-10T16:01:23Z</time>
      </trkpt>
      <trkpt lat="44.47481" lon="4.36371">
        <ele>139.4</ele>
        <time>2022-06-10T16:01:24Z</time>
      </trkpt>
      <trkpt lat="44.4748" lon="4.36368">
        <ele>139.3</ele>
        <time>2022-06-10T16:01:25Z</time>
      </trkpt>
      <trkpt lat="44.47478" lon="4.36361">
        <ele>139.2</ele>
        <time>2022-06-10T16:01:26Z</time>
      </trkpt>
      <trkpt lat="44.47475" lon="4.36355">
        <ele>139.2</ele>
        <time>2022-06-10T16:01:27Z</time>
      </trkpt>
      <trkpt lat="44.47472" lon="4.36348">
        <ele>139.1</ele>
        <time>2022-06-10T16:01:28Z</time>
      </trkpt>
      <trkpt lat="44.4747" lon="4.36341">
        <ele>139.1</ele>
        <time>2022-06-10T16:01:29Z</time>
      </trkpt>
      <trkpt lat="44.47467" lon="4.36334">
        <ele>139</ele>
        <time>2022-06-10T16:01:30Z</time>
      </trkpt>
      <trkpt lat="44.47465" lon="4.36327">
        <ele>139</ele>
        <time>2022-06-10T16:01:31Z</time>
      </trkpt>
      <trkpt lat="44.47462" lon="4.36321">
        <ele>139</ele>
        <time>2022-06-10T16:01:32Z</time>
      </trkpt>
      <trkpt lat="44.4746" lon="4.36315">
        <ele>138.9</ele>
        <time>2022-06-10T16:01:33Z</time>
      </trkpt>
      <trkpt lat="44.47457" lon="4.36308">
        <ele>138.9</ele>
        <time>2022-06-10T16:01:34Z</time>
      </trkpt>
      <trkpt lat="44.47454" lon="4.36301">
        <ele>138.9</ele>
        <time>2022-06-10T16:01:35Z</time>
      </trkpt>
      <trkpt lat="44.47452" lon="4.36294">
        <ele>138.9</ele>
        <time>2022-06-10T16:01:36Z</time>
      </trkpt>
      <trkpt lat="44.47449" lon="4.36287">
        <ele>138.9</ele>
        <time>2022-06-10T16:01:37Z</time>
      </trkpt>
      <trkpt lat="44.47446" lon="4.36281">
        <ele>138.9</ele>
        <time>2022-06-10T16:01:38Z</time>
      </trkpt>
      <trkpt lat="44.47443" lon="4.36274">
        <ele>138.9</ele>
        <time>2022-06-10T16:01:39Z</time>
      </trkpt>
      <trkpt lat="44.4744" lon="4.36267">
        <ele>139</ele>
        <time>2022-06-10T16:01:40Z</time>
      </trkpt>
      <trkpt lat="44.47438" lon="4.3626">
        <ele>139</ele>
        <time>2022-06-10T16:01:41Z</time>
      </trkpt>
      <trkpt lat="44.47435" lon="4.36253">
        <ele>139</ele>
        <time>2022-06-10T16:01:42Z</time>
      </trkpt>
      <trkpt lat="44.47433" lon="4.36247">
        <ele>139</ele>
        <time>2022-06-10T16:01:43Z</time>
      </trkpt>
      <trkpt lat="44.4743" lon="4.3624">
        <ele>139</ele>
        <time>2022-06-10T16:01:44Z</time>
      </trkpt>
      <trkpt lat="44.47427" lon="4.36233">
        <ele>139</ele>
        <time>2022-06-10T16:01:45Z</time>
      </trkpt>
      <trkpt lat="44.47425" lon="4.36226">
        <ele>139</ele>
        <time>2022-06-10T16:01:46Z</time>
      </trkpt>
      <trkpt lat="44.47422" lon="4.36219">
        <ele>139.1</ele>
        <time>2022-06-10T16:01:47Z</time>
      </trkpt>
      <trkpt lat="44.4742" lon="4.36213">
        <ele>139.1</ele>
        <time>2022-06-10T16:01:48Z</time>
      </trkpt>
      <trkpt lat="44.47417" lon="4.36205">
        <ele>139.1</ele>
        <time>2022-06-10T16:01:49Z</time>
      </trkpt>
      <trkpt lat="44.47415" lon="4.36198">
        <ele>139.1</ele>
        <time>2022-06-10T16:01:50Z</time>
      </trkpt>
      <trkpt lat="44.47413" lon="4.36192">
        <ele>139.1</ele>
        <time>2022-06-10T16:01:51Z</time>
      </trkpt>
      <trkpt lat="44.47411" lon="4.36185">
        <ele>139.2</ele>
        <time>2022-06-10T16:01:52Z</time>
      </trkpt>
      <trkpt lat="44.47408" lon="4.36179">
        <ele>139.1</ele>
        <time>2022-06-10T16:01:53Z</time>
      </trkpt>
      <trkpt lat="44.47406" lon="4.36173">
        <ele>139.1</ele>
        <time>2022-06-10T16:01:54Z</time>
      </trkpt>
      <trkpt lat="44.47403" lon="4.36167">
        <ele>139.1</ele>
        <time>2022-06-10T16:01:55Z</time>
      </trkpt>
      <trkpt lat="44.47401" lon="4.3616">
        <ele>139.1</ele>
        <time>2022-06-10T16:01:56Z</time>
      </trkpt>
      <trkpt lat="44.47398" lon="4.36154">
        <ele>139.1</ele>
        <time>2022-06-10T16:01:57Z</time>
      </trkpt>
      <trkpt lat="44.47396" lon="4.36148">
        <ele>139</ele>
        <time>2022-06-10T16:01:58Z</time>
      </trkpt>
      <trkpt lat="44.47393" lon="4.36141">
        <ele>139</ele>
        <time>2022-06-10T16:01:59Z</time>
      </trkpt>
      <trkpt lat="44.4739" lon="4.36135">
        <ele>139</ele>
        <time>2022-06-10T16:02:00Z</time>
      </trkpt>
      <trkpt lat="44.47387" lon="4.36128">
        <ele>139</ele>
        <time>2022-06-10T16:02:01Z</time>
      </trkpt>
      <trkpt lat="44.47384" lon="4.36121">
        <ele>138.9</ele>
        <time>2022-06-10T16:02:02Z</time>
      </trkpt>
      <trkpt lat="44.47382" lon="4.36115">
        <ele>138.9</ele>
        <time>2022-06-10T16:02:03Z</time>
      </trkpt>
      <trkpt lat="44.47379" lon="4.36108">
        <ele>138.9</ele>
        <time>2022-06-10T16:02:04Z</time>
      </trkpt>
      <trkpt lat="44.47377" lon="4.36101">
        <ele>138.9</ele>
        <time>2022-06-10T16:02:05Z</time>
      </trkpt>
      <trkpt lat="44.47374" lon="4.36095">
        <ele>138.9</ele>
        <time>2022-06-10T16:02:06Z</time>
      </trkpt>
      <trkpt lat="44.47372" lon="4.36088">
        <ele>138.9</ele>
        <time>2022-06-10T16:02:07Z</time>
      </trkpt>
      <trkpt lat="44.47369" lon="4.36081">
        <ele>138.8</ele>
        <time>2022-06-10T16:02:08Z</time>
      </trkpt>
      <trkpt lat="44.47367" lon="4.36074">
        <ele>138.8</ele>
        <time>2022-06-10T16:02:09Z</time>
      </trkpt>
      <trkpt lat="44.47364" lon="4.36067">
        <ele>138.8</ele>
        <time>2022-06-10T16:02:10Z</time>
      </trkpt>
      <trkpt lat="44.47361" lon="4.3606">
        <ele>138.8</ele>
        <time>2022-06-10T16:02:11Z</time>
      </trkpt>
      <trkpt lat="44.47359" lon="4.36054">
        <ele>138.8</ele>
        <time>2022-06-10T16:02:12Z</time>
      </trkpt>
      <trkpt lat="44.47357" lon="4.36049">
        <ele>138.8</ele>
        <time>2022-06-10T16:02:13Z</time>
      </trkpt>
      <trkpt lat="44.47355" lon="4.36044">
        <ele>138.7</ele>
        <time>2022-06-10T16:02:14Z</time>
      </trkpt>
      <trkpt lat="44.47354" lon="4.36042">
        <ele>138.7</ele>
        <time>2022-06-10T16:02:15Z</time>
      </trkpt>
      <trkpt lat="44.47353" lon="4.36039">
        <ele>138.7</ele>
        <time>2022-06-10T16:02:16Z</time>
      </trkpt>
      <trkpt lat="44.47352" lon="4.36034">
        <ele>138.7</ele>
        <time>2022-06-10T16:02:17Z</time>
      </trkpt>
      <trkpt lat="44.47352" lon="4.36033">
        <ele>138.7</ele>
        <time>2022-06-10T16:02:18Z</time>
      </trkpt>
      <trkpt lat="44.47352" lon="4.36031">
        <ele>138.7</ele>
        <time>2022-06-10T16:02:19Z</time>
      </trkpt>
      <trkpt lat="44.47351" lon="4.3603">
        <ele>138.7</ele>
        <time>2022-06-10T16:02:20Z</time>
      </trkpt>
      <trkpt lat="44.47351" lon="4.3603">
        <ele>138.7</ele>
        <time>2022-06-10T16:02:21Z</time>
      </trkpt>
      <trkpt lat="44.47351" lon="4.36029">
        <ele>138.7</ele>
        <time>2022-06-10T16:02:22Z</time>
      </trkpt>
      <trkpt lat="44.47351" lon="4.36029">
        <ele>138.7</ele>
        <time>2022-06-10T16:02:23Z</time>
      </trkpt>
      <trkpt lat="44.4735" lon="4.36029">
        <ele>138.7</ele>
        <time>2022-06-10T16:02:24Z</time>
      </trkpt>
      <trkpt lat="44.4735" lon="4.36028">
        <ele>138.7</ele>
        <time>2022-06-10T16:02:25Z</time>
      </trkpt>
      <trkpt lat="44.4735" lon="4.36028">
        <ele>138.7</ele>
        <time>2022-06-10T16:02:26Z</time>
      </trkpt>
      <trkpt lat="44.4735" lon="4.36028">
        <ele>138.7</ele>
        <time>2022-06-10T16:02:27Z</time>
      </trkpt>
      <trkpt lat="44.4735" lon="4.36027">
        <ele>138.7</ele>
        <time>2022-06-10T16:02:28Z</time>
      </trkpt>
      <trkpt lat="44.47349" lon="4.36027">
        <ele>138.7</ele>
        <time>2022-06-10T16:02:29Z</time>
      </trkpt>
      <trkpt lat="44.47349" lon="4.36026">
        <ele>138.7</ele>
        <time>2022-06-10T16:02:30Z</time>
      </trkpt>
      <trkpt lat="44.47349" lon="4.36026">
        <ele>138.7</ele>
        <time>2022-06-10T16:02:31Z</time>
      </trkpt>
      <trkpt lat="44.47349" lon="4.36026">
        <ele>138.6</ele>
        <time>2022-06-10T16:02:32Z</time>
      </trkpt>
      <trkpt lat="44.47348" lon="4.36025">
        <ele>138.6</ele>
        <time>2022-06-10T16:02:33Z</time>
      </trkpt>
      <trkpt lat="44.47348" lon="4.36025">
        <ele>138.6</ele>
        <time>2022-06-10T16:02:34Z</time>
      </trkpt>
      <trkpt lat="44.47348" lon="4.36025">
        <ele>138.6</ele>
        <time>2022-06-10T16:02:35Z</time>
      </trkpt>
      <trkpt lat="44.47348" lon="4.36024">
        <ele>138.6</ele>
        <time>2022-06-10T16:02:36Z</time>
      </trkpt>
      <trkpt lat="44.47347" lon="4.36024">
        <ele>138.6</ele>
        <time>2022-06-10T16:02:37Z</time>
      </trkpt>
      <trkpt lat="44.47347" lon="4.36024">
        <ele>138.6</ele>
        <time>2022-06-10T16:02:38Z</time>
      </trkpt>
      <trkpt lat="44.47347" lon="4.36023">
        <ele>138.6</ele>
        <time>2022-06-10T16:05:38Z</time>
      </trkpt>
      <trkpt lat="44.47347" lon="4.36023">
        <ele>138.6</ele>
        <time>2022-06-10T16:05:39Z</time>
      </trkpt>
      <trkpt lat="44.47344" lon="4.36018">
        <ele>138.6</ele>
        <time>2022-06-10T16:05:41Z</time>
      </trkpt>
      <trkpt lat="44.47342" lon="4.36012">
        <ele>138.5</ele>
        <time>2022-06-10T16:05:42Z</time>
      </trkpt>
      <trkpt lat="44.4734" lon="4.36006">
        <ele>138.4</ele>
        <time>2022-06-10T16:05:43Z</time>
      </trkpt>
      <trkpt lat="44.47336" lon="4.35998">
        <ele>138.3</ele>
        <time>2022-06-10T16:05:44Z</time>
      </trkpt>
      <trkpt lat="44.47334" lon="4.35992">
        <ele>138.3</ele>
        <time>2022-06-10T16:05:45Z</time>
      </trkpt>
      <trkpt lat="44.47331" lon="4.35982">
        <ele>138.2</ele>
        <time>2022-06-10T16:05:47Z</time>
      </trkpt>
      <trkpt lat="44.47328" lon="4.35976">
        <ele>138.2</ele>
        <time>2022-06-10T16:05:48Z</time>
      </trkpt>
      <trkpt lat="44.47326" lon="4.35971">
        <ele>138.1</ele>
        <time>2022-06-10T16:05:49Z</time>
      </trkpt>
      <trkpt lat="44.47323" lon="4.35965">
        <ele>138.1</ele>
        <time>2022-06-10T16:05:50Z</time>
      </trkpt>
      <trkpt lat="44.47321" lon="4.35959">
        <ele>138.1</ele>
        <time>2022-06-10T16:05:51Z</time>
      </trkpt>
      <trkpt lat="44.47319" lon="4.35953">
        <ele>138.1</ele>
        <time>2022-06-10T16:05:52Z</time>
      </trkpt>
      <trkpt lat="44.47317" lon="4.35947">
        <ele>138.1</ele>
        <time>2022-06-10T16:05:53Z</time>
      </trkpt>
      <trkpt lat="44.47314" lon="4.35941">
        <ele>138.1</ele>
        <time>2022-06-10T16:05:54Z</time>
      </trkpt>
      <trkpt lat="44.47311" lon="4.35934">
        <ele>138.1</ele>
        <time>2022-06-10T16:05:55Z</time>
      </trkpt>
      <trkpt lat="44.47309" lon="4.35928">
        <ele>138.1</ele>
        <time>2022-06-10T16:05:56Z</time>
      </trkpt>
      <trkpt lat="44.47306" lon="4.35922">
        <ele>138.1</ele>
        <time>2022-06-10T16:05:57Z</time>
      </trkpt>
      <trkpt lat="44.47303" lon="4.35915">
        <ele>138</ele>
        <time>2022-06-10T16:05:58Z</time>
      </trkpt>
      <trkpt lat="44.47301" lon="4.35909">
        <ele>138</ele>
        <time>2022-06-10T16:05:59Z</time>
      </trkpt>
      <trkpt lat="44.47298" lon="4.35902">
        <ele>138</ele>
        <time>2022-06-10T16:06:00Z</time>
      </trkpt>
      <trkpt lat="44.47296" lon="4.35895">
        <ele>138</ele>
        <time>2022-06-10T16:06:01Z</time>
      </trkpt>
      <trkpt lat="44.47293" lon="4.35888">
        <ele>137.9</ele>
        <time>2022-06-10T16:06:02Z</time>
      </trkpt>
      <trkpt lat="44.47291" lon="4.35881">
        <ele>137.9</ele>
        <time>2022-06-10T16:06:03Z</time>
      </trkpt>
      <trkpt lat="44.47288" lon="4.35874">
        <ele>137.8</ele>
        <time>2022-06-10T16:06:04Z</time>
      </trkpt>
      <trkpt lat="44.47285" lon="4.35867">
        <ele>137.8</ele>
        <time>2022-06-10T16:06:05Z</time>
      </trkpt>
      <trkpt lat="44.47282" lon="4.3586">
        <ele>137.7</ele>
        <time>2022-06-10T16:06:06Z</time>
      </trkpt>
      <trkpt lat="44.4728" lon="4.35853">
        <ele>137.7</ele>
        <time>2022-06-10T16:06:07Z</time>
      </trkpt>
      <trkpt lat="44.47277" lon="4.35846">
        <ele>137.7</ele>
        <time>2022-06-10T16:06:08Z</time>
      </trkpt>
      <trkpt lat="44.47275" lon="4.35839">
        <ele>137.6</ele>
        <time>2022-06-10T16:06:09Z</time>
      </trkpt>
      <trkpt lat="44.47272" lon="4.35832">
        <ele>137.6</ele>
        <time>2022-06-10T16:06:10Z</time>
      </trkpt>
      <trkpt lat="44.47269" lon="4.35825">
        <ele>137.6</ele>
        <time>2022-06-10T16:06:11Z</time>
      </trkpt>
      <trkpt lat="44.47266" lon="4.35817">
        <ele>137.6</ele>
        <time>2022-06-10T16:06:12Z</time>
      </trkpt>
      <trkpt lat="44.47264" lon="4.3581">
        <ele>137.5</ele>
        <time>2022-06-10T16:06:13Z</time>
      </trkpt>
      <trkpt lat="44.47261" lon="4.35803">
        <ele>137.5</ele>
        <time>2022-06-10T16:06:14Z</time>
      </trkpt>
      <trkpt lat="44.47258" lon="4.35795">
        <ele>137.5</ele>
        <time>2022-06-10T16:06:15Z</time>
      </trkpt>
      <trkpt lat="44.47255" lon="4.35788">
        <ele>137.5</ele>
        <time>2022-06-10T16:06:16Z</time>
      </trkpt>
      <trkpt lat="44.47253" lon="4.35781">
        <ele>137.4</ele>
        <time>2022-06-10T16:06:17Z</time>
      </trkpt>
      <trkpt lat="44.4725" lon="4.35774">
        <ele>137.4</ele>
        <time>2022-06-10T16:06:18Z</time>
      </trkpt>
      <trkpt lat="44.47247" lon="4.35767">
        <ele>137.4</ele>
        <time>2022-06-10T16:06:19Z</time>
      </trkpt>
      <trkpt lat="44.47245" lon="4.3576">
        <ele>137.4</ele>
        <time>2022-06-10T16:06:20Z</time>
      </trkpt>
      <trkpt lat="44.47242" lon="4.35752">
        <ele>137.4</ele>
        <time>2022-06-10T16:06:21Z</time>
      </trkpt>
      <trkpt lat="44.4724" lon="4.35745">
        <ele>137.4</ele>
        <time>2022-06-10T16:06:22Z</time>
      </trkpt>
      <trkpt lat="44.47237" lon="4.35738">
        <ele>137.3</ele>
        <time>2022-06-10T16:06:23Z</time>
      </trkpt>
      <trkpt lat="44.47234" lon="4.35731">
        <ele>137.3</ele>
        <time>2022-06-10T16:06:24Z</time>
      </trkpt>
      <trkpt lat="44.47231" lon="4.35725">
        <ele>137.3</ele>
        <time>2022-06-10T16:06:25Z</time>
      </trkpt>
      <trkpt lat="44.47228" lon="4.35718">
        <ele>137.3</ele>
        <time>2022-06-10T16:06:26Z</time>
      </trkpt>
      <trkpt lat="44.47225" lon="4.35711">
        <ele>137.3</ele>
        <time>2022-06-10T16:06:27Z</time>
      </trkpt>
      <trkpt lat="44.47223" lon="4.35703">
        <ele>137.2</ele>
        <time>2022-06-10T16:06:28Z</time>
      </trkpt>
      <trkpt lat="44.4722" lon="4.35696">
        <ele>137.2</ele>
        <time>2022-06-10T16:06:29Z</time>
      </trkpt>
      <trkpt lat="44.47217" lon="4.3569">
        <ele>137.2</ele>
        <time>2022-06-10T16:06:30Z</time>
      </trkpt>
      <trkpt lat="44.47214" lon="4.35683">
        <ele>137.2</ele>
        <time>2022-06-10T16:06:31Z</time>
      </trkpt>
      <trkpt lat="44.47212" lon="4.35676">
        <ele>137.2</ele>
        <time>2022-06-10T16:06:32Z</time>
      </trkpt>
      <trkpt lat="44.47209" lon="4.35669">
        <ele>137.2</ele>
        <time>2022-06-10T16:06:33Z</time>
      </trkpt>
      <trkpt lat="44.47206" lon="4.35662">
        <ele>137.2</ele>
        <time>2022-06-10T16:06:34Z</time>
      </trkpt>
      <trkpt lat="44.47204" lon="4.35654">
        <ele>137.2</ele>
        <time>2022-06-10T16:06:35Z</time>
      </trkpt>
      <trkpt lat="44.47201" lon="4.35647">
        <ele>137.2</ele>
        <time>2022-06-10T16:06:36Z</time>
      </trkpt>
      <trkpt lat="44.47199" lon="4.3564">
        <ele>137.3</ele>
        <time>2022-06-10T16:06:37Z</time>
      </trkpt>
      <trkpt lat="44.47196" lon="4.35633">
        <ele>137.2</ele>
        <time>2022-06-10T16:06:38Z</time>
      </trkpt>
      <trkpt lat="44.47193" lon="4.35626">
        <ele>137.1</ele>
        <time>2022-06-10T16:06:39Z</time>
      </trkpt>
      <trkpt lat="44.4719" lon="4.35619">
        <ele>137</ele>
        <time>2022-06-10T16:06:40Z</time>
      </trkpt>
      <trkpt lat="44.47187" lon="4.35612">
        <ele>136.9</ele>
        <time>2022-06-10T16:06:41Z</time>
      </trkpt>
      <trkpt lat="44.47185" lon="4.35604">
        <ele>136.8</ele>
        <time>2022-06-10T16:06:42Z</time>
      </trkpt>
      <trkpt lat="44.47182" lon="4.35597">
        <ele>136.7</ele>
        <time>2022-06-10T16:06:43Z</time>
      </trkpt>
      <trkpt lat="44.47178" lon="4.3559">
        <ele>136.6</ele>
        <time>2022-06-10T16:06:44Z</time>
      </trkpt>
      <trkpt lat="44.47175" lon="4.35583">
        <ele>136.6</ele>
        <time>2022-06-10T16:06:45Z</time>
      </trkpt>
      <trkpt lat="44.47172" lon="4.35575">
        <ele>136.5</ele>
        <time>2022-06-10T16:06:46Z</time>
      </trkpt>
      <trkpt lat="44.47169" lon="4.35568">
        <ele>136.4</ele>
        <time>2022-06-10T16:06:47Z</time>
      </trkpt>
      <trkpt lat="44.47166" lon="4.3556">
        <ele>136.4</ele>
        <time>2022-06-10T16:06:48Z</time>
      </trkpt>
      <trkpt lat="44.47163" lon="4.35552">
        <ele>136.3</ele>
        <time>2022-06-10T16:06:49Z</time>
      </trkpt>
      <trkpt lat="44.4716" lon="4.35544">
        <ele>136.3</ele>
        <time>2022-06-10T16:06:50Z</time>
      </trkpt>
      <trkpt lat="44.47157" lon="4.35537">
        <ele>136.2</ele>
        <time>2022-06-10T16:06:51Z</time>
      </trkpt>
      <trkpt lat="44.47154" lon="4.35529">
        <ele>136.2</ele>
        <time>2022-06-10T16:06:52Z</time>
      </trkpt>
      <trkpt lat="44.47151" lon="4.35522">
        <ele>136.2</ele>
        <time>2022-06-10T16:06:53Z</time>
      </trkpt>
      <trkpt lat="44.47148" lon="4.35514">
        <ele>136.1</ele>
        <time>2022-06-10T16:06:54Z</time>
      </trkpt>
      <trkpt lat="44.47146" lon="4.35507">
        <ele>136.1</ele>
        <time>2022-06-10T16:06:55Z</time>
      </trkpt>
      <trkpt lat="44.47143" lon="4.35499">
        <ele>136.1</ele>
        <time>2022-06-10T16:06:56Z</time>
      </trkpt>
      <trkpt lat="44.4714" lon="4.35492">
        <ele>136</ele>
        <time>2022-06-10T16:06:57Z</time>
      </trkpt>
      <trkpt lat="44.47137" lon="4.35484">
        <ele>136</ele>
        <time>2022-06-10T16:06:58Z</time>
      </trkpt>
      <trkpt lat="44.47134" lon="4.35476">
        <ele>136</ele>
        <time>2022-06-10T16:06:59Z</time>
      </trkpt>
      <trkpt lat="44.47131" lon="4.35469">
        <ele>135.9</ele>
        <time>2022-06-10T16:07:00Z</time>
      </trkpt>
      <trkpt lat="44.47128" lon="4.35462">
        <ele>135.9</ele>
        <time>2022-06-10T16:07:01Z</time>
      </trkpt>
      <trkpt lat="44.47126" lon="4.35454">
        <ele>135.9</ele>
        <time>2022-06-10T16:07:02Z</time>
      </trkpt>
      <trkpt lat="44.47123" lon="4.35447">
        <ele>135.8</ele>
        <time>2022-06-10T16:07:03Z</time>
      </trkpt>
      <trkpt lat="44.4712" lon="4.35439">
        <ele>135.8</ele>
        <time>2022-06-10T16:07:04Z</time>
      </trkpt>
      <trkpt lat="44.47117" lon="4.35432">
        <ele>135.8</ele>
        <time>2022-06-10T16:07:05Z</time>
      </trkpt>
      <trkpt lat="44.47114" lon="4.35424">
        <ele>135.7</ele>
        <time>2022-06-10T16:07:06Z</time>
      </trkpt>
      <trkpt lat="44.47111" lon="4.35417">
        <ele>135.7</ele>
        <time>2022-06-10T16:07:07Z</time>
      </trkpt>
      <trkpt lat="44.47107" lon="4.35409">
        <ele>135.7</ele>
        <time>2022-06-10T16:07:08Z</time>
      </trkpt>
      <trkpt lat="44.47104" lon="4.35401">
        <ele>135.7</ele>
        <time>2022-06-10T16:07:09Z</time>
      </trkpt>
      <trkpt lat="44.47102" lon="4.35393">
        <ele>135.7</ele>
        <time>2022-06-10T16:07:10Z</time>
      </trkpt>
      <trkpt lat="44.47099" lon="4.35386">
        <ele>135.7</ele>
        <time>2022-06-10T16:07:11Z</time>
      </trkpt>
      <trkpt lat="44.47096" lon="4.35378">
        <ele>135.7</ele>
        <time>2022-06-10T16:07:12Z</time>
      </trkpt>
      <trkpt lat="44.47093" lon="4.3537">
        <ele>135.6</ele>
        <time>2022-06-10T16:07:13Z</time>
      </trkpt>
      <trkpt lat="44.4709" lon="4.35362">
        <ele>135.6</ele>
        <time>2022-06-10T16:07:14Z</time>
      </trkpt>
      <trkpt lat="44.47087" lon="4.35354">
        <ele>135.6</ele>
        <time>2022-06-10T16:07:15Z</time>
      </trkpt>
      <trkpt lat="44.47084" lon="4.35346">
        <ele>135.6</ele>
        <time>2022-06-10T16:07:16Z</time>
      </trkpt>
      <trkpt lat="44.47081" lon="4.35338">
        <ele>135.5</ele>
        <time>2022-06-10T16:07:17Z</time>
      </trkpt>
      <trkpt lat="44.47078" lon="4.3533">
        <ele>135.5</ele>
        <time>2022-06-10T16:07:18Z</time>
      </trkpt>
      <trkpt lat="44.47075" lon="4.35323">
        <ele>135.5</ele>
        <time>2022-06-10T16:07:19Z</time>
      </trkpt>
      <trkpt lat="44.47072" lon="4.35316">
        <ele>135.6</ele>
        <time>2022-06-10T16:07:20Z</time>
      </trkpt>
      <trkpt lat="44.47068" lon="4.35309">
        <ele>135.6</ele>
        <time>2022-06-10T16:07:21Z</time>
      </trkpt>
      <trkpt lat="44.47065" lon="4.35302">
        <ele>135.7</ele>
        <time>2022-06-10T16:07:22Z</time>
      </trkpt>
      <trkpt lat="44.47062" lon="4.35295">
        <ele>135.8</ele>
        <time>2022-06-10T16:07:23Z</time>
      </trkpt>
      <trkpt lat="44.4706" lon="4.3529">
        <ele>135.9</ele>
        <time>2022-06-10T16:07:24Z</time>
      </trkpt>
      <trkpt lat="44.47056" lon="4.35289">
        <ele>135.9</ele>
        <time>2022-06-10T16:07:25Z</time>
      </trkpt>
      <trkpt lat="44.47054" lon="4.35288">
        <ele>135.9</ele>
        <time>2022-06-10T16:07:26Z</time>
      </trkpt>
      <trkpt lat="44.47053" lon="4.35285">
        <ele>135.9</ele>
        <time>2022-06-10T16:07:27Z</time>
      </trkpt>
      <trkpt lat="44.47053" lon="4.35283">
        <ele>135.9</ele>
        <time>2022-06-10T16:07:28Z</time>
      </trkpt>
      <trkpt lat="44.47054" lon="4.35283">
        <ele>135.9</ele>
        <time>2022-06-10T16:07:29Z</time>
      </trkpt>
      <trkpt lat="44.47054" lon="4.35283">
        <ele>135.9</ele>
        <time>2022-06-10T16:07:30Z</time>
      </trkpt>
      <trkpt lat="44.47054" lon="4.35283">
        <ele>135.9</ele>
        <time>2022-06-10T16:07:31Z</time>
      </trkpt>
      <trkpt lat="44.47054" lon="4.35283">
        <ele>135.9</ele>
        <time>2022-06-10T16:07:32Z</time>
      </trkpt>
      <trkpt lat="44.47054" lon="4.35284">
        <ele>135.9</ele>
        <time>2022-06-10T16:07:33Z</time>
      </trkpt>
      <trkpt lat="44.47054" lon="4.35283">
        <ele>135.9</ele>
        <time>2022-06-10T16:07:34Z</time>
      </trkpt>
      <trkpt lat="44.47054" lon="4.35283">
        <ele>135.9</ele>
        <time>2022-06-10T16:07:35Z</time>
      </trkpt>
      <trkpt lat="44.47054" lon="4.35283">
        <ele>135.9</ele>
        <time>2022-06-10T16:07:36Z</time>
      </trkpt>
      <trkpt lat="44.47054" lon="4.35283">
        <ele>135.9</ele>
        <time>2022-06-10T16:07:37Z</time>
      </trkpt>
      <trkpt lat="44.47054" lon="4.35282">
        <ele>135.9</ele>
        <time>2022-06-10T16:07:38Z</time>
      </trkpt>
      <trkpt lat="44.47055" lon="4.35281">
        <ele>135.9</ele>
        <time>2022-06-10T16:07:39Z</time>
      </trkpt>
      <trkpt lat="44.47055" lon="4.35279">
        <ele>135.9</ele>
        <time>2022-06-10T16:07:40Z</time>
      </trkpt>
      <trkpt lat="44.47056" lon="4.35279">
        <ele>135.9</ele>
        <time>2022-06-10T16:07:41Z</time>
      </trkpt>
      <trkpt lat="44.47056" lon="4.35278">
        <ele>135.9</ele>
        <time>2022-06-10T16:07:42Z</time>
      </trkpt>
      <trkpt lat="44.47057" lon="4.35277">
        <ele>135.9</ele>
        <time>2022-06-10T16:07:43Z</time>
      </trkpt>
      <trkpt lat="44.47058" lon="4.35276">
        <ele>135.9</ele>
        <time>2022-06-10T16:07:44Z</time>
      </trkpt>
      <trkpt lat="44.47059" lon="4.35272">
        <ele>135.9</ele>
        <time>2022-06-10T16:07:45Z</time>
      </trkpt>
      <trkpt lat="44.47061" lon="4.35267">
        <ele>135.8</ele>
        <time>2022-06-10T16:07:47Z</time>
      </trkpt>
      <trkpt lat="44.47063" lon="4.35263">
        <ele>135.8</ele>
        <time>2022-06-10T16:07:48Z</time>
      </trkpt>
      <trkpt lat="44.47063" lon="4.35259">
        <ele>135.7</ele>
        <time>2022-06-10T16:07:49Z</time>
      </trkpt>
      <trkpt lat="44.47061" lon="4.35255">
        <ele>135.7</ele>
        <time>2022-06-10T16:07:50Z</time>
      </trkpt>
      <trkpt lat="44.47056" lon="4.35246">
        <ele>135.6</ele>
        <time>2022-06-10T16:07:51Z</time>
      </trkpt>
      <trkpt lat="44.47052" lon="4.35242">
        <ele>135.5</ele>
        <time>2022-06-10T16:07:53Z</time>
      </trkpt>
      <trkpt lat="44.47044" lon="4.35237">
        <ele>135.5</ele>
        <time>2022-06-10T16:07:54Z</time>
      </trkpt>
      <trkpt lat="44.4704" lon="4.35232">
        <ele>135.4</ele>
        <time>2022-06-10T16:07:55Z</time>
      </trkpt>
      <trkpt lat="44.47036" lon="4.35227">
        <ele>135.4</ele>
        <time>2022-06-10T16:07:56Z</time>
      </trkpt>
      <trkpt lat="44.47033" lon="4.3522">
        <ele>135.3</ele>
        <time>2022-06-10T16:07:57Z</time>
      </trkpt>
      <trkpt lat="44.47031" lon="4.35213">
        <ele>135.2</ele>
        <time>2022-06-10T16:07:58Z</time>
      </trkpt>
      <trkpt lat="44.47028" lon="4.35207">
        <ele>135.2</ele>
        <time>2022-06-10T16:07:59Z</time>
      </trkpt>
      <trkpt lat="44.47025" lon="4.352">
        <ele>135.1</ele>
        <time>2022-06-10T16:08:00Z</time>
      </trkpt>
      <trkpt lat="44.47022" lon="4.35193">
        <ele>135.1</ele>
        <time>2022-06-10T16:08:01Z</time>
      </trkpt>
      <trkpt lat="44.4702" lon="4.35186">
        <ele>135.1</ele>
        <time>2022-06-10T16:08:02Z</time>
      </trkpt>
      <trkpt lat="44.47017" lon="4.35179">
        <ele>135</ele>
        <time>2022-06-10T16:08:03Z</time>
      </trkpt>
      <trkpt lat="44.47015" lon="4.35172">
        <ele>135</ele>
        <time>2022-06-10T16:08:04Z</time>
      </trkpt>
      <trkpt lat="44.47012" lon="4.35165">
        <ele>135</ele>
        <time>2022-06-10T16:08:05Z</time>
      </trkpt>
      <trkpt lat="44.47009" lon="4.35158">
        <ele>135</ele>
        <time>2022-06-10T16:08:06Z</time>
      </trkpt>
      <trkpt lat="44.47007" lon="4.35151">
        <ele>135</ele>
        <time>2022-06-10T16:08:07Z</time>
      </trkpt>
      <trkpt lat="44.47004" lon="4.35144">
        <ele>134.9</ele>
        <time>2022-06-10T16:08:08Z</time>
      </trkpt>
      <trkpt lat="44.47001" lon="4.35137">
        <ele>134.9</ele>
        <time>2022-06-10T16:08:09Z</time>
      </trkpt>
      <trkpt lat="44.46998" lon="4.3513">
        <ele>134.8</ele>
        <time>2022-06-10T16:08:10Z</time>
      </trkpt>
      <trkpt lat="44.46995" lon="4.35122">
        <ele>134.8</ele>
        <time>2022-06-10T16:08:11Z</time>
      </trkpt>
      <trkpt lat="44.46992" lon="4.35115">
        <ele>134.7</ele>
        <time>2022-06-10T16:08:12Z</time>
      </trkpt>
      <trkpt lat="44.4699" lon="4.35108">
        <ele>134.7</ele>
        <time>2022-06-10T16:08:13Z</time>
      </trkpt>
      <trkpt lat="44.46987" lon="4.351">
        <ele>134.6</ele>
        <time>2022-06-10T16:08:14Z</time>
      </trkpt>
      <trkpt lat="44.46984" lon="4.35093">
        <ele>134.6</ele>
        <time>2022-06-10T16:08:15Z</time>
      </trkpt>
      <trkpt lat="44.46981" lon="4.35086">
        <ele>134.5</ele>
        <time>2022-06-10T16:08:16Z</time>
      </trkpt>
      <trkpt lat="44.46978" lon="4.35079">
        <ele>134.5</ele>
        <time>2022-06-10T16:08:17Z</time>
      </trkpt>
      <trkpt lat="44.46975" lon="4.35071">
        <ele>134.5</ele>
        <time>2022-06-10T16:08:18Z</time>
      </trkpt>
      <trkpt lat="44.46972" lon="4.35064">
        <ele>134.5</ele>
        <time>2022-06-10T16:08:19Z</time>
      </trkpt>
      <trkpt lat="44.46969" lon="4.35057">
        <ele>134.5</ele>
        <time>2022-06-10T16:08:20Z</time>
      </trkpt>
      <trkpt lat="44.46966" lon="4.3505">
        <ele>134.4</ele>
        <time>2022-06-10T16:08:21Z</time>
      </trkpt>
      <trkpt lat="44.46963" lon="4.35042">
        <ele>134.4</ele>
        <time>2022-06-10T16:08:22Z</time>
      </trkpt>
      <trkpt lat="44.4696" lon="4.35034">
        <ele>134.4</ele>
        <time>2022-06-10T16:08:23Z</time>
      </trkpt>
      <trkpt lat="44.46957" lon="4.35027">
        <ele>134.4</ele>
        <time>2022-06-10T16:08:24Z</time>
      </trkpt>
      <trkpt lat="44.46954" lon="4.3502">
        <ele>134.3</ele>
        <time>2022-06-10T16:08:25Z</time>
      </trkpt>
      <trkpt lat="44.46951" lon="4.35013">
        <ele>134.3</ele>
        <time>2022-06-10T16:08:26Z</time>
      </trkpt>
      <trkpt lat="44.46949" lon="4.35005">
        <ele>134.2</ele>
        <time>2022-06-10T16:08:27Z</time>
      </trkpt>
      <trkpt lat="44.46946" lon="4.34998">
        <ele>134.2</ele>
        <time>2022-06-10T16:08:28Z</time>
      </trkpt>
      <trkpt lat="44.46943" lon="4.3499">
        <ele>134.1</ele>
        <time>2022-06-10T16:08:29Z</time>
      </trkpt>
      <trkpt lat="44.4694" lon="4.34982">
        <ele>134.1</ele>
        <time>2022-06-10T16:08:30Z</time>
      </trkpt>
      <trkpt lat="44.46938" lon="4.34975">
        <ele>134.1</ele>
        <time>2022-06-10T16:08:31Z</time>
      </trkpt>
      <trkpt lat="44.46935" lon="4.34967">
        <ele>134.1</ele>
        <time>2022-06-10T16:08:32Z</time>
      </trkpt>
      <trkpt lat="44.46932" lon="4.3496">
        <ele>134.1</ele>
        <time>2022-06-10T16:08:33Z</time>
      </trkpt>
      <trkpt lat="44.4693" lon="4.34953">
        <ele>134</ele>
        <time>2022-06-10T16:08:34Z</time>
      </trkpt>
      <trkpt lat="44.46927" lon="4.34946">
        <ele>134</ele>
        <time>2022-06-10T16:08:35Z</time>
      </trkpt>
      <trkpt lat="44.46924" lon="4.34939">
        <ele>134</ele>
        <time>2022-06-10T16:08:36Z</time>
      </trkpt>
      <trkpt lat="44.4692" lon="4.34933">
        <ele>134</ele>
        <time>2022-06-10T16:08:37Z</time>
      </trkpt>
      <trkpt lat="44.46917" lon="4.34926">
        <ele>133.9</ele>
        <time>2022-06-10T16:08:38Z</time>
      </trkpt>
      <trkpt lat="44.46913" lon="4.34919">
        <ele>133.9</ele>
        <time>2022-06-10T16:08:39Z</time>
      </trkpt>
      <trkpt lat="44.4691" lon="4.34912">
        <ele>133.9</ele>
        <time>2022-06-10T16:08:40Z</time>
      </trkpt>
      <trkpt lat="44.46906" lon="4.34905">
        <ele>133.8</ele>
        <time>2022-06-10T16:08:41Z</time>
      </trkpt>
      <trkpt lat="44.46903" lon="4.34898">
        <ele>133.8</ele>
        <time>2022-06-10T16:08:42Z</time>
      </trkpt>
      <trkpt lat="44.469" lon="4.34892">
        <ele>133.8</ele>
        <time>2022-06-10T16:08:43Z</time>
      </trkpt>
      <trkpt lat="44.46897" lon="4.34884">
        <ele>133.8</ele>
        <time>2022-06-10T16:08:44Z</time>
      </trkpt>
      <trkpt lat="44.46894" lon="4.34877">
        <ele>133.7</ele>
        <time>2022-06-10T16:08:45Z</time>
      </trkpt>
      <trkpt lat="44.46891" lon="4.34869">
        <ele>133.7</ele>
        <time>2022-06-10T16:08:46Z</time>
      </trkpt>
      <trkpt lat="44.46887" lon="4.34862">
        <ele>133.7</ele>
        <time>2022-06-10T16:08:47Z</time>
      </trkpt>
      <trkpt lat="44.46884" lon="4.34855">
        <ele>133.7</ele>
        <time>2022-06-10T16:08:48Z</time>
      </trkpt>
      <trkpt lat="44.4688" lon="4.34848">
        <ele>133.6</ele>
        <time>2022-06-10T16:08:49Z</time>
      </trkpt>
      <trkpt lat="44.46876" lon="4.34841">
        <ele>133.6</ele>
        <time>2022-06-10T16:08:50Z</time>
      </trkpt>
      <trkpt lat="44.46872" lon="4.34834">
        <ele>133.6</ele>
        <time>2022-06-10T16:08:51Z</time>
      </trkpt>
      <trkpt lat="44.46869" lon="4.34826">
        <ele>133.5</ele>
        <time>2022-06-10T16:08:52Z</time>
      </trkpt>
      <trkpt lat="44.46865" lon="4.34819">
        <ele>133.5</ele>
        <time>2022-06-10T16:08:53Z</time>
      </trkpt>
      <trkpt lat="44.46861" lon="4.34812">
        <ele>133.4</ele>
        <time>2022-06-10T16:08:54Z</time>
      </trkpt>
      <trkpt lat="44.46857" lon="4.34805">
        <ele>133.4</ele>
        <time>2022-06-10T16:08:55Z</time>
      </trkpt>
      <trkpt lat="44.46853" lon="4.34797">
        <ele>133.4</ele>
        <time>2022-06-10T16:08:56Z</time>
      </trkpt>
      <trkpt lat="44.46848" lon="4.3479">
        <ele>133.4</ele>
        <time>2022-06-10T16:08:57Z</time>
      </trkpt>
      <trkpt lat="44.46844" lon="4.34782">
        <ele>133.3</ele>
        <time>2022-06-10T16:08:58Z</time>
      </trkpt>
      <trkpt lat="44.4684" lon="4.34775">
        <ele>133.3</ele>
        <time>2022-06-10T16:08:59Z</time>
      </trkpt>
      <trkpt lat="44.46836" lon="4.34767">
        <ele>133.3</ele>
        <time>2022-06-10T16:09:00Z</time>
      </trkpt>
      <trkpt lat="44.46831" lon="4.3476">
        <ele>133.2</ele>
        <time>2022-06-10T16:09:01Z</time>
      </trkpt>
      <trkpt lat="44.46827" lon="4.34752">
        <ele>133.2</ele>
        <time>2022-06-10T16:09:02Z</time>
      </trkpt>
      <trkpt lat="44.46822" lon="4.34745">
        <ele>133.2</ele>
        <time>2022-06-10T16:09:03Z</time>
      </trkpt>
      <trkpt lat="44.46817" lon="4.34737">
        <ele>133.2</ele>
        <time>2022-06-10T16:09:04Z</time>
      </trkpt>
      <trkpt lat="44.46812" lon="4.3473">
        <ele>133.1</ele>
        <time>2022-06-10T16:09:05Z</time>
      </trkpt>
      <trkpt lat="44.46807" lon="4.34723">
        <ele>133.1</ele>
        <time>2022-06-10T16:09:06Z</time>
      </trkpt>
      <trkpt lat="44.46802" lon="4.34715">
        <ele>133</ele>
        <time>2022-06-10T16:09:07Z</time>
      </trkpt>
      <trkpt lat="44.46798" lon="4.34708">
        <ele>132.9</ele>
        <time>2022-06-10T16:09:08Z</time>
      </trkpt>
      <trkpt lat="44.46794" lon="4.34701">
        <ele>132.9</ele>
        <time>2022-06-10T16:09:09Z</time>
      </trkpt>
      <trkpt lat="44.46789" lon="4.34694">
        <ele>132.8</ele>
        <time>2022-06-10T16:09:10Z</time>
      </trkpt>
      <trkpt lat="44.46785" lon="4.34687">
        <ele>132.8</ele>
        <time>2022-06-10T16:09:11Z</time>
      </trkpt>
      <trkpt lat="44.46779" lon="4.3468">
        <ele>132.8</ele>
        <time>2022-06-10T16:09:12Z</time>
      </trkpt>
      <trkpt lat="44.46774" lon="4.34674">
        <ele>132.7</ele>
        <time>2022-06-10T16:09:13Z</time>
      </trkpt>
      <trkpt lat="44.46769" lon="4.34667">
        <ele>132.7</ele>
        <time>2022-06-10T16:09:14Z</time>
      </trkpt>
      <trkpt lat="44.46765" lon="4.3466">
        <ele>132.7</ele>
        <time>2022-06-10T16:09:15Z</time>
      </trkpt>
      <trkpt lat="44.4676" lon="4.34654">
        <ele>132.7</ele>
        <time>2022-06-10T16:09:16Z</time>
      </trkpt>
      <trkpt lat="44.46755" lon="4.34647">
        <ele>132.6</ele>
        <time>2022-06-10T16:09:17Z</time>
      </trkpt>
      <trkpt lat="44.4675" lon="4.34641">
        <ele>132.6</ele>
        <time>2022-06-10T16:09:18Z</time>
      </trkpt>
      <trkpt lat="44.46745" lon="4.34635">
        <ele>132.5</ele>
        <time>2022-06-10T16:09:19Z</time>
      </trkpt>
      <trkpt lat="44.4674" lon="4.34629">
        <ele>132.5</ele>
        <time>2022-06-10T16:09:20Z</time>
      </trkpt>
      <trkpt lat="44.46736" lon="4.34623">
        <ele>132.5</ele>
        <time>2022-06-10T16:09:21Z</time>
      </trkpt>
      <trkpt lat="44.46731" lon="4.34617">
        <ele>132.5</ele>
        <time>2022-06-10T16:09:22Z</time>
      </trkpt>
      <trkpt lat="44.46727" lon="4.3461">
        <ele>132.5</ele>
        <time>2022-06-10T16:09:23Z</time>
      </trkpt>
      <trkpt lat="44.46722" lon="4.34604">
        <ele>132.5</ele>
        <time>2022-06-10T16:09:24Z</time>
      </trkpt>
      <trkpt lat="44.46717" lon="4.34598">
        <ele>132.4</ele>
        <time>2022-06-10T16:09:25Z</time>
      </trkpt>
      <trkpt lat="44.46712" lon="4.34592">
        <ele>132.4</ele>
        <time>2022-06-10T16:09:26Z</time>
      </trkpt>
      <trkpt lat="44.46707" lon="4.34586">
        <ele>132.4</ele>
        <time>2022-06-10T16:09:27Z</time>
      </trkpt>
      <trkpt lat="44.46702" lon="4.3458">
        <ele>132.3</ele>
        <time>2022-06-10T16:09:28Z</time>
      </trkpt>
      <trkpt lat="44.46697" lon="4.34574">
        <ele>132.3</ele>
        <time>2022-06-10T16:09:29Z</time>
      </trkpt>
      <trkpt lat="44.46692" lon="4.34568">
        <ele>132.3</ele>
        <time>2022-06-10T16:09:30Z</time>
      </trkpt>
      <trkpt lat="44.46687" lon="4.34562">
        <ele>132.3</ele>
        <time>2022-06-10T16:09:31Z</time>
      </trkpt>
      <trkpt lat="44.46682" lon="4.34557">
        <ele>132.2</ele>
        <time>2022-06-10T16:09:32Z</time>
      </trkpt>
      <trkpt lat="44.46677" lon="4.34551">
        <ele>132.2</ele>
        <time>2022-06-10T16:09:33Z</time>
      </trkpt>
      <trkpt lat="44.46671" lon="4.34545">
        <ele>132.2</ele>
        <time>2022-06-10T16:09:34Z</time>
      </trkpt>
      <trkpt lat="44.46666" lon="4.34539">
        <ele>132.1</ele>
        <time>2022-06-10T16:09:35Z</time>
      </trkpt>
      <trkpt lat="44.46661" lon="4.34534">
        <ele>132.1</ele>
        <time>2022-06-10T16:09:36Z</time>
      </trkpt>
      <trkpt lat="44.46655" lon="4.34529">
        <ele>132</ele>
        <time>2022-06-10T16:09:37Z</time>
      </trkpt>
      <trkpt lat="44.4665" lon="4.34524">
        <ele>132</ele>
        <time>2022-06-10T16:09:38Z</time>
      </trkpt>
      <trkpt lat="44.46645" lon="4.34519">
        <ele>131.9</ele>
        <time>2022-06-10T16:09:39Z</time>
      </trkpt>
      <trkpt lat="44.46639" lon="4.34513">
        <ele>131.9</ele>
        <time>2022-06-10T16:09:40Z</time>
      </trkpt>
      <trkpt lat="44.46634" lon="4.34508">
        <ele>131.9</ele>
        <time>2022-06-10T16:09:41Z</time>
      </trkpt>
      <trkpt lat="44.46628" lon="4.34502">
        <ele>131.9</ele>
        <time>2022-06-10T16:09:42Z</time>
      </trkpt>
      <trkpt lat="44.46623" lon="4.34496">
        <ele>131.8</ele>
        <time>2022-06-10T16:09:43Z</time>
      </trkpt>
      <trkpt lat="44.46617" lon="4.34491">
        <ele>131.8</ele>
        <time>2022-06-10T16:09:44Z</time>
      </trkpt>
      <trkpt lat="44.46611" lon="4.34486">
        <ele>131.8</ele>
        <time>2022-06-10T16:09:45Z</time>
      </trkpt>
      <trkpt lat="44.46604" lon="4.34481">
        <ele>131.7</ele>
        <time>2022-06-10T16:09:46Z</time>
      </trkpt>
      <trkpt lat="44.46598" lon="4.34475">
        <ele>131.7</ele>
        <time>2022-06-10T16:09:47Z</time>
      </trkpt>
      <trkpt lat="44.46592" lon="4.3447">
        <ele>131.6</ele>
        <time>2022-06-10T16:09:48Z</time>
      </trkpt>
      <trkpt lat="44.46587" lon="4.34464">
        <ele>131.6</ele>
        <time>2022-06-10T16:09:49Z</time>
      </trkpt>
      <trkpt lat="44.46581" lon="4.34459">
        <ele>131.5</ele>
        <time>2022-06-10T16:09:50Z</time>
      </trkpt>
      <trkpt lat="44.46574" lon="4.34454">
        <ele>131.4</ele>
        <time>2022-06-10T16:09:51Z</time>
      </trkpt>
      <trkpt lat="44.46568" lon="4.34449">
        <ele>131.4</ele>
        <time>2022-06-10T16:09:52Z</time>
      </trkpt>
      <trkpt lat="44.46562" lon="4.34444">
        <ele>131.3</ele>
        <time>2022-06-10T16:09:53Z</time>
      </trkpt>
      <trkpt lat="44.46556" lon="4.34439">
        <ele>131.3</ele>
        <time>2022-06-10T16:09:54Z</time>
      </trkpt>
      <trkpt lat="44.46549" lon="4.34434">
        <ele>131.2</ele>
        <time>2022-06-10T16:09:55Z</time>
      </trkpt>
      <trkpt lat="44.46543" lon="4.34428">
        <ele>131.2</ele>
        <time>2022-06-10T16:09:56Z</time>
      </trkpt>
      <trkpt lat="44.46536" lon="4.34424">
        <ele>131.2</ele>
        <time>2022-06-10T16:09:57Z</time>
      </trkpt>
      <trkpt lat="44.4653" lon="4.34419">
        <ele>131.1</ele>
        <time>2022-06-10T16:09:58Z</time>
      </trkpt>
      <trkpt lat="44.46523" lon="4.34415">
        <ele>131.1</ele>
        <time>2022-06-10T16:09:59Z</time>
      </trkpt>
      <trkpt lat="44.46517" lon="4.3441">
        <ele>131.1</ele>
        <time>2022-06-10T16:10:00Z</time>
      </trkpt>
      <trkpt lat="44.4651" lon="4.34405">
        <ele>131.1</ele>
        <time>2022-06-10T16:10:01Z</time>
      </trkpt>
      <trkpt lat="44.46504" lon="4.34401">
        <ele>131</ele>
        <time>2022-06-10T16:10:02Z</time>
      </trkpt>
      <trkpt lat="44.46497" lon="4.34397">
        <ele>131</ele>
        <time>2022-06-10T16:10:03Z</time>
      </trkpt>
      <trkpt lat="44.46491" lon="4.34392">
        <ele>131</ele>
        <time>2022-06-10T16:10:04Z</time>
      </trkpt>
      <trkpt lat="44.46485" lon="4.34389">
        <ele>130.9</ele>
        <time>2022-06-10T16:10:05Z</time>
      </trkpt>
      <trkpt lat="44.46479" lon="4.34385">
        <ele>130.9</ele>
        <time>2022-06-10T16:10:06Z</time>
      </trkpt>
      <trkpt lat="44.46473" lon="4.34381">
        <ele>130.9</ele>
        <time>2022-06-10T16:10:07Z</time>
      </trkpt>
      <trkpt lat="44.46466" lon="4.34378">
        <ele>130.8</ele>
        <time>2022-06-10T16:10:08Z</time>
      </trkpt>
      <trkpt lat="44.4646" lon="4.34374">
        <ele>130.8</ele>
        <time>2022-06-10T16:10:09Z</time>
      </trkpt>
      <trkpt lat="44.46454" lon="4.34371">
        <ele>130.8</ele>
        <time>2022-06-10T16:10:10Z</time>
      </trkpt>
      <trkpt lat="44.46448" lon="4.34367">
        <ele>130.8</ele>
        <time>2022-06-10T16:10:11Z</time>
      </trkpt>
      <trkpt lat="44.46441" lon="4.34364">
        <ele>130.8</ele>
        <time>2022-06-10T16:10:12Z</time>
      </trkpt>
      <trkpt lat="44.46435" lon="4.3436">
        <ele>130.8</ele>
        <time>2022-06-10T16:10:13Z</time>
      </trkpt>
      <trkpt lat="44.46429" lon="4.34357">
        <ele>130.9</ele>
        <time>2022-06-10T16:10:14Z</time>
      </trkpt>
      <trkpt lat="44.46423" lon="4.34354">
        <ele>130.9</ele>
        <time>2022-06-10T16:10:15Z</time>
      </trkpt>
      <trkpt lat="44.46416" lon="4.34351">
        <ele>130.9</ele>
        <time>2022-06-10T16:10:16Z</time>
      </trkpt>
      <trkpt lat="44.46411" lon="4.34348">
        <ele>130.8</ele>
        <time>2022-06-10T16:10:17Z</time>
      </trkpt>
      <trkpt lat="44.46407" lon="4.34345">
        <ele>130.8</ele>
        <time>2022-06-10T16:10:18Z</time>
      </trkpt>
      <trkpt lat="44.46404" lon="4.34343">
        <ele>130.8</ele>
        <time>2022-06-10T16:10:19Z</time>
      </trkpt>
      <trkpt lat="44.46398" lon="4.34341">
        <ele>130.8</ele>
        <time>2022-06-10T16:10:20Z</time>
      </trkpt>
      <trkpt lat="44.46393" lon="4.34338">
        <ele>130.7</ele>
        <time>2022-06-10T16:10:21Z</time>
      </trkpt>
      <trkpt lat="44.46388" lon="4.34335">
        <ele>130.6</ele>
        <time>2022-06-10T16:10:22Z</time>
      </trkpt>
      <trkpt lat="44.46384" lon="4.34333">
        <ele>130.5</ele>
        <time>2022-06-10T16:10:23Z</time>
      </trkpt>
      <trkpt lat="44.46378" lon="4.3433">
        <ele>130.4</ele>
        <time>2022-06-10T16:10:24Z</time>
      </trkpt>
      <trkpt lat="44.46373" lon="4.34327">
        <ele>130.4</ele>
        <time>2022-06-10T16:10:25Z</time>
      </trkpt>
      <trkpt lat="44.46368" lon="4.34325">
        <ele>130.3</ele>
        <time>2022-06-10T16:10:26Z</time>
      </trkpt>
      <trkpt lat="44.46362" lon="4.34324">
        <ele>130.2</ele>
        <time>2022-06-10T16:10:27Z</time>
      </trkpt>
      <trkpt lat="44.46357" lon="4.34322">
        <ele>130.1</ele>
        <time>2022-06-10T16:10:28Z</time>
      </trkpt>
      <trkpt lat="44.46351" lon="4.3432">
        <ele>130.1</ele>
        <time>2022-06-10T16:10:29Z</time>
      </trkpt>
      <trkpt lat="44.46345" lon="4.34317">
        <ele>130</ele>
        <time>2022-06-10T16:10:30Z</time>
      </trkpt>
      <trkpt lat="44.46339" lon="4.34315">
        <ele>129.9</ele>
        <time>2022-06-10T16:10:31Z</time>
      </trkpt>
      <trkpt lat="44.46333" lon="4.34313">
        <ele>129.9</ele>
        <time>2022-06-10T16:10:32Z</time>
      </trkpt>
      <trkpt lat="44.46327" lon="4.34311">
        <ele>129.8</ele>
        <time>2022-06-10T16:10:33Z</time>
      </trkpt>
      <trkpt lat="44.46321" lon="4.3431">
        <ele>129.8</ele>
        <time>2022-06-10T16:10:34Z</time>
      </trkpt>
      <trkpt lat="44.46315" lon="4.34308">
        <ele>129.7</ele>
        <time>2022-06-10T16:10:35Z</time>
      </trkpt>
      <trkpt lat="44.46309" lon="4.34305">
        <ele>129.6</ele>
        <time>2022-06-10T16:10:36Z</time>
      </trkpt>
      <trkpt lat="44.46302" lon="4.34304">
        <ele>129.6</ele>
        <time>2022-06-10T16:10:37Z</time>
      </trkpt>
      <trkpt lat="44.46296" lon="4.34302">
        <ele>129.5</ele>
        <time>2022-06-10T16:10:38Z</time>
      </trkpt>
      <trkpt lat="44.46289" lon="4.34301">
        <ele>129.4</ele>
        <time>2022-06-10T16:10:39Z</time>
      </trkpt>
      <trkpt lat="44.46283" lon="4.34298">
        <ele>129.3</ele>
        <time>2022-06-10T16:10:40Z</time>
      </trkpt>
      <trkpt lat="44.46277" lon="4.34296">
        <ele>129.2</ele>
        <time>2022-06-10T16:10:41Z</time>
      </trkpt>
      <trkpt lat="44.46271" lon="4.34293">
        <ele>129.1</ele>
        <time>2022-06-10T16:10:42Z</time>
      </trkpt>
      <trkpt lat="44.46264" lon="4.3429">
        <ele>129</ele>
        <time>2022-06-10T16:10:43Z</time>
      </trkpt>
      <trkpt lat="44.46258" lon="4.34288">
        <ele>128.9</ele>
        <time>2022-06-10T16:10:44Z</time>
      </trkpt>
      <trkpt lat="44.46252" lon="4.34286">
        <ele>128.9</ele>
        <time>2022-06-10T16:10:45Z</time>
      </trkpt>
      <trkpt lat="44.46245" lon="4.34285">
        <ele>128.9</ele>
        <time>2022-06-10T16:10:46Z</time>
      </trkpt>
      <trkpt lat="44.46239" lon="4.34283">
        <ele>128.9</ele>
        <time>2022-06-10T16:10:47Z</time>
      </trkpt>
      <trkpt lat="44.46233" lon="4.34282">
        <ele>128.9</ele>
        <time>2022-06-10T16:10:48Z</time>
      </trkpt>
      <trkpt lat="44.46228" lon="4.3428">
        <ele>128.8</ele>
        <time>2022-06-10T16:10:49Z</time>
      </trkpt>
      <trkpt lat="44.46222" lon="4.34278">
        <ele>128.7</ele>
        <time>2022-06-10T16:10:50Z</time>
      </trkpt>
      <trkpt lat="44.46215" lon="4.34276">
        <ele>128.6</ele>
        <time>2022-06-10T16:10:51Z</time>
      </trkpt>
      <trkpt lat="44.46209" lon="4.34274">
        <ele>128.6</ele>
        <time>2022-06-10T16:10:52Z</time>
      </trkpt>
      <trkpt lat="44.46203" lon="4.34273">
        <ele>128.6</ele>
        <time>2022-06-10T16:10:53Z</time>
      </trkpt>
      <trkpt lat="44.46197" lon="4.34272">
        <ele>128.6</ele>
        <time>2022-06-10T16:10:54Z</time>
      </trkpt>
      <trkpt lat="44.46191" lon="4.3427">
        <ele>128.6</ele>
        <time>2022-06-10T16:10:55Z</time>
      </trkpt>
      <trkpt lat="44.46185" lon="4.34269">
        <ele>128.7</ele>
        <time>2022-06-10T16:10:56Z</time>
      </trkpt>
      <trkpt lat="44.46179" lon="4.34267">
        <ele>128.7</ele>
        <time>2022-06-10T16:10:57Z</time>
      </trkpt>
      <trkpt lat="44.46173" lon="4.34264">
        <ele>128.7</ele>
        <time>2022-06-10T16:10:58Z</time>
      </trkpt>
      <trkpt lat="44.46167" lon="4.34262">
        <ele>128.7</ele>
        <time>2022-06-10T16:10:59Z</time>
      </trkpt>
      <trkpt lat="44.46161" lon="4.3426">
        <ele>128.7</ele>
        <time>2022-06-10T16:11:00Z</time>
      </trkpt>
      <trkpt lat="44.46155" lon="4.34259">
        <ele>128.6</ele>
        <time>2022-06-10T16:11:01Z</time>
      </trkpt>
      <trkpt lat="44.46149" lon="4.34258">
        <ele>128.6</ele>
        <time>2022-06-10T16:11:02Z</time>
      </trkpt>
      <trkpt lat="44.46142" lon="4.34256">
        <ele>128.6</ele>
        <time>2022-06-10T16:11:03Z</time>
      </trkpt>
      <trkpt lat="44.46136" lon="4.34254">
        <ele>128.6</ele>
        <time>2022-06-10T16:11:04Z</time>
      </trkpt>
      <trkpt lat="44.4613" lon="4.34253">
        <ele>128.6</ele>
        <time>2022-06-10T16:11:05Z</time>
      </trkpt>
      <trkpt lat="44.46124" lon="4.34251">
        <ele>128.5</ele>
        <time>2022-06-10T16:11:06Z</time>
      </trkpt>
      <trkpt lat="44.46118" lon="4.34249">
        <ele>128.5</ele>
        <time>2022-06-10T16:11:07Z</time>
      </trkpt>
      <trkpt lat="44.46112" lon="4.34247">
        <ele>128.4</ele>
        <time>2022-06-10T16:11:08Z</time>
      </trkpt>
      <trkpt lat="44.46105" lon="4.34245">
        <ele>128.3</ele>
        <time>2022-06-10T16:11:09Z</time>
      </trkpt>
      <trkpt lat="44.46099" lon="4.34244">
        <ele>128.2</ele>
        <time>2022-06-10T16:11:10Z</time>
      </trkpt>
      <trkpt lat="44.46092" lon="4.34242">
        <ele>128.2</ele>
        <time>2022-06-10T16:11:11Z</time>
      </trkpt>
      <trkpt lat="44.46086" lon="4.34241">
        <ele>128.1</ele>
        <time>2022-06-10T16:11:12Z</time>
      </trkpt>
      <trkpt lat="44.46079" lon="4.34239">
        <ele>128</ele>
        <time>2022-06-10T16:11:13Z</time>
      </trkpt>
      <trkpt lat="44.46073" lon="4.34238">
        <ele>127.9</ele>
        <time>2022-06-10T16:11:14Z</time>
      </trkpt>
      <trkpt lat="44.46066" lon="4.34235">
        <ele>127.8</ele>
        <time>2022-06-10T16:11:15Z</time>
      </trkpt>
      <trkpt lat="44.4606" lon="4.34234">
        <ele>127.7</ele>
        <time>2022-06-10T16:11:16Z</time>
      </trkpt>
      <trkpt lat="44.46053" lon="4.34232">
        <ele>127.5</ele>
        <time>2022-06-10T16:11:17Z</time>
      </trkpt>
      <trkpt lat="44.46046" lon="4.34231">
        <ele>127.3</ele>
        <time>2022-06-10T16:11:18Z</time>
      </trkpt>
      <trkpt lat="44.46039" lon="4.34229">
        <ele>127.1</ele>
        <time>2022-06-10T16:11:19Z</time>
      </trkpt>
      <trkpt lat="44.46031" lon="4.34227">
        <ele>126.9</ele>
        <time>2022-06-10T16:11:20Z</time>
      </trkpt>
      <trkpt lat="44.46024" lon="4.34225">
        <ele>126.7</ele>
        <time>2022-06-10T16:11:21Z</time>
      </trkpt>
      <trkpt lat="44.46017" lon="4.34225">
        <ele>126.6</ele>
        <time>2022-06-10T16:11:22Z</time>
      </trkpt>
      <trkpt lat="44.46009" lon="4.34224">
        <ele>126.4</ele>
        <time>2022-06-10T16:11:23Z</time>
      </trkpt>
      <trkpt lat="44.46002" lon="4.34224">
        <ele>126.3</ele>
        <time>2022-06-10T16:11:24Z</time>
      </trkpt>
      <trkpt lat="44.45994" lon="4.34223">
        <ele>126.1</ele>
        <time>2022-06-10T16:11:25Z</time>
      </trkpt>
      <trkpt lat="44.45986" lon="4.34222">
        <ele>126</ele>
        <time>2022-06-10T16:11:26Z</time>
      </trkpt>
      <trkpt lat="44.45979" lon="4.34222">
        <ele>125.9</ele>
        <time>2022-06-10T16:11:27Z</time>
      </trkpt>
      <trkpt lat="44.45971" lon="4.34221">
        <ele>125.8</ele>
        <time>2022-06-10T16:11:28Z</time>
      </trkpt>
      <trkpt lat="44.45964" lon="4.34221">
        <ele>125.7</ele>
        <time>2022-06-10T16:11:29Z</time>
      </trkpt>
      <trkpt lat="44.45956" lon="4.34221">
        <ele>125.6</ele>
        <time>2022-06-10T16:11:30Z</time>
      </trkpt>
      <trkpt lat="44.45949" lon="4.34221">
        <ele>125.5</ele>
        <time>2022-06-10T16:11:31Z</time>
      </trkpt>
      <trkpt lat="44.45941" lon="4.34221">
        <ele>125.4</ele>
        <time>2022-06-10T16:11:32Z</time>
      </trkpt>
      <trkpt lat="44.45933" lon="4.34221">
        <ele>125.3</ele>
        <time>2022-06-10T16:11:33Z</time>
      </trkpt>
      <trkpt lat="44.45926" lon="4.34221">
        <ele>125.2</ele>
        <time>2022-06-10T16:11:34Z</time>
      </trkpt>
      <trkpt lat="44.45918" lon="4.34221">
        <ele>125.1</ele>
        <time>2022-06-10T16:11:35Z</time>
      </trkpt>
      <trkpt lat="44.4591" lon="4.34221">
        <ele>125</ele>
        <time>2022-06-10T16:11:36Z</time>
      </trkpt>
      <trkpt lat="44.45903" lon="4.34221">
        <ele>125</ele>
        <time>2022-06-10T16:11:37Z</time>
      </trkpt>
      <trkpt lat="44.45896" lon="4.34221">
        <ele>124.9</ele>
        <time>2022-06-10T16:11:38Z</time>
      </trkpt>
      <trkpt lat="44.45888" lon="4.34221">
        <ele>124.9</ele>
        <time>2022-06-10T16:11:39Z</time>
      </trkpt>
      <trkpt lat="44.45881" lon="4.3422">
        <ele>124.8</ele>
        <time>2022-06-10T16:11:40Z</time>
      </trkpt>
      <trkpt lat="44.45874" lon="4.3422">
        <ele>124.8</ele>
        <time>2022-06-10T16:11:41Z</time>
      </trkpt>
      <trkpt lat="44.45867" lon="4.34221">
        <ele>124.8</ele>
        <time>2022-06-10T16:11:42Z</time>
      </trkpt>
      <trkpt lat="44.45859" lon="4.34221">
        <ele>124.8</ele>
        <time>2022-06-10T16:11:43Z</time>
      </trkpt>
      <trkpt lat="44.45852" lon="4.34221">
        <ele>124.8</ele>
        <time>2022-06-10T16:11:44Z</time>
      </trkpt>
      <trkpt lat="44.45845" lon="4.34221">
        <ele>124.8</ele>
        <time>2022-06-10T16:11:45Z</time>
      </trkpt>
      <trkpt lat="44.45838" lon="4.34221">
        <ele>124.8</ele>
        <time>2022-06-10T16:11:46Z</time>
      </trkpt>
      <trkpt lat="44.45831" lon="4.34221">
        <ele>124.9</ele>
        <time>2022-06-10T16:11:47Z</time>
      </trkpt>
      <trkpt lat="44.45824" lon="4.34221">
        <ele>124.9</ele>
        <time>2022-06-10T16:11:48Z</time>
      </trkpt>
      <trkpt lat="44.45818" lon="4.34221">
        <ele>124.9</ele>
        <time>2022-06-10T16:11:49Z</time>
      </trkpt>
      <trkpt lat="44.45814" lon="4.34222">
        <ele>124.9</ele>
        <time>2022-06-10T16:11:50Z</time>
      </trkpt>
      <trkpt lat="44.45812" lon="4.34224">
        <ele>124.9</ele>
        <time>2022-06-10T16:11:51Z</time>
      </trkpt>
      <trkpt lat="44.45811" lon="4.34226">
        <ele>124.9</ele>
        <time>2022-06-10T16:11:52Z</time>
      </trkpt>
      <trkpt lat="44.45809" lon="4.34228">
        <ele>124.9</ele>
        <time>2022-06-10T16:11:53Z</time>
      </trkpt>
      <trkpt lat="44.45807" lon="4.34229">
        <ele>124.9</ele>
        <time>2022-06-10T16:11:54Z</time>
      </trkpt>
      <trkpt lat="44.45806" lon="4.34229">
        <ele>124.9</ele>
        <time>2022-06-10T16:11:55Z</time>
      </trkpt>
      <trkpt lat="44.45804" lon="4.34232">
        <ele>124.9</ele>
        <time>2022-06-10T16:11:56Z</time>
      </trkpt>
      <trkpt lat="44.45803" lon="4.34233">
        <ele>124.9</ele>
        <time>2022-06-10T16:11:57Z</time>
      </trkpt>
      <trkpt lat="44.45803" lon="4.34232">
        <ele>124.9</ele>
        <time>2022-06-10T16:11:58Z</time>
      </trkpt>
      <trkpt lat="44.45803" lon="4.34232">
        <ele>124.9</ele>
        <time>2022-06-10T16:11:59Z</time>
      </trkpt>
      <trkpt lat="44.45804" lon="4.34232">
        <ele>124.9</ele>
        <time>2022-06-10T16:12:00Z</time>
      </trkpt>
      <trkpt lat="44.45804" lon="4.34232">
        <ele>124.9</ele>
        <time>2022-06-10T16:12:01Z</time>
      </trkpt>
      <trkpt lat="44.45804" lon="4.34232">
        <ele>124.9</ele>
        <time>2022-06-10T16:12:02Z</time>
      </trkpt>
      <trkpt lat="44.45804" lon="4.34232">
        <ele>124.9</ele>
        <time>2022-06-10T16:12:03Z</time>
      </trkpt>
      <trkpt lat="44.45804" lon="4.34232">
        <ele>124.9</ele>
        <time>2022-06-10T16:12:04Z</time>
      </trkpt>
      <trkpt lat="44.45804" lon="4.34232">
        <ele>124.9</ele>
        <time>2022-06-10T16:12:05Z</time>
      </trkpt>
      <trkpt lat="44.45804" lon="4.34232">
        <ele>124.9</ele>
        <time>2022-06-10T16:12:06Z</time>
      </trkpt>
      <trkpt lat="44.45804" lon="4.34232">
        <ele>124.9</ele>
        <time>2022-06-10T16:12:07Z</time>
      </trkpt>
      <trkpt lat="44.45804" lon="4.34232">
        <ele>124.9</ele>
        <time>2022-06-10T16:12:08Z</time>
      </trkpt>
      <trkpt lat="44.45802" lon="4.34229">
        <ele>124.9</ele>
        <time>2022-06-10T16:12:20Z</time>
      </trkpt>
      <trkpt lat="44.45802" lon="4.34226">
        <ele>124.9</ele>
        <time>2022-06-10T16:12:21Z</time>
      </trkpt>
      <trkpt lat="44.45802" lon="4.34224">
        <ele>124.9</ele>
        <time>2022-06-10T16:12:22Z</time>
      </trkpt>
      <trkpt lat="44.45801" lon="4.3422">
        <ele>124.9</ele>
        <time>2022-06-10T16:12:23Z</time>
      </trkpt>
      <trkpt lat="44.45799" lon="4.34215">
        <ele>124.9</ele>
        <time>2022-06-10T16:12:24Z</time>
      </trkpt>
      <trkpt lat="44.45798" lon="4.34214">
        <ele>124.9</ele>
        <time>2022-06-10T16:12:25Z</time>
      </trkpt>
      <trkpt lat="44.45796" lon="4.34212">
        <ele>124.9</ele>
        <time>2022-06-10T16:12:26Z</time>
      </trkpt>
      <trkpt lat="44.45793" lon="4.3421">
        <ele>124.9</ele>
        <time>2022-06-10T16:12:27Z</time>
      </trkpt>
      <trkpt lat="44.45791" lon="4.34209">
        <ele>124.9</ele>
        <time>2022-06-10T16:12:28Z</time>
      </trkpt>
      <trkpt lat="44.45789" lon="4.34209">
        <ele>124.9</ele>
        <time>2022-06-10T16:12:29Z</time>
      </trkpt>
      <trkpt lat="44.45787" lon="4.34209">
        <ele>124.9</ele>
        <time>2022-06-10T16:12:30Z</time>
      </trkpt>
      <trkpt lat="44.45786" lon="4.3421">
        <ele>124.9</ele>
        <time>2022-06-10T16:12:31Z</time>
      </trkpt>
      <trkpt lat="44.45786" lon="4.3421">
        <ele>124.9</ele>
        <time>2022-06-10T16:12:32Z</time>
      </trkpt>
      <trkpt lat="44.45786" lon="4.3421">
        <ele>124.9</ele>
        <time>2022-06-10T16:12:33Z</time>
      </trkpt>
      <trkpt lat="44.45786" lon="4.3421">
        <ele>124.9</ele>
        <time>2022-06-10T16:12:34Z</time>
      </trkpt>
      <trkpt lat="44.45787" lon="4.3421">
        <ele>124.9</ele>
        <time>2022-06-10T16:12:35Z</time>
      </trkpt>
      <trkpt lat="44.45787" lon="4.3421">
        <ele>124.9</ele>
        <time>2022-06-10T16:12:36Z</time>
      </trkpt>
      <trkpt lat="44.45785" lon="4.34211">
        <ele>124.9</ele>
        <time>2022-06-10T16:12:37Z</time>
      </trkpt>
      <trkpt lat="44.45785" lon="4.34212">
        <ele>124.9</ele>
        <time>2022-06-10T16:12:38Z</time>
      </trkpt>
      <trkpt lat="44.45785" lon="4.34213">
        <ele>124.9</ele>
        <time>2022-06-10T16:12:39Z</time>
      </trkpt>
      <trkpt lat="44.45784" lon="4.34215">
        <ele>124.9</ele>
        <time>2022-06-10T16:12:40Z</time>
      </trkpt>
      <trkpt lat="44.45784" lon="4.34216">
        <ele>124.9</ele>
        <time>2022-06-10T16:12:41Z</time>
      </trkpt>
      <trkpt lat="44.45784" lon="4.34217">
        <ele>124.9</ele>
        <time>2022-06-10T16:12:42Z</time>
      </trkpt>
      <trkpt lat="44.45784" lon="4.34219">
        <ele>124.9</ele>
        <time>2022-06-10T16:13:52Z</time>
      </trkpt>
      <trkpt lat="44.45784" lon="4.3422">
        <ele>124.9</ele>
        <time>2022-06-10T16:13:53Z</time>
      </trkpt>
      <trkpt lat="44.45784" lon="4.34221">
        <ele>124.9</ele>
        <time>2022-06-10T16:13:54Z</time>
      </trkpt>
      <trkpt lat="44.45785" lon="4.34225">
        <ele>124.9</ele>
        <time>2022-06-10T16:13:55Z</time>
      </trkpt>
      <trkpt lat="44.45787" lon="4.34228">
        <ele>124.9</ele>
        <time>2022-06-10T16:13:56Z</time>
      </trkpt>
      <trkpt lat="44.45789" lon="4.34231">
        <ele>125</ele>
        <time>2022-06-10T16:13:57Z</time>
      </trkpt>
      <trkpt lat="44.45792" lon="4.34233">
        <ele>125</ele>
        <time>2022-06-10T16:13:58Z</time>
      </trkpt>
      <trkpt lat="44.45795" lon="4.34235">
        <ele>125</ele>
        <time>2022-06-10T16:13:59Z</time>
      </trkpt>
      <trkpt lat="44.45796" lon="4.34236">
        <ele>125</ele>
        <time>2022-06-10T16:14:00Z</time>
      </trkpt>
      <trkpt lat="44.45799" lon="4.34239">
        <ele>125.1</ele>
        <time>2022-06-10T16:14:01Z</time>
      </trkpt>
      <trkpt lat="44.458" lon="4.3424">
        <ele>125.1</ele>
        <time>2022-06-10T16:14:02Z</time>
      </trkpt>
      <trkpt lat="44.45798" lon="4.34244">
        <ele>125.1</ele>
        <time>2022-06-10T16:14:03Z</time>
      </trkpt>
      <trkpt lat="44.45797" lon="4.34245">
        <ele>125.1</ele>
        <time>2022-06-10T16:14:04Z</time>
      </trkpt>
      <trkpt lat="44.45796" lon="4.34246">
        <ele>125.1</ele>
        <time>2022-06-10T16:14:05Z</time>
      </trkpt>
      <trkpt lat="44.45795" lon="4.34244">
        <ele>125.1</ele>
        <time>2022-06-10T16:14:06Z</time>
      </trkpt>
      <trkpt lat="44.45792" lon="4.34242">
        <ele>125.2</ele>
        <time>2022-06-10T16:14:07Z</time>
      </trkpt>
      <trkpt lat="44.45791" lon="4.34242">
        <ele>125.3</ele>
        <time>2022-06-10T16:14:08Z</time>
      </trkpt>
      <trkpt lat="44.45789" lon="4.3424">
        <ele>125.3</ele>
        <time>2022-06-10T16:14:09Z</time>
      </trkpt>
      <trkpt lat="44.45785" lon="4.34237">
        <ele>125.5</ele>
        <time>2022-06-10T16:14:11Z</time>
      </trkpt>
      <trkpt lat="44.45782" lon="4.34234">
        <ele>125.7</ele>
        <time>2022-06-10T16:14:12Z</time>
      </trkpt>
      <trkpt lat="44.45781" lon="4.34234">
        <ele>125.7</ele>
        <time>2022-06-10T16:14:13Z</time>
      </trkpt>
      <trkpt lat="44.45776" lon="4.34231">
        <ele>126</ele>
        <time>2022-06-10T16:14:14Z</time>
      </trkpt>
      <trkpt lat="44.45774" lon="4.34229">
        <ele>126.1</ele>
        <time>2022-06-10T16:14:15Z</time>
      </trkpt>
      <trkpt lat="44.45769" lon="4.34229">
        <ele>126.3</ele>
        <time>2022-06-10T16:14:17Z</time>
      </trkpt>
      <trkpt lat="44.45768" lon="4.34229">
        <ele>126.3</ele>
        <time>2022-06-10T16:14:18Z</time>
      </trkpt>
      <trkpt lat="44.45766" lon="4.34229">
        <ele>126.4</ele>
        <time>2022-06-10T16:14:19Z</time>
      </trkpt>
      <trkpt lat="44.45764" lon="4.34231">
        <ele>126.5</ele>
        <time>2022-06-10T16:14:20Z</time>
      </trkpt>
      <trkpt lat="44.45761" lon="4.34232">
        <ele>126.6</ele>
        <time>2022-06-10T16:14:21Z</time>
      </trkpt>
      <trkpt lat="44.45758" lon="4.34233">
        <ele>126.7</ele>
        <time>2022-06-10T16:14:22Z</time>
      </trkpt>
      <trkpt lat="44.45754" lon="4.34233">
        <ele>126.8</ele>
        <time>2022-06-10T16:14:23Z</time>
      </trkpt>
      <trkpt lat="44.45751" lon="4.34234">
        <ele>126.8</ele>
        <time>2022-06-10T16:14:24Z</time>
      </trkpt>
      <trkpt lat="44.45749" lon="4.34236">
        <ele>126.8</ele>
        <time>2022-06-10T16:14:25Z</time>
      </trkpt>
      <trkpt lat="44.45746" lon="4.34238">
        <ele>126.9</ele>
        <time>2022-06-10T16:14:26Z</time>
      </trkpt>
      <trkpt lat="44.45742" lon="4.34239">
        <ele>126.9</ele>
        <time>2022-06-10T16:14:27Z</time>
      </trkpt>
      <trkpt lat="44.45737" lon="4.34239">
        <ele>126.9</ele>
        <time>2022-06-10T16:14:28Z</time>
      </trkpt>
      <trkpt lat="44.45732" lon="4.34241">
        <ele>126.8</ele>
        <time>2022-06-10T16:14:30Z</time>
      </trkpt>
      <trkpt lat="44.45728" lon="4.34243">
        <ele>126.8</ele>
        <time>2022-06-10T16:14:31Z</time>
      </trkpt>
      <trkpt lat="44.45722" lon="4.34246">
        <ele>126.7</ele>
        <time>2022-06-10T16:14:32Z</time>
      </trkpt>
      <trkpt lat="44.45717" lon="4.34249">
        <ele>126.7</ele>
        <time>2022-06-10T16:14:33Z</time>
      </trkpt>
      <trkpt lat="44.45712" lon="4.3425">
        <ele>126.6</ele>
        <time>2022-06-10T16:14:34Z</time>
      </trkpt>
      <trkpt lat="44.45707" lon="4.34252">
        <ele>126.6</ele>
        <time>2022-06-10T16:14:35Z</time>
      </trkpt>
      <trkpt lat="44.45702" lon="4.34254">
        <ele>126.5</ele>
        <time>2022-06-10T16:14:36Z</time>
      </trkpt>
      <trkpt lat="44.45697" lon="4.34256">
        <ele>126.5</ele>
        <time>2022-06-10T16:14:37Z</time>
      </trkpt>
      <trkpt lat="44.45692" lon="4.34258">
        <ele>126.4</ele>
        <time>2022-06-10T16:14:38Z</time>
      </trkpt>
      <trkpt lat="44.45687" lon="4.34261">
        <ele>126.4</ele>
        <time>2022-06-10T16:14:39Z</time>
      </trkpt>
      <trkpt lat="44.45682" lon="4.34263">
        <ele>126.4</ele>
        <time>2022-06-10T16:14:40Z</time>
      </trkpt>
      <trkpt lat="44.45677" lon="4.34265">
        <ele>126.3</ele>
        <time>2022-06-10T16:14:41Z</time>
      </trkpt>
      <trkpt lat="44.45672" lon="4.34267">
        <ele>126.3</ele>
        <time>2022-06-10T16:14:42Z</time>
      </trkpt>
      <trkpt lat="44.45667" lon="4.3427">
        <ele>126.3</ele>
        <time>2022-06-10T16:14:43Z</time>
      </trkpt>
      <trkpt lat="44.45661" lon="4.34273">
        <ele>126.2</ele>
        <time>2022-06-10T16:14:44Z</time>
      </trkpt>
      <trkpt lat="44.45656" lon="4.34275">
        <ele>126.2</ele>
        <time>2022-06-10T16:14:45Z</time>
      </trkpt>
      <trkpt lat="44.45651" lon="4.34277">
        <ele>126.2</ele>
        <time>2022-06-10T16:14:46Z</time>
      </trkpt>
      <trkpt lat="44.45645" lon="4.34281">
        <ele>126.2</ele>
        <time>2022-06-10T16:14:47Z</time>
      </trkpt>
      <trkpt lat="44.4564" lon="4.34284">
        <ele>126.2</ele>
        <time>2022-06-10T16:14:48Z</time>
      </trkpt>
      <trkpt lat="44.45634" lon="4.34287">
        <ele>126.2</ele>
        <time>2022-06-10T16:14:49Z</time>
      </trkpt>
      <trkpt lat="44.45629" lon="4.3429">
        <ele>126.2</ele>
        <time>2022-06-10T16:14:50Z</time>
      </trkpt>
      <trkpt lat="44.45624" lon="4.34293">
        <ele>126.2</ele>
        <time>2022-06-10T16:14:51Z</time>
      </trkpt>
      <trkpt lat="44.45619" lon="4.34296">
        <ele>126.2</ele>
        <time>2022-06-10T16:14:52Z</time>
      </trkpt>
      <trkpt lat="44.45614" lon="4.34299">
        <ele>126.2</ele>
        <time>2022-06-10T16:14:53Z</time>
      </trkpt>
      <trkpt lat="44.45609" lon="4.34302">
        <ele>126.2</ele>
        <time>2022-06-10T16:14:54Z</time>
      </trkpt>
      <trkpt lat="44.45604" lon="4.34305">
        <ele>126.2</ele>
        <time>2022-06-10T16:14:55Z</time>
      </trkpt>
      <trkpt lat="44.45599" lon="4.34308">
        <ele>126.2</ele>
        <time>2022-06-10T16:14:56Z</time>
      </trkpt>
      <trkpt lat="44.45594" lon="4.34311">
        <ele>126.2</ele>
        <time>2022-06-10T16:14:57Z</time>
      </trkpt>
      <trkpt lat="44.45589" lon="4.34315">
        <ele>126.2</ele>
        <time>2022-06-10T16:14:58Z</time>
      </trkpt>
      <trkpt lat="44.45584" lon="4.34318">
        <ele>126.2</ele>
        <time>2022-06-10T16:14:59Z</time>
      </trkpt>
      <trkpt lat="44.45579" lon="4.34321">
        <ele>126.3</ele>
        <time>2022-06-10T16:15:00Z</time>
      </trkpt>
      <trkpt lat="44.45574" lon="4.34324">
        <ele>126.3</ele>
        <time>2022-06-10T16:15:01Z</time>
      </trkpt>
      <trkpt lat="44.4557" lon="4.34328">
        <ele>126.4</ele>
        <time>2022-06-10T16:15:02Z</time>
      </trkpt>
      <trkpt lat="44.45566" lon="4.34332">
        <ele>126.4</ele>
        <time>2022-06-10T16:15:03Z</time>
      </trkpt>
      <trkpt lat="44.45561" lon="4.34335">
        <ele>126.5</ele>
        <time>2022-06-10T16:15:04Z</time>
      </trkpt>
      <trkpt lat="44.45558" lon="4.34338">
        <ele>126.5</ele>
        <time>2022-06-10T16:15:05Z</time>
      </trkpt>
      <trkpt lat="44.45555" lon="4.34339">
        <ele>126.6</ele>
        <time>2022-06-10T16:15:06Z</time>
      </trkpt>
      <trkpt lat="44.45552" lon="4.34341">
        <ele>126.6</ele>
        <time>2022-06-10T16:15:07Z</time>
      </trkpt>
      <trkpt lat="44.45551" lon="4.34342">
        <ele>126.6</ele>
        <time>2022-06-10T16:15:08Z</time>
      </trkpt>
      <trkpt lat="44.45548" lon="4.34344">
        <ele>126.6</ele>
        <time>2022-06-10T16:15:09Z</time>
      </trkpt>
      <trkpt lat="44.45547" lon="4.34345">
        <ele>126.6</ele>
        <time>2022-06-10T16:15:10Z</time>
      </trkpt>
      <trkpt lat="44.45544" lon="4.34349">
        <ele>126.7</ele>
        <time>2022-06-10T16:15:11Z</time>
      </trkpt>
      <trkpt lat="44.45542" lon="4.3435">
        <ele>126.6</ele>
        <time>2022-06-10T16:15:12Z</time>
      </trkpt>
      <trkpt lat="44.45542" lon="4.34356">
        <ele>126.5</ele>
        <time>2022-06-10T16:15:13Z</time>
      </trkpt>
      <trkpt lat="44.45539" lon="4.34361">
        <ele>126.5</ele>
        <time>2022-06-10T16:15:15Z</time>
      </trkpt>
      <trkpt lat="44.45536" lon="4.34362">
        <ele>126.4</ele>
        <time>2022-06-10T16:15:16Z</time>
      </trkpt>
      <trkpt lat="44.45533" lon="4.34364">
        <ele>126.3</ele>
        <time>2022-06-10T16:15:17Z</time>
      </trkpt>
      <trkpt lat="44.45527" lon="4.34368">
        <ele>126.2</ele>
        <time>2022-06-10T16:15:18Z</time>
      </trkpt>
      <trkpt lat="44.4552" lon="4.34375">
        <ele>126</ele>
        <time>2022-06-10T16:15:20Z</time>
      </trkpt>
      <trkpt lat="44.45516" lon="4.34378">
        <ele>125.9</ele>
        <time>2022-06-10T16:15:21Z</time>
      </trkpt>
      <trkpt lat="44.45511" lon="4.34382">
        <ele>125.8</ele>
        <time>2022-06-10T16:15:22Z</time>
      </trkpt>
      <trkpt lat="44.45507" lon="4.34386">
        <ele>125.8</ele>
        <time>2022-06-10T16:15:23Z</time>
      </trkpt>
      <trkpt lat="44.45502" lon="4.3439">
        <ele>125.7</ele>
        <time>2022-06-10T16:15:24Z</time>
      </trkpt>
      <trkpt lat="44.45498" lon="4.34394">
        <ele>125.7</ele>
        <time>2022-06-10T16:15:25Z</time>
      </trkpt>
      <trkpt lat="44.45493" lon="4.34398">
        <ele>125.6</ele>
        <time>2022-06-10T16:15:26Z</time>
      </trkpt>
      <trkpt lat="44.45489" lon="4.34402">
        <ele>125.6</ele>
        <time>2022-06-10T16:15:27Z</time>
      </trkpt>
      <trkpt lat="44.45484" lon="4.34406">
        <ele>125.6</ele>
        <time>2022-06-10T16:15:28Z</time>
      </trkpt>
      <trkpt lat="44.45479" lon="4.3441">
        <ele>125.6</ele>
        <time>2022-06-10T16:15:29Z</time>
      </trkpt>
      <trkpt lat="44.45475" lon="4.34414">
        <ele>125.5</ele>
        <time>2022-06-10T16:15:30Z</time>
      </trkpt>
      <trkpt lat="44.4547" lon="4.34418">
        <ele>125.5</ele>
        <time>2022-06-10T16:15:31Z</time>
      </trkpt>
      <trkpt lat="44.45465" lon="4.34423">
        <ele>125.5</ele>
        <time>2022-06-10T16:15:32Z</time>
      </trkpt>
      <trkpt lat="44.45461" lon="4.34427">
        <ele>125.5</ele>
        <time>2022-06-10T16:15:33Z</time>
      </trkpt>
      <trkpt lat="44.45456" lon="4.34431">
        <ele>125.4</ele>
        <time>2022-06-10T16:15:34Z</time>
      </trkpt>
      <trkpt lat="44.45451" lon="4.34435">
        <ele>125.4</ele>
        <time>2022-06-10T16:15:35Z</time>
      </trkpt>
      <trkpt lat="44.45446" lon="4.34439">
        <ele>125.4</ele>
        <time>2022-06-10T16:15:36Z</time>
      </trkpt>
      <trkpt lat="44.45441" lon="4.34443">
        <ele>125.3</ele>
        <time>2022-06-10T16:15:37Z</time>
      </trkpt>
      <trkpt lat="44.45436" lon="4.34447">
        <ele>125.3</ele>
        <time>2022-06-10T16:15:38Z</time>
      </trkpt>
      <trkpt lat="44.45431" lon="4.34451">
        <ele>125.3</ele>
        <time>2022-06-10T16:15:39Z</time>
      </trkpt>
      <trkpt lat="44.45427" lon="4.34455">
        <ele>125.2</ele>
        <time>2022-06-10T16:15:40Z</time>
      </trkpt>
      <trkpt lat="44.45422" lon="4.34459">
        <ele>125.2</ele>
        <time>2022-06-10T16:15:41Z</time>
      </trkpt>
      <trkpt lat="44.45417" lon="4.34463">
        <ele>125.2</ele>
        <time>2022-06-10T16:15:42Z</time>
      </trkpt>
      <trkpt lat="44.45412" lon="4.34467">
        <ele>125.1</ele>
        <time>2022-06-10T16:15:43Z</time>
      </trkpt>
      <trkpt lat="44.45407" lon="4.34471">
        <ele>125.1</ele>
        <time>2022-06-10T16:15:44Z</time>
      </trkpt>
      <trkpt lat="44.45402" lon="4.34475">
        <ele>125.1</ele>
        <time>2022-06-10T16:15:45Z</time>
      </trkpt>
      <trkpt lat="44.45398" lon="4.34479">
        <ele>125.1</ele>
        <time>2022-06-10T16:15:46Z</time>
      </trkpt>
      <trkpt lat="44.45393" lon="4.34483">
        <ele>125.1</ele>
        <time>2022-06-10T16:15:47Z</time>
      </trkpt>
      <trkpt lat="44.45387" lon="4.34487">
        <ele>125.1</ele>
        <time>2022-06-10T16:15:48Z</time>
      </trkpt>
      <trkpt lat="44.45382" lon="4.34491">
        <ele>125.1</ele>
        <time>2022-06-10T16:15:49Z</time>
      </trkpt>
      <trkpt lat="44.45377" lon="4.34496">
        <ele>125.1</ele>
        <time>2022-06-10T16:15:50Z</time>
      </trkpt>
      <trkpt lat="44.45372" lon="4.345">
        <ele>125</ele>
        <time>2022-06-10T16:15:51Z</time>
      </trkpt>
      <trkpt lat="44.45367" lon="4.34505">
        <ele>125</ele>
        <time>2022-06-10T16:15:52Z</time>
      </trkpt>
      <trkpt lat="44.45362" lon="4.3451">
        <ele>124.9</ele>
        <time>2022-06-10T16:15:53Z</time>
      </trkpt>
      <trkpt lat="44.45357" lon="4.34514">
        <ele>124.9</ele>
        <time>2022-06-10T16:15:54Z</time>
      </trkpt>
      <trkpt lat="44.45351" lon="4.34519">
        <ele>124.8</ele>
        <time>2022-06-10T16:15:55Z</time>
      </trkpt>
      <trkpt lat="44.45345" lon="4.34524">
        <ele>124.8</ele>
        <time>2022-06-10T16:15:56Z</time>
      </trkpt>
      <trkpt lat="44.4534" lon="4.34528">
        <ele>124.8</ele>
        <time>2022-06-10T16:15:57Z</time>
      </trkpt>
      <trkpt lat="44.45335" lon="4.34533">
        <ele>124.7</ele>
        <time>2022-06-10T16:15:58Z</time>
      </trkpt>
      <trkpt lat="44.45329" lon="4.34537">
        <ele>124.7</ele>
        <time>2022-06-10T16:15:59Z</time>
      </trkpt>
      <trkpt lat="44.45324" lon="4.34542">
        <ele>124.7</ele>
        <time>2022-06-10T16:16:00Z</time>
      </trkpt>
      <trkpt lat="44.45318" lon="4.34547">
        <ele>124.7</ele>
        <time>2022-06-10T16:16:01Z</time>
      </trkpt>
      <trkpt lat="44.45313" lon="4.34552">
        <ele>124.7</ele>
        <time>2022-06-10T16:16:02Z</time>
      </trkpt>
      <trkpt lat="44.45307" lon="4.34557">
        <ele>124.7</ele>
        <time>2022-06-10T16:16:03Z</time>
      </trkpt>
      <trkpt lat="44.45302" lon="4.34561">
        <ele>124.7</ele>
        <time>2022-06-10T16:16:04Z</time>
      </trkpt>
      <trkpt lat="44.45296" lon="4.34566">
        <ele>124.7</ele>
        <time>2022-06-10T16:16:05Z</time>
      </trkpt>
      <trkpt lat="44.4529" lon="4.3457">
        <ele>124.7</ele>
        <time>2022-06-10T16:16:06Z</time>
      </trkpt>
      <trkpt lat="44.45285" lon="4.34574">
        <ele>124.7</ele>
        <time>2022-06-10T16:16:07Z</time>
      </trkpt>
      <trkpt lat="44.45279" lon="4.34578">
        <ele>124.7</ele>
        <time>2022-06-10T16:16:08Z</time>
      </trkpt>
      <trkpt lat="44.45274" lon="4.34583">
        <ele>124.7</ele>
        <time>2022-06-10T16:16:09Z</time>
      </trkpt>
      <trkpt lat="44.45268" lon="4.34587">
        <ele>124.8</ele>
        <time>2022-06-10T16:16:10Z</time>
      </trkpt>
      <trkpt lat="44.45262" lon="4.34592">
        <ele>124.8</ele>
        <time>2022-06-10T16:16:11Z</time>
      </trkpt>
      <trkpt lat="44.45257" lon="4.34597">
        <ele>124.8</ele>
        <time>2022-06-10T16:16:12Z</time>
      </trkpt>
      <trkpt lat="44.45251" lon="4.34601">
        <ele>124.8</ele>
        <time>2022-06-10T16:16:13Z</time>
      </trkpt>
      <trkpt lat="44.45246" lon="4.34607">
        <ele>124.8</ele>
        <time>2022-06-10T16:16:14Z</time>
      </trkpt>
      <trkpt lat="44.45241" lon="4.34613">
        <ele>124.9</ele>
        <time>2022-06-10T16:16:15Z</time>
      </trkpt>
      <trkpt lat="44.45236" lon="4.34618">
        <ele>124.8</ele>
        <time>2022-06-10T16:16:16Z</time>
      </trkpt>
      <trkpt lat="44.45231" lon="4.34624">
        <ele>124.8</ele>
        <time>2022-06-10T16:16:17Z</time>
      </trkpt>
      <trkpt lat="44.45227" lon="4.34629">
        <ele>124.8</ele>
        <time>2022-06-10T16:16:18Z</time>
      </trkpt>
      <trkpt lat="44.45222" lon="4.34632">
        <ele>124.7</ele>
        <time>2022-06-10T16:16:19Z</time>
      </trkpt>
      <trkpt lat="44.45217" lon="4.34637">
        <ele>124.6</ele>
        <time>2022-06-10T16:16:20Z</time>
      </trkpt>
      <trkpt lat="44.45212" lon="4.34641">
        <ele>124.6</ele>
        <time>2022-06-10T16:16:21Z</time>
      </trkpt>
      <trkpt lat="44.45207" lon="4.34646">
        <ele>124.5</ele>
        <time>2022-06-10T16:16:22Z</time>
      </trkpt>
      <trkpt lat="44.45202" lon="4.34651">
        <ele>124.5</ele>
        <time>2022-06-10T16:16:23Z</time>
      </trkpt>
      <trkpt lat="44.45196" lon="4.34655">
        <ele>124.4</ele>
        <time>2022-06-10T16:16:24Z</time>
      </trkpt>
      <trkpt lat="44.45191" lon="4.34659">
        <ele>124.4</ele>
        <time>2022-06-10T16:16:25Z</time>
      </trkpt>
      <trkpt lat="44.45186" lon="4.34664">
        <ele>124.4</ele>
        <time>2022-06-10T16:16:26Z</time>
      </trkpt>
      <trkpt lat="44.45181" lon="4.34669">
        <ele>124.3</ele>
        <time>2022-06-10T16:16:27Z</time>
      </trkpt>
      <trkpt lat="44.45176" lon="4.34673">
        <ele>124.3</ele>
        <time>2022-06-10T16:16:28Z</time>
      </trkpt>
      <trkpt lat="44.4517" lon="4.34677">
        <ele>124.3</ele>
        <time>2022-06-10T16:16:29Z</time>
      </trkpt>
      <trkpt lat="44.45164" lon="4.34681">
        <ele>124.3</ele>
        <time>2022-06-10T16:16:30Z</time>
      </trkpt>
      <trkpt lat="44.45159" lon="4.34686">
        <ele>124.3</ele>
        <time>2022-06-10T16:16:31Z</time>
      </trkpt>
      <trkpt lat="44.45154" lon="4.34691">
        <ele>124.3</ele>
        <time>2022-06-10T16:16:32Z</time>
      </trkpt>
      <trkpt lat="44.45149" lon="4.34696">
        <ele>124.3</ele>
        <time>2022-06-10T16:16:33Z</time>
      </trkpt>
      <trkpt lat="44.45143" lon="4.347">
        <ele>124.4</ele>
        <time>2022-06-10T16:16:34Z</time>
      </trkpt>
      <trkpt lat="44.45138" lon="4.34704">
        <ele>124.5</ele>
        <time>2022-06-10T16:16:35Z</time>
      </trkpt>
      <trkpt lat="44.45135" lon="4.34707">
        <ele>124.6</ele>
        <time>2022-06-10T16:16:36Z</time>
      </trkpt>
      <trkpt lat="44.45133" lon="4.34707">
        <ele>124.6</ele>
        <time>2022-06-10T16:16:37Z</time>
      </trkpt>
      <trkpt lat="44.45132" lon="4.34706">
        <ele>124.6</ele>
        <time>2022-06-10T16:16:38Z</time>
      </trkpt>
      <trkpt lat="44.45132" lon="4.34704">
        <ele>124.7</ele>
        <time>2022-06-10T16:16:39Z</time>
      </trkpt>
      <trkpt lat="44.45132" lon="4.34703">
        <ele>124.7</ele>
        <time>2022-06-10T16:16:40Z</time>
      </trkpt>
      <trkpt lat="44.45131" lon="4.34701">
        <ele>124.8</ele>
        <time>2022-06-10T16:16:41Z</time>
      </trkpt>
      <trkpt lat="44.45131" lon="4.347">
        <ele>124.8</ele>
        <time>2022-06-10T16:16:42Z</time>
      </trkpt>
      <trkpt lat="44.4513" lon="4.34699">
        <ele>124.8</ele>
        <time>2022-06-10T16:16:43Z</time>
      </trkpt>
      <trkpt lat="44.4513" lon="4.34698">
        <ele>124.8</ele>
        <time>2022-06-10T16:16:44Z</time>
      </trkpt>
      <trkpt lat="44.45128" lon="4.34696">
        <ele>124.8</ele>
        <time>2022-06-10T16:16:45Z</time>
      </trkpt>
      <trkpt lat="44.45126" lon="4.34696">
        <ele>124.8</ele>
        <time>2022-06-10T16:16:46Z</time>
      </trkpt>
      <trkpt lat="44.45124" lon="4.34701">
        <ele>124.7</ele>
        <time>2022-06-10T16:16:48Z</time>
      </trkpt>
      <trkpt lat="44.45121" lon="4.34704">
        <ele>124.7</ele>
        <time>2022-06-10T16:16:49Z</time>
      </trkpt>
      <trkpt lat="44.45116" lon="4.34706">
        <ele>124.7</ele>
        <time>2022-06-10T16:16:51Z</time>
      </trkpt>
      <trkpt lat="44.45111" lon="4.34711">
        <ele>124.7</ele>
        <time>2022-06-10T16:16:53Z</time>
      </trkpt>
      <trkpt lat="44.45108" lon="4.34712">
        <ele>124.7</ele>
        <time>2022-06-10T16:16:54Z</time>
      </trkpt>
      <trkpt lat="44.45105" lon="4.34713">
        <ele>124.7</ele>
        <time>2022-06-10T16:16:55Z</time>
      </trkpt>
      <trkpt lat="44.45102" lon="4.34715">
        <ele>124.6</ele>
        <time>2022-06-10T16:16:56Z</time>
      </trkpt>
      <trkpt lat="44.45098" lon="4.34718">
        <ele>124.6</ele>
        <time>2022-06-10T16:16:57Z</time>
      </trkpt>
      <trkpt lat="44.45094" lon="4.34722">
        <ele>124.6</ele>
        <time>2022-06-10T16:16:58Z</time>
      </trkpt>
      <trkpt lat="44.45088" lon="4.34728">
        <ele>124.6</ele>
        <time>2022-06-10T16:16:59Z</time>
      </trkpt>
      <trkpt lat="44.45084" lon="4.34731">
        <ele>124.6</ele>
        <time>2022-06-10T16:17:01Z</time>
      </trkpt>
      <trkpt lat="44.4508" lon="4.34733">
        <ele>124.6</ele>
        <time>2022-06-10T16:17:02Z</time>
      </trkpt>
      <trkpt lat="44.45076" lon="4.34737">
        <ele>124.6</ele>
        <time>2022-06-10T16:17:03Z</time>
      </trkpt>
      <trkpt lat="44.45072" lon="4.3474">
        <ele>124.6</ele>
        <time>2022-06-10T16:17:04Z</time>
      </trkpt>
      <trkpt lat="44.45067" lon="4.34744">
        <ele>124.6</ele>
        <time>2022-06-10T16:17:05Z</time>
      </trkpt>
      <trkpt lat="44.45063" lon="4.34747">
        <ele>124.7</ele>
        <time>2022-06-10T16:17:06Z</time>
      </trkpt>
      <trkpt lat="44.45058" lon="4.3475">
        <ele>124.7</ele>
        <time>2022-06-10T16:17:07Z</time>
      </trkpt>
      <trkpt lat="44.45054" lon="4.34752">
        <ele>124.6</ele>
        <time>2022-06-10T16:17:08Z</time>
      </trkpt>
      <trkpt lat="44.45051" lon="4.34753">
        <ele>124.6</ele>
        <time>2022-06-10T16:17:09Z</time>
      </trkpt>
      <trkpt lat="44.45047" lon="4.34751">
        <ele>124.6</ele>
        <time>2022-06-10T16:17:10Z</time>
      </trkpt>
      <trkpt lat="44.45045" lon="4.34747">
        <ele>124.6</ele>
        <time>2022-06-10T16:17:11Z</time>
      </trkpt>
      <trkpt lat="44.45043" lon="4.34746">
        <ele>124.6</ele>
        <time>2022-06-10T16:17:13Z</time>
      </trkpt>
      <trkpt lat="44.45041" lon="4.34746">
        <ele>124.6</ele>
        <time>2022-06-10T16:17:14Z</time>
      </trkpt>
      <trkpt lat="44.45039" lon="4.34749">
        <ele>124.6</ele>
        <time>2022-06-10T16:17:15Z</time>
      </trkpt>
      <trkpt lat="44.45038" lon="4.34754">
        <ele>124.6</ele>
        <time>2022-06-10T16:17:16Z</time>
      </trkpt>
      <trkpt lat="44.45038" lon="4.34756">
        <ele>124.6</ele>
        <time>2022-06-10T16:17:17Z</time>
      </trkpt>
      <trkpt lat="44.45036" lon="4.34759">
        <ele>124.6</ele>
        <time>2022-06-10T16:17:18Z</time>
      </trkpt>
      <trkpt lat="44.45035" lon="4.34759">
        <ele>124.6</ele>
        <time>2022-06-10T16:17:19Z</time>
      </trkpt>
      <trkpt lat="44.45032" lon="4.34761">
        <ele>124.6</ele>
        <time>2022-06-10T16:17:20Z</time>
      </trkpt>
      <trkpt lat="44.4503" lon="4.34761">
        <ele>124.7</ele>
        <time>2022-06-10T16:17:21Z</time>
      </trkpt>
      <trkpt lat="44.45026" lon="4.34762">
        <ele>124.7</ele>
        <time>2022-06-10T16:17:22Z</time>
      </trkpt>
      <trkpt lat="44.45025" lon="4.34762">
        <ele>124.7</ele>
        <time>2022-06-10T16:17:23Z</time>
      </trkpt>
      <trkpt lat="44.45021" lon="4.34762">
        <ele>124.7</ele>
        <time>2022-06-10T16:17:24Z</time>
      </trkpt>
      <trkpt lat="44.45018" lon="4.34762">
        <ele>124.7</ele>
        <time>2022-06-10T16:17:25Z</time>
      </trkpt>
      <trkpt lat="44.45014" lon="4.34763">
        <ele>124.7</ele>
        <time>2022-06-10T16:17:26Z</time>
      </trkpt>
      <trkpt lat="44.45011" lon="4.34764">
        <ele>124.8</ele>
        <time>2022-06-10T16:17:27Z</time>
      </trkpt>
      <trkpt lat="44.45008" lon="4.34765">
        <ele>124.8</ele>
        <time>2022-06-10T16:17:28Z</time>
      </trkpt>
      <trkpt lat="44.45005" lon="4.34768">
        <ele>124.8</ele>
        <time>2022-06-10T16:17:29Z</time>
      </trkpt>
      <trkpt lat="44.45003" lon="4.34771">
        <ele>124.8</ele>
        <time>2022-06-10T16:17:30Z</time>
      </trkpt>
      <trkpt lat="44.45001" lon="4.34774">
        <ele>124.8</ele>
        <time>2022-06-10T16:17:31Z</time>
      </trkpt>
      <trkpt lat="44.45" lon="4.34779">
        <ele>124.8</ele>
        <time>2022-06-10T16:17:32Z</time>
      </trkpt>
      <trkpt lat="44.45" lon="4.34781">
        <ele>124.8</ele>
        <time>2022-06-10T16:17:33Z</time>
      </trkpt>
      <trkpt lat="44.44999" lon="4.34786">
        <ele>124.8</ele>
        <time>2022-06-10T16:17:34Z</time>
      </trkpt>
      <trkpt lat="44.44999" lon="4.34788">
        <ele>124.9</ele>
        <time>2022-06-10T16:17:35Z</time>
      </trkpt>
      <trkpt lat="44.44998" lon="4.34792">
        <ele>124.9</ele>
        <time>2022-06-10T16:17:36Z</time>
      </trkpt>
      <trkpt lat="44.44997" lon="4.34793">
        <ele>124.9</ele>
        <time>2022-06-10T16:17:37Z</time>
      </trkpt>
      <trkpt lat="44.44994" lon="4.34797">
        <ele>124.9</ele>
        <time>2022-06-10T16:17:38Z</time>
      </trkpt>
      <trkpt lat="44.44993" lon="4.34798">
        <ele>124.9</ele>
        <time>2022-06-10T16:17:39Z</time>
      </trkpt>
      <trkpt lat="44.44991" lon="4.34803">
        <ele>124.9</ele>
        <time>2022-06-10T16:17:40Z</time>
      </trkpt>
      <trkpt lat="44.4499" lon="4.34804">
        <ele>124.9</ele>
        <time>2022-06-10T16:17:41Z</time>
      </trkpt>
      <trkpt lat="44.44989" lon="4.34807">
        <ele>124.9</ele>
        <time>2022-06-10T16:17:42Z</time>
      </trkpt>
      <trkpt lat="44.44987" lon="4.34805">
        <ele>124.9</ele>
        <time>2022-06-10T16:17:43Z</time>
      </trkpt>
      <trkpt lat="44.44988" lon="4.34799">
        <ele>124.9</ele>
        <time>2022-06-10T16:17:45Z</time>
      </trkpt>
      <trkpt lat="44.4499" lon="4.34794">
        <ele>124.9</ele>
        <time>2022-06-10T16:17:46Z</time>
      </trkpt>
      <trkpt lat="44.44992" lon="4.34793">
        <ele>124.9</ele>
        <time>2022-06-10T16:17:47Z</time>
      </trkpt>
      <trkpt lat="44.44994" lon="4.3479">
        <ele>124.9</ele>
        <time>2022-06-10T16:17:48Z</time>
      </trkpt>
      <trkpt lat="44.44996" lon="4.34785">
        <ele>124.9</ele>
        <time>2022-06-10T16:17:49Z</time>
      </trkpt>
      <trkpt lat="44.45" lon="4.34776">
        <ele>124.8</ele>
        <time>2022-06-10T16:17:50Z</time>
      </trkpt>
      <trkpt lat="44.45002" lon="4.34771">
        <ele>124.8</ele>
        <time>2022-06-10T16:17:52Z</time>
      </trkpt>
      <trkpt lat="44.45004" lon="4.34766">
        <ele>124.8</ele>
        <time>2022-06-10T16:17:53Z</time>
      </trkpt>
      <trkpt lat="44.45008" lon="4.34762">
        <ele>124.8</ele>
        <time>2022-06-10T16:17:54Z</time>
      </trkpt>
      <trkpt lat="44.45012" lon="4.34759">
        <ele>124.8</ele>
        <time>2022-06-10T16:17:55Z</time>
      </trkpt>
      <trkpt lat="44.45016" lon="4.34757">
        <ele>124.7</ele>
        <time>2022-06-10T16:17:56Z</time>
      </trkpt>
      <trkpt lat="44.45025" lon="4.34754">
        <ele>124.7</ele>
        <time>2022-06-10T16:17:57Z</time>
      </trkpt>
      <trkpt lat="44.45029" lon="4.34754">
        <ele>124.7</ele>
        <time>2022-06-10T16:17:58Z</time>
      </trkpt>
      <trkpt lat="44.45035" lon="4.34754">
        <ele>124.6</ele>
        <time>2022-06-10T16:18:00Z</time>
      </trkpt>
      <trkpt lat="44.45039" lon="4.34753">
        <ele>124.6</ele>
        <time>2022-06-10T16:18:01Z</time>
      </trkpt>
      <trkpt lat="44.45041" lon="4.34748">
        <ele>124.3</ele>
        <time>2022-06-10T16:18:02Z</time>
      </trkpt>
      <trkpt lat="44.45042" lon="4.34743">
        <ele>124.2</ele>
        <time>2022-06-10T16:18:03Z</time>
      </trkpt>
      <trkpt lat="44.45044" lon="4.34738">
        <ele>124</ele>
        <time>2022-06-10T16:18:04Z</time>
      </trkpt>
      <trkpt lat="44.45046" lon="4.34733">
        <ele>123.7</ele>
        <time>2022-06-10T16:18:05Z</time>
      </trkpt>
      <trkpt lat="44.45047" lon="4.34723">
        <ele>123.4</ele>
        <time>2022-06-10T16:18:06Z</time>
      </trkpt>
      <trkpt lat="44.45047" lon="4.34715">
        <ele>123.1</ele>
        <time>2022-06-10T16:18:07Z</time>
      </trkpt>
      <trkpt lat="44.45047" lon="4.34707">
        <ele>122.8</ele>
        <time>2022-06-10T16:18:08Z</time>
      </trkpt>
      <trkpt lat="44.45048" lon="4.34699">
        <ele>122.6</ele>
        <time>2022-06-10T16:18:09Z</time>
      </trkpt>
      <trkpt lat="44.45048" lon="4.3469">
        <ele>122.4</ele>
        <time>2022-06-10T16:18:10Z</time>
      </trkpt>
      <trkpt lat="44.45049" lon="4.34682">
        <ele>122.2</ele>
        <time>2022-06-10T16:18:11Z</time>
      </trkpt>
      <trkpt lat="44.4505" lon="4.34673">
        <ele>122</ele>
        <time>2022-06-10T16:18:12Z</time>
      </trkpt>
      <trkpt lat="44.45052" lon="4.34664">
        <ele>121.8</ele>
        <time>2022-06-10T16:18:13Z</time>
      </trkpt>
      <trkpt lat="44.45054" lon="4.34656">
        <ele>121.7</ele>
        <time>2022-06-10T16:18:14Z</time>
      </trkpt>
      <trkpt lat="44.45057" lon="4.34648">
        <ele>121.5</ele>
        <time>2022-06-10T16:18:15Z</time>
      </trkpt>
      <trkpt lat="44.4506" lon="4.3464">
        <ele>121.3</ele>
        <time>2022-06-10T16:18:16Z</time>
      </trkpt>
      <trkpt lat="44.45062" lon="4.34632">
        <ele>121.2</ele>
        <time>2022-06-10T16:18:17Z</time>
      </trkpt>
      <trkpt lat="44.45064" lon="4.34624">
        <ele>121.1</ele>
        <time>2022-06-10T16:18:18Z</time>
      </trkpt>
      <trkpt lat="44.45066" lon="4.34616">
        <ele>120.9</ele>
        <time>2022-06-10T16:18:19Z</time>
      </trkpt>
      <trkpt lat="44.45069" lon="4.34607">
        <ele>120.8</ele>
        <time>2022-06-10T16:18:20Z</time>
      </trkpt>
      <trkpt lat="44.45071" lon="4.34599">
        <ele>120.7</ele>
        <time>2022-06-10T16:18:21Z</time>
      </trkpt>
      <trkpt lat="44.45074" lon="4.3459">
        <ele>120.5</ele>
        <time>2022-06-10T16:18:22Z</time>
      </trkpt>
      <trkpt lat="44.45077" lon="4.34582">
        <ele>120.4</ele>
        <time>2022-06-10T16:18:23Z</time>
      </trkpt>
      <trkpt lat="44.4508" lon="4.34574">
        <ele>120.3</ele>
        <time>2022-06-10T16:18:24Z</time>
      </trkpt>
      <trkpt lat="44.45083" lon="4.34566">
        <ele>120.1</ele>
        <time>2022-06-10T16:18:25Z</time>
      </trkpt>
      <trkpt lat="44.45087" lon="4.34558">
        <ele>120</ele>
        <time>2022-06-10T16:18:26Z</time>
      </trkpt>
      <trkpt lat="44.4509" lon="4.3455">
        <ele>119.8</ele>
        <time>2022-06-10T16:18:27Z</time>
      </trkpt>
      <trkpt lat="44.45093" lon="4.34542">
        <ele>119.7</ele>
        <time>2022-06-10T16:18:28Z</time>
      </trkpt>
      <trkpt lat="44.45096" lon="4.34535">
        <ele>119.6</ele>
        <time>2022-06-10T16:18:29Z</time>
      </trkpt>
      <trkpt lat="44.45099" lon="4.34527">
        <ele>119.5</ele>
        <time>2022-06-10T16:18:30Z</time>
      </trkpt>
      <trkpt lat="44.45102" lon="4.34519">
        <ele>119.4</ele>
        <time>2022-06-10T16:18:31Z</time>
      </trkpt>
      <trkpt lat="44.45105" lon="4.34511">
        <ele>119.4</ele>
        <time>2022-06-10T16:18:32Z</time>
      </trkpt>
      <trkpt lat="44.45108" lon="4.34503">
        <ele>119.3</ele>
        <time>2022-06-10T16:18:33Z</time>
      </trkpt>
      <trkpt lat="44.45111" lon="4.34495">
        <ele>119.3</ele>
        <time>2022-06-10T16:18:34Z</time>
      </trkpt>
      <trkpt lat="44.45114" lon="4.34487">
        <ele>119.2</ele>
        <time>2022-06-10T16:18:35Z</time>
      </trkpt>
      <trkpt lat="44.45117" lon="4.34479">
        <ele>119.2</ele>
        <time>2022-06-10T16:18:36Z</time>
      </trkpt>
      <trkpt lat="44.4512" lon="4.34471">
        <ele>119.1</ele>
        <time>2022-06-10T16:18:37Z</time>
      </trkpt>
      <trkpt lat="44.45123" lon="4.34463">
        <ele>119.1</ele>
        <time>2022-06-10T16:18:38Z</time>
      </trkpt>
      <trkpt lat="44.45125" lon="4.34455">
        <ele>119.1</ele>
        <time>2022-06-10T16:18:39Z</time>
      </trkpt>
      <trkpt lat="44.45127" lon="4.34447">
        <ele>119</ele>
        <time>2022-06-10T16:18:40Z</time>
      </trkpt>
      <trkpt lat="44.45128" lon="4.3444">
        <ele>119</ele>
        <time>2022-06-10T16:18:41Z</time>
      </trkpt>
      <trkpt lat="44.4513" lon="4.34433">
        <ele>119</ele>
        <time>2022-06-10T16:18:42Z</time>
      </trkpt>
      <trkpt lat="44.45132" lon="4.34425">
        <ele>119</ele>
        <time>2022-06-10T16:18:43Z</time>
      </trkpt>
      <trkpt lat="44.45133" lon="4.34417">
        <ele>119</ele>
        <time>2022-06-10T16:18:44Z</time>
      </trkpt>
      <trkpt lat="44.45134" lon="4.3441">
        <ele>119</ele>
        <time>2022-06-10T16:18:45Z</time>
      </trkpt>
      <trkpt lat="44.45135" lon="4.34402">
        <ele>118.9</ele>
        <time>2022-06-10T16:18:46Z</time>
      </trkpt>
      <trkpt lat="44.45137" lon="4.34394">
        <ele>118.9</ele>
        <time>2022-06-10T16:18:47Z</time>
      </trkpt>
      <trkpt lat="44.45138" lon="4.34386">
        <ele>118.9</ele>
        <time>2022-06-10T16:18:48Z</time>
      </trkpt>
      <trkpt lat="44.45139" lon="4.34378">
        <ele>118.9</ele>
        <time>2022-06-10T16:18:49Z</time>
      </trkpt>
      <trkpt lat="44.45139" lon="4.34371">
        <ele>118.9</ele>
        <time>2022-06-10T16:18:50Z</time>
      </trkpt>
      <trkpt lat="44.45139" lon="4.34364">
        <ele>118.8</ele>
        <time>2022-06-10T16:18:51Z</time>
      </trkpt>
      <trkpt lat="44.45139" lon="4.34358">
        <ele>118.8</ele>
        <time>2022-06-10T16:18:52Z</time>
      </trkpt>
      <trkpt lat="44.45138" lon="4.34353">
        <ele>118.8</ele>
        <time>2022-06-10T16:18:53Z</time>
      </trkpt>
      <trkpt lat="44.45138" lon="4.3435">
        <ele>118.8</ele>
        <time>2022-06-10T16:18:54Z</time>
      </trkpt>
      <trkpt lat="44.45138" lon="4.34348">
        <ele>118.8</ele>
        <time>2022-06-10T16:18:55Z</time>
      </trkpt>
      <trkpt lat="44.45138" lon="4.34346">
        <ele>118.8</ele>
        <time>2022-06-10T16:18:56Z</time>
      </trkpt>
      <trkpt lat="44.45139" lon="4.34342">
        <ele>118.8</ele>
        <time>2022-06-10T16:18:57Z</time>
      </trkpt>
      <trkpt lat="44.4514" lon="4.3434">
        <ele>118.9</ele>
        <time>2022-06-10T16:18:58Z</time>
      </trkpt>
      <trkpt lat="44.45142" lon="4.34338">
        <ele>118.9</ele>
        <time>2022-06-10T16:18:59Z</time>
      </trkpt>
      <trkpt lat="44.45142" lon="4.34333">
        <ele>119</ele>
        <time>2022-06-10T16:19:00Z</time>
      </trkpt>
      <trkpt lat="44.45143" lon="4.34329">
        <ele>119</ele>
        <time>2022-06-10T16:19:01Z</time>
      </trkpt>
      <trkpt lat="44.45144" lon="4.34328">
        <ele>119</ele>
        <time>2022-06-10T16:19:02Z</time>
      </trkpt>
      <trkpt lat="44.45146" lon="4.34324">
        <ele>119.1</ele>
        <time>2022-06-10T16:19:03Z</time>
      </trkpt>
      <trkpt lat="44.45147" lon="4.34323">
        <ele>119.1</ele>
        <time>2022-06-10T16:19:04Z</time>
      </trkpt>
      <trkpt lat="44.45149" lon="4.34321">
        <ele>119.1</ele>
        <time>2022-06-10T16:19:05Z</time>
      </trkpt>
      <trkpt lat="44.45153" lon="4.3432">
        <ele>119.1</ele>
        <time>2022-06-10T16:19:06Z</time>
      </trkpt>
      <trkpt lat="44.45156" lon="4.34318">
        <ele>119.2</ele>
        <time>2022-06-10T16:19:07Z</time>
      </trkpt>
      <trkpt lat="44.4516" lon="4.34316">
        <ele>119.2</ele>
        <time>2022-06-10T16:19:08Z</time>
      </trkpt>
      <trkpt lat="44.45161" lon="4.34315">
        <ele>119.3</ele>
        <time>2022-06-10T16:19:09Z</time>
      </trkpt>
      <trkpt lat="44.45163" lon="4.34312">
        <ele>119.3</ele>
        <time>2022-06-10T16:19:10Z</time>
      </trkpt>
      <trkpt lat="44.45165" lon="4.34311">
        <ele>119.3</ele>
        <time>2022-06-10T16:19:11Z</time>
      </trkpt>
      <trkpt lat="44.45166" lon="4.34311">
        <ele>119.3</ele>
        <time>2022-06-10T16:19:13Z</time>
      </trkpt>
      <trkpt lat="44.45167" lon="4.3431">
        <ele>119.3</ele>
        <time>2022-06-10T16:19:14Z</time>
      </trkpt>
      <trkpt lat="44.45169" lon="4.34308">
        <ele>119.4</ele>
        <time>2022-06-10T16:19:15Z</time>
      </trkpt>
      <trkpt lat="44.45171" lon="4.34305">
        <ele>119.4</ele>
        <time>2022-06-10T16:19:16Z</time>
      </trkpt>
      <trkpt lat="44.45173" lon="4.34304">
        <ele>119.4</ele>
        <time>2022-06-10T16:19:17Z</time>
      </trkpt>
      <trkpt lat="44.45176" lon="4.34302">
        <ele>119.4</ele>
        <time>2022-06-10T16:19:19Z</time>
      </trkpt>
      <trkpt lat="44.45177" lon="4.34298">
        <ele>119.5</ele>
        <time>2022-06-10T16:19:20Z</time>
      </trkpt>
      <trkpt lat="44.4518" lon="4.34295">
        <ele>119.5</ele>
        <time>2022-06-10T16:19:21Z</time>
      </trkpt>
      <trkpt lat="44.45182" lon="4.34292">
        <ele>119.5</ele>
        <time>2022-06-10T16:19:22Z</time>
      </trkpt>
      <trkpt lat="44.45184" lon="4.34289">
        <ele>119.5</ele>
        <time>2022-06-10T16:19:23Z</time>
      </trkpt>
      <trkpt lat="44.45187" lon="4.34287">
        <ele>119.6</ele>
        <time>2022-06-10T16:19:24Z</time>
      </trkpt>
      <trkpt lat="44.45189" lon="4.34283">
        <ele>119.6</ele>
        <time>2022-06-10T16:19:25Z</time>
      </trkpt>
      <trkpt lat="44.4519" lon="4.34283">
        <ele>119.6</ele>
        <time>2022-06-10T16:19:26Z</time>
      </trkpt>
      <trkpt lat="44.45191" lon="4.34281">
        <ele>119.6</ele>
        <time>2022-06-10T16:19:27Z</time>
      </trkpt>
      <trkpt lat="44.45191" lon="4.34278">
        <ele>119.6</ele>
        <time>2022-06-10T16:19:28Z</time>
      </trkpt>
      <trkpt lat="44.45193" lon="4.34273">
        <ele>119.7</ele>
        <time>2022-06-10T16:19:29Z</time>
      </trkpt>
      <trkpt lat="44.45196" lon="4.3427">
        <ele>119.7</ele>
        <time>2022-06-10T16:19:31Z</time>
      </trkpt>
      <trkpt lat="44.452" lon="4.34268">
        <ele>119.7</ele>
        <time>2022-06-10T16:19:32Z</time>
      </trkpt>
      <trkpt lat="44.45203" lon="4.34267">
        <ele>119.8</ele>
        <time>2022-06-10T16:19:33Z</time>
      </trkpt>
      <trkpt lat="44.45206" lon="4.34265">
        <ele>119.8</ele>
        <time>2022-06-10T16:19:34Z</time>
      </trkpt>
      <trkpt lat="44.45208" lon="4.34263">
        <ele>119.8</ele>
        <time>2022-06-10T16:19:35Z</time>
      </trkpt>
      <trkpt lat="44.45212" lon="4.34258">
        <ele>119.9</ele>
        <time>2022-06-10T16:19:36Z</time>
      </trkpt>
      <trkpt lat="44.45215" lon="4.34256">
        <ele>119.9</ele>
        <time>2022-06-10T16:19:37Z</time>
      </trkpt>
      <trkpt lat="44.45219" lon="4.34253">
        <ele>120</ele>
        <time>2022-06-10T16:19:38Z</time>
      </trkpt>
      <trkpt lat="44.45224" lon="4.34249">
        <ele>120</ele>
        <time>2022-06-10T16:19:40Z</time>
      </trkpt>
      <trkpt lat="44.45226" lon="4.34247">
        <ele>120.1</ele>
        <time>2022-06-10T16:19:42Z</time>
      </trkpt>
      <trkpt lat="44.4523" lon="4.34241">
        <ele>120.1</ele>
        <time>2022-06-10T16:19:43Z</time>
      </trkpt>
      <trkpt lat="44.45232" lon="4.34239">
        <ele>120.2</ele>
        <time>2022-06-10T16:19:45Z</time>
      </trkpt>
      <trkpt lat="44.45235" lon="4.34237">
        <ele>120.2</ele>
        <time>2022-06-10T16:19:46Z</time>
      </trkpt>
      <trkpt lat="44.45236" lon="4.34236">
        <ele>120.2</ele>
        <time>2022-06-10T16:19:47Z</time>
      </trkpt>
      <trkpt lat="44.45237" lon="4.34235">
        <ele>120.2</ele>
        <time>2022-06-10T16:19:48Z</time>
      </trkpt>
      <trkpt lat="44.45239" lon="4.34234">
        <ele>120.3</ele>
        <time>2022-06-10T16:19:49Z</time>
      </trkpt>
      <trkpt lat="44.45246" lon="4.34228">
        <ele>120.4</ele>
        <time>2022-06-10T16:19:51Z</time>
      </trkpt>
      <trkpt lat="44.45248" lon="4.34227">
        <ele>120.4</ele>
        <time>2022-06-10T16:19:53Z</time>
      </trkpt>
      <trkpt lat="44.45251" lon="4.34226">
        <ele>120.5</ele>
        <time>2022-06-10T16:19:54Z</time>
      </trkpt>
      <trkpt lat="44.45252" lon="4.34225">
        <ele>120.5</ele>
        <time>2022-06-10T16:19:55Z</time>
      </trkpt>
      <trkpt lat="44.45255" lon="4.34225">
        <ele>120.5</ele>
        <time>2022-06-10T16:19:56Z</time>
      </trkpt>
      <trkpt lat="44.45256" lon="4.34225">
        <ele>120.6</ele>
        <time>2022-06-10T16:19:57Z</time>
      </trkpt>
      <trkpt lat="44.4526" lon="4.34225">
        <ele>120.6</ele>
        <time>2022-06-10T16:19:58Z</time>
      </trkpt>
      <trkpt lat="44.45261" lon="4.34225">
        <ele>120.7</ele>
        <time>2022-06-10T16:19:59Z</time>
      </trkpt>
      <trkpt lat="44.45265" lon="4.34222">
        <ele>120.7</ele>
        <time>2022-06-10T16:20:00Z</time>
      </trkpt>
      <trkpt lat="44.45266" lon="4.34221">
        <ele>120.7</ele>
        <time>2022-06-10T16:20:01Z</time>
      </trkpt>
      <trkpt lat="44.45268" lon="4.34219">
        <ele>120.8</ele>
        <time>2022-06-10T16:20:02Z</time>
      </trkpt>
      <trkpt lat="44.45269" lon="4.34218">
        <ele>120.8</ele>
        <time>2022-06-10T16:20:03Z</time>
      </trkpt>
      <trkpt lat="44.4527" lon="4.34217">
        <ele>120.8</ele>
        <time>2022-06-10T16:20:04Z</time>
      </trkpt>
      <trkpt lat="44.45271" lon="4.34217">
        <ele>120.8</ele>
        <time>2022-06-10T16:20:06Z</time>
      </trkpt>
      <trkpt lat="44.45272" lon="4.34216">
        <ele>120.8</ele>
        <time>2022-06-10T16:20:07Z</time>
      </trkpt>
      <trkpt lat="44.45273" lon="4.34215">
        <ele>120.8</ele>
        <time>2022-06-10T16:20:08Z</time>
      </trkpt>
      <trkpt lat="44.45276" lon="4.34213">
        <ele>120.9</ele>
        <time>2022-06-10T16:20:09Z</time>
      </trkpt>
      <trkpt lat="44.45279" lon="4.34211">
        <ele>120.9</ele>
        <time>2022-06-10T16:20:10Z</time>
      </trkpt>
      <trkpt lat="44.45283" lon="4.34208">
        <ele>120.9</ele>
        <time>2022-06-10T16:20:12Z</time>
      </trkpt>
      <trkpt lat="44.45284" lon="4.34207">
        <ele>121</ele>
        <time>2022-06-10T16:20:13Z</time>
      </trkpt>
      <trkpt lat="44.45286" lon="4.34206">
        <ele>121</ele>
        <time>2022-06-10T16:20:14Z</time>
      </trkpt>
      <trkpt lat="44.45288" lon="4.34204">
        <ele>121</ele>
        <time>2022-06-10T16:20:15Z</time>
      </trkpt>
      <trkpt lat="44.45289" lon="4.34204">
        <ele>121</ele>
        <time>2022-06-10T16:20:16Z</time>
      </trkpt>
      <trkpt lat="44.45292" lon="4.34201">
        <ele>121</ele>
        <time>2022-06-10T16:20:17Z</time>
      </trkpt>
      <trkpt lat="44.45293" lon="4.34201">
        <ele>121</ele>
        <time>2022-06-10T16:20:18Z</time>
      </trkpt>
      <trkpt lat="44.45294" lon="4.34199">
        <ele>121.1</ele>
        <time>2022-06-10T16:20:19Z</time>
      </trkpt>
      <trkpt lat="44.45295" lon="4.34198">
        <ele>121.1</ele>
        <time>2022-06-10T16:20:20Z</time>
      </trkpt>
      <trkpt lat="44.45297" lon="4.34197">
        <ele>121.1</ele>
        <time>2022-06-10T16:20:21Z</time>
      </trkpt>
      <trkpt lat="44.45298" lon="4.34196">
        <ele>121.1</ele>
        <time>2022-06-10T16:20:22Z</time>
      </trkpt>
      <trkpt lat="44.45304" lon="4.34193">
        <ele>121.2</ele>
        <time>2022-06-10T16:20:23Z</time>
      </trkpt>
      <trkpt lat="44.45307" lon="4.34192">
        <ele>121.2</ele>
        <time>2022-06-10T16:20:25Z</time>
      </trkpt>
      <trkpt lat="44.4531" lon="4.34191">
        <ele>121.2</ele>
        <time>2022-06-10T16:20:26Z</time>
      </trkpt>
      <trkpt lat="44.45313" lon="4.34192">
        <ele>121.3</ele>
        <time>2022-06-10T16:20:27Z</time>
      </trkpt>
      <trkpt lat="44.45314" lon="4.34192">
        <ele>121.3</ele>
        <time>2022-06-10T16:20:28Z</time>
      </trkpt>
      <trkpt lat="44.45315" lon="4.34192">
        <ele>121.3</ele>
        <time>2022-06-10T16:20:29Z</time>
      </trkpt>
      <trkpt lat="44.45317" lon="4.3419">
        <ele>121.3</ele>
        <time>2022-06-10T16:20:30Z</time>
      </trkpt>
      <trkpt lat="44.45317" lon="4.34188">
        <ele>121.3</ele>
        <time>2022-06-10T16:20:31Z</time>
      </trkpt>
      <trkpt lat="44.45318" lon="4.34188">
        <ele>121.3</ele>
        <time>2022-06-10T16:20:32Z</time>
      </trkpt>
      <trkpt lat="44.45318" lon="4.34187">
        <ele>121.3</ele>
        <time>2022-06-10T16:20:33Z</time>
      </trkpt>
      <trkpt lat="44.45319" lon="4.34186">
        <ele>121.3</ele>
        <time>2022-06-10T16:20:35Z</time>
      </trkpt>
      <trkpt lat="44.4532" lon="4.34186">
        <ele>121.3</ele>
        <time>2022-06-10T16:20:36Z</time>
      </trkpt>
      <trkpt lat="44.45321" lon="4.34185">
        <ele>121.3</ele>
        <time>2022-06-10T16:20:37Z</time>
      </trkpt>
      <trkpt lat="44.45322" lon="4.34185">
        <ele>121.3</ele>
        <time>2022-06-10T16:20:38Z</time>
      </trkpt>
      <trkpt lat="44.45322" lon="4.34184">
        <ele>121.3</ele>
        <time>2022-06-10T16:20:39Z</time>
      </trkpt>
      <trkpt lat="44.45323" lon="4.34184">
        <ele>121.3</ele>
        <time>2022-06-10T16:20:40Z</time>
      </trkpt>
      <trkpt lat="44.45323" lon="4.34184">
        <ele>121.3</ele>
        <time>2022-06-10T16:20:41Z</time>
      </trkpt>
      <trkpt lat="44.45324" lon="4.34184">
        <ele>121.3</ele>
        <time>2022-06-10T16:20:42Z</time>
      </trkpt>
      <trkpt lat="44.45324" lon="4.34183">
        <ele>121.3</ele>
        <time>2022-06-10T16:20:43Z</time>
      </trkpt>
      <trkpt lat="44.45325" lon="4.34183">
        <ele>121.3</ele>
        <time>2022-06-10T16:20:44Z</time>
      </trkpt>
      <trkpt lat="44.45325" lon="4.34183">
        <ele>121.3</ele>
        <time>2022-06-10T16:20:45Z</time>
      </trkpt>
      <trkpt lat="44.45326" lon="4.34182">
        <ele>121.3</ele>
        <time>2022-06-10T16:20:46Z</time>
      </trkpt>
      <trkpt lat="44.45326" lon="4.34182">
        <ele>121.3</ele>
        <time>2022-06-10T16:20:47Z</time>
      </trkpt>
      <trkpt lat="44.45328" lon="4.3418">
        <ele>121.4</ele>
        <time>2022-06-10T16:20:48Z</time>
      </trkpt>
      <trkpt lat="44.45332" lon="4.34176">
        <ele>121.4</ele>
        <time>2022-06-10T16:20:50Z</time>
      </trkpt>
      <trkpt lat="44.45334" lon="4.34174">
        <ele>121.5</ele>
        <time>2022-06-10T16:20:51Z</time>
      </trkpt>
      <trkpt lat="44.45339" lon="4.34171">
        <ele>121.5</ele>
        <time>2022-06-10T16:20:52Z</time>
      </trkpt>
      <trkpt lat="44.45342" lon="4.34169">
        <ele>121.6</ele>
        <time>2022-06-10T16:20:54Z</time>
      </trkpt>
      <trkpt lat="44.45345" lon="4.34166">
        <ele>121.6</ele>
        <time>2022-06-10T16:20:55Z</time>
      </trkpt>
      <trkpt lat="44.45348" lon="4.34164">
        <ele>121.7</ele>
        <time>2022-06-10T16:20:56Z</time>
      </trkpt>
      <trkpt lat="44.45351" lon="4.34161">
        <ele>121.7</ele>
        <time>2022-06-10T16:20:57Z</time>
      </trkpt>
      <trkpt lat="44.45353" lon="4.34158">
        <ele>121.8</ele>
        <time>2022-06-10T16:20:58Z</time>
      </trkpt>
      <trkpt lat="44.45356" lon="4.34155">
        <ele>121.8</ele>
        <time>2022-06-10T16:20:59Z</time>
      </trkpt>
      <trkpt lat="44.45358" lon="4.34153">
        <ele>121.8</ele>
        <time>2022-06-10T16:21:00Z</time>
      </trkpt>
      <trkpt lat="44.45361" lon="4.34152">
        <ele>121.8</ele>
        <time>2022-06-10T16:21:01Z</time>
      </trkpt>
      <trkpt lat="44.45364" lon="4.34152">
        <ele>121.9</ele>
        <time>2022-06-10T16:21:02Z</time>
      </trkpt>
      <trkpt lat="44.45367" lon="4.34151">
        <ele>121.9</ele>
        <time>2022-06-10T16:21:03Z</time>
      </trkpt>
      <trkpt lat="44.4537" lon="4.34149">
        <ele>121.9</ele>
        <time>2022-06-10T16:21:04Z</time>
      </trkpt>
      <trkpt lat="44.45374" lon="4.34146">
        <ele>121.9</ele>
        <time>2022-06-10T16:21:05Z</time>
      </trkpt>
      <trkpt lat="44.45379" lon="4.34142">
        <ele>121.9</ele>
        <time>2022-06-10T16:21:07Z</time>
      </trkpt>
      <trkpt lat="44.45383" lon="4.3414">
        <ele>122</ele>
        <time>2022-06-10T16:21:09Z</time>
      </trkpt>
      <trkpt lat="44.45385" lon="4.34138">
        <ele>122</ele>
        <time>2022-06-10T16:21:10Z</time>
      </trkpt>
      <trkpt lat="44.45389" lon="4.34135">
        <ele>122</ele>
        <time>2022-06-10T16:21:11Z</time>
      </trkpt>
      <trkpt lat="44.4539" lon="4.34134">
        <ele>122</ele>
        <time>2022-06-10T16:21:12Z</time>
      </trkpt>
      <trkpt lat="44.45392" lon="4.3413">
        <ele>122</ele>
        <time>2022-06-10T16:21:13Z</time>
      </trkpt>
      <trkpt lat="44.45394" lon="4.34126">
        <ele>122.1</ele>
        <time>2022-06-10T16:21:14Z</time>
      </trkpt>
      <trkpt lat="44.45397" lon="4.34119">
        <ele>122.1</ele>
        <time>2022-06-10T16:21:15Z</time>
      </trkpt>
      <trkpt lat="44.45398" lon="4.34115">
        <ele>122.1</ele>
        <time>2022-06-10T16:21:17Z</time>
      </trkpt>
      <trkpt lat="44.454" lon="4.34112">
        <ele>122.1</ele>
        <time>2022-06-10T16:21:18Z</time>
      </trkpt>
      <trkpt lat="44.45401" lon="4.34111">
        <ele>122.1</ele>
        <time>2022-06-10T16:21:19Z</time>
      </trkpt>
      <trkpt lat="44.45403" lon="4.3411">
        <ele>122.1</ele>
        <time>2022-06-10T16:21:20Z</time>
      </trkpt>
      <trkpt lat="44.45405" lon="4.3411">
        <ele>122.1</ele>
        <time>2022-06-10T16:21:21Z</time>
      </trkpt>
      <trkpt lat="44.45404" lon="4.34113">
        <ele>122.2</ele>
        <time>2022-06-10T16:21:22Z</time>
      </trkpt>
      <trkpt lat="44.45404" lon="4.34115">
        <ele>122.2</ele>
        <time>2022-06-10T16:21:23Z</time>
      </trkpt>
      <trkpt lat="44.45404" lon="4.34115">
        <ele>122.2</ele>
        <time>2022-06-10T16:21:24Z</time>
      </trkpt>
      <trkpt lat="44.45404" lon="4.34115">
        <ele>122.2</ele>
        <time>2022-06-10T16:21:25Z</time>
      </trkpt>
      <trkpt lat="44.45404" lon="4.34115">
        <ele>122.2</ele>
        <time>2022-06-10T16:21:26Z</time>
      </trkpt>
      <trkpt lat="44.45405" lon="4.34115">
        <ele>122.2</ele>
        <time>2022-06-10T16:21:27Z</time>
      </trkpt>
      <trkpt lat="44.45405" lon="4.34116">
        <ele>122.2</ele>
        <time>2022-06-10T16:21:28Z</time>
      </trkpt>
      <trkpt lat="44.45405" lon="4.34116">
        <ele>122.2</ele>
        <time>2022-06-10T16:21:29Z</time>
      </trkpt>
      <trkpt lat="44.45406" lon="4.34116">
        <ele>122.2</ele>
        <time>2022-06-10T16:21:30Z</time>
      </trkpt>
      <trkpt lat="44.45406" lon="4.34117">
        <ele>122.2</ele>
        <time>2022-06-10T16:21:31Z</time>
      </trkpt>
      <trkpt lat="44.45406" lon="4.34117">
        <ele>122.2</ele>
        <time>2022-06-10T16:21:32Z</time>
      </trkpt>
      <trkpt lat="44.45406" lon="4.34117">
        <ele>122.2</ele>
        <time>2022-06-10T16:21:33Z</time>
      </trkpt>
      <trkpt lat="44.45406" lon="4.34117">
        <ele>122.2</ele>
        <time>2022-06-10T16:21:34Z</time>
      </trkpt>
      <trkpt lat="44.45406" lon="4.34117">
        <ele>122.2</ele>
        <time>2022-06-10T16:21:35Z</time>
      </trkpt>
      <trkpt lat="44.45406" lon="4.34117">
        <ele>122.2</ele>
        <time>2022-06-10T16:21:36Z</time>
      </trkpt>
      <trkpt lat="44.45406" lon="4.34117">
        <ele>122.2</ele>
        <time>2022-06-10T16:21:37Z</time>
      </trkpt>
      <trkpt lat="44.45406" lon="4.34117">
        <ele>122.2</ele>
        <time>2022-06-10T16:21:38Z</time>
      </trkpt>
      <trkpt lat="44.45406" lon="4.34117">
        <ele>122.2</ele>
        <time>2022-06-10T16:21:39Z</time>
      </trkpt>
      <trkpt lat="44.45406" lon="4.34117">
        <ele>122.2</ele>
        <time>2022-06-10T16:21:40Z</time>
      </trkpt>
      <trkpt lat="44.45406" lon="4.34116">
        <ele>122.2</ele>
        <time>2022-06-10T16:21:41Z</time>
      </trkpt>
      <trkpt lat="44.45406" lon="4.34116">
        <ele>122.2</ele>
        <time>2022-06-10T16:21:42Z</time>
      </trkpt>
      <trkpt lat="44.45405" lon="4.34114">
        <ele>122.2</ele>
        <time>2022-06-10T16:22:12Z</time>
      </trkpt>
      <trkpt lat="44.45402" lon="4.34113">
        <ele>122.2</ele>
        <time>2022-06-10T16:22:13Z</time>
      </trkpt>
      <trkpt lat="44.45401" lon="4.34114">
        <ele>122.2</ele>
        <time>2022-06-10T16:22:15Z</time>
      </trkpt>
      <trkpt lat="44.45398" lon="4.34116">
        <ele>122.2</ele>
        <time>2022-06-10T16:22:16Z</time>
      </trkpt>
      <trkpt lat="44.45396" lon="4.34118">
        <ele>122.3</ele>
        <time>2022-06-10T16:22:18Z</time>
      </trkpt>
      <trkpt lat="44.45395" lon="4.3412">
        <ele>122.3</ele>
        <time>2022-06-10T16:22:19Z</time>
      </trkpt>
      <trkpt lat="44.45395" lon="4.34121">
        <ele>122.3</ele>
        <time>2022-06-10T16:22:20Z</time>
      </trkpt>
      <trkpt lat="44.45394" lon="4.34123">
        <ele>122.3</ele>
        <time>2022-06-10T16:22:21Z</time>
      </trkpt>
      <trkpt lat="44.45394" lon="4.34121">
        <ele>122.3</ele>
        <time>2022-06-10T16:22:22Z</time>
      </trkpt>
      <trkpt lat="44.45394" lon="4.34121">
        <ele>122.3</ele>
        <time>2022-06-10T16:22:23Z</time>
      </trkpt>
      <trkpt lat="44.45395" lon="4.3412">
        <ele>122.3</ele>
        <time>2022-06-10T16:22:24Z</time>
      </trkpt>
      <trkpt lat="44.45394" lon="4.34119">
        <ele>122.3</ele>
        <time>2022-06-10T16:22:25Z</time>
      </trkpt>
      <trkpt lat="44.45394" lon="4.34118">
        <ele>122.3</ele>
        <time>2022-06-10T16:22:26Z</time>
      </trkpt>
      <trkpt lat="44.45394" lon="4.34118">
        <ele>122.3</ele>
        <time>2022-06-10T16:22:27Z</time>
      </trkpt>
      <trkpt lat="44.45393" lon="4.34118">
        <ele>122.3</ele>
        <time>2022-06-10T16:22:28Z</time>
      </trkpt>
      <trkpt lat="44.45393" lon="4.34117">
        <ele>122.3</ele>
        <time>2022-06-10T16:22:29Z</time>
      </trkpt>
      <trkpt lat="44.45393" lon="4.34118">
        <ele>122.3</ele>
        <time>2022-06-10T16:22:30Z</time>
      </trkpt>
      <trkpt lat="44.45392" lon="4.34117">
        <ele>122.3</ele>
        <time>2022-06-10T16:22:31Z</time>
      </trkpt>
      <trkpt lat="44.45393" lon="4.34118">
        <ele>122.3</ele>
        <time>2022-06-10T16:22:32Z</time>
      </trkpt>
      <trkpt lat="44.45398" lon="4.34107">
        <ele>122.4</ele>
        <time>2022-06-10T16:25:42Z</time>
      </trkpt>
      <trkpt lat="44.45399" lon="4.34106">
        <ele>122.4</ele>
        <time>2022-06-10T16:25:43Z</time>
      </trkpt>
      <trkpt lat="44.45399" lon="4.34105">
        <ele>122.4</ele>
        <time>2022-06-10T16:25:44Z</time>
      </trkpt>
      <trkpt lat="44.45399" lon="4.34105">
        <ele>122.4</ele>
        <time>2022-06-10T16:25:45Z</time>
      </trkpt>
      <trkpt lat="44.45399" lon="4.34105">
        <ele>122.4</ele>
        <time>2022-06-10T16:25:46Z</time>
      </trkpt>
      <trkpt lat="44.45398" lon="4.34106">
        <ele>122.4</ele>
        <time>2022-06-10T16:25:47Z</time>
      </trkpt>
      <trkpt lat="44.45398" lon="4.34106">
        <ele>122.4</ele>
        <time>2022-06-10T16:25:48Z</time>
      </trkpt>
      <trkpt lat="44.45398" lon="4.34107">
        <ele>122.4</ele>
        <time>2022-06-10T16:25:49Z</time>
      </trkpt>
      <trkpt lat="44.45398" lon="4.34107">
        <ele>122.4</ele>
        <time>2022-06-10T16:25:50Z</time>
      </trkpt>
      <trkpt lat="44.45398" lon="4.34107">
        <ele>122.4</ele>
        <time>2022-06-10T16:25:51Z</time>
      </trkpt>
      <trkpt lat="44.45399" lon="4.34106">
        <ele>122.4</ele>
        <time>2022-06-10T16:25:52Z</time>
      </trkpt>
      <trkpt lat="44.45399" lon="4.34105">
        <ele>122.4</ele>
        <time>2022-06-10T16:25:53Z</time>
      </trkpt>
      <trkpt lat="44.45399" lon="4.34105">
        <ele>122.4</ele>
        <time>2022-06-10T16:25:54Z</time>
      </trkpt>
      <trkpt lat="44.45399" lon="4.34105">
        <ele>122.4</ele>
        <time>2022-06-10T16:25:55Z</time>
      </trkpt>
      <trkpt lat="44.45399" lon="4.34105">
        <ele>122.4</ele>
        <time>2022-06-10T16:25:56Z</time>
      </trkpt>
      <trkpt lat="44.45399" lon="4.34103">
        <ele>122.4</ele>
        <time>2022-06-10T16:25:57Z</time>
      </trkpt>
      <trkpt lat="44.45399" lon="4.34103">
        <ele>122.4</ele>
        <time>2022-06-10T16:25:58Z</time>
      </trkpt>
      <trkpt lat="44.45399" lon="4.34102">
        <ele>122.4</ele>
        <time>2022-06-10T16:25:59Z</time>
      </trkpt>
      <trkpt lat="44.45399" lon="4.34102">
        <ele>122.4</ele>
        <time>2022-06-10T16:26:00Z</time>
      </trkpt>
      <trkpt lat="44.45399" lon="4.34102">
        <ele>122.4</ele>
        <time>2022-06-10T16:26:01Z</time>
      </trkpt>
      <trkpt lat="44.45398" lon="4.34106">
        <ele>122.4</ele>
        <time>2022-06-10T16:26:02Z</time>
      </trkpt>
      <trkpt lat="44.45398" lon="4.34107">
        <ele>122.4</ele>
        <time>2022-06-10T16:26:03Z</time>
      </trkpt>
      <trkpt lat="44.45398" lon="4.34107">
        <ele>122.4</ele>
        <time>2022-06-10T16:26:04Z</time>
      </trkpt>
      <trkpt lat="44.45398" lon="4.34107">
        <ele>122.4</ele>
        <time>2022-06-10T16:26:05Z</time>
      </trkpt>
      <trkpt lat="44.45398" lon="4.34107">
        <ele>122.4</ele>
        <time>2022-06-10T16:26:06Z</time>
      </trkpt>
      <trkpt lat="44.45399" lon="4.34105">
        <ele>122.4</ele>
        <time>2022-06-10T16:26:07Z</time>
      </trkpt>
      <trkpt lat="44.45399" lon="4.34104">
        <ele>122.4</ele>
        <time>2022-06-10T16:26:08Z</time>
      </trkpt>
      <trkpt lat="44.45399" lon="4.34104">
        <ele>122.4</ele>
        <time>2022-06-10T16:26:09Z</time>
      </trkpt>
      <trkpt lat="44.45399" lon="4.34104">
        <ele>122.4</ele>
        <time>2022-06-10T16:26:10Z</time>
      </trkpt>
      <trkpt lat="44.45399" lon="4.34104">
        <ele>122.4</ele>
        <time>2022-06-10T16:26:11Z</time>
      </trkpt>
      <trkpt lat="44.45397" lon="4.3411">
        <ele>122.3</ele>
        <time>2022-06-10T16:26:12Z</time>
      </trkpt>
      <trkpt lat="44.45396" lon="4.34111">
        <ele>122.3</ele>
        <time>2022-06-10T16:26:13Z</time>
      </trkpt>
      <trkpt lat="44.45396" lon="4.34111">
        <ele>122.3</ele>
        <time>2022-06-10T16:26:14Z</time>
      </trkpt>
      <trkpt lat="44.45396" lon="4.34111">
        <ele>122.3</ele>
        <time>2022-06-10T16:26:15Z</time>
      </trkpt>
      <trkpt lat="44.45396" lon="4.34111">
        <ele>122.3</ele>
        <time>2022-06-10T16:26:16Z</time>
      </trkpt>
      <trkpt lat="44.45399" lon="4.34106">
        <ele>122.3</ele>
        <time>2022-06-10T16:26:17Z</time>
      </trkpt>
      <trkpt lat="44.45399" lon="4.34105">
        <ele>122.3</ele>
        <time>2022-06-10T16:26:18Z</time>
      </trkpt>
      <trkpt lat="44.454" lon="4.34104">
        <ele>122.3</ele>
        <time>2022-06-10T16:26:19Z</time>
      </trkpt>
      <trkpt lat="44.454" lon="4.34104">
        <ele>122.3</ele>
        <time>2022-06-10T16:26:20Z</time>
      </trkpt>
      <trkpt lat="44.454" lon="4.34104">
        <ele>122.3</ele>
        <time>2022-06-10T16:26:21Z</time>
      </trkpt>
      <trkpt lat="44.454" lon="4.34103">
        <ele>122.3</ele>
        <time>2022-06-10T16:26:22Z</time>
      </trkpt>
      <trkpt lat="44.454" lon="4.34104">
        <ele>122.3</ele>
        <time>2022-06-10T16:26:23Z</time>
      </trkpt>
      <trkpt lat="44.454" lon="4.34105">
        <ele>122.3</ele>
        <time>2022-06-10T16:26:24Z</time>
      </trkpt>
      <trkpt lat="44.45399" lon="4.34107">
        <ele>122.3</ele>
        <time>2022-06-10T16:26:25Z</time>
      </trkpt>
      <trkpt lat="44.45398" lon="4.34108">
        <ele>122.3</ele>
        <time>2022-06-10T16:26:26Z</time>
      </trkpt>
      <trkpt lat="44.45398" lon="4.34109">
        <ele>122.3</ele>
        <time>2022-06-10T16:26:27Z</time>
      </trkpt>
      <trkpt lat="44.45398" lon="4.34109">
        <ele>122.3</ele>
        <time>2022-06-10T16:26:28Z</time>
      </trkpt>
      <trkpt lat="44.45398" lon="4.3411">
        <ele>122.3</ele>
        <time>2022-06-10T16:26:29Z</time>
      </trkpt>
      <trkpt lat="44.45398" lon="4.34109">
        <ele>122.3</ele>
        <time>2022-06-10T16:26:30Z</time>
      </trkpt>
      <trkpt lat="44.45398" lon="4.34109">
        <ele>122.3</ele>
        <time>2022-06-10T16:26:31Z</time>
      </trkpt>
      <trkpt lat="44.45397" lon="4.34112">
        <ele>122.3</ele>
        <time>2022-06-10T16:26:32Z</time>
      </trkpt>
      <trkpt lat="44.45397" lon="4.34113">
        <ele>122.3</ele>
        <time>2022-06-10T16:26:33Z</time>
      </trkpt>
      <trkpt lat="44.45397" lon="4.34113">
        <ele>122.3</ele>
        <time>2022-06-10T16:26:34Z</time>
      </trkpt>
      <trkpt lat="44.45397" lon="4.34113">
        <ele>122.3</ele>
        <time>2022-06-10T16:26:35Z</time>
      </trkpt>
      <trkpt lat="44.45397" lon="4.34113">
        <ele>122.3</ele>
        <time>2022-06-10T16:26:36Z</time>
      </trkpt>
      <trkpt lat="44.45397" lon="4.34112">
        <ele>122.3</ele>
        <time>2022-06-10T16:26:37Z</time>
      </trkpt>
      <trkpt lat="44.45397" lon="4.34112">
        <ele>122.3</ele>
        <time>2022-06-10T16:26:38Z</time>
      </trkpt>
      <trkpt lat="44.45397" lon="4.34112">
        <ele>122.3</ele>
        <time>2022-06-10T16:26:39Z</time>
      </trkpt>
      <trkpt lat="44.45397" lon="4.34112">
        <ele>122.3</ele>
        <time>2022-06-10T16:26:42Z</time>
      </trkpt>
      <trkpt lat="44.45397" lon="4.34112">
        <ele>122.3</ele>
        <time>2022-06-10T16:26:46Z</time>
      </trkpt>
      <trkpt lat="44.45399" lon="4.34108">
        <ele>122.2</ele>
        <time>2022-06-10T16:26:56Z</time>
      </trkpt>
      <trkpt lat="44.45399" lon="4.34108">
        <ele>122.2</ele>
        <time>2022-06-10T16:26:59Z</time>
      </trkpt>
      <trkpt lat="44.45399" lon="4.34108">
        <ele>122.2</ele>
        <time>2022-06-10T16:27:00Z</time>
      </trkpt>
      <trkpt lat="44.45399" lon="4.34108">
        <ele>122.2</ele>
        <time>2022-06-10T16:27:01Z</time>
      </trkpt>
      <trkpt lat="44.454" lon="4.34104">
        <ele>122.2</ele>
        <time>2022-06-10T16:27:02Z</time>
      </trkpt>
      <trkpt lat="44.45402" lon="4.34094">
        <ele>122.2</ele>
        <time>2022-06-10T16:27:06Z</time>
      </trkpt>
      <trkpt lat="44.45399" lon="4.34107">
        <ele>122.2</ele>
        <time>2022-06-10T16:27:11Z</time>
      </trkpt>
      <trkpt lat="44.45398" lon="4.34108">
        <ele>122.2</ele>
        <time>2022-06-10T16:27:16Z</time>
      </trkpt>
      <trkpt lat="44.45398" lon="4.34108">
        <ele>122.2</ele>
        <time>2022-06-10T16:27:17Z</time>
      </trkpt>
      <trkpt lat="44.45398" lon="4.34108">
        <ele>122.2</ele>
        <time>2022-06-10T16:27:18Z</time>
      </trkpt>
      <trkpt lat="44.45398" lon="4.34108">
        <ele>122.2</ele>
        <time>2022-06-10T16:27:19Z</time>
      </trkpt>
      <trkpt lat="44.45398" lon="4.34108">
        <ele>122.2</ele>
        <time>2022-06-10T16:27:20Z</time>
      </trkpt>
      <trkpt lat="44.45398" lon="4.34108">
        <ele>122.2</ele>
        <time>2022-06-10T16:27:21Z</time>
      </trkpt>
      <trkpt lat="44.45398" lon="4.34108">
        <ele>122.2</ele>
        <time>2022-06-10T16:27:22Z</time>
      </trkpt>
      <trkpt lat="44.45398" lon="4.34108">
        <ele>122.2</ele>
        <time>2022-06-10T16:27:23Z</time>
      </trkpt>
      <trkpt lat="44.45398" lon="4.34108">
        <ele>122.2</ele>
        <time>2022-06-10T16:27:24Z</time>
      </trkpt>
      <trkpt lat="44.45398" lon="4.34108">
        <ele>122.2</ele>
        <time>2022-06-10T16:27:25Z</time>
      </trkpt>
      <trkpt lat="44.45398" lon="4.34108">
        <ele>122.2</ele>
        <time>2022-06-10T16:27:26Z</time>
      </trkpt>
      <trkpt lat="44.45399" lon="4.34111">
        <ele>122.2</ele>
        <time>2022-06-10T16:27:27Z</time>
      </trkpt>
      <trkpt lat="44.45399" lon="4.34112">
        <ele>122.2</ele>
        <time>2022-06-10T16:27:28Z</time>
      </trkpt>
      <trkpt lat="44.45399" lon="4.34112">
        <ele>122.2</ele>
        <time>2022-06-10T16:27:29Z</time>
      </trkpt>
      <trkpt lat="44.45399" lon="4.34112">
        <ele>122.2</ele>
        <time>2022-06-10T16:27:30Z</time>
      </trkpt>
      <trkpt lat="44.45398" lon="4.34109">
        <ele>122.1</ele>
        <time>2022-06-10T16:27:32Z</time>
      </trkpt>
      <trkpt lat="44.45398" lon="4.34108">
        <ele>122.1</ele>
        <time>2022-06-10T16:27:33Z</time>
      </trkpt>
      <trkpt lat="44.45398" lon="4.34108">
        <ele>122.1</ele>
        <time>2022-06-10T16:27:34Z</time>
      </trkpt>
      <trkpt lat="44.45398" lon="4.34108">
        <ele>122.1</ele>
        <time>2022-06-10T16:27:35Z</time>
      </trkpt>
      <trkpt lat="44.45398" lon="4.34108">
        <ele>122.1</ele>
        <time>2022-06-10T16:27:36Z</time>
      </trkpt>
      <trkpt lat="44.45399" lon="4.34106">
        <ele>122.1</ele>
        <time>2022-06-10T16:27:37Z</time>
      </trkpt>
      <trkpt lat="44.45399" lon="4.34106">
        <ele>122.1</ele>
        <time>2022-06-10T16:27:38Z</time>
      </trkpt>
      <trkpt lat="44.45399" lon="4.34106">
        <ele>122.1</ele>
        <time>2022-06-10T16:27:39Z</time>
      </trkpt>
      <trkpt lat="44.454" lon="4.34106">
        <ele>122.1</ele>
        <time>2022-06-10T16:27:40Z</time>
      </trkpt>
      <trkpt lat="44.454" lon="4.34106">
        <ele>122.1</ele>
        <time>2022-06-10T16:27:41Z</time>
      </trkpt>
      <trkpt lat="44.45399" lon="4.34105">
        <ele>122.1</ele>
        <time>2022-06-10T16:27:42Z</time>
      </trkpt>
      <trkpt lat="44.45399" lon="4.34105">
        <ele>122.1</ele>
        <time>2022-06-10T16:27:43Z</time>
      </trkpt>
      <trkpt lat="44.45399" lon="4.34105">
        <ele>122.1</ele>
        <time>2022-06-10T16:27:45Z</time>
      </trkpt>
      <trkpt lat="44.45399" lon="4.34105">
        <ele>122.1</ele>
        <time>2022-06-10T16:27:46Z</time>
      </trkpt>
      <trkpt lat="44.45398" lon="4.34105">
        <ele>122.1</ele>
        <time>2022-06-10T16:27:47Z</time>
      </trkpt>
      <trkpt lat="44.45398" lon="4.34105">
        <ele>122.1</ele>
        <time>2022-06-10T16:27:48Z</time>
      </trkpt>
      <trkpt lat="44.45398" lon="4.34105">
        <ele>122.1</ele>
        <time>2022-06-10T16:27:49Z</time>
      </trkpt>
      <trkpt lat="44.45398" lon="4.34105">
        <ele>122.1</ele>
        <time>2022-06-10T16:27:50Z</time>
      </trkpt>
      <trkpt lat="44.45397" lon="4.3411">
        <ele>122.1</ele>
        <time>2022-06-10T16:27:52Z</time>
      </trkpt>
      <trkpt lat="44.45397" lon="4.34111">
        <ele>122.1</ele>
        <time>2022-06-10T16:27:53Z</time>
      </trkpt>
      <trkpt lat="44.45397" lon="4.34111">
        <ele>122.1</ele>
        <time>2022-06-10T16:27:54Z</time>
      </trkpt>
      <trkpt lat="44.45397" lon="4.34111">
        <ele>122.1</ele>
        <time>2022-06-10T16:27:55Z</time>
      </trkpt>
      <trkpt lat="44.45397" lon="4.34111">
        <ele>122.1</ele>
        <time>2022-06-10T16:27:56Z</time>
      </trkpt>
      <trkpt lat="44.45396" lon="4.34112">
        <ele>122.1</ele>
        <time>2022-06-10T16:27:57Z</time>
      </trkpt>
      <trkpt lat="44.45396" lon="4.34112">
        <ele>122.1</ele>
        <time>2022-06-10T16:27:58Z</time>
      </trkpt>
      <trkpt lat="44.45396" lon="4.34112">
        <ele>122.1</ele>
        <time>2022-06-10T16:27:59Z</time>
      </trkpt>
      <trkpt lat="44.45396" lon="4.34112">
        <ele>122.1</ele>
        <time>2022-06-10T16:28:00Z</time>
      </trkpt>
      <trkpt lat="44.45395" lon="4.34111">
        <ele>122.1</ele>
        <time>2022-06-10T16:28:01Z</time>
      </trkpt>
      <trkpt lat="44.45395" lon="4.3411">
        <ele>122.1</ele>
        <time>2022-06-10T16:28:02Z</time>
      </trkpt>
      <trkpt lat="44.45395" lon="4.3411">
        <ele>122.1</ele>
        <time>2022-06-10T16:28:03Z</time>
      </trkpt>
      <trkpt lat="44.45395" lon="4.3411">
        <ele>122.1</ele>
        <time>2022-06-10T16:28:05Z</time>
      </trkpt>
      <trkpt lat="44.45395" lon="4.3411">
        <ele>122.1</ele>
        <time>2022-06-10T16:28:06Z</time>
      </trkpt>
      <trkpt lat="44.45395" lon="4.3411">
        <ele>122.1</ele>
        <time>2022-06-10T16:28:07Z</time>
      </trkpt>
      <trkpt lat="44.45395" lon="4.3411">
        <ele>122.1</ele>
        <time>2022-06-10T16:28:08Z</time>
      </trkpt>
      <trkpt lat="44.45395" lon="4.3411">
        <ele>122.1</ele>
        <time>2022-06-10T16:28:09Z</time>
      </trkpt>
      <trkpt lat="44.45395" lon="4.3411">
        <ele>122.1</ele>
        <time>2022-06-10T16:28:10Z</time>
      </trkpt>
      <trkpt lat="44.45395" lon="4.3411">
        <ele>122.1</ele>
        <time>2022-06-10T16:28:11Z</time>
      </trkpt>
      <trkpt lat="44.45395" lon="4.34111">
        <ele>122.1</ele>
        <time>2022-06-10T16:28:12Z</time>
      </trkpt>
      <trkpt lat="44.45395" lon="4.34113">
        <ele>122.1</ele>
        <time>2022-06-10T16:28:59Z</time>
      </trkpt>
      <trkpt lat="44.45395" lon="4.34114">
        <ele>122.1</ele>
        <time>2022-06-10T16:29:00Z</time>
      </trkpt>
      <trkpt lat="44.45395" lon="4.34115">
        <ele>122.1</ele>
        <time>2022-06-10T16:29:01Z</time>
      </trkpt>
      <trkpt lat="44.45395" lon="4.34115">
        <ele>122.1</ele>
        <time>2022-06-10T16:29:02Z</time>
      </trkpt>
      <trkpt lat="44.45396" lon="4.34116">
        <ele>122.1</ele>
        <time>2022-06-10T16:29:03Z</time>
      </trkpt>
      <trkpt lat="44.45397" lon="4.34117">
        <ele>122.1</ele>
        <time>2022-06-10T16:29:04Z</time>
      </trkpt>
      <trkpt lat="44.454" lon="4.34116">
        <ele>122.1</ele>
        <time>2022-06-10T16:29:05Z</time>
      </trkpt>
      <trkpt lat="44.45402" lon="4.34115">
        <ele>122.1</ele>
        <time>2022-06-10T16:29:06Z</time>
      </trkpt>
      <trkpt lat="44.45403" lon="4.34114">
        <ele>122.1</ele>
        <time>2022-06-10T16:29:07Z</time>
      </trkpt>
      <trkpt lat="44.45406" lon="4.34111">
        <ele>122.1</ele>
        <time>2022-06-10T16:29:08Z</time>
      </trkpt>
      <trkpt lat="44.45407" lon="4.34111">
        <ele>122</ele>
        <time>2022-06-10T16:29:09Z</time>
      </trkpt>
      <trkpt lat="44.45408" lon="4.34111">
        <ele>122</ele>
        <time>2022-06-10T16:29:11Z</time>
      </trkpt>
      <trkpt lat="44.4541" lon="4.34109">
        <ele>122</ele>
        <time>2022-06-10T16:29:13Z</time>
      </trkpt>
      <trkpt lat="44.4541" lon="4.34108">
        <ele>122</ele>
        <time>2022-06-10T16:29:14Z</time>
      </trkpt>
      <trkpt lat="44.45411" lon="4.34108">
        <ele>122</ele>
        <time>2022-06-10T16:29:15Z</time>
      </trkpt>
      <trkpt lat="44.45411" lon="4.34108">
        <ele>122</ele>
        <time>2022-06-10T16:29:16Z</time>
      </trkpt>
      <trkpt lat="44.45411" lon="4.34108">
        <ele>122</ele>
        <time>2022-06-10T16:29:18Z</time>
      </trkpt>
      <trkpt lat="44.4541" lon="4.34108">
        <ele>122</ele>
        <time>2022-06-10T16:29:19Z</time>
      </trkpt>
      <trkpt lat="44.4541" lon="4.34109">
        <ele>122</ele>
        <time>2022-06-10T16:29:20Z</time>
      </trkpt>
      <trkpt lat="44.4541" lon="4.34109">
        <ele>122</ele>
        <time>2022-06-10T16:29:21Z</time>
      </trkpt>
      <trkpt lat="44.45403" lon="4.34111">
        <ele>122</ele>
        <time>2022-06-10T16:32:03Z</time>
      </trkpt>
      <trkpt lat="44.45402" lon="4.34112">
        <ele>122</ele>
        <time>2022-06-10T16:32:04Z</time>
      </trkpt>
      <trkpt lat="44.454" lon="4.34114">
        <ele>122</ele>
        <time>2022-06-10T16:32:05Z</time>
      </trkpt>
      <trkpt lat="44.45397" lon="4.34116">
        <ele>122</ele>
        <time>2022-06-10T16:32:06Z</time>
      </trkpt>
      <trkpt lat="44.45396" lon="4.34117">
        <ele>122</ele>
        <time>2022-06-10T16:32:07Z</time>
      </trkpt>
      <trkpt lat="44.45394" lon="4.3412">
        <ele>122</ele>
        <time>2022-06-10T16:32:08Z</time>
      </trkpt>
      <trkpt lat="44.45391" lon="4.34123">
        <ele>122</ele>
        <time>2022-06-10T16:32:09Z</time>
      </trkpt>
      <trkpt lat="44.4539" lon="4.34124">
        <ele>121.9</ele>
        <time>2022-06-10T16:32:10Z</time>
      </trkpt>
      <trkpt lat="44.45388" lon="4.34127">
        <ele>121.9</ele>
        <time>2022-06-10T16:32:11Z</time>
      </trkpt>
      <trkpt lat="44.45387" lon="4.34128">
        <ele>121.9</ele>
        <time>2022-06-10T16:32:12Z</time>
      </trkpt>
      <trkpt lat="44.45385" lon="4.34132">
        <ele>121.9</ele>
        <time>2022-06-10T16:32:13Z</time>
      </trkpt>
      <trkpt lat="44.45384" lon="4.34134">
        <ele>121.9</ele>
        <time>2022-06-10T16:32:14Z</time>
      </trkpt>
      <trkpt lat="44.45381" lon="4.34137">
        <ele>121.9</ele>
        <time>2022-06-10T16:32:15Z</time>
      </trkpt>
      <trkpt lat="44.4538" lon="4.34138">
        <ele>121.9</ele>
        <time>2022-06-10T16:32:16Z</time>
      </trkpt>
      <trkpt lat="44.45377" lon="4.3414">
        <ele>121.9</ele>
        <time>2022-06-10T16:32:17Z</time>
      </trkpt>
      <trkpt lat="44.45376" lon="4.34141">
        <ele>121.9</ele>
        <time>2022-06-10T16:32:18Z</time>
      </trkpt>
      <trkpt lat="44.45374" lon="4.34143">
        <ele>121.9</ele>
        <time>2022-06-10T16:32:19Z</time>
      </trkpt>
      <trkpt lat="44.45371" lon="4.34145">
        <ele>121.9</ele>
        <time>2022-06-10T16:32:20Z</time>
      </trkpt>
      <trkpt lat="44.45368" lon="4.34147">
        <ele>121.9</ele>
        <time>2022-06-10T16:32:21Z</time>
      </trkpt>
      <trkpt lat="44.45366" lon="4.34147">
        <ele>121.9</ele>
        <time>2022-06-10T16:32:22Z</time>
      </trkpt>
      <trkpt lat="44.45362" lon="4.3415">
        <ele>121.8</ele>
        <time>2022-06-10T16:32:23Z</time>
      </trkpt>
      <trkpt lat="44.4536" lon="4.34152">
        <ele>121.8</ele>
        <time>2022-06-10T16:32:24Z</time>
      </trkpt>
      <trkpt lat="44.45357" lon="4.34154">
        <ele>121.8</ele>
        <time>2022-06-10T16:32:26Z</time>
      </trkpt>
      <trkpt lat="44.45354" lon="4.34156">
        <ele>121.8</ele>
        <time>2022-06-10T16:32:27Z</time>
      </trkpt>
      <trkpt lat="44.45352" lon="4.34157">
        <ele>121.7</ele>
        <time>2022-06-10T16:32:28Z</time>
      </trkpt>
      <trkpt lat="44.45349" lon="4.34159">
        <ele>121.7</ele>
        <time>2022-06-10T16:32:29Z</time>
      </trkpt>
      <trkpt lat="44.45347" lon="4.34161">
        <ele>121.7</ele>
        <time>2022-06-10T16:32:30Z</time>
      </trkpt>
      <trkpt lat="44.45344" lon="4.34162">
        <ele>121.6</ele>
        <time>2022-06-10T16:32:32Z</time>
      </trkpt>
      <trkpt lat="44.45342" lon="4.34164">
        <ele>121.6</ele>
        <time>2022-06-10T16:32:33Z</time>
      </trkpt>
      <trkpt lat="44.45341" lon="4.34165">
        <ele>121.6</ele>
        <time>2022-06-10T16:32:34Z</time>
      </trkpt>
      <trkpt lat="44.4534" lon="4.34166">
        <ele>121.6</ele>
        <time>2022-06-10T16:32:36Z</time>
      </trkpt>
      <trkpt lat="44.45339" lon="4.34167">
        <ele>121.6</ele>
        <time>2022-06-10T16:32:37Z</time>
      </trkpt>
      <trkpt lat="44.45338" lon="4.34167">
        <ele>121.6</ele>
        <time>2022-06-10T16:32:38Z</time>
      </trkpt>
      <trkpt lat="44.45335" lon="4.3417">
        <ele>121.5</ele>
        <time>2022-06-10T16:32:39Z</time>
      </trkpt>
      <trkpt lat="44.45334" lon="4.34171">
        <ele>121.5</ele>
        <time>2022-06-10T16:32:40Z</time>
      </trkpt>
      <trkpt lat="44.45331" lon="4.34172">
        <ele>121.4</ele>
        <time>2022-06-10T16:32:41Z</time>
      </trkpt>
      <trkpt lat="44.4533" lon="4.34173">
        <ele>121.4</ele>
        <time>2022-06-10T16:32:42Z</time>
      </trkpt>
      <trkpt lat="44.45326" lon="4.34175">
        <ele>121.4</ele>
        <time>2022-06-10T16:32:43Z</time>
      </trkpt>
      <trkpt lat="44.45325" lon="4.34176">
        <ele>121.4</ele>
        <time>2022-06-10T16:32:44Z</time>
      </trkpt>
      <trkpt lat="44.45322" lon="4.34178">
        <ele>121.3</ele>
        <time>2022-06-10T16:32:45Z</time>
      </trkpt>
      <trkpt lat="44.45321" lon="4.34179">
        <ele>121.3</ele>
        <time>2022-06-10T16:32:46Z</time>
      </trkpt>
      <trkpt lat="44.45318" lon="4.34181">
        <ele>121.3</ele>
        <time>2022-06-10T16:32:47Z</time>
      </trkpt>
      <trkpt lat="44.45315" lon="4.34181">
        <ele>121.2</ele>
        <time>2022-06-10T16:32:49Z</time>
      </trkpt>
      <trkpt lat="44.45314" lon="4.3418">
        <ele>121.1</ele>
        <time>2022-06-10T16:32:50Z</time>
      </trkpt>
      <trkpt lat="44.45313" lon="4.34178">
        <ele>121.1</ele>
        <time>2022-06-10T16:32:51Z</time>
      </trkpt>
      <trkpt lat="44.45312" lon="4.34176">
        <ele>121.1</ele>
        <time>2022-06-10T16:32:52Z</time>
      </trkpt>
      <trkpt lat="44.45311" lon="4.34172">
        <ele>121</ele>
        <time>2022-06-10T16:32:53Z</time>
      </trkpt>
      <trkpt lat="44.45311" lon="4.3417">
        <ele>121</ele>
        <time>2022-06-10T16:32:54Z</time>
      </trkpt>
      <trkpt lat="44.45311" lon="4.34166">
        <ele>120.9</ele>
        <time>2022-06-10T16:32:55Z</time>
      </trkpt>
      <trkpt lat="44.45311" lon="4.34165">
        <ele>120.9</ele>
        <time>2022-06-10T16:32:56Z</time>
      </trkpt>
      <trkpt lat="44.4531" lon="4.34163">
        <ele>120.9</ele>
        <time>2022-06-10T16:32:57Z</time>
      </trkpt>
      <trkpt lat="44.4531" lon="4.3416">
        <ele>120.8</ele>
        <time>2022-06-10T16:32:58Z</time>
      </trkpt>
      <trkpt lat="44.4531" lon="4.34158">
        <ele>120.8</ele>
        <time>2022-06-10T16:32:59Z</time>
      </trkpt>
      <trkpt lat="44.4531" lon="4.34156">
        <ele>120.8</ele>
        <time>2022-06-10T16:33:00Z</time>
      </trkpt>
      <trkpt lat="44.4531" lon="4.34154">
        <ele>120.7</ele>
        <time>2022-06-10T16:33:01Z</time>
      </trkpt>
      <trkpt lat="44.45311" lon="4.34152">
        <ele>120.7</ele>
        <time>2022-06-10T16:33:02Z</time>
      </trkpt>
      <trkpt lat="44.45312" lon="4.3415">
        <ele>120.7</ele>
        <time>2022-06-10T16:33:03Z</time>
      </trkpt>
      <trkpt lat="44.45313" lon="4.34149">
        <ele>120.6</ele>
        <time>2022-06-10T16:33:04Z</time>
      </trkpt>
      <trkpt lat="44.45314" lon="4.34149">
        <ele>120.6</ele>
        <time>2022-06-10T16:33:05Z</time>
      </trkpt>
      <trkpt lat="44.45314" lon="4.3415">
        <ele>120.6</ele>
        <time>2022-06-10T16:33:06Z</time>
      </trkpt>
      <trkpt lat="44.45315" lon="4.3415">
        <ele>120.6</ele>
        <time>2022-06-10T16:33:07Z</time>
      </trkpt>
      <trkpt lat="44.45315" lon="4.3415">
        <ele>120.6</ele>
        <time>2022-06-10T16:33:08Z</time>
      </trkpt>
      <trkpt lat="44.45315" lon="4.34151">
        <ele>120.6</ele>
        <time>2022-06-10T16:33:09Z</time>
      </trkpt>
      <trkpt lat="44.45315" lon="4.34151">
        <ele>120.6</ele>
        <time>2022-06-10T16:33:10Z</time>
      </trkpt>
      <trkpt lat="44.45315" lon="4.34151">
        <ele>120.6</ele>
        <time>2022-06-10T16:33:11Z</time>
      </trkpt>
      <trkpt lat="44.45315" lon="4.34152">
        <ele>120.6</ele>
        <time>2022-06-10T16:33:12Z</time>
      </trkpt>
      <trkpt lat="44.45315" lon="4.34152">
        <ele>120.6</ele>
        <time>2022-06-10T16:33:13Z</time>
      </trkpt>
      <trkpt lat="44.45315" lon="4.34152">
        <ele>120.6</ele>
        <time>2022-06-10T16:33:14Z</time>
      </trkpt>
      <trkpt lat="44.45316" lon="4.34152">
        <ele>120.6</ele>
        <time>2022-06-10T16:33:15Z</time>
      </trkpt>
      <trkpt lat="44.45316" lon="4.34153">
        <ele>120.6</ele>
        <time>2022-06-10T16:33:16Z</time>
      </trkpt>
      <trkpt lat="44.45316" lon="4.34153">
        <ele>120.6</ele>
        <time>2022-06-10T16:33:17Z</time>
      </trkpt>
      <trkpt lat="44.45316" lon="4.34153">
        <ele>120.6</ele>
        <time>2022-06-10T16:33:18Z</time>
      </trkpt>
      <trkpt lat="44.45316" lon="4.34154">
        <ele>120.5</ele>
        <time>2022-06-10T16:33:19Z</time>
      </trkpt>
      <trkpt lat="44.45316" lon="4.34154">
        <ele>120.5</ele>
        <time>2022-06-10T16:33:20Z</time>
      </trkpt>
      <trkpt lat="44.45316" lon="4.34154">
        <ele>120.5</ele>
        <time>2022-06-10T16:33:21Z</time>
      </trkpt>
      <trkpt lat="44.45316" lon="4.34155">
        <ele>120.5</ele>
        <time>2022-06-10T16:33:22Z</time>
      </trkpt>
      <trkpt lat="44.45317" lon="4.34155">
        <ele>120.5</ele>
        <time>2022-06-10T16:33:23Z</time>
      </trkpt>
      <trkpt lat="44.45317" lon="4.34155">
        <ele>120.5</ele>
        <time>2022-06-10T16:33:33Z</time>
      </trkpt>
      <trkpt lat="44.45317" lon="4.34156">
        <ele>120.5</ele>
        <time>2022-06-10T16:33:34Z</time>
      </trkpt>
      <trkpt lat="44.45317" lon="4.34156">
        <ele>120.5</ele>
        <time>2022-06-10T16:33:35Z</time>
      </trkpt>
      <trkpt lat="44.45317" lon="4.34156">
        <ele>120.5</ele>
        <time>2022-06-10T16:33:36Z</time>
      </trkpt>
      <trkpt lat="44.45315" lon="4.34159">
        <ele>120.4</ele>
        <time>2022-06-10T16:33:37Z</time>
      </trkpt>
      <trkpt lat="44.45314" lon="4.3416">
        <ele>120.4</ele>
        <time>2022-06-10T16:33:38Z</time>
      </trkpt>
      <trkpt lat="44.45313" lon="4.34161">
        <ele>120.4</ele>
        <time>2022-06-10T16:33:39Z</time>
      </trkpt>
      <trkpt lat="44.45312" lon="4.34162">
        <ele>120.4</ele>
        <time>2022-06-10T16:33:40Z</time>
      </trkpt>
      <trkpt lat="44.4531" lon="4.34162">
        <ele>120.3</ele>
        <time>2022-06-10T16:33:42Z</time>
      </trkpt>
      <trkpt lat="44.45308" lon="4.34162">
        <ele>120.3</ele>
        <time>2022-06-10T16:33:44Z</time>
      </trkpt>
      <trkpt lat="44.45307" lon="4.34162">
        <ele>120.3</ele>
        <time>2022-06-10T16:33:45Z</time>
      </trkpt>
      <trkpt lat="44.45305" lon="4.34161">
        <ele>120.2</ele>
        <time>2022-06-10T16:33:46Z</time>
      </trkpt>
      <trkpt lat="44.45305" lon="4.34161">
        <ele>120.2</ele>
        <time>2022-06-10T16:33:47Z</time>
      </trkpt>
      <trkpt lat="44.45305" lon="4.3416">
        <ele>120.2</ele>
        <time>2022-06-10T16:33:48Z</time>
      </trkpt>
      <trkpt lat="44.45304" lon="4.34158">
        <ele>120.2</ele>
        <time>2022-06-10T16:33:49Z</time>
      </trkpt>
      <trkpt lat="44.45303" lon="4.34156">
        <ele>120.2</ele>
        <time>2022-06-10T16:33:51Z</time>
      </trkpt>
      <trkpt lat="44.45303" lon="4.34155">
        <ele>120.1</ele>
        <time>2022-06-10T16:33:52Z</time>
      </trkpt>
      <trkpt lat="44.45302" lon="4.34154">
        <ele>120.1</ele>
        <time>2022-06-10T16:33:53Z</time>
      </trkpt>
      <trkpt lat="44.45302" lon="4.34153">
        <ele>120.1</ele>
        <time>2022-06-10T16:33:54Z</time>
      </trkpt>
      <trkpt lat="44.45302" lon="4.34152">
        <ele>120.1</ele>
        <time>2022-06-10T16:33:55Z</time>
      </trkpt>
      <trkpt lat="44.45303" lon="4.34151">
        <ele>120.1</ele>
        <time>2022-06-10T16:33:56Z</time>
      </trkpt>
      <trkpt lat="44.45304" lon="4.3415">
        <ele>120</ele>
        <time>2022-06-10T16:33:57Z</time>
      </trkpt>
      <trkpt lat="44.45305" lon="4.3415">
        <ele>120</ele>
        <time>2022-06-10T16:33:58Z</time>
      </trkpt>
      <trkpt lat="44.45306" lon="4.34149">
        <ele>120</ele>
        <time>2022-06-10T16:33:59Z</time>
      </trkpt>
      <trkpt lat="44.45307" lon="4.34149">
        <ele>120</ele>
        <time>2022-06-10T16:34:00Z</time>
      </trkpt>
      <trkpt lat="44.45309" lon="4.34148">
        <ele>119.9</ele>
        <time>2022-06-10T16:34:01Z</time>
      </trkpt>
      <trkpt lat="44.4531" lon="4.34148">
        <ele>119.9</ele>
        <time>2022-06-10T16:34:02Z</time>
      </trkpt>
      <trkpt lat="44.45311" lon="4.34147">
        <ele>119.9</ele>
        <time>2022-06-10T16:34:03Z</time>
      </trkpt>
      <trkpt lat="44.45312" lon="4.34147">
        <ele>119.9</ele>
        <time>2022-06-10T16:34:04Z</time>
      </trkpt>
      <trkpt lat="44.45313" lon="4.34146">
        <ele>119.9</ele>
        <time>2022-06-10T16:59:19Z</time>
      </trkpt>
      <trkpt lat="44.45314" lon="4.34146">
        <ele>119.9</ele>
        <time>2022-06-10T16:59:20Z</time>
      </trkpt>
      <trkpt lat="44.45315" lon="4.34145">
        <ele>119.9</ele>
        <time>2022-06-10T16:59:21Z</time>
      </trkpt>
      <trkpt lat="44.45316" lon="4.34145">
        <ele>119.9</ele>
        <time>2022-06-10T16:59:22Z</time>
      </trkpt>
      <trkpt lat="44.45317" lon="4.34145">
        <ele>119.9</ele>
        <time>2022-06-10T16:59:23Z</time>
      </trkpt>
      <trkpt lat="44.45317" lon="4.34145">
        <ele>119.9</ele>
        <time>2022-06-10T16:59:24Z</time>
      </trkpt>
      <trkpt lat="44.45317" lon="4.34144">
        <ele>119.9</ele>
        <time>2022-06-10T16:59:25Z</time>
      </trkpt>
      <trkpt lat="44.45317" lon="4.34145">
        <ele>119.9</ele>
        <time>2022-06-10T16:59:26Z</time>
      </trkpt>
      <trkpt lat="44.45317" lon="4.34145">
        <ele>119.9</ele>
        <time>2022-06-10T16:59:27Z</time>
      </trkpt>
      <trkpt lat="44.45317" lon="4.34145">
        <ele>119.9</ele>
        <time>2022-06-10T16:59:28Z</time>
      </trkpt>
      <trkpt lat="44.45317" lon="4.34145">
        <ele>119.9</ele>
        <time>2022-06-10T16:59:29Z</time>
      </trkpt>
      <trkpt lat="44.45317" lon="4.34145">
        <ele>119.9</ele>
        <time>2022-06-10T16:59:30Z</time>
      </trkpt>
      <trkpt lat="44.45318" lon="4.34145">
        <ele>119.9</ele>
        <time>2022-06-10T16:59:31Z</time>
      </trkpt>
      <trkpt lat="44.45319" lon="4.34145">
        <ele>119.9</ele>
        <time>2022-06-10T16:59:32Z</time>
      </trkpt>
      <trkpt lat="44.45319" lon="4.34145">
        <ele>119.9</ele>
        <time>2022-06-10T16:59:33Z</time>
      </trkpt>
      <trkpt lat="44.4532" lon="4.34145">
        <ele>119.9</ele>
        <time>2022-06-10T16:59:34Z</time>
      </trkpt>
      <trkpt lat="44.4532" lon="4.34145">
        <ele>119.9</ele>
        <time>2022-06-10T16:59:35Z</time>
      </trkpt>
      <trkpt lat="44.4532" lon="4.34145">
        <ele>119.9</ele>
        <time>2022-06-10T16:59:36Z</time>
      </trkpt>
      <trkpt lat="44.4532" lon="4.34145">
        <ele>119.9</ele>
        <time>2022-06-10T16:59:37Z</time>
      </trkpt>
      <trkpt lat="44.4532" lon="4.34145">
        <ele>119.9</ele>
        <time>2022-06-10T16:59:38Z</time>
      </trkpt>
      <trkpt lat="44.4532" lon="4.34145">
        <ele>119.9</ele>
        <time>2022-06-10T16:59:39Z</time>
      </trkpt>
      <trkpt lat="44.4532" lon="4.34145">
        <ele>119.9</ele>
        <time>2022-06-10T16:59:40Z</time>
      </trkpt>
      <trkpt lat="44.4532" lon="4.34145">
        <ele>119.9</ele>
        <time>2022-06-10T16:59:41Z</time>
      </trkpt>
      <trkpt lat="44.4532" lon="4.34145">
        <ele>119.9</ele>
        <time>2022-06-10T16:59:42Z</time>
      </trkpt>
      <trkpt lat="44.4532" lon="4.34145">
        <ele>119.9</ele>
        <time>2022-06-10T16:59:43Z</time>
      </trkpt>
      <trkpt lat="44.4532" lon="4.34145">
        <ele>119.9</ele>
        <time>2022-06-10T16:59:44Z</time>
      </trkpt>
      <trkpt lat="44.45309" lon="4.34154">
        <ele>119.8</ele>
        <time>2022-06-10T17:01:58Z</time>
      </trkpt>
      <trkpt lat="44.45308" lon="4.34155">
        <ele>119.8</ele>
        <time>2022-06-10T17:01:59Z</time>
      </trkpt>
      <trkpt lat="44.45308" lon="4.34155">
        <ele>119.8</ele>
        <time>2022-06-10T17:02:00Z</time>
      </trkpt>
      <trkpt lat="44.45308" lon="4.34155">
        <ele>119.8</ele>
        <time>2022-06-10T17:02:01Z</time>
      </trkpt>
      <trkpt lat="44.45308" lon="4.34155">
        <ele>119.8</ele>
        <time>2022-06-10T17:02:02Z</time>
      </trkpt>
      <trkpt lat="44.45308" lon="4.34155">
        <ele>119.8</ele>
        <time>2022-06-10T17:02:03Z</time>
      </trkpt>
      <trkpt lat="44.45308" lon="4.34155">
        <ele>119.8</ele>
        <time>2022-06-10T17:02:04Z</time>
      </trkpt>
      <trkpt lat="44.45308" lon="4.34155">
        <ele>119.8</ele>
        <time>2022-06-10T17:02:05Z</time>
      </trkpt>
      <trkpt lat="44.45308" lon="4.34155">
        <ele>119.8</ele>
        <time>2022-06-10T17:02:06Z</time>
      </trkpt>
      <trkpt lat="44.4531" lon="4.3415">
        <ele>119.8</ele>
        <time>2022-06-10T17:02:07Z</time>
      </trkpt>
      <trkpt lat="44.45311" lon="4.34147">
        <ele>119.8</ele>
        <time>2022-06-10T17:02:08Z</time>
      </trkpt>
      <trkpt lat="44.45311" lon="4.34146">
        <ele>119.8</ele>
        <time>2022-06-10T17:02:09Z</time>
      </trkpt>
      <trkpt lat="44.45311" lon="4.34146">
        <ele>119.8</ele>
        <time>2022-06-10T17:02:10Z</time>
      </trkpt>
      <trkpt lat="44.45311" lon="4.34146">
        <ele>119.8</ele>
        <time>2022-06-10T17:02:11Z</time>
      </trkpt>
      <trkpt lat="44.4531" lon="4.34146">
        <ele>119.8</ele>
        <time>2022-06-10T17:02:12Z</time>
      </trkpt>
      <trkpt lat="44.4531" lon="4.34146">
        <ele>119.8</ele>
        <time>2022-06-10T17:02:13Z</time>
      </trkpt>
      <trkpt lat="44.4531" lon="4.34146">
        <ele>119.8</ele>
        <time>2022-06-10T17:02:14Z</time>
      </trkpt>
      <trkpt lat="44.4531" lon="4.34147">
        <ele>119.8</ele>
        <time>2022-06-10T17:02:15Z</time>
      </trkpt>
      <trkpt lat="44.4531" lon="4.34147">
        <ele>119.8</ele>
        <time>2022-06-10T17:02:16Z</time>
      </trkpt>
      <trkpt lat="44.45309" lon="4.34147">
        <ele>119.8</ele>
        <time>2022-06-10T17:02:17Z</time>
      </trkpt>
      <trkpt lat="44.45309" lon="4.34147">
        <ele>119.8</ele>
        <time>2022-06-10T17:02:18Z</time>
      </trkpt>
      <trkpt lat="44.45309" lon="4.34147">
        <ele>119.8</ele>
        <time>2022-06-10T17:02:19Z</time>
      </trkpt>
      <trkpt lat="44.45309" lon="4.34147">
        <ele>119.8</ele>
        <time>2022-06-10T17:02:20Z</time>
      </trkpt>
      <trkpt lat="44.45309" lon="4.34147">
        <ele>119.8</ele>
        <time>2022-06-10T17:02:21Z</time>
      </trkpt>
      <trkpt lat="44.45309" lon="4.34148">
        <ele>119.8</ele>
        <time>2022-06-10T17:07:30Z</time>
      </trkpt>
      <trkpt lat="44.45308" lon="4.34148">
        <ele>119.8</ele>
        <time>2022-06-10T17:07:36Z</time>
      </trkpt>
      <trkpt lat="44.45308" lon="4.34148">
        <ele>119.8</ele>
        <time>2022-06-10T17:07:37Z</time>
      </trkpt>
      <trkpt lat="44.45308" lon="4.34148">
        <ele>119.8</ele>
        <time>2022-06-10T17:07:38Z</time>
      </trkpt>
      <trkpt lat="44.4531" lon="4.34147">
        <ele>119.8</ele>
        <time>2022-06-10T17:07:39Z</time>
      </trkpt>
      <trkpt lat="44.45311" lon="4.34147">
        <ele>119.7</ele>
        <time>2022-06-10T17:07:40Z</time>
      </trkpt>
      <trkpt lat="44.45311" lon="4.34147">
        <ele>119.7</ele>
        <time>2022-06-10T17:07:41Z</time>
      </trkpt>
      <trkpt lat="44.4531" lon="4.34147">
        <ele>119.7</ele>
        <time>2022-06-10T17:07:42Z</time>
      </trkpt>
      <trkpt lat="44.4531" lon="4.34147">
        <ele>119.7</ele>
        <time>2022-06-10T17:07:43Z</time>
      </trkpt>
      <trkpt lat="44.4531" lon="4.34147">
        <ele>119.7</ele>
        <time>2022-06-10T17:07:44Z</time>
      </trkpt>
      <trkpt lat="44.4531" lon="4.34147">
        <ele>119.7</ele>
        <time>2022-06-10T17:07:45Z</time>
      </trkpt>
      <trkpt lat="44.4531" lon="4.34147">
        <ele>119.7</ele>
        <time>2022-06-10T17:07:46Z</time>
      </trkpt>
      <trkpt lat="44.4531" lon="4.34147">
        <ele>119.7</ele>
        <time>2022-06-10T17:07:47Z</time>
      </trkpt>
      <trkpt lat="44.4531" lon="4.34147">
        <ele>119.7</ele>
        <time>2022-06-10T17:07:48Z</time>
      </trkpt>
      <trkpt lat="44.4531" lon="4.34147">
        <ele>119.7</ele>
        <time>2022-06-10T17:07:49Z</time>
      </trkpt>
      <trkpt lat="44.4531" lon="4.34147">
        <ele>119.7</ele>
        <time>2022-06-10T17:07:50Z</time>
      </trkpt>
      <trkpt lat="44.4531" lon="4.34147">
        <ele>119.7</ele>
        <time>2022-06-10T17:07:51Z</time>
      </trkpt>
      <trkpt lat="44.4531" lon="4.34147">
        <ele>119.7</ele>
        <time>2022-06-10T17:07:52Z</time>
      </trkpt>
      <trkpt lat="44.45306" lon="4.34149">
        <ele>119.7</ele>
        <time>2022-06-10T17:08:00Z</time>
      </trkpt>
      <trkpt lat="44.45306" lon="4.34149">
        <ele>119.7</ele>
        <time>2022-06-10T17:08:01Z</time>
      </trkpt>
      <trkpt lat="44.45306" lon="4.34149">
        <ele>119.7</ele>
        <time>2022-06-10T17:08:02Z</time>
      </trkpt>
      <trkpt lat="44.45307" lon="4.34149">
        <ele>119.7</ele>
        <time>2022-06-10T17:08:03Z</time>
      </trkpt>
      <trkpt lat="44.45307" lon="4.34148">
        <ele>119.7</ele>
        <time>2022-06-10T17:08:04Z</time>
      </trkpt>
      <trkpt lat="44.45308" lon="4.34148">
        <ele>119.7</ele>
        <time>2022-06-10T17:08:05Z</time>
      </trkpt>
      <trkpt lat="44.45309" lon="4.34148">
        <ele>119.7</ele>
        <time>2022-06-10T17:08:06Z</time>
      </trkpt>
      <trkpt lat="44.45309" lon="4.34147">
        <ele>119.7</ele>
        <time>2022-06-10T17:08:07Z</time>
      </trkpt>
      <trkpt lat="44.4531" lon="4.34147">
        <ele>119.7</ele>
        <time>2022-06-10T17:08:08Z</time>
      </trkpt>
      <trkpt lat="44.4531" lon="4.34147">
        <ele>119.7</ele>
        <time>2022-06-10T17:08:09Z</time>
      </trkpt>
      <trkpt lat="44.4531" lon="4.34147">
        <ele>119.7</ele>
        <time>2022-06-10T17:08:10Z</time>
      </trkpt>
      <trkpt lat="44.4531" lon="4.34147">
        <ele>119.7</ele>
        <time>2022-06-10T17:08:14Z</time>
      </trkpt>
      <trkpt lat="44.4531" lon="4.34147">
        <ele>119.7</ele>
        <time>2022-06-10T17:08:15Z</time>
      </trkpt>
      <trkpt lat="44.4531" lon="4.34147">
        <ele>119.7</ele>
        <time>2022-06-10T17:08:16Z</time>
      </trkpt>
      <trkpt lat="44.4531" lon="4.34147">
        <ele>119.7</ele>
        <time>2022-06-10T17:08:17Z</time>
      </trkpt>
      <trkpt lat="44.4531" lon="4.34147">
        <ele>119.7</ele>
        <time>2022-06-10T17:08:18Z</time>
      </trkpt>
      <trkpt lat="44.4531" lon="4.34147">
        <ele>119.7</ele>
        <time>2022-06-10T17:08:19Z</time>
      </trkpt>
      <trkpt lat="44.4531" lon="4.34147">
        <ele>119.7</ele>
        <time>2022-06-10T17:08:20Z</time>
      </trkpt>
      <trkpt lat="44.4531" lon="4.34147">
        <ele>119.7</ele>
        <time>2022-06-10T17:08:21Z</time>
      </trkpt>
      <trkpt lat="44.45312" lon="4.3415">
        <ele>119.7</ele>
        <time>2022-06-10T17:09:51Z</time>
      </trkpt>
      <trkpt lat="44.45313" lon="4.34151">
        <ele>119.7</ele>
        <time>2022-06-10T17:09:52Z</time>
      </trkpt>
      <trkpt lat="44.45313" lon="4.34151">
        <ele>119.7</ele>
        <time>2022-06-10T17:09:53Z</time>
      </trkpt>
      <trkpt lat="44.45315" lon="4.34152">
        <ele>119.7</ele>
        <time>2022-06-10T17:09:55Z</time>
      </trkpt>
      <trkpt lat="44.45316" lon="4.34153">
        <ele>119.7</ele>
        <time>2022-06-10T17:09:56Z</time>
      </trkpt>
      <trkpt lat="44.45316" lon="4.34151">
        <ele>119.7</ele>
        <time>2022-06-10T17:09:57Z</time>
      </trkpt>
      <trkpt lat="44.45317" lon="4.34151">
        <ele>119.7</ele>
        <time>2022-06-10T17:09:58Z</time>
      </trkpt>
      <trkpt lat="44.45317" lon="4.34148">
        <ele>119.7</ele>
        <time>2022-06-10T17:10:00Z</time>
      </trkpt>
      <trkpt lat="44.45318" lon="4.34147">
        <ele>119.7</ele>
        <time>2022-06-10T17:10:01Z</time>
      </trkpt>
      <trkpt lat="44.45319" lon="4.34147">
        <ele>119.7</ele>
        <time>2022-06-10T17:10:02Z</time>
      </trkpt>
      <trkpt lat="44.45318" lon="4.34147">
        <ele>119.7</ele>
        <time>2022-06-10T17:10:03Z</time>
      </trkpt>
      <trkpt lat="44.45318" lon="4.34147">
        <ele>119.7</ele>
        <time>2022-06-10T17:10:04Z</time>
      </trkpt>
      <trkpt lat="44.45317" lon="4.34148">
        <ele>119.7</ele>
        <time>2022-06-10T17:10:05Z</time>
      </trkpt>
      <trkpt lat="44.45317" lon="4.34148">
        <ele>119.7</ele>
        <time>2022-06-10T17:10:07Z</time>
      </trkpt>
      <trkpt lat="44.45317" lon="4.34148">
        <ele>119.7</ele>
        <time>2022-06-10T17:10:08Z</time>
      </trkpt>
      <trkpt lat="44.45317" lon="4.34148">
        <ele>119.7</ele>
        <time>2022-06-10T17:10:09Z</time>
      </trkpt>
      <trkpt lat="44.45317" lon="4.34148">
        <ele>119.7</ele>
        <time>2022-06-10T17:10:10Z</time>
      </trkpt>
      <trkpt lat="44.45316" lon="4.34148">
        <ele>119.7</ele>
        <time>2022-06-10T17:10:11Z</time>
      </trkpt>
      <trkpt lat="44.45316" lon="4.34148">
        <ele>119.6</ele>
        <time>2022-06-10T17:10:12Z</time>
      </trkpt>
      <trkpt lat="44.45316" lon="4.34149">
        <ele>119.6</ele>
        <time>2022-06-10T17:10:13Z</time>
      </trkpt>
      <trkpt lat="44.45316" lon="4.34144">
        <ele>119.6</ele>
        <time>2022-06-10T17:10:50Z</time>
      </trkpt>
      <trkpt lat="44.45316" lon="4.34143">
        <ele>119.6</ele>
        <time>2022-06-10T17:10:51Z</time>
      </trkpt>
      <trkpt lat="44.45316" lon="4.34141">
        <ele>119.6</ele>
        <time>2022-06-10T17:10:52Z</time>
      </trkpt>
      <trkpt lat="44.45317" lon="4.34141">
        <ele>119.6</ele>
        <time>2022-06-10T17:10:53Z</time>
      </trkpt>
      <trkpt lat="44.45317" lon="4.34138">
        <ele>119.6</ele>
        <time>2022-06-10T17:10:55Z</time>
      </trkpt>
      <trkpt lat="44.45317" lon="4.34132">
        <ele>119.5</ele>
        <time>2022-06-10T17:10:56Z</time>
      </trkpt>
      <trkpt lat="44.45317" lon="4.34129">
        <ele>119.5</ele>
        <time>2022-06-10T17:10:57Z</time>
      </trkpt>
      <trkpt lat="44.45318" lon="4.34127">
        <ele>119.5</ele>
        <time>2022-06-10T17:10:59Z</time>
      </trkpt>
      <trkpt lat="44.45318" lon="4.34125">
        <ele>119.4</ele>
        <time>2022-06-10T17:11:00Z</time>
      </trkpt>
      <trkpt lat="44.45318" lon="4.34123">
        <ele>119.3</ele>
        <time>2022-06-10T17:11:01Z</time>
      </trkpt>
      <trkpt lat="44.45318" lon="4.3412">
        <ele>119.3</ele>
        <time>2022-06-10T17:11:02Z</time>
      </trkpt>
      <trkpt lat="44.45319" lon="4.34118">
        <ele>119.3</ele>
        <time>2022-06-10T17:11:04Z</time>
      </trkpt>
      <trkpt lat="44.4532" lon="4.34116">
        <ele>119.3</ele>
        <time>2022-06-10T17:11:05Z</time>
      </trkpt>
      <trkpt lat="44.45321" lon="4.34115">
        <ele>119.3</ele>
        <time>2022-06-10T17:11:06Z</time>
      </trkpt>
      <trkpt lat="44.45321" lon="4.34114">
        <ele>119.3</ele>
        <time>2022-06-10T17:11:07Z</time>
      </trkpt>
      <trkpt lat="44.45322" lon="4.34112">
        <ele>119.3</ele>
        <time>2022-06-10T17:11:08Z</time>
      </trkpt>
      <trkpt lat="44.45323" lon="4.3411">
        <ele>119.3</ele>
        <time>2022-06-10T17:11:09Z</time>
      </trkpt>
      <trkpt lat="44.45324" lon="4.34106">
        <ele>119.3</ele>
        <time>2022-06-10T17:11:11Z</time>
      </trkpt>
      <trkpt lat="44.45324" lon="4.34105">
        <ele>119.3</ele>
        <time>2022-06-10T17:11:12Z</time>
      </trkpt>
      <trkpt lat="44.45324" lon="4.34101">
        <ele>119.3</ele>
        <time>2022-06-10T17:11:13Z</time>
      </trkpt>
      <trkpt lat="44.45324" lon="4.34099">
        <ele>119.3</ele>
        <time>2022-06-10T17:11:14Z</time>
      </trkpt>
      <trkpt lat="44.45324" lon="4.34097">
        <ele>119.3</ele>
        <time>2022-06-10T17:11:15Z</time>
      </trkpt>
      <trkpt lat="44.45324" lon="4.34095">
        <ele>119.3</ele>
        <time>2022-06-10T17:11:16Z</time>
      </trkpt>
      <trkpt lat="44.45324" lon="4.34092">
        <ele>119.3</ele>
        <time>2022-06-10T17:11:17Z</time>
      </trkpt>
      <trkpt lat="44.45325" lon="4.3409">
        <ele>119.3</ele>
        <time>2022-06-10T17:11:19Z</time>
      </trkpt>
      <trkpt lat="44.45325" lon="4.34087">
        <ele>119.3</ele>
        <time>2022-06-10T17:11:20Z</time>
      </trkpt>
      <trkpt lat="44.45326" lon="4.34085">
        <ele>119.3</ele>
        <time>2022-06-10T17:11:21Z</time>
      </trkpt>
      <trkpt lat="44.45327" lon="4.34083">
        <ele>119.3</ele>
        <time>2022-06-10T17:11:22Z</time>
      </trkpt>
      <trkpt lat="44.45327" lon="4.34083">
        <ele>119.3</ele>
        <time>2022-06-10T17:11:23Z</time>
      </trkpt>
      <trkpt lat="44.45327" lon="4.34083">
        <ele>119.3</ele>
        <time>2022-06-10T17:11:24Z</time>
      </trkpt>
      <trkpt lat="44.45327" lon="4.34083">
        <ele>119.3</ele>
        <time>2022-06-10T17:11:25Z</time>
      </trkpt>
      <trkpt lat="44.45327" lon="4.34083">
        <ele>119.3</ele>
        <time>2022-06-10T17:11:26Z</time>
      </trkpt>
      <trkpt lat="44.45327" lon="4.34083">
        <ele>119.3</ele>
        <time>2022-06-10T17:11:27Z</time>
      </trkpt>
      <trkpt lat="44.45327" lon="4.34083">
        <ele>119.3</ele>
        <time>2022-06-10T17:11:28Z</time>
      </trkpt>
      <trkpt lat="44.45327" lon="4.34083">
        <ele>119.3</ele>
        <time>2022-06-10T17:11:29Z</time>
      </trkpt>
      <trkpt lat="44.45327" lon="4.34083">
        <ele>119.3</ele>
        <time>2022-06-10T17:11:30Z</time>
      </trkpt>
      <trkpt lat="44.45327" lon="4.34083">
        <ele>119.3</ele>
        <time>2022-06-10T17:11:31Z</time>
      </trkpt>
      <trkpt lat="44.45327" lon="4.34083">
        <ele>119.3</ele>
        <time>2022-06-10T17:11:32Z</time>
      </trkpt>
      <trkpt lat="44.45327" lon="4.34083">
        <ele>119.3</ele>
        <time>2022-06-10T17:11:33Z</time>
      </trkpt>
      <trkpt lat="44.45327" lon="4.34082">
        <ele>119.3</ele>
        <time>2022-06-10T17:11:48Z</time>
      </trkpt>
      <trkpt lat="44.45328" lon="4.34079">
        <ele>119.4</ele>
        <time>2022-06-10T17:11:49Z</time>
      </trkpt>
      <trkpt lat="44.45329" lon="4.34076">
        <ele>119.4</ele>
        <time>2022-06-10T17:11:51Z</time>
      </trkpt>
      <trkpt lat="44.45331" lon="4.34072">
        <ele>119.5</ele>
        <time>2022-06-10T17:11:52Z</time>
      </trkpt>
      <trkpt lat="44.45332" lon="4.34068">
        <ele>119.5</ele>
        <time>2022-06-10T17:11:53Z</time>
      </trkpt>
      <trkpt lat="44.45333" lon="4.34067">
        <ele>119.5</ele>
        <time>2022-06-10T17:11:54Z</time>
      </trkpt>
      <trkpt lat="44.45334" lon="4.34064">
        <ele>119.6</ele>
        <time>2022-06-10T17:11:56Z</time>
      </trkpt>
      <trkpt lat="44.45336" lon="4.34059">
        <ele>119.7</ele>
        <time>2022-06-10T17:11:57Z</time>
      </trkpt>
      <trkpt lat="44.45337" lon="4.34055">
        <ele>119.8</ele>
        <time>2022-06-10T17:11:59Z</time>
      </trkpt>
      <trkpt lat="44.45338" lon="4.34054">
        <ele>119.8</ele>
        <time>2022-06-10T17:12:00Z</time>
      </trkpt>
      <trkpt lat="44.45339" lon="4.3405">
        <ele>119.8</ele>
        <time>2022-06-10T17:12:01Z</time>
      </trkpt>
      <trkpt lat="44.4534" lon="4.34049">
        <ele>119.9</ele>
        <time>2022-06-10T17:12:02Z</time>
      </trkpt>
      <trkpt lat="44.4534" lon="4.34045">
        <ele>119.9</ele>
        <time>2022-06-10T17:12:03Z</time>
      </trkpt>
      <trkpt lat="44.45342" lon="4.34042">
        <ele>119.9</ele>
        <time>2022-06-10T17:12:05Z</time>
      </trkpt>
      <trkpt lat="44.45345" lon="4.34041">
        <ele>119.9</ele>
        <time>2022-06-10T17:12:06Z</time>
      </trkpt>
      <trkpt lat="44.45347" lon="4.3404">
        <ele>119.9</ele>
        <time>2022-06-10T17:12:08Z</time>
      </trkpt>
      <trkpt lat="44.4535" lon="4.3404">
        <ele>119.9</ele>
        <time>2022-06-10T17:12:09Z</time>
      </trkpt>
      <trkpt lat="44.45351" lon="4.34039">
        <ele>119.9</ele>
        <time>2022-06-10T17:12:11Z</time>
      </trkpt>
      <trkpt lat="44.4535" lon="4.34038">
        <ele>119.9</ele>
        <time>2022-06-10T17:12:12Z</time>
      </trkpt>
      <trkpt lat="44.4535" lon="4.34037">
        <ele>119.9</ele>
        <time>2022-06-10T17:12:13Z</time>
      </trkpt>
      <trkpt lat="44.4535" lon="4.34037">
        <ele>119.9</ele>
        <time>2022-06-10T17:12:14Z</time>
      </trkpt>
      <trkpt lat="44.45349" lon="4.34036">
        <ele>119.9</ele>
        <time>2022-06-10T17:12:15Z</time>
      </trkpt>
      <trkpt lat="44.45349" lon="4.34035">
        <ele>119.8</ele>
        <time>2022-06-10T17:12:16Z</time>
      </trkpt>
      <trkpt lat="44.45348" lon="4.34035">
        <ele>119.8</ele>
        <time>2022-06-10T17:12:17Z</time>
      </trkpt>
      <trkpt lat="44.45348" lon="4.34034">
        <ele>119.8</ele>
        <time>2022-06-10T17:12:18Z</time>
      </trkpt>
      <trkpt lat="44.45348" lon="4.34034">
        <ele>119.8</ele>
        <time>2022-06-10T17:12:19Z</time>
      </trkpt>
      <trkpt lat="44.45347" lon="4.34033">
        <ele>119.8</ele>
        <time>2022-06-10T17:12:20Z</time>
      </trkpt>
      <trkpt lat="44.45347" lon="4.34032">
        <ele>119.8</ele>
        <time>2022-06-10T17:12:22Z</time>
      </trkpt>
      <trkpt lat="44.45346" lon="4.34032">
        <ele>119.8</ele>
        <time>2022-06-10T17:12:51Z</time>
      </trkpt>
      <trkpt lat="44.45346" lon="4.34031">
        <ele>119.8</ele>
        <time>2022-06-10T17:12:52Z</time>
      </trkpt>
      <trkpt lat="44.45346" lon="4.3403">
        <ele>119.8</ele>
        <time>2022-06-10T17:12:53Z</time>
      </trkpt>
      <trkpt lat="44.45347" lon="4.34027">
        <ele>119.8</ele>
        <time>2022-06-10T17:12:54Z</time>
      </trkpt>
      <trkpt lat="44.45349" lon="4.34022">
        <ele>119.8</ele>
        <time>2022-06-10T17:12:56Z</time>
      </trkpt>
      <trkpt lat="44.45352" lon="4.34015">
        <ele>120</ele>
        <time>2022-06-10T17:12:57Z</time>
      </trkpt>
      <trkpt lat="44.45353" lon="4.34012">
        <ele>120.1</ele>
        <time>2022-06-10T17:12:58Z</time>
      </trkpt>
      <trkpt lat="44.45355" lon="4.34008">
        <ele>120.3</ele>
        <time>2022-06-10T17:13:00Z</time>
      </trkpt>
      <trkpt lat="44.45356" lon="4.34007">
        <ele>120.3</ele>
        <time>2022-06-10T17:13:01Z</time>
      </trkpt>
      <trkpt lat="44.45358" lon="4.34003">
        <ele>120.4</ele>
        <time>2022-06-10T17:13:02Z</time>
      </trkpt>
      <trkpt lat="44.45359" lon="4.34">
        <ele>120.6</ele>
        <time>2022-06-10T17:13:04Z</time>
      </trkpt>
      <trkpt lat="44.4536" lon="4.34">
        <ele>120.6</ele>
        <time>2022-06-10T17:13:05Z</time>
      </trkpt>
      <trkpt lat="44.4536" lon="4.34">
        <ele>120.6</ele>
        <time>2022-06-10T17:13:06Z</time>
      </trkpt>
      <trkpt lat="44.45361" lon="4.34">
        <ele>120.6</ele>
        <time>2022-06-10T17:13:07Z</time>
      </trkpt>
      <trkpt lat="44.45361" lon="4.34">
        <ele>120.6</ele>
        <time>2022-06-10T17:13:08Z</time>
      </trkpt>
      <trkpt lat="44.45362" lon="4.34">
        <ele>120.7</ele>
        <time>2022-06-10T17:13:09Z</time>
      </trkpt>
      <trkpt lat="44.45362" lon="4.34">
        <ele>120.7</ele>
        <time>2022-06-10T17:13:10Z</time>
      </trkpt>
      <trkpt lat="44.45363" lon="4.34">
        <ele>120.7</ele>
        <time>2022-06-10T17:13:13Z</time>
      </trkpt>
      <trkpt lat="44.45363" lon="4.34">
        <ele>120.7</ele>
        <time>2022-06-10T17:13:14Z</time>
      </trkpt>
      <trkpt lat="44.45364" lon="4.34">
        <ele>120.7</ele>
        <time>2022-06-10T17:13:15Z</time>
      </trkpt>
      <trkpt lat="44.45364" lon="4.34">
        <ele>120.8</ele>
        <time>2022-06-10T17:13:18Z</time>
      </trkpt>
      <trkpt lat="44.45364" lon="4.34">
        <ele>120.8</ele>
        <time>2022-06-10T17:13:19Z</time>
      </trkpt>
      <trkpt lat="44.45365" lon="4.34">
        <ele>120.8</ele>
        <time>2022-06-10T17:13:20Z</time>
      </trkpt>
      <trkpt lat="44.45365" lon="4.34">
        <ele>120.8</ele>
        <time>2022-06-10T17:13:21Z</time>
      </trkpt>
      <trkpt lat="44.45365" lon="4.34">
        <ele>120.8</ele>
        <time>2022-06-10T17:13:22Z</time>
      </trkpt>
      <trkpt lat="44.45365" lon="4.34">
        <ele>120.8</ele>
        <time>2022-06-10T17:13:23Z</time>
      </trkpt>
      <trkpt lat="44.45366" lon="4.34001">
        <ele>120.9</ele>
        <time>2022-06-10T17:13:24Z</time>
      </trkpt>
      <trkpt lat="44.45367" lon="4.34001">
        <ele>120.9</ele>
        <time>2022-06-10T17:13:25Z</time>
      </trkpt>
      <trkpt lat="44.45367" lon="4.34001">
        <ele>120.9</ele>
        <time>2022-06-10T17:13:26Z</time>
      </trkpt>
      <trkpt lat="44.4537" lon="4.34001">
        <ele>121</ele>
        <time>2022-06-10T17:13:27Z</time>
      </trkpt>
      <trkpt lat="44.45376" lon="4.34002">
        <ele>121.2</ele>
        <time>2022-06-10T17:13:28Z</time>
      </trkpt>
      <trkpt lat="44.45381" lon="4.34003">
        <ele>121.3</ele>
        <time>2022-06-10T17:13:29Z</time>
      </trkpt>
      <trkpt lat="44.45386" lon="4.34004">
        <ele>121.2</ele>
        <time>2022-06-10T17:13:30Z</time>
      </trkpt>
      <trkpt lat="44.45387" lon="4.34003">
        <ele>121.1</ele>
        <time>2022-06-10T17:13:31Z</time>
      </trkpt>
      <trkpt lat="44.45388" lon="4.34004">
        <ele>121.1</ele>
        <time>2022-06-10T17:13:32Z</time>
      </trkpt>
      <trkpt lat="44.45388" lon="4.34006">
        <ele>121.1</ele>
        <time>2022-06-10T17:13:33Z</time>
      </trkpt>
      <trkpt lat="44.45388" lon="4.34006">
        <ele>121</ele>
        <time>2022-06-10T17:13:34Z</time>
      </trkpt>
      <trkpt lat="44.45388" lon="4.34006">
        <ele>121</ele>
        <time>2022-06-10T17:13:35Z</time>
      </trkpt>
      <trkpt lat="44.45387" lon="4.34006">
        <ele>121</ele>
        <time>2022-06-10T17:13:36Z</time>
      </trkpt>
      <trkpt lat="44.45387" lon="4.34005">
        <ele>121</ele>
        <time>2022-06-10T17:13:37Z</time>
      </trkpt>
      <trkpt lat="44.45387" lon="4.34005">
        <ele>121</ele>
        <time>2022-06-10T17:13:38Z</time>
      </trkpt>
      <trkpt lat="44.45387" lon="4.34005">
        <ele>121</ele>
        <time>2022-06-10T17:13:39Z</time>
      </trkpt>
      <trkpt lat="44.45387" lon="4.34004">
        <ele>121</ele>
        <time>2022-06-10T17:13:40Z</time>
      </trkpt>
      <trkpt lat="44.45387" lon="4.34004">
        <ele>121</ele>
        <time>2022-06-10T17:13:41Z</time>
      </trkpt>
      <trkpt lat="44.45386" lon="4.34004">
        <ele>121</ele>
        <time>2022-06-10T17:13:42Z</time>
      </trkpt>
      <trkpt lat="44.45386" lon="4.34004">
        <ele>121</ele>
        <time>2022-06-10T17:13:43Z</time>
      </trkpt>
      <trkpt lat="44.45386" lon="4.34003">
        <ele>121</ele>
        <time>2022-06-10T17:13:44Z</time>
      </trkpt>
      <trkpt lat="44.45386" lon="4.34003">
        <ele>121</ele>
        <time>2022-06-10T17:13:45Z</time>
      </trkpt>
      <trkpt lat="44.45386" lon="4.34003">
        <ele>121</ele>
        <time>2022-06-10T17:13:46Z</time>
      </trkpt>
      <trkpt lat="44.45386" lon="4.34002">
        <ele>121</ele>
        <time>2022-06-10T17:13:47Z</time>
      </trkpt>
      <trkpt lat="44.45385" lon="4.34002">
        <ele>121</ele>
        <time>2022-06-10T17:13:48Z</time>
      </trkpt>
      <trkpt lat="44.45385" lon="4.34002">
        <ele>121</ele>
        <time>2022-06-10T17:13:49Z</time>
      </trkpt>
      <trkpt lat="44.45382" lon="4.34">
        <ele>120.9</ele>
        <time>2022-06-10T17:13:50Z</time>
      </trkpt>
      <trkpt lat="44.45381" lon="4.34">
        <ele>120.9</ele>
        <time>2022-06-10T17:13:51Z</time>
      </trkpt>
      <trkpt lat="44.45377" lon="4.34002">
        <ele>120.7</ele>
        <time>2022-06-10T17:13:52Z</time>
      </trkpt>
      <trkpt lat="44.45371" lon="4.34002">
        <ele>120.6</ele>
        <time>2022-06-10T17:13:53Z</time>
      </trkpt>
      <trkpt lat="44.45367" lon="4.34005">
        <ele>120.4</ele>
        <time>2022-06-10T17:13:54Z</time>
      </trkpt>
      <trkpt lat="44.45364" lon="4.34009">
        <ele>120.3</ele>
        <time>2022-06-10T17:13:55Z</time>
      </trkpt>
      <trkpt lat="44.45362" lon="4.34012">
        <ele>120.2</ele>
        <time>2022-06-10T17:13:56Z</time>
      </trkpt>
      <trkpt lat="44.45359" lon="4.34015">
        <ele>120.1</ele>
        <time>2022-06-10T17:13:57Z</time>
      </trkpt>
      <trkpt lat="44.45359" lon="4.34016">
        <ele>120.1</ele>
        <time>2022-06-10T17:13:58Z</time>
      </trkpt>
      <trkpt lat="44.45357" lon="4.34019">
        <ele>120</ele>
        <time>2022-06-10T17:13:59Z</time>
      </trkpt>
      <trkpt lat="44.45356" lon="4.34021">
        <ele>120</ele>
        <time>2022-06-10T17:14:00Z</time>
      </trkpt>
      <trkpt lat="44.45354" lon="4.34024">
        <ele>119.9</ele>
        <time>2022-06-10T17:14:01Z</time>
      </trkpt>
      <trkpt lat="44.45353" lon="4.34025">
        <ele>119.8</ele>
        <time>2022-06-10T17:14:02Z</time>
      </trkpt>
      <trkpt lat="44.4535" lon="4.34029">
        <ele>119.8</ele>
        <time>2022-06-10T17:14:03Z</time>
      </trkpt>
      <trkpt lat="44.45349" lon="4.34031">
        <ele>119.8</ele>
        <time>2022-06-10T17:14:04Z</time>
      </trkpt>
      <trkpt lat="44.45347" lon="4.34035">
        <ele>119.8</ele>
        <time>2022-06-10T17:14:05Z</time>
      </trkpt>
      <trkpt lat="44.45345" lon="4.34038">
        <ele>119.9</ele>
        <time>2022-06-10T17:14:06Z</time>
      </trkpt>
      <trkpt lat="44.45344" lon="4.34043">
        <ele>119.9</ele>
        <time>2022-06-10T17:14:07Z</time>
      </trkpt>
      <trkpt lat="44.45344" lon="4.34045">
        <ele>119.9</ele>
        <time>2022-06-10T17:14:08Z</time>
      </trkpt>
      <trkpt lat="44.45346" lon="4.34049">
        <ele>120.1</ele>
        <time>2022-06-10T17:14:09Z</time>
      </trkpt>
      <trkpt lat="44.45346" lon="4.3405">
        <ele>120.2</ele>
        <time>2022-06-10T17:14:10Z</time>
      </trkpt>
      <trkpt lat="44.45348" lon="4.34054">
        <ele>120.4</ele>
        <time>2022-06-10T17:14:11Z</time>
      </trkpt>
      <trkpt lat="44.45349" lon="4.34055">
        <ele>120.5</ele>
        <time>2022-06-10T17:14:12Z</time>
      </trkpt>
      <trkpt lat="44.45351" lon="4.34058">
        <ele>120.7</ele>
        <time>2022-06-10T17:14:13Z</time>
      </trkpt>
      <trkpt lat="44.45351" lon="4.34059">
        <ele>120.8</ele>
        <time>2022-06-10T17:14:14Z</time>
      </trkpt>
      <trkpt lat="44.45354" lon="4.34062">
        <ele>121</ele>
        <time>2022-06-10T17:14:15Z</time>
      </trkpt>
      <trkpt lat="44.45354" lon="4.34063">
        <ele>121.1</ele>
        <time>2022-06-10T17:14:16Z</time>
      </trkpt>
      <trkpt lat="44.45356" lon="4.34065">
        <ele>121.2</ele>
        <time>2022-06-10T17:14:17Z</time>
      </trkpt>
      <trkpt lat="44.45357" lon="4.34066">
        <ele>121.3</ele>
        <time>2022-06-10T17:14:18Z</time>
      </trkpt>
      <trkpt lat="44.45358" lon="4.34067">
        <ele>121.3</ele>
        <time>2022-06-10T17:14:19Z</time>
      </trkpt>
      <trkpt lat="44.45359" lon="4.34068">
        <ele>121.3</ele>
        <time>2022-06-10T17:14:20Z</time>
      </trkpt>
      <trkpt lat="44.4536" lon="4.34069">
        <ele>121.3</ele>
        <time>2022-06-10T17:14:21Z</time>
      </trkpt>
      <trkpt lat="44.45361" lon="4.34069">
        <ele>121.3</ele>
        <time>2022-06-10T17:14:22Z</time>
      </trkpt>
      <trkpt lat="44.45361" lon="4.34069">
        <ele>121.3</ele>
        <time>2022-06-10T17:14:23Z</time>
      </trkpt>
      <trkpt lat="44.45361" lon="4.34068">
        <ele>121.3</ele>
        <time>2022-06-10T17:14:24Z</time>
      </trkpt>
      <trkpt lat="44.45361" lon="4.34068">
        <ele>121.3</ele>
        <time>2022-06-10T17:14:25Z</time>
      </trkpt>
      <trkpt lat="44.45361" lon="4.34069">
        <ele>121.3</ele>
        <time>2022-06-10T17:14:26Z</time>
      </trkpt>
      <trkpt lat="44.45361" lon="4.34069">
        <ele>121.4</ele>
        <time>2022-06-10T17:14:27Z</time>
      </trkpt>
      <trkpt lat="44.4536" lon="4.34069">
        <ele>121.4</ele>
        <time>2022-06-10T17:14:28Z</time>
      </trkpt>
      <trkpt lat="44.4536" lon="4.34069">
        <ele>121.4</ele>
        <time>2022-06-10T17:14:29Z</time>
      </trkpt>
      <trkpt lat="44.4536" lon="4.34069">
        <ele>121.4</ele>
        <time>2022-06-10T17:14:30Z</time>
      </trkpt>
      <trkpt lat="44.45359" lon="4.34069">
        <ele>121.4</ele>
        <time>2022-06-10T17:14:31Z</time>
      </trkpt>
      <trkpt lat="44.45359" lon="4.34069">
        <ele>121.4</ele>
        <time>2022-06-10T17:14:32Z</time>
      </trkpt>
      <trkpt lat="44.45362" lon="4.34065">
        <ele>121.4</ele>
        <time>2022-06-10T17:14:58Z</time>
      </trkpt>
      <trkpt lat="44.45363" lon="4.34064">
        <ele>121.4</ele>
        <time>2022-06-10T17:14:59Z</time>
      </trkpt>
      <trkpt lat="44.45364" lon="4.34064">
        <ele>121.6</ele>
        <time>2022-06-10T17:15:00Z</time>
      </trkpt>
      <trkpt lat="44.45365" lon="4.34064">
        <ele>121.6</ele>
        <time>2022-06-10T17:15:01Z</time>
      </trkpt>
      <trkpt lat="44.45367" lon="4.34063">
        <ele>121.6</ele>
        <time>2022-06-10T17:15:02Z</time>
      </trkpt>
      <trkpt lat="44.45368" lon="4.34063">
        <ele>121.6</ele>
        <time>2022-06-10T17:15:03Z</time>
      </trkpt>
      <trkpt lat="44.4537" lon="4.34062">
        <ele>121.6</ele>
        <time>2022-06-10T17:15:04Z</time>
      </trkpt>
      <trkpt lat="44.45371" lon="4.3406">
        <ele>121.7</ele>
        <time>2022-06-10T17:15:05Z</time>
      </trkpt>
      <trkpt lat="44.45372" lon="4.34059">
        <ele>121.7</ele>
        <time>2022-06-10T17:15:06Z</time>
      </trkpt>
      <trkpt lat="44.45373" lon="4.34057">
        <ele>121.7</ele>
        <time>2022-06-10T17:15:07Z</time>
      </trkpt>
      <trkpt lat="44.45374" lon="4.34055">
        <ele>121.7</ele>
        <time>2022-06-10T17:15:08Z</time>
      </trkpt>
      <trkpt lat="44.45374" lon="4.34054">
        <ele>121.7</ele>
        <time>2022-06-10T17:15:09Z</time>
      </trkpt>
      <trkpt lat="44.45375" lon="4.34054">
        <ele>121.7</ele>
        <time>2022-06-10T17:15:10Z</time>
      </trkpt>
      <trkpt lat="44.45376" lon="4.34052">
        <ele>121.7</ele>
        <time>2022-06-10T17:15:11Z</time>
      </trkpt>
      <trkpt lat="44.45376" lon="4.34051">
        <ele>121.7</ele>
        <time>2022-06-10T17:15:12Z</time>
      </trkpt>
      <trkpt lat="44.45376" lon="4.34051">
        <ele>121.7</ele>
        <time>2022-06-10T17:15:13Z</time>
      </trkpt>
      <trkpt lat="44.45377" lon="4.3405">
        <ele>121.7</ele>
        <time>2022-06-10T17:15:14Z</time>
      </trkpt>
      <trkpt lat="44.45376" lon="4.3405">
        <ele>121.7</ele>
        <time>2022-06-10T17:15:16Z</time>
      </trkpt>
      <trkpt lat="44.45375" lon="4.3405">
        <ele>121.7</ele>
        <time>2022-06-10T17:15:17Z</time>
      </trkpt>
      <trkpt lat="44.45375" lon="4.34051">
        <ele>121.7</ele>
        <time>2022-06-10T17:15:18Z</time>
      </trkpt>
      <trkpt lat="44.45375" lon="4.34051">
        <ele>121.7</ele>
        <time>2022-06-10T17:15:19Z</time>
      </trkpt>
      <trkpt lat="44.45375" lon="4.34051">
        <ele>121.7</ele>
        <time>2022-06-10T17:15:20Z</time>
      </trkpt>
      <trkpt lat="44.45375" lon="4.34051">
        <ele>121.7</ele>
        <time>2022-06-10T17:15:21Z</time>
      </trkpt>
      <trkpt lat="44.45375" lon="4.34052">
        <ele>121.7</ele>
        <time>2022-06-10T17:15:22Z</time>
      </trkpt>
      <trkpt lat="44.45375" lon="4.34052">
        <ele>121.7</ele>
        <time>2022-06-10T17:15:23Z</time>
      </trkpt>
      <trkpt lat="44.45375" lon="4.34052">
        <ele>121.7</ele>
        <time>2022-06-10T17:15:24Z</time>
      </trkpt>
      <trkpt lat="44.45374" lon="4.34055">
        <ele>121.6</ele>
        <time>2022-06-10T17:15:57Z</time>
      </trkpt>
      <trkpt lat="44.45373" lon="4.34056">
        <ele>121.6</ele>
        <time>2022-06-10T17:15:58Z</time>
      </trkpt>
      <trkpt lat="44.45373" lon="4.34056">
        <ele>121.6</ele>
        <time>2022-06-10T17:15:59Z</time>
      </trkpt>
      <trkpt lat="44.45373" lon="4.34056">
        <ele>121.6</ele>
        <time>2022-06-10T17:16:00Z</time>
      </trkpt>
      <trkpt lat="44.45373" lon="4.34058">
        <ele>121.6</ele>
        <time>2022-06-10T17:16:01Z</time>
      </trkpt>
      <trkpt lat="44.45373" lon="4.34059">
        <ele>121.6</ele>
        <time>2022-06-10T17:16:02Z</time>
      </trkpt>
      <trkpt lat="44.45373" lon="4.34061">
        <ele>121.6</ele>
        <time>2022-06-10T17:16:04Z</time>
      </trkpt>
      <trkpt lat="44.45371" lon="4.34063">
        <ele>121.6</ele>
        <time>2022-06-10T17:16:06Z</time>
      </trkpt>
      <trkpt lat="44.4537" lon="4.34063">
        <ele>121.6</ele>
        <time>2022-06-10T17:16:07Z</time>
      </trkpt>
      <trkpt lat="44.45365" lon="4.34065">
        <ele>121.6</ele>
        <time>2022-06-10T17:16:09Z</time>
      </trkpt>
      <trkpt lat="44.45363" lon="4.34065">
        <ele>121.5</ele>
        <time>2022-06-10T17:16:10Z</time>
      </trkpt>
      <trkpt lat="44.45361" lon="4.34065">
        <ele>121.4</ele>
        <time>2022-06-10T17:16:11Z</time>
      </trkpt>
      <trkpt lat="44.4536" lon="4.34065">
        <ele>121.4</ele>
        <time>2022-06-10T17:16:12Z</time>
      </trkpt>
      <trkpt lat="44.45358" lon="4.34066">
        <ele>121.4</ele>
        <time>2022-06-10T17:16:14Z</time>
      </trkpt>
      <trkpt lat="44.45358" lon="4.34065">
        <ele>121.4</ele>
        <time>2022-06-10T17:16:15Z</time>
      </trkpt>
      <trkpt lat="44.45357" lon="4.34065">
        <ele>121.3</ele>
        <time>2022-06-10T17:16:16Z</time>
      </trkpt>
      <trkpt lat="44.45357" lon="4.34064">
        <ele>121.3</ele>
        <time>2022-06-10T17:16:17Z</time>
      </trkpt>
      <trkpt lat="44.45357" lon="4.34064">
        <ele>121.3</ele>
        <time>2022-06-10T17:16:18Z</time>
      </trkpt>
      <trkpt lat="44.45357" lon="4.34065">
        <ele>121.3</ele>
        <time>2022-06-10T17:16:19Z</time>
      </trkpt>
      <trkpt lat="44.45357" lon="4.34065">
        <ele>121.3</ele>
        <time>2022-06-10T17:16:20Z</time>
      </trkpt>
      <trkpt lat="44.45357" lon="4.34066">
        <ele>121.3</ele>
        <time>2022-06-10T17:16:21Z</time>
      </trkpt>
      <trkpt lat="44.45357" lon="4.34066">
        <ele>121.3</ele>
        <time>2022-06-10T17:16:23Z</time>
      </trkpt>
      <trkpt lat="44.45357" lon="4.34066">
        <ele>121.3</ele>
        <time>2022-06-10T17:16:24Z</time>
      </trkpt>
      <trkpt lat="44.45357" lon="4.34066">
        <ele>121.3</ele>
        <time>2022-06-10T17:16:25Z</time>
      </trkpt>
      <trkpt lat="44.45357" lon="4.34066">
        <ele>121.3</ele>
        <time>2022-06-10T17:16:26Z</time>
      </trkpt>
      <trkpt lat="44.45357" lon="4.34066">
        <ele>121.3</ele>
        <time>2022-06-10T17:16:27Z</time>
      </trkpt>
      <trkpt lat="44.45356" lon="4.34066">
        <ele>121.3</ele>
        <time>2022-06-10T17:16:59Z</time>
      </trkpt>
      <trkpt lat="44.45355" lon="4.34067">
        <ele>121.1</ele>
        <time>2022-06-10T17:17:01Z</time>
      </trkpt>
      <trkpt lat="44.45353" lon="4.34069">
        <ele>121</ele>
        <time>2022-06-10T17:17:02Z</time>
      </trkpt>
      <trkpt lat="44.45352" lon="4.34072">
        <ele>120.9</ele>
        <time>2022-06-10T17:17:03Z</time>
      </trkpt>
      <trkpt lat="44.45351" lon="4.34074">
        <ele>120.8</ele>
        <time>2022-06-10T17:17:05Z</time>
      </trkpt>
      <trkpt lat="44.4535" lon="4.34079">
        <ele>120.7</ele>
        <time>2022-06-10T17:17:06Z</time>
      </trkpt>
      <trkpt lat="44.4535" lon="4.3408">
        <ele>120.6</ele>
        <time>2022-06-10T17:17:07Z</time>
      </trkpt>
      <trkpt lat="44.45349" lon="4.34083">
        <ele>120.5</ele>
        <time>2022-06-10T17:17:08Z</time>
      </trkpt>
      <trkpt lat="44.4535" lon="4.34085">
        <ele>120.5</ele>
        <time>2022-06-10T17:17:09Z</time>
      </trkpt>
      <trkpt lat="44.4535" lon="4.34087">
        <ele>120.4</ele>
        <time>2022-06-10T17:17:10Z</time>
      </trkpt>
      <trkpt lat="44.45349" lon="4.34089">
        <ele>120.4</ele>
        <time>2022-06-10T17:17:11Z</time>
      </trkpt>
      <trkpt lat="44.45349" lon="4.34091">
        <ele>120.3</ele>
        <time>2022-06-10T17:17:12Z</time>
      </trkpt>
      <trkpt lat="44.45349" lon="4.34093">
        <ele>120.3</ele>
        <time>2022-06-10T17:17:13Z</time>
      </trkpt>
      <trkpt lat="44.45348" lon="4.34097">
        <ele>120.2</ele>
        <time>2022-06-10T17:17:14Z</time>
      </trkpt>
      <trkpt lat="44.45348" lon="4.34098">
        <ele>120.1</ele>
        <time>2022-06-10T17:17:15Z</time>
      </trkpt>
      <trkpt lat="44.45347" lon="4.34103">
        <ele>120</ele>
        <time>2022-06-10T17:17:16Z</time>
      </trkpt>
      <trkpt lat="44.45347" lon="4.34104">
        <ele>120</ele>
        <time>2022-06-10T17:17:17Z</time>
      </trkpt>
      <trkpt lat="44.45345" lon="4.34111">
        <ele>119.9</ele>
        <time>2022-06-10T17:17:18Z</time>
      </trkpt>
      <trkpt lat="44.45344" lon="4.34114">
        <ele>119.8</ele>
        <time>2022-06-10T17:17:19Z</time>
      </trkpt>
      <trkpt lat="44.45343" lon="4.34118">
        <ele>119.8</ele>
        <time>2022-06-10T17:17:21Z</time>
      </trkpt>
      <trkpt lat="44.45343" lon="4.34122">
        <ele>119.7</ele>
        <time>2022-06-10T17:17:22Z</time>
      </trkpt>
      <trkpt lat="44.45342" lon="4.34126">
        <ele>119.7</ele>
        <time>2022-06-10T17:17:23Z</time>
      </trkpt>
      <trkpt lat="44.45341" lon="4.3413">
        <ele>119.6</ele>
        <time>2022-06-10T17:17:24Z</time>
      </trkpt>
      <trkpt lat="44.45339" lon="4.34137">
        <ele>119.7</ele>
        <time>2022-06-10T17:17:25Z</time>
      </trkpt>
      <trkpt lat="44.45338" lon="4.34139">
        <ele>119.8</ele>
        <time>2022-06-10T17:17:27Z</time>
      </trkpt>
      <trkpt lat="44.45338" lon="4.3414">
        <ele>120</ele>
        <time>2022-06-10T17:17:28Z</time>
      </trkpt>
      <trkpt lat="44.45337" lon="4.34141">
        <ele>120</ele>
        <time>2022-06-10T17:17:29Z</time>
      </trkpt>
      <trkpt lat="44.45336" lon="4.34142">
        <ele>119.9</ele>
        <time>2022-06-10T17:17:30Z</time>
      </trkpt>
      <trkpt lat="44.45336" lon="4.34142">
        <ele>119.9</ele>
        <time>2022-06-10T17:17:31Z</time>
      </trkpt>
      <trkpt lat="44.45335" lon="4.34144">
        <ele>119.9</ele>
        <time>2022-06-10T17:17:32Z</time>
      </trkpt>
      <trkpt lat="44.45334" lon="4.34145">
        <ele>119.9</ele>
        <time>2022-06-10T17:17:33Z</time>
      </trkpt>
      <trkpt lat="44.45333" lon="4.34145">
        <ele>119.8</ele>
        <time>2022-06-10T17:17:34Z</time>
      </trkpt>
      <trkpt lat="44.45333" lon="4.34145">
        <ele>119.8</ele>
        <time>2022-06-10T17:17:35Z</time>
      </trkpt>
      <trkpt lat="44.45331" lon="4.34144">
        <ele>119.8</ele>
        <time>2022-06-10T17:17:36Z</time>
      </trkpt>
      <trkpt lat="44.45328" lon="4.34142">
        <ele>119.7</ele>
        <time>2022-06-10T17:17:37Z</time>
      </trkpt>
      <trkpt lat="44.45325" lon="4.34141">
        <ele>119.7</ele>
        <time>2022-06-10T17:17:38Z</time>
      </trkpt>
      <trkpt lat="44.45322" lon="4.3414">
        <ele>119.5</ele>
        <time>2022-06-10T17:17:39Z</time>
      </trkpt>
      <trkpt lat="44.45319" lon="4.34141">
        <ele>119.5</ele>
        <time>2022-06-10T17:17:40Z</time>
      </trkpt>
      <trkpt lat="44.45317" lon="4.34143">
        <ele>119.6</ele>
        <time>2022-06-10T17:17:41Z</time>
      </trkpt>
      <trkpt lat="44.45315" lon="4.34147">
        <ele>119.8</ele>
        <time>2022-06-10T17:17:42Z</time>
      </trkpt>
      <trkpt lat="44.45313" lon="4.34151">
        <ele>120.1</ele>
        <time>2022-06-10T17:17:43Z</time>
      </trkpt>
      <trkpt lat="44.45312" lon="4.34158">
        <ele>120.3</ele>
        <time>2022-06-10T17:17:44Z</time>
      </trkpt>
      <trkpt lat="44.45312" lon="4.34162">
        <ele>120.4</ele>
        <time>2022-06-10T17:17:46Z</time>
      </trkpt>
      <trkpt lat="44.45313" lon="4.34163">
        <ele>120.4</ele>
        <time>2022-06-10T17:17:47Z</time>
      </trkpt>
      <trkpt lat="44.45313" lon="4.34164">
        <ele>120.5</ele>
        <time>2022-06-10T17:17:48Z</time>
      </trkpt>
      <trkpt lat="44.45314" lon="4.34166">
        <ele>120.5</ele>
        <time>2022-06-10T17:17:49Z</time>
      </trkpt>
      <trkpt lat="44.45315" lon="4.34169">
        <ele>120.6</ele>
        <time>2022-06-10T17:17:50Z</time>
      </trkpt>
      <trkpt lat="44.45315" lon="4.34171">
        <ele>120.7</ele>
        <time>2022-06-10T17:17:51Z</time>
      </trkpt>
      <trkpt lat="44.45315" lon="4.34172">
        <ele>120.7</ele>
        <time>2022-06-10T17:17:52Z</time>
      </trkpt>
      <trkpt lat="44.45314" lon="4.34174">
        <ele>120.8</ele>
        <time>2022-06-10T17:17:53Z</time>
      </trkpt>
      <trkpt lat="44.45314" lon="4.34175">
        <ele>120.8</ele>
        <time>2022-06-10T17:17:54Z</time>
      </trkpt>
      <trkpt lat="44.45315" lon="4.34176">
        <ele>120.8</ele>
        <time>2022-06-10T17:17:55Z</time>
      </trkpt>
      <trkpt lat="44.45315" lon="4.34175">
        <ele>120.8</ele>
        <time>2022-06-10T17:17:56Z</time>
      </trkpt>
      <trkpt lat="44.45315" lon="4.34175">
        <ele>120.9</ele>
        <time>2022-06-10T17:17:57Z</time>
      </trkpt>
      <trkpt lat="44.45316" lon="4.34175">
        <ele>120.9</ele>
        <time>2022-06-10T17:17:58Z</time>
      </trkpt>
      <trkpt lat="44.45316" lon="4.34175">
        <ele>120.9</ele>
        <time>2022-06-10T17:17:59Z</time>
      </trkpt>
      <trkpt lat="44.45317" lon="4.34175">
        <ele>120.9</ele>
        <time>2022-06-10T17:18:00Z</time>
      </trkpt>
      <trkpt lat="44.45317" lon="4.34174">
        <ele>120.9</ele>
        <time>2022-06-10T17:18:01Z</time>
      </trkpt>
      <trkpt lat="44.45317" lon="4.34176">
        <ele>121</ele>
        <time>2022-06-10T17:18:02Z</time>
      </trkpt>
      <trkpt lat="44.45316" lon="4.34176">
        <ele>121</ele>
        <time>2022-06-10T17:18:03Z</time>
      </trkpt>
      <trkpt lat="44.45315" lon="4.34177">
        <ele>121.3</ele>
        <time>2022-06-10T17:18:04Z</time>
      </trkpt>
      <trkpt lat="44.45314" lon="4.34178">
        <ele>121.3</ele>
        <time>2022-06-10T17:18:09Z</time>
      </trkpt>
      <trkpt lat="44.45313" lon="4.34179">
        <ele>121.3</ele>
        <time>2022-06-10T17:18:10Z</time>
      </trkpt>
      <trkpt lat="44.45312" lon="4.3418">
        <ele>121.3</ele>
        <time>2022-06-10T17:18:11Z</time>
      </trkpt>
      <trkpt lat="44.45311" lon="4.34181">
        <ele>121.3</ele>
        <time>2022-06-10T17:18:12Z</time>
      </trkpt>
      <trkpt lat="44.45309" lon="4.34183">
        <ele>121.3</ele>
        <time>2022-06-10T17:18:13Z</time>
      </trkpt>
      <trkpt lat="44.45308" lon="4.34183">
        <ele>121.2</ele>
        <time>2022-06-10T17:18:14Z</time>
      </trkpt>
      <trkpt lat="44.45306" lon="4.34184">
        <ele>121.2</ele>
        <time>2022-06-10T17:18:15Z</time>
      </trkpt>
      <trkpt lat="44.45305" lon="4.34185">
        <ele>121.2</ele>
        <time>2022-06-10T17:18:16Z</time>
      </trkpt>
      <trkpt lat="44.45302" lon="4.34188">
        <ele>121.2</ele>
        <time>2022-06-10T17:18:17Z</time>
      </trkpt>
      <trkpt lat="44.45301" lon="4.34189">
        <ele>121.2</ele>
        <time>2022-06-10T17:18:18Z</time>
      </trkpt>
      <trkpt lat="44.45298" lon="4.3419">
        <ele>121.1</ele>
        <time>2022-06-10T17:18:19Z</time>
      </trkpt>
      <trkpt lat="44.45297" lon="4.3419">
        <ele>121.1</ele>
        <time>2022-06-10T17:18:20Z</time>
      </trkpt>
      <trkpt lat="44.45294" lon="4.34192">
        <ele>121.1</ele>
        <time>2022-06-10T17:18:21Z</time>
      </trkpt>
      <trkpt lat="44.45293" lon="4.34193">
        <ele>121.1</ele>
        <time>2022-06-10T17:18:22Z</time>
      </trkpt>
      <trkpt lat="44.4529" lon="4.34195">
        <ele>121</ele>
        <time>2022-06-10T17:18:23Z</time>
      </trkpt>
      <trkpt lat="44.45289" lon="4.34196">
        <ele>121</ele>
        <time>2022-06-10T17:18:24Z</time>
      </trkpt>
      <trkpt lat="44.45287" lon="4.34199">
        <ele>121</ele>
        <time>2022-06-10T17:18:25Z</time>
      </trkpt>
      <trkpt lat="44.45284" lon="4.34201">
        <ele>121</ele>
        <time>2022-06-10T17:18:26Z</time>
      </trkpt>
      <trkpt lat="44.45282" lon="4.34203">
        <ele>121</ele>
        <time>2022-06-10T17:18:27Z</time>
      </trkpt>
      <trkpt lat="44.45278" lon="4.34207">
        <ele>120.9</ele>
        <time>2022-06-10T17:18:29Z</time>
      </trkpt>
      <trkpt lat="44.45275" lon="4.34211">
        <ele>120.9</ele>
        <time>2022-06-10T17:18:31Z</time>
      </trkpt>
      <trkpt lat="44.45272" lon="4.34214">
        <ele>120.8</ele>
        <time>2022-06-10T17:18:32Z</time>
      </trkpt>
      <trkpt lat="44.4527" lon="4.34217">
        <ele>120.8</ele>
        <time>2022-06-10T17:18:33Z</time>
      </trkpt>
      <trkpt lat="44.45266" lon="4.3422">
        <ele>120.7</ele>
        <time>2022-06-10T17:18:34Z</time>
      </trkpt>
      <trkpt lat="44.45263" lon="4.34223">
        <ele>120.7</ele>
        <time>2022-06-10T17:18:36Z</time>
      </trkpt>
      <trkpt lat="44.45261" lon="4.34224">
        <ele>120.6</ele>
        <time>2022-06-10T17:18:37Z</time>
      </trkpt>
      <trkpt lat="44.45259" lon="4.34226">
        <ele>120.6</ele>
        <time>2022-06-10T17:18:38Z</time>
      </trkpt>
      <trkpt lat="44.45257" lon="4.34227">
        <ele>120.6</ele>
        <time>2022-06-10T17:18:39Z</time>
      </trkpt>
      <trkpt lat="44.45253" lon="4.34229">
        <ele>120.5</ele>
        <time>2022-06-10T17:18:40Z</time>
      </trkpt>
      <trkpt lat="44.45253" lon="4.3423">
        <ele>120.5</ele>
        <time>2022-06-10T17:18:42Z</time>
      </trkpt>
      <trkpt lat="44.45251" lon="4.34231">
        <ele>120.5</ele>
        <time>2022-06-10T17:18:43Z</time>
      </trkpt>
      <trkpt lat="44.4525" lon="4.34232">
        <ele>120.4</ele>
        <time>2022-06-10T17:18:44Z</time>
      </trkpt>
      <trkpt lat="44.45249" lon="4.34232">
        <ele>120.4</ele>
        <time>2022-06-10T17:18:45Z</time>
      </trkpt>
      <trkpt lat="44.45249" lon="4.34233">
        <ele>120.4</ele>
        <time>2022-06-10T17:18:46Z</time>
      </trkpt>
      <trkpt lat="44.45249" lon="4.34233">
        <ele>120.4</ele>
        <time>2022-06-10T17:18:47Z</time>
      </trkpt>
      <trkpt lat="44.45248" lon="4.34234">
        <ele>120.4</ele>
        <time>2022-06-10T17:18:48Z</time>
      </trkpt>
      <trkpt lat="44.45248" lon="4.34234">
        <ele>120.4</ele>
        <time>2022-06-10T17:18:49Z</time>
      </trkpt>
      <trkpt lat="44.45247" lon="4.34235">
        <ele>120.4</ele>
        <time>2022-06-10T17:18:50Z</time>
      </trkpt>
      <trkpt lat="44.45247" lon="4.34235">
        <ele>120.4</ele>
        <time>2022-06-10T17:18:51Z</time>
      </trkpt>
      <trkpt lat="44.45246" lon="4.34236">
        <ele>120.4</ele>
        <time>2022-06-10T17:18:52Z</time>
      </trkpt>
      <trkpt lat="44.45246" lon="4.34236">
        <ele>120.3</ele>
        <time>2022-06-10T17:18:53Z</time>
      </trkpt>
      <trkpt lat="44.45246" lon="4.34237">
        <ele>120.3</ele>
        <time>2022-06-10T17:18:54Z</time>
      </trkpt>
      <trkpt lat="44.45245" lon="4.34237">
        <ele>120.3</ele>
        <time>2022-06-10T17:20:46Z</time>
      </trkpt>
      <trkpt lat="44.45245" lon="4.34238">
        <ele>120.3</ele>
        <time>2022-06-10T17:20:47Z</time>
      </trkpt>
      <trkpt lat="44.45244" lon="4.34238">
        <ele>120.3</ele>
        <time>2022-06-10T17:20:48Z</time>
      </trkpt>
      <trkpt lat="44.45242" lon="4.34241">
        <ele>120.3</ele>
        <time>2022-06-10T17:20:49Z</time>
      </trkpt>
      <trkpt lat="44.45242" lon="4.34242">
        <ele>120.3</ele>
        <time>2022-06-10T17:20:50Z</time>
      </trkpt>
      <trkpt lat="44.45242" lon="4.34242">
        <ele>120.3</ele>
        <time>2022-06-10T17:20:51Z</time>
      </trkpt>
      <trkpt lat="44.45238" lon="4.34244">
        <ele>120.2</ele>
        <time>2022-06-10T17:20:52Z</time>
      </trkpt>
      <trkpt lat="44.45235" lon="4.34245">
        <ele>120.2</ele>
        <time>2022-06-10T17:20:53Z</time>
      </trkpt>
      <trkpt lat="44.45231" lon="4.34247">
        <ele>120.1</ele>
        <time>2022-06-10T17:20:54Z</time>
      </trkpt>
      <trkpt lat="44.45228" lon="4.34249">
        <ele>120.1</ele>
        <time>2022-06-10T17:20:55Z</time>
      </trkpt>
      <trkpt lat="44.45225" lon="4.34252">
        <ele>120</ele>
        <time>2022-06-10T17:20:56Z</time>
      </trkpt>
      <trkpt lat="44.45222" lon="4.34255">
        <ele>120</ele>
        <time>2022-06-10T17:20:57Z</time>
      </trkpt>
      <trkpt lat="44.45218" lon="4.34257">
        <ele>119.9</ele>
        <time>2022-06-10T17:20:58Z</time>
      </trkpt>
      <trkpt lat="44.45215" lon="4.3426">
        <ele>119.9</ele>
        <time>2022-06-10T17:20:59Z</time>
      </trkpt>
      <trkpt lat="44.4521" lon="4.34264">
        <ele>119.8</ele>
        <time>2022-06-10T17:21:00Z</time>
      </trkpt>
      <trkpt lat="44.45206" lon="4.34268">
        <ele>119.8</ele>
        <time>2022-06-10T17:21:01Z</time>
      </trkpt>
      <trkpt lat="44.45198" lon="4.34272">
        <ele>119.7</ele>
        <time>2022-06-10T17:21:02Z</time>
      </trkpt>
      <trkpt lat="44.45194" lon="4.34273">
        <ele>119.7</ele>
        <time>2022-06-10T17:21:04Z</time>
      </trkpt>
      <trkpt lat="44.45191" lon="4.34275">
        <ele>119.6</ele>
        <time>2022-06-10T17:21:05Z</time>
      </trkpt>
      <trkpt lat="44.45187" lon="4.34278">
        <ele>119.6</ele>
        <time>2022-06-10T17:21:06Z</time>
      </trkpt>
      <trkpt lat="44.45183" lon="4.34282">
        <ele>119.6</ele>
        <time>2022-06-10T17:21:07Z</time>
      </trkpt>
      <trkpt lat="44.45179" lon="4.34285">
        <ele>119.5</ele>
        <time>2022-06-10T17:21:08Z</time>
      </trkpt>
      <trkpt lat="44.45177" lon="4.34289">
        <ele>119.5</ele>
        <time>2022-06-10T17:21:09Z</time>
      </trkpt>
      <trkpt lat="44.45175" lon="4.34292">
        <ele>119.5</ele>
        <time>2022-06-10T17:21:10Z</time>
      </trkpt>
      <trkpt lat="44.45172" lon="4.34294">
        <ele>119.4</ele>
        <time>2022-06-10T17:21:11Z</time>
      </trkpt>
      <trkpt lat="44.45166" lon="4.34299">
        <ele>119.4</ele>
        <time>2022-06-10T17:21:13Z</time>
      </trkpt>
      <trkpt lat="44.45163" lon="4.34303">
        <ele>119.3</ele>
        <time>2022-06-10T17:21:14Z</time>
      </trkpt>
      <trkpt lat="44.45158" lon="4.34308">
        <ele>119.3</ele>
        <time>2022-06-10T17:21:15Z</time>
      </trkpt>
      <trkpt lat="44.45153" lon="4.34312">
        <ele>119.2</ele>
        <time>2022-06-10T17:21:17Z</time>
      </trkpt>
      <trkpt lat="44.45149" lon="4.34317">
        <ele>119.1</ele>
        <time>2022-06-10T17:21:18Z</time>
      </trkpt>
      <trkpt lat="44.45143" lon="4.34322">
        <ele>119</ele>
        <time>2022-06-10T17:21:19Z</time>
      </trkpt>
      <trkpt lat="44.4514" lon="4.34326">
        <ele>119</ele>
        <time>2022-06-10T17:21:20Z</time>
      </trkpt>
      <trkpt lat="44.45137" lon="4.34332">
        <ele>118.9</ele>
        <time>2022-06-10T17:21:22Z</time>
      </trkpt>
      <trkpt lat="44.45134" lon="4.3434">
        <ele>118.8</ele>
        <time>2022-06-10T17:21:23Z</time>
      </trkpt>
      <trkpt lat="44.45132" lon="4.34345">
        <ele>118.8</ele>
        <time>2022-06-10T17:21:24Z</time>
      </trkpt>
      <trkpt lat="44.4513" lon="4.34347">
        <ele>118.7</ele>
        <time>2022-06-10T17:21:25Z</time>
      </trkpt>
      <trkpt lat="44.45125" lon="4.34351">
        <ele>118.7</ele>
        <time>2022-06-10T17:21:26Z</time>
      </trkpt>
      <trkpt lat="44.45121" lon="4.34355">
        <ele>118.6</ele>
        <time>2022-06-10T17:21:27Z</time>
      </trkpt>
      <trkpt lat="44.45116" lon="4.34362">
        <ele>118.6</ele>
        <time>2022-06-10T17:21:29Z</time>
      </trkpt>
      <trkpt lat="44.45111" lon="4.34369">
        <ele>118.5</ele>
        <time>2022-06-10T17:21:30Z</time>
      </trkpt>
      <trkpt lat="44.45108" lon="4.34375">
        <ele>118.4</ele>
        <time>2022-06-10T17:21:32Z</time>
      </trkpt>
      <trkpt lat="44.45102" lon="4.34382">
        <ele>118.3</ele>
        <time>2022-06-10T17:21:33Z</time>
      </trkpt>
      <trkpt lat="44.45099" lon="4.34387">
        <ele>118.3</ele>
        <time>2022-06-10T17:21:35Z</time>
      </trkpt>
      <trkpt lat="44.45095" lon="4.34393">
        <ele>118.3</ele>
        <time>2022-06-10T17:21:36Z</time>
      </trkpt>
      <trkpt lat="44.4509" lon="4.344">
        <ele>118.3</ele>
        <time>2022-06-10T17:21:38Z</time>
      </trkpt>
      <trkpt lat="44.45087" lon="4.34404">
        <ele>118.3</ele>
        <time>2022-06-10T17:21:39Z</time>
      </trkpt>
      <trkpt lat="44.45084" lon="4.34409">
        <ele>118.3</ele>
        <time>2022-06-10T17:21:40Z</time>
      </trkpt>
      <trkpt lat="44.4508" lon="4.34414">
        <ele>118.3</ele>
        <time>2022-06-10T17:21:41Z</time>
      </trkpt>
      <trkpt lat="44.45075" lon="4.34419">
        <ele>118.3</ele>
        <time>2022-06-10T17:21:42Z</time>
      </trkpt>
      <trkpt lat="44.45072" lon="4.34425">
        <ele>118.3</ele>
        <time>2022-06-10T17:21:43Z</time>
      </trkpt>
      <trkpt lat="44.45068" lon="4.3443">
        <ele>118.3</ele>
        <time>2022-06-10T17:21:44Z</time>
      </trkpt>
      <trkpt lat="44.45062" lon="4.34439">
        <ele>118.4</ele>
        <time>2022-06-10T17:21:46Z</time>
      </trkpt>
      <trkpt lat="44.45058" lon="4.34443">
        <ele>118.4</ele>
        <time>2022-06-10T17:21:48Z</time>
      </trkpt>
      <trkpt lat="44.45055" lon="4.34447">
        <ele>118.4</ele>
        <time>2022-06-10T17:21:49Z</time>
      </trkpt>
      <trkpt lat="44.45051" lon="4.3445">
        <ele>118.5</ele>
        <time>2022-06-10T17:21:50Z</time>
      </trkpt>
      <trkpt lat="44.45047" lon="4.34453">
        <ele>118.5</ele>
        <time>2022-06-10T17:21:51Z</time>
      </trkpt>
      <trkpt lat="44.45044" lon="4.34457">
        <ele>118.6</ele>
        <time>2022-06-10T17:21:52Z</time>
      </trkpt>
      <trkpt lat="44.4504" lon="4.3446">
        <ele>118.6</ele>
        <time>2022-06-10T17:21:53Z</time>
      </trkpt>
      <trkpt lat="44.45034" lon="4.34466">
        <ele>118.7</ele>
        <time>2022-06-10T17:21:54Z</time>
      </trkpt>
      <trkpt lat="44.4503" lon="4.34469">
        <ele>118.8</ele>
        <time>2022-06-10T17:21:56Z</time>
      </trkpt>
      <trkpt lat="44.45027" lon="4.34471">
        <ele>118.8</ele>
        <time>2022-06-10T17:21:57Z</time>
      </trkpt>
      <trkpt lat="44.45024" lon="4.34474">
        <ele>118.9</ele>
        <time>2022-06-10T17:21:58Z</time>
      </trkpt>
      <trkpt lat="44.45021" lon="4.34475">
        <ele>118.9</ele>
        <time>2022-06-10T17:21:59Z</time>
      </trkpt>
      <trkpt lat="44.45017" lon="4.34478">
        <ele>119</ele>
        <time>2022-06-10T17:22:00Z</time>
      </trkpt>
      <trkpt lat="44.45014" lon="4.34479">
        <ele>119.1</ele>
        <time>2022-06-10T17:22:01Z</time>
      </trkpt>
      <trkpt lat="44.45011" lon="4.34481">
        <ele>119.2</ele>
        <time>2022-06-10T17:22:02Z</time>
      </trkpt>
      <trkpt lat="44.45007" lon="4.34482">
        <ele>119.2</ele>
        <time>2022-06-10T17:22:03Z</time>
      </trkpt>
      <trkpt lat="44.45004" lon="4.34484">
        <ele>119.3</ele>
        <time>2022-06-10T17:22:04Z</time>
      </trkpt>
      <trkpt lat="44.45" lon="4.34485">
        <ele>119.4</ele>
        <time>2022-06-10T17:22:05Z</time>
      </trkpt>
      <trkpt lat="44.44997" lon="4.34486">
        <ele>119.5</ele>
        <time>2022-06-10T17:22:06Z</time>
      </trkpt>
      <trkpt lat="44.44994" lon="4.34488">
        <ele>119.5</ele>
        <time>2022-06-10T17:22:07Z</time>
      </trkpt>
      <trkpt lat="44.44991" lon="4.3449">
        <ele>119.6</ele>
        <time>2022-06-10T17:22:08Z</time>
      </trkpt>
      <trkpt lat="44.44988" lon="4.34492">
        <ele>119.7</ele>
        <time>2022-06-10T17:22:09Z</time>
      </trkpt>
      <trkpt lat="44.44984" lon="4.34494">
        <ele>119.7</ele>
        <time>2022-06-10T17:22:10Z</time>
      </trkpt>
      <trkpt lat="44.44981" lon="4.34495">
        <ele>119.8</ele>
        <time>2022-06-10T17:22:11Z</time>
      </trkpt>
      <trkpt lat="44.44979" lon="4.34497">
        <ele>119.8</ele>
        <time>2022-06-10T17:22:12Z</time>
      </trkpt>
      <trkpt lat="44.44976" lon="4.34499">
        <ele>119.8</ele>
        <time>2022-06-10T17:22:13Z</time>
      </trkpt>
      <trkpt lat="44.44972" lon="4.34502">
        <ele>119.9</ele>
        <time>2022-06-10T17:22:14Z</time>
      </trkpt>
      <trkpt lat="44.44967" lon="4.34504">
        <ele>119.8</ele>
        <time>2022-06-10T17:22:16Z</time>
      </trkpt>
      <trkpt lat="44.44962" lon="4.34507">
        <ele>119.8</ele>
        <time>2022-06-10T17:22:17Z</time>
      </trkpt>
      <trkpt lat="44.44957" lon="4.3451">
        <ele>119.7</ele>
        <time>2022-06-10T17:22:18Z</time>
      </trkpt>
      <trkpt lat="44.44953" lon="4.34514">
        <ele>119.7</ele>
        <time>2022-06-10T17:22:19Z</time>
      </trkpt>
      <trkpt lat="44.44947" lon="4.34517">
        <ele>119.6</ele>
        <time>2022-06-10T17:22:21Z</time>
      </trkpt>
      <trkpt lat="44.44939" lon="4.34523">
        <ele>119.4</ele>
        <time>2022-06-10T17:22:23Z</time>
      </trkpt>
      <trkpt lat="44.44934" lon="4.34525">
        <ele>119.4</ele>
        <time>2022-06-10T17:22:24Z</time>
      </trkpt>
      <trkpt lat="44.44929" lon="4.34528">
        <ele>119.3</ele>
        <time>2022-06-10T17:22:25Z</time>
      </trkpt>
      <trkpt lat="44.44925" lon="4.34531">
        <ele>119.2</ele>
        <time>2022-06-10T17:22:26Z</time>
      </trkpt>
      <trkpt lat="44.4492" lon="4.34534">
        <ele>119.1</ele>
        <time>2022-06-10T17:22:27Z</time>
      </trkpt>
      <trkpt lat="44.44915" lon="4.34536">
        <ele>119</ele>
        <time>2022-06-10T17:22:28Z</time>
      </trkpt>
      <trkpt lat="44.4491" lon="4.34539">
        <ele>119</ele>
        <time>2022-06-10T17:22:29Z</time>
      </trkpt>
      <trkpt lat="44.44905" lon="4.34542">
        <ele>118.9</ele>
        <time>2022-06-10T17:22:30Z</time>
      </trkpt>
      <trkpt lat="44.449" lon="4.34545">
        <ele>118.8</ele>
        <time>2022-06-10T17:22:31Z</time>
      </trkpt>
      <trkpt lat="44.44895" lon="4.34548">
        <ele>118.8</ele>
        <time>2022-06-10T17:22:32Z</time>
      </trkpt>
      <trkpt lat="44.4489" lon="4.34551">
        <ele>118.8</ele>
        <time>2022-06-10T17:22:33Z</time>
      </trkpt>
      <trkpt lat="44.44885" lon="4.34554">
        <ele>118.8</ele>
        <time>2022-06-10T17:22:34Z</time>
      </trkpt>
      <trkpt lat="44.4488" lon="4.34558">
        <ele>118.7</ele>
        <time>2022-06-10T17:22:35Z</time>
      </trkpt>
      <trkpt lat="44.44875" lon="4.34562">
        <ele>118.7</ele>
        <time>2022-06-10T17:22:36Z</time>
      </trkpt>
      <trkpt lat="44.4487" lon="4.34565">
        <ele>118.7</ele>
        <time>2022-06-10T17:22:37Z</time>
      </trkpt>
      <trkpt lat="44.44865" lon="4.34567">
        <ele>118.7</ele>
        <time>2022-06-10T17:22:38Z</time>
      </trkpt>
      <trkpt lat="44.44861" lon="4.34569">
        <ele>118.7</ele>
        <time>2022-06-10T17:22:39Z</time>
      </trkpt>
      <trkpt lat="44.44856" lon="4.34572">
        <ele>118.7</ele>
        <time>2022-06-10T17:22:40Z</time>
      </trkpt>
      <trkpt lat="44.44851" lon="4.34575">
        <ele>118.7</ele>
        <time>2022-06-10T17:22:41Z</time>
      </trkpt>
      <trkpt lat="44.44846" lon="4.34578">
        <ele>118.6</ele>
        <time>2022-06-10T17:22:42Z</time>
      </trkpt>
      <trkpt lat="44.44842" lon="4.34581">
        <ele>118.6</ele>
        <time>2022-06-10T17:22:43Z</time>
      </trkpt>
      <trkpt lat="44.44837" lon="4.34584">
        <ele>118.6</ele>
        <time>2022-06-10T17:22:44Z</time>
      </trkpt>
      <trkpt lat="44.44833" lon="4.34587">
        <ele>118.6</ele>
        <time>2022-06-10T17:22:45Z</time>
      </trkpt>
      <trkpt lat="44.44828" lon="4.34589">
        <ele>118.6</ele>
        <time>2022-06-10T17:22:46Z</time>
      </trkpt>
      <trkpt lat="44.44823" lon="4.34591">
        <ele>118.6</ele>
        <time>2022-06-10T17:22:47Z</time>
      </trkpt>
      <trkpt lat="44.44818" lon="4.34594">
        <ele>118.6</ele>
        <time>2022-06-10T17:22:48Z</time>
      </trkpt>
      <trkpt lat="44.44813" lon="4.34596">
        <ele>118.6</ele>
        <time>2022-06-10T17:22:49Z</time>
      </trkpt>
      <trkpt lat="44.44809" lon="4.34598">
        <ele>118.6</ele>
        <time>2022-06-10T17:22:50Z</time>
      </trkpt>
      <trkpt lat="44.44804" lon="4.34601">
        <ele>118.6</ele>
        <time>2022-06-10T17:22:51Z</time>
      </trkpt>
      <trkpt lat="44.448" lon="4.34604">
        <ele>118.6</ele>
        <time>2022-06-10T17:22:52Z</time>
      </trkpt>
      <trkpt lat="44.44795" lon="4.34607">
        <ele>118.6</ele>
        <time>2022-06-10T17:22:53Z</time>
      </trkpt>
      <trkpt lat="44.44791" lon="4.34611">
        <ele>118.6</ele>
        <time>2022-06-10T17:22:54Z</time>
      </trkpt>
      <trkpt lat="44.44787" lon="4.34614">
        <ele>118.6</ele>
        <time>2022-06-10T17:22:55Z</time>
      </trkpt>
      <trkpt lat="44.44783" lon="4.34617">
        <ele>118.7</ele>
        <time>2022-06-10T17:22:56Z</time>
      </trkpt>
      <trkpt lat="44.4478" lon="4.34621">
        <ele>118.7</ele>
        <time>2022-06-10T17:22:57Z</time>
      </trkpt>
      <trkpt lat="44.44777" lon="4.34623">
        <ele>118.7</ele>
        <time>2022-06-10T17:22:58Z</time>
      </trkpt>
      <trkpt lat="44.44772" lon="4.34627">
        <ele>118.7</ele>
        <time>2022-06-10T17:22:59Z</time>
      </trkpt>
      <trkpt lat="44.44768" lon="4.3463">
        <ele>118.7</ele>
        <time>2022-06-10T17:23:00Z</time>
      </trkpt>
      <trkpt lat="44.44764" lon="4.34633">
        <ele>118.8</ele>
        <time>2022-06-10T17:23:01Z</time>
      </trkpt>
      <trkpt lat="44.44761" lon="4.34636">
        <ele>118.8</ele>
        <time>2022-06-10T17:23:02Z</time>
      </trkpt>
      <trkpt lat="44.44752" lon="4.34642">
        <ele>118.9</ele>
        <time>2022-06-10T17:23:03Z</time>
      </trkpt>
      <trkpt lat="44.44748" lon="4.34645">
        <ele>119</ele>
        <time>2022-06-10T17:23:05Z</time>
      </trkpt>
      <trkpt lat="44.44747" lon="4.34646">
        <ele>119</ele>
        <time>2022-06-10T17:23:06Z</time>
      </trkpt>
      <trkpt lat="44.44741" lon="4.34652">
        <ele>119.1</ele>
        <time>2022-06-10T17:23:07Z</time>
      </trkpt>
      <trkpt lat="44.44738" lon="4.34655">
        <ele>119.2</ele>
        <time>2022-06-10T17:23:09Z</time>
      </trkpt>
      <trkpt lat="44.44735" lon="4.34658">
        <ele>119.2</ele>
        <time>2022-06-10T17:23:10Z</time>
      </trkpt>
      <trkpt lat="44.44732" lon="4.3466">
        <ele>119.3</ele>
        <time>2022-06-10T17:23:11Z</time>
      </trkpt>
      <trkpt lat="44.4473" lon="4.34663">
        <ele>119.4</ele>
        <time>2022-06-10T17:23:12Z</time>
      </trkpt>
      <trkpt lat="44.44727" lon="4.34667">
        <ele>119.4</ele>
        <time>2022-06-10T17:23:13Z</time>
      </trkpt>
      <trkpt lat="44.44724" lon="4.34669">
        <ele>119.5</ele>
        <time>2022-06-10T17:23:14Z</time>
      </trkpt>
      <trkpt lat="44.44721" lon="4.34672">
        <ele>119.6</ele>
        <time>2022-06-10T17:23:15Z</time>
      </trkpt>
      <trkpt lat="44.44718" lon="4.34675">
        <ele>119.6</ele>
        <time>2022-06-10T17:23:16Z</time>
      </trkpt>
      <trkpt lat="44.44715" lon="4.34677">
        <ele>119.7</ele>
        <time>2022-06-10T17:23:17Z</time>
      </trkpt>
      <trkpt lat="44.44712" lon="4.34679">
        <ele>119.7</ele>
        <time>2022-06-10T17:23:18Z</time>
      </trkpt>
      <trkpt lat="44.44708" lon="4.34682">
        <ele>119.8</ele>
        <time>2022-06-10T17:23:19Z</time>
      </trkpt>
      <trkpt lat="44.44705" lon="4.34684">
        <ele>119.8</ele>
        <time>2022-06-10T17:23:20Z</time>
      </trkpt>
      <trkpt lat="44.44701" lon="4.34687">
        <ele>119.9</ele>
        <time>2022-06-10T17:23:21Z</time>
      </trkpt>
      <trkpt lat="44.44698" lon="4.34689">
        <ele>119.9</ele>
        <time>2022-06-10T17:23:22Z</time>
      </trkpt>
      <trkpt lat="44.44691" lon="4.34695">
        <ele>120.1</ele>
        <time>2022-06-10T17:23:23Z</time>
      </trkpt>
      <trkpt lat="44.44687" lon="4.34697">
        <ele>120.1</ele>
        <time>2022-06-10T17:23:25Z</time>
      </trkpt>
      <trkpt lat="44.44684" lon="4.347">
        <ele>120.2</ele>
        <time>2022-06-10T17:23:26Z</time>
      </trkpt>
      <trkpt lat="44.4468" lon="4.34702">
        <ele>120.2</ele>
        <time>2022-06-10T17:23:27Z</time>
      </trkpt>
      <trkpt lat="44.44677" lon="4.34705">
        <ele>120.3</ele>
        <time>2022-06-10T17:23:28Z</time>
      </trkpt>
      <trkpt lat="44.44673" lon="4.34708">
        <ele>120.4</ele>
        <time>2022-06-10T17:23:29Z</time>
      </trkpt>
      <trkpt lat="44.4467" lon="4.3471">
        <ele>120.5</ele>
        <time>2022-06-10T17:23:30Z</time>
      </trkpt>
      <trkpt lat="44.44666" lon="4.34713">
        <ele>120.5</ele>
        <time>2022-06-10T17:23:31Z</time>
      </trkpt>
      <trkpt lat="44.44663" lon="4.34716">
        <ele>120.6</ele>
        <time>2022-06-10T17:23:32Z</time>
      </trkpt>
      <trkpt lat="44.44659" lon="4.3472">
        <ele>120.7</ele>
        <time>2022-06-10T17:23:33Z</time>
      </trkpt>
      <trkpt lat="44.44656" lon="4.34723">
        <ele>120.8</ele>
        <time>2022-06-10T17:23:34Z</time>
      </trkpt>
      <trkpt lat="44.44652" lon="4.34725">
        <ele>120.9</ele>
        <time>2022-06-10T17:23:35Z</time>
      </trkpt>
      <trkpt lat="44.44649" lon="4.34728">
        <ele>121</ele>
        <time>2022-06-10T17:23:36Z</time>
      </trkpt>
      <trkpt lat="44.44646" lon="4.3473">
        <ele>121</ele>
        <time>2022-06-10T17:23:37Z</time>
      </trkpt>
      <trkpt lat="44.44643" lon="4.34733">
        <ele>121.1</ele>
        <time>2022-06-10T17:23:38Z</time>
      </trkpt>
      <trkpt lat="44.44639" lon="4.34735">
        <ele>121.2</ele>
        <time>2022-06-10T17:23:39Z</time>
      </trkpt>
      <trkpt lat="44.44635" lon="4.34736">
        <ele>121.2</ele>
        <time>2022-06-10T17:23:40Z</time>
      </trkpt>
      <trkpt lat="44.44632" lon="4.34737">
        <ele>121.3</ele>
        <time>2022-06-10T17:23:41Z</time>
      </trkpt>
      <trkpt lat="44.44625" lon="4.3474">
        <ele>121.4</ele>
        <time>2022-06-10T17:23:42Z</time>
      </trkpt>
      <trkpt lat="44.44622" lon="4.34742">
        <ele>121.5</ele>
        <time>2022-06-10T17:23:44Z</time>
      </trkpt>
      <trkpt lat="44.44618" lon="4.34743">
        <ele>121.6</ele>
        <time>2022-06-10T17:23:45Z</time>
      </trkpt>
      <trkpt lat="44.44615" lon="4.34744">
        <ele>121.7</ele>
        <time>2022-06-10T17:23:46Z</time>
      </trkpt>
      <trkpt lat="44.44612" lon="4.34744">
        <ele>121.7</ele>
        <time>2022-06-10T17:23:47Z</time>
      </trkpt>
      <trkpt lat="44.44608" lon="4.34744">
        <ele>121.8</ele>
        <time>2022-06-10T17:23:48Z</time>
      </trkpt>
      <trkpt lat="44.44605" lon="4.34745">
        <ele>121.9</ele>
        <time>2022-06-10T17:23:49Z</time>
      </trkpt>
      <trkpt lat="44.44602" lon="4.34745">
        <ele>122</ele>
        <time>2022-06-10T17:23:50Z</time>
      </trkpt>
      <trkpt lat="44.44598" lon="4.34745">
        <ele>122</ele>
        <time>2022-06-10T17:23:51Z</time>
      </trkpt>
      <trkpt lat="44.44595" lon="4.34745">
        <ele>122.1</ele>
        <time>2022-06-10T17:23:52Z</time>
      </trkpt>
      <trkpt lat="44.44592" lon="4.34744">
        <ele>122.2</ele>
        <time>2022-06-10T17:23:53Z</time>
      </trkpt>
      <trkpt lat="44.44589" lon="4.34743">
        <ele>122.2</ele>
        <time>2022-06-10T17:23:54Z</time>
      </trkpt>
      <trkpt lat="44.44586" lon="4.34743">
        <ele>122.3</ele>
        <time>2022-06-10T17:23:55Z</time>
      </trkpt>
      <trkpt lat="44.44583" lon="4.34742">
        <ele>122.4</ele>
        <time>2022-06-10T17:23:56Z</time>
      </trkpt>
      <trkpt lat="44.4458" lon="4.34741">
        <ele>122.5</ele>
        <time>2022-06-10T17:23:57Z</time>
      </trkpt>
      <trkpt lat="44.44577" lon="4.34739">
        <ele>122.5</ele>
        <time>2022-06-10T17:23:58Z</time>
      </trkpt>
      <trkpt lat="44.44573" lon="4.34737">
        <ele>122.7</ele>
        <time>2022-06-10T17:23:59Z</time>
      </trkpt>
      <trkpt lat="44.4457" lon="4.34735">
        <ele>122.8</ele>
        <time>2022-06-10T17:24:00Z</time>
      </trkpt>
      <trkpt lat="44.44567" lon="4.34734">
        <ele>122.8</ele>
        <time>2022-06-10T17:24:01Z</time>
      </trkpt>
      <trkpt lat="44.44562" lon="4.34731">
        <ele>123</ele>
        <time>2022-06-10T17:24:03Z</time>
      </trkpt>
      <trkpt lat="44.4456" lon="4.34729">
        <ele>123.1</ele>
        <time>2022-06-10T17:24:04Z</time>
      </trkpt>
      <trkpt lat="44.44556" lon="4.34726">
        <ele>123.1</ele>
        <time>2022-06-10T17:24:05Z</time>
      </trkpt>
      <trkpt lat="44.44552" lon="4.34723">
        <ele>123.2</ele>
        <time>2022-06-10T17:24:06Z</time>
      </trkpt>
      <trkpt lat="44.44549" lon="4.34721">
        <ele>123.3</ele>
        <time>2022-06-10T17:24:07Z</time>
      </trkpt>
      <trkpt lat="44.44546" lon="4.34718">
        <ele>123.4</ele>
        <time>2022-06-10T17:24:09Z</time>
      </trkpt>
      <trkpt lat="44.44541" lon="4.34715">
        <ele>123.5</ele>
        <time>2022-06-10T17:24:10Z</time>
      </trkpt>
      <trkpt lat="44.44537" lon="4.34712">
        <ele>123.5</ele>
        <time>2022-06-10T17:24:11Z</time>
      </trkpt>
      <trkpt lat="44.44534" lon="4.3471">
        <ele>123.6</ele>
        <time>2022-06-10T17:24:12Z</time>
      </trkpt>
      <trkpt lat="44.4453" lon="4.34706">
        <ele>123.7</ele>
        <time>2022-06-10T17:24:14Z</time>
      </trkpt>
      <trkpt lat="44.44527" lon="4.34703">
        <ele>123.8</ele>
        <time>2022-06-10T17:24:15Z</time>
      </trkpt>
      <trkpt lat="44.44524" lon="4.347">
        <ele>123.8</ele>
        <time>2022-06-10T17:24:16Z</time>
      </trkpt>
      <trkpt lat="44.44521" lon="4.34697">
        <ele>123.9</ele>
        <time>2022-06-10T17:24:17Z</time>
      </trkpt>
      <trkpt lat="44.44515" lon="4.34691">
        <ele>124</ele>
        <time>2022-06-10T17:24:18Z</time>
      </trkpt>
      <trkpt lat="44.44512" lon="4.34688">
        <ele>124.1</ele>
        <time>2022-06-10T17:24:19Z</time>
      </trkpt>
      <trkpt lat="44.44509" lon="4.34684">
        <ele>124.1</ele>
        <time>2022-06-10T17:24:21Z</time>
      </trkpt>
      <trkpt lat="44.44506" lon="4.34682">
        <ele>124.2</ele>
        <time>2022-06-10T17:24:22Z</time>
      </trkpt>
      <trkpt lat="44.44503" lon="4.34678">
        <ele>124.3</ele>
        <time>2022-06-10T17:24:23Z</time>
      </trkpt>
      <trkpt lat="44.44501" lon="4.34675">
        <ele>124.3</ele>
        <time>2022-06-10T17:24:24Z</time>
      </trkpt>
      <trkpt lat="44.44498" lon="4.34672">
        <ele>124.4</ele>
        <time>2022-06-10T17:24:25Z</time>
      </trkpt>
      <trkpt lat="44.44495" lon="4.34669">
        <ele>124.5</ele>
        <time>2022-06-10T17:24:26Z</time>
      </trkpt>
      <trkpt lat="44.44492" lon="4.34667">
        <ele>124.5</ele>
        <time>2022-06-10T17:24:27Z</time>
      </trkpt>
      <trkpt lat="44.44487" lon="4.34661">
        <ele>124.6</ele>
        <time>2022-06-10T17:24:28Z</time>
      </trkpt>
      <trkpt lat="44.44483" lon="4.34657">
        <ele>124.7</ele>
        <time>2022-06-10T17:24:30Z</time>
      </trkpt>
      <trkpt lat="44.4448" lon="4.34654">
        <ele>124.8</ele>
        <time>2022-06-10T17:24:31Z</time>
      </trkpt>
      <trkpt lat="44.44477" lon="4.3465">
        <ele>124.8</ele>
        <time>2022-06-10T17:24:32Z</time>
      </trkpt>
      <trkpt lat="44.44474" lon="4.34647">
        <ele>124.9</ele>
        <time>2022-06-10T17:24:33Z</time>
      </trkpt>
      <trkpt lat="44.44471" lon="4.34644">
        <ele>125</ele>
        <time>2022-06-10T17:24:34Z</time>
      </trkpt>
      <trkpt lat="44.44465" lon="4.34637">
        <ele>125.1</ele>
        <time>2022-06-10T17:24:35Z</time>
      </trkpt>
      <trkpt lat="44.44461" lon="4.34634">
        <ele>125.1</ele>
        <time>2022-06-10T17:24:37Z</time>
      </trkpt>
      <trkpt lat="44.44458" lon="4.34631">
        <ele>125.2</ele>
        <time>2022-06-10T17:24:38Z</time>
      </trkpt>
      <trkpt lat="44.44455" lon="4.34627">
        <ele>125.3</ele>
        <time>2022-06-10T17:24:39Z</time>
      </trkpt>
      <trkpt lat="44.44452" lon="4.34624">
        <ele>125.3</ele>
        <time>2022-06-10T17:24:40Z</time>
      </trkpt>
      <trkpt lat="44.44448" lon="4.34621">
        <ele>125.4</ele>
        <time>2022-06-10T17:24:41Z</time>
      </trkpt>
      <trkpt lat="44.44445" lon="4.34618">
        <ele>125.4</ele>
        <time>2022-06-10T17:24:42Z</time>
      </trkpt>
      <trkpt lat="44.44442" lon="4.34615">
        <ele>125.5</ele>
        <time>2022-06-10T17:24:43Z</time>
      </trkpt>
      <trkpt lat="44.44439" lon="4.34612">
        <ele>125.5</ele>
        <time>2022-06-10T17:24:44Z</time>
      </trkpt>
      <trkpt lat="44.44435" lon="4.34609">
        <ele>125.5</ele>
        <time>2022-06-10T17:24:45Z</time>
      </trkpt>
      <trkpt lat="44.44432" lon="4.34606">
        <ele>125.6</ele>
        <time>2022-06-10T17:24:46Z</time>
      </trkpt>
      <trkpt lat="44.44429" lon="4.34603">
        <ele>125.6</ele>
        <time>2022-06-10T17:24:47Z</time>
      </trkpt>
      <trkpt lat="44.44426" lon="4.34599">
        <ele>125.6</ele>
        <time>2022-06-10T17:24:48Z</time>
      </trkpt>
      <trkpt lat="44.4442" lon="4.34593">
        <ele>125.6</ele>
        <time>2022-06-10T17:24:49Z</time>
      </trkpt>
      <trkpt lat="44.44416" lon="4.3459">
        <ele>125.6</ele>
        <time>2022-06-10T17:24:51Z</time>
      </trkpt>
      <trkpt lat="44.44412" lon="4.34587">
        <ele>125.6</ele>
        <time>2022-06-10T17:24:52Z</time>
      </trkpt>
      <trkpt lat="44.44409" lon="4.34583">
        <ele>125.6</ele>
        <time>2022-06-10T17:24:53Z</time>
      </trkpt>
      <trkpt lat="44.44404" lon="4.3458">
        <ele>125.5</ele>
        <time>2022-06-10T17:24:54Z</time>
      </trkpt>
      <trkpt lat="44.444" lon="4.34576">
        <ele>125.5</ele>
        <time>2022-06-10T17:24:55Z</time>
      </trkpt>
      <trkpt lat="44.44396" lon="4.34573">
        <ele>125.4</ele>
        <time>2022-06-10T17:24:56Z</time>
      </trkpt>
      <trkpt lat="44.44392" lon="4.34569">
        <ele>125.4</ele>
        <time>2022-06-10T17:24:57Z</time>
      </trkpt>
      <trkpt lat="44.44388" lon="4.34565">
        <ele>125.4</ele>
        <time>2022-06-10T17:24:58Z</time>
      </trkpt>
      <trkpt lat="44.44384" lon="4.34561">
        <ele>125.3</ele>
        <time>2022-06-10T17:24:59Z</time>
      </trkpt>
      <trkpt lat="44.4438" lon="4.34557">
        <ele>125.3</ele>
        <time>2022-06-10T17:25:00Z</time>
      </trkpt>
      <trkpt lat="44.44375" lon="4.34553">
        <ele>125.2</ele>
        <time>2022-06-10T17:25:01Z</time>
      </trkpt>
      <trkpt lat="44.44371" lon="4.34549">
        <ele>125.2</ele>
        <time>2022-06-10T17:25:02Z</time>
      </trkpt>
      <trkpt lat="44.44367" lon="4.34544">
        <ele>125.1</ele>
        <time>2022-06-10T17:25:03Z</time>
      </trkpt>
      <trkpt lat="44.44362" lon="4.3454">
        <ele>125.1</ele>
        <time>2022-06-10T17:25:04Z</time>
      </trkpt>
      <trkpt lat="44.44358" lon="4.34536">
        <ele>125.1</ele>
        <time>2022-06-10T17:25:05Z</time>
      </trkpt>
      <trkpt lat="44.44353" lon="4.34532">
        <ele>125</ele>
        <time>2022-06-10T17:25:06Z</time>
      </trkpt>
      <trkpt lat="44.44349" lon="4.34527">
        <ele>125</ele>
        <time>2022-06-10T17:25:07Z</time>
      </trkpt>
      <trkpt lat="44.44345" lon="4.34523">
        <ele>124.9</ele>
        <time>2022-06-10T17:25:08Z</time>
      </trkpt>
      <trkpt lat="44.4434" lon="4.34518">
        <ele>124.8</ele>
        <time>2022-06-10T17:25:09Z</time>
      </trkpt>
      <trkpt lat="44.44336" lon="4.34513">
        <ele>124.7</ele>
        <time>2022-06-10T17:25:10Z</time>
      </trkpt>
      <trkpt lat="44.44331" lon="4.34509">
        <ele>124.6</ele>
        <time>2022-06-10T17:25:11Z</time>
      </trkpt>
      <trkpt lat="44.44327" lon="4.34504">
        <ele>124.5</ele>
        <time>2022-06-10T17:25:12Z</time>
      </trkpt>
      <trkpt lat="44.44322" lon="4.34499">
        <ele>124.4</ele>
        <time>2022-06-10T17:25:13Z</time>
      </trkpt>
      <trkpt lat="44.44318" lon="4.34495">
        <ele>124.3</ele>
        <time>2022-06-10T17:25:14Z</time>
      </trkpt>
      <trkpt lat="44.44313" lon="4.34491">
        <ele>124.2</ele>
        <time>2022-06-10T17:25:15Z</time>
      </trkpt>
      <trkpt lat="44.44308" lon="4.34486">
        <ele>124</ele>
        <time>2022-06-10T17:25:16Z</time>
      </trkpt>
      <trkpt lat="44.44303" lon="4.34481">
        <ele>123.9</ele>
        <time>2022-06-10T17:25:17Z</time>
      </trkpt>
      <trkpt lat="44.44298" lon="4.34476">
        <ele>123.7</ele>
        <time>2022-06-10T17:25:18Z</time>
      </trkpt>
      <trkpt lat="44.44293" lon="4.34471">
        <ele>123.6</ele>
        <time>2022-06-10T17:25:19Z</time>
      </trkpt>
      <trkpt lat="44.44287" lon="4.34465">
        <ele>123.4</ele>
        <time>2022-06-10T17:25:20Z</time>
      </trkpt>
      <trkpt lat="44.44282" lon="4.3446">
        <ele>123.3</ele>
        <time>2022-06-10T17:25:21Z</time>
      </trkpt>
      <trkpt lat="44.44277" lon="4.34456">
        <ele>123.2</ele>
        <time>2022-06-10T17:25:22Z</time>
      </trkpt>
      <trkpt lat="44.44271" lon="4.34452">
        <ele>123</ele>
        <time>2022-06-10T17:25:23Z</time>
      </trkpt>
      <trkpt lat="44.44265" lon="4.3445">
        <ele>122.9</ele>
        <time>2022-06-10T17:25:24Z</time>
      </trkpt>
      <trkpt lat="44.44259" lon="4.34448">
        <ele>122.8</ele>
        <time>2022-06-10T17:25:25Z</time>
      </trkpt>
      <trkpt lat="44.44253" lon="4.34447">
        <ele>122.8</ele>
        <time>2022-06-10T17:25:26Z</time>
      </trkpt>
      <trkpt lat="44.44246" lon="4.34446">
        <ele>122.7</ele>
        <time>2022-06-10T17:25:27Z</time>
      </trkpt>
      <trkpt lat="44.4424" lon="4.34446">
        <ele>122.6</ele>
        <time>2022-06-10T17:25:28Z</time>
      </trkpt>
      <trkpt lat="44.44234" lon="4.34447">
        <ele>122.6</ele>
        <time>2022-06-10T17:25:29Z</time>
      </trkpt>
      <trkpt lat="44.44228" lon="4.3445">
        <ele>122.5</ele>
        <time>2022-06-10T17:25:30Z</time>
      </trkpt>
      <trkpt lat="44.44222" lon="4.34453">
        <ele>122.4</ele>
        <time>2022-06-10T17:25:31Z</time>
      </trkpt>
      <trkpt lat="44.44217" lon="4.34456">
        <ele>122.3</ele>
        <time>2022-06-10T17:25:32Z</time>
      </trkpt>
      <trkpt lat="44.44214" lon="4.34457">
        <ele>122.3</ele>
        <time>2022-06-10T17:25:33Z</time>
      </trkpt>
      <trkpt lat="44.44213" lon="4.34457">
        <ele>122.2</ele>
        <time>2022-06-10T17:25:34Z</time>
      </trkpt>
      <trkpt lat="44.44212" lon="4.34457">
        <ele>122.2</ele>
        <time>2022-06-10T17:25:35Z</time>
      </trkpt>
      <trkpt lat="44.44212" lon="4.34457">
        <ele>122.2</ele>
        <time>2022-06-10T17:25:36Z</time>
      </trkpt>
      <trkpt lat="44.44212" lon="4.34457">
        <ele>122.2</ele>
        <time>2022-06-10T17:25:37Z</time>
      </trkpt>
      <trkpt lat="44.44212" lon="4.34457">
        <ele>122.2</ele>
        <time>2022-06-10T17:25:38Z</time>
      </trkpt>
      <trkpt lat="44.44211" lon="4.34458">
        <ele>122.2</ele>
        <time>2022-06-10T17:25:39Z</time>
      </trkpt>
      <trkpt lat="44.44209" lon="4.3446">
        <ele>122.2</ele>
        <time>2022-06-10T17:25:40Z</time>
      </trkpt>
      <trkpt lat="44.44208" lon="4.34461">
        <ele>122.1</ele>
        <time>2022-06-10T17:25:41Z</time>
      </trkpt>
      <trkpt lat="44.44204" lon="4.34465">
        <ele>122.1</ele>
        <time>2022-06-10T17:25:42Z</time>
      </trkpt>
      <trkpt lat="44.44203" lon="4.34467">
        <ele>122</ele>
        <time>2022-06-10T17:25:43Z</time>
      </trkpt>
      <trkpt lat="44.44201" lon="4.3447">
        <ele>122</ele>
        <time>2022-06-10T17:25:45Z</time>
      </trkpt>
      <trkpt lat="44.44198" lon="4.34474">
        <ele>121.9</ele>
        <time>2022-06-10T17:25:46Z</time>
      </trkpt>
      <trkpt lat="44.44193" lon="4.34482">
        <ele>121.8</ele>
        <time>2022-06-10T17:25:47Z</time>
      </trkpt>
      <trkpt lat="44.4419" lon="4.34487">
        <ele>121.7</ele>
        <time>2022-06-10T17:25:49Z</time>
      </trkpt>
      <trkpt lat="44.44187" lon="4.34496">
        <ele>121.7</ele>
        <time>2022-06-10T17:25:50Z</time>
      </trkpt>
      <trkpt lat="44.44183" lon="4.34507">
        <ele>121.6</ele>
        <time>2022-06-10T17:25:52Z</time>
      </trkpt>
      <trkpt lat="44.44182" lon="4.34513">
        <ele>121.6</ele>
        <time>2022-06-10T17:25:53Z</time>
      </trkpt>
      <trkpt lat="44.44181" lon="4.34519">
        <ele>121.5</ele>
        <time>2022-06-10T17:25:54Z</time>
      </trkpt>
      <trkpt lat="44.4418" lon="4.34526">
        <ele>121.5</ele>
        <time>2022-06-10T17:25:55Z</time>
      </trkpt>
      <trkpt lat="44.4418" lon="4.34533">
        <ele>121.5</ele>
        <time>2022-06-10T17:25:56Z</time>
      </trkpt>
      <trkpt lat="44.4418" lon="4.3454">
        <ele>121.5</ele>
        <time>2022-06-10T17:25:57Z</time>
      </trkpt>
      <trkpt lat="44.44181" lon="4.34546">
        <ele>121.6</ele>
        <time>2022-06-10T17:25:58Z</time>
      </trkpt>
      <trkpt lat="44.44181" lon="4.3455">
        <ele>121.6</ele>
        <time>2022-06-10T17:25:59Z</time>
      </trkpt>
      <trkpt lat="44.44183" lon="4.34558">
        <ele>121.6</ele>
        <time>2022-06-10T17:26:00Z</time>
      </trkpt>
      <trkpt lat="44.44185" lon="4.34563">
        <ele>121.6</ele>
        <time>2022-06-10T17:26:01Z</time>
      </trkpt>
      <trkpt lat="44.44186" lon="4.34569">
        <ele>121.6</ele>
        <time>2022-06-10T17:26:02Z</time>
      </trkpt>
      <trkpt lat="44.4419" lon="4.34575">
        <ele>121.7</ele>
        <time>2022-06-10T17:26:03Z</time>
      </trkpt>
      <trkpt lat="44.44192" lon="4.34579">
        <ele>121.7</ele>
        <time>2022-06-10T17:26:04Z</time>
      </trkpt>
      <trkpt lat="44.44194" lon="4.34584">
        <ele>121.7</ele>
        <time>2022-06-10T17:26:06Z</time>
      </trkpt>
      <trkpt lat="44.44198" lon="4.3459">
        <ele>121.8</ele>
        <time>2022-06-10T17:26:07Z</time>
      </trkpt>
      <trkpt lat="44.44202" lon="4.34595">
        <ele>121.8</ele>
        <time>2022-06-10T17:26:08Z</time>
      </trkpt>
      <trkpt lat="44.44205" lon="4.34598">
        <ele>121.8</ele>
        <time>2022-06-10T17:26:09Z</time>
      </trkpt>
      <trkpt lat="44.44208" lon="4.34601">
        <ele>121.8</ele>
        <time>2022-06-10T17:26:10Z</time>
      </trkpt>
      <trkpt lat="44.44215" lon="4.34607">
        <ele>121.9</ele>
        <time>2022-06-10T17:26:12Z</time>
      </trkpt>
      <trkpt lat="44.44218" lon="4.34611">
        <ele>121.9</ele>
        <time>2022-06-10T17:26:14Z</time>
      </trkpt>
      <trkpt lat="44.44222" lon="4.34616">
        <ele>121.9</ele>
        <time>2022-06-10T17:26:15Z</time>
      </trkpt>
      <trkpt lat="44.44226" lon="4.34618">
        <ele>121.9</ele>
        <time>2022-06-10T17:26:16Z</time>
      </trkpt>
      <trkpt lat="44.44229" lon="4.34621">
        <ele>121.9</ele>
        <time>2022-06-10T17:26:17Z</time>
      </trkpt>
      <trkpt lat="44.44234" lon="4.34625">
        <ele>121.9</ele>
        <time>2022-06-10T17:26:19Z</time>
      </trkpt>
      <trkpt lat="44.44238" lon="4.34628">
        <ele>122</ele>
        <time>2022-06-10T17:26:20Z</time>
      </trkpt>
      <trkpt lat="44.44242" lon="4.3463">
        <ele>122</ele>
        <time>2022-06-10T17:26:21Z</time>
      </trkpt>
      <trkpt lat="44.44245" lon="4.34634">
        <ele>122</ele>
        <time>2022-06-10T17:26:22Z</time>
      </trkpt>
      <trkpt lat="44.4425" lon="4.34638">
        <ele>122.4</ele>
        <time>2022-06-10T17:26:23Z</time>
      </trkpt>
      <trkpt lat="44.44255" lon="4.34642">
        <ele>122.4</ele>
        <time>2022-06-10T17:26:25Z</time>
      </trkpt>
      <trkpt lat="44.44258" lon="4.34645">
        <ele>122.4</ele>
        <time>2022-06-10T17:26:26Z</time>
      </trkpt>
      <trkpt lat="44.44261" lon="4.34649">
        <ele>122.8</ele>
        <time>2022-06-10T17:26:27Z</time>
      </trkpt>
      <trkpt lat="44.44262" lon="4.34651">
        <ele>122.8</ele>
        <time>2022-06-10T17:26:29Z</time>
      </trkpt>
      <trkpt lat="44.44261" lon="4.3465">
        <ele>122.8</ele>
        <time>2022-06-10T17:26:30Z</time>
      </trkpt>
      <trkpt lat="44.4426" lon="4.3465">
        <ele>122.1</ele>
        <time>2022-06-10T17:26:31Z</time>
      </trkpt>
      <trkpt lat="44.4426" lon="4.3465">
        <ele>122.1</ele>
        <time>2022-06-10T17:26:32Z</time>
      </trkpt>
      <trkpt lat="44.44259" lon="4.3465">
        <ele>122.1</ele>
        <time>2022-06-10T17:26:33Z</time>
      </trkpt>
      <trkpt lat="44.44258" lon="4.3465">
        <ele>122.1</ele>
        <time>2022-06-10T17:26:34Z</time>
      </trkpt>
      <trkpt lat="44.44258" lon="4.3465">
        <ele>122</ele>
        <time>2022-06-10T17:26:35Z</time>
      </trkpt>
      <trkpt lat="44.44257" lon="4.3465">
        <ele>122</ele>
        <time>2022-06-10T17:26:36Z</time>
      </trkpt>
      <trkpt lat="44.44256" lon="4.3465">
        <ele>122</ele>
        <time>2022-06-10T17:26:37Z</time>
      </trkpt>
      <trkpt lat="44.44255" lon="4.3465">
        <ele>122</ele>
        <time>2022-06-10T17:26:38Z</time>
      </trkpt>
      <trkpt lat="44.44255" lon="4.3465">
        <ele>122</ele>
        <time>2022-06-10T17:26:39Z</time>
      </trkpt>
      <trkpt lat="44.44254" lon="4.34649">
        <ele>122</ele>
        <time>2022-06-10T17:27:13Z</time>
      </trkpt>
      <trkpt lat="44.44253" lon="4.34649">
        <ele>121.9</ele>
        <time>2022-06-10T17:27:14Z</time>
      </trkpt>
      <trkpt lat="44.44253" lon="4.34649">
        <ele>121.9</ele>
        <time>2022-06-10T17:27:15Z</time>
      </trkpt>
      <trkpt lat="44.4425" lon="4.34647">
        <ele>121.9</ele>
        <time>2022-06-10T17:27:17Z</time>
      </trkpt>
      <trkpt lat="44.44247" lon="4.34645">
        <ele>121.6</ele>
        <time>2022-06-10T17:27:18Z</time>
      </trkpt>
      <trkpt lat="44.44245" lon="4.34643">
        <ele>121.6</ele>
        <time>2022-06-10T17:27:19Z</time>
      </trkpt>
      <trkpt lat="44.44241" lon="4.34638">
        <ele>121.6</ele>
        <time>2022-06-10T17:27:20Z</time>
      </trkpt>
      <trkpt lat="44.44238" lon="4.34635">
        <ele>121.5</ele>
        <time>2022-06-10T17:27:21Z</time>
      </trkpt>
      <trkpt lat="44.44234" lon="4.34631">
        <ele>121.5</ele>
        <time>2022-06-10T17:27:22Z</time>
      </trkpt>
      <trkpt lat="44.44231" lon="4.34627">
        <ele>121.5</ele>
        <time>2022-06-10T17:27:24Z</time>
      </trkpt>
      <trkpt lat="44.44224" lon="4.34621">
        <ele>121.4</ele>
        <time>2022-06-10T17:27:25Z</time>
      </trkpt>
      <trkpt lat="44.44217" lon="4.34615">
        <ele>121.4</ele>
        <time>2022-06-10T17:27:27Z</time>
      </trkpt>
      <trkpt lat="44.44212" lon="4.3461">
        <ele>121.4</ele>
        <time>2022-06-10T17:27:29Z</time>
      </trkpt>
      <trkpt lat="44.44207" lon="4.34607">
        <ele>121.4</ele>
        <time>2022-06-10T17:27:30Z</time>
      </trkpt>
      <trkpt lat="44.44203" lon="4.34603">
        <ele>121.4</ele>
        <time>2022-06-10T17:27:31Z</time>
      </trkpt>
      <trkpt lat="44.442" lon="4.34599">
        <ele>121.3</ele>
        <time>2022-06-10T17:27:32Z</time>
      </trkpt>
      <trkpt lat="44.44196" lon="4.34595">
        <ele>121.3</ele>
        <time>2022-06-10T17:27:33Z</time>
      </trkpt>
      <trkpt lat="44.44193" lon="4.3459">
        <ele>121.3</ele>
        <time>2022-06-10T17:27:34Z</time>
      </trkpt>
      <trkpt lat="44.4419" lon="4.34585">
        <ele>121.3</ele>
        <time>2022-06-10T17:27:35Z</time>
      </trkpt>
      <trkpt lat="44.44187" lon="4.3458">
        <ele>121.3</ele>
        <time>2022-06-10T17:27:36Z</time>
      </trkpt>
      <trkpt lat="44.44184" lon="4.34575">
        <ele>121.4</ele>
        <time>2022-06-10T17:27:37Z</time>
      </trkpt>
      <trkpt lat="44.44182" lon="4.3457">
        <ele>121.4</ele>
        <time>2022-06-10T17:27:38Z</time>
      </trkpt>
      <trkpt lat="44.44181" lon="4.34564">
        <ele>121.4</ele>
        <time>2022-06-10T17:27:39Z</time>
      </trkpt>
      <trkpt lat="44.44179" lon="4.34558">
        <ele>121.4</ele>
        <time>2022-06-10T17:27:40Z</time>
      </trkpt>
      <trkpt lat="44.44178" lon="4.34553">
        <ele>121.4</ele>
        <time>2022-06-10T17:27:41Z</time>
      </trkpt>
      <trkpt lat="44.44176" lon="4.34547">
        <ele>121.4</ele>
        <time>2022-06-10T17:27:42Z</time>
      </trkpt>
      <trkpt lat="44.44173" lon="4.34541">
        <ele>121.4</ele>
        <time>2022-06-10T17:27:43Z</time>
      </trkpt>
      <trkpt lat="44.44168" lon="4.34534">
        <ele>121.4</ele>
        <time>2022-06-10T17:27:44Z</time>
      </trkpt>
      <trkpt lat="44.44162" lon="4.34528">
        <ele>121.4</ele>
        <time>2022-06-10T17:27:46Z</time>
      </trkpt>
      <trkpt lat="44.44159" lon="4.34524">
        <ele>121.3</ele>
        <time>2022-06-10T17:27:47Z</time>
      </trkpt>
      <trkpt lat="44.44155" lon="4.3452">
        <ele>121.3</ele>
        <time>2022-06-10T17:27:48Z</time>
      </trkpt>
      <trkpt lat="44.44151" lon="4.34515">
        <ele>121.3</ele>
        <time>2022-06-10T17:27:49Z</time>
      </trkpt>
      <trkpt lat="44.44147" lon="4.3451">
        <ele>121.3</ele>
        <time>2022-06-10T17:27:50Z</time>
      </trkpt>
      <trkpt lat="44.44143" lon="4.34506">
        <ele>121.3</ele>
        <time>2022-06-10T17:27:51Z</time>
      </trkpt>
      <trkpt lat="44.44139" lon="4.34502">
        <ele>121.3</ele>
        <time>2022-06-10T17:27:52Z</time>
      </trkpt>
      <trkpt lat="44.44136" lon="4.34498">
        <ele>121.3</ele>
        <time>2022-06-10T17:27:53Z</time>
      </trkpt>
      <trkpt lat="44.44132" lon="4.34494">
        <ele>121.3</ele>
        <time>2022-06-10T17:27:54Z</time>
      </trkpt>
      <trkpt lat="44.44128" lon="4.34489">
        <ele>121.2</ele>
        <time>2022-06-10T17:27:55Z</time>
      </trkpt>
      <trkpt lat="44.44124" lon="4.34485">
        <ele>121.2</ele>
        <time>2022-06-10T17:27:56Z</time>
      </trkpt>
      <trkpt lat="44.44121" lon="4.3448">
        <ele>121.2</ele>
        <time>2022-06-10T17:27:57Z</time>
      </trkpt>
      <trkpt lat="44.44117" lon="4.34476">
        <ele>121.2</ele>
        <time>2022-06-10T17:27:58Z</time>
      </trkpt>
      <trkpt lat="44.44113" lon="4.34472">
        <ele>121.2</ele>
        <time>2022-06-10T17:27:59Z</time>
      </trkpt>
      <trkpt lat="44.44109" lon="4.34467">
        <ele>121.2</ele>
        <time>2022-06-10T17:28:00Z</time>
      </trkpt>
      <trkpt lat="44.44105" lon="4.34463">
        <ele>121.1</ele>
        <time>2022-06-10T17:28:01Z</time>
      </trkpt>
      <trkpt lat="44.44101" lon="4.34459">
        <ele>121.1</ele>
        <time>2022-06-10T17:28:02Z</time>
      </trkpt>
      <trkpt lat="44.44097" lon="4.34454">
        <ele>121.1</ele>
        <time>2022-06-10T17:28:03Z</time>
      </trkpt>
      <trkpt lat="44.44093" lon="4.3445">
        <ele>121.1</ele>
        <time>2022-06-10T17:28:04Z</time>
      </trkpt>
      <trkpt lat="44.44089" lon="4.34445">
        <ele>121.1</ele>
        <time>2022-06-10T17:28:05Z</time>
      </trkpt>
      <trkpt lat="44.44086" lon="4.34441">
        <ele>121.1</ele>
        <time>2022-06-10T17:28:06Z</time>
      </trkpt>
      <trkpt lat="44.44082" lon="4.34436">
        <ele>121.1</ele>
        <time>2022-06-10T17:28:07Z</time>
      </trkpt>
      <trkpt lat="44.44078" lon="4.34432">
        <ele>121.1</ele>
        <time>2022-06-10T17:28:08Z</time>
      </trkpt>
      <trkpt lat="44.44074" lon="4.34427">
        <ele>121</ele>
        <time>2022-06-10T17:28:09Z</time>
      </trkpt>
      <trkpt lat="44.44071" lon="4.34423">
        <ele>121</ele>
        <time>2022-06-10T17:28:10Z</time>
      </trkpt>
      <trkpt lat="44.44067" lon="4.34418">
        <ele>121</ele>
        <time>2022-06-10T17:28:11Z</time>
      </trkpt>
      <trkpt lat="44.44063" lon="4.34414">
        <ele>120.9</ele>
        <time>2022-06-10T17:28:12Z</time>
      </trkpt>
      <trkpt lat="44.44059" lon="4.34409">
        <ele>120.9</ele>
        <time>2022-06-10T17:28:13Z</time>
      </trkpt>
      <trkpt lat="44.44055" lon="4.34405">
        <ele>120.9</ele>
        <time>2022-06-10T17:28:14Z</time>
      </trkpt>
      <trkpt lat="44.44051" lon="4.344">
        <ele>120.9</ele>
        <time>2022-06-10T17:28:15Z</time>
      </trkpt>
      <trkpt lat="44.44047" lon="4.34396">
        <ele>120.9</ele>
        <time>2022-06-10T17:28:16Z</time>
      </trkpt>
      <trkpt lat="44.44044" lon="4.34391">
        <ele>120.9</ele>
        <time>2022-06-10T17:28:17Z</time>
      </trkpt>
      <trkpt lat="44.4404" lon="4.34387">
        <ele>120.9</ele>
        <time>2022-06-10T17:28:18Z</time>
      </trkpt>
      <trkpt lat="44.44036" lon="4.34382">
        <ele>120.9</ele>
        <time>2022-06-10T17:28:19Z</time>
      </trkpt>
      <trkpt lat="44.44032" lon="4.34378">
        <ele>120.9</ele>
        <time>2022-06-10T17:28:20Z</time>
      </trkpt>
      <trkpt lat="44.44028" lon="4.34374">
        <ele>120.9</ele>
        <time>2022-06-10T17:28:21Z</time>
      </trkpt>
      <trkpt lat="44.44024" lon="4.34369">
        <ele>120.9</ele>
        <time>2022-06-10T17:28:22Z</time>
      </trkpt>
      <trkpt lat="44.44021" lon="4.34365">
        <ele>120.9</ele>
        <time>2022-06-10T17:28:23Z</time>
      </trkpt>
      <trkpt lat="44.44018" lon="4.34361">
        <ele>120.8</ele>
        <time>2022-06-10T17:28:24Z</time>
      </trkpt>
      <trkpt lat="44.44015" lon="4.34356">
        <ele>120.8</ele>
        <time>2022-06-10T17:28:25Z</time>
      </trkpt>
      <trkpt lat="44.44011" lon="4.34352">
        <ele>120.8</ele>
        <time>2022-06-10T17:28:26Z</time>
      </trkpt>
      <trkpt lat="44.44007" lon="4.34348">
        <ele>120.8</ele>
        <time>2022-06-10T17:28:27Z</time>
      </trkpt>
      <trkpt lat="44.44003" lon="4.34343">
        <ele>120.7</ele>
        <time>2022-06-10T17:28:28Z</time>
      </trkpt>
      <trkpt lat="44.43999" lon="4.34339">
        <ele>120.7</ele>
        <time>2022-06-10T17:28:29Z</time>
      </trkpt>
      <trkpt lat="44.43995" lon="4.34334">
        <ele>120.6</ele>
        <time>2022-06-10T17:28:30Z</time>
      </trkpt>
      <trkpt lat="44.43991" lon="4.34329">
        <ele>120.6</ele>
        <time>2022-06-10T17:28:31Z</time>
      </trkpt>
      <trkpt lat="44.43987" lon="4.34324">
        <ele>120.5</ele>
        <time>2022-06-10T17:28:32Z</time>
      </trkpt>
      <trkpt lat="44.43983" lon="4.3432">
        <ele>120.5</ele>
        <time>2022-06-10T17:28:33Z</time>
      </trkpt>
      <trkpt lat="44.43979" lon="4.34316">
        <ele>120.4</ele>
        <time>2022-06-10T17:28:34Z</time>
      </trkpt>
      <trkpt lat="44.43976" lon="4.34311">
        <ele>120.4</ele>
        <time>2022-06-10T17:28:35Z</time>
      </trkpt>
      <trkpt lat="44.43972" lon="4.34307">
        <ele>120.4</ele>
        <time>2022-06-10T17:28:36Z</time>
      </trkpt>
      <trkpt lat="44.43968" lon="4.34302">
        <ele>120.3</ele>
        <time>2022-06-10T17:28:37Z</time>
      </trkpt>
      <trkpt lat="44.43964" lon="4.34297">
        <ele>120.3</ele>
        <time>2022-06-10T17:28:38Z</time>
      </trkpt>
      <trkpt lat="44.4396" lon="4.34293">
        <ele>120.3</ele>
        <time>2022-06-10T17:28:39Z</time>
      </trkpt>
      <trkpt lat="44.43956" lon="4.34289">
        <ele>120.2</ele>
        <time>2022-06-10T17:28:40Z</time>
      </trkpt>
      <trkpt lat="44.43952" lon="4.34284">
        <ele>120.2</ele>
        <time>2022-06-10T17:28:41Z</time>
      </trkpt>
      <trkpt lat="44.43948" lon="4.34279">
        <ele>120.2</ele>
        <time>2022-06-10T17:28:42Z</time>
      </trkpt>
      <trkpt lat="44.43944" lon="4.34275">
        <ele>120.2</ele>
        <time>2022-06-10T17:28:43Z</time>
      </trkpt>
      <trkpt lat="44.4394" lon="4.3427">
        <ele>120.1</ele>
        <time>2022-06-10T17:28:44Z</time>
      </trkpt>
      <trkpt lat="44.43935" lon="4.34266">
        <ele>120.1</ele>
        <time>2022-06-10T17:28:45Z</time>
      </trkpt>
      <trkpt lat="44.43931" lon="4.34261">
        <ele>120.1</ele>
        <time>2022-06-10T17:28:46Z</time>
      </trkpt>
      <trkpt lat="44.43927" lon="4.34256">
        <ele>120</ele>
        <time>2022-06-10T17:28:47Z</time>
      </trkpt>
      <trkpt lat="44.43923" lon="4.34252">
        <ele>120</ele>
        <time>2022-06-10T17:28:48Z</time>
      </trkpt>
      <trkpt lat="44.43919" lon="4.34247">
        <ele>119.9</ele>
        <time>2022-06-10T17:28:49Z</time>
      </trkpt>
      <trkpt lat="44.43915" lon="4.34242">
        <ele>119.9</ele>
        <time>2022-06-10T17:28:50Z</time>
      </trkpt>
      <trkpt lat="44.43912" lon="4.34238">
        <ele>119.9</ele>
        <time>2022-06-10T17:28:51Z</time>
      </trkpt>
      <trkpt lat="44.43908" lon="4.34233">
        <ele>119.8</ele>
        <time>2022-06-10T17:28:52Z</time>
      </trkpt>
      <trkpt lat="44.43904" lon="4.34229">
        <ele>119.8</ele>
        <time>2022-06-10T17:28:53Z</time>
      </trkpt>
      <trkpt lat="44.439" lon="4.34224">
        <ele>119.8</ele>
        <time>2022-06-10T17:28:54Z</time>
      </trkpt>
      <trkpt lat="44.43896" lon="4.3422">
        <ele>119.8</ele>
        <time>2022-06-10T17:28:55Z</time>
      </trkpt>
      <trkpt lat="44.43892" lon="4.34215">
        <ele>119.8</ele>
        <time>2022-06-10T17:28:56Z</time>
      </trkpt>
      <trkpt lat="44.43888" lon="4.34211">
        <ele>119.7</ele>
        <time>2022-06-10T17:28:57Z</time>
      </trkpt>
      <trkpt lat="44.43884" lon="4.34206">
        <ele>119.7</ele>
        <time>2022-06-10T17:28:58Z</time>
      </trkpt>
      <trkpt lat="44.4388" lon="4.34201">
        <ele>119.7</ele>
        <time>2022-06-10T17:28:59Z</time>
      </trkpt>
      <trkpt lat="44.43875" lon="4.34197">
        <ele>119.7</ele>
        <time>2022-06-10T17:29:00Z</time>
      </trkpt>
      <trkpt lat="44.43871" lon="4.34192">
        <ele>119.6</ele>
        <time>2022-06-10T17:29:01Z</time>
      </trkpt>
      <trkpt lat="44.43867" lon="4.34187">
        <ele>119.6</ele>
        <time>2022-06-10T17:29:02Z</time>
      </trkpt>
      <trkpt lat="44.43863" lon="4.34182">
        <ele>119.6</ele>
        <time>2022-06-10T17:29:03Z</time>
      </trkpt>
      <trkpt lat="44.4386" lon="4.34178">
        <ele>119.6</ele>
        <time>2022-06-10T17:29:04Z</time>
      </trkpt>
      <trkpt lat="44.43856" lon="4.34173">
        <ele>119.6</ele>
        <time>2022-06-10T17:29:05Z</time>
      </trkpt>
      <trkpt lat="44.43851" lon="4.34169">
        <ele>119.5</ele>
        <time>2022-06-10T17:29:06Z</time>
      </trkpt>
      <trkpt lat="44.43847" lon="4.34164">
        <ele>119.5</ele>
        <time>2022-06-10T17:29:07Z</time>
      </trkpt>
      <trkpt lat="44.43843" lon="4.3416">
        <ele>119.5</ele>
        <time>2022-06-10T17:29:08Z</time>
      </trkpt>
      <trkpt lat="44.43839" lon="4.34155">
        <ele>119.5</ele>
        <time>2022-06-10T17:29:09Z</time>
      </trkpt>
      <trkpt lat="44.43835" lon="4.3415">
        <ele>119.4</ele>
        <time>2022-06-10T17:29:10Z</time>
      </trkpt>
      <trkpt lat="44.43831" lon="4.34144">
        <ele>119.4</ele>
        <time>2022-06-10T17:29:11Z</time>
      </trkpt>
      <trkpt lat="44.43826" lon="4.3414">
        <ele>119.4</ele>
        <time>2022-06-10T17:29:12Z</time>
      </trkpt>
      <trkpt lat="44.43822" lon="4.34135">
        <ele>119.4</ele>
        <time>2022-06-10T17:29:13Z</time>
      </trkpt>
      <trkpt lat="44.43818" lon="4.3413">
        <ele>119.3</ele>
        <time>2022-06-10T17:29:14Z</time>
      </trkpt>
      <trkpt lat="44.43813" lon="4.34125">
        <ele>119.3</ele>
        <time>2022-06-10T17:29:15Z</time>
      </trkpt>
      <trkpt lat="44.43808" lon="4.34119">
        <ele>119.3</ele>
        <time>2022-06-10T17:29:16Z</time>
      </trkpt>
      <trkpt lat="44.43804" lon="4.34114">
        <ele>119.3</ele>
        <time>2022-06-10T17:29:17Z</time>
      </trkpt>
      <trkpt lat="44.438" lon="4.34108">
        <ele>119.2</ele>
        <time>2022-06-10T17:29:18Z</time>
      </trkpt>
      <trkpt lat="44.43795" lon="4.34103">
        <ele>119.2</ele>
        <time>2022-06-10T17:29:19Z</time>
      </trkpt>
      <trkpt lat="44.43791" lon="4.34098">
        <ele>119.2</ele>
        <time>2022-06-10T17:29:20Z</time>
      </trkpt>
      <trkpt lat="44.43787" lon="4.34093">
        <ele>119.1</ele>
        <time>2022-06-10T17:29:21Z</time>
      </trkpt>
      <trkpt lat="44.43782" lon="4.34088">
        <ele>119.1</ele>
        <time>2022-06-10T17:29:22Z</time>
      </trkpt>
      <trkpt lat="44.43777" lon="4.34083">
        <ele>119.1</ele>
        <time>2022-06-10T17:29:23Z</time>
      </trkpt>
      <trkpt lat="44.43773" lon="4.34077">
        <ele>119</ele>
        <time>2022-06-10T17:29:24Z</time>
      </trkpt>
      <trkpt lat="44.43769" lon="4.34072">
        <ele>119</ele>
        <time>2022-06-10T17:29:25Z</time>
      </trkpt>
      <trkpt lat="44.43764" lon="4.34067">
        <ele>119</ele>
        <time>2022-06-10T17:29:26Z</time>
      </trkpt>
      <trkpt lat="44.4376" lon="4.34062">
        <ele>118.9</ele>
        <time>2022-06-10T17:29:27Z</time>
      </trkpt>
      <trkpt lat="44.43755" lon="4.34057">
        <ele>118.9</ele>
        <time>2022-06-10T17:29:28Z</time>
      </trkpt>
      <trkpt lat="44.43751" lon="4.34052">
        <ele>118.9</ele>
        <time>2022-06-10T17:29:29Z</time>
      </trkpt>
      <trkpt lat="44.43746" lon="4.34048">
        <ele>118.9</ele>
        <time>2022-06-10T17:29:30Z</time>
      </trkpt>
      <trkpt lat="44.43742" lon="4.34043">
        <ele>118.8</ele>
        <time>2022-06-10T17:29:31Z</time>
      </trkpt>
      <trkpt lat="44.43737" lon="4.34038">
        <ele>118.8</ele>
        <time>2022-06-10T17:29:32Z</time>
      </trkpt>
      <trkpt lat="44.43733" lon="4.34033">
        <ele>118.8</ele>
        <time>2022-06-10T17:29:33Z</time>
      </trkpt>
      <trkpt lat="44.43728" lon="4.34027">
        <ele>118.7</ele>
        <time>2022-06-10T17:29:34Z</time>
      </trkpt>
      <trkpt lat="44.43724" lon="4.34022">
        <ele>118.7</ele>
        <time>2022-06-10T17:29:35Z</time>
      </trkpt>
      <trkpt lat="44.43719" lon="4.34017">
        <ele>118.6</ele>
        <time>2022-06-10T17:29:36Z</time>
      </trkpt>
      <trkpt lat="44.43715" lon="4.34012">
        <ele>118.6</ele>
        <time>2022-06-10T17:29:37Z</time>
      </trkpt>
      <trkpt lat="44.4371" lon="4.34006">
        <ele>118.6</ele>
        <time>2022-06-10T17:29:38Z</time>
      </trkpt>
      <trkpt lat="44.43705" lon="4.34001">
        <ele>118.5</ele>
        <time>2022-06-10T17:29:39Z</time>
      </trkpt>
      <trkpt lat="44.437" lon="4.33995">
        <ele>118.5</ele>
        <time>2022-06-10T17:29:40Z</time>
      </trkpt>
      <trkpt lat="44.43696" lon="4.3399">
        <ele>118.5</ele>
        <time>2022-06-10T17:29:41Z</time>
      </trkpt>
      <trkpt lat="44.43691" lon="4.33985">
        <ele>118.4</ele>
        <time>2022-06-10T17:29:42Z</time>
      </trkpt>
      <trkpt lat="44.43687" lon="4.33979">
        <ele>118.4</ele>
        <time>2022-06-10T17:29:43Z</time>
      </trkpt>
      <trkpt lat="44.43682" lon="4.33974">
        <ele>118.4</ele>
        <time>2022-06-10T17:29:44Z</time>
      </trkpt>
      <trkpt lat="44.43678" lon="4.33969">
        <ele>118.4</ele>
        <time>2022-06-10T17:29:45Z</time>
      </trkpt>
      <trkpt lat="44.43673" lon="4.33964">
        <ele>118.4</ele>
        <time>2022-06-10T17:29:46Z</time>
      </trkpt>
      <trkpt lat="44.43669" lon="4.33959">
        <ele>118.4</ele>
        <time>2022-06-10T17:29:47Z</time>
      </trkpt>
      <trkpt lat="44.43665" lon="4.33954">
        <ele>118.4</ele>
        <time>2022-06-10T17:29:48Z</time>
      </trkpt>
      <trkpt lat="44.4366" lon="4.33949">
        <ele>118.4</ele>
        <time>2022-06-10T17:29:49Z</time>
      </trkpt>
      <trkpt lat="44.43656" lon="4.33945">
        <ele>118.4</ele>
        <time>2022-06-10T17:29:50Z</time>
      </trkpt>
      <trkpt lat="44.43651" lon="4.3394">
        <ele>118.4</ele>
        <time>2022-06-10T17:29:51Z</time>
      </trkpt>
      <trkpt lat="44.43647" lon="4.33935">
        <ele>118.4</ele>
        <time>2022-06-10T17:29:52Z</time>
      </trkpt>
      <trkpt lat="44.43643" lon="4.3393">
        <ele>118.4</ele>
        <time>2022-06-10T17:29:53Z</time>
      </trkpt>
      <trkpt lat="44.43639" lon="4.33924">
        <ele>118.4</ele>
        <time>2022-06-10T17:29:54Z</time>
      </trkpt>
      <trkpt lat="44.43635" lon="4.33919">
        <ele>118.4</ele>
        <time>2022-06-10T17:29:55Z</time>
      </trkpt>
      <trkpt lat="44.43632" lon="4.33914">
        <ele>118.4</ele>
        <time>2022-06-10T17:29:56Z</time>
      </trkpt>
      <trkpt lat="44.43629" lon="4.33909">
        <ele>118.5</ele>
        <time>2022-06-10T17:29:57Z</time>
      </trkpt>
      <trkpt lat="44.43625" lon="4.33906">
        <ele>118.5</ele>
        <time>2022-06-10T17:29:58Z</time>
      </trkpt>
      <trkpt lat="44.43621" lon="4.33903">
        <ele>118.5</ele>
        <time>2022-06-10T17:29:59Z</time>
      </trkpt>
      <trkpt lat="44.43619" lon="4.33902">
        <ele>118.5</ele>
        <time>2022-06-10T17:30:00Z</time>
      </trkpt>
      <trkpt lat="44.43615" lon="4.33903">
        <ele>118.5</ele>
        <time>2022-06-10T17:30:01Z</time>
      </trkpt>
      <trkpt lat="44.43612" lon="4.33905">
        <ele>118.5</ele>
        <time>2022-06-10T17:30:02Z</time>
      </trkpt>
      <trkpt lat="44.43609" lon="4.33908">
        <ele>118.5</ele>
        <time>2022-06-10T17:30:03Z</time>
      </trkpt>
      <trkpt lat="44.43609" lon="4.33914">
        <ele>118.4</ele>
        <time>2022-06-10T17:30:04Z</time>
      </trkpt>
      <trkpt lat="44.43609" lon="4.33917">
        <ele>118.4</ele>
        <time>2022-06-10T17:30:05Z</time>
      </trkpt>
      <trkpt lat="44.43609" lon="4.33919">
        <ele>118.4</ele>
        <time>2022-06-10T17:30:06Z</time>
      </trkpt>
      <trkpt lat="44.43607" lon="4.33921">
        <ele>118.4</ele>
        <time>2022-06-10T17:30:07Z</time>
      </trkpt>
      <trkpt lat="44.43608" lon="4.33926">
        <ele>118.4</ele>
        <time>2022-06-10T17:30:08Z</time>
      </trkpt>
      <trkpt lat="44.43611" lon="4.33937">
        <ele>118.3</ele>
        <time>2022-06-10T17:30:10Z</time>
      </trkpt>
      <trkpt lat="44.43611" lon="4.33942">
        <ele>118.3</ele>
        <time>2022-06-10T17:30:11Z</time>
      </trkpt>
      <trkpt lat="44.43611" lon="4.33946">
        <ele>118.3</ele>
        <time>2022-06-10T17:30:12Z</time>
      </trkpt>
      <trkpt lat="44.43612" lon="4.33951">
        <ele>118.3</ele>
        <time>2022-06-10T17:30:13Z</time>
      </trkpt>
      <trkpt lat="44.43612" lon="4.33953">
        <ele>118.3</ele>
        <time>2022-06-10T17:30:14Z</time>
      </trkpt>
      <trkpt lat="44.43613" lon="4.33957">
        <ele>118.4</ele>
        <time>2022-06-10T17:30:15Z</time>
      </trkpt>
      <trkpt lat="44.43613" lon="4.33959">
        <ele>118.4</ele>
        <time>2022-06-10T17:30:16Z</time>
      </trkpt>
      <trkpt lat="44.43614" lon="4.33964">
        <ele>118.4</ele>
        <time>2022-06-10T17:30:17Z</time>
      </trkpt>
      <trkpt lat="44.43614" lon="4.33966">
        <ele>118.4</ele>
        <time>2022-06-10T17:30:18Z</time>
      </trkpt>
      <trkpt lat="44.43616" lon="4.33975">
        <ele>118.5</ele>
        <time>2022-06-10T17:30:20Z</time>
      </trkpt>
      <trkpt lat="44.43616" lon="4.33979">
        <ele>118.5</ele>
        <time>2022-06-10T17:30:21Z</time>
      </trkpt>
      <trkpt lat="44.43617" lon="4.33984">
        <ele>118.6</ele>
        <time>2022-06-10T17:30:22Z</time>
      </trkpt>
      <trkpt lat="44.43618" lon="4.33989">
        <ele>118.6</ele>
        <time>2022-06-10T17:30:23Z</time>
      </trkpt>
      <trkpt lat="44.43618" lon="4.33994">
        <ele>118.7</ele>
        <time>2022-06-10T17:30:24Z</time>
      </trkpt>
      <trkpt lat="44.43619" lon="4.33999">
        <ele>118.8</ele>
        <time>2022-06-10T17:30:25Z</time>
      </trkpt>
      <trkpt lat="44.43619" lon="4.34004">
        <ele>118.9</ele>
        <time>2022-06-10T17:30:26Z</time>
      </trkpt>
      <trkpt lat="44.43619" lon="4.34008">
        <ele>119</ele>
        <time>2022-06-10T17:30:27Z</time>
      </trkpt>
      <trkpt lat="44.43619" lon="4.34013">
        <ele>119</ele>
        <time>2022-06-10T17:30:28Z</time>
      </trkpt>
      <trkpt lat="44.4362" lon="4.34016">
        <ele>119.1</ele>
        <time>2022-06-10T17:30:29Z</time>
      </trkpt>
      <trkpt lat="44.43619" lon="4.34022">
        <ele>119.2</ele>
        <time>2022-06-10T17:30:30Z</time>
      </trkpt>
      <trkpt lat="44.43619" lon="4.34024">
        <ele>119.2</ele>
        <time>2022-06-10T17:30:31Z</time>
      </trkpt>
      <trkpt lat="44.43619" lon="4.34028">
        <ele>119.3</ele>
        <time>2022-06-10T17:30:32Z</time>
      </trkpt>
      <trkpt lat="44.43618" lon="4.34033">
        <ele>119.4</ele>
        <time>2022-06-10T17:30:33Z</time>
      </trkpt>
      <trkpt lat="44.43618" lon="4.34038">
        <ele>119.5</ele>
        <time>2022-06-10T17:30:34Z</time>
      </trkpt>
      <trkpt lat="44.43617" lon="4.34044">
        <ele>119.5</ele>
        <time>2022-06-10T17:30:35Z</time>
      </trkpt>
      <trkpt lat="44.43616" lon="4.34049">
        <ele>119.6</ele>
        <time>2022-06-10T17:30:36Z</time>
      </trkpt>
      <trkpt lat="44.43615" lon="4.34054">
        <ele>119.7</ele>
        <time>2022-06-10T17:30:37Z</time>
      </trkpt>
      <trkpt lat="44.43615" lon="4.3406">
        <ele>119.8</ele>
        <time>2022-06-10T17:30:38Z</time>
      </trkpt>
      <trkpt lat="44.43614" lon="4.34065">
        <ele>119.8</ele>
        <time>2022-06-10T17:30:39Z</time>
      </trkpt>
      <trkpt lat="44.43612" lon="4.34074">
        <ele>120</ele>
        <time>2022-06-10T17:30:40Z</time>
      </trkpt>
      <trkpt lat="44.4361" lon="4.3408">
        <ele>120</ele>
        <time>2022-06-10T17:30:42Z</time>
      </trkpt>
      <trkpt lat="44.43609" lon="4.34086">
        <ele>120.1</ele>
        <time>2022-06-10T17:30:43Z</time>
      </trkpt>
      <trkpt lat="44.43606" lon="4.34094">
        <ele>120.2</ele>
        <time>2022-06-10T17:30:44Z</time>
      </trkpt>
      <trkpt lat="44.43605" lon="4.34099">
        <ele>120.3</ele>
        <time>2022-06-10T17:30:46Z</time>
      </trkpt>
      <trkpt lat="44.43602" lon="4.34107">
        <ele>120.4</ele>
        <time>2022-06-10T17:30:47Z</time>
      </trkpt>
      <trkpt lat="44.43601" lon="4.3411">
        <ele>120.1</ele>
        <time>2022-06-10T17:30:48Z</time>
      </trkpt>
      <trkpt lat="44.43596" lon="4.34112">
        <ele>119.9</ele>
        <time>2022-06-10T17:30:50Z</time>
      </trkpt>
      <trkpt lat="44.4359" lon="4.34111">
        <ele>119.6</ele>
        <time>2022-06-10T17:30:51Z</time>
      </trkpt>
      <trkpt lat="44.43585" lon="4.34112">
        <ele>119.4</ele>
        <time>2022-06-10T17:30:52Z</time>
      </trkpt>
      <trkpt lat="44.43579" lon="4.34115">
        <ele>119.2</ele>
        <time>2022-06-10T17:30:53Z</time>
      </trkpt>
      <trkpt lat="44.43574" lon="4.34117">
        <ele>119</ele>
        <time>2022-06-10T17:30:54Z</time>
      </trkpt>
      <trkpt lat="44.43568" lon="4.34121">
        <ele>118.7</ele>
        <time>2022-06-10T17:30:55Z</time>
      </trkpt>
      <trkpt lat="44.43562" lon="4.34124">
        <ele>118.5</ele>
        <time>2022-06-10T17:30:56Z</time>
      </trkpt>
      <trkpt lat="44.43556" lon="4.34127">
        <ele>118.3</ele>
        <time>2022-06-10T17:30:57Z</time>
      </trkpt>
      <trkpt lat="44.4355" lon="4.34131">
        <ele>118.1</ele>
        <time>2022-06-10T17:30:58Z</time>
      </trkpt>
      <trkpt lat="44.43543" lon="4.34135">
        <ele>118</ele>
        <time>2022-06-10T17:30:59Z</time>
      </trkpt>
      <trkpt lat="44.43537" lon="4.3414">
        <ele>117.8</ele>
        <time>2022-06-10T17:31:00Z</time>
      </trkpt>
      <trkpt lat="44.4353" lon="4.34143">
        <ele>117.8</ele>
        <time>2022-06-10T17:31:01Z</time>
      </trkpt>
      <trkpt lat="44.43524" lon="4.34147">
        <ele>117.7</ele>
        <time>2022-06-10T17:31:02Z</time>
      </trkpt>
      <trkpt lat="44.43517" lon="4.3415">
        <ele>117.6</ele>
        <time>2022-06-10T17:31:03Z</time>
      </trkpt>
      <trkpt lat="44.43511" lon="4.34153">
        <ele>117.6</ele>
        <time>2022-06-10T17:31:04Z</time>
      </trkpt>
      <trkpt lat="44.43505" lon="4.34156">
        <ele>117.5</ele>
        <time>2022-06-10T17:31:05Z</time>
      </trkpt>
      <trkpt lat="44.43499" lon="4.34159">
        <ele>117.4</ele>
        <time>2022-06-10T17:31:06Z</time>
      </trkpt>
      <trkpt lat="44.43493" lon="4.34162">
        <ele>117.3</ele>
        <time>2022-06-10T17:31:07Z</time>
      </trkpt>
      <trkpt lat="44.43487" lon="4.34163">
        <ele>117.2</ele>
        <time>2022-06-10T17:31:08Z</time>
      </trkpt>
      <trkpt lat="44.43481" lon="4.34164">
        <ele>117.2</ele>
        <time>2022-06-10T17:31:09Z</time>
      </trkpt>
      <trkpt lat="44.43476" lon="4.34167">
        <ele>117</ele>
        <time>2022-06-10T17:31:10Z</time>
      </trkpt>
      <trkpt lat="44.43472" lon="4.34172">
        <ele>116.9</ele>
        <time>2022-06-10T17:31:11Z</time>
      </trkpt>
      <trkpt lat="44.43468" lon="4.34178">
        <ele>116.9</ele>
        <time>2022-06-10T17:31:12Z</time>
      </trkpt>
      <trkpt lat="44.43467" lon="4.34186">
        <ele>117</ele>
        <time>2022-06-10T17:31:13Z</time>
      </trkpt>
      <trkpt lat="44.43468" lon="4.34194">
        <ele>117.1</ele>
        <time>2022-06-10T17:31:14Z</time>
      </trkpt>
      <trkpt lat="44.43469" lon="4.34202">
        <ele>117.2</ele>
        <time>2022-06-10T17:31:15Z</time>
      </trkpt>
      <trkpt lat="44.4347" lon="4.3421">
        <ele>117.3</ele>
        <time>2022-06-10T17:31:16Z</time>
      </trkpt>
      <trkpt lat="44.4347" lon="4.34218">
        <ele>117.3</ele>
        <time>2022-06-10T17:31:17Z</time>
      </trkpt>
      <trkpt lat="44.43468" lon="4.34225">
        <ele>117.4</ele>
        <time>2022-06-10T17:31:18Z</time>
      </trkpt>
      <trkpt lat="44.43467" lon="4.34233">
        <ele>117.3</ele>
        <time>2022-06-10T17:31:19Z</time>
      </trkpt>
      <trkpt lat="44.43466" lon="4.34241">
        <ele>117.3</ele>
        <time>2022-06-10T17:31:20Z</time>
      </trkpt>
      <trkpt lat="44.43465" lon="4.34248">
        <ele>117.3</ele>
        <time>2022-06-10T17:31:21Z</time>
      </trkpt>
      <trkpt lat="44.43464" lon="4.34256">
        <ele>117.4</ele>
        <time>2022-06-10T17:31:22Z</time>
      </trkpt>
      <trkpt lat="44.43462" lon="4.34263">
        <ele>117.4</ele>
        <time>2022-06-10T17:31:23Z</time>
      </trkpt>
      <trkpt lat="44.43461" lon="4.34269">
        <ele>117.5</ele>
        <time>2022-06-10T17:31:24Z</time>
      </trkpt>
      <trkpt lat="44.4346" lon="4.34276">
        <ele>117.6</ele>
        <time>2022-06-10T17:31:25Z</time>
      </trkpt>
      <trkpt lat="44.43458" lon="4.34282">
        <ele>117.7</ele>
        <time>2022-06-10T17:31:26Z</time>
      </trkpt>
      <trkpt lat="44.43457" lon="4.34288">
        <ele>117.7</ele>
        <time>2022-06-10T17:31:27Z</time>
      </trkpt>
      <trkpt lat="44.43456" lon="4.34293">
        <ele>117.9</ele>
        <time>2022-06-10T17:31:28Z</time>
      </trkpt>
      <trkpt lat="44.43455" lon="4.34299">
        <ele>118</ele>
        <time>2022-06-10T17:31:29Z</time>
      </trkpt>
      <trkpt lat="44.43454" lon="4.34304">
        <ele>118.1</ele>
        <time>2022-06-10T17:31:30Z</time>
      </trkpt>
      <trkpt lat="44.43453" lon="4.34309">
        <ele>118.2</ele>
        <time>2022-06-10T17:31:31Z</time>
      </trkpt>
      <trkpt lat="44.43452" lon="4.34315">
        <ele>118.3</ele>
        <time>2022-06-10T17:31:32Z</time>
      </trkpt>
      <trkpt lat="44.43451" lon="4.3432">
        <ele>118.4</ele>
        <time>2022-06-10T17:31:33Z</time>
      </trkpt>
      <trkpt lat="44.4345" lon="4.34325">
        <ele>118.5</ele>
        <time>2022-06-10T17:31:34Z</time>
      </trkpt>
      <trkpt lat="44.43449" lon="4.3433">
        <ele>118.6</ele>
        <time>2022-06-10T17:31:35Z</time>
      </trkpt>
      <trkpt lat="44.43447" lon="4.3433">
        <ele>118.7</ele>
        <time>2022-06-10T17:31:36Z</time>
      </trkpt>
      <trkpt lat="44.43446" lon="4.3433">
        <ele>118.7</ele>
        <time>2022-06-10T17:31:37Z</time>
      </trkpt>
      <trkpt lat="44.43446" lon="4.34338">
        <ele>118.9</ele>
        <time>2022-06-10T17:31:38Z</time>
      </trkpt>
      <trkpt lat="44.43446" lon="4.34344">
        <ele>119</ele>
        <time>2022-06-10T17:31:39Z</time>
      </trkpt>
      <trkpt lat="44.43446" lon="4.34355">
        <ele>119.2</ele>
        <time>2022-06-10T17:31:40Z</time>
      </trkpt>
      <trkpt lat="44.43445" lon="4.34368">
        <ele>119.4</ele>
        <time>2022-06-10T17:31:42Z</time>
      </trkpt>
      <trkpt lat="44.43445" lon="4.34374">
        <ele>119.5</ele>
        <time>2022-06-10T17:31:44Z</time>
      </trkpt>
      <trkpt lat="44.43446" lon="4.34379">
        <ele>119.6</ele>
        <time>2022-06-10T17:31:45Z</time>
      </trkpt>
      <trkpt lat="44.43446" lon="4.34385">
        <ele>119.6</ele>
        <time>2022-06-10T17:31:46Z</time>
      </trkpt>
      <trkpt lat="44.43446" lon="4.3439">
        <ele>119.7</ele>
        <time>2022-06-10T17:31:47Z</time>
      </trkpt>
      <trkpt lat="44.43446" lon="4.34395">
        <ele>119.7</ele>
        <time>2022-06-10T17:31:48Z</time>
      </trkpt>
      <trkpt lat="44.43447" lon="4.344">
        <ele>119.7</ele>
        <time>2022-06-10T17:31:49Z</time>
      </trkpt>
      <trkpt lat="44.43448" lon="4.34406">
        <ele>119.8</ele>
        <time>2022-06-10T17:31:50Z</time>
      </trkpt>
      <trkpt lat="44.43449" lon="4.34411">
        <ele>119.8</ele>
        <time>2022-06-10T17:31:51Z</time>
      </trkpt>
      <trkpt lat="44.4345" lon="4.34417">
        <ele>119.8</ele>
        <time>2022-06-10T17:31:52Z</time>
      </trkpt>
      <trkpt lat="44.43452" lon="4.34423">
        <ele>119.8</ele>
        <time>2022-06-10T17:31:53Z</time>
      </trkpt>
      <trkpt lat="44.43454" lon="4.3443">
        <ele>119.8</ele>
        <time>2022-06-10T17:31:54Z</time>
      </trkpt>
      <trkpt lat="44.43454" lon="4.34436">
        <ele>119.7</ele>
        <time>2022-06-10T17:31:55Z</time>
      </trkpt>
      <trkpt lat="44.43456" lon="4.34443">
        <ele>119.7</ele>
        <time>2022-06-10T17:31:56Z</time>
      </trkpt>
      <trkpt lat="44.43457" lon="4.3445">
        <ele>119.7</ele>
        <time>2022-06-10T17:31:57Z</time>
      </trkpt>
      <trkpt lat="44.43458" lon="4.34457">
        <ele>119.6</ele>
        <time>2022-06-10T17:31:58Z</time>
      </trkpt>
      <trkpt lat="44.43459" lon="4.34464">
        <ele>119.6</ele>
        <time>2022-06-10T17:31:59Z</time>
      </trkpt>
      <trkpt lat="44.43461" lon="4.34471">
        <ele>119.5</ele>
        <time>2022-06-10T17:32:00Z</time>
      </trkpt>
      <trkpt lat="44.43462" lon="4.34478">
        <ele>119.4</ele>
        <time>2022-06-10T17:32:01Z</time>
      </trkpt>
      <trkpt lat="44.43464" lon="4.34486">
        <ele>119.3</ele>
        <time>2022-06-10T17:32:02Z</time>
      </trkpt>
      <trkpt lat="44.43465" lon="4.34493">
        <ele>119.2</ele>
        <time>2022-06-10T17:32:03Z</time>
      </trkpt>
      <trkpt lat="44.43466" lon="4.34501">
        <ele>119.1</ele>
        <time>2022-06-10T17:32:04Z</time>
      </trkpt>
      <trkpt lat="44.43467" lon="4.34508">
        <ele>119</ele>
        <time>2022-06-10T17:32:05Z</time>
      </trkpt>
      <trkpt lat="44.43468" lon="4.34516">
        <ele>118.9</ele>
        <time>2022-06-10T17:32:06Z</time>
      </trkpt>
      <trkpt lat="44.4347" lon="4.34524">
        <ele>118.8</ele>
        <time>2022-06-10T17:32:07Z</time>
      </trkpt>
      <trkpt lat="44.43472" lon="4.34532">
        <ele>118.7</ele>
        <time>2022-06-10T17:32:08Z</time>
      </trkpt>
      <trkpt lat="44.43473" lon="4.3454">
        <ele>118.6</ele>
        <time>2022-06-10T17:32:09Z</time>
      </trkpt>
      <trkpt lat="44.43474" lon="4.34548">
        <ele>118.5</ele>
        <time>2022-06-10T17:32:10Z</time>
      </trkpt>
      <trkpt lat="44.43476" lon="4.34556">
        <ele>118.3</ele>
        <time>2022-06-10T17:32:11Z</time>
      </trkpt>
      <trkpt lat="44.43477" lon="4.34565">
        <ele>118.2</ele>
        <time>2022-06-10T17:32:12Z</time>
      </trkpt>
      <trkpt lat="44.43479" lon="4.34573">
        <ele>118.1</ele>
        <time>2022-06-10T17:32:13Z</time>
      </trkpt>
      <trkpt lat="44.43481" lon="4.34581">
        <ele>117.9</ele>
        <time>2022-06-10T17:32:14Z</time>
      </trkpt>
      <trkpt lat="44.43482" lon="4.3459">
        <ele>117.8</ele>
        <time>2022-06-10T17:32:15Z</time>
      </trkpt>
      <trkpt lat="44.43483" lon="4.34598">
        <ele>117.7</ele>
        <time>2022-06-10T17:32:16Z</time>
      </trkpt>
      <trkpt lat="44.43484" lon="4.34607">
        <ele>117.5</ele>
        <time>2022-06-10T17:32:17Z</time>
      </trkpt>
      <trkpt lat="44.43485" lon="4.34616">
        <ele>117.4</ele>
        <time>2022-06-10T17:32:18Z</time>
      </trkpt>
      <trkpt lat="44.43487" lon="4.34624">
        <ele>117.3</ele>
        <time>2022-06-10T17:32:19Z</time>
      </trkpt>
      <trkpt lat="44.43488" lon="4.34633">
        <ele>117.2</ele>
        <time>2022-06-10T17:32:20Z</time>
      </trkpt>
      <trkpt lat="44.43488" lon="4.34642">
        <ele>117</ele>
        <time>2022-06-10T17:32:21Z</time>
      </trkpt>
      <trkpt lat="44.43489" lon="4.34651">
        <ele>116.9</ele>
        <time>2022-06-10T17:32:22Z</time>
      </trkpt>
      <trkpt lat="44.43489" lon="4.3466">
        <ele>116.8</ele>
        <time>2022-06-10T17:32:23Z</time>
      </trkpt>
      <trkpt lat="44.4349" lon="4.34669">
        <ele>116.6</ele>
        <time>2022-06-10T17:32:24Z</time>
      </trkpt>
      <trkpt lat="44.4349" lon="4.34678">
        <ele>116.5</ele>
        <time>2022-06-10T17:32:25Z</time>
      </trkpt>
      <trkpt lat="44.4349" lon="4.34688">
        <ele>116.4</ele>
        <time>2022-06-10T17:32:26Z</time>
      </trkpt>
      <trkpt lat="44.43491" lon="4.34698">
        <ele>116.2</ele>
        <time>2022-06-10T17:32:27Z</time>
      </trkpt>
      <trkpt lat="44.43491" lon="4.34707">
        <ele>116.1</ele>
        <time>2022-06-10T17:32:28Z</time>
      </trkpt>
      <trkpt lat="44.43492" lon="4.34717">
        <ele>116</ele>
        <time>2022-06-10T17:32:29Z</time>
      </trkpt>
      <trkpt lat="44.43492" lon="4.34726">
        <ele>115.9</ele>
        <time>2022-06-10T17:32:30Z</time>
      </trkpt>
      <trkpt lat="44.43492" lon="4.34736">
        <ele>115.7</ele>
        <time>2022-06-10T17:32:31Z</time>
      </trkpt>
      <trkpt lat="44.43493" lon="4.34746">
        <ele>115.6</ele>
        <time>2022-06-10T17:32:32Z</time>
      </trkpt>
      <trkpt lat="44.43493" lon="4.34756">
        <ele>115.5</ele>
        <time>2022-06-10T17:32:33Z</time>
      </trkpt>
      <trkpt lat="44.43493" lon="4.34766">
        <ele>115.4</ele>
        <time>2022-06-10T17:32:34Z</time>
      </trkpt>
      <trkpt lat="44.43493" lon="4.34775">
        <ele>115.2</ele>
        <time>2022-06-10T17:32:35Z</time>
      </trkpt>
      <trkpt lat="44.43493" lon="4.34784">
        <ele>115.1</ele>
        <time>2022-06-10T17:32:36Z</time>
      </trkpt>
      <trkpt lat="44.43493" lon="4.34794">
        <ele>115</ele>
        <time>2022-06-10T17:32:37Z</time>
      </trkpt>
      <trkpt lat="44.43493" lon="4.34802">
        <ele>114.9</ele>
        <time>2022-06-10T17:32:38Z</time>
      </trkpt>
      <trkpt lat="44.43493" lon="4.34811">
        <ele>114.7</ele>
        <time>2022-06-10T17:32:39Z</time>
      </trkpt>
      <trkpt lat="44.43492" lon="4.34822">
        <ele>114.6</ele>
        <time>2022-06-10T17:32:40Z</time>
      </trkpt>
      <trkpt lat="44.43491" lon="4.34832">
        <ele>114.5</ele>
        <time>2022-06-10T17:32:41Z</time>
      </trkpt>
      <trkpt lat="44.4349" lon="4.34842">
        <ele>114.3</ele>
        <time>2022-06-10T17:32:42Z</time>
      </trkpt>
      <trkpt lat="44.43488" lon="4.34852">
        <ele>114.2</ele>
        <time>2022-06-10T17:32:43Z</time>
      </trkpt>
      <trkpt lat="44.43486" lon="4.34862">
        <ele>114.1</ele>
        <time>2022-06-10T17:32:44Z</time>
      </trkpt>
      <trkpt lat="44.43484" lon="4.34872">
        <ele>113.9</ele>
        <time>2022-06-10T17:32:45Z</time>
      </trkpt>
      <trkpt lat="44.43482" lon="4.34882">
        <ele>113.8</ele>
        <time>2022-06-10T17:32:46Z</time>
      </trkpt>
      <trkpt lat="44.43479" lon="4.3489">
        <ele>113.6</ele>
        <time>2022-06-10T17:32:47Z</time>
      </trkpt>
      <trkpt lat="44.43476" lon="4.34899">
        <ele>113.5</ele>
        <time>2022-06-10T17:32:48Z</time>
      </trkpt>
      <trkpt lat="44.43473" lon="4.34907">
        <ele>113.4</ele>
        <time>2022-06-10T17:32:49Z</time>
      </trkpt>
      <trkpt lat="44.43469" lon="4.34915">
        <ele>113.4</ele>
        <time>2022-06-10T17:32:50Z</time>
      </trkpt>
      <trkpt lat="44.43466" lon="4.34923">
        <ele>113.3</ele>
        <time>2022-06-10T17:32:51Z</time>
      </trkpt>
      <trkpt lat="44.43464" lon="4.3493">
        <ele>113.2</ele>
        <time>2022-06-10T17:32:52Z</time>
      </trkpt>
      <trkpt lat="44.43461" lon="4.34938">
        <ele>113.1</ele>
        <time>2022-06-10T17:32:53Z</time>
      </trkpt>
      <trkpt lat="44.43458" lon="4.34945">
        <ele>113.1</ele>
        <time>2022-06-10T17:32:54Z</time>
      </trkpt>
      <trkpt lat="44.43455" lon="4.34953">
        <ele>113</ele>
        <time>2022-06-10T17:32:55Z</time>
      </trkpt>
      <trkpt lat="44.43452" lon="4.3496">
        <ele>112.8</ele>
        <time>2022-06-10T17:32:56Z</time>
      </trkpt>
      <trkpt lat="44.43448" lon="4.34968">
        <ele>112.6</ele>
        <time>2022-06-10T17:32:57Z</time>
      </trkpt>
      <trkpt lat="44.43445" lon="4.34976">
        <ele>112.4</ele>
        <time>2022-06-10T17:32:58Z</time>
      </trkpt>
      <trkpt lat="44.43443" lon="4.34984">
        <ele>112.2</ele>
        <time>2022-06-10T17:32:59Z</time>
      </trkpt>
      <trkpt lat="44.4344" lon="4.34991">
        <ele>112</ele>
        <time>2022-06-10T17:33:00Z</time>
      </trkpt>
      <trkpt lat="44.43437" lon="4.34999">
        <ele>111.8</ele>
        <time>2022-06-10T17:33:01Z</time>
      </trkpt>
      <trkpt lat="44.43433" lon="4.35007">
        <ele>111.6</ele>
        <time>2022-06-10T17:33:02Z</time>
      </trkpt>
      <trkpt lat="44.4343" lon="4.35016">
        <ele>111.4</ele>
        <time>2022-06-10T17:33:03Z</time>
      </trkpt>
      <trkpt lat="44.43426" lon="4.35026">
        <ele>111.2</ele>
        <time>2022-06-10T17:33:04Z</time>
      </trkpt>
      <trkpt lat="44.43422" lon="4.35035">
        <ele>111</ele>
        <time>2022-06-10T17:33:05Z</time>
      </trkpt>
      <trkpt lat="44.43418" lon="4.35045">
        <ele>110.8</ele>
        <time>2022-06-10T17:33:06Z</time>
      </trkpt>
      <trkpt lat="44.43414" lon="4.35054">
        <ele>110.6</ele>
        <time>2022-06-10T17:33:07Z</time>
      </trkpt>
      <trkpt lat="44.4341" lon="4.35064">
        <ele>110.5</ele>
        <time>2022-06-10T17:33:08Z</time>
      </trkpt>
      <trkpt lat="44.43407" lon="4.35073">
        <ele>110.3</ele>
        <time>2022-06-10T17:33:09Z</time>
      </trkpt>
      <trkpt lat="44.43403" lon="4.35082">
        <ele>110.2</ele>
        <time>2022-06-10T17:33:10Z</time>
      </trkpt>
      <trkpt lat="44.43399" lon="4.35092">
        <ele>110.1</ele>
        <time>2022-06-10T17:33:11Z</time>
      </trkpt>
      <trkpt lat="44.43395" lon="4.35101">
        <ele>109.9</ele>
        <time>2022-06-10T17:33:12Z</time>
      </trkpt>
      <trkpt lat="44.43392" lon="4.35111">
        <ele>109.8</ele>
        <time>2022-06-10T17:33:13Z</time>
      </trkpt>
      <trkpt lat="44.43388" lon="4.3512">
        <ele>109.6</ele>
        <time>2022-06-10T17:33:14Z</time>
      </trkpt>
      <trkpt lat="44.43385" lon="4.35129">
        <ele>109.4</ele>
        <time>2022-06-10T17:33:15Z</time>
      </trkpt>
      <trkpt lat="44.43381" lon="4.35139">
        <ele>109.2</ele>
        <time>2022-06-10T17:33:16Z</time>
      </trkpt>
      <trkpt lat="44.43378" lon="4.35148">
        <ele>109</ele>
        <time>2022-06-10T17:33:17Z</time>
      </trkpt>
      <trkpt lat="44.43374" lon="4.35158">
        <ele>108.8</ele>
        <time>2022-06-10T17:33:18Z</time>
      </trkpt>
      <trkpt lat="44.4337" lon="4.35167">
        <ele>108.6</ele>
        <time>2022-06-10T17:33:19Z</time>
      </trkpt>
      <trkpt lat="44.43367" lon="4.35176">
        <ele>108.4</ele>
        <time>2022-06-10T17:33:20Z</time>
      </trkpt>
      <trkpt lat="44.43363" lon="4.35186">
        <ele>108.2</ele>
        <time>2022-06-10T17:33:21Z</time>
      </trkpt>
      <trkpt lat="44.43359" lon="4.35195">
        <ele>108</ele>
        <time>2022-06-10T17:33:22Z</time>
      </trkpt>
      <trkpt lat="44.43356" lon="4.35205">
        <ele>107.8</ele>
        <time>2022-06-10T17:33:23Z</time>
      </trkpt>
      <trkpt lat="44.43352" lon="4.35214">
        <ele>107.6</ele>
        <time>2022-06-10T17:33:24Z</time>
      </trkpt>
      <trkpt lat="44.43349" lon="4.35223">
        <ele>107.5</ele>
        <time>2022-06-10T17:33:25Z</time>
      </trkpt>
      <trkpt lat="44.43345" lon="4.35233">
        <ele>107.3</ele>
        <time>2022-06-10T17:33:26Z</time>
      </trkpt>
      <trkpt lat="44.43342" lon="4.35243">
        <ele>107.1</ele>
        <time>2022-06-10T17:33:27Z</time>
      </trkpt>
      <trkpt lat="44.43338" lon="4.35252">
        <ele>107</ele>
        <time>2022-06-10T17:33:28Z</time>
      </trkpt>
      <trkpt lat="44.43335" lon="4.35262">
        <ele>106.8</ele>
        <time>2022-06-10T17:33:29Z</time>
      </trkpt>
      <trkpt lat="44.43332" lon="4.35271">
        <ele>106.6</ele>
        <time>2022-06-10T17:33:30Z</time>
      </trkpt>
      <trkpt lat="44.43328" lon="4.35281">
        <ele>106.4</ele>
        <time>2022-06-10T17:33:31Z</time>
      </trkpt>
      <trkpt lat="44.43325" lon="4.3529">
        <ele>106.3</ele>
        <time>2022-06-10T17:33:32Z</time>
      </trkpt>
      <trkpt lat="44.43321" lon="4.35299">
        <ele>106.1</ele>
        <time>2022-06-10T17:33:33Z</time>
      </trkpt>
      <trkpt lat="44.43317" lon="4.35308">
        <ele>105.9</ele>
        <time>2022-06-10T17:33:34Z</time>
      </trkpt>
      <trkpt lat="44.43314" lon="4.35318">
        <ele>105.7</ele>
        <time>2022-06-10T17:33:35Z</time>
      </trkpt>
      <trkpt lat="44.4331" lon="4.35328">
        <ele>105.4</ele>
        <time>2022-06-10T17:33:36Z</time>
      </trkpt>
      <trkpt lat="44.43307" lon="4.35338">
        <ele>105.2</ele>
        <time>2022-06-10T17:33:37Z</time>
      </trkpt>
      <trkpt lat="44.43303" lon="4.35348">
        <ele>105</ele>
        <time>2022-06-10T17:33:38Z</time>
      </trkpt>
      <trkpt lat="44.43299" lon="4.35358">
        <ele>104.8</ele>
        <time>2022-06-10T17:33:39Z</time>
      </trkpt>
      <trkpt lat="44.43295" lon="4.35367">
        <ele>104.6</ele>
        <time>2022-06-10T17:33:40Z</time>
      </trkpt>
      <trkpt lat="44.43292" lon="4.35377">
        <ele>104.4</ele>
        <time>2022-06-10T17:33:41Z</time>
      </trkpt>
      <trkpt lat="44.43289" lon="4.35388">
        <ele>104.2</ele>
        <time>2022-06-10T17:33:42Z</time>
      </trkpt>
      <trkpt lat="44.43286" lon="4.35398">
        <ele>104</ele>
        <time>2022-06-10T17:33:43Z</time>
      </trkpt>
      <trkpt lat="44.43282" lon="4.35408">
        <ele>103.8</ele>
        <time>2022-06-10T17:33:44Z</time>
      </trkpt>
      <trkpt lat="44.43277" lon="4.35418">
        <ele>103.6</ele>
        <time>2022-06-10T17:33:45Z</time>
      </trkpt>
      <trkpt lat="44.43273" lon="4.35429">
        <ele>103.4</ele>
        <time>2022-06-10T17:33:46Z</time>
      </trkpt>
      <trkpt lat="44.43269" lon="4.35439">
        <ele>103.2</ele>
        <time>2022-06-10T17:33:47Z</time>
      </trkpt>
      <trkpt lat="44.43265" lon="4.35448">
        <ele>103.1</ele>
        <time>2022-06-10T17:33:48Z</time>
      </trkpt>
      <trkpt lat="44.4326" lon="4.35457">
        <ele>103</ele>
        <time>2022-06-10T17:33:49Z</time>
      </trkpt>
      <trkpt lat="44.43255" lon="4.35467">
        <ele>102.8</ele>
        <time>2022-06-10T17:33:50Z</time>
      </trkpt>
      <trkpt lat="44.43251" lon="4.35476">
        <ele>102.7</ele>
        <time>2022-06-10T17:33:51Z</time>
      </trkpt>
      <trkpt lat="44.43246" lon="4.35485">
        <ele>102.6</ele>
        <time>2022-06-10T17:33:52Z</time>
      </trkpt>
      <trkpt lat="44.43242" lon="4.35494">
        <ele>102.5</ele>
        <time>2022-06-10T17:33:53Z</time>
      </trkpt>
      <trkpt lat="44.43237" lon="4.35503">
        <ele>102.4</ele>
        <time>2022-06-10T17:33:54Z</time>
      </trkpt>
      <trkpt lat="44.43233" lon="4.35511">
        <ele>102.4</ele>
        <time>2022-06-10T17:33:55Z</time>
      </trkpt>
      <trkpt lat="44.43228" lon="4.35518">
        <ele>102.3</ele>
        <time>2022-06-10T17:33:56Z</time>
      </trkpt>
      <trkpt lat="44.43224" lon="4.35526">
        <ele>102.2</ele>
        <time>2022-06-10T17:33:57Z</time>
      </trkpt>
      <trkpt lat="44.4322" lon="4.35533">
        <ele>102.2</ele>
        <time>2022-06-10T17:33:58Z</time>
      </trkpt>
      <trkpt lat="44.43216" lon="4.35541">
        <ele>102.1</ele>
        <time>2022-06-10T17:33:59Z</time>
      </trkpt>
      <trkpt lat="44.43211" lon="4.35548">
        <ele>102</ele>
        <time>2022-06-10T17:34:00Z</time>
      </trkpt>
      <trkpt lat="44.43207" lon="4.35555">
        <ele>102</ele>
        <time>2022-06-10T17:34:01Z</time>
      </trkpt>
      <trkpt lat="44.43203" lon="4.35562">
        <ele>101.9</ele>
        <time>2022-06-10T17:34:02Z</time>
      </trkpt>
      <trkpt lat="44.43199" lon="4.35569">
        <ele>101.8</ele>
        <time>2022-06-10T17:34:03Z</time>
      </trkpt>
      <trkpt lat="44.43194" lon="4.35575">
        <ele>101.8</ele>
        <time>2022-06-10T17:34:04Z</time>
      </trkpt>
      <trkpt lat="44.4319" lon="4.35582">
        <ele>101.7</ele>
        <time>2022-06-10T17:34:05Z</time>
      </trkpt>
      <trkpt lat="44.43186" lon="4.35589">
        <ele>101.6</ele>
        <time>2022-06-10T17:34:06Z</time>
      </trkpt>
      <trkpt lat="44.43181" lon="4.35595">
        <ele>101.5</ele>
        <time>2022-06-10T17:34:07Z</time>
      </trkpt>
      <trkpt lat="44.43177" lon="4.35601">
        <ele>101.5</ele>
        <time>2022-06-10T17:34:08Z</time>
      </trkpt>
      <trkpt lat="44.43172" lon="4.35608">
        <ele>101.4</ele>
        <time>2022-06-10T17:34:09Z</time>
      </trkpt>
      <trkpt lat="44.43168" lon="4.35614">
        <ele>101.4</ele>
        <time>2022-06-10T17:34:10Z</time>
      </trkpt>
      <trkpt lat="44.43163" lon="4.35621">
        <ele>101.3</ele>
        <time>2022-06-10T17:34:11Z</time>
      </trkpt>
      <trkpt lat="44.43159" lon="4.35627">
        <ele>101.3</ele>
        <time>2022-06-10T17:34:12Z</time>
      </trkpt>
      <trkpt lat="44.43155" lon="4.35633">
        <ele>101.3</ele>
        <time>2022-06-10T17:34:13Z</time>
      </trkpt>
      <trkpt lat="44.43151" lon="4.3564">
        <ele>101.2</ele>
        <time>2022-06-10T17:34:14Z</time>
      </trkpt>
      <trkpt lat="44.43147" lon="4.35646">
        <ele>101.2</ele>
        <time>2022-06-10T17:34:15Z</time>
      </trkpt>
      <trkpt lat="44.43143" lon="4.35651">
        <ele>101.1</ele>
        <time>2022-06-10T17:34:16Z</time>
      </trkpt>
      <trkpt lat="44.43139" lon="4.35657">
        <ele>101.1</ele>
        <time>2022-06-10T17:34:17Z</time>
      </trkpt>
      <trkpt lat="44.43134" lon="4.35662">
        <ele>101</ele>
        <time>2022-06-10T17:34:18Z</time>
      </trkpt>
      <trkpt lat="44.4313" lon="4.35667">
        <ele>101</ele>
        <time>2022-06-10T17:34:19Z</time>
      </trkpt>
      <trkpt lat="44.43125" lon="4.35672">
        <ele>101</ele>
        <time>2022-06-10T17:34:20Z</time>
      </trkpt>
      <trkpt lat="44.4312" lon="4.35677">
        <ele>101</ele>
        <time>2022-06-10T17:34:21Z</time>
      </trkpt>
      <trkpt lat="44.43115" lon="4.35682">
        <ele>101</ele>
        <time>2022-06-10T17:34:22Z</time>
      </trkpt>
      <trkpt lat="44.4311" lon="4.35687">
        <ele>101</ele>
        <time>2022-06-10T17:34:23Z</time>
      </trkpt>
      <trkpt lat="44.43105" lon="4.35692">
        <ele>101</ele>
        <time>2022-06-10T17:34:24Z</time>
      </trkpt>
      <trkpt lat="44.431" lon="4.35696">
        <ele>101</ele>
        <time>2022-06-10T17:34:25Z</time>
      </trkpt>
      <trkpt lat="44.43095" lon="4.35701">
        <ele>100.9</ele>
        <time>2022-06-10T17:34:26Z</time>
      </trkpt>
      <trkpt lat="44.4309" lon="4.35705">
        <ele>100.9</ele>
        <time>2022-06-10T17:34:27Z</time>
      </trkpt>
      <trkpt lat="44.43085" lon="4.3571">
        <ele>101</ele>
        <time>2022-06-10T17:34:28Z</time>
      </trkpt>
      <trkpt lat="44.4308" lon="4.35714">
        <ele>101</ele>
        <time>2022-06-10T17:34:29Z</time>
      </trkpt>
      <trkpt lat="44.43074" lon="4.35718">
        <ele>101</ele>
        <time>2022-06-10T17:34:30Z</time>
      </trkpt>
      <trkpt lat="44.43069" lon="4.35722">
        <ele>101</ele>
        <time>2022-06-10T17:34:31Z</time>
      </trkpt>
      <trkpt lat="44.43064" lon="4.35726">
        <ele>101</ele>
        <time>2022-06-10T17:34:32Z</time>
      </trkpt>
      <trkpt lat="44.43059" lon="4.3573">
        <ele>101.1</ele>
        <time>2022-06-10T17:34:33Z</time>
      </trkpt>
      <trkpt lat="44.43054" lon="4.35733">
        <ele>101.1</ele>
        <time>2022-06-10T17:34:34Z</time>
      </trkpt>
      <trkpt lat="44.43048" lon="4.35736">
        <ele>101.1</ele>
        <time>2022-06-10T17:34:35Z</time>
      </trkpt>
      <trkpt lat="44.43043" lon="4.3574">
        <ele>101.2</ele>
        <time>2022-06-10T17:34:36Z</time>
      </trkpt>
      <trkpt lat="44.43038" lon="4.35742">
        <ele>101.2</ele>
        <time>2022-06-10T17:34:37Z</time>
      </trkpt>
      <trkpt lat="44.43032" lon="4.35745">
        <ele>101.2</ele>
        <time>2022-06-10T17:34:38Z</time>
      </trkpt>
      <trkpt lat="44.43027" lon="4.35749">
        <ele>101.3</ele>
        <time>2022-06-10T17:34:39Z</time>
      </trkpt>
      <trkpt lat="44.43022" lon="4.35752">
        <ele>101.4</ele>
        <time>2022-06-10T17:34:40Z</time>
      </trkpt>
      <trkpt lat="44.43017" lon="4.35754">
        <ele>101.5</ele>
        <time>2022-06-10T17:34:41Z</time>
      </trkpt>
      <trkpt lat="44.43012" lon="4.35757">
        <ele>101.5</ele>
        <time>2022-06-10T17:34:42Z</time>
      </trkpt>
      <trkpt lat="44.43007" lon="4.35759">
        <ele>101.6</ele>
        <time>2022-06-10T17:34:43Z</time>
      </trkpt>
      <trkpt lat="44.43002" lon="4.35761">
        <ele>101.6</ele>
        <time>2022-06-10T17:34:44Z</time>
      </trkpt>
      <trkpt lat="44.42997" lon="4.35764">
        <ele>101.6</ele>
        <time>2022-06-10T17:34:45Z</time>
      </trkpt>
      <trkpt lat="44.42993" lon="4.35766">
        <ele>101.6</ele>
        <time>2022-06-10T17:34:46Z</time>
      </trkpt>
      <trkpt lat="44.42988" lon="4.35768">
        <ele>101.7</ele>
        <time>2022-06-10T17:34:47Z</time>
      </trkpt>
      <trkpt lat="44.42984" lon="4.3577">
        <ele>101.7</ele>
        <time>2022-06-10T17:34:48Z</time>
      </trkpt>
      <trkpt lat="44.42981" lon="4.35772">
        <ele>101.7</ele>
        <time>2022-06-10T17:34:49Z</time>
      </trkpt>
      <trkpt lat="44.42978" lon="4.35773">
        <ele>101.7</ele>
        <time>2022-06-10T17:34:50Z</time>
      </trkpt>
      <trkpt lat="44.42974" lon="4.35773">
        <ele>101.7</ele>
        <time>2022-06-10T17:34:51Z</time>
      </trkpt>
      <trkpt lat="44.42971" lon="4.35771">
        <ele>101.7</ele>
        <time>2022-06-10T17:34:52Z</time>
      </trkpt>
      <trkpt lat="44.42969" lon="4.35765">
        <ele>101.5</ele>
        <time>2022-06-10T17:34:53Z</time>
      </trkpt>
      <trkpt lat="44.42967" lon="4.35759">
        <ele>101.4</ele>
        <time>2022-06-10T17:34:54Z</time>
      </trkpt>
      <trkpt lat="44.42965" lon="4.35749">
        <ele>101.3</ele>
        <time>2022-06-10T17:34:55Z</time>
      </trkpt>
      <trkpt lat="44.42963" lon="4.3574">
        <ele>101.2</ele>
        <time>2022-06-10T17:34:57Z</time>
      </trkpt>
      <trkpt lat="44.42962" lon="4.35733">
        <ele>101.1</ele>
        <time>2022-06-10T17:34:58Z</time>
      </trkpt>
      <trkpt lat="44.4296" lon="4.35726">
        <ele>101</ele>
        <time>2022-06-10T17:34:59Z</time>
      </trkpt>
      <trkpt lat="44.42959" lon="4.35719">
        <ele>101</ele>
        <time>2022-06-10T17:35:00Z</time>
      </trkpt>
      <trkpt lat="44.42957" lon="4.35713">
        <ele>101</ele>
        <time>2022-06-10T17:35:01Z</time>
      </trkpt>
      <trkpt lat="44.42955" lon="4.35706">
        <ele>100.9</ele>
        <time>2022-06-10T17:35:02Z</time>
      </trkpt>
      <trkpt lat="44.42954" lon="4.35699">
        <ele>100.9</ele>
        <time>2022-06-10T17:35:03Z</time>
      </trkpt>
      <trkpt lat="44.42952" lon="4.35693">
        <ele>100.9</ele>
        <time>2022-06-10T17:35:04Z</time>
      </trkpt>
      <trkpt lat="44.4295" lon="4.35686">
        <ele>100.9</ele>
        <time>2022-06-10T17:35:05Z</time>
      </trkpt>
      <trkpt lat="44.42949" lon="4.35679">
        <ele>100.9</ele>
        <time>2022-06-10T17:35:06Z</time>
      </trkpt>
      <trkpt lat="44.42947" lon="4.35673">
        <ele>100.9</ele>
        <time>2022-06-10T17:35:07Z</time>
      </trkpt>
      <trkpt lat="44.42945" lon="4.35667">
        <ele>100.9</ele>
        <time>2022-06-10T17:35:08Z</time>
      </trkpt>
      <trkpt lat="44.42943" lon="4.3566">
        <ele>100.9</ele>
        <time>2022-06-10T17:35:09Z</time>
      </trkpt>
      <trkpt lat="44.42942" lon="4.35654">
        <ele>101</ele>
        <time>2022-06-10T17:35:10Z</time>
      </trkpt>
      <trkpt lat="44.4294" lon="4.35648">
        <ele>101</ele>
        <time>2022-06-10T17:35:11Z</time>
      </trkpt>
      <trkpt lat="44.42938" lon="4.35642">
        <ele>101</ele>
        <time>2022-06-10T17:35:12Z</time>
      </trkpt>
      <trkpt lat="44.42937" lon="4.35636">
        <ele>101.1</ele>
        <time>2022-06-10T17:35:13Z</time>
      </trkpt>
      <trkpt lat="44.42935" lon="4.3563">
        <ele>101.2</ele>
        <time>2022-06-10T17:35:14Z</time>
      </trkpt>
      <trkpt lat="44.42934" lon="4.35624">
        <ele>101.2</ele>
        <time>2022-06-10T17:35:15Z</time>
      </trkpt>
      <trkpt lat="44.42932" lon="4.35618">
        <ele>101.3</ele>
        <time>2022-06-10T17:35:16Z</time>
      </trkpt>
      <trkpt lat="44.42931" lon="4.35612">
        <ele>101.4</ele>
        <time>2022-06-10T17:35:17Z</time>
      </trkpt>
      <trkpt lat="44.4293" lon="4.35606">
        <ele>101.4</ele>
        <time>2022-06-10T17:35:18Z</time>
      </trkpt>
      <trkpt lat="44.42928" lon="4.356">
        <ele>101.5</ele>
        <time>2022-06-10T17:35:19Z</time>
      </trkpt>
      <trkpt lat="44.42927" lon="4.35597">
        <ele>101.5</ele>
        <time>2022-06-10T17:35:20Z</time>
      </trkpt>
      <trkpt lat="44.42925" lon="4.35591">
        <ele>101.5</ele>
        <time>2022-06-10T17:35:21Z</time>
      </trkpt>
      <trkpt lat="44.42924" lon="4.35587">
        <ele>101.6</ele>
        <time>2022-06-10T17:35:22Z</time>
      </trkpt>
      <trkpt lat="44.42922" lon="4.3558">
        <ele>101.6</ele>
        <time>2022-06-10T17:35:23Z</time>
      </trkpt>
      <trkpt lat="44.42921" lon="4.35575">
        <ele>101.6</ele>
        <time>2022-06-10T17:35:24Z</time>
      </trkpt>
      <trkpt lat="44.4292" lon="4.35569">
        <ele>101.6</ele>
        <time>2022-06-10T17:35:25Z</time>
      </trkpt>
      <trkpt lat="44.42919" lon="4.35565">
        <ele>101.6</ele>
        <time>2022-06-10T17:35:26Z</time>
      </trkpt>
      <trkpt lat="44.42919" lon="4.35558">
        <ele>101.6</ele>
        <time>2022-06-10T17:35:28Z</time>
      </trkpt>
      <trkpt lat="44.42917" lon="4.35549">
        <ele>101.6</ele>
        <time>2022-06-10T17:35:30Z</time>
      </trkpt>
      <trkpt lat="44.42914" lon="4.35541">
        <ele>101.6</ele>
        <time>2022-06-10T17:35:31Z</time>
      </trkpt>
      <trkpt lat="44.42913" lon="4.35534">
        <ele>101.6</ele>
        <time>2022-06-10T17:35:33Z</time>
      </trkpt>
      <trkpt lat="44.42912" lon="4.35527">
        <ele>101.7</ele>
        <time>2022-06-10T17:35:34Z</time>
      </trkpt>
      <trkpt lat="44.42912" lon="4.3552">
        <ele>101.7</ele>
        <time>2022-06-10T17:35:36Z</time>
      </trkpt>
      <trkpt lat="44.42912" lon="4.35512">
        <ele>101.8</ele>
        <time>2022-06-10T17:35:37Z</time>
      </trkpt>
      <trkpt lat="44.42913" lon="4.35505">
        <ele>101.8</ele>
        <time>2022-06-10T17:35:38Z</time>
      </trkpt>
      <trkpt lat="44.42913" lon="4.35498">
        <ele>101.9</ele>
        <time>2022-06-10T17:35:40Z</time>
      </trkpt>
      <trkpt lat="44.42914" lon="4.35487">
        <ele>101.9</ele>
        <time>2022-06-10T17:35:41Z</time>
      </trkpt>
      <trkpt lat="44.42915" lon="4.35482">
        <ele>102</ele>
        <time>2022-06-10T17:35:43Z</time>
      </trkpt>
      <trkpt lat="44.42915" lon="4.35477">
        <ele>102</ele>
        <time>2022-06-10T17:35:44Z</time>
      </trkpt>
      <trkpt lat="44.42916" lon="4.35468">
        <ele>102.1</ele>
        <time>2022-06-10T17:35:45Z</time>
      </trkpt>
      <trkpt lat="44.42916" lon="4.35462">
        <ele>102.1</ele>
        <time>2022-06-10T17:35:47Z</time>
      </trkpt>
      <trkpt lat="44.42917" lon="4.35453">
        <ele>102.1</ele>
        <time>2022-06-10T17:35:48Z</time>
      </trkpt>
      <trkpt lat="44.42917" lon="4.35447">
        <ele>102.2</ele>
        <time>2022-06-10T17:35:50Z</time>
      </trkpt>
      <trkpt lat="44.42918" lon="4.35437">
        <ele>102.3</ele>
        <time>2022-06-10T17:35:51Z</time>
      </trkpt>
      <trkpt lat="44.42918" lon="4.35431">
        <ele>102.3</ele>
        <time>2022-06-10T17:35:53Z</time>
      </trkpt>
      <trkpt lat="44.42919" lon="4.35426">
        <ele>102.4</ele>
        <time>2022-06-10T17:35:54Z</time>
      </trkpt>
      <trkpt lat="44.42919" lon="4.35421">
        <ele>102.4</ele>
        <time>2022-06-10T17:35:55Z</time>
      </trkpt>
      <trkpt lat="44.4292" lon="4.35415">
        <ele>102.5</ele>
        <time>2022-06-10T17:35:56Z</time>
      </trkpt>
      <trkpt lat="44.4292" lon="4.35409">
        <ele>102.5</ele>
        <time>2022-06-10T17:35:57Z</time>
      </trkpt>
      <trkpt lat="44.4292" lon="4.35404">
        <ele>102.6</ele>
        <time>2022-06-10T17:35:58Z</time>
      </trkpt>
      <trkpt lat="44.42921" lon="4.35398">
        <ele>102.6</ele>
        <time>2022-06-10T17:35:59Z</time>
      </trkpt>
      <trkpt lat="44.42921" lon="4.35393">
        <ele>102.7</ele>
        <time>2022-06-10T17:36:00Z</time>
      </trkpt>
      <trkpt lat="44.42921" lon="4.35387">
        <ele>102.8</ele>
        <time>2022-06-10T17:36:01Z</time>
      </trkpt>
      <trkpt lat="44.42922" lon="4.35382">
        <ele>102.8</ele>
        <time>2022-06-10T17:36:02Z</time>
      </trkpt>
      <trkpt lat="44.42922" lon="4.35377">
        <ele>102.9</ele>
        <time>2022-06-10T17:36:03Z</time>
      </trkpt>
      <trkpt lat="44.42922" lon="4.35371">
        <ele>103</ele>
        <time>2022-06-10T17:36:04Z</time>
      </trkpt>
      <trkpt lat="44.42923" lon="4.35366">
        <ele>103.1</ele>
        <time>2022-06-10T17:36:05Z</time>
      </trkpt>
      <trkpt lat="44.42923" lon="4.3536">
        <ele>103.2</ele>
        <time>2022-06-10T17:36:06Z</time>
      </trkpt>
      <trkpt lat="44.42923" lon="4.35355">
        <ele>103.3</ele>
        <time>2022-06-10T17:36:07Z</time>
      </trkpt>
      <trkpt lat="44.42923" lon="4.3535">
        <ele>103.4</ele>
        <time>2022-06-10T17:36:08Z</time>
      </trkpt>
      <trkpt lat="44.42923" lon="4.35346">
        <ele>103.4</ele>
        <time>2022-06-10T17:36:09Z</time>
      </trkpt>
      <trkpt lat="44.42922" lon="4.35342">
        <ele>103.5</ele>
        <time>2022-06-10T17:36:10Z</time>
      </trkpt>
      <trkpt lat="44.4292" lon="4.35337">
        <ele>103.6</ele>
        <time>2022-06-10T17:36:11Z</time>
      </trkpt>
      <trkpt lat="44.42918" lon="4.35329">
        <ele>103.7</ele>
        <time>2022-06-10T17:36:12Z</time>
      </trkpt>
      <trkpt lat="44.42916" lon="4.35324">
        <ele>103.8</ele>
        <time>2022-06-10T17:36:14Z</time>
      </trkpt>
      <trkpt lat="44.42914" lon="4.35318">
        <ele>104</ele>
        <time>2022-06-10T17:36:15Z</time>
      </trkpt>
      <trkpt lat="44.42913" lon="4.35314">
        <ele>104.1</ele>
        <time>2022-06-10T17:36:17Z</time>
      </trkpt>
      <trkpt lat="44.42911" lon="4.3531">
        <ele>104.2</ele>
        <time>2022-06-10T17:36:18Z</time>
      </trkpt>
      <trkpt lat="44.42908" lon="4.35302">
        <ele>104.4</ele>
        <time>2022-06-10T17:36:20Z</time>
      </trkpt>
      <trkpt lat="44.42906" lon="4.35298">
        <ele>104.5</ele>
        <time>2022-06-10T17:36:21Z</time>
      </trkpt>
      <trkpt lat="44.42904" lon="4.35294">
        <ele>104.7</ele>
        <time>2022-06-10T17:36:22Z</time>
      </trkpt>
      <trkpt lat="44.42902" lon="4.35291">
        <ele>104.8</ele>
        <time>2022-06-10T17:36:23Z</time>
      </trkpt>
      <trkpt lat="44.429" lon="4.35288">
        <ele>105</ele>
        <time>2022-06-10T17:36:24Z</time>
      </trkpt>
      <trkpt lat="44.42899" lon="4.35284">
        <ele>105.1</ele>
        <time>2022-06-10T17:36:25Z</time>
      </trkpt>
      <trkpt lat="44.42898" lon="4.35283">
        <ele>105.2</ele>
        <time>2022-06-10T17:36:26Z</time>
      </trkpt>
      <trkpt lat="44.42895" lon="4.35279">
        <ele>105.4</ele>
        <time>2022-06-10T17:36:28Z</time>
      </trkpt>
      <trkpt lat="44.42894" lon="4.35278">
        <ele>105.5</ele>
        <time>2022-06-10T17:36:29Z</time>
      </trkpt>
      <trkpt lat="44.42893" lon="4.35277">
        <ele>105.5</ele>
        <time>2022-06-10T17:36:30Z</time>
      </trkpt>
      <trkpt lat="44.42891" lon="4.35275">
        <ele>105.6</ele>
        <time>2022-06-10T17:36:31Z</time>
      </trkpt>
      <trkpt lat="44.4289" lon="4.35275">
        <ele>105.7</ele>
        <time>2022-06-10T17:36:32Z</time>
      </trkpt>
      <trkpt lat="44.42887" lon="4.35274">
        <ele>105.9</ele>
        <time>2022-06-10T17:36:33Z</time>
      </trkpt>
      <trkpt lat="44.42886" lon="4.35274">
        <ele>105.9</ele>
        <time>2022-06-10T17:36:34Z</time>
      </trkpt>
      <trkpt lat="44.42882" lon="4.35273">
        <ele>106.1</ele>
        <time>2022-06-10T17:36:35Z</time>
      </trkpt>
      <trkpt lat="44.42881" lon="4.35273">
        <ele>106.2</ele>
        <time>2022-06-10T17:36:36Z</time>
      </trkpt>
      <trkpt lat="44.42878" lon="4.35271">
        <ele>106.4</ele>
        <time>2022-06-10T17:36:37Z</time>
      </trkpt>
      <trkpt lat="44.42877" lon="4.3527">
        <ele>106.5</ele>
        <time>2022-06-10T17:36:38Z</time>
      </trkpt>
      <trkpt lat="44.42874" lon="4.35268">
        <ele>106.7</ele>
        <time>2022-06-10T17:36:39Z</time>
      </trkpt>
      <trkpt lat="44.42872" lon="4.35268">
        <ele>106.7</ele>
        <time>2022-06-10T17:36:40Z</time>
      </trkpt>
      <trkpt lat="44.42869" lon="4.35268">
        <ele>107</ele>
        <time>2022-06-10T17:36:41Z</time>
      </trkpt>
      <trkpt lat="44.42868" lon="4.35268">
        <ele>107</ele>
        <time>2022-06-10T17:36:42Z</time>
      </trkpt>
      <trkpt lat="44.42864" lon="4.35267">
        <ele>107.2</ele>
        <time>2022-06-10T17:36:43Z</time>
      </trkpt>
      <trkpt lat="44.42863" lon="4.35266">
        <ele>107.3</ele>
        <time>2022-06-10T17:36:44Z</time>
      </trkpt>
      <trkpt lat="44.4286" lon="4.35265">
        <ele>107.5</ele>
        <time>2022-06-10T17:36:45Z</time>
      </trkpt>
      <trkpt lat="44.42859" lon="4.35265">
        <ele>107.5</ele>
        <time>2022-06-10T17:36:46Z</time>
      </trkpt>
      <trkpt lat="44.42855" lon="4.35264">
        <ele>107.7</ele>
        <time>2022-06-10T17:36:47Z</time>
      </trkpt>
      <trkpt lat="44.42854" lon="4.35263">
        <ele>107.8</ele>
        <time>2022-06-10T17:36:48Z</time>
      </trkpt>
      <trkpt lat="44.4285" lon="4.35262">
        <ele>108</ele>
        <time>2022-06-10T17:36:49Z</time>
      </trkpt>
      <trkpt lat="44.42849" lon="4.35261">
        <ele>108</ele>
        <time>2022-06-10T17:36:50Z</time>
      </trkpt>
      <trkpt lat="44.42845" lon="4.3526">
        <ele>108.2</ele>
        <time>2022-06-10T17:36:51Z</time>
      </trkpt>
      <trkpt lat="44.42844" lon="4.35259">
        <ele>108.3</ele>
        <time>2022-06-10T17:36:52Z</time>
      </trkpt>
      <trkpt lat="44.42842" lon="4.35259">
        <ele>108.4</ele>
        <time>2022-06-10T17:36:53Z</time>
      </trkpt>
      <trkpt lat="44.42839" lon="4.35258">
        <ele>108.4</ele>
        <time>2022-06-10T17:36:54Z</time>
      </trkpt>
      <trkpt lat="44.42835" lon="4.35258">
        <ele>108.6</ele>
        <time>2022-06-10T17:36:55Z</time>
      </trkpt>
      <trkpt lat="44.42833" lon="4.35258">
        <ele>108.6</ele>
        <time>2022-06-10T17:36:56Z</time>
      </trkpt>
      <trkpt lat="44.42831" lon="4.35258">
        <ele>108.7</ele>
        <time>2022-06-10T17:36:57Z</time>
      </trkpt>
      <trkpt lat="44.42828" lon="4.35258">
        <ele>108.7</ele>
        <time>2022-06-10T17:36:58Z</time>
      </trkpt>
      <trkpt lat="44.42825" lon="4.35259">
        <ele>108.8</ele>
        <time>2022-06-10T17:36:59Z</time>
      </trkpt>
      <trkpt lat="44.42822" lon="4.35259">
        <ele>108.8</ele>
        <time>2022-06-10T17:37:00Z</time>
      </trkpt>
      <trkpt lat="44.42819" lon="4.35259">
        <ele>108.9</ele>
        <time>2022-06-10T17:37:01Z</time>
      </trkpt>
      <trkpt lat="44.42816" lon="4.35259">
        <ele>108.9</ele>
        <time>2022-06-10T17:37:02Z</time>
      </trkpt>
      <trkpt lat="44.42812" lon="4.35259">
        <ele>109</ele>
        <time>2022-06-10T17:37:03Z</time>
      </trkpt>
      <trkpt lat="44.42809" lon="4.35259">
        <ele>109</ele>
        <time>2022-06-10T17:37:04Z</time>
      </trkpt>
      <trkpt lat="44.42805" lon="4.35259">
        <ele>109.1</ele>
        <time>2022-06-10T17:37:05Z</time>
      </trkpt>
      <trkpt lat="44.42801" lon="4.35258">
        <ele>109.1</ele>
        <time>2022-06-10T17:37:06Z</time>
      </trkpt>
      <trkpt lat="44.42794" lon="4.35257">
        <ele>109.2</ele>
        <time>2022-06-10T17:37:08Z</time>
      </trkpt>
      <trkpt lat="44.4279" lon="4.35256">
        <ele>109.2</ele>
        <time>2022-06-10T17:37:09Z</time>
      </trkpt>
      <trkpt lat="44.42783" lon="4.35253">
        <ele>109.4</ele>
        <time>2022-06-10T17:37:11Z</time>
      </trkpt>
      <trkpt lat="44.4278" lon="4.3525">
        <ele>109.4</ele>
        <time>2022-06-10T17:37:12Z</time>
      </trkpt>
      <trkpt lat="44.42777" lon="4.35248">
        <ele>109.6</ele>
        <time>2022-06-10T17:37:13Z</time>
      </trkpt>
      <trkpt lat="44.42772" lon="4.35244">
        <ele>109.8</ele>
        <time>2022-06-10T17:37:14Z</time>
      </trkpt>
      <trkpt lat="44.42768" lon="4.35241">
        <ele>109.9</ele>
        <time>2022-06-10T17:37:16Z</time>
      </trkpt>
      <trkpt lat="44.42765" lon="4.35238">
        <ele>110.1</ele>
        <time>2022-06-10T17:37:17Z</time>
      </trkpt>
      <trkpt lat="44.42762" lon="4.35237">
        <ele>110.2</ele>
        <time>2022-06-10T17:37:18Z</time>
      </trkpt>
      <trkpt lat="44.42759" lon="4.35235">
        <ele>110.4</ele>
        <time>2022-06-10T17:37:19Z</time>
      </trkpt>
      <trkpt lat="44.42754" lon="4.35236">
        <ele>110.5</ele>
        <time>2022-06-10T17:37:21Z</time>
      </trkpt>
      <trkpt lat="44.42751" lon="4.35237">
        <ele>110.6</ele>
        <time>2022-06-10T17:37:22Z</time>
      </trkpt>
      <trkpt lat="44.4275" lon="4.35237">
        <ele>110.6</ele>
        <time>2022-06-10T17:37:23Z</time>
      </trkpt>
      <trkpt lat="44.42746" lon="4.35237">
        <ele>110.7</ele>
        <time>2022-06-10T17:37:24Z</time>
      </trkpt>
      <trkpt lat="44.42745" lon="4.35238">
        <ele>110.7</ele>
        <time>2022-06-10T17:37:25Z</time>
      </trkpt>
      <trkpt lat="44.42741" lon="4.35239">
        <ele>110.8</ele>
        <time>2022-06-10T17:37:26Z</time>
      </trkpt>
      <trkpt lat="44.4274" lon="4.3524">
        <ele>110.8</ele>
        <time>2022-06-10T17:37:27Z</time>
      </trkpt>
      <trkpt lat="44.42737" lon="4.35241">
        <ele>110.9</ele>
        <time>2022-06-10T17:37:28Z</time>
      </trkpt>
      <trkpt lat="44.42734" lon="4.35242">
        <ele>111</ele>
        <time>2022-06-10T17:37:29Z</time>
      </trkpt>
      <trkpt lat="44.42731" lon="4.35242">
        <ele>111</ele>
        <time>2022-06-10T17:37:30Z</time>
      </trkpt>
      <trkpt lat="44.42728" lon="4.35243">
        <ele>111.1</ele>
        <time>2022-06-10T17:37:31Z</time>
      </trkpt>
      <trkpt lat="44.42724" lon="4.35243">
        <ele>111.2</ele>
        <time>2022-06-10T17:37:32Z</time>
      </trkpt>
      <trkpt lat="44.42721" lon="4.35244">
        <ele>111.3</ele>
        <time>2022-06-10T17:37:33Z</time>
      </trkpt>
      <trkpt lat="44.42718" lon="4.35244">
        <ele>111.4</ele>
        <time>2022-06-10T17:37:34Z</time>
      </trkpt>
      <trkpt lat="44.42712" lon="4.35243">
        <ele>111.6</ele>
        <time>2022-06-10T17:37:35Z</time>
      </trkpt>
      <trkpt lat="44.42708" lon="4.35242">
        <ele>111.7</ele>
        <time>2022-06-10T17:37:36Z</time>
      </trkpt>
      <trkpt lat="44.42705" lon="4.35241">
        <ele>111.9</ele>
        <time>2022-06-10T17:37:37Z</time>
      </trkpt>
      <trkpt lat="44.42698" lon="4.3524">
        <ele>112.1</ele>
        <time>2022-06-10T17:37:39Z</time>
      </trkpt>
      <trkpt lat="44.42693" lon="4.35238">
        <ele>112.2</ele>
        <time>2022-06-10T17:37:41Z</time>
      </trkpt>
      <trkpt lat="44.42687" lon="4.35235">
        <ele>112.4</ele>
        <time>2022-06-10T17:37:43Z</time>
      </trkpt>
      <trkpt lat="44.42685" lon="4.35234">
        <ele>112.5</ele>
        <time>2022-06-10T17:37:44Z</time>
      </trkpt>
      <trkpt lat="44.42682" lon="4.35233">
        <ele>112.6</ele>
        <time>2022-06-10T17:37:45Z</time>
      </trkpt>
      <trkpt lat="44.42679" lon="4.35232">
        <ele>112.7</ele>
        <time>2022-06-10T17:37:47Z</time>
      </trkpt>
      <trkpt lat="44.42676" lon="4.35231">
        <ele>112.7</ele>
        <time>2022-06-10T17:37:48Z</time>
      </trkpt>
      <trkpt lat="44.42673" lon="4.3523">
        <ele>112.8</ele>
        <time>2022-06-10T17:37:49Z</time>
      </trkpt>
      <trkpt lat="44.4267" lon="4.35228">
        <ele>112.9</ele>
        <time>2022-06-10T17:37:50Z</time>
      </trkpt>
      <trkpt lat="44.42667" lon="4.35226">
        <ele>113</ele>
        <time>2022-06-10T17:37:51Z</time>
      </trkpt>
      <trkpt lat="44.42664" lon="4.35225">
        <ele>113.1</ele>
        <time>2022-06-10T17:37:52Z</time>
      </trkpt>
      <trkpt lat="44.42661" lon="4.35224">
        <ele>113.1</ele>
        <time>2022-06-10T17:37:53Z</time>
      </trkpt>
      <trkpt lat="44.42656" lon="4.35221">
        <ele>113.2</ele>
        <time>2022-06-10T17:37:54Z</time>
      </trkpt>
      <trkpt lat="44.42653" lon="4.35218">
        <ele>113.3</ele>
        <time>2022-06-10T17:37:56Z</time>
      </trkpt>
      <trkpt lat="44.42651" lon="4.35215">
        <ele>113.4</ele>
        <time>2022-06-10T17:37:57Z</time>
      </trkpt>
      <trkpt lat="44.42648" lon="4.35212">
        <ele>113.5</ele>
        <time>2022-06-10T17:37:58Z</time>
      </trkpt>
      <trkpt lat="44.42645" lon="4.35208">
        <ele>113.5</ele>
        <time>2022-06-10T17:37:59Z</time>
      </trkpt>
      <trkpt lat="44.4264" lon="4.35204">
        <ele>113.6</ele>
        <time>2022-06-10T17:38:00Z</time>
      </trkpt>
      <trkpt lat="44.42637" lon="4.35202">
        <ele>113.6</ele>
        <time>2022-06-10T17:38:02Z</time>
      </trkpt>
      <trkpt lat="44.42634" lon="4.352">
        <ele>113.6</ele>
        <time>2022-06-10T17:38:03Z</time>
      </trkpt>
      <trkpt lat="44.4263" lon="4.35199">
        <ele>113.7</ele>
        <time>2022-06-10T17:38:04Z</time>
      </trkpt>
      <trkpt lat="44.42626" lon="4.35197">
        <ele>113.7</ele>
        <time>2022-06-10T17:38:05Z</time>
      </trkpt>
      <trkpt lat="44.42621" lon="4.35196">
        <ele>113.7</ele>
        <time>2022-06-10T17:38:06Z</time>
      </trkpt>
      <trkpt lat="44.42617" lon="4.35195">
        <ele>113.7</ele>
        <time>2022-06-10T17:38:08Z</time>
      </trkpt>
      <trkpt lat="44.42613" lon="4.35193">
        <ele>113.7</ele>
        <time>2022-06-10T17:38:09Z</time>
      </trkpt>
      <trkpt lat="44.42608" lon="4.35191">
        <ele>113.7</ele>
        <time>2022-06-10T17:38:10Z</time>
      </trkpt>
      <trkpt lat="44.42604" lon="4.35189">
        <ele>113.7</ele>
        <time>2022-06-10T17:38:11Z</time>
      </trkpt>
      <trkpt lat="44.42597" lon="4.35187">
        <ele>113.7</ele>
        <time>2022-06-10T17:38:13Z</time>
      </trkpt>
      <trkpt lat="44.42593" lon="4.35186">
        <ele>113.6</ele>
        <time>2022-06-10T17:38:14Z</time>
      </trkpt>
      <trkpt lat="44.42589" lon="4.35184">
        <ele>113.6</ele>
        <time>2022-06-10T17:38:15Z</time>
      </trkpt>
      <trkpt lat="44.42581" lon="4.3518">
        <ele>113.5</ele>
        <time>2022-06-10T17:38:16Z</time>
      </trkpt>
      <trkpt lat="44.42578" lon="4.35177">
        <ele>113.5</ele>
        <time>2022-06-10T17:38:18Z</time>
      </trkpt>
      <trkpt lat="44.42573" lon="4.35174">
        <ele>113.4</ele>
        <time>2022-06-10T17:38:19Z</time>
      </trkpt>
      <trkpt lat="44.42569" lon="4.35171">
        <ele>113.3</ele>
        <time>2022-06-10T17:38:20Z</time>
      </trkpt>
      <trkpt lat="44.42566" lon="4.35167">
        <ele>113.2</ele>
        <time>2022-06-10T17:38:21Z</time>
      </trkpt>
      <trkpt lat="44.42561" lon="4.35163">
        <ele>113.1</ele>
        <time>2022-06-10T17:38:22Z</time>
      </trkpt>
      <trkpt lat="44.42556" lon="4.35159">
        <ele>113</ele>
        <time>2022-06-10T17:38:23Z</time>
      </trkpt>
      <trkpt lat="44.42551" lon="4.35155">
        <ele>112.9</ele>
        <time>2022-06-10T17:38:24Z</time>
      </trkpt>
      <trkpt lat="44.42547" lon="4.35151">
        <ele>112.8</ele>
        <time>2022-06-10T17:38:25Z</time>
      </trkpt>
      <trkpt lat="44.42543" lon="4.35146">
        <ele>112.8</ele>
        <time>2022-06-10T17:38:26Z</time>
      </trkpt>
      <trkpt lat="44.42539" lon="4.35141">
        <ele>112.7</ele>
        <time>2022-06-10T17:38:27Z</time>
      </trkpt>
      <trkpt lat="44.42536" lon="4.35135">
        <ele>112.7</ele>
        <time>2022-06-10T17:38:28Z</time>
      </trkpt>
      <trkpt lat="44.42533" lon="4.35129">
        <ele>112.7</ele>
        <time>2022-06-10T17:38:29Z</time>
      </trkpt>
      <trkpt lat="44.4253" lon="4.35124">
        <ele>112.7</ele>
        <time>2022-06-10T17:38:30Z</time>
      </trkpt>
      <trkpt lat="44.42527" lon="4.35119">
        <ele>112.7</ele>
        <time>2022-06-10T17:38:31Z</time>
      </trkpt>
      <trkpt lat="44.42524" lon="4.35113">
        <ele>112.8</ele>
        <time>2022-06-10T17:38:32Z</time>
      </trkpt>
      <trkpt lat="44.42521" lon="4.35108">
        <ele>112.8</ele>
        <time>2022-06-10T17:38:33Z</time>
      </trkpt>
      <trkpt lat="44.42518" lon="4.35103">
        <ele>112.9</ele>
        <time>2022-06-10T17:38:34Z</time>
      </trkpt>
      <trkpt lat="44.42516" lon="4.35097">
        <ele>112.9</ele>
        <time>2022-06-10T17:38:35Z</time>
      </trkpt>
      <trkpt lat="44.42515" lon="4.35091">
        <ele>113</ele>
        <time>2022-06-10T17:38:36Z</time>
      </trkpt>
      <trkpt lat="44.42514" lon="4.35087">
        <ele>113</ele>
        <time>2022-06-10T17:38:37Z</time>
      </trkpt>
      <trkpt lat="44.42512" lon="4.35081">
        <ele>113.1</ele>
        <time>2022-06-10T17:38:38Z</time>
      </trkpt>
      <trkpt lat="44.42512" lon="4.35075">
        <ele>113.1</ele>
        <time>2022-06-10T17:38:39Z</time>
      </trkpt>
      <trkpt lat="44.42512" lon="4.35071">
        <ele>113.2</ele>
        <time>2022-06-10T17:38:40Z</time>
      </trkpt>
      <trkpt lat="44.42512" lon="4.35066">
        <ele>113.2</ele>
        <time>2022-06-10T17:38:41Z</time>
      </trkpt>
      <trkpt lat="44.42509" lon="4.35063">
        <ele>113.2</ele>
        <time>2022-06-10T17:38:42Z</time>
      </trkpt>
      <trkpt lat="44.42512" lon="4.35058">
        <ele>113.3</ele>
        <time>2022-06-10T17:38:43Z</time>
      </trkpt>
      <trkpt lat="44.42514" lon="4.35048">
        <ele>113.4</ele>
        <time>2022-06-10T17:38:44Z</time>
      </trkpt>
      <trkpt lat="44.42515" lon="4.35041">
        <ele>113.4</ele>
        <time>2022-06-10T17:38:45Z</time>
      </trkpt>
      <trkpt lat="44.42517" lon="4.35034">
        <ele>113.4</ele>
        <time>2022-06-10T17:38:46Z</time>
      </trkpt>
      <trkpt lat="44.42518" lon="4.35029">
        <ele>113.4</ele>
        <time>2022-06-10T17:38:47Z</time>
      </trkpt>
      <trkpt lat="44.42518" lon="4.35022">
        <ele>113.4</ele>
        <time>2022-06-10T17:38:49Z</time>
      </trkpt>
      <trkpt lat="44.42518" lon="4.35017">
        <ele>113.4</ele>
        <time>2022-06-10T17:38:50Z</time>
      </trkpt>
      <trkpt lat="44.42515" lon="4.35013">
        <ele>113.3</ele>
        <time>2022-06-10T17:38:51Z</time>
      </trkpt>
      <trkpt lat="44.4251" lon="4.35008">
        <ele>113.3</ele>
        <time>2022-06-10T17:38:52Z</time>
      </trkpt>
      <trkpt lat="44.42505" lon="4.35005">
        <ele>113.2</ele>
        <time>2022-06-10T17:38:53Z</time>
      </trkpt>
      <trkpt lat="44.42499" lon="4.35002">
        <ele>113.2</ele>
        <time>2022-06-10T17:38:55Z</time>
      </trkpt>
      <trkpt lat="44.42491" lon="4.35001">
        <ele>113.1</ele>
        <time>2022-06-10T17:38:57Z</time>
      </trkpt>
      <trkpt lat="44.42485" lon="4.35">
        <ele>113.1</ele>
        <time>2022-06-10T17:38:58Z</time>
      </trkpt>
      <trkpt lat="44.42479" lon="4.34998">
        <ele>113</ele>
        <time>2022-06-10T17:38:59Z</time>
      </trkpt>
      <trkpt lat="44.42473" lon="4.34996">
        <ele>112.8</ele>
        <time>2022-06-10T17:39:01Z</time>
      </trkpt>
      <trkpt lat="44.42467" lon="4.34995">
        <ele>112.7</ele>
        <time>2022-06-10T17:39:02Z</time>
      </trkpt>
      <trkpt lat="44.42463" lon="4.34994">
        <ele>112.6</ele>
        <time>2022-06-10T17:39:03Z</time>
      </trkpt>
      <trkpt lat="44.42458" lon="4.34992">
        <ele>112.5</ele>
        <time>2022-06-10T17:39:04Z</time>
      </trkpt>
      <trkpt lat="44.42454" lon="4.34989">
        <ele>112.3</ele>
        <time>2022-06-10T17:39:05Z</time>
      </trkpt>
      <trkpt lat="44.4245" lon="4.34986">
        <ele>112.1</ele>
        <time>2022-06-10T17:39:06Z</time>
      </trkpt>
      <trkpt lat="44.42445" lon="4.34983">
        <ele>111.8</ele>
        <time>2022-06-10T17:39:07Z</time>
      </trkpt>
      <trkpt lat="44.4244" lon="4.34982">
        <ele>111.5</ele>
        <time>2022-06-10T17:39:08Z</time>
      </trkpt>
      <trkpt lat="44.42436" lon="4.3498">
        <ele>111.1</ele>
        <time>2022-06-10T17:39:09Z</time>
      </trkpt>
      <trkpt lat="44.42434" lon="4.34977">
        <ele>110.8</ele>
        <time>2022-06-10T17:39:10Z</time>
      </trkpt>
      <trkpt lat="44.42433" lon="4.34975">
        <ele>110.6</ele>
        <time>2022-06-10T17:39:11Z</time>
      </trkpt>
      <trkpt lat="44.42428" lon="4.34968">
        <ele>109.8</ele>
        <time>2022-06-10T17:39:12Z</time>
      </trkpt>
      <trkpt lat="44.42425" lon="4.34962">
        <ele>109.1</ele>
        <time>2022-06-10T17:39:13Z</time>
      </trkpt>
      <trkpt lat="44.42422" lon="4.34955">
        <ele>108.5</ele>
        <time>2022-06-10T17:39:14Z</time>
      </trkpt>
      <trkpt lat="44.42419" lon="4.34949">
        <ele>107.8</ele>
        <time>2022-06-10T17:39:15Z</time>
      </trkpt>
      <trkpt lat="44.42416" lon="4.34943">
        <ele>107.1</ele>
        <time>2022-06-10T17:39:16Z</time>
      </trkpt>
      <trkpt lat="44.42413" lon="4.34936">
        <ele>106.5</ele>
        <time>2022-06-10T17:39:17Z</time>
      </trkpt>
      <trkpt lat="44.4241" lon="4.3493">
        <ele>105.8</ele>
        <time>2022-06-10T17:39:18Z</time>
      </trkpt>
      <trkpt lat="44.42407" lon="4.34924">
        <ele>105.2</ele>
        <time>2022-06-10T17:39:19Z</time>
      </trkpt>
      <trkpt lat="44.42405" lon="4.34918">
        <ele>104.7</ele>
        <time>2022-06-10T17:39:20Z</time>
      </trkpt>
      <trkpt lat="44.42403" lon="4.34911">
        <ele>104.2</ele>
        <time>2022-06-10T17:39:21Z</time>
      </trkpt>
      <trkpt lat="44.42402" lon="4.34905">
        <ele>103.7</ele>
        <time>2022-06-10T17:39:22Z</time>
      </trkpt>
      <trkpt lat="44.42401" lon="4.34898">
        <ele>103.2</ele>
        <time>2022-06-10T17:39:23Z</time>
      </trkpt>
      <trkpt lat="44.42401" lon="4.3489">
        <ele>102.7</ele>
        <time>2022-06-10T17:39:24Z</time>
      </trkpt>
      <trkpt lat="44.42401" lon="4.34881">
        <ele>102.2</ele>
        <time>2022-06-10T17:39:25Z</time>
      </trkpt>
      <trkpt lat="44.42402" lon="4.34872">
        <ele>101.8</ele>
        <time>2022-06-10T17:39:26Z</time>
      </trkpt>
      <trkpt lat="44.42401" lon="4.34863">
        <ele>101.6</ele>
        <time>2022-06-10T17:39:27Z</time>
      </trkpt>
      <trkpt lat="44.42399" lon="4.34856">
        <ele>101.4</ele>
        <time>2022-06-10T17:39:28Z</time>
      </trkpt>
      <trkpt lat="44.42395" lon="4.3485">
        <ele>101.2</ele>
        <time>2022-06-10T17:39:29Z</time>
      </trkpt>
      <trkpt lat="44.4239" lon="4.34845">
        <ele>101.1</ele>
        <time>2022-06-10T17:39:30Z</time>
      </trkpt>
      <trkpt lat="44.42385" lon="4.34842">
        <ele>101</ele>
        <time>2022-06-10T17:39:31Z</time>
      </trkpt>
      <trkpt lat="44.42379" lon="4.34841">
        <ele>101</ele>
        <time>2022-06-10T17:39:32Z</time>
      </trkpt>
      <trkpt lat="44.42374" lon="4.34841">
        <ele>101</ele>
        <time>2022-06-10T17:39:33Z</time>
      </trkpt>
      <trkpt lat="44.42369" lon="4.34841">
        <ele>101</ele>
        <time>2022-06-10T17:39:34Z</time>
      </trkpt>
      <trkpt lat="44.42363" lon="4.34842">
        <ele>101</ele>
        <time>2022-06-10T17:39:35Z</time>
      </trkpt>
      <trkpt lat="44.42359" lon="4.34842">
        <ele>101</ele>
        <time>2022-06-10T17:39:36Z</time>
      </trkpt>
      <trkpt lat="44.42356" lon="4.34841">
        <ele>101</ele>
        <time>2022-06-10T17:39:37Z</time>
      </trkpt>
      <trkpt lat="44.42351" lon="4.3484">
        <ele>101</ele>
        <time>2022-06-10T17:39:38Z</time>
      </trkpt>
      <trkpt lat="44.42345" lon="4.34837">
        <ele>101.1</ele>
        <time>2022-06-10T17:39:39Z</time>
      </trkpt>
      <trkpt lat="44.4234" lon="4.34835">
        <ele>101.1</ele>
        <time>2022-06-10T17:39:40Z</time>
      </trkpt>
      <trkpt lat="44.42335" lon="4.34833">
        <ele>101.1</ele>
        <time>2022-06-10T17:39:41Z</time>
      </trkpt>
      <trkpt lat="44.4233" lon="4.34831">
        <ele>101.2</ele>
        <time>2022-06-10T17:39:42Z</time>
      </trkpt>
      <trkpt lat="44.42325" lon="4.34829">
        <ele>101.3</ele>
        <time>2022-06-10T17:39:43Z</time>
      </trkpt>
      <trkpt lat="44.4232" lon="4.34826">
        <ele>101.5</ele>
        <time>2022-06-10T17:39:44Z</time>
      </trkpt>
      <trkpt lat="44.42316" lon="4.34824">
        <ele>101.7</ele>
        <time>2022-06-10T17:39:45Z</time>
      </trkpt>
      <trkpt lat="44.42312" lon="4.34821">
        <ele>101.9</ele>
        <time>2022-06-10T17:39:46Z</time>
      </trkpt>
      <trkpt lat="44.42308" lon="4.34819">
        <ele>102.1</ele>
        <time>2022-06-10T17:39:47Z</time>
      </trkpt>
      <trkpt lat="44.42306" lon="4.3482">
        <ele>102.3</ele>
        <time>2022-06-10T17:39:48Z</time>
      </trkpt>
      <trkpt lat="44.42305" lon="4.34821">
        <ele>102.3</ele>
        <time>2022-06-10T17:39:49Z</time>
      </trkpt>
      <trkpt lat="44.42302" lon="4.34819">
        <ele>102.3</ele>
        <time>2022-06-10T17:39:50Z</time>
      </trkpt>
      <trkpt lat="44.42299" lon="4.34817">
        <ele>102.5</ele>
        <time>2022-06-10T17:39:51Z</time>
      </trkpt>
      <trkpt lat="44.42298" lon="4.34816">
        <ele>102.5</ele>
        <time>2022-06-10T17:39:52Z</time>
      </trkpt>
      <trkpt lat="44.42295" lon="4.34814">
        <ele>102.5</ele>
        <time>2022-06-10T17:39:53Z</time>
      </trkpt>
      <trkpt lat="44.42294" lon="4.34812">
        <ele>102.5</ele>
        <time>2022-06-10T17:39:55Z</time>
      </trkpt>
      <trkpt lat="44.42295" lon="4.34809">
        <ele>102.5</ele>
        <time>2022-06-10T17:39:57Z</time>
      </trkpt>
      <trkpt lat="44.42294" lon="4.34808">
        <ele>102.5</ele>
        <time>2022-06-10T17:39:58Z</time>
      </trkpt>
      <trkpt lat="44.42294" lon="4.34808">
        <ele>102.5</ele>
        <time>2022-06-10T17:39:59Z</time>
      </trkpt>
      <trkpt lat="44.42293" lon="4.34807">
        <ele>102.5</ele>
        <time>2022-06-10T17:40:00Z</time>
      </trkpt>
      <trkpt lat="44.42293" lon="4.34806">
        <ele>102.5</ele>
        <time>2022-06-10T17:40:01Z</time>
      </trkpt>
      <trkpt lat="44.42291" lon="4.34802">
        <ele>102.5</ele>
        <time>2022-06-10T17:40:02Z</time>
      </trkpt>
      <trkpt lat="44.4229" lon="4.34801">
        <ele>103.4</ele>
        <time>2022-06-10T17:40:03Z</time>
      </trkpt>
      <trkpt lat="44.4229" lon="4.34799">
        <ele>103.4</ele>
        <time>2022-06-10T17:40:04Z</time>
      </trkpt>
      <trkpt lat="44.42289" lon="4.34796">
        <ele>103.4</ele>
        <time>2022-06-10T17:40:06Z</time>
      </trkpt>
      <trkpt lat="44.42287" lon="4.34793">
        <ele>102.8</ele>
        <time>2022-06-10T17:40:07Z</time>
      </trkpt>
      <trkpt lat="44.42286" lon="4.34792">
        <ele>102.8</ele>
        <time>2022-06-10T17:40:08Z</time>
      </trkpt>
      <trkpt lat="44.42283" lon="4.34789">
        <ele>102.8</ele>
        <time>2022-06-10T17:40:09Z</time>
      </trkpt>
      <trkpt lat="44.42282" lon="4.34787">
        <ele>102.8</ele>
        <time>2022-06-10T17:40:10Z</time>
      </trkpt>
      <trkpt lat="44.42281" lon="4.34782">
        <ele>103.9</ele>
        <time>2022-06-10T17:40:12Z</time>
      </trkpt>
      <trkpt lat="44.42281" lon="4.3478">
        <ele>103.9</ele>
        <time>2022-06-10T17:40:13Z</time>
      </trkpt>
      <trkpt lat="44.42281" lon="4.34778">
        <ele>103.9</ele>
        <time>2022-06-10T17:40:15Z</time>
      </trkpt>
      <trkpt lat="44.4228" lon="4.34777">
        <ele>103.9</ele>
        <time>2022-06-10T17:40:16Z</time>
      </trkpt>
      <trkpt lat="44.4228" lon="4.34775">
        <ele>103.9</ele>
        <time>2022-06-10T17:40:17Z</time>
      </trkpt>
      <trkpt lat="44.4228" lon="4.34774">
        <ele>103.9</ele>
        <time>2022-06-10T17:40:18Z</time>
      </trkpt>
      <trkpt lat="44.4228" lon="4.34772">
        <ele>103.9</ele>
        <time>2022-06-10T17:40:20Z</time>
      </trkpt>
      <trkpt lat="44.4228" lon="4.3477">
        <ele>103.9</ele>
        <time>2022-06-10T17:40:21Z</time>
      </trkpt>
      <trkpt lat="44.4228" lon="4.34769">
        <ele>103.9</ele>
        <time>2022-06-10T17:40:22Z</time>
      </trkpt>
      <trkpt lat="44.42279" lon="4.34766">
        <ele>105</ele>
        <time>2022-06-10T17:40:23Z</time>
      </trkpt>
      <trkpt lat="44.4228" lon="4.34765">
        <ele>105</ele>
        <time>2022-06-10T17:40:24Z</time>
      </trkpt>
      <trkpt lat="44.4228" lon="4.34761">
        <ele>105</ele>
        <time>2022-06-10T17:40:25Z</time>
      </trkpt>
      <trkpt lat="44.4228" lon="4.3476">
        <ele>105</ele>
        <time>2022-06-10T17:40:27Z</time>
      </trkpt>
      <trkpt lat="44.4228" lon="4.34758">
        <ele>105</ele>
        <time>2022-06-10T17:40:28Z</time>
      </trkpt>
      <trkpt lat="44.4228" lon="4.34757">
        <ele>105</ele>
        <time>2022-06-10T17:40:29Z</time>
      </trkpt>
      <trkpt lat="44.4228" lon="4.34755">
        <ele>105</ele>
        <time>2022-06-10T17:40:30Z</time>
      </trkpt>
      <trkpt lat="44.4228" lon="4.34751">
        <ele>105</ele>
        <time>2022-06-10T17:40:31Z</time>
      </trkpt>
      <trkpt lat="44.42281" lon="4.34747">
        <ele>106.5</ele>
        <time>2022-06-10T17:40:33Z</time>
      </trkpt>
      <trkpt lat="44.42282" lon="4.34746">
        <ele>106.5</ele>
        <time>2022-06-10T17:40:34Z</time>
      </trkpt>
      <trkpt lat="44.42282" lon="4.34745">
        <ele>106.5</ele>
        <time>2022-06-10T17:40:35Z</time>
      </trkpt>
      <trkpt lat="44.42282" lon="4.34745">
        <ele>106.5</ele>
        <time>2022-06-10T17:40:36Z</time>
      </trkpt>
      <trkpt lat="44.42282" lon="4.34745">
        <ele>106.5</ele>
        <time>2022-06-10T17:40:37Z</time>
      </trkpt>
      <trkpt lat="44.42282" lon="4.34745">
        <ele>106.5</ele>
        <time>2022-06-10T17:40:38Z</time>
      </trkpt>
      <trkpt lat="44.42282" lon="4.34745">
        <ele>106.5</ele>
        <time>2022-06-10T17:40:39Z</time>
      </trkpt>
      <trkpt lat="44.42282" lon="4.34745">
        <ele>106.5</ele>
        <time>2022-06-10T17:40:40Z</time>
      </trkpt>
      <trkpt lat="44.42282" lon="4.34745">
        <ele>106.5</ele>
        <time>2022-06-10T17:40:41Z</time>
      </trkpt>
      <trkpt lat="44.42282" lon="4.34745">
        <ele>106.5</ele>
        <time>2022-06-10T17:40:42Z</time>
      </trkpt>
      <trkpt lat="44.42282" lon="4.34744">
        <ele>106.5</ele>
        <time>2022-06-10T17:40:43Z</time>
      </trkpt>
      <trkpt lat="44.42282" lon="4.34744">
        <ele>106.5</ele>
        <time>2022-06-10T17:40:44Z</time>
      </trkpt>
      <trkpt lat="44.42282" lon="4.34744">
        <ele>106.5</ele>
        <time>2022-06-10T17:40:45Z</time>
      </trkpt>
    </trkseg>
  </trk>
</gpx>